<?xml version="1.0" encoding="UTF-8"?>
<gpx version="1.1" creator="https://www.youtrack.es" xsi:schemaLocation="http://www.topografix.com/GPX/1/1 http://www.topografix.com/GPX/1/1/gpx.xsd http://www.garmin.com/xmlschemas/GpxExtensions/v3 http://www.garmin.com/xmlschemas/GpxExtensionsv3.xsd http://www.garmin.com/xmlschemas/TrackPointExtension/v1 http://www.garmin.com/xmlschemas/TrackPointExtensionv1.xsd" xmlns:gpxtpx="http://www.garmin.com/xmlschemas/TrackPointExtension/v1" xmlns:gpxx="http://www.garmin.com/xmlschemas/GpxExtensions/v3" xmlns:xsi="http://www.w3.org/2001/XMLSchema-instance">
  <metadata>
    <link href="https://www.youtrack.es">
      <text>YouTrack.es</text>
    </link>
    <time>2026-05-10T15:54:16Z</time>
  </metadata>
  <trk>
    <src>https://www.youtrack.es</src>
    <link href="https://www.youtrack.es/ruta/16387-ciclismo-por-la-ma-ana">
      <text>YouTrack.es</text>
    </link>
    <trkseg>
      <trkpt lat="40.0541570" lon="-4.6435560">
        <ele>409.6</ele>
        <time>2020-10-04T05:57:58Z</time>
      </trkpt>
      <trkpt lat="40.0541360" lon="-4.6435520">
        <ele>409.6</ele>
        <time>2020-10-04T05:57:59Z</time>
      </trkpt>
      <trkpt lat="40.0540550" lon="-4.6435480">
        <ele>409.6</ele>
        <time>2020-10-04T05:58:02Z</time>
      </trkpt>
      <trkpt lat="40.0540250" lon="-4.6435420">
        <ele>409.6</ele>
        <time>2020-10-04T05:58:03Z</time>
      </trkpt>
      <trkpt lat="40.0537970" lon="-4.6434860">
        <ele>409.6</ele>
        <time>2020-10-04T05:58:10Z</time>
      </trkpt>
      <trkpt lat="40.0537530" lon="-4.6434760">
        <ele>410.6</ele>
        <time>2020-10-04T05:58:11Z</time>
      </trkpt>
      <trkpt lat="40.0535350" lon="-4.6434320">
        <ele>410.6</ele>
        <time>2020-10-04T05:58:15Z</time>
      </trkpt>
      <trkpt lat="40.0534260" lon="-4.6434140">
        <ele>410.6</ele>
        <time>2020-10-04T05:58:17Z</time>
      </trkpt>
      <trkpt lat="40.0533290" lon="-4.6434660">
        <ele>410.6</ele>
        <time>2020-10-04T05:58:19Z</time>
      </trkpt>
      <trkpt lat="40.0532680" lon="-4.6436520">
        <ele>410.6</ele>
        <time>2020-10-04T05:58:22Z</time>
      </trkpt>
      <trkpt lat="40.0532600" lon="-4.6437720">
        <ele>410.6</ele>
        <time>2020-10-04T05:58:24Z</time>
      </trkpt>
      <trkpt lat="40.0532440" lon="-4.6439810">
        <ele>410.6</ele>
        <time>2020-10-04T05:58:28Z</time>
      </trkpt>
      <trkpt lat="40.0532310" lon="-4.6441110">
        <ele>411.0</ele>
        <time>2020-10-04T05:58:31Z</time>
      </trkpt>
      <trkpt lat="40.0532210" lon="-4.6441480">
        <ele>411.6</ele>
        <time>2020-10-04T05:58:32Z</time>
      </trkpt>
      <trkpt lat="40.0532090" lon="-4.6441810">
        <ele>412.0</ele>
        <time>2020-10-04T05:58:33Z</time>
      </trkpt>
      <trkpt lat="40.0531940" lon="-4.6442120">
        <ele>412.4</ele>
        <time>2020-10-04T05:58:34Z</time>
      </trkpt>
      <trkpt lat="40.0531780" lon="-4.6442440">
        <ele>412.8</ele>
        <time>2020-10-04T05:58:35Z</time>
      </trkpt>
      <trkpt lat="40.0531380" lon="-4.6442930">
        <ele>412.8</ele>
        <time>2020-10-04T05:58:37Z</time>
      </trkpt>
      <trkpt lat="40.0530890" lon="-4.6443200">
        <ele>413.2</ele>
        <time>2020-10-04T05:58:39Z</time>
      </trkpt>
      <trkpt lat="40.0530640" lon="-4.6443260">
        <ele>413.6</ele>
        <time>2020-10-04T05:58:40Z</time>
      </trkpt>
      <trkpt lat="40.0530350" lon="-4.6443300">
        <ele>414.2</ele>
        <time>2020-10-04T05:58:41Z</time>
      </trkpt>
      <trkpt lat="40.0530050" lon="-4.6443350">
        <ele>414.6</ele>
        <time>2020-10-04T05:58:42Z</time>
      </trkpt>
      <trkpt lat="40.0529700" lon="-4.6443400">
        <ele>415.0</ele>
        <time>2020-10-04T05:58:43Z</time>
      </trkpt>
      <trkpt lat="40.0528620" lon="-4.6443840">
        <ele>415.0</ele>
        <time>2020-10-04T05:58:46Z</time>
      </trkpt>
      <trkpt lat="40.0528220" lon="-4.6444090">
        <ele>415.0</ele>
        <time>2020-10-04T05:58:47Z</time>
      </trkpt>
      <trkpt lat="40.0525940" lon="-4.6446130">
        <ele>415.0</ele>
        <time>2020-10-04T05:58:52Z</time>
      </trkpt>
      <trkpt lat="40.0524450" lon="-4.6447490">
        <ele>415.0</ele>
        <time>2020-10-04T05:58:55Z</time>
      </trkpt>
      <trkpt lat="40.0522440" lon="-4.6449320">
        <ele>415.0</ele>
        <time>2020-10-04T05:58:59Z</time>
      </trkpt>
      <trkpt lat="40.0519770" lon="-4.6451420">
        <ele>415.0</ele>
        <time>2020-10-04T05:59:04Z</time>
      </trkpt>
      <trkpt lat="40.0518780" lon="-4.6452280">
        <ele>414.4</ele>
        <time>2020-10-04T05:59:06Z</time>
      </trkpt>
      <trkpt lat="40.0518290" lon="-4.6452750">
        <ele>414.0</ele>
        <time>2020-10-04T05:59:07Z</time>
      </trkpt>
      <trkpt lat="40.0517780" lon="-4.6453210">
        <ele>413.6</ele>
        <time>2020-10-04T05:59:08Z</time>
      </trkpt>
      <trkpt lat="40.0517260" lon="-4.6453680">
        <ele>413.0</ele>
        <time>2020-10-04T05:59:09Z</time>
      </trkpt>
      <trkpt lat="40.0516740" lon="-4.6454140">
        <ele>412.6</ele>
        <time>2020-10-04T05:59:10Z</time>
      </trkpt>
      <trkpt lat="40.0515200" lon="-4.6455430">
        <ele>412.6</ele>
        <time>2020-10-04T05:59:13Z</time>
      </trkpt>
      <trkpt lat="40.0514690" lon="-4.6455760">
        <ele>412.6</ele>
        <time>2020-10-04T05:59:14Z</time>
      </trkpt>
      <trkpt lat="40.0512980" lon="-4.6456100">
        <ele>412.6</ele>
        <time>2020-10-04T05:59:17Z</time>
      </trkpt>
      <trkpt lat="40.0511460" lon="-4.6455080">
        <ele>412.6</ele>
        <time>2020-10-04T05:59:20Z</time>
      </trkpt>
      <trkpt lat="40.0510640" lon="-4.6452710">
        <ele>412.6</ele>
        <time>2020-10-04T05:59:23Z</time>
      </trkpt>
      <trkpt lat="40.0510490" lon="-4.6451770">
        <ele>412.2</ele>
        <time>2020-10-04T05:59:24Z</time>
      </trkpt>
      <trkpt lat="40.0510320" lon="-4.6450780">
        <ele>411.8</ele>
        <time>2020-10-04T05:59:25Z</time>
      </trkpt>
      <trkpt lat="40.0510130" lon="-4.6449720">
        <ele>411.4</ele>
        <time>2020-10-04T05:59:26Z</time>
      </trkpt>
      <trkpt lat="40.0510010" lon="-4.6448720">
        <ele>411.0</ele>
        <time>2020-10-04T05:59:27Z</time>
      </trkpt>
      <trkpt lat="40.0509830" lon="-4.6447690">
        <ele>410.4</ele>
        <time>2020-10-04T05:59:28Z</time>
      </trkpt>
      <trkpt lat="40.0509640" lon="-4.6446620">
        <ele>410.4</ele>
        <time>2020-10-04T05:59:29Z</time>
      </trkpt>
      <trkpt lat="40.0509340" lon="-4.6445540">
        <ele>410.0</ele>
        <time>2020-10-04T05:59:30Z</time>
      </trkpt>
      <trkpt lat="40.0508890" lon="-4.6444570">
        <ele>409.6</ele>
        <time>2020-10-04T05:59:31Z</time>
      </trkpt>
      <trkpt lat="40.0508260" lon="-4.6443780">
        <ele>409.2</ele>
        <time>2020-10-04T05:59:32Z</time>
      </trkpt>
      <trkpt lat="40.0507530" lon="-4.6443180">
        <ele>408.8</ele>
        <time>2020-10-04T05:59:33Z</time>
      </trkpt>
      <trkpt lat="40.0506690" lon="-4.6442850">
        <ele>408.4</ele>
        <time>2020-10-04T05:59:34Z</time>
      </trkpt>
      <trkpt lat="40.0505820" lon="-4.6442680">
        <ele>408.4</ele>
        <time>2020-10-04T05:59:35Z</time>
      </trkpt>
      <trkpt lat="40.0503500" lon="-4.6443120">
        <ele>408.4</ele>
        <time>2020-10-04T05:59:38Z</time>
      </trkpt>
      <trkpt lat="40.0502160" lon="-4.6443860">
        <ele>408.4</ele>
        <time>2020-10-04T05:59:40Z</time>
      </trkpt>
      <trkpt lat="40.0500320" lon="-4.6445040">
        <ele>408.4</ele>
        <time>2020-10-04T05:59:43Z</time>
      </trkpt>
      <trkpt lat="40.0495080" lon="-4.6448300">
        <ele>408.4</ele>
        <time>2020-10-04T05:59:51Z</time>
      </trkpt>
      <trkpt lat="40.0494410" lon="-4.6448700">
        <ele>408.4</ele>
        <time>2020-10-04T05:59:52Z</time>
      </trkpt>
      <trkpt lat="40.0491040" lon="-4.6450940">
        <ele>408.0</ele>
        <time>2020-10-04T05:59:57Z</time>
      </trkpt>
      <trkpt lat="40.0490380" lon="-4.6451380">
        <ele>407.6</ele>
        <time>2020-10-04T05:59:58Z</time>
      </trkpt>
      <trkpt lat="40.0489650" lon="-4.6451820">
        <ele>407.0</ele>
        <time>2020-10-04T05:59:59Z</time>
      </trkpt>
      <trkpt lat="40.0488850" lon="-4.6452220">
        <ele>406.6</ele>
        <time>2020-10-04T06:00:00Z</time>
      </trkpt>
      <trkpt lat="40.0488070" lon="-4.6452470">
        <ele>406.2</ele>
        <time>2020-10-04T06:00:01Z</time>
      </trkpt>
      <trkpt lat="40.0487190" lon="-4.6452650">
        <ele>405.8</ele>
        <time>2020-10-04T06:00:02Z</time>
      </trkpt>
      <trkpt lat="40.0486330" lon="-4.6452690">
        <ele>405.2</ele>
        <time>2020-10-04T06:00:03Z</time>
      </trkpt>
      <trkpt lat="40.0485390" lon="-4.6452630">
        <ele>404.6</ele>
        <time>2020-10-04T06:00:04Z</time>
      </trkpt>
      <trkpt lat="40.0484460" lon="-4.6452480">
        <ele>404.2</ele>
        <time>2020-10-04T06:00:05Z</time>
      </trkpt>
      <trkpt lat="40.0483480" lon="-4.6452270">
        <ele>403.6</ele>
        <time>2020-10-04T06:00:06Z</time>
      </trkpt>
      <trkpt lat="40.0482470" lon="-4.6452040">
        <ele>403.0</ele>
        <time>2020-10-04T06:00:07Z</time>
      </trkpt>
      <trkpt lat="40.0481470" lon="-4.6451860">
        <ele>402.4</ele>
        <time>2020-10-04T06:00:08Z</time>
      </trkpt>
      <trkpt lat="40.0480410" lon="-4.6451770">
        <ele>401.8</ele>
        <time>2020-10-04T06:00:09Z</time>
      </trkpt>
      <trkpt lat="40.0479350" lon="-4.6451820">
        <ele>401.2</ele>
        <time>2020-10-04T06:00:10Z</time>
      </trkpt>
      <trkpt lat="40.0478290" lon="-4.6452040">
        <ele>400.6</ele>
        <time>2020-10-04T06:00:11Z</time>
      </trkpt>
      <trkpt lat="40.0477300" lon="-4.6452430">
        <ele>399.8</ele>
        <time>2020-10-04T06:00:12Z</time>
      </trkpt>
      <trkpt lat="40.0476430" lon="-4.6452910">
        <ele>399.2</ele>
        <time>2020-10-04T06:00:13Z</time>
      </trkpt>
      <trkpt lat="40.0475600" lon="-4.6453430">
        <ele>398.6</ele>
        <time>2020-10-04T06:00:14Z</time>
      </trkpt>
      <trkpt lat="40.0474770" lon="-4.6453990">
        <ele>398.0</ele>
        <time>2020-10-04T06:00:15Z</time>
      </trkpt>
      <trkpt lat="40.0471530" lon="-4.6456260">
        <ele>398.0</ele>
        <time>2020-10-04T06:00:19Z</time>
      </trkpt>
      <trkpt lat="40.0470660" lon="-4.6456860">
        <ele>397.4</ele>
        <time>2020-10-04T06:00:20Z</time>
      </trkpt>
      <trkpt lat="40.0469770" lon="-4.6457460">
        <ele>396.8</ele>
        <time>2020-10-04T06:00:21Z</time>
      </trkpt>
      <trkpt lat="40.0468860" lon="-4.6458050">
        <ele>396.2</ele>
        <time>2020-10-04T06:00:22Z</time>
      </trkpt>
      <trkpt lat="40.0467910" lon="-4.6458660">
        <ele>395.4</ele>
        <time>2020-10-04T06:00:23Z</time>
      </trkpt>
      <trkpt lat="40.0466940" lon="-4.6459340">
        <ele>394.6</ele>
        <time>2020-10-04T06:00:24Z</time>
      </trkpt>
      <trkpt lat="40.0466000" lon="-4.6460020">
        <ele>393.6</ele>
        <time>2020-10-04T06:00:25Z</time>
      </trkpt>
      <trkpt lat="40.0465000" lon="-4.6460710">
        <ele>392.8</ele>
        <time>2020-10-04T06:00:26Z</time>
      </trkpt>
      <trkpt lat="40.0463980" lon="-4.6461390">
        <ele>392.0</ele>
        <time>2020-10-04T06:00:27Z</time>
      </trkpt>
      <trkpt lat="40.0461970" lon="-4.6462710">
        <ele>391.2</ele>
        <time>2020-10-04T06:00:29Z</time>
      </trkpt>
      <trkpt lat="40.0460920" lon="-4.6463410">
        <ele>390.2</ele>
        <time>2020-10-04T06:00:30Z</time>
      </trkpt>
      <trkpt lat="40.0459890" lon="-4.6464080">
        <ele>389.4</ele>
        <time>2020-10-04T06:00:31Z</time>
      </trkpt>
      <trkpt lat="40.0458880" lon="-4.6464610">
        <ele>388.4</ele>
        <time>2020-10-04T06:00:32Z</time>
      </trkpt>
      <trkpt lat="40.0457780" lon="-4.6465020">
        <ele>387.6</ele>
        <time>2020-10-04T06:00:33Z</time>
      </trkpt>
      <trkpt lat="40.0456710" lon="-4.6465260">
        <ele>386.8</ele>
        <time>2020-10-04T06:00:34Z</time>
      </trkpt>
      <trkpt lat="40.0455650" lon="-4.6465410">
        <ele>385.8</ele>
        <time>2020-10-04T06:00:35Z</time>
      </trkpt>
      <trkpt lat="40.0454570" lon="-4.6465540">
        <ele>385.0</ele>
        <time>2020-10-04T06:00:36Z</time>
      </trkpt>
      <trkpt lat="40.0453560" lon="-4.6465760">
        <ele>384.4</ele>
        <time>2020-10-04T06:00:37Z</time>
      </trkpt>
      <trkpt lat="40.0452620" lon="-4.6466250">
        <ele>383.8</ele>
        <time>2020-10-04T06:00:38Z</time>
      </trkpt>
      <trkpt lat="40.0451950" lon="-4.6466980">
        <ele>383.2</ele>
        <time>2020-10-04T06:00:39Z</time>
      </trkpt>
      <trkpt lat="40.0451470" lon="-4.6467900">
        <ele>382.6</ele>
        <time>2020-10-04T06:00:40Z</time>
      </trkpt>
      <trkpt lat="40.0450970" lon="-4.6469950">
        <ele>382.0</ele>
        <time>2020-10-04T06:00:42Z</time>
      </trkpt>
      <trkpt lat="40.0450830" lon="-4.6470940">
        <ele>382.0</ele>
        <time>2020-10-04T06:00:43Z</time>
      </trkpt>
      <trkpt lat="40.0451620" lon="-4.6473610">
        <ele>382.0</ele>
        <time>2020-10-04T06:00:46Z</time>
      </trkpt>
      <trkpt lat="40.0452100" lon="-4.6474470">
        <ele>382.0</ele>
        <time>2020-10-04T06:00:47Z</time>
      </trkpt>
      <trkpt lat="40.0452610" lon="-4.6475370">
        <ele>382.0</ele>
        <time>2020-10-04T06:00:48Z</time>
      </trkpt>
      <trkpt lat="40.0453050" lon="-4.6476150">
        <ele>382.0</ele>
        <time>2020-10-04T06:00:49Z</time>
      </trkpt>
      <trkpt lat="40.0453920" lon="-4.6477750">
        <ele>382.0</ele>
        <time>2020-10-04T06:00:51Z</time>
      </trkpt>
      <trkpt lat="40.0454370" lon="-4.6478560">
        <ele>382.0</ele>
        <time>2020-10-04T06:00:52Z</time>
      </trkpt>
      <trkpt lat="40.0455560" lon="-4.6480850">
        <ele>382.0</ele>
        <time>2020-10-04T06:00:55Z</time>
      </trkpt>
      <trkpt lat="40.0455810" lon="-4.6481660">
        <ele>382.0</ele>
        <time>2020-10-04T06:00:56Z</time>
      </trkpt>
      <trkpt lat="40.0455990" lon="-4.6482440">
        <ele>382.0</ele>
        <time>2020-10-04T06:00:57Z</time>
      </trkpt>
      <trkpt lat="40.0456130" lon="-4.6483660">
        <ele>382.0</ele>
        <time>2020-10-04T06:00:59Z</time>
      </trkpt>
      <trkpt lat="40.0456110" lon="-4.6484130">
        <ele>382.0</ele>
        <time>2020-10-04T06:01:00Z</time>
      </trkpt>
      <trkpt lat="40.0456070" lon="-4.6484540">
        <ele>382.0</ele>
        <time>2020-10-04T06:01:01Z</time>
      </trkpt>
      <trkpt lat="40.0456080" lon="-4.6485340">
        <ele>382.0</ele>
        <time>2020-10-04T06:01:03Z</time>
      </trkpt>
      <trkpt lat="40.0456040" lon="-4.6486100">
        <ele>382.0</ele>
        <time>2020-10-04T06:01:05Z</time>
      </trkpt>
      <trkpt lat="40.0455970" lon="-4.6486900">
        <ele>382.4</ele>
        <time>2020-10-04T06:01:07Z</time>
      </trkpt>
      <trkpt lat="40.0455920" lon="-4.6487290">
        <ele>382.8</ele>
        <time>2020-10-04T06:01:08Z</time>
      </trkpt>
      <trkpt lat="40.0455860" lon="-4.6487680">
        <ele>383.2</ele>
        <time>2020-10-04T06:01:09Z</time>
      </trkpt>
      <trkpt lat="40.0455780" lon="-4.6488080">
        <ele>383.6</ele>
        <time>2020-10-04T06:01:10Z</time>
      </trkpt>
      <trkpt lat="40.0455670" lon="-4.6488510">
        <ele>384.0</ele>
        <time>2020-10-04T06:01:11Z</time>
      </trkpt>
      <trkpt lat="40.0455460" lon="-4.6490250">
        <ele>384.0</ele>
        <time>2020-10-04T06:01:15Z</time>
      </trkpt>
      <trkpt lat="40.0455590" lon="-4.6492120">
        <ele>384.4</ele>
        <time>2020-10-04T06:01:19Z</time>
      </trkpt>
      <trkpt lat="40.0455690" lon="-4.6492620">
        <ele>384.8</ele>
        <time>2020-10-04T06:01:20Z</time>
      </trkpt>
      <trkpt lat="40.0455810" lon="-4.6493120">
        <ele>385.4</ele>
        <time>2020-10-04T06:01:21Z</time>
      </trkpt>
      <trkpt lat="40.0455950" lon="-4.6493640">
        <ele>385.8</ele>
        <time>2020-10-04T06:01:22Z</time>
      </trkpt>
      <trkpt lat="40.0456090" lon="-4.6494150">
        <ele>386.2</ele>
        <time>2020-10-04T06:01:23Z</time>
      </trkpt>
      <trkpt lat="40.0456800" lon="-4.6496630">
        <ele>386.2</ele>
        <time>2020-10-04T06:01:28Z</time>
      </trkpt>
      <trkpt lat="40.0457200" lon="-4.6498180">
        <ele>386.2</ele>
        <time>2020-10-04T06:01:31Z</time>
      </trkpt>
      <trkpt lat="40.0457860" lon="-4.6501590">
        <ele>386.2</ele>
        <time>2020-10-04T06:01:37Z</time>
      </trkpt>
      <trkpt lat="40.0458140" lon="-4.6503360">
        <ele>386.6</ele>
        <time>2020-10-04T06:01:40Z</time>
      </trkpt>
      <trkpt lat="40.0458220" lon="-4.6503970">
        <ele>387.2</ele>
        <time>2020-10-04T06:01:41Z</time>
      </trkpt>
      <trkpt lat="40.0458300" lon="-4.6504570">
        <ele>387.6</ele>
        <time>2020-10-04T06:01:42Z</time>
      </trkpt>
      <trkpt lat="40.0458510" lon="-4.6506300">
        <ele>388.0</ele>
        <time>2020-10-04T06:01:45Z</time>
      </trkpt>
      <trkpt lat="40.0458580" lon="-4.6506930">
        <ele>388.6</ele>
        <time>2020-10-04T06:01:46Z</time>
      </trkpt>
      <trkpt lat="40.0458730" lon="-4.6508180">
        <ele>388.6</ele>
        <time>2020-10-04T06:01:48Z</time>
      </trkpt>
      <trkpt lat="40.0459170" lon="-4.6512480">
        <ele>388.6</ele>
        <time>2020-10-04T06:01:55Z</time>
      </trkpt>
      <trkpt lat="40.0459340" lon="-4.6514910">
        <ele>388.6</ele>
        <time>2020-10-04T06:01:59Z</time>
      </trkpt>
      <trkpt lat="40.0459590" lon="-4.6518170">
        <ele>389.0</ele>
        <time>2020-10-04T06:02:04Z</time>
      </trkpt>
      <trkpt lat="40.0459650" lon="-4.6518830">
        <ele>389.4</ele>
        <time>2020-10-04T06:02:05Z</time>
      </trkpt>
      <trkpt lat="40.0459710" lon="-4.6519410">
        <ele>389.8</ele>
        <time>2020-10-04T06:02:06Z</time>
      </trkpt>
      <trkpt lat="40.0459660" lon="-4.6519880">
        <ele>390.2</ele>
        <time>2020-10-04T06:02:07Z</time>
      </trkpt>
      <trkpt lat="40.0459520" lon="-4.6520360">
        <ele>390.6</ele>
        <time>2020-10-04T06:02:08Z</time>
      </trkpt>
      <trkpt lat="40.0459200" lon="-4.6520670">
        <ele>390.6</ele>
        <time>2020-10-04T06:02:09Z</time>
      </trkpt>
      <trkpt lat="40.0458160" lon="-4.6520750">
        <ele>390.6</ele>
        <time>2020-10-04T06:02:11Z</time>
      </trkpt>
      <trkpt lat="40.0457010" lon="-4.6520650">
        <ele>390.6</ele>
        <time>2020-10-04T06:02:13Z</time>
      </trkpt>
      <trkpt lat="40.0455060" lon="-4.6520360">
        <ele>390.6</ele>
        <time>2020-10-04T06:02:16Z</time>
      </trkpt>
      <trkpt lat="40.0449270" lon="-4.6519890">
        <ele>390.6</ele>
        <time>2020-10-04T06:02:24Z</time>
      </trkpt>
      <trkpt lat="40.0448570" lon="-4.6519900">
        <ele>390.6</ele>
        <time>2020-10-04T06:02:25Z</time>
      </trkpt>
      <trkpt lat="40.0444020" lon="-4.6520370">
        <ele>390.2</ele>
        <time>2020-10-04T06:02:31Z</time>
      </trkpt>
      <trkpt lat="40.0443280" lon="-4.6520510">
        <ele>389.8</ele>
        <time>2020-10-04T06:02:32Z</time>
      </trkpt>
      <trkpt lat="40.0442510" lon="-4.6520670">
        <ele>389.4</ele>
        <time>2020-10-04T06:02:33Z</time>
      </trkpt>
      <trkpt lat="40.0441790" lon="-4.6520810">
        <ele>389.0</ele>
        <time>2020-10-04T06:02:34Z</time>
      </trkpt>
      <trkpt lat="40.0440980" lon="-4.6521000">
        <ele>388.6</ele>
        <time>2020-10-04T06:02:35Z</time>
      </trkpt>
      <trkpt lat="40.0434900" lon="-4.6522270">
        <ele>388.6</ele>
        <time>2020-10-04T06:02:43Z</time>
      </trkpt>
      <trkpt lat="40.0429490" lon="-4.6522050">
        <ele>388.2</ele>
        <time>2020-10-04T06:02:50Z</time>
      </trkpt>
      <trkpt lat="40.0428680" lon="-4.6521840">
        <ele>387.8</ele>
        <time>2020-10-04T06:02:51Z</time>
      </trkpt>
      <trkpt lat="40.0427900" lon="-4.6521600">
        <ele>387.4</ele>
        <time>2020-10-04T06:02:52Z</time>
      </trkpt>
      <trkpt lat="40.0427120" lon="-4.6521310">
        <ele>387.0</ele>
        <time>2020-10-04T06:02:53Z</time>
      </trkpt>
      <trkpt lat="40.0426380" lon="-4.6520950">
        <ele>386.6</ele>
        <time>2020-10-04T06:02:54Z</time>
      </trkpt>
      <trkpt lat="40.0425640" lon="-4.6520540">
        <ele>386.6</ele>
        <time>2020-10-04T06:02:55Z</time>
      </trkpt>
      <trkpt lat="40.0421390" lon="-4.6517230">
        <ele>386.6</ele>
        <time>2020-10-04T06:03:01Z</time>
      </trkpt>
      <trkpt lat="40.0417080" lon="-4.6512740">
        <ele>386.2</ele>
        <time>2020-10-04T06:03:08Z</time>
      </trkpt>
      <trkpt lat="40.0416460" lon="-4.6512110">
        <ele>385.6</ele>
        <time>2020-10-04T06:03:09Z</time>
      </trkpt>
      <trkpt lat="40.0415820" lon="-4.6511430">
        <ele>385.2</ele>
        <time>2020-10-04T06:03:10Z</time>
      </trkpt>
      <trkpt lat="40.0415210" lon="-4.6510770">
        <ele>384.8</ele>
        <time>2020-10-04T06:03:11Z</time>
      </trkpt>
      <trkpt lat="40.0414600" lon="-4.6510100">
        <ele>384.4</ele>
        <time>2020-10-04T06:03:12Z</time>
      </trkpt>
      <trkpt lat="40.0410170" lon="-4.6505480">
        <ele>384.4</ele>
        <time>2020-10-04T06:03:19Z</time>
      </trkpt>
      <trkpt lat="40.0408950" lon="-4.6504270">
        <ele>384.4</ele>
        <time>2020-10-04T06:03:21Z</time>
      </trkpt>
      <trkpt lat="40.0404260" lon="-4.6499080">
        <ele>384.4</ele>
        <time>2020-10-04T06:03:29Z</time>
      </trkpt>
      <trkpt lat="40.0403060" lon="-4.6497780">
        <ele>384.4</ele>
        <time>2020-10-04T06:03:31Z</time>
      </trkpt>
      <trkpt lat="40.0398920" lon="-4.6493230">
        <ele>384.4</ele>
        <time>2020-10-04T06:03:38Z</time>
      </trkpt>
      <trkpt lat="40.0396010" lon="-4.6490140">
        <ele>384.4</ele>
        <time>2020-10-04T06:03:43Z</time>
      </trkpt>
      <trkpt lat="40.0391460" lon="-4.6485180">
        <ele>384.4</ele>
        <time>2020-10-04T06:03:51Z</time>
      </trkpt>
      <trkpt lat="40.0390320" lon="-4.6483930">
        <ele>384.4</ele>
        <time>2020-10-04T06:03:53Z</time>
      </trkpt>
      <trkpt lat="40.0385670" lon="-4.6479060">
        <ele>384.4</ele>
        <time>2020-10-04T06:04:01Z</time>
      </trkpt>
      <trkpt lat="40.0385090" lon="-4.6478400">
        <ele>384.4</ele>
        <time>2020-10-04T06:04:02Z</time>
      </trkpt>
      <trkpt lat="40.0380480" lon="-4.6473380">
        <ele>384.4</ele>
        <time>2020-10-04T06:04:10Z</time>
      </trkpt>
      <trkpt lat="40.0379920" lon="-4.6472770">
        <ele>384.4</ele>
        <time>2020-10-04T06:04:11Z</time>
      </trkpt>
      <trkpt lat="40.0375880" lon="-4.6468390">
        <ele>384.4</ele>
        <time>2020-10-04T06:04:18Z</time>
      </trkpt>
      <trkpt lat="40.0374770" lon="-4.6467100">
        <ele>384.4</ele>
        <time>2020-10-04T06:04:20Z</time>
      </trkpt>
      <trkpt lat="40.0370210" lon="-4.6462110">
        <ele>384.4</ele>
        <time>2020-10-04T06:04:28Z</time>
      </trkpt>
      <trkpt lat="40.0368000" lon="-4.6459650">
        <ele>384.4</ele>
        <time>2020-10-04T06:04:32Z</time>
      </trkpt>
      <trkpt lat="40.0366540" lon="-4.6458200">
        <ele>384.4</ele>
        <time>2020-10-04T06:04:35Z</time>
      </trkpt>
      <trkpt lat="40.0366130" lon="-4.6458150">
        <ele>384.4</ele>
        <time>2020-10-04T06:04:36Z</time>
      </trkpt>
      <trkpt lat="40.0365120" lon="-4.6458970">
        <ele>384.4</ele>
        <time>2020-10-04T06:04:39Z</time>
      </trkpt>
      <trkpt lat="40.0364530" lon="-4.6460090">
        <ele>384.4</ele>
        <time>2020-10-04T06:04:41Z</time>
      </trkpt>
      <trkpt lat="40.0363540" lon="-4.6461800">
        <ele>384.4</ele>
        <time>2020-10-04T06:04:44Z</time>
      </trkpt>
      <trkpt lat="40.0360150" lon="-4.6467580">
        <ele>384.4</ele>
        <time>2020-10-04T06:04:54Z</time>
      </trkpt>
      <trkpt lat="40.0359780" lon="-4.6468180">
        <ele>384.4</ele>
        <time>2020-10-04T06:04:55Z</time>
      </trkpt>
      <trkpt lat="40.0358700" lon="-4.6469970">
        <ele>384.0</ele>
        <time>2020-10-04T06:04:58Z</time>
      </trkpt>
      <trkpt lat="40.0357950" lon="-4.6471120">
        <ele>383.6</ele>
        <time>2020-10-04T06:05:00Z</time>
      </trkpt>
      <trkpt lat="40.0357560" lon="-4.6471710">
        <ele>383.2</ele>
        <time>2020-10-04T06:05:01Z</time>
      </trkpt>
      <trkpt lat="40.0357180" lon="-4.6472290">
        <ele>382.8</ele>
        <time>2020-10-04T06:05:02Z</time>
      </trkpt>
      <trkpt lat="40.0356820" lon="-4.6472860">
        <ele>382.4</ele>
        <time>2020-10-04T06:05:03Z</time>
      </trkpt>
      <trkpt lat="40.0353990" lon="-4.6477440">
        <ele>382.4</ele>
        <time>2020-10-04T06:05:11Z</time>
      </trkpt>
      <trkpt lat="40.0350500" lon="-4.6483080">
        <ele>382.4</ele>
        <time>2020-10-04T06:05:21Z</time>
      </trkpt>
      <trkpt lat="40.0348640" lon="-4.6485660">
        <ele>382.4</ele>
        <time>2020-10-04T06:05:26Z</time>
      </trkpt>
      <trkpt lat="40.0343930" lon="-4.6489500">
        <ele>382.4</ele>
        <time>2020-10-04T06:05:36Z</time>
      </trkpt>
      <trkpt lat="40.0339620" lon="-4.6492820">
        <ele>382.4</ele>
        <time>2020-10-04T06:05:45Z</time>
      </trkpt>
      <trkpt lat="40.0338450" lon="-4.6495350">
        <ele>382.4</ele>
        <time>2020-10-04T06:05:49Z</time>
      </trkpt>
      <trkpt lat="40.0338280" lon="-4.6496060">
        <ele>382.4</ele>
        <time>2020-10-04T06:05:50Z</time>
      </trkpt>
      <trkpt lat="40.0337290" lon="-4.6500020">
        <ele>382.4</ele>
        <time>2020-10-04T06:05:56Z</time>
      </trkpt>
      <trkpt lat="40.0336240" lon="-4.6504390">
        <ele>382.4</ele>
        <time>2020-10-04T06:06:03Z</time>
      </trkpt>
      <trkpt lat="40.0335980" lon="-4.6505730">
        <ele>382.4</ele>
        <time>2020-10-04T06:06:05Z</time>
      </trkpt>
      <trkpt lat="40.0334820" lon="-4.6511650">
        <ele>382.4</ele>
        <time>2020-10-04T06:06:14Z</time>
      </trkpt>
      <trkpt lat="40.0334590" lon="-4.6518510">
        <ele>382.4</ele>
        <time>2020-10-04T06:06:24Z</time>
      </trkpt>
      <trkpt lat="40.0334080" lon="-4.6522000">
        <ele>382.4</ele>
        <time>2020-10-04T06:06:29Z</time>
      </trkpt>
      <trkpt lat="40.0333870" lon="-4.6522650">
        <ele>382.4</ele>
        <time>2020-10-04T06:06:30Z</time>
      </trkpt>
      <trkpt lat="40.0332860" lon="-4.6525050">
        <ele>382.4</ele>
        <time>2020-10-04T06:06:34Z</time>
      </trkpt>
      <trkpt lat="40.0331820" lon="-4.6527420">
        <ele>382.4</ele>
        <time>2020-10-04T06:06:38Z</time>
      </trkpt>
      <trkpt lat="40.0329270" lon="-4.6534100">
        <ele>382.4</ele>
        <time>2020-10-04T06:06:49Z</time>
      </trkpt>
      <trkpt lat="40.0328460" lon="-4.6536610">
        <ele>382.4</ele>
        <time>2020-10-04T06:06:53Z</time>
      </trkpt>
      <trkpt lat="40.0326020" lon="-4.6543350">
        <ele>382.4</ele>
        <time>2020-10-04T06:07:04Z</time>
      </trkpt>
      <trkpt lat="40.0325770" lon="-4.6543970">
        <ele>382.4</ele>
        <time>2020-10-04T06:07:05Z</time>
      </trkpt>
      <trkpt lat="40.0325460" lon="-4.6544570">
        <ele>382.4</ele>
        <time>2020-10-04T06:07:06Z</time>
      </trkpt>
      <trkpt lat="40.0324320" lon="-4.6547840">
        <ele>382.4</ele>
        <time>2020-10-04T06:07:11Z</time>
      </trkpt>
      <trkpt lat="40.0321620" lon="-4.6554140">
        <ele>382.4</ele>
        <time>2020-10-04T06:07:21Z</time>
      </trkpt>
      <trkpt lat="40.0318990" lon="-4.6560330">
        <ele>382.4</ele>
        <time>2020-10-04T06:07:31Z</time>
      </trkpt>
      <trkpt lat="40.0318740" lon="-4.6560930">
        <ele>382.4</ele>
        <time>2020-10-04T06:07:32Z</time>
      </trkpt>
      <trkpt lat="40.0316130" lon="-4.6567170">
        <ele>382.4</ele>
        <time>2020-10-04T06:07:42Z</time>
      </trkpt>
      <trkpt lat="40.0315540" lon="-4.6568410">
        <ele>382.4</ele>
        <time>2020-10-04T06:07:44Z</time>
      </trkpt>
      <trkpt lat="40.0312740" lon="-4.6574740">
        <ele>382.4</ele>
        <time>2020-10-04T06:07:54Z</time>
      </trkpt>
      <trkpt lat="40.0311940" lon="-4.6576580">
        <ele>382.4</ele>
        <time>2020-10-04T06:07:57Z</time>
      </trkpt>
      <trkpt lat="40.0311700" lon="-4.6577260">
        <ele>382.4</ele>
        <time>2020-10-04T06:07:58Z</time>
      </trkpt>
      <trkpt lat="40.0309750" lon="-4.6581030">
        <ele>382.4</ele>
        <time>2020-10-04T06:08:04Z</time>
      </trkpt>
      <trkpt lat="40.0308650" lon="-4.6583600">
        <ele>382.4</ele>
        <time>2020-10-04T06:08:08Z</time>
      </trkpt>
      <trkpt lat="40.0307960" lon="-4.6585580">
        <ele>382.4</ele>
        <time>2020-10-04T06:08:11Z</time>
      </trkpt>
      <trkpt lat="40.0306270" lon="-4.6590780">
        <ele>382.4</ele>
        <time>2020-10-04T06:08:19Z</time>
      </trkpt>
      <trkpt lat="40.0304340" lon="-4.6596320">
        <ele>382.4</ele>
        <time>2020-10-04T06:08:28Z</time>
      </trkpt>
      <trkpt lat="40.0304130" lon="-4.6596930">
        <ele>382.4</ele>
        <time>2020-10-04T06:08:29Z</time>
      </trkpt>
      <trkpt lat="40.0302120" lon="-4.6603410">
        <ele>382.4</ele>
        <time>2020-10-04T06:08:39Z</time>
      </trkpt>
      <trkpt lat="40.0301370" lon="-4.6605220">
        <ele>382.4</ele>
        <time>2020-10-04T06:08:42Z</time>
      </trkpt>
      <trkpt lat="40.0299670" lon="-4.6608640">
        <ele>382.4</ele>
        <time>2020-10-04T06:08:48Z</time>
      </trkpt>
      <trkpt lat="40.0298890" lon="-4.6610450">
        <ele>382.4</ele>
        <time>2020-10-04T06:08:51Z</time>
      </trkpt>
      <trkpt lat="40.0297820" lon="-4.6612930">
        <ele>382.4</ele>
        <time>2020-10-04T06:08:55Z</time>
      </trkpt>
      <trkpt lat="40.0295890" lon="-4.6617230">
        <ele>382.4</ele>
        <time>2020-10-04T06:09:02Z</time>
      </trkpt>
      <trkpt lat="40.0295030" lon="-4.6619000">
        <ele>382.4</ele>
        <time>2020-10-04T06:09:05Z</time>
      </trkpt>
      <trkpt lat="40.0291790" lon="-4.6625490">
        <ele>382.4</ele>
        <time>2020-10-04T06:09:16Z</time>
      </trkpt>
      <trkpt lat="40.0288870" lon="-4.6631300">
        <ele>382.0</ele>
        <time>2020-10-04T06:09:26Z</time>
      </trkpt>
      <trkpt lat="40.0288580" lon="-4.6631860">
        <ele>381.6</ele>
        <time>2020-10-04T06:09:27Z</time>
      </trkpt>
      <trkpt lat="40.0288290" lon="-4.6632430">
        <ele>381.2</ele>
        <time>2020-10-04T06:09:28Z</time>
      </trkpt>
      <trkpt lat="40.0287980" lon="-4.6632970">
        <ele>380.8</ele>
        <time>2020-10-04T06:09:29Z</time>
      </trkpt>
      <trkpt lat="40.0287650" lon="-4.6633510">
        <ele>380.4</ele>
        <time>2020-10-04T06:09:30Z</time>
      </trkpt>
      <trkpt lat="40.0285620" lon="-4.6637460">
        <ele>380.4</ele>
        <time>2020-10-04T06:09:37Z</time>
      </trkpt>
      <trkpt lat="40.0285220" lon="-4.6637970">
        <ele>380.4</ele>
        <time>2020-10-04T06:09:38Z</time>
      </trkpt>
      <trkpt lat="40.0284060" lon="-4.6639370">
        <ele>380.4</ele>
        <time>2020-10-04T06:09:41Z</time>
      </trkpt>
      <trkpt lat="40.0283620" lon="-4.6639710">
        <ele>380.4</ele>
        <time>2020-10-04T06:09:42Z</time>
      </trkpt>
      <trkpt lat="40.0282130" lon="-4.6640420">
        <ele>380.4</ele>
        <time>2020-10-04T06:09:45Z</time>
      </trkpt>
      <trkpt lat="40.0281130" lon="-4.6640850">
        <ele>380.4</ele>
        <time>2020-10-04T06:09:47Z</time>
      </trkpt>
      <trkpt lat="40.0279590" lon="-4.6641320">
        <ele>380.4</ele>
        <time>2020-10-04T06:09:50Z</time>
      </trkpt>
      <trkpt lat="40.0277470" lon="-4.6641670">
        <ele>380.8</ele>
        <time>2020-10-04T06:09:54Z</time>
      </trkpt>
      <trkpt lat="40.0276920" lon="-4.6641770">
        <ele>381.2</ele>
        <time>2020-10-04T06:09:55Z</time>
      </trkpt>
      <trkpt lat="40.0276370" lon="-4.6641820">
        <ele>381.6</ele>
        <time>2020-10-04T06:09:56Z</time>
      </trkpt>
      <trkpt lat="40.0275840" lon="-4.6641850">
        <ele>382.0</ele>
        <time>2020-10-04T06:09:57Z</time>
      </trkpt>
      <trkpt lat="40.0275300" lon="-4.6641890">
        <ele>382.4</ele>
        <time>2020-10-04T06:09:58Z</time>
      </trkpt>
      <trkpt lat="40.0272020" lon="-4.6642180">
        <ele>382.4</ele>
        <time>2020-10-04T06:10:04Z</time>
      </trkpt>
      <trkpt lat="40.0266690" lon="-4.6643390">
        <ele>382.4</ele>
        <time>2020-10-04T06:10:14Z</time>
      </trkpt>
      <trkpt lat="40.0266150" lon="-4.6643560">
        <ele>382.4</ele>
        <time>2020-10-04T06:10:15Z</time>
      </trkpt>
      <trkpt lat="40.0263100" lon="-4.6644800">
        <ele>382.4</ele>
        <time>2020-10-04T06:10:21Z</time>
      </trkpt>
      <trkpt lat="40.0262010" lon="-4.6645030">
        <ele>382.4</ele>
        <time>2020-10-04T06:10:23Z</time>
      </trkpt>
      <trkpt lat="40.0258210" lon="-4.6646700">
        <ele>382.4</ele>
        <time>2020-10-04T06:10:30Z</time>
      </trkpt>
      <trkpt lat="40.0254070" lon="-4.6649040">
        <ele>382.4</ele>
        <time>2020-10-04T06:10:38Z</time>
      </trkpt>
      <trkpt lat="40.0250080" lon="-4.6650980">
        <ele>382.4</ele>
        <time>2020-10-04T06:10:46Z</time>
      </trkpt>
      <trkpt lat="40.0246130" lon="-4.6652960">
        <ele>382.4</ele>
        <time>2020-10-04T06:10:54Z</time>
      </trkpt>
      <trkpt lat="40.0242520" lon="-4.6654250">
        <ele>382.4</ele>
        <time>2020-10-04T06:11:01Z</time>
      </trkpt>
      <trkpt lat="40.0237440" lon="-4.6656780">
        <ele>382.4</ele>
        <time>2020-10-04T06:11:11Z</time>
      </trkpt>
      <trkpt lat="40.0236450" lon="-4.6657320">
        <ele>382.4</ele>
        <time>2020-10-04T06:11:13Z</time>
      </trkpt>
      <trkpt lat="40.0231730" lon="-4.6660380">
        <ele>382.4</ele>
        <time>2020-10-04T06:11:23Z</time>
      </trkpt>
      <trkpt lat="40.0231310" lon="-4.6660750">
        <ele>382.4</ele>
        <time>2020-10-04T06:11:24Z</time>
      </trkpt>
      <trkpt lat="40.0227340" lon="-4.6664030">
        <ele>382.8</ele>
        <time>2020-10-04T06:11:33Z</time>
      </trkpt>
      <trkpt lat="40.0226870" lon="-4.6664320">
        <ele>383.2</ele>
        <time>2020-10-04T06:11:34Z</time>
      </trkpt>
      <trkpt lat="40.0226400" lon="-4.6664560">
        <ele>383.6</ele>
        <time>2020-10-04T06:11:35Z</time>
      </trkpt>
      <trkpt lat="40.0225950" lon="-4.6664790">
        <ele>384.0</ele>
        <time>2020-10-04T06:11:36Z</time>
      </trkpt>
      <trkpt lat="40.0225480" lon="-4.6665040">
        <ele>384.4</ele>
        <time>2020-10-04T06:11:37Z</time>
      </trkpt>
      <trkpt lat="40.0222390" lon="-4.6666650">
        <ele>384.4</ele>
        <time>2020-10-04T06:11:44Z</time>
      </trkpt>
      <trkpt lat="40.0220370" lon="-4.6667720">
        <ele>384.4</ele>
        <time>2020-10-04T06:11:49Z</time>
      </trkpt>
      <trkpt lat="40.0219420" lon="-4.6667740">
        <ele>384.8</ele>
        <time>2020-10-04T06:11:51Z</time>
      </trkpt>
      <trkpt lat="40.0218960" lon="-4.6667670">
        <ele>385.4</ele>
        <time>2020-10-04T06:11:52Z</time>
      </trkpt>
      <trkpt lat="40.0218500" lon="-4.6667520">
        <ele>385.8</ele>
        <time>2020-10-04T06:11:53Z</time>
      </trkpt>
      <trkpt lat="40.0218040" lon="-4.6667350">
        <ele>386.2</ele>
        <time>2020-10-04T06:11:54Z</time>
      </trkpt>
      <trkpt lat="40.0217630" lon="-4.6667190">
        <ele>386.6</ele>
        <time>2020-10-04T06:11:55Z</time>
      </trkpt>
      <trkpt lat="40.0217150" lon="-4.6666990">
        <ele>386.6</ele>
        <time>2020-10-04T06:11:56Z</time>
      </trkpt>
      <trkpt lat="40.0213040" lon="-4.6665620">
        <ele>386.6</ele>
        <time>2020-10-04T06:12:05Z</time>
      </trkpt>
      <trkpt lat="40.0211160" lon="-4.6665830">
        <ele>386.6</ele>
        <time>2020-10-04T06:12:09Z</time>
      </trkpt>
      <trkpt lat="40.0210850" lon="-4.6665920">
        <ele>386.6</ele>
        <time>2020-10-04T06:12:10Z</time>
      </trkpt>
      <trkpt lat="40.0209560" lon="-4.6666580">
        <ele>387.0</ele>
        <time>2020-10-04T06:12:13Z</time>
      </trkpt>
      <trkpt lat="40.0209180" lon="-4.6666850">
        <ele>387.4</ele>
        <time>2020-10-04T06:12:14Z</time>
      </trkpt>
      <trkpt lat="40.0208780" lon="-4.6667100">
        <ele>387.8</ele>
        <time>2020-10-04T06:12:15Z</time>
      </trkpt>
      <trkpt lat="40.0208390" lon="-4.6667350">
        <ele>388.2</ele>
        <time>2020-10-04T06:12:16Z</time>
      </trkpt>
      <trkpt lat="40.0207970" lon="-4.6667600">
        <ele>388.6</ele>
        <time>2020-10-04T06:12:17Z</time>
      </trkpt>
      <trkpt lat="40.0207160" lon="-4.6668080">
        <ele>388.6</ele>
        <time>2020-10-04T06:12:19Z</time>
      </trkpt>
      <trkpt lat="40.0205250" lon="-4.6669190">
        <ele>388.6</ele>
        <time>2020-10-04T06:12:24Z</time>
      </trkpt>
      <trkpt lat="40.0204430" lon="-4.6669620">
        <ele>389.2</ele>
        <time>2020-10-04T06:12:26Z</time>
      </trkpt>
      <trkpt lat="40.0203630" lon="-4.6669960">
        <ele>389.6</ele>
        <time>2020-10-04T06:12:28Z</time>
      </trkpt>
      <trkpt lat="40.0203250" lon="-4.6670130">
        <ele>390.0</ele>
        <time>2020-10-04T06:12:29Z</time>
      </trkpt>
      <trkpt lat="40.0202860" lon="-4.6670280">
        <ele>390.4</ele>
        <time>2020-10-04T06:12:30Z</time>
      </trkpt>
      <trkpt lat="40.0202520" lon="-4.6670470">
        <ele>390.8</ele>
        <time>2020-10-04T06:12:31Z</time>
      </trkpt>
      <trkpt lat="40.0200010" lon="-4.6671870">
        <ele>390.8</ele>
        <time>2020-10-04T06:12:38Z</time>
      </trkpt>
      <trkpt lat="40.0197320" lon="-4.6673820">
        <ele>391.2</ele>
        <time>2020-10-04T06:12:46Z</time>
      </trkpt>
      <trkpt lat="40.0197000" lon="-4.6674030">
        <ele>391.8</ele>
        <time>2020-10-04T06:12:47Z</time>
      </trkpt>
      <trkpt lat="40.0196690" lon="-4.6674290">
        <ele>392.2</ele>
        <time>2020-10-04T06:12:48Z</time>
      </trkpt>
      <trkpt lat="40.0196430" lon="-4.6674520">
        <ele>392.6</ele>
        <time>2020-10-04T06:12:49Z</time>
      </trkpt>
      <trkpt lat="40.0196150" lon="-4.6674790">
        <ele>393.0</ele>
        <time>2020-10-04T06:12:50Z</time>
      </trkpt>
      <trkpt lat="40.0195030" lon="-4.6675780">
        <ele>393.0</ele>
        <time>2020-10-04T06:12:54Z</time>
      </trkpt>
      <trkpt lat="40.0192110" lon="-4.6678940">
        <ele>393.6</ele>
        <time>2020-10-04T06:13:05Z</time>
      </trkpt>
      <trkpt lat="40.0191860" lon="-4.6679220">
        <ele>394.0</ele>
        <time>2020-10-04T06:13:06Z</time>
      </trkpt>
      <trkpt lat="40.0191610" lon="-4.6679530">
        <ele>394.6</ele>
        <time>2020-10-04T06:13:07Z</time>
      </trkpt>
      <trkpt lat="40.0191370" lon="-4.6679840">
        <ele>395.0</ele>
        <time>2020-10-04T06:13:08Z</time>
      </trkpt>
      <trkpt lat="40.0191120" lon="-4.6680160">
        <ele>395.4</ele>
        <time>2020-10-04T06:13:09Z</time>
      </trkpt>
      <trkpt lat="40.0189240" lon="-4.6682320">
        <ele>395.8</ele>
        <time>2020-10-04T06:13:16Z</time>
      </trkpt>
      <trkpt lat="40.0188950" lon="-4.6682600">
        <ele>396.2</ele>
        <time>2020-10-04T06:13:17Z</time>
      </trkpt>
      <trkpt lat="40.0188680" lon="-4.6682880">
        <ele>396.6</ele>
        <time>2020-10-04T06:13:18Z</time>
      </trkpt>
      <trkpt lat="40.0188360" lon="-4.6683040">
        <ele>397.0</ele>
        <time>2020-10-04T06:13:19Z</time>
      </trkpt>
      <trkpt lat="40.0188030" lon="-4.6683220">
        <ele>397.6</ele>
        <time>2020-10-04T06:13:20Z</time>
      </trkpt>
      <trkpt lat="40.0186750" lon="-4.6683840">
        <ele>397.6</ele>
        <time>2020-10-04T06:13:24Z</time>
      </trkpt>
      <trkpt lat="40.0185060" lon="-4.6684160">
        <ele>397.6</ele>
        <time>2020-10-04T06:13:29Z</time>
      </trkpt>
      <trkpt lat="40.0184350" lon="-4.6684210">
        <ele>398.0</ele>
        <time>2020-10-04T06:13:31Z</time>
      </trkpt>
      <trkpt lat="40.0183980" lon="-4.6684240">
        <ele>398.4</ele>
        <time>2020-10-04T06:13:32Z</time>
      </trkpt>
      <trkpt lat="40.0183600" lon="-4.6684270">
        <ele>398.8</ele>
        <time>2020-10-04T06:13:33Z</time>
      </trkpt>
      <trkpt lat="40.0183240" lon="-4.6684310">
        <ele>399.2</ele>
        <time>2020-10-04T06:13:34Z</time>
      </trkpt>
      <trkpt lat="40.0182870" lon="-4.6684370">
        <ele>399.8</ele>
        <time>2020-10-04T06:13:35Z</time>
      </trkpt>
      <trkpt lat="40.0181790" lon="-4.6684650">
        <ele>399.8</ele>
        <time>2020-10-04T06:13:38Z</time>
      </trkpt>
      <trkpt lat="40.0180730" lon="-4.6684940">
        <ele>399.8</ele>
        <time>2020-10-04T06:13:41Z</time>
      </trkpt>
      <trkpt lat="40.0179720" lon="-4.6685330">
        <ele>400.2</ele>
        <time>2020-10-04T06:13:44Z</time>
      </trkpt>
      <trkpt lat="40.0179370" lon="-4.6685470">
        <ele>400.6</ele>
        <time>2020-10-04T06:13:45Z</time>
      </trkpt>
      <trkpt lat="40.0179050" lon="-4.6685610">
        <ele>401.0</ele>
        <time>2020-10-04T06:13:46Z</time>
      </trkpt>
      <trkpt lat="40.0178730" lon="-4.6685760">
        <ele>401.4</ele>
        <time>2020-10-04T06:13:47Z</time>
      </trkpt>
      <trkpt lat="40.0178150" lon="-4.6686120">
        <ele>402.4</ele>
        <time>2020-10-04T06:13:49Z</time>
      </trkpt>
      <trkpt lat="40.0177890" lon="-4.6686280">
        <ele>402.8</ele>
        <time>2020-10-04T06:13:50Z</time>
      </trkpt>
      <trkpt lat="40.0177610" lon="-4.6686440">
        <ele>403.2</ele>
        <time>2020-10-04T06:13:51Z</time>
      </trkpt>
      <trkpt lat="40.0177330" lon="-4.6686600">
        <ele>403.2</ele>
        <time>2020-10-04T06:13:52Z</time>
      </trkpt>
      <trkpt lat="40.0177070" lon="-4.6686770">
        <ele>403.6</ele>
        <time>2020-10-04T06:13:53Z</time>
      </trkpt>
      <trkpt lat="40.0176820" lon="-4.6686970">
        <ele>404.0</ele>
        <time>2020-10-04T06:13:54Z</time>
      </trkpt>
      <trkpt lat="40.0174790" lon="-4.6688740">
        <ele>404.0</ele>
        <time>2020-10-04T06:14:02Z</time>
      </trkpt>
      <trkpt lat="40.0174320" lon="-4.6689250">
        <ele>404.6</ele>
        <time>2020-10-04T06:14:04Z</time>
      </trkpt>
      <trkpt lat="40.0174090" lon="-4.6689480">
        <ele>405.0</ele>
        <time>2020-10-04T06:14:05Z</time>
      </trkpt>
      <trkpt lat="40.0173860" lon="-4.6689720">
        <ele>405.6</ele>
        <time>2020-10-04T06:14:06Z</time>
      </trkpt>
      <trkpt lat="40.0173610" lon="-4.6689980">
        <ele>406.0</ele>
        <time>2020-10-04T06:14:07Z</time>
      </trkpt>
      <trkpt lat="40.0173370" lon="-4.6690220">
        <ele>406.6</ele>
        <time>2020-10-04T06:14:08Z</time>
      </trkpt>
      <trkpt lat="40.0172660" lon="-4.6691010">
        <ele>407.0</ele>
        <time>2020-10-04T06:14:11Z</time>
      </trkpt>
      <trkpt lat="40.0172410" lon="-4.6691260">
        <ele>407.4</ele>
        <time>2020-10-04T06:14:12Z</time>
      </trkpt>
      <trkpt lat="40.0172160" lon="-4.6691470">
        <ele>407.8</ele>
        <time>2020-10-04T06:14:13Z</time>
      </trkpt>
      <trkpt lat="40.0171950" lon="-4.6691660">
        <ele>408.2</ele>
        <time>2020-10-04T06:14:14Z</time>
      </trkpt>
      <trkpt lat="40.0171710" lon="-4.6691880">
        <ele>408.6</ele>
        <time>2020-10-04T06:14:15Z</time>
      </trkpt>
      <trkpt lat="40.0170270" lon="-4.6693520">
        <ele>409.0</ele>
        <time>2020-10-04T06:14:22Z</time>
      </trkpt>
      <trkpt lat="40.0170040" lon="-4.6693770">
        <ele>409.4</ele>
        <time>2020-10-04T06:14:23Z</time>
      </trkpt>
      <trkpt lat="40.0169820" lon="-4.6693970">
        <ele>409.8</ele>
        <time>2020-10-04T06:14:24Z</time>
      </trkpt>
      <trkpt lat="40.0169600" lon="-4.6694200">
        <ele>410.2</ele>
        <time>2020-10-04T06:14:25Z</time>
      </trkpt>
      <trkpt lat="40.0169380" lon="-4.6694440">
        <ele>410.6</ele>
        <time>2020-10-04T06:14:26Z</time>
      </trkpt>
      <trkpt lat="40.0167760" lon="-4.6696080">
        <ele>411.2</ele>
        <time>2020-10-04T06:14:34Z</time>
      </trkpt>
      <trkpt lat="40.0167520" lon="-4.6696270">
        <ele>411.6</ele>
        <time>2020-10-04T06:14:35Z</time>
      </trkpt>
      <trkpt lat="40.0167330" lon="-4.6696470">
        <ele>412.2</ele>
        <time>2020-10-04T06:14:36Z</time>
      </trkpt>
      <trkpt lat="40.0167120" lon="-4.6696670">
        <ele>412.6</ele>
        <time>2020-10-04T06:14:37Z</time>
      </trkpt>
      <trkpt lat="40.0166920" lon="-4.6696860">
        <ele>413.0</ele>
        <time>2020-10-04T06:14:38Z</time>
      </trkpt>
      <trkpt lat="40.0165670" lon="-4.6697940">
        <ele>413.0</ele>
        <time>2020-10-04T06:14:44Z</time>
      </trkpt>
      <trkpt lat="40.0164900" lon="-4.6698620">
        <ele>413.4</ele>
        <time>2020-10-04T06:14:48Z</time>
      </trkpt>
      <trkpt lat="40.0164700" lon="-4.6698780">
        <ele>414.0</ele>
        <time>2020-10-04T06:14:49Z</time>
      </trkpt>
      <trkpt lat="40.0164490" lon="-4.6698920">
        <ele>414.4</ele>
        <time>2020-10-04T06:14:50Z</time>
      </trkpt>
      <trkpt lat="40.0164300" lon="-4.6699090">
        <ele>414.8</ele>
        <time>2020-10-04T06:14:51Z</time>
      </trkpt>
      <trkpt lat="40.0164100" lon="-4.6699240">
        <ele>415.2</ele>
        <time>2020-10-04T06:14:52Z</time>
      </trkpt>
      <trkpt lat="40.0163740" lon="-4.6699620">
        <ele>415.6</ele>
        <time>2020-10-04T06:14:54Z</time>
      </trkpt>
      <trkpt lat="40.0163570" lon="-4.6699820">
        <ele>416.0</ele>
        <time>2020-10-04T06:14:55Z</time>
      </trkpt>
      <trkpt lat="40.0163360" lon="-4.6700000">
        <ele>416.4</ele>
        <time>2020-10-04T06:14:56Z</time>
      </trkpt>
      <trkpt lat="40.0163170" lon="-4.6700180">
        <ele>417.0</ele>
        <time>2020-10-04T06:14:57Z</time>
      </trkpt>
      <trkpt lat="40.0162960" lon="-4.6700340">
        <ele>417.4</ele>
        <time>2020-10-04T06:14:58Z</time>
      </trkpt>
      <trkpt lat="40.0162130" lon="-4.6701030">
        <ele>417.8</ele>
        <time>2020-10-04T06:15:02Z</time>
      </trkpt>
      <trkpt lat="40.0161910" lon="-4.6701210">
        <ele>418.2</ele>
        <time>2020-10-04T06:15:03Z</time>
      </trkpt>
      <trkpt lat="40.0161690" lon="-4.6701380">
        <ele>418.6</ele>
        <time>2020-10-04T06:15:04Z</time>
      </trkpt>
      <trkpt lat="40.0161450" lon="-4.6701470">
        <ele>419.0</ele>
        <time>2020-10-04T06:15:05Z</time>
      </trkpt>
      <trkpt lat="40.0161230" lon="-4.6701570">
        <ele>419.6</ele>
        <time>2020-10-04T06:15:06Z</time>
      </trkpt>
      <trkpt lat="40.0160430" lon="-4.6702390">
        <ele>419.6</ele>
        <time>2020-10-04T06:15:10Z</time>
      </trkpt>
      <trkpt lat="40.0159560" lon="-4.6703000">
        <ele>420.0</ele>
        <time>2020-10-04T06:15:14Z</time>
      </trkpt>
      <trkpt lat="40.0159340" lon="-4.6703130">
        <ele>420.4</ele>
        <time>2020-10-04T06:15:15Z</time>
      </trkpt>
      <trkpt lat="40.0159120" lon="-4.6703300">
        <ele>420.8</ele>
        <time>2020-10-04T06:15:16Z</time>
      </trkpt>
      <trkpt lat="40.0158930" lon="-4.6703490">
        <ele>421.2</ele>
        <time>2020-10-04T06:15:17Z</time>
      </trkpt>
      <trkpt lat="40.0158740" lon="-4.6703690">
        <ele>421.6</ele>
        <time>2020-10-04T06:15:18Z</time>
      </trkpt>
      <trkpt lat="40.0158610" lon="-4.6703820">
        <ele>421.6</ele>
        <time>2020-10-04T06:15:19Z</time>
      </trkpt>
      <trkpt lat="40.0158080" lon="-4.6704280">
        <ele>422.0</ele>
        <time>2020-10-04T06:15:22Z</time>
      </trkpt>
      <trkpt lat="40.0157710" lon="-4.6704690">
        <ele>422.4</ele>
        <time>2020-10-04T06:15:24Z</time>
      </trkpt>
      <trkpt lat="40.0157540" lon="-4.6704840">
        <ele>422.8</ele>
        <time>2020-10-04T06:15:25Z</time>
      </trkpt>
      <trkpt lat="40.0157430" lon="-4.6704990">
        <ele>423.2</ele>
        <time>2020-10-04T06:15:26Z</time>
      </trkpt>
      <trkpt lat="40.0157290" lon="-4.6705230">
        <ele>423.8</ele>
        <time>2020-10-04T06:15:27Z</time>
      </trkpt>
      <trkpt lat="40.0156430" lon="-4.6706820">
        <ele>424.2</ele>
        <time>2020-10-04T06:15:34Z</time>
      </trkpt>
      <trkpt lat="40.0156300" lon="-4.6707090">
        <ele>424.6</ele>
        <time>2020-10-04T06:15:35Z</time>
      </trkpt>
      <trkpt lat="40.0156130" lon="-4.6707360">
        <ele>425.2</ele>
        <time>2020-10-04T06:15:36Z</time>
      </trkpt>
      <trkpt lat="40.0155960" lon="-4.6707600">
        <ele>425.6</ele>
        <time>2020-10-04T06:15:37Z</time>
      </trkpt>
      <trkpt lat="40.0155820" lon="-4.6707830">
        <ele>426.2</ele>
        <time>2020-10-04T06:15:38Z</time>
      </trkpt>
      <trkpt lat="40.0155520" lon="-4.6708330">
        <ele>426.6</ele>
        <time>2020-10-04T06:15:40Z</time>
      </trkpt>
      <trkpt lat="40.0155340" lon="-4.6708570">
        <ele>427.0</ele>
        <time>2020-10-04T06:15:41Z</time>
      </trkpt>
      <trkpt lat="40.0155150" lon="-4.6708770">
        <ele>427.4</ele>
        <time>2020-10-04T06:15:42Z</time>
      </trkpt>
      <trkpt lat="40.0154950" lon="-4.6709010">
        <ele>427.8</ele>
        <time>2020-10-04T06:15:43Z</time>
      </trkpt>
      <trkpt lat="40.0154740" lon="-4.6709210">
        <ele>428.2</ele>
        <time>2020-10-04T06:15:44Z</time>
      </trkpt>
      <trkpt lat="40.0153580" lon="-4.6710580">
        <ele>428.2</ele>
        <time>2020-10-04T06:15:50Z</time>
      </trkpt>
      <trkpt lat="40.0153120" lon="-4.6710890">
        <ele>428.6</ele>
        <time>2020-10-04T06:15:52Z</time>
      </trkpt>
      <trkpt lat="40.0152910" lon="-4.6711020">
        <ele>429.0</ele>
        <time>2020-10-04T06:15:53Z</time>
      </trkpt>
      <trkpt lat="40.0152700" lon="-4.6711140">
        <ele>429.6</ele>
        <time>2020-10-04T06:15:54Z</time>
      </trkpt>
      <trkpt lat="40.0152480" lon="-4.6711260">
        <ele>430.0</ele>
        <time>2020-10-04T06:15:55Z</time>
      </trkpt>
      <trkpt lat="40.0152250" lon="-4.6711410">
        <ele>430.4</ele>
        <time>2020-10-04T06:15:56Z</time>
      </trkpt>
      <trkpt lat="40.0151370" lon="-4.6712080">
        <ele>430.4</ele>
        <time>2020-10-04T06:16:00Z</time>
      </trkpt>
      <trkpt lat="40.0150030" lon="-4.6713130">
        <ele>430.8</ele>
        <time>2020-10-04T06:16:06Z</time>
      </trkpt>
      <trkpt lat="40.0149800" lon="-4.6713300">
        <ele>431.4</ele>
        <time>2020-10-04T06:16:07Z</time>
      </trkpt>
      <trkpt lat="40.0149580" lon="-4.6713470">
        <ele>431.8</ele>
        <time>2020-10-04T06:16:08Z</time>
      </trkpt>
      <trkpt lat="40.0149360" lon="-4.6713640">
        <ele>432.4</ele>
        <time>2020-10-04T06:16:09Z</time>
      </trkpt>
      <trkpt lat="40.0149110" lon="-4.6713820">
        <ele>432.8</ele>
        <time>2020-10-04T06:16:10Z</time>
      </trkpt>
      <trkpt lat="40.0148660" lon="-4.6714190">
        <ele>432.8</ele>
        <time>2020-10-04T06:16:12Z</time>
      </trkpt>
      <trkpt lat="40.0146340" lon="-4.6716170">
        <ele>432.8</ele>
        <time>2020-10-04T06:16:21Z</time>
      </trkpt>
      <trkpt lat="40.0146050" lon="-4.6716470">
        <ele>432.8</ele>
        <time>2020-10-04T06:16:22Z</time>
      </trkpt>
      <trkpt lat="40.0143960" lon="-4.6718120">
        <ele>432.8</ele>
        <time>2020-10-04T06:16:28Z</time>
      </trkpt>
      <trkpt lat="40.0143230" lon="-4.6718650">
        <ele>432.8</ele>
        <time>2020-10-04T06:16:30Z</time>
      </trkpt>
      <trkpt lat="40.0142160" lon="-4.6719720">
        <ele>432.8</ele>
        <time>2020-10-04T06:16:33Z</time>
      </trkpt>
      <trkpt lat="40.0140480" lon="-4.6721040">
        <ele>432.8</ele>
        <time>2020-10-04T06:16:37Z</time>
      </trkpt>
      <trkpt lat="40.0140080" lon="-4.6721400">
        <ele>432.8</ele>
        <time>2020-10-04T06:16:38Z</time>
      </trkpt>
      <trkpt lat="40.0136790" lon="-4.6725160">
        <ele>432.8</ele>
        <time>2020-10-04T06:16:47Z</time>
      </trkpt>
      <trkpt lat="40.0135350" lon="-4.6727300">
        <ele>433.2</ele>
        <time>2020-10-04T06:16:52Z</time>
      </trkpt>
      <trkpt lat="40.0135060" lon="-4.6727730">
        <ele>433.6</ele>
        <time>2020-10-04T06:16:53Z</time>
      </trkpt>
      <trkpt lat="40.0134790" lon="-4.6728170">
        <ele>434.0</ele>
        <time>2020-10-04T06:16:54Z</time>
      </trkpt>
      <trkpt lat="40.0134600" lon="-4.6728700">
        <ele>434.4</ele>
        <time>2020-10-04T06:16:55Z</time>
      </trkpt>
      <trkpt lat="40.0134450" lon="-4.6729240">
        <ele>434.8</ele>
        <time>2020-10-04T06:16:56Z</time>
      </trkpt>
      <trkpt lat="40.0133500" lon="-4.6731630">
        <ele>435.2</ele>
        <time>2020-10-04T06:17:01Z</time>
      </trkpt>
      <trkpt lat="40.0133310" lon="-4.6732090">
        <ele>435.6</ele>
        <time>2020-10-04T06:17:02Z</time>
      </trkpt>
      <trkpt lat="40.0133120" lon="-4.6732560">
        <ele>436.0</ele>
        <time>2020-10-04T06:17:03Z</time>
      </trkpt>
      <trkpt lat="40.0132950" lon="-4.6733010">
        <ele>436.4</ele>
        <time>2020-10-04T06:17:04Z</time>
      </trkpt>
      <trkpt lat="40.0132700" lon="-4.6733810">
        <ele>436.8</ele>
        <time>2020-10-04T06:17:06Z</time>
      </trkpt>
      <trkpt lat="40.0132240" lon="-4.6734790">
        <ele>436.8</ele>
        <time>2020-10-04T06:17:09Z</time>
      </trkpt>
      <trkpt lat="40.0132210" lon="-4.6734780">
        <ele>436.8</ele>
        <time>2020-10-04T06:17:12Z</time>
      </trkpt>
      <trkpt lat="40.0132090" lon="-4.6735030">
        <ele>436.8</ele>
        <time>2020-10-04T06:17:29Z</time>
      </trkpt>
      <trkpt lat="40.0131930" lon="-4.6735250">
        <ele>436.8</ele>
        <time>2020-10-04T06:17:30Z</time>
      </trkpt>
      <trkpt lat="40.0131720" lon="-4.6735560">
        <ele>436.8</ele>
        <time>2020-10-04T06:17:31Z</time>
      </trkpt>
      <trkpt lat="40.0131000" lon="-4.6736720">
        <ele>436.8</ele>
        <time>2020-10-04T06:17:34Z</time>
      </trkpt>
      <trkpt lat="40.0130480" lon="-4.6737680">
        <ele>436.8</ele>
        <time>2020-10-04T06:17:36Z</time>
      </trkpt>
      <trkpt lat="40.0128090" lon="-4.6742410">
        <ele>436.8</ele>
        <time>2020-10-04T06:17:45Z</time>
      </trkpt>
      <trkpt lat="40.0125570" lon="-4.6747250">
        <ele>436.8</ele>
        <time>2020-10-04T06:17:54Z</time>
      </trkpt>
      <trkpt lat="40.0123620" lon="-4.6752580">
        <ele>436.8</ele>
        <time>2020-10-04T06:18:03Z</time>
      </trkpt>
      <trkpt lat="40.0121940" lon="-4.6757230">
        <ele>436.8</ele>
        <time>2020-10-04T06:18:11Z</time>
      </trkpt>
      <trkpt lat="40.0120240" lon="-4.6761790">
        <ele>436.8</ele>
        <time>2020-10-04T06:18:19Z</time>
      </trkpt>
      <trkpt lat="40.0120060" lon="-4.6762310">
        <ele>436.8</ele>
        <time>2020-10-04T06:18:20Z</time>
      </trkpt>
      <trkpt lat="40.0117730" lon="-4.6767480">
        <ele>436.8</ele>
        <time>2020-10-04T06:18:29Z</time>
      </trkpt>
      <trkpt lat="40.0116690" lon="-4.6769060">
        <ele>436.8</ele>
        <time>2020-10-04T06:18:32Z</time>
      </trkpt>
      <trkpt lat="40.0115690" lon="-4.6770030">
        <ele>436.8</ele>
        <time>2020-10-04T06:18:34Z</time>
      </trkpt>
      <trkpt lat="40.0115100" lon="-4.6771020">
        <ele>436.8</ele>
        <time>2020-10-04T06:18:36Z</time>
      </trkpt>
      <trkpt lat="40.0114730" lon="-4.6772370">
        <ele>436.8</ele>
        <time>2020-10-04T06:18:38Z</time>
      </trkpt>
      <trkpt lat="40.0113510" lon="-4.6774510">
        <ele>436.8</ele>
        <time>2020-10-04T06:18:43Z</time>
      </trkpt>
      <trkpt lat="40.0112950" lon="-4.6773640">
        <ele>436.8</ele>
        <time>2020-10-04T06:18:44Z</time>
      </trkpt>
      <trkpt lat="40.0110310" lon="-4.6770630">
        <ele>436.8</ele>
        <time>2020-10-04T06:18:51Z</time>
      </trkpt>
      <trkpt lat="40.0110110" lon="-4.6769840">
        <ele>436.4</ele>
        <time>2020-10-04T06:18:53Z</time>
      </trkpt>
      <trkpt lat="40.0109950" lon="-4.6769600">
        <ele>436.0</ele>
        <time>2020-10-04T06:18:54Z</time>
      </trkpt>
      <trkpt lat="40.0109780" lon="-4.6769460">
        <ele>435.6</ele>
        <time>2020-10-04T06:18:55Z</time>
      </trkpt>
      <trkpt lat="40.0109600" lon="-4.6769320">
        <ele>435.2</ele>
        <time>2020-10-04T06:18:56Z</time>
      </trkpt>
      <trkpt lat="40.0109360" lon="-4.6769090">
        <ele>434.8</ele>
        <time>2020-10-04T06:18:57Z</time>
      </trkpt>
      <trkpt lat="40.0108790" lon="-4.6767590">
        <ele>434.8</ele>
        <time>2020-10-04T06:19:00Z</time>
      </trkpt>
      <trkpt lat="40.0106970" lon="-4.6765320">
        <ele>434.8</ele>
        <time>2020-10-04T06:19:05Z</time>
      </trkpt>
      <trkpt lat="40.0105010" lon="-4.6763650">
        <ele>434.8</ele>
        <time>2020-10-04T06:19:09Z</time>
      </trkpt>
      <trkpt lat="40.0104080" lon="-4.6762790">
        <ele>434.8</ele>
        <time>2020-10-04T06:19:11Z</time>
      </trkpt>
      <trkpt lat="40.0101410" lon="-4.6760990">
        <ele>434.8</ele>
        <time>2020-10-04T06:19:17Z</time>
      </trkpt>
      <trkpt lat="40.0100830" lon="-4.6761730">
        <ele>434.8</ele>
        <time>2020-10-04T06:19:19Z</time>
      </trkpt>
      <trkpt lat="40.0100400" lon="-4.6763070">
        <ele>434.8</ele>
        <time>2020-10-04T06:19:21Z</time>
      </trkpt>
      <trkpt lat="40.0099830" lon="-4.6764300">
        <ele>434.8</ele>
        <time>2020-10-04T06:19:23Z</time>
      </trkpt>
      <trkpt lat="40.0098070" lon="-4.6766910">
        <ele>434.8</ele>
        <time>2020-10-04T06:19:28Z</time>
      </trkpt>
      <trkpt lat="40.0097700" lon="-4.6767290">
        <ele>434.8</ele>
        <time>2020-10-04T06:19:29Z</time>
      </trkpt>
      <trkpt lat="40.0096480" lon="-4.6768690">
        <ele>434.8</ele>
        <time>2020-10-04T06:19:32Z</time>
      </trkpt>
      <trkpt lat="40.0095310" lon="-4.6770380">
        <ele>434.8</ele>
        <time>2020-10-04T06:19:35Z</time>
      </trkpt>
      <trkpt lat="40.0093010" lon="-4.6775060">
        <ele>434.8</ele>
        <time>2020-10-04T06:19:43Z</time>
      </trkpt>
      <trkpt lat="40.0091740" lon="-4.6777820">
        <ele>434.8</ele>
        <time>2020-10-04T06:19:48Z</time>
      </trkpt>
      <trkpt lat="40.0089750" lon="-4.6781910">
        <ele>434.8</ele>
        <time>2020-10-04T06:19:55Z</time>
      </trkpt>
      <trkpt lat="40.0089230" lon="-4.6783060">
        <ele>434.8</ele>
        <time>2020-10-04T06:19:57Z</time>
      </trkpt>
      <trkpt lat="40.0089000" lon="-4.6783640">
        <ele>435.2</ele>
        <time>2020-10-04T06:19:58Z</time>
      </trkpt>
      <trkpt lat="40.0088770" lon="-4.6784220">
        <ele>435.6</ele>
        <time>2020-10-04T06:19:59Z</time>
      </trkpt>
      <trkpt lat="40.0088510" lon="-4.6784780">
        <ele>436.0</ele>
        <time>2020-10-04T06:20:00Z</time>
      </trkpt>
      <trkpt lat="40.0088250" lon="-4.6785340">
        <ele>436.4</ele>
        <time>2020-10-04T06:20:01Z</time>
      </trkpt>
      <trkpt lat="40.0087980" lon="-4.6785870">
        <ele>436.8</ele>
        <time>2020-10-04T06:20:02Z</time>
      </trkpt>
      <trkpt lat="40.0087140" lon="-4.6787600">
        <ele>436.8</ele>
        <time>2020-10-04T06:20:05Z</time>
      </trkpt>
      <trkpt lat="40.0084060" lon="-4.6793220">
        <ele>436.8</ele>
        <time>2020-10-04T06:20:15Z</time>
      </trkpt>
      <trkpt lat="40.0081170" lon="-4.6799240">
        <ele>436.8</ele>
        <time>2020-10-04T06:20:25Z</time>
      </trkpt>
      <trkpt lat="40.0080930" lon="-4.6799880">
        <ele>436.8</ele>
        <time>2020-10-04T06:20:26Z</time>
      </trkpt>
      <trkpt lat="40.0079010" lon="-4.6806210">
        <ele>436.8</ele>
        <time>2020-10-04T06:20:35Z</time>
      </trkpt>
      <trkpt lat="40.0078830" lon="-4.6808920">
        <ele>436.4</ele>
        <time>2020-10-04T06:20:38Z</time>
      </trkpt>
      <trkpt lat="40.0078780" lon="-4.6809820">
        <ele>436.0</ele>
        <time>2020-10-04T06:20:39Z</time>
      </trkpt>
      <trkpt lat="40.0078740" lon="-4.6810760">
        <ele>435.4</ele>
        <time>2020-10-04T06:20:40Z</time>
      </trkpt>
      <trkpt lat="40.0078710" lon="-4.6811710">
        <ele>435.0</ele>
        <time>2020-10-04T06:20:41Z</time>
      </trkpt>
      <trkpt lat="40.0078700" lon="-4.6812640">
        <ele>434.6</ele>
        <time>2020-10-04T06:20:42Z</time>
      </trkpt>
      <trkpt lat="40.0078740" lon="-4.6817420">
        <ele>434.6</ele>
        <time>2020-10-04T06:20:47Z</time>
      </trkpt>
      <trkpt lat="40.0078750" lon="-4.6820320">
        <ele>434.6</ele>
        <time>2020-10-04T06:20:50Z</time>
      </trkpt>
      <trkpt lat="40.0078200" lon="-4.6827410">
        <ele>434.2</ele>
        <time>2020-10-04T06:20:58Z</time>
      </trkpt>
      <trkpt lat="40.0078080" lon="-4.6828210">
        <ele>433.8</ele>
        <time>2020-10-04T06:20:59Z</time>
      </trkpt>
      <trkpt lat="40.0077960" lon="-4.6829060">
        <ele>433.4</ele>
        <time>2020-10-04T06:21:00Z</time>
      </trkpt>
      <trkpt lat="40.0077810" lon="-4.6829870">
        <ele>433.0</ele>
        <time>2020-10-04T06:21:01Z</time>
      </trkpt>
      <trkpt lat="40.0077660" lon="-4.6830710">
        <ele>432.6</ele>
        <time>2020-10-04T06:21:02Z</time>
      </trkpt>
      <trkpt lat="40.0077110" lon="-4.6834000">
        <ele>432.6</ele>
        <time>2020-10-04T06:21:06Z</time>
      </trkpt>
      <trkpt lat="40.0075640" lon="-4.6840900">
        <ele>432.6</ele>
        <time>2020-10-04T06:21:15Z</time>
      </trkpt>
      <trkpt lat="40.0075330" lon="-4.6842440">
        <ele>432.6</ele>
        <time>2020-10-04T06:21:17Z</time>
      </trkpt>
      <trkpt lat="40.0074100" lon="-4.6848300">
        <ele>432.6</ele>
        <time>2020-10-04T06:21:25Z</time>
      </trkpt>
      <trkpt lat="40.0073140" lon="-4.6852770">
        <ele>432.6</ele>
        <time>2020-10-04T06:21:31Z</time>
      </trkpt>
      <trkpt lat="40.0072620" lon="-4.6855670">
        <ele>432.6</ele>
        <time>2020-10-04T06:21:35Z</time>
      </trkpt>
      <trkpt lat="40.0071770" lon="-4.6861350">
        <ele>432.6</ele>
        <time>2020-10-04T06:21:43Z</time>
      </trkpt>
      <trkpt lat="40.0071550" lon="-4.6862700">
        <ele>432.6</ele>
        <time>2020-10-04T06:21:45Z</time>
      </trkpt>
      <trkpt lat="40.0070150" lon="-4.6869830">
        <ele>432.6</ele>
        <time>2020-10-04T06:21:56Z</time>
      </trkpt>
      <trkpt lat="40.0069860" lon="-4.6871110">
        <ele>432.6</ele>
        <time>2020-10-04T06:21:58Z</time>
      </trkpt>
      <trkpt lat="40.0068290" lon="-4.6878420">
        <ele>432.6</ele>
        <time>2020-10-04T06:22:09Z</time>
      </trkpt>
      <trkpt lat="40.0066660" lon="-4.6885780">
        <ele>432.6</ele>
        <time>2020-10-04T06:22:20Z</time>
      </trkpt>
      <trkpt lat="40.0065880" lon="-4.6889140">
        <ele>432.6</ele>
        <time>2020-10-04T06:22:25Z</time>
      </trkpt>
      <trkpt lat="40.0064150" lon="-4.6895930">
        <ele>432.6</ele>
        <time>2020-10-04T06:22:35Z</time>
      </trkpt>
      <trkpt lat="40.0064000" lon="-4.6896570">
        <ele>432.6</ele>
        <time>2020-10-04T06:22:36Z</time>
      </trkpt>
      <trkpt lat="40.0062460" lon="-4.6903360">
        <ele>432.6</ele>
        <time>2020-10-04T06:22:46Z</time>
      </trkpt>
      <trkpt lat="40.0062170" lon="-4.6904660">
        <ele>432.6</ele>
        <time>2020-10-04T06:22:48Z</time>
      </trkpt>
      <trkpt lat="40.0060740" lon="-4.6911940">
        <ele>432.6</ele>
        <time>2020-10-04T06:22:59Z</time>
      </trkpt>
      <trkpt lat="40.0060500" lon="-4.6913280">
        <ele>432.6</ele>
        <time>2020-10-04T06:23:01Z</time>
      </trkpt>
      <trkpt lat="40.0059210" lon="-4.6920550">
        <ele>432.6</ele>
        <time>2020-10-04T06:23:12Z</time>
      </trkpt>
      <trkpt lat="40.0058540" lon="-4.6923880">
        <ele>432.2</ele>
        <time>2020-10-04T06:23:17Z</time>
      </trkpt>
      <trkpt lat="40.0058430" lon="-4.6924590">
        <ele>431.8</ele>
        <time>2020-10-04T06:23:18Z</time>
      </trkpt>
      <trkpt lat="40.0058320" lon="-4.6925280">
        <ele>431.4</ele>
        <time>2020-10-04T06:23:19Z</time>
      </trkpt>
      <trkpt lat="40.0058180" lon="-4.6925980">
        <ele>431.0</ele>
        <time>2020-10-04T06:23:20Z</time>
      </trkpt>
      <trkpt lat="40.0058050" lon="-4.6926630">
        <ele>430.4</ele>
        <time>2020-10-04T06:23:21Z</time>
      </trkpt>
      <trkpt lat="40.0056470" lon="-4.6933950">
        <ele>430.4</ele>
        <time>2020-10-04T06:23:32Z</time>
      </trkpt>
      <trkpt lat="40.0055130" lon="-4.6940810">
        <ele>430.4</ele>
        <time>2020-10-04T06:23:42Z</time>
      </trkpt>
      <trkpt lat="40.0053440" lon="-4.6948150">
        <ele>430.4</ele>
        <time>2020-10-04T06:23:53Z</time>
      </trkpt>
      <trkpt lat="40.0053080" lon="-4.6949510">
        <ele>430.4</ele>
        <time>2020-10-04T06:23:55Z</time>
      </trkpt>
      <trkpt lat="40.0051110" lon="-4.6956100">
        <ele>430.4</ele>
        <time>2020-10-04T06:24:05Z</time>
      </trkpt>
      <trkpt lat="40.0050330" lon="-4.6958730">
        <ele>430.4</ele>
        <time>2020-10-04T06:24:09Z</time>
      </trkpt>
      <trkpt lat="40.0047980" lon="-4.6965240">
        <ele>430.4</ele>
        <time>2020-10-04T06:24:19Z</time>
      </trkpt>
      <trkpt lat="40.0047580" lon="-4.6966580">
        <ele>430.4</ele>
        <time>2020-10-04T06:24:21Z</time>
      </trkpt>
      <trkpt lat="40.0045290" lon="-4.6973710">
        <ele>430.4</ele>
        <time>2020-10-04T06:24:32Z</time>
      </trkpt>
      <trkpt lat="40.0042490" lon="-4.6980420">
        <ele>430.4</ele>
        <time>2020-10-04T06:24:43Z</time>
      </trkpt>
      <trkpt lat="40.0042210" lon="-4.6981010">
        <ele>430.4</ele>
        <time>2020-10-04T06:24:44Z</time>
      </trkpt>
      <trkpt lat="40.0039250" lon="-4.6987630">
        <ele>430.4</ele>
        <time>2020-10-04T06:24:55Z</time>
      </trkpt>
      <trkpt lat="40.0037890" lon="-4.6990710">
        <ele>430.4</ele>
        <time>2020-10-04T06:25:00Z</time>
      </trkpt>
      <trkpt lat="40.0037600" lon="-4.6991300">
        <ele>430.0</ele>
        <time>2020-10-04T06:25:01Z</time>
      </trkpt>
      <trkpt lat="40.0037290" lon="-4.6991910">
        <ele>429.6</ele>
        <time>2020-10-04T06:25:02Z</time>
      </trkpt>
      <trkpt lat="40.0037000" lon="-4.6992480">
        <ele>429.2</ele>
        <time>2020-10-04T06:25:03Z</time>
      </trkpt>
      <trkpt lat="40.0036700" lon="-4.6993070">
        <ele>428.8</ele>
        <time>2020-10-04T06:25:04Z</time>
      </trkpt>
      <trkpt lat="40.0036400" lon="-4.6993650">
        <ele>428.4</ele>
        <time>2020-10-04T06:25:05Z</time>
      </trkpt>
      <trkpt lat="40.0033840" lon="-4.6998270">
        <ele>428.4</ele>
        <time>2020-10-04T06:25:13Z</time>
      </trkpt>
      <trkpt lat="40.0030410" lon="-4.7003990">
        <ele>428.4</ele>
        <time>2020-10-04T06:25:23Z</time>
      </trkpt>
      <trkpt lat="40.0027360" lon="-4.7008850">
        <ele>428.4</ele>
        <time>2020-10-04T06:25:32Z</time>
      </trkpt>
      <trkpt lat="40.0023560" lon="-4.7014780">
        <ele>428.4</ele>
        <time>2020-10-04T06:25:43Z</time>
      </trkpt>
      <trkpt lat="40.0021420" lon="-4.7017850">
        <ele>428.4</ele>
        <time>2020-10-04T06:25:49Z</time>
      </trkpt>
      <trkpt lat="40.0017540" lon="-4.7023310">
        <ele>428.4</ele>
        <time>2020-10-04T06:26:00Z</time>
      </trkpt>
      <trkpt lat="40.0016450" lon="-4.7024890">
        <ele>428.4</ele>
        <time>2020-10-04T06:26:03Z</time>
      </trkpt>
      <trkpt lat="40.0012740" lon="-4.7030270">
        <ele>428.4</ele>
        <time>2020-10-04T06:26:13Z</time>
      </trkpt>
      <trkpt lat="40.0011650" lon="-4.7031900">
        <ele>428.4</ele>
        <time>2020-10-04T06:26:16Z</time>
      </trkpt>
      <trkpt lat="40.0007920" lon="-4.7037230">
        <ele>428.4</ele>
        <time>2020-10-04T06:26:26Z</time>
      </trkpt>
      <trkpt lat="40.0006050" lon="-4.7040120">
        <ele>428.0</ele>
        <time>2020-10-04T06:26:31Z</time>
      </trkpt>
      <trkpt lat="40.0005650" lon="-4.7040720">
        <ele>427.6</ele>
        <time>2020-10-04T06:26:32Z</time>
      </trkpt>
      <trkpt lat="40.0005260" lon="-4.7041320">
        <ele>427.2</ele>
        <time>2020-10-04T06:26:33Z</time>
      </trkpt>
      <trkpt lat="40.0004870" lon="-4.7041930">
        <ele>426.8</ele>
        <time>2020-10-04T06:26:34Z</time>
      </trkpt>
      <trkpt lat="40.0004490" lon="-4.7042540">
        <ele>426.4</ele>
        <time>2020-10-04T06:26:35Z</time>
      </trkpt>
      <trkpt lat="40.0002680" lon="-4.7045850">
        <ele>426.4</ele>
        <time>2020-10-04T06:26:40Z</time>
      </trkpt>
      <trkpt lat="40.0001120" lon="-4.7050190">
        <ele>426.4</ele>
        <time>2020-10-04T06:26:46Z</time>
      </trkpt>
      <trkpt lat="40.0000390" lon="-4.7053150">
        <ele>426.0</ele>
        <time>2020-10-04T06:26:50Z</time>
      </trkpt>
      <trkpt lat="40.0000220" lon="-4.7053880">
        <ele>425.6</ele>
        <time>2020-10-04T06:26:51Z</time>
      </trkpt>
      <trkpt lat="40.0000040" lon="-4.7054630">
        <ele>425.2</ele>
        <time>2020-10-04T06:26:52Z</time>
      </trkpt>
      <trkpt lat="39.9999840" lon="-4.7055400">
        <ele>424.8</ele>
        <time>2020-10-04T06:26:53Z</time>
      </trkpt>
      <trkpt lat="39.9999650" lon="-4.7056140">
        <ele>424.4</ele>
        <time>2020-10-04T06:26:54Z</time>
      </trkpt>
      <trkpt lat="39.9999210" lon="-4.7057710">
        <ele>424.4</ele>
        <time>2020-10-04T06:26:56Z</time>
      </trkpt>
      <trkpt lat="39.9997370" lon="-4.7062630">
        <ele>424.4</ele>
        <time>2020-10-04T06:27:02Z</time>
      </trkpt>
      <trkpt lat="39.9996490" lon="-4.7064300">
        <ele>423.8</ele>
        <time>2020-10-04T06:27:04Z</time>
      </trkpt>
      <trkpt lat="39.9996020" lon="-4.7065100">
        <ele>423.4</ele>
        <time>2020-10-04T06:27:05Z</time>
      </trkpt>
      <trkpt lat="39.9995550" lon="-4.7065850">
        <ele>422.8</ele>
        <time>2020-10-04T06:27:06Z</time>
      </trkpt>
      <trkpt lat="39.9994630" lon="-4.7067240">
        <ele>422.2</ele>
        <time>2020-10-04T06:27:08Z</time>
      </trkpt>
      <trkpt lat="39.9994130" lon="-4.7067940">
        <ele>421.8</ele>
        <time>2020-10-04T06:27:09Z</time>
      </trkpt>
      <trkpt lat="39.9993620" lon="-4.7068660">
        <ele>421.4</ele>
        <time>2020-10-04T06:27:10Z</time>
      </trkpt>
      <trkpt lat="39.9993080" lon="-4.7069440">
        <ele>420.8</ele>
        <time>2020-10-04T06:27:11Z</time>
      </trkpt>
      <trkpt lat="39.9992570" lon="-4.7070160">
        <ele>420.4</ele>
        <time>2020-10-04T06:27:12Z</time>
      </trkpt>
      <trkpt lat="39.9992060" lon="-4.7070860">
        <ele>420.0</ele>
        <time>2020-10-04T06:27:13Z</time>
      </trkpt>
      <trkpt lat="39.9991560" lon="-4.7071520">
        <ele>419.6</ele>
        <time>2020-10-04T06:27:14Z</time>
      </trkpt>
      <trkpt lat="39.9989970" lon="-4.7073430">
        <ele>419.2</ele>
        <time>2020-10-04T06:27:17Z</time>
      </trkpt>
      <trkpt lat="39.9989470" lon="-4.7074050">
        <ele>418.8</ele>
        <time>2020-10-04T06:27:18Z</time>
      </trkpt>
      <trkpt lat="39.9988910" lon="-4.7074720">
        <ele>418.2</ele>
        <time>2020-10-04T06:27:19Z</time>
      </trkpt>
      <trkpt lat="39.9988380" lon="-4.7075360">
        <ele>417.8</ele>
        <time>2020-10-04T06:27:20Z</time>
      </trkpt>
      <trkpt lat="39.9987880" lon="-4.7075950">
        <ele>417.4</ele>
        <time>2020-10-04T06:27:21Z</time>
      </trkpt>
      <trkpt lat="39.9984100" lon="-4.7079990">
        <ele>417.4</ele>
        <time>2020-10-04T06:27:28Z</time>
      </trkpt>
      <trkpt lat="39.9979770" lon="-4.7084310">
        <ele>417.4</ele>
        <time>2020-10-04T06:27:36Z</time>
      </trkpt>
      <trkpt lat="39.9977540" lon="-4.7086370">
        <ele>417.0</ele>
        <time>2020-10-04T06:27:40Z</time>
      </trkpt>
      <trkpt lat="39.9976880" lon="-4.7086950">
        <ele>416.6</ele>
        <time>2020-10-04T06:27:41Z</time>
      </trkpt>
      <trkpt lat="39.9976380" lon="-4.7087410">
        <ele>416.0</ele>
        <time>2020-10-04T06:27:42Z</time>
      </trkpt>
      <trkpt lat="39.9975810" lon="-4.7087910">
        <ele>415.6</ele>
        <time>2020-10-04T06:27:43Z</time>
      </trkpt>
      <trkpt lat="39.9975260" lon="-4.7088380">
        <ele>415.2</ele>
        <time>2020-10-04T06:27:44Z</time>
      </trkpt>
      <trkpt lat="39.9972930" lon="-4.7090100">
        <ele>415.2</ele>
        <time>2020-10-04T06:27:48Z</time>
      </trkpt>
      <trkpt lat="39.9971210" lon="-4.7091470">
        <ele>415.2</ele>
        <time>2020-10-04T06:27:51Z</time>
      </trkpt>
      <trkpt lat="39.9968500" lon="-4.7095130">
        <ele>415.2</ele>
        <time>2020-10-04T06:27:57Z</time>
      </trkpt>
      <trkpt lat="39.9966060" lon="-4.7099550">
        <ele>415.2</ele>
        <time>2020-10-04T06:28:04Z</time>
      </trkpt>
      <trkpt lat="39.9965400" lon="-4.7100790">
        <ele>415.2</ele>
        <time>2020-10-04T06:28:06Z</time>
      </trkpt>
      <trkpt lat="39.9963400" lon="-4.7104360">
        <ele>415.2</ele>
        <time>2020-10-04T06:28:12Z</time>
      </trkpt>
      <trkpt lat="39.9961150" lon="-4.7108430">
        <ele>415.2</ele>
        <time>2020-10-04T06:28:19Z</time>
      </trkpt>
      <trkpt lat="39.9957910" lon="-4.7114260">
        <ele>415.2</ele>
        <time>2020-10-04T06:28:29Z</time>
      </trkpt>
      <trkpt lat="39.9956970" lon="-4.7116040">
        <ele>415.2</ele>
        <time>2020-10-04T06:28:32Z</time>
      </trkpt>
      <trkpt lat="39.9955100" lon="-4.7119640">
        <ele>415.2</ele>
        <time>2020-10-04T06:28:38Z</time>
      </trkpt>
      <trkpt lat="39.9953460" lon="-4.7122430">
        <ele>415.2</ele>
        <time>2020-10-04T06:28:43Z</time>
      </trkpt>
      <trkpt lat="39.9949520" lon="-4.7128060">
        <ele>415.2</ele>
        <time>2020-10-04T06:28:54Z</time>
      </trkpt>
      <trkpt lat="39.9946460" lon="-4.7131530">
        <ele>415.2</ele>
        <time>2020-10-04T06:29:01Z</time>
      </trkpt>
      <trkpt lat="39.9944530" lon="-4.7133610">
        <ele>415.2</ele>
        <time>2020-10-04T06:29:05Z</time>
      </trkpt>
      <trkpt lat="39.9940890" lon="-4.7137940">
        <ele>415.2</ele>
        <time>2020-10-04T06:29:13Z</time>
      </trkpt>
      <trkpt lat="39.9939730" lon="-4.7139830">
        <ele>415.2</ele>
        <time>2020-10-04T06:29:16Z</time>
      </trkpt>
      <trkpt lat="39.9938760" lon="-4.7141910">
        <ele>415.2</ele>
        <time>2020-10-04T06:29:19Z</time>
      </trkpt>
      <trkpt lat="39.9937910" lon="-4.7144030">
        <ele>414.8</ele>
        <time>2020-10-04T06:29:22Z</time>
      </trkpt>
      <trkpt lat="39.9937600" lon="-4.7144720">
        <ele>414.4</ele>
        <time>2020-10-04T06:29:23Z</time>
      </trkpt>
      <trkpt lat="39.9937310" lon="-4.7145410">
        <ele>414.0</ele>
        <time>2020-10-04T06:29:24Z</time>
      </trkpt>
      <trkpt lat="39.9937040" lon="-4.7146170">
        <ele>413.6</ele>
        <time>2020-10-04T06:29:25Z</time>
      </trkpt>
      <trkpt lat="39.9936750" lon="-4.7146890">
        <ele>413.2</ele>
        <time>2020-10-04T06:29:26Z</time>
      </trkpt>
      <trkpt lat="39.9934420" lon="-4.7153630">
        <ele>413.2</ele>
        <time>2020-10-04T06:29:35Z</time>
      </trkpt>
      <trkpt lat="39.9932370" lon="-4.7160500">
        <ele>413.2</ele>
        <time>2020-10-04T06:29:44Z</time>
      </trkpt>
      <trkpt lat="39.9930630" lon="-4.7167450">
        <ele>413.2</ele>
        <time>2020-10-04T06:29:53Z</time>
      </trkpt>
      <trkpt lat="39.9929960" lon="-4.7170500">
        <ele>412.8</ele>
        <time>2020-10-04T06:29:57Z</time>
      </trkpt>
      <trkpt lat="39.9929800" lon="-4.7171310">
        <ele>412.2</ele>
        <time>2020-10-04T06:29:58Z</time>
      </trkpt>
      <trkpt lat="39.9929650" lon="-4.7172100">
        <ele>411.8</ele>
        <time>2020-10-04T06:29:59Z</time>
      </trkpt>
      <trkpt lat="39.9929510" lon="-4.7172840">
        <ele>411.2</ele>
        <time>2020-10-04T06:30:00Z</time>
      </trkpt>
      <trkpt lat="39.9929310" lon="-4.7173660">
        <ele>410.8</ele>
        <time>2020-10-04T06:30:01Z</time>
      </trkpt>
      <trkpt lat="39.9928230" lon="-4.7177510">
        <ele>410.8</ele>
        <time>2020-10-04T06:30:06Z</time>
      </trkpt>
      <trkpt lat="39.9926100" lon="-4.7183200">
        <ele>410.8</ele>
        <time>2020-10-04T06:30:14Z</time>
      </trkpt>
      <trkpt lat="39.9923540" lon="-4.7188880">
        <ele>410.8</ele>
        <time>2020-10-04T06:30:22Z</time>
      </trkpt>
      <trkpt lat="39.9922020" lon="-4.7193270">
        <ele>410.8</ele>
        <time>2020-10-04T06:30:28Z</time>
      </trkpt>
      <trkpt lat="39.9921280" lon="-4.7195450">
        <ele>410.8</ele>
        <time>2020-10-04T06:30:31Z</time>
      </trkpt>
      <trkpt lat="39.9919690" lon="-4.7200880">
        <ele>410.8</ele>
        <time>2020-10-04T06:30:38Z</time>
      </trkpt>
      <trkpt lat="39.9919580" lon="-4.7201610">
        <ele>410.8</ele>
        <time>2020-10-04T06:30:39Z</time>
      </trkpt>
      <trkpt lat="39.9918840" lon="-4.7208900">
        <ele>410.8</ele>
        <time>2020-10-04T06:30:48Z</time>
      </trkpt>
      <trkpt lat="39.9918790" lon="-4.7209720">
        <ele>410.8</ele>
        <time>2020-10-04T06:30:49Z</time>
      </trkpt>
      <trkpt lat="39.9918310" lon="-4.7217190">
        <ele>410.8</ele>
        <time>2020-10-04T06:30:58Z</time>
      </trkpt>
      <trkpt lat="39.9918180" lon="-4.7218970">
        <ele>410.4</ele>
        <time>2020-10-04T06:31:00Z</time>
      </trkpt>
      <trkpt lat="39.9918110" lon="-4.7219790">
        <ele>410.0</ele>
        <time>2020-10-04T06:31:01Z</time>
      </trkpt>
      <trkpt lat="39.9918040" lon="-4.7220640">
        <ele>409.6</ele>
        <time>2020-10-04T06:31:02Z</time>
      </trkpt>
      <trkpt lat="39.9917970" lon="-4.7221430">
        <ele>409.2</ele>
        <time>2020-10-04T06:31:03Z</time>
      </trkpt>
      <trkpt lat="39.9917910" lon="-4.7222240">
        <ele>408.8</ele>
        <time>2020-10-04T06:31:04Z</time>
      </trkpt>
      <trkpt lat="39.9916950" lon="-4.7227920">
        <ele>408.8</ele>
        <time>2020-10-04T06:31:11Z</time>
      </trkpt>
      <trkpt lat="39.9915750" lon="-4.7235120">
        <ele>408.8</ele>
        <time>2020-10-04T06:31:20Z</time>
      </trkpt>
      <trkpt lat="39.9915510" lon="-4.7236680">
        <ele>408.8</ele>
        <time>2020-10-04T06:31:22Z</time>
      </trkpt>
      <trkpt lat="39.9915050" lon="-4.7238720">
        <ele>408.8</ele>
        <time>2020-10-04T06:31:30Z</time>
      </trkpt>
      <trkpt lat="39.9914590" lon="-4.7240750">
        <ele>408.8</ele>
        <time>2020-10-04T06:31:32Z</time>
      </trkpt>
      <trkpt lat="39.9913670" lon="-4.7244820">
        <ele>408.8</ele>
        <time>2020-10-04T06:31:34Z</time>
      </trkpt>
      <trkpt lat="39.9912280" lon="-4.7249050">
        <ele>408.8</ele>
        <time>2020-10-04T06:31:40Z</time>
      </trkpt>
      <trkpt lat="39.9911290" lon="-4.7251940">
        <ele>408.8</ele>
        <time>2020-10-04T06:31:44Z</time>
      </trkpt>
      <trkpt lat="39.9911060" lon="-4.7252580">
        <ele>408.8</ele>
        <time>2020-10-04T06:31:45Z</time>
      </trkpt>
      <trkpt lat="39.9910620" lon="-4.7253980">
        <ele>408.8</ele>
        <time>2020-10-04T06:31:47Z</time>
      </trkpt>
      <trkpt lat="39.9910140" lon="-4.7255450">
        <ele>408.8</ele>
        <time>2020-10-04T06:31:49Z</time>
      </trkpt>
      <trkpt lat="39.9909350" lon="-4.7257550">
        <ele>408.4</ele>
        <time>2020-10-04T06:31:52Z</time>
      </trkpt>
      <trkpt lat="39.9909120" lon="-4.7258190">
        <ele>407.8</ele>
        <time>2020-10-04T06:31:53Z</time>
      </trkpt>
      <trkpt lat="39.9908840" lon="-4.7259020">
        <ele>407.4</ele>
        <time>2020-10-04T06:31:54Z</time>
      </trkpt>
      <trkpt lat="39.9908610" lon="-4.7259800">
        <ele>407.0</ele>
        <time>2020-10-04T06:31:55Z</time>
      </trkpt>
      <trkpt lat="39.9908360" lon="-4.7260600">
        <ele>406.6</ele>
        <time>2020-10-04T06:31:56Z</time>
      </trkpt>
      <trkpt lat="39.9907790" lon="-4.7263150">
        <ele>406.6</ele>
        <time>2020-10-04T06:31:59Z</time>
      </trkpt>
      <trkpt lat="39.9907680" lon="-4.7264380">
        <ele>405.8</ele>
        <time>2020-10-04T06:32:00Z</time>
      </trkpt>
      <trkpt lat="39.9907620" lon="-4.7265480">
        <ele>405.4</ele>
        <time>2020-10-04T06:32:01Z</time>
      </trkpt>
      <trkpt lat="39.9907570" lon="-4.7266610">
        <ele>404.6</ele>
        <time>2020-10-04T06:32:02Z</time>
      </trkpt>
      <trkpt lat="39.9907540" lon="-4.7267780">
        <ele>404.0</ele>
        <time>2020-10-04T06:32:03Z</time>
      </trkpt>
      <trkpt lat="39.9907490" lon="-4.7268960">
        <ele>403.4</ele>
        <time>2020-10-04T06:32:04Z</time>
      </trkpt>
      <trkpt lat="39.9907420" lon="-4.7270050">
        <ele>402.6</ele>
        <time>2020-10-04T06:32:05Z</time>
      </trkpt>
      <trkpt lat="39.9907020" lon="-4.7272500">
        <ele>401.8</ele>
        <time>2020-10-04T06:32:07Z</time>
      </trkpt>
      <trkpt lat="39.9906710" lon="-4.7273760">
        <ele>400.8</ele>
        <time>2020-10-04T06:32:08Z</time>
      </trkpt>
      <trkpt lat="39.9906070" lon="-4.7275140">
        <ele>399.8</ele>
        <time>2020-10-04T06:32:09Z</time>
      </trkpt>
      <trkpt lat="39.9905860" lon="-4.7276360">
        <ele>398.8</ele>
        <time>2020-10-04T06:32:10Z</time>
      </trkpt>
      <trkpt lat="39.9905370" lon="-4.7277600">
        <ele>397.6</ele>
        <time>2020-10-04T06:32:11Z</time>
      </trkpt>
      <trkpt lat="39.9904850" lon="-4.7278850">
        <ele>397.0</ele>
        <time>2020-10-04T06:32:12Z</time>
      </trkpt>
      <trkpt lat="39.9904280" lon="-4.7280100">
        <ele>396.2</ele>
        <time>2020-10-04T06:32:13Z</time>
      </trkpt>
      <trkpt lat="39.9903680" lon="-4.7281350">
        <ele>395.4</ele>
        <time>2020-10-04T06:32:14Z</time>
      </trkpt>
      <trkpt lat="39.9903070" lon="-4.7282550">
        <ele>394.6</ele>
        <time>2020-10-04T06:32:15Z</time>
      </trkpt>
      <trkpt lat="39.9902480" lon="-4.7283750">
        <ele>393.8</ele>
        <time>2020-10-04T06:32:16Z</time>
      </trkpt>
      <trkpt lat="39.9901910" lon="-4.7284920">
        <ele>393.0</ele>
        <time>2020-10-04T06:32:17Z</time>
      </trkpt>
      <trkpt lat="39.9901350" lon="-4.7286090">
        <ele>392.2</ele>
        <time>2020-10-04T06:32:18Z</time>
      </trkpt>
      <trkpt lat="39.9900770" lon="-4.7287230">
        <ele>391.4</ele>
        <time>2020-10-04T06:32:19Z</time>
      </trkpt>
      <trkpt lat="39.9900180" lon="-4.7288380">
        <ele>390.8</ele>
        <time>2020-10-04T06:32:20Z</time>
      </trkpt>
      <trkpt lat="39.9899600" lon="-4.7289490">
        <ele>390.0</ele>
        <time>2020-10-04T06:32:21Z</time>
      </trkpt>
      <trkpt lat="39.9898800" lon="-4.7290630">
        <ele>389.6</ele>
        <time>2020-10-04T06:32:22Z</time>
      </trkpt>
      <trkpt lat="39.9898370" lon="-4.7291700">
        <ele>389.0</ele>
        <time>2020-10-04T06:32:23Z</time>
      </trkpt>
      <trkpt lat="39.9897640" lon="-4.7292750">
        <ele>388.4</ele>
        <time>2020-10-04T06:32:24Z</time>
      </trkpt>
      <trkpt lat="39.9897200" lon="-4.7293770">
        <ele>387.8</ele>
        <time>2020-10-04T06:32:25Z</time>
      </trkpt>
      <trkpt lat="39.9896530" lon="-4.7294830">
        <ele>387.4</ele>
        <time>2020-10-04T06:32:26Z</time>
      </trkpt>
      <trkpt lat="39.9895500" lon="-4.7296850">
        <ele>386.8</ele>
        <time>2020-10-04T06:32:28Z</time>
      </trkpt>
      <trkpt lat="39.9895020" lon="-4.7297750">
        <ele>386.4</ele>
        <time>2020-10-04T06:32:29Z</time>
      </trkpt>
      <trkpt lat="39.9894530" lon="-4.7298810">
        <ele>386.0</ele>
        <time>2020-10-04T06:32:30Z</time>
      </trkpt>
      <trkpt lat="39.9894090" lon="-4.7299680">
        <ele>385.6</ele>
        <time>2020-10-04T06:32:31Z</time>
      </trkpt>
      <trkpt lat="39.9893590" lon="-4.7300700">
        <ele>385.0</ele>
        <time>2020-10-04T06:32:32Z</time>
      </trkpt>
      <trkpt lat="39.9892680" lon="-4.7302590">
        <ele>385.0</ele>
        <time>2020-10-04T06:32:34Z</time>
      </trkpt>
      <trkpt lat="39.9891790" lon="-4.7304470">
        <ele>385.0</ele>
        <time>2020-10-04T06:32:36Z</time>
      </trkpt>
      <trkpt lat="39.9891340" lon="-4.7305430">
        <ele>384.6</ele>
        <time>2020-10-04T06:32:37Z</time>
      </trkpt>
      <trkpt lat="39.9890950" lon="-4.7306260">
        <ele>384.2</ele>
        <time>2020-10-04T06:32:38Z</time>
      </trkpt>
      <trkpt lat="39.9890520" lon="-4.7307310">
        <ele>383.8</ele>
        <time>2020-10-04T06:32:39Z</time>
      </trkpt>
      <trkpt lat="39.9890140" lon="-4.7308170">
        <ele>383.4</ele>
        <time>2020-10-04T06:32:40Z</time>
      </trkpt>
      <trkpt lat="39.9889820" lon="-4.7309120">
        <ele>383.0</ele>
        <time>2020-10-04T06:32:41Z</time>
      </trkpt>
      <trkpt lat="39.9889020" lon="-4.7312060">
        <ele>383.0</ele>
        <time>2020-10-04T06:32:44Z</time>
      </trkpt>
      <trkpt lat="39.9888250" lon="-4.7314840">
        <ele>383.0</ele>
        <time>2020-10-04T06:32:47Z</time>
      </trkpt>
      <trkpt lat="39.9887360" lon="-4.7317660">
        <ele>383.0</ele>
        <time>2020-10-04T06:32:50Z</time>
      </trkpt>
      <trkpt lat="39.9886720" lon="-4.7319630">
        <ele>383.0</ele>
        <time>2020-10-04T06:32:52Z</time>
      </trkpt>
      <trkpt lat="39.9884280" lon="-4.7326940">
        <ele>383.0</ele>
        <time>2020-10-04T06:33:00Z</time>
      </trkpt>
      <trkpt lat="39.9883660" lon="-4.7328730">
        <ele>383.0</ele>
        <time>2020-10-04T06:33:02Z</time>
      </trkpt>
      <trkpt lat="39.9883000" lon="-4.7330690">
        <ele>382.6</ele>
        <time>2020-10-04T06:33:04Z</time>
      </trkpt>
      <trkpt lat="39.9882710" lon="-4.7331550">
        <ele>382.2</ele>
        <time>2020-10-04T06:33:05Z</time>
      </trkpt>
      <trkpt lat="39.9882000" lon="-4.7333500">
        <ele>381.8</ele>
        <time>2020-10-04T06:33:07Z</time>
      </trkpt>
      <trkpt lat="39.9881720" lon="-4.7334430">
        <ele>381.4</ele>
        <time>2020-10-04T06:33:08Z</time>
      </trkpt>
      <trkpt lat="39.9881450" lon="-4.7335260">
        <ele>381.0</ele>
        <time>2020-10-04T06:33:09Z</time>
      </trkpt>
      <trkpt lat="39.9880580" lon="-4.7338080">
        <ele>381.0</ele>
        <time>2020-10-04T06:33:12Z</time>
      </trkpt>
      <trkpt lat="39.9879350" lon="-4.7342380">
        <ele>380.4</ele>
        <time>2020-10-04T06:33:17Z</time>
      </trkpt>
      <trkpt lat="39.9879190" lon="-4.7343010">
        <ele>380.0</ele>
        <time>2020-10-04T06:33:18Z</time>
      </trkpt>
      <trkpt lat="39.9879070" lon="-4.7343580">
        <ele>379.6</ele>
        <time>2020-10-04T06:33:19Z</time>
      </trkpt>
      <trkpt lat="39.9878890" lon="-4.7344150">
        <ele>379.0</ele>
        <time>2020-10-04T06:33:20Z</time>
      </trkpt>
      <trkpt lat="39.9878660" lon="-4.7344610">
        <ele>378.6</ele>
        <time>2020-10-04T06:33:21Z</time>
      </trkpt>
      <trkpt lat="39.9877950" lon="-4.7345980">
        <ele>378.6</ele>
        <time>2020-10-04T06:33:24Z</time>
      </trkpt>
      <trkpt lat="39.9876810" lon="-4.7348540">
        <ele>378.6</ele>
        <time>2020-10-04T06:33:28Z</time>
      </trkpt>
      <trkpt lat="39.9876480" lon="-4.7349180">
        <ele>378.6</ele>
        <time>2020-10-04T06:33:29Z</time>
      </trkpt>
      <trkpt lat="39.9875370" lon="-4.7351090">
        <ele>378.6</ele>
        <time>2020-10-04T06:33:32Z</time>
      </trkpt>
      <trkpt lat="39.9873170" lon="-4.7354360">
        <ele>378.6</ele>
        <time>2020-10-04T06:33:37Z</time>
      </trkpt>
      <trkpt lat="39.9869700" lon="-4.7359780">
        <ele>378.6</ele>
        <time>2020-10-04T06:33:45Z</time>
      </trkpt>
      <trkpt lat="39.9866430" lon="-4.7366240">
        <ele>378.6</ele>
        <time>2020-10-04T06:33:54Z</time>
      </trkpt>
      <trkpt lat="39.9866040" lon="-4.7367040">
        <ele>378.6</ele>
        <time>2020-10-04T06:33:55Z</time>
      </trkpt>
      <trkpt lat="39.9863520" lon="-4.7372320">
        <ele>378.6</ele>
        <time>2020-10-04T06:34:02Z</time>
      </trkpt>
      <trkpt lat="39.9860820" lon="-4.7377340">
        <ele>378.6</ele>
        <time>2020-10-04T06:34:09Z</time>
      </trkpt>
      <trkpt lat="39.9858890" lon="-4.7380800">
        <ele>378.2</ele>
        <time>2020-10-04T06:34:14Z</time>
      </trkpt>
      <trkpt lat="39.9858570" lon="-4.7381700">
        <ele>377.8</ele>
        <time>2020-10-04T06:34:15Z</time>
      </trkpt>
      <trkpt lat="39.9857120" lon="-4.7384680">
        <ele>377.4</ele>
        <time>2020-10-04T06:34:19Z</time>
      </trkpt>
      <trkpt lat="39.9856760" lon="-4.7385450">
        <ele>377.0</ele>
        <time>2020-10-04T06:34:20Z</time>
      </trkpt>
      <trkpt lat="39.9856380" lon="-4.7386210">
        <ele>376.6</ele>
        <time>2020-10-04T06:34:21Z</time>
      </trkpt>
      <trkpt lat="39.9853820" lon="-4.7391270">
        <ele>376.6</ele>
        <time>2020-10-04T06:34:28Z</time>
      </trkpt>
      <trkpt lat="39.9850750" lon="-4.7396860">
        <ele>376.6</ele>
        <time>2020-10-04T06:34:36Z</time>
      </trkpt>
      <trkpt lat="39.9850420" lon="-4.7397590">
        <ele>376.6</ele>
        <time>2020-10-04T06:34:37Z</time>
      </trkpt>
      <trkpt lat="39.9848260" lon="-4.7401540">
        <ele>376.6</ele>
        <time>2020-10-04T06:34:43Z</time>
      </trkpt>
      <trkpt lat="39.9847750" lon="-4.7402610">
        <ele>376.6</ele>
        <time>2020-10-04T06:34:48Z</time>
      </trkpt>
      <trkpt lat="39.9847230" lon="-4.7403670">
        <ele>376.6</ele>
        <time>2020-10-04T06:34:50Z</time>
      </trkpt>
      <trkpt lat="39.9844140" lon="-4.7410050">
        <ele>376.6</ele>
        <time>2020-10-04T06:34:56Z</time>
      </trkpt>
      <trkpt lat="39.9842060" lon="-4.7414530">
        <ele>376.6</ele>
        <time>2020-10-04T06:35:03Z</time>
      </trkpt>
      <trkpt lat="39.9839940" lon="-4.7420110">
        <ele>376.6</ele>
        <time>2020-10-04T06:35:11Z</time>
      </trkpt>
      <trkpt lat="39.9839780" lon="-4.7420870">
        <ele>376.6</ele>
        <time>2020-10-04T06:35:12Z</time>
      </trkpt>
      <trkpt lat="39.9838960" lon="-4.7424450">
        <ele>376.6</ele>
        <time>2020-10-04T06:35:17Z</time>
      </trkpt>
      <trkpt lat="39.9837790" lon="-4.7428740">
        <ele>376.6</ele>
        <time>2020-10-04T06:35:23Z</time>
      </trkpt>
      <trkpt lat="39.9837520" lon="-4.7429370">
        <ele>376.6</ele>
        <time>2020-10-04T06:35:24Z</time>
      </trkpt>
      <trkpt lat="39.9836730" lon="-4.7431430">
        <ele>376.2</ele>
        <time>2020-10-04T06:35:27Z</time>
      </trkpt>
      <trkpt lat="39.9836460" lon="-4.7432050">
        <ele>375.8</ele>
        <time>2020-10-04T06:35:28Z</time>
      </trkpt>
      <trkpt lat="39.9836260" lon="-4.7432710">
        <ele>375.4</ele>
        <time>2020-10-04T06:35:29Z</time>
      </trkpt>
      <trkpt lat="39.9836050" lon="-4.7433400">
        <ele>375.0</ele>
        <time>2020-10-04T06:35:30Z</time>
      </trkpt>
      <trkpt lat="39.9835890" lon="-4.7434080">
        <ele>374.6</ele>
        <time>2020-10-04T06:35:31Z</time>
      </trkpt>
      <trkpt lat="39.9835010" lon="-4.7438330">
        <ele>374.6</ele>
        <time>2020-10-04T06:35:37Z</time>
      </trkpt>
      <trkpt lat="39.9833880" lon="-4.7443660">
        <ele>374.6</ele>
        <time>2020-10-04T06:35:44Z</time>
      </trkpt>
      <trkpt lat="39.9832140" lon="-4.7450930">
        <ele>374.6</ele>
        <time>2020-10-04T06:35:53Z</time>
      </trkpt>
      <trkpt lat="39.9831930" lon="-4.7451850">
        <ele>374.6</ele>
        <time>2020-10-04T06:35:54Z</time>
      </trkpt>
      <trkpt lat="39.9830430" lon="-4.7456490">
        <ele>374.6</ele>
        <time>2020-10-04T06:36:00Z</time>
      </trkpt>
      <trkpt lat="39.9829450" lon="-4.7457640">
        <ele>374.6</ele>
        <time>2020-10-04T06:36:02Z</time>
      </trkpt>
      <trkpt lat="39.9827690" lon="-4.7461900">
        <ele>374.6</ele>
        <time>2020-10-04T06:36:08Z</time>
      </trkpt>
      <trkpt lat="39.9827070" lon="-4.7464280">
        <ele>374.6</ele>
        <time>2020-10-04T06:36:11Z</time>
      </trkpt>
      <trkpt lat="39.9826430" lon="-4.7465700">
        <ele>374.6</ele>
        <time>2020-10-04T06:36:13Z</time>
      </trkpt>
      <trkpt lat="39.9825430" lon="-4.7467860">
        <ele>374.6</ele>
        <time>2020-10-04T06:36:16Z</time>
      </trkpt>
      <trkpt lat="39.9824470" lon="-4.7468980">
        <ele>374.6</ele>
        <time>2020-10-04T06:36:18Z</time>
      </trkpt>
      <trkpt lat="39.9822120" lon="-4.7474680">
        <ele>374.6</ele>
        <time>2020-10-04T06:36:26Z</time>
      </trkpt>
      <trkpt lat="39.9820630" lon="-4.7479210">
        <ele>374.0</ele>
        <time>2020-10-04T06:36:32Z</time>
      </trkpt>
      <trkpt lat="39.9820310" lon="-4.7479940">
        <ele>373.6</ele>
        <time>2020-10-04T06:36:33Z</time>
      </trkpt>
      <trkpt lat="39.9819960" lon="-4.7480600">
        <ele>373.2</ele>
        <time>2020-10-04T06:36:34Z</time>
      </trkpt>
      <trkpt lat="39.9819420" lon="-4.7481290">
        <ele>372.8</ele>
        <time>2020-10-04T06:36:35Z</time>
      </trkpt>
      <trkpt lat="39.9818980" lon="-4.7481910">
        <ele>372.4</ele>
        <time>2020-10-04T06:36:36Z</time>
      </trkpt>
      <trkpt lat="39.9816990" lon="-4.7484450">
        <ele>371.8</ele>
        <time>2020-10-04T06:36:41Z</time>
      </trkpt>
      <trkpt lat="39.9816640" lon="-4.7484840">
        <ele>371.4</ele>
        <time>2020-10-04T06:36:42Z</time>
      </trkpt>
      <trkpt lat="39.9816340" lon="-4.7485200">
        <ele>371.0</ele>
        <time>2020-10-04T06:36:43Z</time>
      </trkpt>
      <trkpt lat="39.9816100" lon="-4.7485450">
        <ele>370.4</ele>
        <time>2020-10-04T06:36:44Z</time>
      </trkpt>
      <trkpt lat="39.9815920" lon="-4.7485580">
        <ele>370.4</ele>
        <time>2020-10-04T06:36:45Z</time>
      </trkpt>
      <trkpt lat="39.9815840" lon="-4.7485590">
        <ele>370.0</ele>
        <time>2020-10-04T06:36:46Z</time>
      </trkpt>
      <trkpt lat="39.9815840" lon="-4.7485590">
        <ele>370.0</ele>
        <time>2020-10-04T06:36:47Z</time>
      </trkpt>
      <trkpt lat="39.9814940" lon="-4.7487710">
        <ele>370.0</ele>
        <time>2020-10-04T06:37:06Z</time>
      </trkpt>
      <trkpt lat="39.9814880" lon="-4.7487900">
        <ele>370.0</ele>
        <time>2020-10-04T06:37:07Z</time>
      </trkpt>
      <trkpt lat="39.9815040" lon="-4.7489280">
        <ele>370.0</ele>
        <time>2020-10-04T06:37:13Z</time>
      </trkpt>
      <trkpt lat="39.9814130" lon="-4.7489200">
        <ele>370.0</ele>
        <time>2020-10-04T06:37:19Z</time>
      </trkpt>
      <trkpt lat="39.9813960" lon="-4.7489640">
        <ele>368.0</ele>
        <time>2020-10-04T06:37:26Z</time>
      </trkpt>
      <trkpt lat="39.9813150" lon="-4.7491090">
        <ele>368.0</ele>
        <time>2020-10-04T06:37:30Z</time>
      </trkpt>
      <trkpt lat="39.9812380" lon="-4.7492380">
        <ele>368.0</ele>
        <time>2020-10-04T06:37:33Z</time>
      </trkpt>
      <trkpt lat="39.9811720" lon="-4.7493790">
        <ele>368.4</ele>
        <time>2020-10-04T06:37:37Z</time>
      </trkpt>
      <trkpt lat="39.9811670" lon="-4.7493970">
        <ele>368.8</ele>
        <time>2020-10-04T06:37:38Z</time>
      </trkpt>
      <trkpt lat="39.9811630" lon="-4.7494030">
        <ele>369.2</ele>
        <time>2020-10-04T06:37:39Z</time>
      </trkpt>
      <trkpt lat="39.9811640" lon="-4.7493950">
        <ele>369.6</ele>
        <time>2020-10-04T06:37:40Z</time>
      </trkpt>
      <trkpt lat="39.9811650" lon="-4.7493920">
        <ele>370.0</ele>
        <time>2020-10-04T06:38:21Z</time>
      </trkpt>
      <trkpt lat="39.9811600" lon="-4.7494070">
        <ele>370.0</ele>
        <time>2020-10-04T06:38:22Z</time>
      </trkpt>
      <trkpt lat="39.9811230" lon="-4.7495040">
        <ele>370.0</ele>
        <time>2020-10-04T06:38:26Z</time>
      </trkpt>
      <trkpt lat="39.9811070" lon="-4.7495490">
        <ele>370.0</ele>
        <time>2020-10-04T06:38:28Z</time>
      </trkpt>
      <trkpt lat="39.9810130" lon="-4.7497210">
        <ele>370.0</ele>
        <time>2020-10-04T06:38:33Z</time>
      </trkpt>
      <trkpt lat="39.9809980" lon="-4.7497530">
        <ele>370.4</ele>
        <time>2020-10-04T06:38:34Z</time>
      </trkpt>
      <trkpt lat="39.9809690" lon="-4.7498250">
        <ele>371.2</ele>
        <time>2020-10-04T06:38:36Z</time>
      </trkpt>
      <trkpt lat="39.9809230" lon="-4.7499010">
        <ele>371.6</ele>
        <time>2020-10-04T06:38:38Z</time>
      </trkpt>
      <trkpt lat="39.9809020" lon="-4.7499390">
        <ele>372.0</ele>
        <time>2020-10-04T06:38:39Z</time>
      </trkpt>
      <trkpt lat="39.9808820" lon="-4.7499910">
        <ele>372.0</ele>
        <time>2020-10-04T06:38:40Z</time>
      </trkpt>
      <trkpt lat="39.9808680" lon="-4.7500670">
        <ele>372.0</ele>
        <time>2020-10-04T06:38:41Z</time>
      </trkpt>
      <trkpt lat="39.9808260" lon="-4.7502580">
        <ele>372.0</ele>
        <time>2020-10-04T06:38:44Z</time>
      </trkpt>
      <trkpt lat="39.9808180" lon="-4.7503370">
        <ele>372.0</ele>
        <time>2020-10-04T06:38:45Z</time>
      </trkpt>
      <trkpt lat="39.9807660" lon="-4.7504630">
        <ele>372.0</ele>
        <time>2020-10-04T06:38:47Z</time>
      </trkpt>
      <trkpt lat="39.9805210" lon="-4.7509730">
        <ele>372.0</ele>
        <time>2020-10-04T06:38:55Z</time>
      </trkpt>
      <trkpt lat="39.9801890" lon="-4.7515650">
        <ele>372.0</ele>
        <time>2020-10-04T06:39:04Z</time>
      </trkpt>
      <trkpt lat="39.9801500" lon="-4.7516380">
        <ele>372.0</ele>
        <time>2020-10-04T06:39:05Z</time>
      </trkpt>
      <trkpt lat="39.9799780" lon="-4.7519840">
        <ele>372.0</ele>
        <time>2020-10-04T06:39:10Z</time>
      </trkpt>
      <trkpt lat="39.9799540" lon="-4.7520540">
        <ele>372.0</ele>
        <time>2020-10-04T06:39:11Z</time>
      </trkpt>
      <trkpt lat="39.9798560" lon="-4.7522550">
        <ele>372.0</ele>
        <time>2020-10-04T06:39:14Z</time>
      </trkpt>
      <trkpt lat="39.9797370" lon="-4.7524480">
        <ele>372.0</ele>
        <time>2020-10-04T06:39:17Z</time>
      </trkpt>
      <trkpt lat="39.9794280" lon="-4.7529920">
        <ele>372.0</ele>
        <time>2020-10-04T06:39:25Z</time>
      </trkpt>
      <trkpt lat="39.9790760" lon="-4.7535370">
        <ele>372.0</ele>
        <time>2020-10-04T06:39:33Z</time>
      </trkpt>
      <trkpt lat="39.9789940" lon="-4.7536730">
        <ele>372.0</ele>
        <time>2020-10-04T06:39:35Z</time>
      </trkpt>
      <trkpt lat="39.9788250" lon="-4.7539510">
        <ele>372.0</ele>
        <time>2020-10-04T06:39:39Z</time>
      </trkpt>
      <trkpt lat="39.9784170" lon="-4.7545530">
        <ele>372.0</ele>
        <time>2020-10-04T06:39:48Z</time>
      </trkpt>
      <trkpt lat="39.9782710" lon="-4.7547680">
        <ele>372.0</ele>
        <time>2020-10-04T06:39:51Z</time>
      </trkpt>
      <trkpt lat="39.9779660" lon="-4.7551730">
        <ele>372.0</ele>
        <time>2020-10-04T06:39:57Z</time>
      </trkpt>
      <trkpt lat="39.9778580" lon="-4.7553020">
        <ele>372.0</ele>
        <time>2020-10-04T06:39:59Z</time>
      </trkpt>
      <trkpt lat="39.9776950" lon="-4.7556210">
        <ele>372.0</ele>
        <time>2020-10-04T06:40:03Z</time>
      </trkpt>
      <trkpt lat="39.9775130" lon="-4.7558900">
        <ele>371.6</ele>
        <time>2020-10-04T06:40:07Z</time>
      </trkpt>
      <trkpt lat="39.9774650" lon="-4.7559760">
        <ele>371.2</ele>
        <time>2020-10-04T06:40:08Z</time>
      </trkpt>
      <trkpt lat="39.9774240" lon="-4.7560450">
        <ele>370.8</ele>
        <time>2020-10-04T06:40:09Z</time>
      </trkpt>
      <trkpt lat="39.9773760" lon="-4.7561110">
        <ele>370.2</ele>
        <time>2020-10-04T06:40:10Z</time>
      </trkpt>
      <trkpt lat="39.9773150" lon="-4.7561830">
        <ele>369.8</ele>
        <time>2020-10-04T06:40:11Z</time>
      </trkpt>
      <trkpt lat="39.9771940" lon="-4.7564030">
        <ele>369.8</ele>
        <time>2020-10-04T06:40:14Z</time>
      </trkpt>
      <trkpt lat="39.9770690" lon="-4.7567010">
        <ele>369.8</ele>
        <time>2020-10-04T06:40:18Z</time>
      </trkpt>
      <trkpt lat="39.9769770" lon="-4.7568490">
        <ele>369.8</ele>
        <time>2020-10-04T06:40:20Z</time>
      </trkpt>
      <trkpt lat="39.9768530" lon="-4.7570660">
        <ele>369.8</ele>
        <time>2020-10-04T06:40:23Z</time>
      </trkpt>
      <trkpt lat="39.9767050" lon="-4.7572590">
        <ele>369.8</ele>
        <time>2020-10-04T06:40:26Z</time>
      </trkpt>
      <trkpt lat="39.9766590" lon="-4.7573240">
        <ele>369.8</ele>
        <time>2020-10-04T06:40:27Z</time>
      </trkpt>
      <trkpt lat="39.9764850" lon="-4.7575870">
        <ele>369.8</ele>
        <time>2020-10-04T06:40:31Z</time>
      </trkpt>
      <trkpt lat="39.9764320" lon="-4.7576350">
        <ele>369.8</ele>
        <time>2020-10-04T06:40:32Z</time>
      </trkpt>
      <trkpt lat="39.9763060" lon="-4.7577130">
        <ele>369.8</ele>
        <time>2020-10-04T06:40:34Z</time>
      </trkpt>
      <trkpt lat="39.9761850" lon="-4.7577670">
        <ele>369.8</ele>
        <time>2020-10-04T06:40:36Z</time>
      </trkpt>
      <trkpt lat="39.9759990" lon="-4.7578180">
        <ele>369.8</ele>
        <time>2020-10-04T06:40:39Z</time>
      </trkpt>
      <trkpt lat="39.9755640" lon="-4.7579500">
        <ele>369.8</ele>
        <time>2020-10-04T06:40:46Z</time>
      </trkpt>
      <trkpt lat="39.9752010" lon="-4.7581490">
        <ele>369.8</ele>
        <time>2020-10-04T06:40:52Z</time>
      </trkpt>
      <trkpt lat="39.9749250" lon="-4.7583490">
        <ele>369.8</ele>
        <time>2020-10-04T06:40:57Z</time>
      </trkpt>
      <trkpt lat="39.9748650" lon="-4.7583910">
        <ele>369.8</ele>
        <time>2020-10-04T06:40:58Z</time>
      </trkpt>
      <trkpt lat="39.9747440" lon="-4.7584540">
        <ele>369.8</ele>
        <time>2020-10-04T06:41:00Z</time>
      </trkpt>
      <trkpt lat="39.9745560" lon="-4.7585190">
        <ele>369.8</ele>
        <time>2020-10-04T06:41:03Z</time>
      </trkpt>
      <trkpt lat="39.9744930" lon="-4.7585660">
        <ele>369.8</ele>
        <time>2020-10-04T06:41:04Z</time>
      </trkpt>
      <trkpt lat="39.9744350" lon="-4.7586090">
        <ele>369.4</ele>
        <time>2020-10-04T06:41:05Z</time>
      </trkpt>
      <trkpt lat="39.9743830" lon="-4.7586490">
        <ele>369.0</ele>
        <time>2020-10-04T06:41:06Z</time>
      </trkpt>
      <trkpt lat="39.9743090" lon="-4.7586750">
        <ele>368.6</ele>
        <time>2020-10-04T06:41:07Z</time>
      </trkpt>
      <trkpt lat="39.9742430" lon="-4.7586970">
        <ele>368.2</ele>
        <time>2020-10-04T06:41:08Z</time>
      </trkpt>
      <trkpt lat="39.9741830" lon="-4.7587140">
        <ele>367.8</ele>
        <time>2020-10-04T06:41:09Z</time>
      </trkpt>
      <trkpt lat="39.9739470" lon="-4.7588510">
        <ele>367.8</ele>
        <time>2020-10-04T06:41:13Z</time>
      </trkpt>
      <trkpt lat="39.9735120" lon="-4.7590630">
        <ele>367.8</ele>
        <time>2020-10-04T06:41:20Z</time>
      </trkpt>
      <trkpt lat="39.9732660" lon="-4.7592120">
        <ele>367.8</ele>
        <time>2020-10-04T06:41:24Z</time>
      </trkpt>
      <trkpt lat="39.9731610" lon="-4.7592980">
        <ele>367.8</ele>
        <time>2020-10-04T06:41:26Z</time>
      </trkpt>
      <trkpt lat="39.9727260" lon="-4.7594180">
        <ele>367.8</ele>
        <time>2020-10-04T06:41:33Z</time>
      </trkpt>
      <trkpt lat="39.9724920" lon="-4.7593900">
        <ele>367.8</ele>
        <time>2020-10-04T06:41:37Z</time>
      </trkpt>
      <trkpt lat="39.9721580" lon="-4.7591740">
        <ele>367.8</ele>
        <time>2020-10-04T06:41:44Z</time>
      </trkpt>
      <trkpt lat="39.9718120" lon="-4.7591330">
        <ele>367.8</ele>
        <time>2020-10-04T06:41:52Z</time>
      </trkpt>
      <trkpt lat="39.9716850" lon="-4.7592410">
        <ele>367.8</ele>
        <time>2020-10-04T06:41:57Z</time>
      </trkpt>
      <trkpt lat="39.9716290" lon="-4.7593610">
        <ele>368.2</ele>
        <time>2020-10-04T06:42:00Z</time>
      </trkpt>
      <trkpt lat="39.9716280" lon="-4.7594240">
        <ele>368.6</ele>
        <time>2020-10-04T06:42:01Z</time>
      </trkpt>
      <trkpt lat="39.9716280" lon="-4.7594880">
        <ele>369.0</ele>
        <time>2020-10-04T06:42:02Z</time>
      </trkpt>
      <trkpt lat="39.9716250" lon="-4.7595530">
        <ele>369.4</ele>
        <time>2020-10-04T06:42:03Z</time>
      </trkpt>
      <trkpt lat="39.9716150" lon="-4.7596880">
        <ele>369.8</ele>
        <time>2020-10-04T06:42:05Z</time>
      </trkpt>
      <trkpt lat="39.9716110" lon="-4.7598290">
        <ele>369.8</ele>
        <time>2020-10-04T06:42:07Z</time>
      </trkpt>
      <trkpt lat="39.9716250" lon="-4.7602110">
        <ele>369.8</ele>
        <time>2020-10-04T06:42:12Z</time>
      </trkpt>
      <trkpt lat="39.9716720" lon="-4.7606780">
        <ele>369.8</ele>
        <time>2020-10-04T06:42:18Z</time>
      </trkpt>
      <trkpt lat="39.9717640" lon="-4.7612190">
        <ele>370.2</ele>
        <time>2020-10-04T06:42:25Z</time>
      </trkpt>
      <trkpt lat="39.9717780" lon="-4.7612940">
        <ele>370.6</ele>
        <time>2020-10-04T06:42:26Z</time>
      </trkpt>
      <trkpt lat="39.9717920" lon="-4.7613720">
        <ele>371.0</ele>
        <time>2020-10-04T06:42:27Z</time>
      </trkpt>
      <trkpt lat="39.9718080" lon="-4.7614500">
        <ele>371.6</ele>
        <time>2020-10-04T06:42:28Z</time>
      </trkpt>
      <trkpt lat="39.9718250" lon="-4.7615300">
        <ele>372.0</ele>
        <time>2020-10-04T06:42:29Z</time>
      </trkpt>
      <trkpt lat="39.9719040" lon="-4.7619360">
        <ele>372.0</ele>
        <time>2020-10-04T06:42:34Z</time>
      </trkpt>
      <trkpt lat="39.9720370" lon="-4.7626630">
        <ele>372.0</ele>
        <time>2020-10-04T06:42:43Z</time>
      </trkpt>
      <trkpt lat="39.9721300" lon="-4.7631390">
        <ele>372.0</ele>
        <time>2020-10-04T06:42:49Z</time>
      </trkpt>
      <trkpt lat="39.9722660" lon="-4.7638600">
        <ele>372.0</ele>
        <time>2020-10-04T06:42:58Z</time>
      </trkpt>
      <trkpt lat="39.9723290" lon="-4.7641800">
        <ele>372.0</ele>
        <time>2020-10-04T06:43:02Z</time>
      </trkpt>
      <trkpt lat="39.9724610" lon="-4.7649100">
        <ele>372.0</ele>
        <time>2020-10-04T06:43:11Z</time>
      </trkpt>
      <trkpt lat="39.9724950" lon="-4.7652490">
        <ele>372.0</ele>
        <time>2020-10-04T06:43:15Z</time>
      </trkpt>
      <trkpt lat="39.9724840" lon="-4.7657650">
        <ele>372.0</ele>
        <time>2020-10-04T06:43:21Z</time>
      </trkpt>
      <trkpt lat="39.9724150" lon="-4.7661900">
        <ele>372.0</ele>
        <time>2020-10-04T06:43:26Z</time>
      </trkpt>
      <trkpt lat="39.9722820" lon="-4.7666870">
        <ele>372.0</ele>
        <time>2020-10-04T06:43:32Z</time>
      </trkpt>
      <trkpt lat="39.9722550" lon="-4.7667690">
        <ele>372.0</ele>
        <time>2020-10-04T06:43:33Z</time>
      </trkpt>
      <trkpt lat="39.9720190" lon="-4.7674410">
        <ele>372.0</ele>
        <time>2020-10-04T06:43:41Z</time>
      </trkpt>
      <trkpt lat="39.9718500" lon="-4.7679250">
        <ele>371.6</ele>
        <time>2020-10-04T06:43:47Z</time>
      </trkpt>
      <trkpt lat="39.9718220" lon="-4.7680080">
        <ele>371.2</ele>
        <time>2020-10-04T06:43:48Z</time>
      </trkpt>
      <trkpt lat="39.9717900" lon="-4.7681050">
        <ele>370.8</ele>
        <time>2020-10-04T06:43:49Z</time>
      </trkpt>
      <trkpt lat="39.9717640" lon="-4.7681870">
        <ele>370.4</ele>
        <time>2020-10-04T06:43:50Z</time>
      </trkpt>
      <trkpt lat="39.9717400" lon="-4.7682590">
        <ele>370.0</ele>
        <time>2020-10-04T06:43:51Z</time>
      </trkpt>
      <trkpt lat="39.9715210" lon="-4.7689240">
        <ele>370.0</ele>
        <time>2020-10-04T06:43:59Z</time>
      </trkpt>
      <trkpt lat="39.9714940" lon="-4.7690020">
        <ele>370.0</ele>
        <time>2020-10-04T06:44:00Z</time>
      </trkpt>
      <trkpt lat="39.9712590" lon="-4.7696500">
        <ele>370.0</ele>
        <time>2020-10-04T06:44:08Z</time>
      </trkpt>
      <trkpt lat="39.9712000" lon="-4.7698160">
        <ele>370.0</ele>
        <time>2020-10-04T06:44:10Z</time>
      </trkpt>
      <trkpt lat="39.9711340" lon="-4.7700100">
        <ele>370.0</ele>
        <time>2020-10-04T06:44:13Z</time>
      </trkpt>
      <trkpt lat="39.9711270" lon="-4.7700920">
        <ele>370.0</ele>
        <time>2020-10-04T06:44:15Z</time>
      </trkpt>
      <trkpt lat="39.9710420" lon="-4.7701080">
        <ele>370.0</ele>
        <time>2020-10-04T06:44:19Z</time>
      </trkpt>
      <trkpt lat="39.9710010" lon="-4.7700930">
        <ele>370.0</ele>
        <time>2020-10-04T06:44:20Z</time>
      </trkpt>
      <trkpt lat="39.9708740" lon="-4.7700230">
        <ele>370.0</ele>
        <time>2020-10-04T06:44:23Z</time>
      </trkpt>
      <trkpt lat="39.9708360" lon="-4.7700250">
        <ele>369.4</ele>
        <time>2020-10-04T06:44:24Z</time>
      </trkpt>
      <trkpt lat="39.9708040" lon="-4.7700550">
        <ele>369.0</ele>
        <time>2020-10-04T06:44:25Z</time>
      </trkpt>
      <trkpt lat="39.9707940" lon="-4.7701440">
        <ele>368.4</ele>
        <time>2020-10-04T06:44:26Z</time>
      </trkpt>
      <trkpt lat="39.9707520" lon="-4.7701730">
        <ele>368.0</ele>
        <time>2020-10-04T06:44:27Z</time>
      </trkpt>
      <trkpt lat="39.9707320" lon="-4.7702400">
        <ele>367.6</ele>
        <time>2020-10-04T06:44:28Z</time>
      </trkpt>
      <trkpt lat="39.9707090" lon="-4.7704140">
        <ele>367.6</ele>
        <time>2020-10-04T06:44:30Z</time>
      </trkpt>
      <trkpt lat="39.9706600" lon="-4.7705530">
        <ele>367.6</ele>
        <time>2020-10-04T06:44:32Z</time>
      </trkpt>
      <trkpt lat="39.9706210" lon="-4.7706020">
        <ele>367.6</ele>
        <time>2020-10-04T06:44:33Z</time>
      </trkpt>
      <trkpt lat="39.9704950" lon="-4.7710440">
        <ele>367.6</ele>
        <time>2020-10-04T06:44:39Z</time>
      </trkpt>
      <trkpt lat="39.9703800" lon="-4.7713970">
        <ele>367.6</ele>
        <time>2020-10-04T06:44:44Z</time>
      </trkpt>
      <trkpt lat="39.9703110" lon="-4.7716190">
        <ele>367.6</ele>
        <time>2020-10-04T06:44:47Z</time>
      </trkpt>
      <trkpt lat="39.9700840" lon="-4.7723000">
        <ele>367.6</ele>
        <time>2020-10-04T06:44:56Z</time>
      </trkpt>
      <trkpt lat="39.9698530" lon="-4.7729690">
        <ele>367.6</ele>
        <time>2020-10-04T06:45:05Z</time>
      </trkpt>
      <trkpt lat="39.9697760" lon="-4.7732000">
        <ele>367.6</ele>
        <time>2020-10-04T06:45:08Z</time>
      </trkpt>
      <trkpt lat="39.9695410" lon="-4.7738840">
        <ele>367.6</ele>
        <time>2020-10-04T06:45:17Z</time>
      </trkpt>
      <trkpt lat="39.9695170" lon="-4.7739600">
        <ele>367.6</ele>
        <time>2020-10-04T06:45:18Z</time>
      </trkpt>
      <trkpt lat="39.9692910" lon="-4.7746430">
        <ele>367.6</ele>
        <time>2020-10-04T06:45:27Z</time>
      </trkpt>
      <trkpt lat="39.9692360" lon="-4.7747930">
        <ele>367.6</ele>
        <time>2020-10-04T06:45:29Z</time>
      </trkpt>
      <trkpt lat="39.9690340" lon="-4.7755030">
        <ele>367.6</ele>
        <time>2020-10-04T06:45:38Z</time>
      </trkpt>
      <trkpt lat="39.9689110" lon="-4.7761030">
        <ele>367.6</ele>
        <time>2020-10-04T06:45:46Z</time>
      </trkpt>
      <trkpt lat="39.9688170" lon="-4.7764850">
        <ele>367.6</ele>
        <time>2020-10-04T06:45:52Z</time>
      </trkpt>
      <trkpt lat="39.9687750" lon="-4.7766480">
        <ele>367.6</ele>
        <time>2020-10-04T06:45:55Z</time>
      </trkpt>
      <trkpt lat="39.9687350" lon="-4.7767520">
        <ele>368.0</ele>
        <time>2020-10-04T06:45:57Z</time>
      </trkpt>
      <trkpt lat="39.9687240" lon="-4.7768040">
        <ele>368.4</ele>
        <time>2020-10-04T06:45:58Z</time>
      </trkpt>
      <trkpt lat="39.9686960" lon="-4.7768530">
        <ele>369.0</ele>
        <time>2020-10-04T06:45:59Z</time>
      </trkpt>
      <trkpt lat="39.9686710" lon="-4.7768970">
        <ele>369.4</ele>
        <time>2020-10-04T06:46:00Z</time>
      </trkpt>
      <trkpt lat="39.9686560" lon="-4.7769450">
        <ele>369.8</ele>
        <time>2020-10-04T06:46:01Z</time>
      </trkpt>
      <trkpt lat="39.9686280" lon="-4.7769910">
        <ele>369.8</ele>
        <time>2020-10-04T06:46:02Z</time>
      </trkpt>
      <trkpt lat="39.9685100" lon="-4.7773370">
        <ele>369.8</ele>
        <time>2020-10-04T06:46:06Z</time>
      </trkpt>
      <trkpt lat="39.9684870" lon="-4.7774390">
        <ele>369.4</ele>
        <time>2020-10-04T06:46:07Z</time>
      </trkpt>
      <trkpt lat="39.9684640" lon="-4.7775370">
        <ele>369.0</ele>
        <time>2020-10-04T06:46:08Z</time>
      </trkpt>
      <trkpt lat="39.9684420" lon="-4.7776350">
        <ele>368.6</ele>
        <time>2020-10-04T06:46:09Z</time>
      </trkpt>
      <trkpt lat="39.9684230" lon="-4.7777310">
        <ele>368.2</ele>
        <time>2020-10-04T06:46:10Z</time>
      </trkpt>
      <trkpt lat="39.9684050" lon="-4.7778240">
        <ele>367.8</ele>
        <time>2020-10-04T06:46:11Z</time>
      </trkpt>
      <trkpt lat="39.9683760" lon="-4.7780010">
        <ele>367.8</ele>
        <time>2020-10-04T06:46:13Z</time>
      </trkpt>
      <trkpt lat="39.9683210" lon="-4.7784070">
        <ele>367.8</ele>
        <time>2020-10-04T06:46:18Z</time>
      </trkpt>
      <trkpt lat="39.9681840" lon="-4.7788840">
        <ele>367.8</ele>
        <time>2020-10-04T06:46:24Z</time>
      </trkpt>
      <trkpt lat="39.9681560" lon="-4.7790400">
        <ele>367.8</ele>
        <time>2020-10-04T06:46:26Z</time>
      </trkpt>
      <trkpt lat="39.9681300" lon="-4.7792950">
        <ele>367.8</ele>
        <time>2020-10-04T06:46:29Z</time>
      </trkpt>
      <trkpt lat="39.9679950" lon="-4.7798380">
        <ele>367.8</ele>
        <time>2020-10-04T06:46:36Z</time>
      </trkpt>
      <trkpt lat="39.9678340" lon="-4.7804550">
        <ele>367.8</ele>
        <time>2020-10-04T06:46:44Z</time>
      </trkpt>
      <trkpt lat="39.9676600" lon="-4.7810880">
        <ele>367.8</ele>
        <time>2020-10-04T06:46:52Z</time>
      </trkpt>
      <trkpt lat="39.9676340" lon="-4.7812510">
        <ele>367.8</ele>
        <time>2020-10-04T06:46:54Z</time>
      </trkpt>
      <trkpt lat="39.9676170" lon="-4.7815010">
        <ele>367.8</ele>
        <time>2020-10-04T06:46:57Z</time>
      </trkpt>
      <trkpt lat="39.9675760" lon="-4.7817470">
        <ele>367.8</ele>
        <time>2020-10-04T06:47:00Z</time>
      </trkpt>
      <trkpt lat="39.9675190" lon="-4.7819000">
        <ele>367.8</ele>
        <time>2020-10-04T06:47:02Z</time>
      </trkpt>
      <trkpt lat="39.9674920" lon="-4.7819780">
        <ele>367.8</ele>
        <time>2020-10-04T06:47:03Z</time>
      </trkpt>
      <trkpt lat="39.9672950" lon="-4.7825780">
        <ele>367.8</ele>
        <time>2020-10-04T06:47:10Z</time>
      </trkpt>
      <trkpt lat="39.9670810" lon="-4.7830780">
        <ele>367.8</ele>
        <time>2020-10-04T06:47:17Z</time>
      </trkpt>
      <trkpt lat="39.9668730" lon="-4.7837590">
        <ele>367.8</ele>
        <time>2020-10-04T06:47:26Z</time>
      </trkpt>
      <trkpt lat="39.9668560" lon="-4.7838380">
        <ele>367.8</ele>
        <time>2020-10-04T06:47:27Z</time>
      </trkpt>
      <trkpt lat="39.9667240" lon="-4.7845760">
        <ele>367.8</ele>
        <time>2020-10-04T06:47:36Z</time>
      </trkpt>
      <trkpt lat="39.9666060" lon="-4.7852510">
        <ele>368.2</ele>
        <time>2020-10-04T06:47:44Z</time>
      </trkpt>
      <trkpt lat="39.9666050" lon="-4.7853350">
        <ele>368.6</ele>
        <time>2020-10-04T06:47:45Z</time>
      </trkpt>
      <trkpt lat="39.9666090" lon="-4.7854260">
        <ele>369.0</ele>
        <time>2020-10-04T06:47:46Z</time>
      </trkpt>
      <trkpt lat="39.9666090" lon="-4.7855090">
        <ele>369.4</ele>
        <time>2020-10-04T06:47:47Z</time>
      </trkpt>
      <trkpt lat="39.9666020" lon="-4.7855940">
        <ele>369.8</ele>
        <time>2020-10-04T06:47:48Z</time>
      </trkpt>
      <trkpt lat="39.9665570" lon="-4.7857530">
        <ele>369.8</ele>
        <time>2020-10-04T06:47:50Z</time>
      </trkpt>
      <trkpt lat="39.9664270" lon="-4.7863240">
        <ele>369.8</ele>
        <time>2020-10-04T06:47:57Z</time>
      </trkpt>
      <trkpt lat="39.9662960" lon="-4.7870530">
        <ele>369.8</ele>
        <time>2020-10-04T06:48:06Z</time>
      </trkpt>
      <trkpt lat="39.9662270" lon="-4.7873700">
        <ele>369.8</ele>
        <time>2020-10-04T06:48:10Z</time>
      </trkpt>
      <trkpt lat="39.9660590" lon="-4.7880850">
        <ele>369.8</ele>
        <time>2020-10-04T06:48:19Z</time>
      </trkpt>
      <trkpt lat="39.9660410" lon="-4.7881660">
        <ele>369.8</ele>
        <time>2020-10-04T06:48:20Z</time>
      </trkpt>
      <trkpt lat="39.9658700" lon="-4.7888700">
        <ele>369.8</ele>
        <time>2020-10-04T06:48:29Z</time>
      </trkpt>
      <trkpt lat="39.9658330" lon="-4.7890310">
        <ele>369.8</ele>
        <time>2020-10-04T06:48:31Z</time>
      </trkpt>
      <trkpt lat="39.9656860" lon="-4.7896590">
        <ele>369.8</ele>
        <time>2020-10-04T06:48:39Z</time>
      </trkpt>
      <trkpt lat="39.9655030" lon="-4.7903500">
        <ele>369.8</ele>
        <time>2020-10-04T06:48:48Z</time>
      </trkpt>
      <trkpt lat="39.9654050" lon="-4.7907380">
        <ele>369.8</ele>
        <time>2020-10-04T06:48:53Z</time>
      </trkpt>
      <trkpt lat="39.9652650" lon="-4.7913870">
        <ele>369.8</ele>
        <time>2020-10-04T06:49:02Z</time>
      </trkpt>
      <trkpt lat="39.9652030" lon="-4.7920330">
        <ele>369.8</ele>
        <time>2020-10-04T06:49:11Z</time>
      </trkpt>
      <trkpt lat="39.9651170" lon="-4.7927090">
        <ele>369.8</ele>
        <time>2020-10-04T06:49:20Z</time>
      </trkpt>
      <trkpt lat="39.9650270" lon="-4.7934720">
        <ele>369.8</ele>
        <time>2020-10-04T06:49:30Z</time>
      </trkpt>
      <trkpt lat="39.9649340" lon="-4.7941730">
        <ele>369.8</ele>
        <time>2020-10-04T06:49:39Z</time>
      </trkpt>
      <trkpt lat="39.9648890" lon="-4.7944800">
        <ele>369.8</ele>
        <time>2020-10-04T06:49:43Z</time>
      </trkpt>
      <trkpt lat="39.9647820" lon="-4.7951640">
        <ele>369.8</ele>
        <time>2020-10-04T06:49:52Z</time>
      </trkpt>
      <trkpt lat="39.9647520" lon="-4.7952340">
        <ele>369.8</ele>
        <time>2020-10-04T06:49:53Z</time>
      </trkpt>
      <trkpt lat="39.9646890" lon="-4.7953600">
        <ele>369.8</ele>
        <time>2020-10-04T06:49:55Z</time>
      </trkpt>
      <trkpt lat="39.9646530" lon="-4.7954220">
        <ele>369.8</ele>
        <time>2020-10-04T06:49:56Z</time>
      </trkpt>
      <trkpt lat="39.9645850" lon="-4.7957990">
        <ele>369.8</ele>
        <time>2020-10-04T06:50:02Z</time>
      </trkpt>
      <trkpt lat="39.9646610" lon="-4.7960770">
        <ele>369.8</ele>
        <time>2020-10-04T06:50:06Z</time>
      </trkpt>
      <trkpt lat="39.9646610" lon="-4.7961510">
        <ele>369.8</ele>
        <time>2020-10-04T06:50:07Z</time>
      </trkpt>
      <trkpt lat="39.9646340" lon="-4.7963710">
        <ele>369.8</ele>
        <time>2020-10-04T06:50:10Z</time>
      </trkpt>
      <trkpt lat="39.9646150" lon="-4.7965200">
        <ele>369.8</ele>
        <time>2020-10-04T06:50:12Z</time>
      </trkpt>
      <trkpt lat="39.9646230" lon="-4.7966680">
        <ele>369.8</ele>
        <time>2020-10-04T06:50:14Z</time>
      </trkpt>
      <trkpt lat="39.9646530" lon="-4.7968920">
        <ele>369.8</ele>
        <time>2020-10-04T06:50:17Z</time>
      </trkpt>
      <trkpt lat="39.9646510" lon="-4.7969570">
        <ele>369.8</ele>
        <time>2020-10-04T06:50:18Z</time>
      </trkpt>
      <trkpt lat="39.9646150" lon="-4.7971670">
        <ele>369.8</ele>
        <time>2020-10-04T06:50:21Z</time>
      </trkpt>
      <trkpt lat="39.9645980" lon="-4.7972340">
        <ele>369.8</ele>
        <time>2020-10-04T06:50:22Z</time>
      </trkpt>
      <trkpt lat="39.9645850" lon="-4.7973730">
        <ele>369.8</ele>
        <time>2020-10-04T06:50:24Z</time>
      </trkpt>
      <trkpt lat="39.9646120" lon="-4.7975090">
        <ele>369.8</ele>
        <time>2020-10-04T06:50:26Z</time>
      </trkpt>
      <trkpt lat="39.9645740" lon="-4.7980570">
        <ele>369.8</ele>
        <time>2020-10-04T06:50:34Z</time>
      </trkpt>
      <trkpt lat="39.9644890" lon="-4.7986080">
        <ele>369.8</ele>
        <time>2020-10-04T06:50:42Z</time>
      </trkpt>
      <trkpt lat="39.9644550" lon="-4.7988860">
        <ele>369.8</ele>
        <time>2020-10-04T06:50:46Z</time>
      </trkpt>
      <trkpt lat="39.9643720" lon="-4.7995060">
        <ele>369.8</ele>
        <time>2020-10-04T06:50:55Z</time>
      </trkpt>
      <trkpt lat="39.9643600" lon="-4.7997140">
        <ele>369.8</ele>
        <time>2020-10-04T06:50:58Z</time>
      </trkpt>
      <trkpt lat="39.9643520" lon="-4.7999210">
        <ele>369.8</ele>
        <time>2020-10-04T06:51:01Z</time>
      </trkpt>
      <trkpt lat="39.9642510" lon="-4.8003760">
        <ele>369.8</ele>
        <time>2020-10-04T06:51:08Z</time>
      </trkpt>
      <trkpt lat="39.9641650" lon="-4.8009720">
        <ele>369.8</ele>
        <time>2020-10-04T06:51:17Z</time>
      </trkpt>
      <trkpt lat="39.9641290" lon="-4.8014580">
        <ele>369.8</ele>
        <time>2020-10-04T06:51:24Z</time>
      </trkpt>
      <trkpt lat="39.9641260" lon="-4.8015300">
        <ele>369.8</ele>
        <time>2020-10-04T06:51:25Z</time>
      </trkpt>
      <trkpt lat="39.9640350" lon="-4.8018600">
        <ele>369.8</ele>
        <time>2020-10-04T06:51:30Z</time>
      </trkpt>
      <trkpt lat="39.9640260" lon="-4.8019290">
        <ele>369.8</ele>
        <time>2020-10-04T06:51:31Z</time>
      </trkpt>
      <trkpt lat="39.9639270" lon="-4.8026390">
        <ele>369.8</ele>
        <time>2020-10-04T06:51:41Z</time>
      </trkpt>
      <trkpt lat="39.9638990" lon="-4.8028530">
        <ele>369.8</ele>
        <time>2020-10-04T06:51:44Z</time>
      </trkpt>
      <trkpt lat="39.9638210" lon="-4.8034980">
        <ele>369.8</ele>
        <time>2020-10-04T06:51:53Z</time>
      </trkpt>
      <trkpt lat="39.9637230" lon="-4.8042150">
        <ele>369.8</ele>
        <time>2020-10-04T06:52:03Z</time>
      </trkpt>
      <trkpt lat="39.9637060" lon="-4.8042840">
        <ele>369.8</ele>
        <time>2020-10-04T06:52:04Z</time>
      </trkpt>
      <trkpt lat="39.9636300" lon="-4.8044910">
        <ele>369.8</ele>
        <time>2020-10-04T06:52:07Z</time>
      </trkpt>
      <trkpt lat="39.9635360" lon="-4.8045730">
        <ele>369.8</ele>
        <time>2020-10-04T06:52:09Z</time>
      </trkpt>
      <trkpt lat="39.9633890" lon="-4.8046950">
        <ele>369.8</ele>
        <time>2020-10-04T06:52:12Z</time>
      </trkpt>
      <trkpt lat="39.9633570" lon="-4.8047390">
        <ele>369.8</ele>
        <time>2020-10-04T06:52:13Z</time>
      </trkpt>
      <trkpt lat="39.9633370" lon="-4.8047850">
        <ele>369.8</ele>
        <time>2020-10-04T06:52:14Z</time>
      </trkpt>
      <trkpt lat="39.9633770" lon="-4.8047990">
        <ele>369.8</ele>
        <time>2020-10-04T06:52:16Z</time>
      </trkpt>
      <trkpt lat="39.9634120" lon="-4.8047940">
        <ele>369.8</ele>
        <time>2020-10-04T06:52:17Z</time>
      </trkpt>
      <trkpt lat="39.9634510" lon="-4.8047900">
        <ele>369.4</ele>
        <time>2020-10-04T06:52:18Z</time>
      </trkpt>
      <trkpt lat="39.9634960" lon="-4.8047790">
        <ele>369.0</ele>
        <time>2020-10-04T06:52:19Z</time>
      </trkpt>
      <trkpt lat="39.9635490" lon="-4.8047460">
        <ele>368.6</ele>
        <time>2020-10-04T06:52:20Z</time>
      </trkpt>
      <trkpt lat="39.9635950" lon="-4.8047060">
        <ele>368.2</ele>
        <time>2020-10-04T06:52:21Z</time>
      </trkpt>
      <trkpt lat="39.9636430" lon="-4.8046650">
        <ele>367.8</ele>
        <time>2020-10-04T06:52:22Z</time>
      </trkpt>
      <trkpt lat="39.9637870" lon="-4.8046060">
        <ele>367.8</ele>
        <time>2020-10-04T06:52:25Z</time>
      </trkpt>
      <trkpt lat="39.9638410" lon="-4.8046460">
        <ele>367.8</ele>
        <time>2020-10-04T06:52:26Z</time>
      </trkpt>
      <trkpt lat="39.9638880" lon="-4.8046810">
        <ele>367.8</ele>
        <time>2020-10-04T06:52:27Z</time>
      </trkpt>
      <trkpt lat="39.9640240" lon="-4.8049070">
        <ele>367.8</ele>
        <time>2020-10-04T06:52:31Z</time>
      </trkpt>
      <trkpt lat="39.9640130" lon="-4.8051230">
        <ele>367.8</ele>
        <time>2020-10-04T06:52:34Z</time>
      </trkpt>
      <trkpt lat="39.9638360" lon="-4.8054110">
        <ele>367.8</ele>
        <time>2020-10-04T06:52:39Z</time>
      </trkpt>
      <trkpt lat="39.9637710" lon="-4.8055360">
        <ele>367.8</ele>
        <time>2020-10-04T06:52:41Z</time>
      </trkpt>
      <trkpt lat="39.9637340" lon="-4.8056870">
        <ele>367.8</ele>
        <time>2020-10-04T06:52:43Z</time>
      </trkpt>
      <trkpt lat="39.9637150" lon="-4.8058430">
        <ele>367.8</ele>
        <time>2020-10-04T06:52:45Z</time>
      </trkpt>
      <trkpt lat="39.9636830" lon="-4.8062370">
        <ele>367.8</ele>
        <time>2020-10-04T06:52:50Z</time>
      </trkpt>
      <trkpt lat="39.9636400" lon="-4.8067940">
        <ele>367.8</ele>
        <time>2020-10-04T06:52:57Z</time>
      </trkpt>
      <trkpt lat="39.9635950" lon="-4.8074180">
        <ele>367.8</ele>
        <time>2020-10-04T06:53:05Z</time>
      </trkpt>
      <trkpt lat="39.9635710" lon="-4.8077320">
        <ele>367.8</ele>
        <time>2020-10-04T06:53:09Z</time>
      </trkpt>
      <trkpt lat="39.9635170" lon="-4.8084470">
        <ele>367.8</ele>
        <time>2020-10-04T06:53:18Z</time>
      </trkpt>
      <trkpt lat="39.9635100" lon="-4.8085300">
        <ele>367.8</ele>
        <time>2020-10-04T06:53:19Z</time>
      </trkpt>
      <trkpt lat="39.9634710" lon="-4.8092510">
        <ele>367.8</ele>
        <time>2020-10-04T06:53:28Z</time>
      </trkpt>
      <trkpt lat="39.9634320" lon="-4.8097390">
        <ele>367.8</ele>
        <time>2020-10-04T06:53:34Z</time>
      </trkpt>
      <trkpt lat="39.9633390" lon="-4.8104650">
        <ele>367.8</ele>
        <time>2020-10-04T06:53:43Z</time>
      </trkpt>
      <trkpt lat="39.9633140" lon="-4.8106250">
        <ele>367.8</ele>
        <time>2020-10-04T06:53:45Z</time>
      </trkpt>
      <trkpt lat="39.9632890" lon="-4.8108170">
        <ele>367.8</ele>
        <time>2020-10-04T06:53:51Z</time>
      </trkpt>
      <trkpt lat="39.9632630" lon="-4.8110090">
        <ele>367.8</ele>
        <time>2020-10-04T06:53:53Z</time>
      </trkpt>
      <trkpt lat="39.9632110" lon="-4.8113920">
        <ele>367.8</ele>
        <time>2020-10-04T06:53:55Z</time>
      </trkpt>
      <trkpt lat="39.9630800" lon="-4.8115860">
        <ele>367.8</ele>
        <time>2020-10-04T06:53:59Z</time>
      </trkpt>
      <trkpt lat="39.9629150" lon="-4.8115310">
        <ele>367.8</ele>
        <time>2020-10-04T06:54:02Z</time>
      </trkpt>
      <trkpt lat="39.9628050" lon="-4.8114720">
        <ele>367.8</ele>
        <time>2020-10-04T06:54:04Z</time>
      </trkpt>
      <trkpt lat="39.9625900" lon="-4.8113810">
        <ele>367.8</ele>
        <time>2020-10-04T06:54:08Z</time>
      </trkpt>
      <trkpt lat="39.9620760" lon="-4.8112550">
        <ele>367.8</ele>
        <time>2020-10-04T06:54:18Z</time>
      </trkpt>
      <trkpt lat="39.9619600" lon="-4.8112820">
        <ele>367.8</ele>
        <time>2020-10-04T06:54:21Z</time>
      </trkpt>
      <trkpt lat="39.9619220" lon="-4.8113850">
        <ele>367.8</ele>
        <time>2020-10-04T06:54:23Z</time>
      </trkpt>
      <trkpt lat="39.9619100" lon="-4.8114450">
        <ele>367.8</ele>
        <time>2020-10-04T06:54:24Z</time>
      </trkpt>
      <trkpt lat="39.9618680" lon="-4.8117320">
        <ele>367.8</ele>
        <time>2020-10-04T06:54:29Z</time>
      </trkpt>
      <trkpt lat="39.9618480" lon="-4.8118820">
        <ele>367.8</ele>
        <time>2020-10-04T06:54:32Z</time>
      </trkpt>
      <trkpt lat="39.9618390" lon="-4.8119710">
        <ele>367.8</ele>
        <time>2020-10-04T06:54:34Z</time>
      </trkpt>
      <trkpt lat="39.9618360" lon="-4.8120010">
        <ele>367.8</ele>
        <time>2020-10-04T06:54:35Z</time>
      </trkpt>
      <trkpt lat="39.9618160" lon="-4.8120530">
        <ele>367.8</ele>
        <time>2020-10-04T06:54:40Z</time>
      </trkpt>
      <trkpt lat="39.9618480" lon="-4.8120020">
        <ele>367.8</ele>
        <time>2020-10-04T07:01:12Z</time>
      </trkpt>
      <trkpt lat="39.9618540" lon="-4.8119880">
        <ele>367.8</ele>
        <time>2020-10-04T07:01:13Z</time>
      </trkpt>
      <trkpt lat="39.9618670" lon="-4.8119500">
        <ele>367.8</ele>
        <time>2020-10-04T07:01:15Z</time>
      </trkpt>
      <trkpt lat="39.9619050" lon="-4.8117710">
        <ele>367.8</ele>
        <time>2020-10-04T07:01:21Z</time>
      </trkpt>
      <trkpt lat="39.9619170" lon="-4.8117050">
        <ele>367.8</ele>
        <time>2020-10-04T07:01:23Z</time>
      </trkpt>
      <trkpt lat="39.9619640" lon="-4.8114850">
        <ele>367.8</ele>
        <time>2020-10-04T07:01:30Z</time>
      </trkpt>
      <trkpt lat="39.9619700" lon="-4.8114260">
        <ele>367.8</ele>
        <time>2020-10-04T07:01:32Z</time>
      </trkpt>
      <trkpt lat="39.9619860" lon="-4.8112950">
        <ele>367.8</ele>
        <time>2020-10-04T07:01:37Z</time>
      </trkpt>
      <trkpt lat="39.9620020" lon="-4.8112230">
        <ele>367.8</ele>
        <time>2020-10-04T07:01:41Z</time>
      </trkpt>
      <trkpt lat="39.9620570" lon="-4.8111530">
        <ele>367.8</ele>
        <time>2020-10-04T07:01:45Z</time>
      </trkpt>
      <trkpt lat="39.9620880" lon="-4.8111220">
        <ele>367.8</ele>
        <time>2020-10-04T07:01:47Z</time>
      </trkpt>
      <trkpt lat="39.9621550" lon="-4.8111040">
        <ele>367.8</ele>
        <time>2020-10-04T07:01:50Z</time>
      </trkpt>
      <trkpt lat="39.9621790" lon="-4.8111150">
        <ele>367.8</ele>
        <time>2020-10-04T07:01:51Z</time>
      </trkpt>
      <trkpt lat="39.9622030" lon="-4.8111210">
        <ele>367.8</ele>
        <time>2020-10-04T07:01:52Z</time>
      </trkpt>
      <trkpt lat="39.9624300" lon="-4.8112070">
        <ele>367.8</ele>
        <time>2020-10-04T07:02:01Z</time>
      </trkpt>
      <trkpt lat="39.9626280" lon="-4.8112150">
        <ele>367.8</ele>
        <time>2020-10-04T07:02:08Z</time>
      </trkpt>
      <trkpt lat="39.9626790" lon="-4.8112240">
        <ele>367.8</ele>
        <time>2020-10-04T07:02:10Z</time>
      </trkpt>
      <trkpt lat="39.9627320" lon="-4.8112340">
        <ele>367.8</ele>
        <time>2020-10-04T07:02:12Z</time>
      </trkpt>
      <trkpt lat="39.9627790" lon="-4.8112430">
        <ele>367.8</ele>
        <time>2020-10-04T07:02:14Z</time>
      </trkpt>
      <trkpt lat="39.9628040" lon="-4.8112520">
        <ele>367.8</ele>
        <time>2020-10-04T07:02:16Z</time>
      </trkpt>
      <trkpt lat="39.9628040" lon="-4.8112520">
        <ele>367.8</ele>
        <time>2020-10-04T07:02:22Z</time>
      </trkpt>
      <trkpt lat="39.9628660" lon="-4.8112330">
        <ele>367.8</ele>
        <time>2020-10-04T07:02:24Z</time>
      </trkpt>
      <trkpt lat="39.9628710" lon="-4.8112360">
        <ele>367.8</ele>
        <time>2020-10-04T07:04:36Z</time>
      </trkpt>
      <trkpt lat="39.9629390" lon="-4.8112570">
        <ele>367.8</ele>
        <time>2020-10-04T07:04:40Z</time>
      </trkpt>
      <trkpt lat="39.9630130" lon="-4.8112720">
        <ele>367.8</ele>
        <time>2020-10-04T07:04:46Z</time>
      </trkpt>
      <trkpt lat="39.9630650" lon="-4.8112730">
        <ele>367.8</ele>
        <time>2020-10-04T07:04:48Z</time>
      </trkpt>
      <trkpt lat="39.9631220" lon="-4.8112840">
        <ele>367.8</ele>
        <time>2020-10-04T07:04:50Z</time>
      </trkpt>
      <trkpt lat="39.9631890" lon="-4.8113170">
        <ele>367.8</ele>
        <time>2020-10-04T07:04:52Z</time>
      </trkpt>
      <trkpt lat="39.9632920" lon="-4.8113880">
        <ele>367.8</ele>
        <time>2020-10-04T07:04:55Z</time>
      </trkpt>
      <trkpt lat="39.9634060" lon="-4.8114490">
        <ele>367.8</ele>
        <time>2020-10-04T07:04:58Z</time>
      </trkpt>
      <trkpt lat="39.9634820" lon="-4.8114810">
        <ele>367.8</ele>
        <time>2020-10-04T07:05:00Z</time>
      </trkpt>
      <trkpt lat="39.9637760" lon="-4.8116230">
        <ele>367.8</ele>
        <time>2020-10-04T07:05:08Z</time>
      </trkpt>
      <trkpt lat="39.9638480" lon="-4.8117350">
        <ele>368.2</ele>
        <time>2020-10-04T07:05:11Z</time>
      </trkpt>
      <trkpt lat="39.9638690" lon="-4.8117750">
        <ele>368.6</ele>
        <time>2020-10-04T07:05:12Z</time>
      </trkpt>
      <trkpt lat="39.9638980" lon="-4.8118120">
        <ele>369.0</ele>
        <time>2020-10-04T07:05:13Z</time>
      </trkpt>
      <trkpt lat="39.9639280" lon="-4.8118480">
        <ele>369.4</ele>
        <time>2020-10-04T07:05:14Z</time>
      </trkpt>
      <trkpt lat="39.9639590" lon="-4.8118840">
        <ele>369.8</ele>
        <time>2020-10-04T07:05:15Z</time>
      </trkpt>
      <trkpt lat="39.9641500" lon="-4.8121350">
        <ele>369.8</ele>
        <time>2020-10-04T07:05:22Z</time>
      </trkpt>
      <trkpt lat="39.9643210" lon="-4.8123230">
        <ele>369.8</ele>
        <time>2020-10-04T07:05:28Z</time>
      </trkpt>
      <trkpt lat="39.9644930" lon="-4.8125550">
        <ele>369.8</ele>
        <time>2020-10-04T07:05:34Z</time>
      </trkpt>
      <trkpt lat="39.9646470" lon="-4.8126750">
        <ele>370.2</ele>
        <time>2020-10-04T07:05:38Z</time>
      </trkpt>
      <trkpt lat="39.9646900" lon="-4.8127060">
        <ele>370.6</ele>
        <time>2020-10-04T07:05:39Z</time>
      </trkpt>
      <trkpt lat="39.9647500" lon="-4.8127210">
        <ele>371.0</ele>
        <time>2020-10-04T07:05:40Z</time>
      </trkpt>
      <trkpt lat="39.9648130" lon="-4.8127450">
        <ele>371.6</ele>
        <time>2020-10-04T07:05:41Z</time>
      </trkpt>
      <trkpt lat="39.9648610" lon="-4.8127710">
        <ele>372.0</ele>
        <time>2020-10-04T07:05:42Z</time>
      </trkpt>
      <trkpt lat="39.9650730" lon="-4.8129050">
        <ele>372.0</ele>
        <time>2020-10-04T07:05:47Z</time>
      </trkpt>
      <trkpt lat="39.9651560" lon="-4.8129630">
        <ele>372.0</ele>
        <time>2020-10-04T07:05:49Z</time>
      </trkpt>
      <trkpt lat="39.9652840" lon="-4.8130480">
        <ele>372.0</ele>
        <time>2020-10-04T07:05:52Z</time>
      </trkpt>
      <trkpt lat="39.9655190" lon="-4.8133320">
        <ele>372.0</ele>
        <time>2020-10-04T07:05:59Z</time>
      </trkpt>
      <trkpt lat="39.9657730" lon="-4.8135780">
        <ele>372.0</ele>
        <time>2020-10-04T07:06:07Z</time>
      </trkpt>
      <trkpt lat="39.9660180" lon="-4.8138340">
        <ele>372.0</ele>
        <time>2020-10-04T07:06:15Z</time>
      </trkpt>
      <trkpt lat="39.9663200" lon="-4.8141000">
        <ele>372.0</ele>
        <time>2020-10-04T07:06:24Z</time>
      </trkpt>
      <trkpt lat="39.9665800" lon="-4.8143900">
        <ele>372.0</ele>
        <time>2020-10-04T07:06:32Z</time>
      </trkpt>
      <trkpt lat="39.9667760" lon="-4.8145730">
        <ele>372.0</ele>
        <time>2020-10-04T07:06:38Z</time>
      </trkpt>
      <trkpt lat="39.9668500" lon="-4.8146680">
        <ele>372.0</ele>
        <time>2020-10-04T07:06:40Z</time>
      </trkpt>
      <trkpt lat="39.9669740" lon="-4.8147870">
        <ele>372.0</ele>
        <time>2020-10-04T07:06:43Z</time>
      </trkpt>
      <trkpt lat="39.9670770" lon="-4.8149120">
        <ele>372.0</ele>
        <time>2020-10-04T07:06:47Z</time>
      </trkpt>
      <trkpt lat="39.9671340" lon="-4.8149850">
        <ele>372.0</ele>
        <time>2020-10-04T07:06:49Z</time>
      </trkpt>
      <trkpt lat="39.9672810" lon="-4.8151520">
        <ele>372.0</ele>
        <time>2020-10-04T07:06:54Z</time>
      </trkpt>
      <trkpt lat="39.9673820" lon="-4.8152520">
        <ele>372.0</ele>
        <time>2020-10-04T07:06:57Z</time>
      </trkpt>
      <trkpt lat="39.9674180" lon="-4.8152820">
        <ele>372.0</ele>
        <time>2020-10-04T07:06:58Z</time>
      </trkpt>
      <trkpt lat="39.9675810" lon="-4.8154510">
        <ele>372.0</ele>
        <time>2020-10-04T07:07:03Z</time>
      </trkpt>
      <trkpt lat="39.9678210" lon="-4.8157020">
        <ele>372.0</ele>
        <time>2020-10-04T07:07:09Z</time>
      </trkpt>
      <trkpt lat="39.9678550" lon="-4.8157290">
        <ele>372.0</ele>
        <time>2020-10-04T07:07:10Z</time>
      </trkpt>
      <trkpt lat="39.9679820" lon="-4.8158520">
        <ele>372.0</ele>
        <time>2020-10-04T07:07:14Z</time>
      </trkpt>
      <trkpt lat="39.9681350" lon="-4.8160210">
        <ele>372.0</ele>
        <time>2020-10-04T07:07:18Z</time>
      </trkpt>
      <trkpt lat="39.9683920" lon="-4.8163130">
        <ele>372.0</ele>
        <time>2020-10-04T07:07:24Z</time>
      </trkpt>
      <trkpt lat="39.9686190" lon="-4.8165390">
        <ele>372.0</ele>
        <time>2020-10-04T07:07:29Z</time>
      </trkpt>
      <trkpt lat="39.9689500" lon="-4.8168990">
        <ele>372.0</ele>
        <time>2020-10-04T07:07:38Z</time>
      </trkpt>
      <trkpt lat="39.9690220" lon="-4.8169790">
        <ele>372.0</ele>
        <time>2020-10-04T07:07:40Z</time>
      </trkpt>
      <trkpt lat="39.9692060" lon="-4.8171170">
        <ele>372.0</ele>
        <time>2020-10-04T07:07:44Z</time>
      </trkpt>
      <trkpt lat="39.9693050" lon="-4.8172050">
        <ele>372.0</ele>
        <time>2020-10-04T07:07:46Z</time>
      </trkpt>
      <trkpt lat="39.9693790" lon="-4.8173140">
        <ele>372.0</ele>
        <time>2020-10-04T07:07:48Z</time>
      </trkpt>
      <trkpt lat="39.9695850" lon="-4.8175260">
        <ele>372.0</ele>
        <time>2020-10-04T07:07:53Z</time>
      </trkpt>
      <trkpt lat="39.9697420" lon="-4.8176780">
        <ele>372.0</ele>
        <time>2020-10-04T07:07:57Z</time>
      </trkpt>
      <trkpt lat="39.9699930" lon="-4.8178880">
        <ele>372.0</ele>
        <time>2020-10-04T07:08:03Z</time>
      </trkpt>
      <trkpt lat="39.9700770" lon="-4.8179580">
        <ele>372.0</ele>
        <time>2020-10-04T07:08:05Z</time>
      </trkpt>
      <trkpt lat="39.9703230" lon="-4.8181820">
        <ele>372.0</ele>
        <time>2020-10-04T07:08:11Z</time>
      </trkpt>
      <trkpt lat="39.9705570" lon="-4.8184250">
        <ele>372.0</ele>
        <time>2020-10-04T07:08:17Z</time>
      </trkpt>
      <trkpt lat="39.9708020" lon="-4.8186550">
        <ele>372.0</ele>
        <time>2020-10-04T07:08:23Z</time>
      </trkpt>
      <trkpt lat="39.9709400" lon="-4.8187970">
        <ele>372.0</ele>
        <time>2020-10-04T07:08:27Z</time>
      </trkpt>
      <trkpt lat="39.9709770" lon="-4.8188290">
        <ele>372.0</ele>
        <time>2020-10-04T07:08:28Z</time>
      </trkpt>
      <trkpt lat="39.9711230" lon="-4.8188180">
        <ele>372.0</ele>
        <time>2020-10-04T07:08:31Z</time>
      </trkpt>
      <trkpt lat="39.9711650" lon="-4.8188370">
        <ele>372.0</ele>
        <time>2020-10-04T07:08:32Z</time>
      </trkpt>
      <trkpt lat="39.9713060" lon="-4.8189520">
        <ele>372.0</ele>
        <time>2020-10-04T07:08:36Z</time>
      </trkpt>
      <trkpt lat="39.9712880" lon="-4.8191180">
        <ele>372.0</ele>
        <time>2020-10-04T07:08:39Z</time>
      </trkpt>
      <trkpt lat="39.9711960" lon="-4.8193620">
        <ele>372.0</ele>
        <time>2020-10-04T07:08:43Z</time>
      </trkpt>
      <trkpt lat="39.9711040" lon="-4.8196380">
        <ele>372.0</ele>
        <time>2020-10-04T07:08:47Z</time>
      </trkpt>
      <trkpt lat="39.9710810" lon="-4.8197090">
        <ele>372.0</ele>
        <time>2020-10-04T07:08:48Z</time>
      </trkpt>
      <trkpt lat="39.9710570" lon="-4.8197770">
        <ele>372.0</ele>
        <time>2020-10-04T07:08:49Z</time>
      </trkpt>
      <trkpt lat="39.9709440" lon="-4.8201700">
        <ele>372.0</ele>
        <time>2020-10-04T07:08:55Z</time>
      </trkpt>
      <trkpt lat="39.9708830" lon="-4.8203730">
        <ele>372.0</ele>
        <time>2020-10-04T07:08:58Z</time>
      </trkpt>
      <trkpt lat="39.9707920" lon="-4.8207440">
        <ele>372.0</ele>
        <time>2020-10-04T07:09:04Z</time>
      </trkpt>
      <trkpt lat="39.9705990" lon="-4.8214440">
        <ele>372.0</ele>
        <time>2020-10-04T07:09:15Z</time>
      </trkpt>
      <trkpt lat="39.9705510" lon="-4.8216330">
        <ele>372.0</ele>
        <time>2020-10-04T07:09:18Z</time>
      </trkpt>
      <trkpt lat="39.9704420" lon="-4.8221170">
        <ele>372.0</ele>
        <time>2020-10-04T07:09:26Z</time>
      </trkpt>
      <trkpt lat="39.9704090" lon="-4.8222360">
        <ele>372.0</ele>
        <time>2020-10-04T07:09:28Z</time>
      </trkpt>
      <trkpt lat="39.9702690" lon="-4.8226560">
        <ele>372.0</ele>
        <time>2020-10-04T07:09:35Z</time>
      </trkpt>
      <trkpt lat="39.9702010" lon="-4.8228880">
        <ele>372.0</ele>
        <time>2020-10-04T07:09:39Z</time>
      </trkpt>
      <trkpt lat="39.9700950" lon="-4.8233180">
        <ele>372.0</ele>
        <time>2020-10-04T07:09:46Z</time>
      </trkpt>
      <trkpt lat="39.9700220" lon="-4.8235780">
        <ele>372.0</ele>
        <time>2020-10-04T07:09:50Z</time>
      </trkpt>
      <trkpt lat="39.9699720" lon="-4.8238140">
        <ele>372.0</ele>
        <time>2020-10-04T07:09:54Z</time>
      </trkpt>
      <trkpt lat="39.9699130" lon="-4.8241480">
        <ele>372.0</ele>
        <time>2020-10-04T07:10:00Z</time>
      </trkpt>
      <trkpt lat="39.9698770" lon="-4.8242680">
        <ele>372.0</ele>
        <time>2020-10-04T07:10:02Z</time>
      </trkpt>
      <trkpt lat="39.9698300" lon="-4.8244440">
        <ele>372.0</ele>
        <time>2020-10-04T07:10:05Z</time>
      </trkpt>
      <trkpt lat="39.9697340" lon="-4.8249570">
        <ele>372.0</ele>
        <time>2020-10-04T07:10:13Z</time>
      </trkpt>
      <trkpt lat="39.9695810" lon="-4.8254990">
        <ele>372.0</ele>
        <time>2020-10-04T07:10:21Z</time>
      </trkpt>
      <trkpt lat="39.9694920" lon="-4.8256610">
        <ele>372.0</ele>
        <time>2020-10-04T07:10:24Z</time>
      </trkpt>
      <trkpt lat="39.9694830" lon="-4.8258020">
        <ele>372.0</ele>
        <time>2020-10-04T07:10:27Z</time>
      </trkpt>
      <trkpt lat="39.9694730" lon="-4.8259800">
        <ele>372.0</ele>
        <time>2020-10-04T07:10:30Z</time>
      </trkpt>
      <trkpt lat="39.9694230" lon="-4.8260810">
        <ele>372.0</ele>
        <time>2020-10-04T07:10:32Z</time>
      </trkpt>
      <trkpt lat="39.9693610" lon="-4.8261730">
        <ele>372.0</ele>
        <time>2020-10-04T07:10:34Z</time>
      </trkpt>
      <trkpt lat="39.9693090" lon="-4.8262750">
        <ele>372.0</ele>
        <time>2020-10-04T07:10:36Z</time>
      </trkpt>
      <trkpt lat="39.9692900" lon="-4.8263410">
        <ele>372.0</ele>
        <time>2020-10-04T07:10:37Z</time>
      </trkpt>
      <trkpt lat="39.9692390" lon="-4.8266040">
        <ele>372.0</ele>
        <time>2020-10-04T07:10:41Z</time>
      </trkpt>
      <trkpt lat="39.9692250" lon="-4.8266620">
        <ele>372.0</ele>
        <time>2020-10-04T07:10:42Z</time>
      </trkpt>
      <trkpt lat="39.9691340" lon="-4.8271160">
        <ele>372.0</ele>
        <time>2020-10-04T07:10:49Z</time>
      </trkpt>
      <trkpt lat="39.9691140" lon="-4.8271850">
        <ele>372.0</ele>
        <time>2020-10-04T07:10:50Z</time>
      </trkpt>
      <trkpt lat="39.9690080" lon="-4.8276920">
        <ele>372.0</ele>
        <time>2020-10-04T07:10:58Z</time>
      </trkpt>
      <trkpt lat="39.9688990" lon="-4.8282550">
        <ele>372.0</ele>
        <time>2020-10-04T07:11:07Z</time>
      </trkpt>
      <trkpt lat="39.9688750" lon="-4.8283950">
        <ele>372.0</ele>
        <time>2020-10-04T07:11:10Z</time>
      </trkpt>
      <trkpt lat="39.9688180" lon="-4.8285640">
        <ele>372.0</ele>
        <time>2020-10-04T07:11:14Z</time>
      </trkpt>
      <trkpt lat="39.9687800" lon="-4.8287400">
        <ele>372.0</ele>
        <time>2020-10-04T07:11:17Z</time>
      </trkpt>
      <trkpt lat="39.9687700" lon="-4.8288050">
        <ele>372.0</ele>
        <time>2020-10-04T07:11:18Z</time>
      </trkpt>
      <trkpt lat="39.9687270" lon="-4.8289960">
        <ele>372.0</ele>
        <time>2020-10-04T07:11:21Z</time>
      </trkpt>
      <trkpt lat="39.9687180" lon="-4.8290570">
        <ele>372.0</ele>
        <time>2020-10-04T07:11:22Z</time>
      </trkpt>
      <trkpt lat="39.9686790" lon="-4.8292310">
        <ele>372.0</ele>
        <time>2020-10-04T07:11:25Z</time>
      </trkpt>
      <trkpt lat="39.9685750" lon="-4.8296330">
        <ele>372.0</ele>
        <time>2020-10-04T07:11:32Z</time>
      </trkpt>
      <trkpt lat="39.9684730" lon="-4.8300430">
        <ele>372.0</ele>
        <time>2020-10-04T07:11:39Z</time>
      </trkpt>
      <trkpt lat="39.9684580" lon="-4.8301010">
        <ele>372.0</ele>
        <time>2020-10-04T07:11:40Z</time>
      </trkpt>
      <trkpt lat="39.9683990" lon="-4.8303250">
        <ele>372.0</ele>
        <time>2020-10-04T07:11:44Z</time>
      </trkpt>
      <trkpt lat="39.9683310" lon="-4.8305270">
        <ele>372.0</ele>
        <time>2020-10-04T07:11:48Z</time>
      </trkpt>
      <trkpt lat="39.9683240" lon="-4.8305800">
        <ele>372.0</ele>
        <time>2020-10-04T07:11:49Z</time>
      </trkpt>
      <trkpt lat="39.9683410" lon="-4.8306810">
        <ele>372.0</ele>
        <time>2020-10-04T07:11:51Z</time>
      </trkpt>
      <trkpt lat="39.9683800" lon="-4.8307440">
        <ele>372.0</ele>
        <time>2020-10-04T07:11:53Z</time>
      </trkpt>
      <trkpt lat="39.9684770" lon="-4.8307040">
        <ele>372.0</ele>
        <time>2020-10-04T07:11:56Z</time>
      </trkpt>
      <trkpt lat="39.9685150" lon="-4.8306860">
        <ele>372.0</ele>
        <time>2020-10-04T07:11:57Z</time>
      </trkpt>
      <trkpt lat="39.9685920" lon="-4.8306500">
        <ele>372.4</ele>
        <time>2020-10-04T07:11:59Z</time>
      </trkpt>
      <trkpt lat="39.9686330" lon="-4.8306340">
        <ele>372.8</ele>
        <time>2020-10-04T07:12:00Z</time>
      </trkpt>
      <trkpt lat="39.9686800" lon="-4.8306200">
        <ele>373.2</ele>
        <time>2020-10-04T07:12:01Z</time>
      </trkpt>
      <trkpt lat="39.9687210" lon="-4.8306000">
        <ele>373.6</ele>
        <time>2020-10-04T07:12:02Z</time>
      </trkpt>
      <trkpt lat="39.9687560" lon="-4.8305830">
        <ele>374.2</ele>
        <time>2020-10-04T07:12:03Z</time>
      </trkpt>
      <trkpt lat="39.9688390" lon="-4.8305540">
        <ele>374.2</ele>
        <time>2020-10-04T07:12:05Z</time>
      </trkpt>
      <trkpt lat="39.9689100" lon="-4.8305370">
        <ele>374.6</ele>
        <time>2020-10-04T07:12:07Z</time>
      </trkpt>
      <trkpt lat="39.9689560" lon="-4.8305260">
        <ele>375.0</ele>
        <time>2020-10-04T07:12:08Z</time>
      </trkpt>
      <trkpt lat="39.9689860" lon="-4.8305210">
        <ele>375.4</ele>
        <time>2020-10-04T07:12:09Z</time>
      </trkpt>
      <trkpt lat="39.9690160" lon="-4.8305140">
        <ele>376.0</ele>
        <time>2020-10-04T07:12:10Z</time>
      </trkpt>
      <trkpt lat="39.9690460" lon="-4.8305080">
        <ele>376.4</ele>
        <time>2020-10-04T07:12:11Z</time>
      </trkpt>
      <trkpt lat="39.9691140" lon="-4.8304980">
        <ele>376.4</ele>
        <time>2020-10-04T07:12:13Z</time>
      </trkpt>
      <trkpt lat="39.9692130" lon="-4.8304960">
        <ele>376.8</ele>
        <time>2020-10-04T07:12:16Z</time>
      </trkpt>
      <trkpt lat="39.9692450" lon="-4.8304920">
        <ele>377.2</ele>
        <time>2020-10-04T07:12:17Z</time>
      </trkpt>
      <trkpt lat="39.9692840" lon="-4.8304890">
        <ele>377.6</ele>
        <time>2020-10-04T07:12:18Z</time>
      </trkpt>
      <trkpt lat="39.9693210" lon="-4.8304820">
        <ele>378.0</ele>
        <time>2020-10-04T07:12:19Z</time>
      </trkpt>
      <trkpt lat="39.9693590" lon="-4.8304790">
        <ele>378.4</ele>
        <time>2020-10-04T07:12:20Z</time>
      </trkpt>
      <trkpt lat="39.9696900" lon="-4.8304240">
        <ele>378.4</ele>
        <time>2020-10-04T07:12:27Z</time>
      </trkpt>
      <trkpt lat="39.9701280" lon="-4.8303500">
        <ele>378.4</ele>
        <time>2020-10-04T07:12:36Z</time>
      </trkpt>
      <trkpt lat="39.9701890" lon="-4.8303350">
        <ele>378.4</ele>
        <time>2020-10-04T07:12:37Z</time>
      </trkpt>
      <trkpt lat="39.9704700" lon="-4.8302490">
        <ele>378.4</ele>
        <time>2020-10-04T07:12:41Z</time>
      </trkpt>
      <trkpt lat="39.9706190" lon="-4.8301870">
        <ele>378.4</ele>
        <time>2020-10-04T07:12:43Z</time>
      </trkpt>
      <trkpt lat="39.9707660" lon="-4.8301220">
        <ele>378.4</ele>
        <time>2020-10-04T07:12:45Z</time>
      </trkpt>
      <trkpt lat="39.9708430" lon="-4.8301260">
        <ele>378.0</ele>
        <time>2020-10-04T07:12:46Z</time>
      </trkpt>
      <trkpt lat="39.9709040" lon="-4.8301680">
        <ele>377.4</ele>
        <time>2020-10-04T07:12:47Z</time>
      </trkpt>
      <trkpt lat="39.9709500" lon="-4.8302500">
        <ele>377.0</ele>
        <time>2020-10-04T07:12:48Z</time>
      </trkpt>
      <trkpt lat="39.9709770" lon="-4.8303390">
        <ele>376.6</ele>
        <time>2020-10-04T07:12:49Z</time>
      </trkpt>
      <trkpt lat="39.9709980" lon="-4.8304320">
        <ele>376.0</ele>
        <time>2020-10-04T07:12:50Z</time>
      </trkpt>
      <trkpt lat="39.9710410" lon="-4.8305970">
        <ele>376.0</ele>
        <time>2020-10-04T07:12:52Z</time>
      </trkpt>
      <trkpt lat="39.9711170" lon="-4.8307470">
        <ele>376.0</ele>
        <time>2020-10-04T07:12:54Z</time>
      </trkpt>
      <trkpt lat="39.9712450" lon="-4.8309370">
        <ele>376.0</ele>
        <time>2020-10-04T07:12:57Z</time>
      </trkpt>
      <trkpt lat="39.9714600" lon="-4.8312290">
        <ele>376.0</ele>
        <time>2020-10-04T07:13:02Z</time>
      </trkpt>
      <trkpt lat="39.9717450" lon="-4.8315980">
        <ele>376.0</ele>
        <time>2020-10-04T07:13:09Z</time>
      </trkpt>
      <trkpt lat="39.9718260" lon="-4.8317040">
        <ele>376.0</ele>
        <time>2020-10-04T07:13:11Z</time>
      </trkpt>
      <trkpt lat="39.9721870" lon="-4.8321680">
        <ele>375.6</ele>
        <time>2020-10-04T07:13:20Z</time>
      </trkpt>
      <trkpt lat="39.9722270" lon="-4.8322200">
        <ele>375.2</ele>
        <time>2020-10-04T07:13:21Z</time>
      </trkpt>
      <trkpt lat="39.9722660" lon="-4.8322750">
        <ele>374.8</ele>
        <time>2020-10-04T07:13:22Z</time>
      </trkpt>
      <trkpt lat="39.9723050" lon="-4.8323290">
        <ele>374.4</ele>
        <time>2020-10-04T07:13:23Z</time>
      </trkpt>
      <trkpt lat="39.9723460" lon="-4.8323850">
        <ele>374.0</ele>
        <time>2020-10-04T07:13:24Z</time>
      </trkpt>
      <trkpt lat="39.9727450" lon="-4.8329170">
        <ele>374.0</ele>
        <time>2020-10-04T07:13:34Z</time>
      </trkpt>
      <trkpt lat="39.9729040" lon="-4.8331330">
        <ele>374.0</ele>
        <time>2020-10-04T07:13:38Z</time>
      </trkpt>
      <trkpt lat="39.9732270" lon="-4.8335550">
        <ele>374.0</ele>
        <time>2020-10-04T07:13:46Z</time>
      </trkpt>
      <trkpt lat="39.9733950" lon="-4.8337750">
        <ele>374.0</ele>
        <time>2020-10-04T07:13:50Z</time>
      </trkpt>
      <trkpt lat="39.9738000" lon="-4.8342970">
        <ele>374.0</ele>
        <time>2020-10-04T07:14:00Z</time>
      </trkpt>
      <trkpt lat="39.9738820" lon="-4.8344050">
        <ele>374.0</ele>
        <time>2020-10-04T07:14:02Z</time>
      </trkpt>
      <trkpt lat="39.9742900" lon="-4.8349620">
        <ele>374.0</ele>
        <time>2020-10-04T07:14:12Z</time>
      </trkpt>
      <trkpt lat="39.9744960" lon="-4.8352330">
        <ele>374.0</ele>
        <time>2020-10-04T07:14:17Z</time>
      </trkpt>
      <trkpt lat="39.9747380" lon="-4.8355450">
        <ele>374.0</ele>
        <time>2020-10-04T07:14:23Z</time>
      </trkpt>
      <trkpt lat="39.9751420" lon="-4.8360820">
        <ele>374.0</ele>
        <time>2020-10-04T07:14:33Z</time>
      </trkpt>
      <trkpt lat="39.9752090" lon="-4.8361720">
        <ele>374.0</ele>
        <time>2020-10-04T07:14:35Z</time>
      </trkpt>
      <trkpt lat="39.9753150" lon="-4.8363160">
        <ele>374.0</ele>
        <time>2020-10-04T07:14:38Z</time>
      </trkpt>
      <trkpt lat="39.9753950" lon="-4.8363810">
        <ele>374.0</ele>
        <time>2020-10-04T07:14:40Z</time>
      </trkpt>
      <trkpt lat="39.9755460" lon="-4.8363420">
        <ele>374.0</ele>
        <time>2020-10-04T07:14:43Z</time>
      </trkpt>
      <trkpt lat="39.9755940" lon="-4.8363110">
        <ele>374.0</ele>
        <time>2020-10-04T07:14:44Z</time>
      </trkpt>
      <trkpt lat="39.9758480" lon="-4.8362070">
        <ele>374.0</ele>
        <time>2020-10-04T07:14:49Z</time>
      </trkpt>
      <trkpt lat="39.9759030" lon="-4.8362010">
        <ele>374.0</ele>
        <time>2020-10-04T07:14:50Z</time>
      </trkpt>
      <trkpt lat="39.9762700" lon="-4.8361990">
        <ele>374.0</ele>
        <time>2020-10-04T07:14:57Z</time>
      </trkpt>
      <trkpt lat="39.9763190" lon="-4.8361850">
        <ele>374.0</ele>
        <time>2020-10-04T07:14:58Z</time>
      </trkpt>
      <trkpt lat="39.9765100" lon="-4.8360890">
        <ele>374.0</ele>
        <time>2020-10-04T07:15:02Z</time>
      </trkpt>
      <trkpt lat="39.9766010" lon="-4.8360210">
        <ele>374.0</ele>
        <time>2020-10-04T07:15:04Z</time>
      </trkpt>
      <trkpt lat="39.9767230" lon="-4.8358870">
        <ele>374.0</ele>
        <time>2020-10-04T07:15:07Z</time>
      </trkpt>
      <trkpt lat="39.9767590" lon="-4.8358350">
        <ele>374.0</ele>
        <time>2020-10-04T07:15:08Z</time>
      </trkpt>
      <trkpt lat="39.9769940" lon="-4.8354000">
        <ele>374.0</ele>
        <time>2020-10-04T07:15:16Z</time>
      </trkpt>
      <trkpt lat="39.9773460" lon="-4.8348900">
        <ele>374.0</ele>
        <time>2020-10-04T07:15:26Z</time>
      </trkpt>
      <trkpt lat="39.9775630" lon="-4.8346920">
        <ele>374.4</ele>
        <time>2020-10-04T07:15:31Z</time>
      </trkpt>
      <trkpt lat="39.9776070" lon="-4.8346590">
        <ele>374.8</ele>
        <time>2020-10-04T07:15:32Z</time>
      </trkpt>
      <trkpt lat="39.9776540" lon="-4.8346250">
        <ele>375.2</ele>
        <time>2020-10-04T07:15:33Z</time>
      </trkpt>
      <trkpt lat="39.9776990" lon="-4.8345900">
        <ele>375.6</ele>
        <time>2020-10-04T07:15:34Z</time>
      </trkpt>
      <trkpt lat="39.9777450" lon="-4.8345550">
        <ele>376.0</ele>
        <time>2020-10-04T07:15:35Z</time>
      </trkpt>
      <trkpt lat="39.9777890" lon="-4.8345260">
        <ele>376.0</ele>
        <time>2020-10-04T07:15:36Z</time>
      </trkpt>
      <trkpt lat="39.9781720" lon="-4.8343450">
        <ele>376.0</ele>
        <time>2020-10-04T07:15:44Z</time>
      </trkpt>
      <trkpt lat="39.9784650" lon="-4.8343170">
        <ele>376.0</ele>
        <time>2020-10-04T07:15:50Z</time>
      </trkpt>
      <trkpt lat="39.9785110" lon="-4.8343230">
        <ele>376.0</ele>
        <time>2020-10-04T07:15:51Z</time>
      </trkpt>
      <trkpt lat="39.9788790" lon="-4.8344140">
        <ele>376.0</ele>
        <time>2020-10-04T07:15:59Z</time>
      </trkpt>
      <trkpt lat="39.9794030" lon="-4.8345560">
        <ele>376.0</ele>
        <time>2020-10-04T07:16:10Z</time>
      </trkpt>
      <trkpt lat="39.9795800" lon="-4.8345890">
        <ele>376.0</ele>
        <time>2020-10-04T07:16:14Z</time>
      </trkpt>
      <trkpt lat="39.9796710" lon="-4.8346140">
        <ele>376.4</ele>
        <time>2020-10-04T07:16:16Z</time>
      </trkpt>
      <trkpt lat="39.9797180" lon="-4.8346270">
        <ele>376.8</ele>
        <time>2020-10-04T07:16:17Z</time>
      </trkpt>
      <trkpt lat="39.9797640" lon="-4.8346410">
        <ele>377.4</ele>
        <time>2020-10-04T07:16:18Z</time>
      </trkpt>
      <trkpt lat="39.9798100" lon="-4.8346550">
        <ele>377.8</ele>
        <time>2020-10-04T07:16:19Z</time>
      </trkpt>
      <trkpt lat="39.9798540" lon="-4.8346690">
        <ele>378.2</ele>
        <time>2020-10-04T07:16:20Z</time>
      </trkpt>
      <trkpt lat="39.9801210" lon="-4.8347560">
        <ele>378.2</ele>
        <time>2020-10-04T07:16:26Z</time>
      </trkpt>
      <trkpt lat="39.9802920" lon="-4.8348180">
        <ele>378.6</ele>
        <time>2020-10-04T07:16:30Z</time>
      </trkpt>
      <trkpt lat="39.9803370" lon="-4.8348330">
        <ele>379.0</ele>
        <time>2020-10-04T07:16:31Z</time>
      </trkpt>
      <trkpt lat="39.9803830" lon="-4.8348470">
        <ele>379.4</ele>
        <time>2020-10-04T07:16:32Z</time>
      </trkpt>
      <trkpt lat="39.9804270" lon="-4.8348600">
        <ele>379.8</ele>
        <time>2020-10-04T07:16:33Z</time>
      </trkpt>
      <trkpt lat="39.9804720" lon="-4.8348750">
        <ele>380.2</ele>
        <time>2020-10-04T07:16:34Z</time>
      </trkpt>
      <trkpt lat="39.9805190" lon="-4.8348890">
        <ele>380.2</ele>
        <time>2020-10-04T07:16:35Z</time>
      </trkpt>
      <trkpt lat="39.9810530" lon="-4.8350880">
        <ele>380.2</ele>
        <time>2020-10-04T07:16:46Z</time>
      </trkpt>
      <trkpt lat="39.9813710" lon="-4.8352640">
        <ele>380.2</ele>
        <time>2020-10-04T07:16:53Z</time>
      </trkpt>
      <trkpt lat="39.9814630" lon="-4.8352910">
        <ele>380.2</ele>
        <time>2020-10-04T07:16:55Z</time>
      </trkpt>
      <trkpt lat="39.9815610" lon="-4.8353180">
        <ele>380.2</ele>
        <time>2020-10-04T07:16:57Z</time>
      </trkpt>
      <trkpt lat="39.9817110" lon="-4.8353690">
        <ele>380.2</ele>
        <time>2020-10-04T07:17:00Z</time>
      </trkpt>
      <trkpt lat="39.9818170" lon="-4.8353990">
        <ele>380.2</ele>
        <time>2020-10-04T07:17:02Z</time>
      </trkpt>
      <trkpt lat="39.9820720" lon="-4.8354750">
        <ele>380.2</ele>
        <time>2020-10-04T07:17:07Z</time>
      </trkpt>
      <trkpt lat="39.9822180" lon="-4.8355190">
        <ele>380.2</ele>
        <time>2020-10-04T07:17:10Z</time>
      </trkpt>
      <trkpt lat="39.9826660" lon="-4.8356820">
        <ele>380.2</ele>
        <time>2020-10-04T07:17:19Z</time>
      </trkpt>
      <trkpt lat="39.9831050" lon="-4.8358290">
        <ele>380.2</ele>
        <time>2020-10-04T07:17:28Z</time>
      </trkpt>
      <trkpt lat="39.9833080" lon="-4.8358880">
        <ele>380.2</ele>
        <time>2020-10-04T07:17:32Z</time>
      </trkpt>
      <trkpt lat="39.9834660" lon="-4.8359420">
        <ele>380.2</ele>
        <time>2020-10-04T07:17:35Z</time>
      </trkpt>
      <trkpt lat="39.9838090" lon="-4.8360610">
        <ele>380.2</ele>
        <time>2020-10-04T07:17:42Z</time>
      </trkpt>
      <trkpt lat="39.9840330" lon="-4.8361400">
        <ele>380.2</ele>
        <time>2020-10-04T07:17:47Z</time>
      </trkpt>
      <trkpt lat="39.9841220" lon="-4.8361780">
        <ele>380.2</ele>
        <time>2020-10-04T07:17:49Z</time>
      </trkpt>
      <trkpt lat="39.9843530" lon="-4.8362690">
        <ele>380.2</ele>
        <time>2020-10-04T07:17:54Z</time>
      </trkpt>
      <trkpt lat="39.9844960" lon="-4.8363200">
        <ele>380.2</ele>
        <time>2020-10-04T07:17:57Z</time>
      </trkpt>
      <trkpt lat="39.9845930" lon="-4.8363550">
        <ele>380.6</ele>
        <time>2020-10-04T07:17:59Z</time>
      </trkpt>
      <trkpt lat="39.9846400" lon="-4.8363720">
        <ele>381.0</ele>
        <time>2020-10-04T07:18:00Z</time>
      </trkpt>
      <trkpt lat="39.9846890" lon="-4.8363910">
        <ele>381.4</ele>
        <time>2020-10-04T07:18:01Z</time>
      </trkpt>
      <trkpt lat="39.9847360" lon="-4.8364100">
        <ele>381.8</ele>
        <time>2020-10-04T07:18:02Z</time>
      </trkpt>
      <trkpt lat="39.9847800" lon="-4.8364300">
        <ele>382.2</ele>
        <time>2020-10-04T07:18:03Z</time>
      </trkpt>
      <trkpt lat="39.9849330" lon="-4.8365010">
        <ele>382.2</ele>
        <time>2020-10-04T07:18:06Z</time>
      </trkpt>
      <trkpt lat="39.9852460" lon="-4.8366210">
        <ele>382.2</ele>
        <time>2020-10-04T07:18:13Z</time>
      </trkpt>
      <trkpt lat="39.9854490" lon="-4.8366840">
        <ele>382.2</ele>
        <time>2020-10-04T07:18:18Z</time>
      </trkpt>
      <trkpt lat="39.9856700" lon="-4.8367850">
        <ele>382.2</ele>
        <time>2020-10-04T07:18:23Z</time>
      </trkpt>
      <trkpt lat="39.9857530" lon="-4.8368200">
        <ele>382.2</ele>
        <time>2020-10-04T07:18:25Z</time>
      </trkpt>
      <trkpt lat="39.9860070" lon="-4.8369290">
        <ele>382.8</ele>
        <time>2020-10-04T07:18:31Z</time>
      </trkpt>
      <trkpt lat="39.9860470" lon="-4.8369450">
        <ele>383.2</ele>
        <time>2020-10-04T07:18:32Z</time>
      </trkpt>
      <trkpt lat="39.9860840" lon="-4.8369560">
        <ele>383.6</ele>
        <time>2020-10-04T07:18:33Z</time>
      </trkpt>
      <trkpt lat="39.9861210" lon="-4.8369680">
        <ele>384.0</ele>
        <time>2020-10-04T07:18:34Z</time>
      </trkpt>
      <trkpt lat="39.9861570" lon="-4.8369800">
        <ele>384.4</ele>
        <time>2020-10-04T07:18:35Z</time>
      </trkpt>
      <trkpt lat="39.9863530" lon="-4.8370460">
        <ele>384.4</ele>
        <time>2020-10-04T07:18:41Z</time>
      </trkpt>
      <trkpt lat="39.9865600" lon="-4.8371520">
        <ele>384.4</ele>
        <time>2020-10-04T07:18:46Z</time>
      </trkpt>
      <trkpt lat="39.9866910" lon="-4.8372120">
        <ele>384.8</ele>
        <time>2020-10-04T07:18:50Z</time>
      </trkpt>
      <trkpt lat="39.9867280" lon="-4.8372300">
        <ele>385.4</ele>
        <time>2020-10-04T07:18:51Z</time>
      </trkpt>
      <trkpt lat="39.9867650" lon="-4.8372460">
        <ele>385.8</ele>
        <time>2020-10-04T07:18:52Z</time>
      </trkpt>
      <trkpt lat="39.9868030" lon="-4.8372640">
        <ele>386.2</ele>
        <time>2020-10-04T07:18:53Z</time>
      </trkpt>
      <trkpt lat="39.9868440" lon="-4.8372790">
        <ele>386.6</ele>
        <time>2020-10-04T07:18:54Z</time>
      </trkpt>
      <trkpt lat="39.9871640" lon="-4.8374100">
        <ele>386.6</ele>
        <time>2020-10-04T07:19:02Z</time>
      </trkpt>
      <trkpt lat="39.9873100" lon="-4.8374620">
        <ele>387.0</ele>
        <time>2020-10-04T07:19:06Z</time>
      </trkpt>
      <trkpt lat="39.9873440" lon="-4.8374680">
        <ele>387.4</ele>
        <time>2020-10-04T07:19:07Z</time>
      </trkpt>
      <trkpt lat="39.9873800" lon="-4.8374790">
        <ele>387.8</ele>
        <time>2020-10-04T07:19:08Z</time>
      </trkpt>
      <trkpt lat="39.9874120" lon="-4.8374880">
        <ele>388.2</ele>
        <time>2020-10-04T07:19:09Z</time>
      </trkpt>
      <trkpt lat="39.9874410" lon="-4.8374960">
        <ele>388.6</ele>
        <time>2020-10-04T07:19:10Z</time>
      </trkpt>
      <trkpt lat="39.9875120" lon="-4.8375130">
        <ele>389.0</ele>
        <time>2020-10-04T07:19:12Z</time>
      </trkpt>
      <trkpt lat="39.9875450" lon="-4.8375210">
        <ele>389.4</ele>
        <time>2020-10-04T07:19:13Z</time>
      </trkpt>
      <trkpt lat="39.9875740" lon="-4.8375310">
        <ele>389.8</ele>
        <time>2020-10-04T07:19:14Z</time>
      </trkpt>
      <trkpt lat="39.9876020" lon="-4.8375400">
        <ele>390.2</ele>
        <time>2020-10-04T07:19:15Z</time>
      </trkpt>
      <trkpt lat="39.9876610" lon="-4.8375530">
        <ele>390.6</ele>
        <time>2020-10-04T07:19:17Z</time>
      </trkpt>
      <trkpt lat="39.9876890" lon="-4.8375620">
        <ele>391.0</ele>
        <time>2020-10-04T07:19:18Z</time>
      </trkpt>
      <trkpt lat="39.9877210" lon="-4.8375690">
        <ele>391.4</ele>
        <time>2020-10-04T07:19:19Z</time>
      </trkpt>
      <trkpt lat="39.9877520" lon="-4.8375750">
        <ele>392.0</ele>
        <time>2020-10-04T07:19:20Z</time>
      </trkpt>
      <trkpt lat="39.9877820" lon="-4.8375800">
        <ele>392.4</ele>
        <time>2020-10-04T07:19:21Z</time>
      </trkpt>
      <trkpt lat="39.9878120" lon="-4.8375870">
        <ele>392.8</ele>
        <time>2020-10-04T07:19:22Z</time>
      </trkpt>
      <trkpt lat="39.9879600" lon="-4.8376390">
        <ele>392.8</ele>
        <time>2020-10-04T07:19:27Z</time>
      </trkpt>
      <trkpt lat="39.9880180" lon="-4.8376580">
        <ele>393.2</ele>
        <time>2020-10-04T07:19:29Z</time>
      </trkpt>
      <trkpt lat="39.9880490" lon="-4.8376740">
        <ele>393.8</ele>
        <time>2020-10-04T07:19:30Z</time>
      </trkpt>
      <trkpt lat="39.9880800" lon="-4.8376880">
        <ele>394.2</ele>
        <time>2020-10-04T07:19:31Z</time>
      </trkpt>
      <trkpt lat="39.9881080" lon="-4.8377000">
        <ele>394.6</ele>
        <time>2020-10-04T07:19:32Z</time>
      </trkpt>
      <trkpt lat="39.9881380" lon="-4.8377120">
        <ele>395.0</ele>
        <time>2020-10-04T07:19:33Z</time>
      </trkpt>
      <trkpt lat="39.9881980" lon="-4.8377390">
        <ele>395.0</ele>
        <time>2020-10-04T07:19:35Z</time>
      </trkpt>
      <trkpt lat="39.9883550" lon="-4.8378470">
        <ele>395.4</ele>
        <time>2020-10-04T07:19:40Z</time>
      </trkpt>
      <trkpt lat="39.9883840" lon="-4.8378700">
        <ele>396.0</ele>
        <time>2020-10-04T07:19:41Z</time>
      </trkpt>
      <trkpt lat="39.9884100" lon="-4.8378920">
        <ele>396.4</ele>
        <time>2020-10-04T07:19:42Z</time>
      </trkpt>
      <trkpt lat="39.9884350" lon="-4.8379160">
        <ele>396.8</ele>
        <time>2020-10-04T07:19:43Z</time>
      </trkpt>
      <trkpt lat="39.9884630" lon="-4.8379430">
        <ele>397.2</ele>
        <time>2020-10-04T07:19:44Z</time>
      </trkpt>
      <trkpt lat="39.9885740" lon="-4.8380330">
        <ele>397.6</ele>
        <time>2020-10-04T07:19:48Z</time>
      </trkpt>
      <trkpt lat="39.9886010" lon="-4.8380590">
        <ele>398.0</ele>
        <time>2020-10-04T07:19:49Z</time>
      </trkpt>
      <trkpt lat="39.9886280" lon="-4.8380830">
        <ele>398.4</ele>
        <time>2020-10-04T07:19:50Z</time>
      </trkpt>
      <trkpt lat="39.9886600" lon="-4.8381090">
        <ele>398.8</ele>
        <time>2020-10-04T07:19:51Z</time>
      </trkpt>
      <trkpt lat="39.9886870" lon="-4.8381320">
        <ele>399.2</ele>
        <time>2020-10-04T07:19:52Z</time>
      </trkpt>
      <trkpt lat="39.9888340" lon="-4.8382510">
        <ele>399.8</ele>
        <time>2020-10-04T07:19:57Z</time>
      </trkpt>
      <trkpt lat="39.9888630" lon="-4.8382730">
        <ele>400.2</ele>
        <time>2020-10-04T07:19:58Z</time>
      </trkpt>
      <trkpt lat="39.9888920" lon="-4.8382950">
        <ele>400.6</ele>
        <time>2020-10-04T07:19:59Z</time>
      </trkpt>
      <trkpt lat="39.9889230" lon="-4.8383180">
        <ele>401.0</ele>
        <time>2020-10-04T07:20:00Z</time>
      </trkpt>
      <trkpt lat="39.9889550" lon="-4.8383420">
        <ele>401.4</ele>
        <time>2020-10-04T07:20:01Z</time>
      </trkpt>
      <trkpt lat="39.9892160" lon="-4.8385520">
        <ele>401.4</ele>
        <time>2020-10-04T07:20:09Z</time>
      </trkpt>
      <trkpt lat="39.9893120" lon="-4.8386330">
        <ele>401.8</ele>
        <time>2020-10-04T07:20:12Z</time>
      </trkpt>
      <trkpt lat="39.9893450" lon="-4.8386600">
        <ele>402.2</ele>
        <time>2020-10-04T07:20:13Z</time>
      </trkpt>
      <trkpt lat="39.9893780" lon="-4.8386860">
        <ele>402.6</ele>
        <time>2020-10-04T07:20:14Z</time>
      </trkpt>
      <trkpt lat="39.9894100" lon="-4.8387110">
        <ele>403.2</ele>
        <time>2020-10-04T07:20:15Z</time>
      </trkpt>
      <trkpt lat="39.9894440" lon="-4.8387350">
        <ele>403.6</ele>
        <time>2020-10-04T07:20:16Z</time>
      </trkpt>
      <trkpt lat="39.9895830" lon="-4.8388350">
        <ele>403.6</ele>
        <time>2020-10-04T07:20:20Z</time>
      </trkpt>
      <trkpt lat="39.9897230" lon="-4.8389300">
        <ele>403.6</ele>
        <time>2020-10-04T07:20:24Z</time>
      </trkpt>
      <trkpt lat="39.9898000" lon="-4.8389920">
        <ele>403.6</ele>
        <time>2020-10-04T07:20:27Z</time>
      </trkpt>
      <trkpt lat="39.9898290" lon="-4.8390190">
        <ele>403.6</ele>
        <time>2020-10-04T07:20:28Z</time>
      </trkpt>
      <trkpt lat="39.9899040" lon="-4.8391100">
        <ele>403.6</ele>
        <time>2020-10-04T07:20:30Z</time>
      </trkpt>
      <trkpt lat="39.9899940" lon="-4.8392410">
        <ele>403.6</ele>
        <time>2020-10-04T07:20:32Z</time>
      </trkpt>
      <trkpt lat="39.9900930" lon="-4.8393680">
        <ele>403.6</ele>
        <time>2020-10-04T07:20:34Z</time>
      </trkpt>
      <trkpt lat="39.9901960" lon="-4.8394770">
        <ele>403.6</ele>
        <time>2020-10-04T07:20:36Z</time>
      </trkpt>
      <trkpt lat="39.9902960" lon="-4.8395360">
        <ele>403.6</ele>
        <time>2020-10-04T07:20:38Z</time>
      </trkpt>
      <trkpt lat="39.9904110" lon="-4.8395290">
        <ele>403.6</ele>
        <time>2020-10-04T07:20:41Z</time>
      </trkpt>
      <trkpt lat="39.9904440" lon="-4.8395200">
        <ele>404.0</ele>
        <time>2020-10-04T07:20:42Z</time>
      </trkpt>
      <trkpt lat="39.9904770" lon="-4.8395110">
        <ele>404.4</ele>
        <time>2020-10-04T07:20:43Z</time>
      </trkpt>
      <trkpt lat="39.9905490" lon="-4.8395170">
        <ele>404.8</ele>
        <time>2020-10-04T07:20:45Z</time>
      </trkpt>
      <trkpt lat="39.9905870" lon="-4.8395280">
        <ele>405.2</ele>
        <time>2020-10-04T07:20:46Z</time>
      </trkpt>
      <trkpt lat="39.9906230" lon="-4.8395410">
        <ele>405.6</ele>
        <time>2020-10-04T07:20:47Z</time>
      </trkpt>
      <trkpt lat="39.9908590" lon="-4.8396590">
        <ele>405.6</ele>
        <time>2020-10-04T07:20:54Z</time>
      </trkpt>
      <trkpt lat="39.9910600" lon="-4.8397580">
        <ele>406.0</ele>
        <time>2020-10-04T07:21:00Z</time>
      </trkpt>
      <trkpt lat="39.9910950" lon="-4.8397750">
        <ele>406.4</ele>
        <time>2020-10-04T07:21:01Z</time>
      </trkpt>
      <trkpt lat="39.9911280" lon="-4.8397920">
        <ele>406.8</ele>
        <time>2020-10-04T07:21:02Z</time>
      </trkpt>
      <trkpt lat="39.9911620" lon="-4.8398100">
        <ele>407.2</ele>
        <time>2020-10-04T07:21:03Z</time>
      </trkpt>
      <trkpt lat="39.9911960" lon="-4.8398300">
        <ele>407.6</ele>
        <time>2020-10-04T07:21:04Z</time>
      </trkpt>
      <trkpt lat="39.9914540" lon="-4.8399700">
        <ele>407.6</ele>
        <time>2020-10-04T07:21:11Z</time>
      </trkpt>
      <trkpt lat="39.9915560" lon="-4.8400450">
        <ele>408.0</ele>
        <time>2020-10-04T07:21:14Z</time>
      </trkpt>
      <trkpt lat="39.9915900" lon="-4.8400680">
        <ele>408.6</ele>
        <time>2020-10-04T07:21:15Z</time>
      </trkpt>
      <trkpt lat="39.9916210" lon="-4.8400970">
        <ele>409.0</ele>
        <time>2020-10-04T07:21:16Z</time>
      </trkpt>
      <trkpt lat="39.9916510" lon="-4.8401240">
        <ele>409.4</ele>
        <time>2020-10-04T07:21:17Z</time>
      </trkpt>
      <trkpt lat="39.9916790" lon="-4.8401460">
        <ele>409.8</ele>
        <time>2020-10-04T07:21:18Z</time>
      </trkpt>
      <trkpt lat="39.9917490" lon="-4.8401840">
        <ele>409.8</ele>
        <time>2020-10-04T07:21:20Z</time>
      </trkpt>
      <trkpt lat="39.9919370" lon="-4.8403430">
        <ele>409.8</ele>
        <time>2020-10-04T07:21:26Z</time>
      </trkpt>
      <trkpt lat="39.9919690" lon="-4.8403760">
        <ele>409.8</ele>
        <time>2020-10-04T07:21:27Z</time>
      </trkpt>
      <trkpt lat="39.9921660" lon="-4.8405810">
        <ele>409.8</ele>
        <time>2020-10-04T07:21:32Z</time>
      </trkpt>
      <trkpt lat="39.9922140" lon="-4.8406360">
        <ele>409.8</ele>
        <time>2020-10-04T07:21:33Z</time>
      </trkpt>
      <trkpt lat="39.9923020" lon="-4.8407600">
        <ele>409.8</ele>
        <time>2020-10-04T07:21:35Z</time>
      </trkpt>
      <trkpt lat="39.9923620" lon="-4.8409040">
        <ele>409.8</ele>
        <time>2020-10-04T07:21:37Z</time>
      </trkpt>
      <trkpt lat="39.9923850" lon="-4.8409750">
        <ele>409.8</ele>
        <time>2020-10-04T07:21:38Z</time>
      </trkpt>
      <trkpt lat="39.9925310" lon="-4.8411640">
        <ele>409.8</ele>
        <time>2020-10-04T07:21:42Z</time>
      </trkpt>
      <trkpt lat="39.9925930" lon="-4.8411240">
        <ele>409.8</ele>
        <time>2020-10-04T07:21:43Z</time>
      </trkpt>
      <trkpt lat="39.9926920" lon="-4.8410770">
        <ele>409.8</ele>
        <time>2020-10-04T07:21:45Z</time>
      </trkpt>
      <trkpt lat="39.9927880" lon="-4.8410190">
        <ele>409.8</ele>
        <time>2020-10-04T07:21:47Z</time>
      </trkpt>
      <trkpt lat="39.9928690" lon="-4.8409750">
        <ele>409.8</ele>
        <time>2020-10-04T07:21:49Z</time>
      </trkpt>
      <trkpt lat="39.9929720" lon="-4.8409250">
        <ele>409.8</ele>
        <time>2020-10-04T07:21:52Z</time>
      </trkpt>
      <trkpt lat="39.9930370" lon="-4.8408940">
        <ele>409.8</ele>
        <time>2020-10-04T07:21:54Z</time>
      </trkpt>
      <trkpt lat="39.9930710" lon="-4.8408800">
        <ele>410.2</ele>
        <time>2020-10-04T07:21:55Z</time>
      </trkpt>
      <trkpt lat="39.9931030" lon="-4.8408670">
        <ele>410.8</ele>
        <time>2020-10-04T07:21:56Z</time>
      </trkpt>
      <trkpt lat="39.9931340" lon="-4.8408520">
        <ele>411.2</ele>
        <time>2020-10-04T07:21:57Z</time>
      </trkpt>
      <trkpt lat="39.9931670" lon="-4.8408360">
        <ele>411.6</ele>
        <time>2020-10-04T07:21:58Z</time>
      </trkpt>
      <trkpt lat="39.9931940" lon="-4.8408150">
        <ele>412.2</ele>
        <time>2020-10-04T07:21:59Z</time>
      </trkpt>
      <trkpt lat="39.9932530" lon="-4.8407830">
        <ele>412.6</ele>
        <time>2020-10-04T07:22:01Z</time>
      </trkpt>
      <trkpt lat="39.9932860" lon="-4.8407660">
        <ele>413.0</ele>
        <time>2020-10-04T07:22:02Z</time>
      </trkpt>
      <trkpt lat="39.9933150" lon="-4.8407530">
        <ele>413.4</ele>
        <time>2020-10-04T07:22:03Z</time>
      </trkpt>
      <trkpt lat="39.9933480" lon="-4.8407390">
        <ele>413.8</ele>
        <time>2020-10-04T07:22:04Z</time>
      </trkpt>
      <trkpt lat="39.9933820" lon="-4.8407240">
        <ele>414.4</ele>
        <time>2020-10-04T07:22:05Z</time>
      </trkpt>
      <trkpt lat="39.9935050" lon="-4.8406960">
        <ele>414.4</ele>
        <time>2020-10-04T07:22:08Z</time>
      </trkpt>
      <trkpt lat="39.9936140" lon="-4.8406810">
        <ele>414.4</ele>
        <time>2020-10-04T07:22:10Z</time>
      </trkpt>
      <trkpt lat="39.9937940" lon="-4.8406790">
        <ele>414.4</ele>
        <time>2020-10-04T07:22:13Z</time>
      </trkpt>
      <trkpt lat="39.9939320" lon="-4.8406880">
        <ele>414.4</ele>
        <time>2020-10-04T07:22:15Z</time>
      </trkpt>
      <trkpt lat="39.9940000" lon="-4.8406960">
        <ele>414.0</ele>
        <time>2020-10-04T07:22:16Z</time>
      </trkpt>
      <trkpt lat="39.9940730" lon="-4.8407090">
        <ele>413.6</ele>
        <time>2020-10-04T07:22:17Z</time>
      </trkpt>
      <trkpt lat="39.9941450" lon="-4.8407300">
        <ele>413.2</ele>
        <time>2020-10-04T07:22:18Z</time>
      </trkpt>
      <trkpt lat="39.9942220" lon="-4.8407530">
        <ele>412.8</ele>
        <time>2020-10-04T07:22:19Z</time>
      </trkpt>
      <trkpt lat="39.9943020" lon="-4.8407880">
        <ele>412.4</ele>
        <time>2020-10-04T07:22:20Z</time>
      </trkpt>
      <trkpt lat="39.9943700" lon="-4.8408450">
        <ele>412.0</ele>
        <time>2020-10-04T07:22:21Z</time>
      </trkpt>
      <trkpt lat="39.9944400" lon="-4.8408960">
        <ele>411.6</ele>
        <time>2020-10-04T07:22:22Z</time>
      </trkpt>
      <trkpt lat="39.9945130" lon="-4.8409550">
        <ele>411.2</ele>
        <time>2020-10-04T07:22:23Z</time>
      </trkpt>
      <trkpt lat="39.9945770" lon="-4.8410150">
        <ele>410.6</ele>
        <time>2020-10-04T07:22:24Z</time>
      </trkpt>
      <trkpt lat="39.9946370" lon="-4.8410620">
        <ele>410.2</ele>
        <time>2020-10-04T07:22:25Z</time>
      </trkpt>
      <trkpt lat="39.9946960" lon="-4.8410960">
        <ele>410.2</ele>
        <time>2020-10-04T07:22:26Z</time>
      </trkpt>
      <trkpt lat="39.9947530" lon="-4.8411070">
        <ele>409.8</ele>
        <time>2020-10-04T07:22:27Z</time>
      </trkpt>
      <trkpt lat="39.9948050" lon="-4.8410830">
        <ele>409.4</ele>
        <time>2020-10-04T07:22:28Z</time>
      </trkpt>
      <trkpt lat="39.9948560" lon="-4.8410550">
        <ele>409.0</ele>
        <time>2020-10-04T07:22:29Z</time>
      </trkpt>
      <trkpt lat="39.9949060" lon="-4.8410160">
        <ele>408.6</ele>
        <time>2020-10-04T07:22:30Z</time>
      </trkpt>
      <trkpt lat="39.9949600" lon="-4.8409870">
        <ele>408.0</ele>
        <time>2020-10-04T07:22:31Z</time>
      </trkpt>
      <trkpt lat="39.9950230" lon="-4.8409990">
        <ele>408.0</ele>
        <time>2020-10-04T07:22:32Z</time>
      </trkpt>
      <trkpt lat="39.9950840" lon="-4.8410290">
        <ele>408.0</ele>
        <time>2020-10-04T07:22:33Z</time>
      </trkpt>
      <trkpt lat="39.9951440" lon="-4.8410760">
        <ele>407.6</ele>
        <time>2020-10-04T07:22:34Z</time>
      </trkpt>
      <trkpt lat="39.9952000" lon="-4.8411250">
        <ele>407.2</ele>
        <time>2020-10-04T07:22:35Z</time>
      </trkpt>
      <trkpt lat="39.9952580" lon="-4.8411730">
        <ele>406.6</ele>
        <time>2020-10-04T07:22:36Z</time>
      </trkpt>
      <trkpt lat="39.9953170" lon="-4.8412200">
        <ele>406.2</ele>
        <time>2020-10-04T07:22:37Z</time>
      </trkpt>
      <trkpt lat="39.9953800" lon="-4.8412550">
        <ele>405.6</ele>
        <time>2020-10-04T07:22:38Z</time>
      </trkpt>
      <trkpt lat="39.9954360" lon="-4.8412790">
        <ele>405.2</ele>
        <time>2020-10-04T07:22:39Z</time>
      </trkpt>
      <trkpt lat="39.9954950" lon="-4.8412950">
        <ele>404.6</ele>
        <time>2020-10-04T07:22:40Z</time>
      </trkpt>
      <trkpt lat="39.9955460" lon="-4.8413030">
        <ele>403.8</ele>
        <time>2020-10-04T07:22:41Z</time>
      </trkpt>
      <trkpt lat="39.9955990" lon="-4.8413140">
        <ele>403.0</ele>
        <time>2020-10-04T07:22:42Z</time>
      </trkpt>
      <trkpt lat="39.9956460" lon="-4.8413010">
        <ele>402.2</ele>
        <time>2020-10-04T07:22:43Z</time>
      </trkpt>
      <trkpt lat="39.9956750" lon="-4.8412640">
        <ele>401.4</ele>
        <time>2020-10-04T07:22:44Z</time>
      </trkpt>
      <trkpt lat="39.9957010" lon="-4.8412260">
        <ele>400.4</ele>
        <time>2020-10-04T07:22:45Z</time>
      </trkpt>
      <trkpt lat="39.9957100" lon="-4.8411890">
        <ele>399.6</ele>
        <time>2020-10-04T07:22:46Z</time>
      </trkpt>
      <trkpt lat="39.9957310" lon="-4.8411540">
        <ele>398.6</ele>
        <time>2020-10-04T07:22:47Z</time>
      </trkpt>
      <trkpt lat="39.9957750" lon="-4.8410820">
        <ele>398.6</ele>
        <time>2020-10-04T07:22:49Z</time>
      </trkpt>
      <trkpt lat="39.9958160" lon="-4.8410160">
        <ele>398.6</ele>
        <time>2020-10-04T07:22:51Z</time>
      </trkpt>
      <trkpt lat="39.9958390" lon="-4.8409890">
        <ele>398.6</ele>
        <time>2020-10-04T07:22:52Z</time>
      </trkpt>
      <trkpt lat="39.9958710" lon="-4.8409220">
        <ele>398.6</ele>
        <time>2020-10-04T07:22:54Z</time>
      </trkpt>
      <trkpt lat="39.9958830" lon="-4.8408930">
        <ele>398.6</ele>
        <time>2020-10-04T07:22:55Z</time>
      </trkpt>
      <trkpt lat="39.9959020" lon="-4.8408310">
        <ele>399.2</ele>
        <time>2020-10-04T07:22:57Z</time>
      </trkpt>
      <trkpt lat="39.9959070" lon="-4.8407940">
        <ele>399.6</ele>
        <time>2020-10-04T07:22:58Z</time>
      </trkpt>
      <trkpt lat="39.9959200" lon="-4.8407620">
        <ele>400.0</ele>
        <time>2020-10-04T07:22:59Z</time>
      </trkpt>
      <trkpt lat="39.9959320" lon="-4.8407370">
        <ele>400.6</ele>
        <time>2020-10-04T07:23:00Z</time>
      </trkpt>
      <trkpt lat="39.9959400" lon="-4.8407070">
        <ele>401.0</ele>
        <time>2020-10-04T07:23:01Z</time>
      </trkpt>
      <trkpt lat="39.9959480" lon="-4.8406460">
        <ele>401.0</ele>
        <time>2020-10-04T07:23:03Z</time>
      </trkpt>
      <trkpt lat="39.9959490" lon="-4.8406090">
        <ele>401.4</ele>
        <time>2020-10-04T07:23:04Z</time>
      </trkpt>
      <trkpt lat="39.9959490" lon="-4.8405820">
        <ele>401.8</ele>
        <time>2020-10-04T07:23:05Z</time>
      </trkpt>
      <trkpt lat="39.9959540" lon="-4.8405520">
        <ele>402.2</ele>
        <time>2020-10-04T07:23:06Z</time>
      </trkpt>
      <trkpt lat="39.9959720" lon="-4.8404960">
        <ele>402.6</ele>
        <time>2020-10-04T07:23:08Z</time>
      </trkpt>
      <trkpt lat="39.9959790" lon="-4.8404670">
        <ele>403.0</ele>
        <time>2020-10-04T07:23:09Z</time>
      </trkpt>
      <trkpt lat="39.9960030" lon="-4.8403530">
        <ele>403.4</ele>
        <time>2020-10-04T07:23:13Z</time>
      </trkpt>
      <trkpt lat="39.9960040" lon="-4.8403300">
        <ele>403.8</ele>
        <time>2020-10-04T07:23:14Z</time>
      </trkpt>
      <trkpt lat="39.9960100" lon="-4.8403040">
        <ele>404.2</ele>
        <time>2020-10-04T07:23:15Z</time>
      </trkpt>
      <trkpt lat="39.9960190" lon="-4.8402810">
        <ele>404.8</ele>
        <time>2020-10-04T07:23:16Z</time>
      </trkpt>
      <trkpt lat="39.9960260" lon="-4.8402560">
        <ele>405.2</ele>
        <time>2020-10-04T07:23:17Z</time>
      </trkpt>
      <trkpt lat="39.9960530" lon="-4.8401630">
        <ele>405.2</ele>
        <time>2020-10-04T07:23:21Z</time>
      </trkpt>
      <trkpt lat="39.9960600" lon="-4.8401400">
        <ele>405.6</ele>
        <time>2020-10-04T07:23:22Z</time>
      </trkpt>
      <trkpt lat="39.9960650" lon="-4.8401160">
        <ele>406.0</ele>
        <time>2020-10-04T07:23:23Z</time>
      </trkpt>
      <trkpt lat="39.9960710" lon="-4.8400870">
        <ele>406.6</ele>
        <time>2020-10-04T07:23:24Z</time>
      </trkpt>
      <trkpt lat="39.9960780" lon="-4.8400610">
        <ele>407.0</ele>
        <time>2020-10-04T07:23:25Z</time>
      </trkpt>
      <trkpt lat="39.9960850" lon="-4.8400300">
        <ele>407.4</ele>
        <time>2020-10-04T07:23:26Z</time>
      </trkpt>
      <trkpt lat="39.9961150" lon="-4.8399430">
        <ele>407.8</ele>
        <time>2020-10-04T07:23:29Z</time>
      </trkpt>
      <trkpt lat="39.9961260" lon="-4.8399120">
        <ele>408.2</ele>
        <time>2020-10-04T07:23:30Z</time>
      </trkpt>
      <trkpt lat="39.9961410" lon="-4.8398860">
        <ele>408.6</ele>
        <time>2020-10-04T07:23:31Z</time>
      </trkpt>
      <trkpt lat="39.9961540" lon="-4.8398570">
        <ele>409.0</ele>
        <time>2020-10-04T07:23:32Z</time>
      </trkpt>
      <trkpt lat="39.9961640" lon="-4.8398310">
        <ele>409.4</ele>
        <time>2020-10-04T07:23:33Z</time>
      </trkpt>
      <trkpt lat="39.9962010" lon="-4.8397220">
        <ele>409.4</ele>
        <time>2020-10-04T07:23:37Z</time>
      </trkpt>
      <trkpt lat="39.9962040" lon="-4.8396920">
        <ele>409.8</ele>
        <time>2020-10-04T07:23:38Z</time>
      </trkpt>
      <trkpt lat="39.9962120" lon="-4.8396620">
        <ele>410.2</ele>
        <time>2020-10-04T07:23:39Z</time>
      </trkpt>
      <trkpt lat="39.9962210" lon="-4.8396310">
        <ele>410.8</ele>
        <time>2020-10-04T07:23:40Z</time>
      </trkpt>
      <trkpt lat="39.9962350" lon="-4.8395660">
        <ele>411.6</ele>
        <time>2020-10-04T07:23:42Z</time>
      </trkpt>
      <trkpt lat="39.9962550" lon="-4.8394980">
        <ele>411.6</ele>
        <time>2020-10-04T07:23:44Z</time>
      </trkpt>
      <trkpt lat="39.9962710" lon="-4.8394490">
        <ele>412.0</ele>
        <time>2020-10-04T07:23:45Z</time>
      </trkpt>
      <trkpt lat="39.9962840" lon="-4.8394100">
        <ele>412.4</ele>
        <time>2020-10-04T07:23:46Z</time>
      </trkpt>
      <trkpt lat="39.9962990" lon="-4.8393670">
        <ele>412.8</ele>
        <time>2020-10-04T07:23:47Z</time>
      </trkpt>
      <trkpt lat="39.9963090" lon="-4.8393290">
        <ele>413.2</ele>
        <time>2020-10-04T07:23:48Z</time>
      </trkpt>
      <trkpt lat="39.9963230" lon="-4.8392960">
        <ele>413.6</ele>
        <time>2020-10-04T07:23:49Z</time>
      </trkpt>
      <trkpt lat="39.9963720" lon="-4.8392560">
        <ele>413.6</ele>
        <time>2020-10-04T07:23:51Z</time>
      </trkpt>
      <trkpt lat="39.9964010" lon="-4.8392470">
        <ele>414.0</ele>
        <time>2020-10-04T07:23:52Z</time>
      </trkpt>
      <trkpt lat="39.9964260" lon="-4.8392530">
        <ele>414.4</ele>
        <time>2020-10-04T07:23:53Z</time>
      </trkpt>
      <trkpt lat="39.9964580" lon="-4.8392570">
        <ele>414.8</ele>
        <time>2020-10-04T07:23:54Z</time>
      </trkpt>
      <trkpt lat="39.9964860" lon="-4.8392630">
        <ele>415.2</ele>
        <time>2020-10-04T07:23:55Z</time>
      </trkpt>
      <trkpt lat="39.9965120" lon="-4.8392700">
        <ele>415.6</ele>
        <time>2020-10-04T07:23:56Z</time>
      </trkpt>
      <trkpt lat="39.9967080" lon="-4.8393210">
        <ele>415.6</ele>
        <time>2020-10-04T07:24:02Z</time>
      </trkpt>
      <trkpt lat="39.9968970" lon="-4.8393150">
        <ele>415.6</ele>
        <time>2020-10-04T07:24:07Z</time>
      </trkpt>
      <trkpt lat="39.9969730" lon="-4.8393110">
        <ele>415.6</ele>
        <time>2020-10-04T07:24:09Z</time>
      </trkpt>
      <trkpt lat="39.9970860" lon="-4.8393110">
        <ele>415.6</ele>
        <time>2020-10-04T07:24:12Z</time>
      </trkpt>
      <trkpt lat="39.9971710" lon="-4.8392870">
        <ele>415.6</ele>
        <time>2020-10-04T07:24:14Z</time>
      </trkpt>
      <trkpt lat="39.9972200" lon="-4.8392690">
        <ele>415.6</ele>
        <time>2020-10-04T07:24:15Z</time>
      </trkpt>
      <trkpt lat="39.9972660" lon="-4.8392450">
        <ele>415.6</ele>
        <time>2020-10-04T07:24:16Z</time>
      </trkpt>
      <trkpt lat="39.9973470" lon="-4.8391870">
        <ele>415.6</ele>
        <time>2020-10-04T07:24:18Z</time>
      </trkpt>
      <trkpt lat="39.9974330" lon="-4.8391070">
        <ele>415.6</ele>
        <time>2020-10-04T07:24:20Z</time>
      </trkpt>
      <trkpt lat="39.9975130" lon="-4.8390250">
        <ele>415.6</ele>
        <time>2020-10-04T07:24:22Z</time>
      </trkpt>
      <trkpt lat="39.9976720" lon="-4.8388210">
        <ele>415.6</ele>
        <time>2020-10-04T07:24:27Z</time>
      </trkpt>
      <trkpt lat="39.9976870" lon="-4.8387640">
        <ele>415.6</ele>
        <time>2020-10-04T07:24:28Z</time>
      </trkpt>
      <trkpt lat="39.9977310" lon="-4.8386640">
        <ele>415.6</ele>
        <time>2020-10-04T07:24:30Z</time>
      </trkpt>
      <trkpt lat="39.9978470" lon="-4.8384290">
        <ele>415.6</ele>
        <time>2020-10-04T07:24:35Z</time>
      </trkpt>
      <trkpt lat="39.9978760" lon="-4.8383920">
        <ele>415.6</ele>
        <time>2020-10-04T07:24:36Z</time>
      </trkpt>
      <trkpt lat="39.9980340" lon="-4.8382950">
        <ele>415.6</ele>
        <time>2020-10-04T07:24:41Z</time>
      </trkpt>
      <trkpt lat="39.9980890" lon="-4.8382730">
        <ele>415.6</ele>
        <time>2020-10-04T07:24:43Z</time>
      </trkpt>
      <trkpt lat="39.9981400" lon="-4.8382350">
        <ele>415.6</ele>
        <time>2020-10-04T07:24:45Z</time>
      </trkpt>
      <trkpt lat="39.9981920" lon="-4.8382010">
        <ele>415.6</ele>
        <time>2020-10-04T07:24:48Z</time>
      </trkpt>
      <trkpt lat="39.9982170" lon="-4.8381940">
        <ele>416.0</ele>
        <time>2020-10-04T07:24:49Z</time>
      </trkpt>
      <trkpt lat="39.9982410" lon="-4.8381920">
        <ele>416.4</ele>
        <time>2020-10-04T07:24:50Z</time>
      </trkpt>
      <trkpt lat="39.9982700" lon="-4.8381950">
        <ele>417.0</ele>
        <time>2020-10-04T07:24:51Z</time>
      </trkpt>
      <trkpt lat="39.9983010" lon="-4.8381990">
        <ele>417.4</ele>
        <time>2020-10-04T07:24:52Z</time>
      </trkpt>
      <trkpt lat="39.9983330" lon="-4.8382040">
        <ele>417.8</ele>
        <time>2020-10-04T07:24:53Z</time>
      </trkpt>
      <trkpt lat="39.9983600" lon="-4.8382100">
        <ele>418.4</ele>
        <time>2020-10-04T07:24:54Z</time>
      </trkpt>
      <trkpt lat="39.9983890" lon="-4.8382160">
        <ele>418.8</ele>
        <time>2020-10-04T07:24:55Z</time>
      </trkpt>
      <trkpt lat="39.9984190" lon="-4.8382190">
        <ele>419.4</ele>
        <time>2020-10-04T07:24:56Z</time>
      </trkpt>
      <trkpt lat="39.9984500" lon="-4.8382180">
        <ele>420.0</ele>
        <time>2020-10-04T07:24:57Z</time>
      </trkpt>
      <trkpt lat="39.9984820" lon="-4.8382140">
        <ele>420.4</ele>
        <time>2020-10-04T07:24:58Z</time>
      </trkpt>
      <trkpt lat="39.9985080" lon="-4.8382020">
        <ele>420.8</ele>
        <time>2020-10-04T07:24:59Z</time>
      </trkpt>
      <trkpt lat="39.9985320" lon="-4.8381820">
        <ele>421.2</ele>
        <time>2020-10-04T07:25:00Z</time>
      </trkpt>
      <trkpt lat="39.9985570" lon="-4.8381530">
        <ele>421.6</ele>
        <time>2020-10-04T07:25:01Z</time>
      </trkpt>
      <trkpt lat="39.9985800" lon="-4.8381250">
        <ele>422.0</ele>
        <time>2020-10-04T07:25:02Z</time>
      </trkpt>
      <trkpt lat="39.9986030" lon="-4.8380970">
        <ele>422.4</ele>
        <time>2020-10-04T07:25:03Z</time>
      </trkpt>
      <trkpt lat="39.9986250" lon="-4.8380660">
        <ele>422.8</ele>
        <time>2020-10-04T07:25:04Z</time>
      </trkpt>
      <trkpt lat="39.9986470" lon="-4.8380350">
        <ele>423.2</ele>
        <time>2020-10-04T07:25:05Z</time>
      </trkpt>
      <trkpt lat="39.9986680" lon="-4.8380060">
        <ele>423.6</ele>
        <time>2020-10-04T07:25:06Z</time>
      </trkpt>
      <trkpt lat="39.9986900" lon="-4.8379830">
        <ele>424.2</ele>
        <time>2020-10-04T07:25:07Z</time>
      </trkpt>
      <trkpt lat="39.9987540" lon="-4.8379050">
        <ele>424.6</ele>
        <time>2020-10-04T07:25:10Z</time>
      </trkpt>
      <trkpt lat="39.9987730" lon="-4.8378800">
        <ele>425.0</ele>
        <time>2020-10-04T07:25:11Z</time>
      </trkpt>
      <trkpt lat="39.9987940" lon="-4.8378610">
        <ele>425.4</ele>
        <time>2020-10-04T07:25:12Z</time>
      </trkpt>
      <trkpt lat="39.9988130" lon="-4.8378400">
        <ele>425.8</ele>
        <time>2020-10-04T07:25:13Z</time>
      </trkpt>
      <trkpt lat="39.9988280" lon="-4.8378130">
        <ele>426.2</ele>
        <time>2020-10-04T07:25:14Z</time>
      </trkpt>
      <trkpt lat="39.9989430" lon="-4.8376740">
        <ele>426.2</ele>
        <time>2020-10-04T07:25:19Z</time>
      </trkpt>
      <trkpt lat="39.9989690" lon="-4.8376480">
        <ele>426.6</ele>
        <time>2020-10-04T07:25:20Z</time>
      </trkpt>
      <trkpt lat="39.9989940" lon="-4.8376190">
        <ele>427.0</ele>
        <time>2020-10-04T07:25:21Z</time>
      </trkpt>
      <trkpt lat="39.9990180" lon="-4.8375850">
        <ele>427.4</ele>
        <time>2020-10-04T07:25:22Z</time>
      </trkpt>
      <trkpt lat="39.9990380" lon="-4.8375450">
        <ele>427.8</ele>
        <time>2020-10-04T07:25:23Z</time>
      </trkpt>
      <trkpt lat="39.9990570" lon="-4.8374990">
        <ele>428.2</ele>
        <time>2020-10-04T07:25:24Z</time>
      </trkpt>
      <trkpt lat="39.9991090" lon="-4.8374070">
        <ele>428.2</ele>
        <time>2020-10-04T07:25:26Z</time>
      </trkpt>
      <trkpt lat="39.9992510" lon="-4.8372460">
        <ele>428.2</ele>
        <time>2020-10-04T07:25:30Z</time>
      </trkpt>
      <trkpt lat="39.9993510" lon="-4.8371530">
        <ele>428.2</ele>
        <time>2020-10-04T07:25:33Z</time>
      </trkpt>
      <trkpt lat="39.9993780" lon="-4.8371180">
        <ele>428.2</ele>
        <time>2020-10-04T07:25:34Z</time>
      </trkpt>
      <trkpt lat="39.9994470" lon="-4.8370100">
        <ele>428.2</ele>
        <time>2020-10-04T07:25:37Z</time>
      </trkpt>
      <trkpt lat="39.9995550" lon="-4.8368750">
        <ele>428.2</ele>
        <time>2020-10-04T07:25:41Z</time>
      </trkpt>
      <trkpt lat="39.9995810" lon="-4.8368490">
        <ele>428.2</ele>
        <time>2020-10-04T07:25:42Z</time>
      </trkpt>
      <trkpt lat="39.9996640" lon="-4.8367830">
        <ele>428.2</ele>
        <time>2020-10-04T07:25:45Z</time>
      </trkpt>
      <trkpt lat="39.9998070" lon="-4.8366730">
        <ele>428.2</ele>
        <time>2020-10-04T07:25:50Z</time>
      </trkpt>
      <trkpt lat="40.0000460" lon="-4.8364860">
        <ele>428.2</ele>
        <time>2020-10-04T07:25:58Z</time>
      </trkpt>
      <trkpt lat="40.0000700" lon="-4.8364570">
        <ele>428.2</ele>
        <time>2020-10-04T07:25:59Z</time>
      </trkpt>
      <trkpt lat="40.0001420" lon="-4.8363670">
        <ele>428.8</ele>
        <time>2020-10-04T07:26:02Z</time>
      </trkpt>
      <trkpt lat="40.0001630" lon="-4.8363370">
        <ele>429.2</ele>
        <time>2020-10-04T07:26:03Z</time>
      </trkpt>
      <trkpt lat="40.0001860" lon="-4.8363060">
        <ele>429.6</ele>
        <time>2020-10-04T07:26:04Z</time>
      </trkpt>
      <trkpt lat="40.0002100" lon="-4.8362780">
        <ele>430.0</ele>
        <time>2020-10-04T07:26:05Z</time>
      </trkpt>
      <trkpt lat="40.0002320" lon="-4.8362500">
        <ele>430.4</ele>
        <time>2020-10-04T07:26:06Z</time>
      </trkpt>
      <trkpt lat="40.0002650" lon="-4.8361800">
        <ele>430.4</ele>
        <time>2020-10-04T07:26:08Z</time>
      </trkpt>
      <trkpt lat="40.0002710" lon="-4.8361280">
        <ele>430.4</ele>
        <time>2020-10-04T07:26:09Z</time>
      </trkpt>
      <trkpt lat="40.0003870" lon="-4.8359770">
        <ele>430.4</ele>
        <time>2020-10-04T07:26:13Z</time>
      </trkpt>
      <trkpt lat="40.0005800" lon="-4.8358800">
        <ele>430.4</ele>
        <time>2020-10-04T07:26:18Z</time>
      </trkpt>
      <trkpt lat="40.0006610" lon="-4.8358200">
        <ele>430.4</ele>
        <time>2020-10-04T07:26:21Z</time>
      </trkpt>
      <trkpt lat="40.0007240" lon="-4.8357270">
        <ele>430.4</ele>
        <time>2020-10-04T07:26:24Z</time>
      </trkpt>
      <trkpt lat="40.0008040" lon="-4.8356330">
        <ele>430.4</ele>
        <time>2020-10-04T07:26:27Z</time>
      </trkpt>
      <trkpt lat="40.0008630" lon="-4.8355510">
        <ele>430.4</ele>
        <time>2020-10-04T07:26:29Z</time>
      </trkpt>
      <trkpt lat="40.0009610" lon="-4.8354600">
        <ele>430.4</ele>
        <time>2020-10-04T07:26:32Z</time>
      </trkpt>
      <trkpt lat="40.0010590" lon="-4.8353930">
        <ele>430.4</ele>
        <time>2020-10-04T07:26:35Z</time>
      </trkpt>
      <trkpt lat="40.0012950" lon="-4.8352780">
        <ele>430.4</ele>
        <time>2020-10-04T07:26:42Z</time>
      </trkpt>
      <trkpt lat="40.0013620" lon="-4.8352360">
        <ele>430.8</ele>
        <time>2020-10-04T07:26:44Z</time>
      </trkpt>
      <trkpt lat="40.0013940" lon="-4.8352140">
        <ele>431.4</ele>
        <time>2020-10-04T07:26:45Z</time>
      </trkpt>
      <trkpt lat="40.0014260" lon="-4.8351920">
        <ele>431.8</ele>
        <time>2020-10-04T07:26:46Z</time>
      </trkpt>
      <trkpt lat="40.0014590" lon="-4.8351680">
        <ele>432.2</ele>
        <time>2020-10-04T07:26:47Z</time>
      </trkpt>
      <trkpt lat="40.0014880" lon="-4.8351410">
        <ele>432.6</ele>
        <time>2020-10-04T07:26:48Z</time>
      </trkpt>
      <trkpt lat="40.0015190" lon="-4.8351140">
        <ele>432.6</ele>
        <time>2020-10-04T07:26:49Z</time>
      </trkpt>
      <trkpt lat="40.0017100" lon="-4.8349950">
        <ele>432.6</ele>
        <time>2020-10-04T07:26:54Z</time>
      </trkpt>
      <trkpt lat="40.0017490" lon="-4.8349550">
        <ele>432.6</ele>
        <time>2020-10-04T07:26:55Z</time>
      </trkpt>
      <trkpt lat="40.0018210" lon="-4.8348710">
        <ele>432.6</ele>
        <time>2020-10-04T07:26:57Z</time>
      </trkpt>
      <trkpt lat="40.0019980" lon="-4.8347020">
        <ele>432.6</ele>
        <time>2020-10-04T07:27:02Z</time>
      </trkpt>
      <trkpt lat="40.0020640" lon="-4.8346610">
        <ele>432.0</ele>
        <time>2020-10-04T07:27:04Z</time>
      </trkpt>
      <trkpt lat="40.0020970" lon="-4.8346410">
        <ele>431.6</ele>
        <time>2020-10-04T07:27:05Z</time>
      </trkpt>
      <trkpt lat="40.0021280" lon="-4.8346240">
        <ele>431.2</ele>
        <time>2020-10-04T07:27:06Z</time>
      </trkpt>
      <trkpt lat="40.0021560" lon="-4.8346030">
        <ele>430.8</ele>
        <time>2020-10-04T07:27:07Z</time>
      </trkpt>
      <trkpt lat="40.0021860" lon="-4.8345670">
        <ele>430.4</ele>
        <time>2020-10-04T07:27:08Z</time>
      </trkpt>
      <trkpt lat="40.0022600" lon="-4.8344790">
        <ele>430.4</ele>
        <time>2020-10-04T07:27:10Z</time>
      </trkpt>
      <trkpt lat="40.0023050" lon="-4.8344290">
        <ele>429.8</ele>
        <time>2020-10-04T07:27:11Z</time>
      </trkpt>
      <trkpt lat="40.0023450" lon="-4.8343750">
        <ele>429.4</ele>
        <time>2020-10-04T07:27:12Z</time>
      </trkpt>
      <trkpt lat="40.0023850" lon="-4.8343200">
        <ele>429.0</ele>
        <time>2020-10-04T07:27:13Z</time>
      </trkpt>
      <trkpt lat="40.0024310" lon="-4.8342810">
        <ele>428.4</ele>
        <time>2020-10-04T07:27:14Z</time>
      </trkpt>
      <trkpt lat="40.0024810" lon="-4.8342460">
        <ele>427.8</ele>
        <time>2020-10-04T07:27:15Z</time>
      </trkpt>
      <trkpt lat="40.0025310" lon="-4.8342090">
        <ele>427.2</ele>
        <time>2020-10-04T07:27:16Z</time>
      </trkpt>
      <trkpt lat="40.0025730" lon="-4.8341700">
        <ele>426.4</ele>
        <time>2020-10-04T07:27:17Z</time>
      </trkpt>
      <trkpt lat="40.0026070" lon="-4.8341380">
        <ele>425.8</ele>
        <time>2020-10-04T07:27:18Z</time>
      </trkpt>
      <trkpt lat="40.0026300" lon="-4.8341130">
        <ele>425.0</ele>
        <time>2020-10-04T07:27:19Z</time>
      </trkpt>
      <trkpt lat="40.0026530" lon="-4.8340850">
        <ele>424.2</ele>
        <time>2020-10-04T07:27:20Z</time>
      </trkpt>
      <trkpt lat="40.0026830" lon="-4.8340510">
        <ele>423.6</ele>
        <time>2020-10-04T07:27:21Z</time>
      </trkpt>
      <trkpt lat="40.0027090" lon="-4.8340130">
        <ele>422.8</ele>
        <time>2020-10-04T07:27:22Z</time>
      </trkpt>
      <trkpt lat="40.0027350" lon="-4.8339710">
        <ele>422.8</ele>
        <time>2020-10-04T07:27:23Z</time>
      </trkpt>
      <trkpt lat="40.0027820" lon="-4.8338860">
        <ele>422.8</ele>
        <time>2020-10-04T07:27:25Z</time>
      </trkpt>
      <trkpt lat="40.0028330" lon="-4.8337900">
        <ele>422.8</ele>
        <time>2020-10-04T07:27:27Z</time>
      </trkpt>
      <trkpt lat="40.0028790" lon="-4.8336910">
        <ele>422.8</ele>
        <time>2020-10-04T07:27:29Z</time>
      </trkpt>
      <trkpt lat="40.0029330" lon="-4.8336030">
        <ele>422.8</ele>
        <time>2020-10-04T07:27:31Z</time>
      </trkpt>
      <trkpt lat="40.0029640" lon="-4.8335630">
        <ele>423.4</ele>
        <time>2020-10-04T07:27:32Z</time>
      </trkpt>
      <trkpt lat="40.0029940" lon="-4.8335230">
        <ele>423.8</ele>
        <time>2020-10-04T07:27:33Z</time>
      </trkpt>
      <trkpt lat="40.0030230" lon="-4.8334820">
        <ele>424.2</ele>
        <time>2020-10-04T07:27:34Z</time>
      </trkpt>
      <trkpt lat="40.0030560" lon="-4.8334420">
        <ele>424.8</ele>
        <time>2020-10-04T07:27:35Z</time>
      </trkpt>
      <trkpt lat="40.0030860" lon="-4.8334010">
        <ele>425.2</ele>
        <time>2020-10-04T07:27:36Z</time>
      </trkpt>
      <trkpt lat="40.0031110" lon="-4.8333640">
        <ele>425.6</ele>
        <time>2020-10-04T07:27:37Z</time>
      </trkpt>
      <trkpt lat="40.0031350" lon="-4.8333250">
        <ele>426.0</ele>
        <time>2020-10-04T07:27:38Z</time>
      </trkpt>
      <trkpt lat="40.0031590" lon="-4.8332870">
        <ele>426.4</ele>
        <time>2020-10-04T07:27:39Z</time>
      </trkpt>
      <trkpt lat="40.0031850" lon="-4.8332530">
        <ele>426.8</ele>
        <time>2020-10-04T07:27:40Z</time>
      </trkpt>
      <trkpt lat="40.0032120" lon="-4.8332200">
        <ele>427.2</ele>
        <time>2020-10-04T07:27:41Z</time>
      </trkpt>
      <trkpt lat="40.0032720" lon="-4.8331260">
        <ele>427.2</ele>
        <time>2020-10-04T07:27:44Z</time>
      </trkpt>
      <trkpt lat="40.0032880" lon="-4.8331040">
        <ele>427.2</ele>
        <time>2020-10-04T07:27:47Z</time>
      </trkpt>
      <trkpt lat="40.0031840" lon="-4.8330660">
        <ele>425.7</ele>
        <time>2020-10-04T07:28:21Z</time>
      </trkpt>
      <trkpt lat="40.0031970" lon="-4.8330500">
        <ele>425.7</ele>
        <time>2020-10-04T07:28:22Z</time>
      </trkpt>
      <trkpt lat="40.0032160" lon="-4.8330390">
        <ele>425.7</ele>
        <time>2020-10-04T07:28:24Z</time>
      </trkpt>
      <trkpt lat="40.0032320" lon="-4.8330400">
        <ele>425.6</ele>
        <time>2020-10-04T07:28:25Z</time>
      </trkpt>
      <trkpt lat="40.0032430" lon="-4.8330380">
        <ele>425.6</ele>
        <time>2020-10-04T07:28:26Z</time>
      </trkpt>
      <trkpt lat="40.0032530" lon="-4.8330370">
        <ele>425.6</ele>
        <time>2020-10-04T07:28:27Z</time>
      </trkpt>
      <trkpt lat="40.0032630" lon="-4.8330360">
        <ele>425.6</ele>
        <time>2020-10-04T07:28:29Z</time>
      </trkpt>
      <trkpt lat="40.0032740" lon="-4.8330350">
        <ele>425.6</ele>
        <time>2020-10-04T07:28:30Z</time>
      </trkpt>
      <trkpt lat="40.0032840" lon="-4.8330330">
        <ele>425.6</ele>
        <time>2020-10-04T07:28:31Z</time>
      </trkpt>
      <trkpt lat="40.0032950" lon="-4.8330320">
        <ele>425.6</ele>
        <time>2020-10-04T07:28:33Z</time>
      </trkpt>
      <trkpt lat="40.0033050" lon="-4.8330310">
        <ele>425.6</ele>
        <time>2020-10-04T07:28:35Z</time>
      </trkpt>
      <trkpt lat="40.0033150" lon="-4.8330300">
        <ele>425.5</ele>
        <time>2020-10-04T07:28:37Z</time>
      </trkpt>
      <trkpt lat="40.0033260" lon="-4.8330280">
        <ele>425.5</ele>
        <time>2020-10-04T07:28:44Z</time>
      </trkpt>
      <trkpt lat="40.0033360" lon="-4.8330270">
        <ele>425.5</ele>
        <time>2020-10-04T07:28:45Z</time>
      </trkpt>
      <trkpt lat="40.0034820" lon="-4.8328530">
        <ele>425.3</ele>
        <time>2020-10-04T07:28:47Z</time>
      </trkpt>
      <trkpt lat="40.0035330" lon="-4.8327900">
        <ele>425.1</ele>
        <time>2020-10-04T07:28:48Z</time>
      </trkpt>
      <trkpt lat="40.0036180" lon="-4.8326820">
        <ele>424.8</ele>
        <time>2020-10-04T07:28:50Z</time>
      </trkpt>
      <trkpt lat="40.0037040" lon="-4.8325810">
        <ele>424.5</ele>
        <time>2020-10-04T07:28:52Z</time>
      </trkpt>
      <trkpt lat="40.0037940" lon="-4.8324860">
        <ele>424.3</ele>
        <time>2020-10-04T07:28:54Z</time>
      </trkpt>
      <trkpt lat="40.0038440" lon="-4.8324300">
        <ele>424.1</ele>
        <time>2020-10-04T07:28:55Z</time>
      </trkpt>
      <trkpt lat="40.0039350" lon="-4.8323150">
        <ele>423.9</ele>
        <time>2020-10-04T07:28:57Z</time>
      </trkpt>
      <trkpt lat="40.0039780" lon="-4.8322580">
        <ele>423.8</ele>
        <time>2020-10-04T07:28:58Z</time>
      </trkpt>
      <trkpt lat="40.0040570" lon="-4.8321460">
        <ele>423.7</ele>
        <time>2020-10-04T07:29:00Z</time>
      </trkpt>
      <trkpt lat="40.0041290" lon="-4.8320320">
        <ele>423.6</ele>
        <time>2020-10-04T07:29:02Z</time>
      </trkpt>
      <trkpt lat="40.0041630" lon="-4.8319750">
        <ele>423.6</ele>
        <time>2020-10-04T07:29:03Z</time>
      </trkpt>
      <trkpt lat="40.0042290" lon="-4.8318620">
        <ele>423.5</ele>
        <time>2020-10-04T07:29:05Z</time>
      </trkpt>
      <trkpt lat="40.0042590" lon="-4.8318070">
        <ele>423.5</ele>
        <time>2020-10-04T07:29:06Z</time>
      </trkpt>
      <trkpt lat="40.0042850" lon="-4.8317550">
        <ele>423.5</ele>
        <time>2020-10-04T07:29:07Z</time>
      </trkpt>
      <trkpt lat="40.0043270" lon="-4.8316640">
        <ele>423.4</ele>
        <time>2020-10-04T07:29:09Z</time>
      </trkpt>
      <trkpt lat="40.0043500" lon="-4.8316230">
        <ele>423.4</ele>
        <time>2020-10-04T07:29:10Z</time>
      </trkpt>
      <trkpt lat="40.0043740" lon="-4.8315830">
        <ele>423.4</ele>
        <time>2020-10-04T07:29:11Z</time>
      </trkpt>
      <trkpt lat="40.0044260" lon="-4.8315060">
        <ele>423.4</ele>
        <time>2020-10-04T07:29:13Z</time>
      </trkpt>
      <trkpt lat="40.0044790" lon="-4.8314220">
        <ele>423.4</ele>
        <time>2020-10-04T07:29:15Z</time>
      </trkpt>
      <trkpt lat="40.0045070" lon="-4.8313770">
        <ele>423.4</ele>
        <time>2020-10-04T07:29:16Z</time>
      </trkpt>
      <trkpt lat="40.0045630" lon="-4.8312860">
        <ele>423.5</ele>
        <time>2020-10-04T07:29:18Z</time>
      </trkpt>
      <trkpt lat="40.0046230" lon="-4.8312020">
        <ele>423.4</ele>
        <time>2020-10-04T07:29:20Z</time>
      </trkpt>
      <trkpt lat="40.0046550" lon="-4.8311650">
        <ele>423.4</ele>
        <time>2020-10-04T07:29:21Z</time>
      </trkpt>
      <trkpt lat="40.0046870" lon="-4.8311260">
        <ele>423.4</ele>
        <time>2020-10-04T07:29:22Z</time>
      </trkpt>
      <trkpt lat="40.0047490" lon="-4.8310430">
        <ele>423.3</ele>
        <time>2020-10-04T07:29:24Z</time>
      </trkpt>
      <trkpt lat="40.0047780" lon="-4.8309990">
        <ele>423.1</ele>
        <time>2020-10-04T07:29:25Z</time>
      </trkpt>
      <trkpt lat="40.0048380" lon="-4.8309080">
        <ele>422.9</ele>
        <time>2020-10-04T07:29:27Z</time>
      </trkpt>
      <trkpt lat="40.0049000" lon="-4.8308140">
        <ele>422.7</ele>
        <time>2020-10-04T07:29:29Z</time>
      </trkpt>
      <trkpt lat="40.0049320" lon="-4.8307660">
        <ele>422.7</ele>
        <time>2020-10-04T07:29:30Z</time>
      </trkpt>
      <trkpt lat="40.0049710" lon="-4.8307210">
        <ele>422.8</ele>
        <time>2020-10-04T07:29:31Z</time>
      </trkpt>
      <trkpt lat="40.0050150" lon="-4.8306800">
        <ele>422.8</ele>
        <time>2020-10-04T07:29:32Z</time>
      </trkpt>
      <trkpt lat="40.0051090" lon="-4.8306050">
        <ele>423.2</ele>
        <time>2020-10-04T07:29:34Z</time>
      </trkpt>
      <trkpt lat="40.0052030" lon="-4.8305430">
        <ele>423.8</ele>
        <time>2020-10-04T07:29:36Z</time>
      </trkpt>
      <trkpt lat="40.0052880" lon="-4.8304850">
        <ele>424.5</ele>
        <time>2020-10-04T07:29:38Z</time>
      </trkpt>
      <trkpt lat="40.0053260" lon="-4.8304540">
        <ele>424.8</ele>
        <time>2020-10-04T07:29:39Z</time>
      </trkpt>
      <trkpt lat="40.0053920" lon="-4.8303860">
        <ele>425.3</ele>
        <time>2020-10-04T07:29:41Z</time>
      </trkpt>
      <trkpt lat="40.0054220" lon="-4.8303480">
        <ele>425.5</ele>
        <time>2020-10-04T07:29:42Z</time>
      </trkpt>
      <trkpt lat="40.0054410" lon="-4.8303230">
        <ele>425.7</ele>
        <time>2020-10-04T07:29:43Z</time>
      </trkpt>
      <trkpt lat="40.0054700" lon="-4.8302850">
        <ele>425.9</ele>
        <time>2020-10-04T07:29:44Z</time>
      </trkpt>
      <trkpt lat="40.0055190" lon="-4.8302140">
        <ele>426.2</ele>
        <time>2020-10-04T07:29:46Z</time>
      </trkpt>
      <trkpt lat="40.0055730" lon="-4.8301420">
        <ele>426.6</ele>
        <time>2020-10-04T07:29:48Z</time>
      </trkpt>
      <trkpt lat="40.0056370" lon="-4.8300760">
        <ele>426.9</ele>
        <time>2020-10-04T07:29:50Z</time>
      </trkpt>
      <trkpt lat="40.0056670" lon="-4.8300700">
        <ele>427.0</ele>
        <time>2020-10-04T07:29:51Z</time>
      </trkpt>
      <trkpt lat="40.0056870" lon="-4.8300560">
        <ele>427.1</ele>
        <time>2020-10-04T07:29:52Z</time>
      </trkpt>
      <trkpt lat="40.0056950" lon="-4.8300450">
        <ele>427.2</ele>
        <time>2020-10-04T07:29:53Z</time>
      </trkpt>
      <trkpt lat="40.0057030" lon="-4.8300340">
        <ele>427.3</ele>
        <time>2020-10-04T07:29:54Z</time>
      </trkpt>
      <trkpt lat="40.0057200" lon="-4.8300170">
        <ele>427.4</ele>
        <time>2020-10-04T07:29:55Z</time>
      </trkpt>
      <trkpt lat="40.0057560" lon="-4.8299910">
        <ele>427.6</ele>
        <time>2020-10-04T07:29:57Z</time>
      </trkpt>
      <trkpt lat="40.0057760" lon="-4.8299650">
        <ele>427.7</ele>
        <time>2020-10-04T07:29:58Z</time>
      </trkpt>
      <trkpt lat="40.0058510" lon="-4.8298680">
        <ele>428.2</ele>
        <time>2020-10-04T07:29:59Z</time>
      </trkpt>
      <trkpt lat="40.0058920" lon="-4.8298170">
        <ele>428.3</ele>
        <time>2020-10-04T07:30:00Z</time>
      </trkpt>
      <trkpt lat="40.0059440" lon="-4.8297520">
        <ele>428.5</ele>
        <time>2020-10-04T07:30:02Z</time>
      </trkpt>
      <trkpt lat="40.0059760" lon="-4.8297140">
        <ele>428.5</ele>
        <time>2020-10-04T07:30:03Z</time>
      </trkpt>
      <trkpt lat="40.0060070" lon="-4.8296770">
        <ele>428.5</ele>
        <time>2020-10-04T07:30:04Z</time>
      </trkpt>
      <trkpt lat="40.0060490" lon="-4.8296330">
        <ele>428.4</ele>
        <time>2020-10-04T07:30:05Z</time>
      </trkpt>
      <trkpt lat="40.0060750" lon="-4.8295970">
        <ele>428.3</ele>
        <time>2020-10-04T07:30:06Z</time>
      </trkpt>
      <trkpt lat="40.0061130" lon="-4.8295340">
        <ele>428.2</ele>
        <time>2020-10-04T07:30:08Z</time>
      </trkpt>
      <trkpt lat="40.0061360" lon="-4.8294720">
        <ele>428.0</ele>
        <time>2020-10-04T07:30:09Z</time>
      </trkpt>
      <trkpt lat="40.0061550" lon="-4.8294120">
        <ele>428.0</ele>
        <time>2020-10-04T07:30:10Z</time>
      </trkpt>
      <trkpt lat="40.0061820" lon="-4.8293510">
        <ele>428.0</ele>
        <time>2020-10-04T07:30:11Z</time>
      </trkpt>
      <trkpt lat="40.0062380" lon="-4.8292400">
        <ele>428.4</ele>
        <time>2020-10-04T07:30:12Z</time>
      </trkpt>
      <trkpt lat="40.0062780" lon="-4.8291650">
        <ele>428.7</ele>
        <time>2020-10-04T07:30:13Z</time>
      </trkpt>
      <trkpt lat="40.0063490" lon="-4.8290700">
        <ele>429.3</ele>
        <time>2020-10-04T07:30:15Z</time>
      </trkpt>
      <trkpt lat="40.0064100" lon="-4.8290400">
        <ele>429.6</ele>
        <time>2020-10-04T07:30:17Z</time>
      </trkpt>
      <trkpt lat="40.0064450" lon="-4.8290180">
        <ele>429.7</ele>
        <time>2020-10-04T07:30:18Z</time>
      </trkpt>
      <trkpt lat="40.0064920" lon="-4.8289880">
        <ele>429.9</ele>
        <time>2020-10-04T07:30:20Z</time>
      </trkpt>
      <trkpt lat="40.0065480" lon="-4.8289640">
        <ele>430.1</ele>
        <time>2020-10-04T07:30:22Z</time>
      </trkpt>
      <trkpt lat="40.0065950" lon="-4.8289440">
        <ele>430.2</ele>
        <time>2020-10-04T07:30:23Z</time>
      </trkpt>
      <trkpt lat="40.0066420" lon="-4.8289210">
        <ele>430.2</ele>
        <time>2020-10-04T07:30:24Z</time>
      </trkpt>
      <trkpt lat="40.0066810" lon="-4.8288980">
        <ele>430.3</ele>
        <time>2020-10-04T07:30:25Z</time>
      </trkpt>
      <trkpt lat="40.0067140" lon="-4.8288690">
        <ele>430.4</ele>
        <time>2020-10-04T07:30:26Z</time>
      </trkpt>
      <trkpt lat="40.0067590" lon="-4.8288060">
        <ele>430.5</ele>
        <time>2020-10-04T07:30:28Z</time>
      </trkpt>
      <trkpt lat="40.0067900" lon="-4.8287610">
        <ele>430.6</ele>
        <time>2020-10-04T07:30:29Z</time>
      </trkpt>
      <trkpt lat="40.0068360" lon="-4.8286900">
        <ele>430.7</ele>
        <time>2020-10-04T07:30:31Z</time>
      </trkpt>
      <trkpt lat="40.0068740" lon="-4.8286180">
        <ele>430.7</ele>
        <time>2020-10-04T07:30:33Z</time>
      </trkpt>
      <trkpt lat="40.0068970" lon="-4.8285800">
        <ele>430.8</ele>
        <time>2020-10-04T07:30:34Z</time>
      </trkpt>
      <trkpt lat="40.0069330" lon="-4.8285190">
        <ele>430.9</ele>
        <time>2020-10-04T07:30:36Z</time>
      </trkpt>
      <trkpt lat="40.0069550" lon="-4.8284790">
        <ele>430.9</ele>
        <time>2020-10-04T07:30:37Z</time>
      </trkpt>
      <trkpt lat="40.0069850" lon="-4.8284320">
        <ele>431.0</ele>
        <time>2020-10-04T07:30:38Z</time>
      </trkpt>
      <trkpt lat="40.0070150" lon="-4.8283770">
        <ele>431.0</ele>
        <time>2020-10-04T07:30:40Z</time>
      </trkpt>
      <trkpt lat="40.0070400" lon="-4.8283280">
        <ele>431.1</ele>
        <time>2020-10-04T07:30:41Z</time>
      </trkpt>
      <trkpt lat="40.0070650" lon="-4.8282830">
        <ele>431.2</ele>
        <time>2020-10-04T07:30:42Z</time>
      </trkpt>
      <trkpt lat="40.0071040" lon="-4.8282250">
        <ele>431.4</ele>
        <time>2020-10-04T07:30:44Z</time>
      </trkpt>
      <trkpt lat="40.0071290" lon="-4.8281870">
        <ele>431.6</ele>
        <time>2020-10-04T07:30:45Z</time>
      </trkpt>
      <trkpt lat="40.0071640" lon="-4.8281380">
        <ele>431.8</ele>
        <time>2020-10-04T07:30:47Z</time>
      </trkpt>
      <trkpt lat="40.0071950" lon="-4.8280970">
        <ele>432.1</ele>
        <time>2020-10-04T07:30:48Z</time>
      </trkpt>
      <trkpt lat="40.0072440" lon="-4.8280340">
        <ele>432.6</ele>
        <time>2020-10-04T07:30:50Z</time>
      </trkpt>
      <trkpt lat="40.0072730" lon="-4.8279910">
        <ele>432.9</ele>
        <time>2020-10-04T07:30:51Z</time>
      </trkpt>
      <trkpt lat="40.0073220" lon="-4.8279350">
        <ele>433.5</ele>
        <time>2020-10-04T07:30:53Z</time>
      </trkpt>
      <trkpt lat="40.0073660" lon="-4.8278780">
        <ele>434.0</ele>
        <time>2020-10-04T07:30:55Z</time>
      </trkpt>
      <trkpt lat="40.0073950" lon="-4.8278460">
        <ele>434.3</ele>
        <time>2020-10-04T07:30:56Z</time>
      </trkpt>
      <trkpt lat="40.0074270" lon="-4.8278150">
        <ele>434.5</ele>
        <time>2020-10-04T07:30:57Z</time>
      </trkpt>
      <trkpt lat="40.0074670" lon="-4.8277770">
        <ele>434.6</ele>
        <time>2020-10-04T07:30:59Z</time>
      </trkpt>
      <trkpt lat="40.0074930" lon="-4.8277320">
        <ele>434.6</ele>
        <time>2020-10-04T07:31:00Z</time>
      </trkpt>
      <trkpt lat="40.0075080" lon="-4.8277010">
        <ele>434.6</ele>
        <time>2020-10-04T07:31:01Z</time>
      </trkpt>
      <trkpt lat="40.0075240" lon="-4.8276630">
        <ele>434.6</ele>
        <time>2020-10-04T07:31:02Z</time>
      </trkpt>
      <trkpt lat="40.0075510" lon="-4.8276160">
        <ele>434.6</ele>
        <time>2020-10-04T07:31:04Z</time>
      </trkpt>
      <trkpt lat="40.0075630" lon="-4.8275950">
        <ele>434.6</ele>
        <time>2020-10-04T07:31:05Z</time>
      </trkpt>
      <trkpt lat="40.0075820" lon="-4.8275570">
        <ele>434.5</ele>
        <time>2020-10-04T07:31:06Z</time>
      </trkpt>
      <trkpt lat="40.0075960" lon="-4.8275250">
        <ele>434.4</ele>
        <time>2020-10-04T07:31:07Z</time>
      </trkpt>
      <trkpt lat="40.0076230" lon="-4.8274830">
        <ele>434.3</ele>
        <time>2020-10-04T07:31:08Z</time>
      </trkpt>
      <trkpt lat="40.0076600" lon="-4.8274370">
        <ele>434.1</ele>
        <time>2020-10-04T07:31:09Z</time>
      </trkpt>
      <trkpt lat="40.0077100" lon="-4.8273800">
        <ele>433.9</ele>
        <time>2020-10-04T07:31:11Z</time>
      </trkpt>
      <trkpt lat="40.0077670" lon="-4.8273180">
        <ele>433.8</ele>
        <time>2020-10-04T07:31:12Z</time>
      </trkpt>
      <trkpt lat="40.0078370" lon="-4.8272450">
        <ele>433.6</ele>
        <time>2020-10-04T07:31:14Z</time>
      </trkpt>
      <trkpt lat="40.0078930" lon="-4.8271920">
        <ele>433.5</ele>
        <time>2020-10-04T07:31:15Z</time>
      </trkpt>
      <trkpt lat="40.0079450" lon="-4.8271400">
        <ele>433.5</ele>
        <time>2020-10-04T07:31:16Z</time>
      </trkpt>
      <trkpt lat="40.0079880" lon="-4.8270940">
        <ele>433.4</ele>
        <time>2020-10-04T07:31:17Z</time>
      </trkpt>
      <trkpt lat="40.0080390" lon="-4.8270470">
        <ele>433.3</ele>
        <time>2020-10-04T07:31:19Z</time>
      </trkpt>
      <trkpt lat="40.0081300" lon="-4.8269770">
        <ele>433.2</ele>
        <time>2020-10-04T07:31:20Z</time>
      </trkpt>
      <trkpt lat="40.0081870" lon="-4.8269400">
        <ele>433.1</ele>
        <time>2020-10-04T07:31:21Z</time>
      </trkpt>
      <trkpt lat="40.0082420" lon="-4.8269060">
        <ele>433.1</ele>
        <time>2020-10-04T07:31:22Z</time>
      </trkpt>
      <trkpt lat="40.0083470" lon="-4.8268480">
        <ele>433.0</ele>
        <time>2020-10-04T07:31:24Z</time>
      </trkpt>
      <trkpt lat="40.0083940" lon="-4.8268190">
        <ele>432.9</ele>
        <time>2020-10-04T07:31:25Z</time>
      </trkpt>
      <trkpt lat="40.0084340" lon="-4.8267880">
        <ele>432.8</ele>
        <time>2020-10-04T07:31:26Z</time>
      </trkpt>
      <trkpt lat="40.0084690" lon="-4.8267600">
        <ele>432.7</ele>
        <time>2020-10-04T07:31:27Z</time>
      </trkpt>
      <trkpt lat="40.0085060" lon="-4.8267360">
        <ele>432.6</ele>
        <time>2020-10-04T07:31:29Z</time>
      </trkpt>
      <trkpt lat="40.0085800" lon="-4.8266800">
        <ele>432.3</ele>
        <time>2020-10-04T07:31:30Z</time>
      </trkpt>
      <trkpt lat="40.0086150" lon="-4.8266330">
        <ele>432.1</ele>
        <time>2020-10-04T07:31:31Z</time>
      </trkpt>
      <trkpt lat="40.0086520" lon="-4.8265790">
        <ele>431.9</ele>
        <time>2020-10-04T07:31:32Z</time>
      </trkpt>
      <trkpt lat="40.0087250" lon="-4.8264370">
        <ele>431.8</ele>
        <time>2020-10-04T07:31:34Z</time>
      </trkpt>
      <trkpt lat="40.0088150" lon="-4.8263190">
        <ele>432.0</ele>
        <time>2020-10-04T07:31:36Z</time>
      </trkpt>
      <trkpt lat="40.0089100" lon="-4.8262620">
        <ele>432.6</ele>
        <time>2020-10-04T07:31:38Z</time>
      </trkpt>
      <trkpt lat="40.0089760" lon="-4.8262390">
        <ele>433.0</ele>
        <time>2020-10-04T07:31:40Z</time>
      </trkpt>
      <trkpt lat="40.0090310" lon="-4.8262200">
        <ele>433.5</ele>
        <time>2020-10-04T07:31:42Z</time>
      </trkpt>
      <trkpt lat="40.0090830" lon="-4.8261880">
        <ele>434.0</ele>
        <time>2020-10-04T07:31:44Z</time>
      </trkpt>
      <trkpt lat="40.0091090" lon="-4.8261460">
        <ele>434.3</ele>
        <time>2020-10-04T07:31:46Z</time>
      </trkpt>
      <trkpt lat="40.0091290" lon="-4.8260970">
        <ele>434.6</ele>
        <time>2020-10-04T07:31:47Z</time>
      </trkpt>
      <trkpt lat="40.0091910" lon="-4.8260890">
        <ele>434.9</ele>
        <time>2020-10-04T07:31:49Z</time>
      </trkpt>
      <trkpt lat="40.0092260" lon="-4.8260860">
        <ele>435.1</ele>
        <time>2020-10-04T07:31:50Z</time>
      </trkpt>
      <trkpt lat="40.0092760" lon="-4.8260640">
        <ele>435.2</ele>
        <time>2020-10-04T07:31:52Z</time>
      </trkpt>
      <trkpt lat="40.0093010" lon="-4.8260500">
        <ele>435.3</ele>
        <time>2020-10-04T07:31:53Z</time>
      </trkpt>
      <trkpt lat="40.0093270" lon="-4.8260320">
        <ele>435.3</ele>
        <time>2020-10-04T07:31:54Z</time>
      </trkpt>
      <trkpt lat="40.0093870" lon="-4.8259900">
        <ele>435.2</ele>
        <time>2020-10-04T07:31:56Z</time>
      </trkpt>
      <trkpt lat="40.0094300" lon="-4.8259490">
        <ele>435.1</ele>
        <time>2020-10-04T07:31:57Z</time>
      </trkpt>
      <trkpt lat="40.0095180" lon="-4.8258410">
        <ele>434.7</ele>
        <time>2020-10-04T07:31:59Z</time>
      </trkpt>
      <trkpt lat="40.0095600" lon="-4.8257850">
        <ele>434.5</ele>
        <time>2020-10-04T07:32:00Z</time>
      </trkpt>
      <trkpt lat="40.0096020" lon="-4.8257290">
        <ele>434.2</ele>
        <time>2020-10-04T07:32:01Z</time>
      </trkpt>
      <trkpt lat="40.0096440" lon="-4.8256760">
        <ele>433.9</ele>
        <time>2020-10-04T07:32:02Z</time>
      </trkpt>
      <trkpt lat="40.0097180" lon="-4.8255670">
        <ele>433.7</ele>
        <time>2020-10-04T07:32:04Z</time>
      </trkpt>
      <trkpt lat="40.0097540" lon="-4.8255110">
        <ele>433.5</ele>
        <time>2020-10-04T07:32:05Z</time>
      </trkpt>
      <trkpt lat="40.0098290" lon="-4.8253930">
        <ele>433.2</ele>
        <time>2020-10-04T07:32:07Z</time>
      </trkpt>
      <trkpt lat="40.0099130" lon="-4.8252620">
        <ele>433.1</ele>
        <time>2020-10-04T07:32:09Z</time>
      </trkpt>
      <trkpt lat="40.0099580" lon="-4.8251940">
        <ele>433.1</ele>
        <time>2020-10-04T07:32:10Z</time>
      </trkpt>
      <trkpt lat="40.0100010" lon="-4.8251290">
        <ele>433.2</ele>
        <time>2020-10-04T07:32:11Z</time>
      </trkpt>
      <trkpt lat="40.0100740" lon="-4.8250060">
        <ele>433.3</ele>
        <time>2020-10-04T07:32:13Z</time>
      </trkpt>
      <trkpt lat="40.0101210" lon="-4.8248930">
        <ele>433.5</ele>
        <time>2020-10-04T07:32:15Z</time>
      </trkpt>
      <trkpt lat="40.0101460" lon="-4.8248560">
        <ele>433.5</ele>
        <time>2020-10-04T07:32:16Z</time>
      </trkpt>
      <trkpt lat="40.0102060" lon="-4.8247910">
        <ele>433.7</ele>
        <time>2020-10-04T07:32:18Z</time>
      </trkpt>
      <trkpt lat="40.0102740" lon="-4.8247260">
        <ele>434.0</ele>
        <time>2020-10-04T07:32:20Z</time>
      </trkpt>
      <trkpt lat="40.0103390" lon="-4.8246920">
        <ele>434.3</ele>
        <time>2020-10-04T07:32:22Z</time>
      </trkpt>
      <trkpt lat="40.0103830" lon="-4.8246240">
        <ele>434.7</ele>
        <time>2020-10-04T07:32:24Z</time>
      </trkpt>
      <trkpt lat="40.0104310" lon="-4.8246400">
        <ele>435.0</ele>
        <time>2020-10-04T07:32:25Z</time>
      </trkpt>
      <trkpt lat="40.0104930" lon="-4.8246420">
        <ele>435.5</ele>
        <time>2020-10-04T07:32:27Z</time>
      </trkpt>
      <trkpt lat="40.0105280" lon="-4.8246360">
        <ele>435.8</ele>
        <time>2020-10-04T07:32:28Z</time>
      </trkpt>
      <trkpt lat="40.0105930" lon="-4.8246240">
        <ele>436.4</ele>
        <time>2020-10-04T07:32:30Z</time>
      </trkpt>
      <trkpt lat="40.0106270" lon="-4.8246130">
        <ele>436.7</ele>
        <time>2020-10-04T07:32:31Z</time>
      </trkpt>
      <trkpt lat="40.0106830" lon="-4.8245880">
        <ele>437.3</ele>
        <time>2020-10-04T07:32:33Z</time>
      </trkpt>
      <trkpt lat="40.0107170" lon="-4.8245700">
        <ele>437.6</ele>
        <time>2020-10-04T07:32:34Z</time>
      </trkpt>
      <trkpt lat="40.0107610" lon="-4.8245590">
        <ele>437.9</ele>
        <time>2020-10-04T07:32:35Z</time>
      </trkpt>
      <trkpt lat="40.0107910" lon="-4.8245560">
        <ele>438.0</ele>
        <time>2020-10-04T07:32:36Z</time>
      </trkpt>
      <trkpt lat="40.0108170" lon="-4.8245560">
        <ele>438.1</ele>
        <time>2020-10-04T07:32:37Z</time>
      </trkpt>
      <trkpt lat="40.0108610" lon="-4.8245470">
        <ele>438.1</ele>
        <time>2020-10-04T07:32:39Z</time>
      </trkpt>
      <trkpt lat="40.0108970" lon="-4.8245430">
        <ele>438.1</ele>
        <time>2020-10-04T07:32:40Z</time>
      </trkpt>
      <trkpt lat="40.0109080" lon="-4.8245410">
        <ele>438.1</ele>
        <time>2020-10-04T07:32:41Z</time>
      </trkpt>
      <trkpt lat="40.0109350" lon="-4.8245250">
        <ele>438.0</ele>
        <time>2020-10-04T07:32:43Z</time>
      </trkpt>
      <trkpt lat="40.0109600" lon="-4.8245020">
        <ele>438.0</ele>
        <time>2020-10-04T07:32:44Z</time>
      </trkpt>
      <trkpt lat="40.0109810" lon="-4.8244670">
        <ele>437.8</ele>
        <time>2020-10-04T07:32:45Z</time>
      </trkpt>
      <trkpt lat="40.0109860" lon="-4.8244520">
        <ele>437.8</ele>
        <time>2020-10-04T07:32:46Z</time>
      </trkpt>
      <trkpt lat="40.0110080" lon="-4.8243900">
        <ele>437.5</ele>
        <time>2020-10-04T07:32:48Z</time>
      </trkpt>
      <trkpt lat="40.0110250" lon="-4.8243050">
        <ele>437.2</ele>
        <time>2020-10-04T07:32:50Z</time>
      </trkpt>
      <trkpt lat="40.0110380" lon="-4.8242130">
        <ele>436.9</ele>
        <time>2020-10-04T07:32:51Z</time>
      </trkpt>
      <trkpt lat="40.0110540" lon="-4.8241280">
        <ele>436.6</ele>
        <time>2020-10-04T07:32:53Z</time>
      </trkpt>
      <trkpt lat="40.0110820" lon="-4.8240390">
        <ele>436.3</ele>
        <time>2020-10-04T07:32:54Z</time>
      </trkpt>
      <trkpt lat="40.0111360" lon="-4.8239330">
        <ele>435.8</ele>
        <time>2020-10-04T07:32:56Z</time>
      </trkpt>
      <trkpt lat="40.0111860" lon="-4.8238490">
        <ele>435.4</ele>
        <time>2020-10-04T07:32:57Z</time>
      </trkpt>
      <trkpt lat="40.0112660" lon="-4.8237430">
        <ele>434.7</ele>
        <time>2020-10-04T07:32:59Z</time>
      </trkpt>
      <trkpt lat="40.0113680" lon="-4.8236120">
        <ele>434.0</ele>
        <time>2020-10-04T07:33:00Z</time>
      </trkpt>
      <trkpt lat="40.0114200" lon="-4.8235420">
        <ele>433.7</ele>
        <time>2020-10-04T07:33:01Z</time>
      </trkpt>
      <trkpt lat="40.0115210" lon="-4.8233970">
        <ele>433.3</ele>
        <time>2020-10-04T07:33:03Z</time>
      </trkpt>
      <trkpt lat="40.0115700" lon="-4.8233230">
        <ele>433.2</ele>
        <time>2020-10-04T07:33:04Z</time>
      </trkpt>
      <trkpt lat="40.0116650" lon="-4.8231890">
        <ele>433.2</ele>
        <time>2020-10-04T07:33:06Z</time>
      </trkpt>
      <trkpt lat="40.0117570" lon="-4.8230730">
        <ele>433.2</ele>
        <time>2020-10-04T07:33:08Z</time>
      </trkpt>
      <trkpt lat="40.0118010" lon="-4.8230170">
        <ele>433.2</ele>
        <time>2020-10-04T07:33:09Z</time>
      </trkpt>
      <trkpt lat="40.0118830" lon="-4.8229030">
        <ele>433.3</ele>
        <time>2020-10-04T07:33:11Z</time>
      </trkpt>
      <trkpt lat="40.0119530" lon="-4.8227890">
        <ele>433.5</ele>
        <time>2020-10-04T07:33:13Z</time>
      </trkpt>
      <trkpt lat="40.0120150" lon="-4.8226680">
        <ele>433.7</ele>
        <time>2020-10-04T07:33:15Z</time>
      </trkpt>
      <trkpt lat="40.0120660" lon="-4.8225530">
        <ele>433.8</ele>
        <time>2020-10-04T07:33:17Z</time>
      </trkpt>
      <trkpt lat="40.0120900" lon="-4.8224960">
        <ele>433.8</ele>
        <time>2020-10-04T07:33:18Z</time>
      </trkpt>
      <trkpt lat="40.0121170" lon="-4.8224400">
        <ele>433.9</ele>
        <time>2020-10-04T07:33:19Z</time>
      </trkpt>
      <trkpt lat="40.0121790" lon="-4.8223380">
        <ele>433.9</ele>
        <time>2020-10-04T07:33:21Z</time>
      </trkpt>
      <trkpt lat="40.0122520" lon="-4.8222490">
        <ele>433.9</ele>
        <time>2020-10-04T07:33:23Z</time>
      </trkpt>
      <trkpt lat="40.0122900" lon="-4.8222060">
        <ele>433.9</ele>
        <time>2020-10-04T07:33:24Z</time>
      </trkpt>
      <trkpt lat="40.0123280" lon="-4.8221620">
        <ele>433.9</ele>
        <time>2020-10-04T07:33:25Z</time>
      </trkpt>
      <trkpt lat="40.0123640" lon="-4.8221170">
        <ele>434.0</ele>
        <time>2020-10-04T07:33:26Z</time>
      </trkpt>
      <trkpt lat="40.0124340" lon="-4.8220290">
        <ele>434.1</ele>
        <time>2020-10-04T07:33:28Z</time>
      </trkpt>
      <trkpt lat="40.0125010" lon="-4.8219400">
        <ele>434.3</ele>
        <time>2020-10-04T07:33:30Z</time>
      </trkpt>
      <trkpt lat="40.0125330" lon="-4.8218940">
        <ele>434.4</ele>
        <time>2020-10-04T07:33:31Z</time>
      </trkpt>
      <trkpt lat="40.0125820" lon="-4.8217990">
        <ele>434.8</ele>
        <time>2020-10-04T07:33:33Z</time>
      </trkpt>
      <trkpt lat="40.0126040" lon="-4.8217530">
        <ele>435.0</ele>
        <time>2020-10-04T07:33:34Z</time>
      </trkpt>
      <trkpt lat="40.0126440" lon="-4.8216750">
        <ele>435.5</ele>
        <time>2020-10-04T07:33:36Z</time>
      </trkpt>
      <trkpt lat="40.0126630" lon="-4.8216450">
        <ele>435.8</ele>
        <time>2020-10-04T07:33:37Z</time>
      </trkpt>
      <trkpt lat="40.0126900" lon="-4.8216100">
        <ele>436.1</ele>
        <time>2020-10-04T07:33:38Z</time>
      </trkpt>
      <trkpt lat="40.0127380" lon="-4.8215530">
        <ele>436.7</ele>
        <time>2020-10-04T07:33:40Z</time>
      </trkpt>
      <trkpt lat="40.0127760" lon="-4.8215100">
        <ele>437.2</ele>
        <time>2020-10-04T07:33:41Z</time>
      </trkpt>
      <trkpt lat="40.0127930" lon="-4.8214670">
        <ele>437.5</ele>
        <time>2020-10-04T07:33:43Z</time>
      </trkpt>
      <trkpt lat="40.0128230" lon="-4.8214260">
        <ele>437.8</ele>
        <time>2020-10-04T07:33:44Z</time>
      </trkpt>
      <trkpt lat="40.0128540" lon="-4.8214070">
        <ele>438.1</ele>
        <time>2020-10-04T07:33:46Z</time>
      </trkpt>
      <trkpt lat="40.0128940" lon="-4.8213760">
        <ele>438.3</ele>
        <time>2020-10-04T07:33:47Z</time>
      </trkpt>
      <trkpt lat="40.0129290" lon="-4.8213500">
        <ele>438.5</ele>
        <time>2020-10-04T07:33:48Z</time>
      </trkpt>
      <trkpt lat="40.0129620" lon="-4.8213200">
        <ele>438.6</ele>
        <time>2020-10-04T07:33:49Z</time>
      </trkpt>
      <trkpt lat="40.0130050" lon="-4.8212760">
        <ele>438.7</ele>
        <time>2020-10-04T07:33:51Z</time>
      </trkpt>
      <trkpt lat="40.0130400" lon="-4.8212470">
        <ele>438.7</ele>
        <time>2020-10-04T07:33:52Z</time>
      </trkpt>
      <trkpt lat="40.0130800" lon="-4.8212110">
        <ele>438.6</ele>
        <time>2020-10-04T07:33:53Z</time>
      </trkpt>
      <trkpt lat="40.0131130" lon="-4.8211840">
        <ele>438.5</ele>
        <time>2020-10-04T07:33:54Z</time>
      </trkpt>
      <trkpt lat="40.0131500" lon="-4.8211520">
        <ele>438.7</ele>
        <time>2020-10-04T07:33:55Z</time>
      </trkpt>
      <trkpt lat="40.0131950" lon="-4.8211070">
        <ele>438.8</ele>
        <time>2020-10-04T07:33:57Z</time>
      </trkpt>
      <trkpt lat="40.0132410" lon="-4.8210600">
        <ele>439.0</ele>
        <time>2020-10-04T07:33:58Z</time>
      </trkpt>
      <trkpt lat="40.0132800" lon="-4.8210170">
        <ele>439.2</ele>
        <time>2020-10-04T07:33:59Z</time>
      </trkpt>
      <trkpt lat="40.0133320" lon="-4.8209570">
        <ele>439.4</ele>
        <time>2020-10-04T07:34:01Z</time>
      </trkpt>
      <trkpt lat="40.0133730" lon="-4.8209140">
        <ele>439.6</ele>
        <time>2020-10-04T07:34:02Z</time>
      </trkpt>
      <trkpt lat="40.0134170" lon="-4.8208570">
        <ele>439.8</ele>
        <time>2020-10-04T07:34:04Z</time>
      </trkpt>
      <trkpt lat="40.0134480" lon="-4.8208180">
        <ele>439.9</ele>
        <time>2020-10-04T07:34:05Z</time>
      </trkpt>
      <trkpt lat="40.0134890" lon="-4.8207690">
        <ele>440.1</ele>
        <time>2020-10-04T07:34:06Z</time>
      </trkpt>
      <trkpt lat="40.0135260" lon="-4.8207220">
        <ele>440.3</ele>
        <time>2020-10-04T07:34:08Z</time>
      </trkpt>
      <trkpt lat="40.0135560" lon="-4.8206860">
        <ele>440.4</ele>
        <time>2020-10-04T07:34:09Z</time>
      </trkpt>
      <trkpt lat="40.0135940" lon="-4.8206430">
        <ele>440.6</ele>
        <time>2020-10-04T07:34:10Z</time>
      </trkpt>
      <trkpt lat="40.0136190" lon="-4.8206090">
        <ele>440.7</ele>
        <time>2020-10-04T07:34:11Z</time>
      </trkpt>
      <trkpt lat="40.0136440" lon="-4.8205740">
        <ele>440.8</ele>
        <time>2020-10-04T07:34:12Z</time>
      </trkpt>
      <trkpt lat="40.0136980" lon="-4.8205040">
        <ele>441.1</ele>
        <time>2020-10-04T07:34:14Z</time>
      </trkpt>
      <trkpt lat="40.0137320" lon="-4.8204620">
        <ele>441.3</ele>
        <time>2020-10-04T07:34:15Z</time>
      </trkpt>
      <trkpt lat="40.0137580" lon="-4.8204230">
        <ele>441.4</ele>
        <time>2020-10-04T07:34:16Z</time>
      </trkpt>
      <trkpt lat="40.0137960" lon="-4.8203650">
        <ele>441.5</ele>
        <time>2020-10-04T07:34:18Z</time>
      </trkpt>
      <trkpt lat="40.0138270" lon="-4.8203220">
        <ele>441.6</ele>
        <time>2020-10-04T07:34:19Z</time>
      </trkpt>
      <trkpt lat="40.0138580" lon="-4.8202850">
        <ele>441.7</ele>
        <time>2020-10-04T07:34:20Z</time>
      </trkpt>
      <trkpt lat="40.0139040" lon="-4.8202270">
        <ele>441.8</ele>
        <time>2020-10-04T07:34:22Z</time>
      </trkpt>
      <trkpt lat="40.0139340" lon="-4.8201930">
        <ele>441.8</ele>
        <time>2020-10-04T07:34:23Z</time>
      </trkpt>
      <trkpt lat="40.0139750" lon="-4.8201490">
        <ele>441.9</ele>
        <time>2020-10-04T07:34:24Z</time>
      </trkpt>
      <trkpt lat="40.0140370" lon="-4.8200890">
        <ele>441.9</ele>
        <time>2020-10-04T07:34:26Z</time>
      </trkpt>
      <trkpt lat="40.0140990" lon="-4.8200310">
        <ele>442.0</ele>
        <time>2020-10-04T07:34:28Z</time>
      </trkpt>
      <trkpt lat="40.0141650" lon="-4.8199810">
        <ele>442.1</ele>
        <time>2020-10-04T07:34:30Z</time>
      </trkpt>
      <trkpt lat="40.0142110" lon="-4.8199500">
        <ele>442.2</ele>
        <time>2020-10-04T07:34:31Z</time>
      </trkpt>
      <trkpt lat="40.0142450" lon="-4.8199370">
        <ele>442.3</ele>
        <time>2020-10-04T07:34:32Z</time>
      </trkpt>
      <trkpt lat="40.0142800" lon="-4.8199320">
        <ele>442.3</ele>
        <time>2020-10-04T07:34:33Z</time>
      </trkpt>
      <trkpt lat="40.0143180" lon="-4.8199330">
        <ele>442.4</ele>
        <time>2020-10-04T07:34:34Z</time>
      </trkpt>
      <trkpt lat="40.0143650" lon="-4.8199290">
        <ele>442.4</ele>
        <time>2020-10-04T07:34:36Z</time>
      </trkpt>
      <trkpt lat="40.0144010" lon="-4.8199280">
        <ele>442.5</ele>
        <time>2020-10-04T07:34:37Z</time>
      </trkpt>
      <trkpt lat="40.0144600" lon="-4.8199130">
        <ele>442.5</ele>
        <time>2020-10-04T07:34:39Z</time>
      </trkpt>
      <trkpt lat="40.0144810" lon="-4.8198860">
        <ele>442.6</ele>
        <time>2020-10-04T07:34:40Z</time>
      </trkpt>
      <trkpt lat="40.0145400" lon="-4.8198190">
        <ele>442.6</ele>
        <time>2020-10-04T07:34:42Z</time>
      </trkpt>
      <trkpt lat="40.0145960" lon="-4.8197810">
        <ele>442.7</ele>
        <time>2020-10-04T07:34:44Z</time>
      </trkpt>
      <trkpt lat="40.0146140" lon="-4.8197540">
        <ele>442.7</ele>
        <time>2020-10-04T07:34:45Z</time>
      </trkpt>
      <trkpt lat="40.0146400" lon="-4.8197180">
        <ele>442.7</ele>
        <time>2020-10-04T07:34:47Z</time>
      </trkpt>
      <trkpt lat="40.0146620" lon="-4.8196850">
        <ele>442.7</ele>
        <time>2020-10-04T07:34:48Z</time>
      </trkpt>
      <trkpt lat="40.0146940" lon="-4.8196470">
        <ele>442.7</ele>
        <time>2020-10-04T07:34:49Z</time>
      </trkpt>
      <trkpt lat="40.0147260" lon="-4.8196310">
        <ele>442.7</ele>
        <time>2020-10-04T07:34:50Z</time>
      </trkpt>
      <trkpt lat="40.0147760" lon="-4.8196090">
        <ele>442.7</ele>
        <time>2020-10-04T07:34:52Z</time>
      </trkpt>
      <trkpt lat="40.0148220" lon="-4.8195660">
        <ele>442.8</ele>
        <time>2020-10-04T07:34:53Z</time>
      </trkpt>
      <trkpt lat="40.0148510" lon="-4.8195350">
        <ele>442.8</ele>
        <time>2020-10-04T07:34:55Z</time>
      </trkpt>
      <trkpt lat="40.0148870" lon="-4.8195230">
        <ele>442.7</ele>
        <time>2020-10-04T07:34:56Z</time>
      </trkpt>
      <trkpt lat="40.0149450" lon="-4.8195260">
        <ele>442.6</ele>
        <time>2020-10-04T07:34:57Z</time>
      </trkpt>
      <trkpt lat="40.0150500" lon="-4.8195380">
        <ele>442.6</ele>
        <time>2020-10-04T07:34:59Z</time>
      </trkpt>
      <trkpt lat="40.0151490" lon="-4.8195680">
        <ele>442.6</ele>
        <time>2020-10-04T07:35:01Z</time>
      </trkpt>
      <trkpt lat="40.0152380" lon="-4.8195970">
        <ele>442.6</ele>
        <time>2020-10-04T07:35:03Z</time>
      </trkpt>
      <trkpt lat="40.0153030" lon="-4.8196200">
        <ele>442.7</ele>
        <time>2020-10-04T07:35:04Z</time>
      </trkpt>
      <trkpt lat="40.0153660" lon="-4.8196390">
        <ele>442.7</ele>
        <time>2020-10-04T07:35:05Z</time>
      </trkpt>
      <trkpt lat="40.0154680" lon="-4.8196520">
        <ele>442.8</ele>
        <time>2020-10-04T07:35:07Z</time>
      </trkpt>
      <trkpt lat="40.0155740" lon="-4.8196600">
        <ele>442.8</ele>
        <time>2020-10-04T07:35:09Z</time>
      </trkpt>
      <trkpt lat="40.0156210" lon="-4.8196600">
        <ele>442.7</ele>
        <time>2020-10-04T07:35:10Z</time>
      </trkpt>
      <trkpt lat="40.0157130" lon="-4.8196500">
        <ele>442.5</ele>
        <time>2020-10-04T07:35:12Z</time>
      </trkpt>
      <trkpt lat="40.0158120" lon="-4.8196310">
        <ele>442.2</ele>
        <time>2020-10-04T07:35:14Z</time>
      </trkpt>
      <trkpt lat="40.0159150" lon="-4.8196170">
        <ele>441.9</ele>
        <time>2020-10-04T07:35:16Z</time>
      </trkpt>
      <trkpt lat="40.0160200" lon="-4.8196060">
        <ele>441.6</ele>
        <time>2020-10-04T07:35:18Z</time>
      </trkpt>
      <trkpt lat="40.0161300" lon="-4.8195970">
        <ele>441.3</ele>
        <time>2020-10-04T07:35:20Z</time>
      </trkpt>
      <trkpt lat="40.0161850" lon="-4.8195880">
        <ele>441.2</ele>
        <time>2020-10-04T07:35:21Z</time>
      </trkpt>
      <trkpt lat="40.0162980" lon="-4.8195710">
        <ele>440.9</ele>
        <time>2020-10-04T07:35:23Z</time>
      </trkpt>
      <trkpt lat="40.0164110" lon="-4.8195550">
        <ele>440.7</ele>
        <time>2020-10-04T07:35:25Z</time>
      </trkpt>
      <trkpt lat="40.0165220" lon="-4.8195270">
        <ele>440.5</ele>
        <time>2020-10-04T07:35:27Z</time>
      </trkpt>
      <trkpt lat="40.0165770" lon="-4.8195120">
        <ele>440.4</ele>
        <time>2020-10-04T07:35:28Z</time>
      </trkpt>
      <trkpt lat="40.0166340" lon="-4.8194960">
        <ele>440.3</ele>
        <time>2020-10-04T07:35:29Z</time>
      </trkpt>
      <trkpt lat="40.0166920" lon="-4.8194800">
        <ele>440.2</ele>
        <time>2020-10-04T07:35:30Z</time>
      </trkpt>
      <trkpt lat="40.0168090" lon="-4.8194460">
        <ele>440.0</ele>
        <time>2020-10-04T07:35:32Z</time>
      </trkpt>
      <trkpt lat="40.0168690" lon="-4.8194230">
        <ele>439.9</ele>
        <time>2020-10-04T07:35:33Z</time>
      </trkpt>
      <trkpt lat="40.0169270" lon="-4.8193950">
        <ele>439.8</ele>
        <time>2020-10-04T07:35:34Z</time>
      </trkpt>
      <trkpt lat="40.0169820" lon="-4.8193620">
        <ele>439.7</ele>
        <time>2020-10-04T07:35:35Z</time>
      </trkpt>
      <trkpt lat="40.0170910" lon="-4.8192980">
        <ele>439.6</ele>
        <time>2020-10-04T07:35:37Z</time>
      </trkpt>
      <trkpt lat="40.0171980" lon="-4.8192530">
        <ele>439.5</ele>
        <time>2020-10-04T07:35:39Z</time>
      </trkpt>
      <trkpt lat="40.0172530" lon="-4.8192330">
        <ele>439.4</ele>
        <time>2020-10-04T07:35:40Z</time>
      </trkpt>
      <trkpt lat="40.0173060" lon="-4.8192110">
        <ele>439.4</ele>
        <time>2020-10-04T07:35:41Z</time>
      </trkpt>
      <trkpt lat="40.0173970" lon="-4.8191450">
        <ele>439.3</ele>
        <time>2020-10-04T07:35:43Z</time>
      </trkpt>
      <trkpt lat="40.0174410" lon="-4.8191080">
        <ele>439.3</ele>
        <time>2020-10-04T07:35:44Z</time>
      </trkpt>
      <trkpt lat="40.0174840" lon="-4.8190730">
        <ele>439.2</ele>
        <time>2020-10-04T07:35:45Z</time>
      </trkpt>
      <trkpt lat="40.0175780" lon="-4.8190020">
        <ele>439.1</ele>
        <time>2020-10-04T07:35:47Z</time>
      </trkpt>
      <trkpt lat="40.0176260" lon="-4.8189660">
        <ele>439.1</ele>
        <time>2020-10-04T07:35:48Z</time>
      </trkpt>
      <trkpt lat="40.0176720" lon="-4.8189280">
        <ele>439.2</ele>
        <time>2020-10-04T07:35:49Z</time>
      </trkpt>
      <trkpt lat="40.0177500" lon="-4.8188360">
        <ele>439.2</ele>
        <time>2020-10-04T07:35:51Z</time>
      </trkpt>
      <trkpt lat="40.0178200" lon="-4.8187350">
        <ele>439.2</ele>
        <time>2020-10-04T07:35:53Z</time>
      </trkpt>
      <trkpt lat="40.0178820" lon="-4.8186230">
        <ele>439.3</ele>
        <time>2020-10-04T07:35:55Z</time>
      </trkpt>
      <trkpt lat="40.0179370" lon="-4.8185000">
        <ele>439.5</ele>
        <time>2020-10-04T07:35:57Z</time>
      </trkpt>
      <trkpt lat="40.0179640" lon="-4.8184410">
        <ele>439.5</ele>
        <time>2020-10-04T07:35:58Z</time>
      </trkpt>
      <trkpt lat="40.0180150" lon="-4.8183280">
        <ele>439.7</ele>
        <time>2020-10-04T07:36:00Z</time>
      </trkpt>
      <trkpt lat="40.0180690" lon="-4.8182220">
        <ele>439.8</ele>
        <time>2020-10-04T07:36:02Z</time>
      </trkpt>
      <trkpt lat="40.0181070" lon="-4.8181800">
        <ele>439.8</ele>
        <time>2020-10-04T07:36:03Z</time>
      </trkpt>
      <trkpt lat="40.0181490" lon="-4.8181420">
        <ele>439.8</ele>
        <time>2020-10-04T07:36:04Z</time>
      </trkpt>
      <trkpt lat="40.0182360" lon="-4.8180700">
        <ele>439.9</ele>
        <time>2020-10-04T07:36:06Z</time>
      </trkpt>
      <trkpt lat="40.0182800" lon="-4.8180380">
        <ele>439.9</ele>
        <time>2020-10-04T07:36:07Z</time>
      </trkpt>
      <trkpt lat="40.0183270" lon="-4.8180070">
        <ele>439.9</ele>
        <time>2020-10-04T07:36:08Z</time>
      </trkpt>
      <trkpt lat="40.0183730" lon="-4.8179770">
        <ele>439.9</ele>
        <time>2020-10-04T07:36:09Z</time>
      </trkpt>
      <trkpt lat="40.0184650" lon="-4.8179050">
        <ele>439.9</ele>
        <time>2020-10-04T07:36:11Z</time>
      </trkpt>
      <trkpt lat="40.0185550" lon="-4.8178360">
        <ele>439.9</ele>
        <time>2020-10-04T07:36:13Z</time>
      </trkpt>
      <trkpt lat="40.0186030" lon="-4.8178020">
        <ele>440.0</ele>
        <time>2020-10-04T07:36:14Z</time>
      </trkpt>
      <trkpt lat="40.0186500" lon="-4.8177690">
        <ele>440.1</ele>
        <time>2020-10-04T07:36:15Z</time>
      </trkpt>
      <trkpt lat="40.0187430" lon="-4.8177090">
        <ele>440.3</ele>
        <time>2020-10-04T07:36:17Z</time>
      </trkpt>
      <trkpt lat="40.0187920" lon="-4.8176840">
        <ele>440.4</ele>
        <time>2020-10-04T07:36:18Z</time>
      </trkpt>
      <trkpt lat="40.0188890" lon="-4.8176390">
        <ele>440.6</ele>
        <time>2020-10-04T07:36:20Z</time>
      </trkpt>
      <trkpt lat="40.0189780" lon="-4.8175900">
        <ele>440.7</ele>
        <time>2020-10-04T07:36:22Z</time>
      </trkpt>
      <trkpt lat="40.0190620" lon="-4.8175250">
        <ele>440.7</ele>
        <time>2020-10-04T07:36:24Z</time>
      </trkpt>
      <trkpt lat="40.0191380" lon="-4.8174450">
        <ele>440.7</ele>
        <time>2020-10-04T07:36:26Z</time>
      </trkpt>
      <trkpt lat="40.0192070" lon="-4.8173510">
        <ele>440.8</ele>
        <time>2020-10-04T07:36:29Z</time>
      </trkpt>
      <trkpt lat="40.0192800" lon="-4.8172640">
        <ele>440.8</ele>
        <time>2020-10-04T07:36:30Z</time>
      </trkpt>
      <trkpt lat="40.0193170" lon="-4.8172200">
        <ele>440.9</ele>
        <time>2020-10-04T07:36:31Z</time>
      </trkpt>
      <trkpt lat="40.0193560" lon="-4.8171760">
        <ele>440.9</ele>
        <time>2020-10-04T07:36:32Z</time>
      </trkpt>
      <trkpt lat="40.0194350" lon="-4.8170900">
        <ele>441.1</ele>
        <time>2020-10-04T07:36:34Z</time>
      </trkpt>
      <trkpt lat="40.0195160" lon="-4.8170140">
        <ele>441.2</ele>
        <time>2020-10-04T07:36:36Z</time>
      </trkpt>
      <trkpt lat="40.0195580" lon="-4.8169800">
        <ele>441.2</ele>
        <time>2020-10-04T07:36:37Z</time>
      </trkpt>
      <trkpt lat="40.0196480" lon="-4.8169280">
        <ele>441.4</ele>
        <time>2020-10-04T07:36:39Z</time>
      </trkpt>
      <trkpt lat="40.0196950" lon="-4.8169070">
        <ele>441.4</ele>
        <time>2020-10-04T07:36:40Z</time>
      </trkpt>
      <trkpt lat="40.0197840" lon="-4.8168570">
        <ele>441.6</ele>
        <time>2020-10-04T07:36:42Z</time>
      </trkpt>
      <trkpt lat="40.0198690" lon="-4.8168000">
        <ele>441.7</ele>
        <time>2020-10-04T07:36:44Z</time>
      </trkpt>
      <trkpt lat="40.0199490" lon="-4.8167400">
        <ele>441.9</ele>
        <time>2020-10-04T07:36:46Z</time>
      </trkpt>
      <trkpt lat="40.0199860" lon="-4.8167080">
        <ele>441.9</ele>
        <time>2020-10-04T07:36:47Z</time>
      </trkpt>
      <trkpt lat="40.0200250" lon="-4.8166760">
        <ele>442.0</ele>
        <time>2020-10-04T07:36:48Z</time>
      </trkpt>
      <trkpt lat="40.0201020" lon="-4.8166090">
        <ele>442.2</ele>
        <time>2020-10-04T07:36:50Z</time>
      </trkpt>
      <trkpt lat="40.0201410" lon="-4.8165710">
        <ele>442.3</ele>
        <time>2020-10-04T07:36:51Z</time>
      </trkpt>
      <trkpt lat="40.0202210" lon="-4.8165040">
        <ele>442.4</ele>
        <time>2020-10-04T07:36:53Z</time>
      </trkpt>
      <trkpt lat="40.0202640" lon="-4.8164720">
        <ele>442.5</ele>
        <time>2020-10-04T07:36:54Z</time>
      </trkpt>
      <trkpt lat="40.0203440" lon="-4.8164040">
        <ele>442.6</ele>
        <time>2020-10-04T07:36:56Z</time>
      </trkpt>
      <trkpt lat="40.0203830" lon="-4.8163690">
        <ele>442.7</ele>
        <time>2020-10-04T07:36:57Z</time>
      </trkpt>
      <trkpt lat="40.0204220" lon="-4.8163350">
        <ele>442.8</ele>
        <time>2020-10-04T07:36:58Z</time>
      </trkpt>
      <trkpt lat="40.0204580" lon="-4.8163010">
        <ele>442.9</ele>
        <time>2020-10-04T07:36:59Z</time>
      </trkpt>
      <trkpt lat="40.0205290" lon="-4.8162360">
        <ele>443.1</ele>
        <time>2020-10-04T07:37:01Z</time>
      </trkpt>
      <trkpt lat="40.0205640" lon="-4.8162030">
        <ele>443.3</ele>
        <time>2020-10-04T07:37:02Z</time>
      </trkpt>
      <trkpt lat="40.0206320" lon="-4.8161340">
        <ele>443.6</ele>
        <time>2020-10-04T07:37:04Z</time>
      </trkpt>
      <trkpt lat="40.0206630" lon="-4.8160970">
        <ele>443.7</ele>
        <time>2020-10-04T07:37:05Z</time>
      </trkpt>
      <trkpt lat="40.0206820" lon="-4.8160700">
        <ele>443.8</ele>
        <time>2020-10-04T07:37:06Z</time>
      </trkpt>
      <trkpt lat="40.0207400" lon="-4.8159930">
        <ele>444.1</ele>
        <time>2020-10-04T07:37:08Z</time>
      </trkpt>
      <trkpt lat="40.0207730" lon="-4.8159520">
        <ele>444.2</ele>
        <time>2020-10-04T07:37:09Z</time>
      </trkpt>
      <trkpt lat="40.0208290" lon="-4.8158740">
        <ele>444.5</ele>
        <time>2020-10-04T07:37:11Z</time>
      </trkpt>
      <trkpt lat="40.0208720" lon="-4.8158120">
        <ele>444.7</ele>
        <time>2020-10-04T07:37:13Z</time>
      </trkpt>
      <trkpt lat="40.0209030" lon="-4.8157780">
        <ele>444.8</ele>
        <time>2020-10-04T07:37:14Z</time>
      </trkpt>
      <trkpt lat="40.0209380" lon="-4.8157270">
        <ele>445.0</ele>
        <time>2020-10-04T07:37:15Z</time>
      </trkpt>
      <trkpt lat="40.0209670" lon="-4.8156780">
        <ele>445.1</ele>
        <time>2020-10-04T07:37:16Z</time>
      </trkpt>
      <trkpt lat="40.0210100" lon="-4.8156170">
        <ele>445.3</ele>
        <time>2020-10-04T07:37:18Z</time>
      </trkpt>
      <trkpt lat="40.0210390" lon="-4.8155830">
        <ele>445.4</ele>
        <time>2020-10-04T07:37:19Z</time>
      </trkpt>
      <trkpt lat="40.0210750" lon="-4.8155440">
        <ele>445.5</ele>
        <time>2020-10-04T07:37:20Z</time>
      </trkpt>
      <trkpt lat="40.0211140" lon="-4.8155030">
        <ele>445.6</ele>
        <time>2020-10-04T07:37:21Z</time>
      </trkpt>
      <trkpt lat="40.0211610" lon="-4.8154540">
        <ele>445.8</ele>
        <time>2020-10-04T07:37:23Z</time>
      </trkpt>
      <trkpt lat="40.0211960" lon="-4.8154230">
        <ele>445.9</ele>
        <time>2020-10-04T07:37:24Z</time>
      </trkpt>
      <trkpt lat="40.0212300" lon="-4.8153930">
        <ele>446.0</ele>
        <time>2020-10-04T07:37:25Z</time>
      </trkpt>
      <trkpt lat="40.0212660" lon="-4.8153600">
        <ele>446.2</ele>
        <time>2020-10-04T07:37:26Z</time>
      </trkpt>
      <trkpt lat="40.0213040" lon="-4.8153310">
        <ele>446.3</ele>
        <time>2020-10-04T07:37:27Z</time>
      </trkpt>
      <trkpt lat="40.0213490" lon="-4.8152940">
        <ele>446.5</ele>
        <time>2020-10-04T07:37:28Z</time>
      </trkpt>
      <trkpt lat="40.0214010" lon="-4.8152450">
        <ele>446.7</ele>
        <time>2020-10-04T07:37:30Z</time>
      </trkpt>
      <trkpt lat="40.0214490" lon="-4.8152140">
        <ele>446.9</ele>
        <time>2020-10-04T07:37:31Z</time>
      </trkpt>
      <trkpt lat="40.0214990" lon="-4.8151800">
        <ele>447.1</ele>
        <time>2020-10-04T07:37:33Z</time>
      </trkpt>
      <trkpt lat="40.0215420" lon="-4.8151430">
        <ele>447.2</ele>
        <time>2020-10-04T07:37:34Z</time>
      </trkpt>
      <trkpt lat="40.0215900" lon="-4.8151010">
        <ele>447.3</ele>
        <time>2020-10-04T07:37:35Z</time>
      </trkpt>
      <trkpt lat="40.0216310" lon="-4.8150650">
        <ele>447.5</ele>
        <time>2020-10-04T07:37:37Z</time>
      </trkpt>
      <trkpt lat="40.0216630" lon="-4.8150340">
        <ele>447.6</ele>
        <time>2020-10-04T07:37:38Z</time>
      </trkpt>
      <trkpt lat="40.0216960" lon="-4.8150000">
        <ele>447.6</ele>
        <time>2020-10-04T07:37:39Z</time>
      </trkpt>
      <trkpt lat="40.0217350" lon="-4.8149670">
        <ele>447.7</ele>
        <time>2020-10-04T07:37:40Z</time>
      </trkpt>
      <trkpt lat="40.0217740" lon="-4.8149320">
        <ele>447.8</ele>
        <time>2020-10-04T07:37:41Z</time>
      </trkpt>
      <trkpt lat="40.0218100" lon="-4.8148960">
        <ele>447.9</ele>
        <time>2020-10-04T07:37:42Z</time>
      </trkpt>
      <trkpt lat="40.0218620" lon="-4.8148540">
        <ele>448.1</ele>
        <time>2020-10-04T07:37:44Z</time>
      </trkpt>
      <trkpt lat="40.0219000" lon="-4.8148200">
        <ele>448.1</ele>
        <time>2020-10-04T07:37:45Z</time>
      </trkpt>
      <trkpt lat="40.0219730" lon="-4.8147460">
        <ele>448.3</ele>
        <time>2020-10-04T07:37:47Z</time>
      </trkpt>
      <trkpt lat="40.0220260" lon="-4.8146970">
        <ele>448.4</ele>
        <time>2020-10-04T07:37:49Z</time>
      </trkpt>
      <trkpt lat="40.0220720" lon="-4.8146580">
        <ele>448.4</ele>
        <time>2020-10-04T07:37:50Z</time>
      </trkpt>
      <trkpt lat="40.0221570" lon="-4.8145980">
        <ele>448.5</ele>
        <time>2020-10-04T07:37:52Z</time>
      </trkpt>
      <trkpt lat="40.0222210" lon="-4.8145600">
        <ele>448.5</ele>
        <time>2020-10-04T07:37:54Z</time>
      </trkpt>
      <trkpt lat="40.0223080" lon="-4.8145130">
        <ele>448.6</ele>
        <time>2020-10-04T07:37:56Z</time>
      </trkpt>
      <trkpt lat="40.0223490" lon="-4.8144920">
        <ele>448.6</ele>
        <time>2020-10-04T07:37:57Z</time>
      </trkpt>
      <trkpt lat="40.0223900" lon="-4.8144670">
        <ele>448.7</ele>
        <time>2020-10-04T07:37:58Z</time>
      </trkpt>
      <trkpt lat="40.0224710" lon="-4.8144280">
        <ele>448.7</ele>
        <time>2020-10-04T07:38:00Z</time>
      </trkpt>
      <trkpt lat="40.0225620" lon="-4.8143880">
        <ele>448.7</ele>
        <time>2020-10-04T07:38:02Z</time>
      </trkpt>
      <trkpt lat="40.0226070" lon="-4.8143640">
        <ele>448.8</ele>
        <time>2020-10-04T07:38:03Z</time>
      </trkpt>
      <trkpt lat="40.0226540" lon="-4.8143420">
        <ele>448.8</ele>
        <time>2020-10-04T07:38:04Z</time>
      </trkpt>
      <trkpt lat="40.0227240" lon="-4.8143080">
        <ele>448.8</ele>
        <time>2020-10-04T07:38:06Z</time>
      </trkpt>
      <trkpt lat="40.0227740" lon="-4.8142840">
        <ele>448.8</ele>
        <time>2020-10-04T07:38:07Z</time>
      </trkpt>
      <trkpt lat="40.0228240" lon="-4.8142620">
        <ele>448.8</ele>
        <time>2020-10-04T07:38:08Z</time>
      </trkpt>
      <trkpt lat="40.0229450" lon="-4.8142030">
        <ele>448.9</ele>
        <time>2020-10-04T07:38:10Z</time>
      </trkpt>
      <trkpt lat="40.0229950" lon="-4.8141800">
        <ele>449.0</ele>
        <time>2020-10-04T07:38:11Z</time>
      </trkpt>
      <trkpt lat="40.0230850" lon="-4.8141300">
        <ele>449.0</ele>
        <time>2020-10-04T07:38:13Z</time>
      </trkpt>
      <trkpt lat="40.0231290" lon="-4.8141030">
        <ele>449.1</ele>
        <time>2020-10-04T07:38:14Z</time>
      </trkpt>
      <trkpt lat="40.0232140" lon="-4.8140470">
        <ele>449.2</ele>
        <time>2020-10-04T07:38:16Z</time>
      </trkpt>
      <trkpt lat="40.0232540" lon="-4.8140160">
        <ele>449.2</ele>
        <time>2020-10-04T07:38:17Z</time>
      </trkpt>
      <trkpt lat="40.0232940" lon="-4.8139840">
        <ele>449.3</ele>
        <time>2020-10-04T07:38:18Z</time>
      </trkpt>
      <trkpt lat="40.0233720" lon="-4.8139140">
        <ele>449.4</ele>
        <time>2020-10-04T07:38:20Z</time>
      </trkpt>
      <trkpt lat="40.0234450" lon="-4.8138340">
        <ele>449.5</ele>
        <time>2020-10-04T07:38:22Z</time>
      </trkpt>
      <trkpt lat="40.0235130" lon="-4.8137520">
        <ele>449.7</ele>
        <time>2020-10-04T07:38:24Z</time>
      </trkpt>
      <trkpt lat="40.0235790" lon="-4.8136710">
        <ele>449.9</ele>
        <time>2020-10-04T07:38:26Z</time>
      </trkpt>
      <trkpt lat="40.0236130" lon="-4.8136310">
        <ele>450.0</ele>
        <time>2020-10-04T07:38:27Z</time>
      </trkpt>
      <trkpt lat="40.0236790" lon="-4.8135530">
        <ele>450.1</ele>
        <time>2020-10-04T07:38:29Z</time>
      </trkpt>
      <trkpt lat="40.0237110" lon="-4.8135140">
        <ele>450.2</ele>
        <time>2020-10-04T07:38:30Z</time>
      </trkpt>
      <trkpt lat="40.0237440" lon="-4.8134740">
        <ele>450.3</ele>
        <time>2020-10-04T07:38:31Z</time>
      </trkpt>
      <trkpt lat="40.0238130" lon="-4.8133940">
        <ele>450.5</ele>
        <time>2020-10-04T07:38:33Z</time>
      </trkpt>
      <trkpt lat="40.0238480" lon="-4.8133530">
        <ele>450.6</ele>
        <time>2020-10-04T07:38:34Z</time>
      </trkpt>
      <trkpt lat="40.0238810" lon="-4.8133130">
        <ele>450.6</ele>
        <time>2020-10-04T07:38:35Z</time>
      </trkpt>
      <trkpt lat="40.0239480" lon="-4.8132320">
        <ele>450.8</ele>
        <time>2020-10-04T07:38:37Z</time>
      </trkpt>
      <trkpt lat="40.0240150" lon="-4.8131510">
        <ele>450.9</ele>
        <time>2020-10-04T07:38:39Z</time>
      </trkpt>
      <trkpt lat="40.0240500" lon="-4.8131100">
        <ele>451.0</ele>
        <time>2020-10-04T07:38:40Z</time>
      </trkpt>
      <trkpt lat="40.0241180" lon="-4.8130270">
        <ele>451.2</ele>
        <time>2020-10-04T07:38:42Z</time>
      </trkpt>
      <trkpt lat="40.0241860" lon="-4.8129450">
        <ele>451.4</ele>
        <time>2020-10-04T07:38:44Z</time>
      </trkpt>
      <trkpt lat="40.0242530" lon="-4.8128630">
        <ele>451.5</ele>
        <time>2020-10-04T07:38:46Z</time>
      </trkpt>
      <trkpt lat="40.0242860" lon="-4.8128200">
        <ele>451.6</ele>
        <time>2020-10-04T07:38:47Z</time>
      </trkpt>
      <trkpt lat="40.0243180" lon="-4.8127770">
        <ele>451.7</ele>
        <time>2020-10-04T07:38:48Z</time>
      </trkpt>
      <trkpt lat="40.0243780" lon="-4.8126860">
        <ele>451.9</ele>
        <time>2020-10-04T07:38:50Z</time>
      </trkpt>
      <trkpt lat="40.0244310" lon="-4.8125900">
        <ele>452.1</ele>
        <time>2020-10-04T07:38:52Z</time>
      </trkpt>
      <trkpt lat="40.0244580" lon="-4.8125430">
        <ele>452.2</ele>
        <time>2020-10-04T07:38:53Z</time>
      </trkpt>
      <trkpt lat="40.0245140" lon="-4.8124480">
        <ele>452.4</ele>
        <time>2020-10-04T07:38:55Z</time>
      </trkpt>
      <trkpt lat="40.0245430" lon="-4.8123990">
        <ele>452.4</ele>
        <time>2020-10-04T07:38:56Z</time>
      </trkpt>
      <trkpt lat="40.0246060" lon="-4.8123110">
        <ele>452.7</ele>
        <time>2020-10-04T07:38:58Z</time>
      </trkpt>
      <trkpt lat="40.0246700" lon="-4.8122280">
        <ele>452.9</ele>
        <time>2020-10-04T07:39:00Z</time>
      </trkpt>
      <trkpt lat="40.0247340" lon="-4.8121530">
        <ele>453.1</ele>
        <time>2020-10-04T07:39:02Z</time>
      </trkpt>
      <trkpt lat="40.0247660" lon="-4.8121130">
        <ele>453.2</ele>
        <time>2020-10-04T07:39:03Z</time>
      </trkpt>
      <trkpt lat="40.0248250" lon="-4.8120370">
        <ele>453.3</ele>
        <time>2020-10-04T07:39:05Z</time>
      </trkpt>
      <trkpt lat="40.0248860" lon="-4.8119550">
        <ele>453.6</ele>
        <time>2020-10-04T07:39:07Z</time>
      </trkpt>
      <trkpt lat="40.0249130" lon="-4.8119160">
        <ele>453.7</ele>
        <time>2020-10-04T07:39:08Z</time>
      </trkpt>
      <trkpt lat="40.0249590" lon="-4.8118420">
        <ele>453.9</ele>
        <time>2020-10-04T07:39:10Z</time>
      </trkpt>
      <trkpt lat="40.0249850" lon="-4.8118020">
        <ele>454.1</ele>
        <time>2020-10-04T07:39:11Z</time>
      </trkpt>
      <trkpt lat="40.0250420" lon="-4.8117200">
        <ele>454.4</ele>
        <time>2020-10-04T07:39:13Z</time>
      </trkpt>
      <trkpt lat="40.0250750" lon="-4.8116730">
        <ele>454.5</ele>
        <time>2020-10-04T07:39:14Z</time>
      </trkpt>
      <trkpt lat="40.0251020" lon="-4.8116340">
        <ele>454.6</ele>
        <time>2020-10-04T07:39:15Z</time>
      </trkpt>
      <trkpt lat="40.0251650" lon="-4.8115510">
        <ele>454.8</ele>
        <time>2020-10-04T07:39:16Z</time>
      </trkpt>
      <trkpt lat="40.0252140" lon="-4.8115390">
        <ele>454.9</ele>
        <time>2020-10-04T07:39:18Z</time>
      </trkpt>
      <trkpt lat="40.0252250" lon="-4.8115010">
        <ele>455.0</ele>
        <time>2020-10-04T07:39:19Z</time>
      </trkpt>
      <trkpt lat="40.0252860" lon="-4.8114260">
        <ele>455.2</ele>
        <time>2020-10-04T07:39:21Z</time>
      </trkpt>
      <trkpt lat="40.0253420" lon="-4.8113650">
        <ele>455.3</ele>
        <time>2020-10-04T07:39:23Z</time>
      </trkpt>
      <trkpt lat="40.0253890" lon="-4.8113220">
        <ele>455.4</ele>
        <time>2020-10-04T07:39:24Z</time>
      </trkpt>
      <trkpt lat="40.0254280" lon="-4.8112850">
        <ele>455.5</ele>
        <time>2020-10-04T07:39:25Z</time>
      </trkpt>
      <trkpt lat="40.0254650" lon="-4.8112540">
        <ele>455.5</ele>
        <time>2020-10-04T07:39:26Z</time>
      </trkpt>
      <trkpt lat="40.0255160" lon="-4.8112160">
        <ele>455.7</ele>
        <time>2020-10-04T07:39:27Z</time>
      </trkpt>
      <trkpt lat="40.0255680" lon="-4.8111690">
        <ele>455.8</ele>
        <time>2020-10-04T07:39:29Z</time>
      </trkpt>
      <trkpt lat="40.0256300" lon="-4.8111130">
        <ele>456.0</ele>
        <time>2020-10-04T07:39:31Z</time>
      </trkpt>
      <trkpt lat="40.0256810" lon="-4.8110730">
        <ele>456.1</ele>
        <time>2020-10-04T07:39:32Z</time>
      </trkpt>
      <trkpt lat="40.0257210" lon="-4.8110420">
        <ele>456.2</ele>
        <time>2020-10-04T07:39:33Z</time>
      </trkpt>
      <trkpt lat="40.0257600" lon="-4.8110070">
        <ele>456.3</ele>
        <time>2020-10-04T07:39:34Z</time>
      </trkpt>
      <trkpt lat="40.0258090" lon="-4.8109650">
        <ele>456.5</ele>
        <time>2020-10-04T07:39:36Z</time>
      </trkpt>
      <trkpt lat="40.0258630" lon="-4.8109210">
        <ele>456.6</ele>
        <time>2020-10-04T07:39:37Z</time>
      </trkpt>
      <trkpt lat="40.0259250" lon="-4.8108700">
        <ele>456.7</ele>
        <time>2020-10-04T07:39:39Z</time>
      </trkpt>
      <trkpt lat="40.0259610" lon="-4.8108400">
        <ele>456.8</ele>
        <time>2020-10-04T07:39:40Z</time>
      </trkpt>
      <trkpt lat="40.0260070" lon="-4.8108030">
        <ele>456.9</ele>
        <time>2020-10-04T07:39:41Z</time>
      </trkpt>
      <trkpt lat="40.0260820" lon="-4.8107360">
        <ele>457.2</ele>
        <time>2020-10-04T07:39:43Z</time>
      </trkpt>
      <trkpt lat="40.0261520" lon="-4.8106670">
        <ele>457.4</ele>
        <time>2020-10-04T07:39:45Z</time>
      </trkpt>
      <trkpt lat="40.0261980" lon="-4.8106210">
        <ele>457.6</ele>
        <time>2020-10-04T07:39:47Z</time>
      </trkpt>
      <trkpt lat="40.0262490" lon="-4.8105660">
        <ele>457.8</ele>
        <time>2020-10-04T07:39:48Z</time>
      </trkpt>
      <trkpt lat="40.0262930" lon="-4.8105220">
        <ele>457.9</ele>
        <time>2020-10-04T07:39:49Z</time>
      </trkpt>
      <trkpt lat="40.0263510" lon="-4.8104630">
        <ele>458.2</ele>
        <time>2020-10-04T07:39:51Z</time>
      </trkpt>
      <trkpt lat="40.0263910" lon="-4.8104260">
        <ele>458.4</ele>
        <time>2020-10-04T07:39:52Z</time>
      </trkpt>
      <trkpt lat="40.0264380" lon="-4.8103890">
        <ele>458.6</ele>
        <time>2020-10-04T07:39:53Z</time>
      </trkpt>
      <trkpt lat="40.0264760" lon="-4.8103590">
        <ele>458.7</ele>
        <time>2020-10-04T07:39:54Z</time>
      </trkpt>
      <trkpt lat="40.0265260" lon="-4.8103150">
        <ele>459.0</ele>
        <time>2020-10-04T07:39:56Z</time>
      </trkpt>
      <trkpt lat="40.0265640" lon="-4.8102840">
        <ele>459.2</ele>
        <time>2020-10-04T07:39:57Z</time>
      </trkpt>
      <trkpt lat="40.0266050" lon="-4.8102470">
        <ele>459.4</ele>
        <time>2020-10-04T07:39:58Z</time>
      </trkpt>
      <trkpt lat="40.0266570" lon="-4.8102050">
        <ele>459.6</ele>
        <time>2020-10-04T07:39:59Z</time>
      </trkpt>
      <trkpt lat="40.0266980" lon="-4.8101780">
        <ele>459.8</ele>
        <time>2020-10-04T07:40:00Z</time>
      </trkpt>
      <trkpt lat="40.0267680" lon="-4.8101300">
        <ele>460.1</ele>
        <time>2020-10-04T07:40:02Z</time>
      </trkpt>
      <trkpt lat="40.0268260" lon="-4.8101010">
        <ele>460.4</ele>
        <time>2020-10-04T07:40:04Z</time>
      </trkpt>
      <trkpt lat="40.0268790" lon="-4.8100750">
        <ele>460.7</ele>
        <time>2020-10-04T07:40:05Z</time>
      </trkpt>
      <trkpt lat="40.0269230" lon="-4.8100590">
        <ele>460.9</ele>
        <time>2020-10-04T07:40:06Z</time>
      </trkpt>
      <trkpt lat="40.0269650" lon="-4.8100430">
        <ele>461.1</ele>
        <time>2020-10-04T07:40:07Z</time>
      </trkpt>
      <trkpt lat="40.0270280" lon="-4.8100170">
        <ele>461.4</ele>
        <time>2020-10-04T07:40:09Z</time>
      </trkpt>
      <trkpt lat="40.0270790" lon="-4.8099920">
        <ele>461.6</ele>
        <time>2020-10-04T07:40:10Z</time>
      </trkpt>
      <trkpt lat="40.0271120" lon="-4.8099800">
        <ele>461.7</ele>
        <time>2020-10-04T07:40:11Z</time>
      </trkpt>
      <trkpt lat="40.0271560" lon="-4.8099610">
        <ele>461.7</ele>
        <time>2020-10-04T07:40:13Z</time>
      </trkpt>
      <trkpt lat="40.0272010" lon="-4.8099450">
        <ele>461.7</ele>
        <time>2020-10-04T07:40:14Z</time>
      </trkpt>
      <trkpt lat="40.0272360" lon="-4.8099270">
        <ele>461.6</ele>
        <time>2020-10-04T07:40:15Z</time>
      </trkpt>
      <trkpt lat="40.0272840" lon="-4.8099060">
        <ele>461.4</ele>
        <time>2020-10-04T07:40:17Z</time>
      </trkpt>
      <trkpt lat="40.0273190" lon="-4.8098920">
        <ele>461.3</ele>
        <time>2020-10-04T07:40:18Z</time>
      </trkpt>
      <trkpt lat="40.0273520" lon="-4.8098700">
        <ele>461.0</ele>
        <time>2020-10-04T07:40:19Z</time>
      </trkpt>
      <trkpt lat="40.0273890" lon="-4.8098450">
        <ele>460.7</ele>
        <time>2020-10-04T07:40:20Z</time>
      </trkpt>
      <trkpt lat="40.0274280" lon="-4.8098170">
        <ele>460.4</ele>
        <time>2020-10-04T07:40:21Z</time>
      </trkpt>
      <trkpt lat="40.0274710" lon="-4.8097850">
        <ele>460.1</ele>
        <time>2020-10-04T07:40:22Z</time>
      </trkpt>
      <trkpt lat="40.0275210" lon="-4.8097460">
        <ele>459.5</ele>
        <time>2020-10-04T07:40:24Z</time>
      </trkpt>
      <trkpt lat="40.0275600" lon="-4.8097070">
        <ele>459.3</ele>
        <time>2020-10-04T07:40:25Z</time>
      </trkpt>
      <trkpt lat="40.0275950" lon="-4.8096530">
        <ele>459.1</ele>
        <time>2020-10-04T07:40:26Z</time>
      </trkpt>
      <trkpt lat="40.0276200" lon="-4.8096090">
        <ele>458.9</ele>
        <time>2020-10-04T07:40:27Z</time>
      </trkpt>
      <trkpt lat="40.0276440" lon="-4.8095620">
        <ele>458.7</ele>
        <time>2020-10-04T07:40:28Z</time>
      </trkpt>
      <trkpt lat="40.0277410" lon="-4.8093980">
        <ele>457.9</ele>
        <time>2020-10-04T07:40:30Z</time>
      </trkpt>
      <trkpt lat="40.0278370" lon="-4.8092430">
        <ele>457.2</ele>
        <time>2020-10-04T07:40:32Z</time>
      </trkpt>
      <trkpt lat="40.0278880" lon="-4.8091620">
        <ele>456.8</ele>
        <time>2020-10-04T07:40:33Z</time>
      </trkpt>
      <trkpt lat="40.0279370" lon="-4.8090820">
        <ele>456.4</ele>
        <time>2020-10-04T07:40:34Z</time>
      </trkpt>
      <trkpt lat="40.0279850" lon="-4.8090020">
        <ele>456.0</ele>
        <time>2020-10-04T07:40:35Z</time>
      </trkpt>
      <trkpt lat="40.0280870" lon="-4.8088470">
        <ele>455.3</ele>
        <time>2020-10-04T07:40:37Z</time>
      </trkpt>
      <trkpt lat="40.0281370" lon="-4.8087670">
        <ele>454.9</ele>
        <time>2020-10-04T07:40:38Z</time>
      </trkpt>
      <trkpt lat="40.0281920" lon="-4.8086900">
        <ele>454.5</ele>
        <time>2020-10-04T07:40:39Z</time>
      </trkpt>
      <trkpt lat="40.0282980" lon="-4.8085390">
        <ele>453.8</ele>
        <time>2020-10-04T07:40:41Z</time>
      </trkpt>
      <trkpt lat="40.0284030" lon="-4.8083810">
        <ele>453.0</ele>
        <time>2020-10-04T07:40:43Z</time>
      </trkpt>
      <trkpt lat="40.0284570" lon="-4.8082990">
        <ele>452.7</ele>
        <time>2020-10-04T07:40:44Z</time>
      </trkpt>
      <trkpt lat="40.0285100" lon="-4.8082160">
        <ele>452.4</ele>
        <time>2020-10-04T07:40:45Z</time>
      </trkpt>
      <trkpt lat="40.0286200" lon="-4.8080440">
        <ele>451.7</ele>
        <time>2020-10-04T07:40:47Z</time>
      </trkpt>
      <trkpt lat="40.0286750" lon="-4.8079560">
        <ele>451.3</ele>
        <time>2020-10-04T07:40:48Z</time>
      </trkpt>
      <trkpt lat="40.0287850" lon="-4.8077830">
        <ele>450.7</ele>
        <time>2020-10-04T07:40:50Z</time>
      </trkpt>
      <trkpt lat="40.0288390" lon="-4.8076960">
        <ele>450.5</ele>
        <time>2020-10-04T07:40:51Z</time>
      </trkpt>
      <trkpt lat="40.0289470" lon="-4.8075280">
        <ele>450.0</ele>
        <time>2020-10-04T07:40:53Z</time>
      </trkpt>
      <trkpt lat="40.0290540" lon="-4.8073580">
        <ele>449.6</ele>
        <time>2020-10-04T07:40:55Z</time>
      </trkpt>
      <trkpt lat="40.0291600" lon="-4.8071910">
        <ele>449.1</ele>
        <time>2020-10-04T07:40:57Z</time>
      </trkpt>
      <trkpt lat="40.0292140" lon="-4.8071100">
        <ele>448.9</ele>
        <time>2020-10-04T07:40:58Z</time>
      </trkpt>
      <trkpt lat="40.0293270" lon="-4.8069540">
        <ele>448.6</ele>
        <time>2020-10-04T07:41:00Z</time>
      </trkpt>
      <trkpt lat="40.0294400" lon="-4.8068100">
        <ele>448.2</ele>
        <time>2020-10-04T07:41:02Z</time>
      </trkpt>
      <trkpt lat="40.0295610" lon="-4.8066730">
        <ele>447.7</ele>
        <time>2020-10-04T07:41:04Z</time>
      </trkpt>
      <trkpt lat="40.0296870" lon="-4.8065430">
        <ele>447.4</ele>
        <time>2020-10-04T07:41:06Z</time>
      </trkpt>
      <trkpt lat="40.0297500" lon="-4.8064770">
        <ele>447.2</ele>
        <time>2020-10-04T07:41:07Z</time>
      </trkpt>
      <trkpt lat="40.0298740" lon="-4.8063450">
        <ele>446.9</ele>
        <time>2020-10-04T07:41:09Z</time>
      </trkpt>
      <trkpt lat="40.0299810" lon="-4.8062050">
        <ele>446.8</ele>
        <time>2020-10-04T07:41:11Z</time>
      </trkpt>
      <trkpt lat="40.0300510" lon="-4.8060350">
        <ele>446.6</ele>
        <time>2020-10-04T07:41:13Z</time>
      </trkpt>
      <trkpt lat="40.0300760" lon="-4.8059410">
        <ele>446.4</ele>
        <time>2020-10-04T07:41:14Z</time>
      </trkpt>
      <trkpt lat="40.0300940" lon="-4.8058430">
        <ele>446.3</ele>
        <time>2020-10-04T07:41:15Z</time>
      </trkpt>
      <trkpt lat="40.0301090" lon="-4.8057440">
        <ele>446.1</ele>
        <time>2020-10-04T07:41:16Z</time>
      </trkpt>
      <trkpt lat="40.0301430" lon="-4.8055450">
        <ele>445.7</ele>
        <time>2020-10-04T07:41:18Z</time>
      </trkpt>
      <trkpt lat="40.0301950" lon="-4.8053560">
        <ele>445.5</ele>
        <time>2020-10-04T07:41:20Z</time>
      </trkpt>
      <trkpt lat="40.0302710" lon="-4.8051900">
        <ele>445.1</ele>
        <time>2020-10-04T07:41:22Z</time>
      </trkpt>
      <trkpt lat="40.0303690" lon="-4.8050340">
        <ele>444.8</ele>
        <time>2020-10-04T07:41:24Z</time>
      </trkpt>
      <trkpt lat="40.0304230" lon="-4.8049610">
        <ele>444.7</ele>
        <time>2020-10-04T07:41:25Z</time>
      </trkpt>
      <trkpt lat="40.0305250" lon="-4.8048170">
        <ele>444.4</ele>
        <time>2020-10-04T07:41:27Z</time>
      </trkpt>
      <trkpt lat="40.0305770" lon="-4.8047460">
        <ele>444.3</ele>
        <time>2020-10-04T07:41:28Z</time>
      </trkpt>
      <trkpt lat="40.0306800" lon="-4.8046030">
        <ele>444.1</ele>
        <time>2020-10-04T07:41:30Z</time>
      </trkpt>
      <trkpt lat="40.0307280" lon="-4.8045290">
        <ele>444.0</ele>
        <time>2020-10-04T07:41:31Z</time>
      </trkpt>
      <trkpt lat="40.0308230" lon="-4.8043830">
        <ele>443.7</ele>
        <time>2020-10-04T07:41:33Z</time>
      </trkpt>
      <trkpt lat="40.0308730" lon="-4.8043110">
        <ele>443.5</ele>
        <time>2020-10-04T07:41:34Z</time>
      </trkpt>
      <trkpt lat="40.0309250" lon="-4.8042410">
        <ele>443.4</ele>
        <time>2020-10-04T07:41:35Z</time>
      </trkpt>
      <trkpt lat="40.0310280" lon="-4.8041010">
        <ele>443.2</ele>
        <time>2020-10-04T07:41:37Z</time>
      </trkpt>
      <trkpt lat="40.0310810" lon="-4.8040330">
        <ele>443.1</ele>
        <time>2020-10-04T07:41:38Z</time>
      </trkpt>
      <trkpt lat="40.0311820" lon="-4.8038940">
        <ele>442.8</ele>
        <time>2020-10-04T07:41:40Z</time>
      </trkpt>
      <trkpt lat="40.0312280" lon="-4.8038210">
        <ele>442.7</ele>
        <time>2020-10-04T07:41:41Z</time>
      </trkpt>
      <trkpt lat="40.0312740" lon="-4.8037490">
        <ele>442.7</ele>
        <time>2020-10-04T07:41:42Z</time>
      </trkpt>
      <trkpt lat="40.0313470" lon="-4.8035980">
        <ele>442.5</ele>
        <time>2020-10-04T07:41:44Z</time>
      </trkpt>
      <trkpt lat="40.0313730" lon="-4.8035190">
        <ele>442.3</ele>
        <time>2020-10-04T07:41:45Z</time>
      </trkpt>
      <trkpt lat="40.0314000" lon="-4.8034400">
        <ele>442.2</ele>
        <time>2020-10-04T07:41:46Z</time>
      </trkpt>
      <trkpt lat="40.0314640" lon="-4.8032870">
        <ele>442.1</ele>
        <time>2020-10-04T07:41:48Z</time>
      </trkpt>
      <trkpt lat="40.0315380" lon="-4.8031390">
        <ele>441.9</ele>
        <time>2020-10-04T07:41:50Z</time>
      </trkpt>
      <trkpt lat="40.0316400" lon="-4.8030250">
        <ele>441.9</ele>
        <time>2020-10-04T07:41:52Z</time>
      </trkpt>
      <trkpt lat="40.0317530" lon="-4.8029430">
        <ele>441.8</ele>
        <time>2020-10-04T07:41:54Z</time>
      </trkpt>
      <trkpt lat="40.0318600" lon="-4.8028600">
        <ele>441.8</ele>
        <time>2020-10-04T07:41:56Z</time>
      </trkpt>
      <trkpt lat="40.0319140" lon="-4.8028210">
        <ele>441.8</ele>
        <time>2020-10-04T07:41:57Z</time>
      </trkpt>
      <trkpt lat="40.0320230" lon="-4.8027490">
        <ele>441.8</ele>
        <time>2020-10-04T07:41:59Z</time>
      </trkpt>
      <trkpt lat="40.0320790" lon="-4.8027130">
        <ele>441.7</ele>
        <time>2020-10-04T07:42:00Z</time>
      </trkpt>
      <trkpt lat="40.0321910" lon="-4.8026390">
        <ele>441.6</ele>
        <time>2020-10-04T07:42:02Z</time>
      </trkpt>
      <trkpt lat="40.0322450" lon="-4.8025940">
        <ele>441.5</ele>
        <time>2020-10-04T07:42:03Z</time>
      </trkpt>
      <trkpt lat="40.0323490" lon="-4.8024860">
        <ele>441.3</ele>
        <time>2020-10-04T07:42:05Z</time>
      </trkpt>
      <trkpt lat="40.0323980" lon="-4.8024290">
        <ele>441.2</ele>
        <time>2020-10-04T07:42:06Z</time>
      </trkpt>
      <trkpt lat="40.0324900" lon="-4.8023140">
        <ele>441.1</ele>
        <time>2020-10-04T07:42:08Z</time>
      </trkpt>
      <trkpt lat="40.0325700" lon="-4.8021980">
        <ele>441.1</ele>
        <time>2020-10-04T07:42:10Z</time>
      </trkpt>
      <trkpt lat="40.0326070" lon="-4.8021400">
        <ele>441.1</ele>
        <time>2020-10-04T07:42:11Z</time>
      </trkpt>
      <trkpt lat="40.0326810" lon="-4.8020270">
        <ele>441.0</ele>
        <time>2020-10-04T07:42:13Z</time>
      </trkpt>
      <trkpt lat="40.0327200" lon="-4.8019680">
        <ele>441.0</ele>
        <time>2020-10-04T07:42:14Z</time>
      </trkpt>
      <trkpt lat="40.0327950" lon="-4.8018530">
        <ele>440.9</ele>
        <time>2020-10-04T07:42:16Z</time>
      </trkpt>
      <trkpt lat="40.0328670" lon="-4.8017400">
        <ele>440.8</ele>
        <time>2020-10-04T07:42:18Z</time>
      </trkpt>
      <trkpt lat="40.0329360" lon="-4.8016360">
        <ele>440.8</ele>
        <time>2020-10-04T07:42:20Z</time>
      </trkpt>
      <trkpt lat="40.0329990" lon="-4.8015380">
        <ele>440.7</ele>
        <time>2020-10-04T07:42:22Z</time>
      </trkpt>
      <trkpt lat="40.0330600" lon="-4.8014410">
        <ele>440.7</ele>
        <time>2020-10-04T07:42:24Z</time>
      </trkpt>
      <trkpt lat="40.0330910" lon="-4.8013920">
        <ele>440.7</ele>
        <time>2020-10-04T07:42:25Z</time>
      </trkpt>
      <trkpt lat="40.0331230" lon="-4.8013420">
        <ele>440.7</ele>
        <time>2020-10-04T07:42:26Z</time>
      </trkpt>
      <trkpt lat="40.0331560" lon="-4.8012900">
        <ele>440.7</ele>
        <time>2020-10-04T07:42:27Z</time>
      </trkpt>
      <trkpt lat="40.0332300" lon="-4.8011920">
        <ele>440.7</ele>
        <time>2020-10-04T07:42:29Z</time>
      </trkpt>
      <trkpt lat="40.0333180" lon="-4.8011340">
        <ele>440.7</ele>
        <time>2020-10-04T07:42:31Z</time>
      </trkpt>
      <trkpt lat="40.0334060" lon="-4.8010870">
        <ele>440.6</ele>
        <time>2020-10-04T07:42:33Z</time>
      </trkpt>
      <trkpt lat="40.0335030" lon="-4.8010420">
        <ele>440.6</ele>
        <time>2020-10-04T07:42:35Z</time>
      </trkpt>
      <trkpt lat="40.0335510" lon="-4.8010110">
        <ele>440.6</ele>
        <time>2020-10-04T07:42:36Z</time>
      </trkpt>
      <trkpt lat="40.0336390" lon="-4.8009200">
        <ele>440.6</ele>
        <time>2020-10-04T07:42:38Z</time>
      </trkpt>
      <trkpt lat="40.0336810" lon="-4.8008650">
        <ele>440.6</ele>
        <time>2020-10-04T07:42:39Z</time>
      </trkpt>
      <trkpt lat="40.0337220" lon="-4.8008080">
        <ele>440.7</ele>
        <time>2020-10-04T07:42:40Z</time>
      </trkpt>
      <trkpt lat="40.0337650" lon="-4.8007490">
        <ele>440.7</ele>
        <time>2020-10-04T07:42:41Z</time>
      </trkpt>
      <trkpt lat="40.0338520" lon="-4.8006380">
        <ele>440.6</ele>
        <time>2020-10-04T07:42:43Z</time>
      </trkpt>
      <trkpt lat="40.0339370" lon="-4.8005260">
        <ele>440.4</ele>
        <time>2020-10-04T07:42:45Z</time>
      </trkpt>
      <trkpt lat="40.0339810" lon="-4.8004650">
        <ele>440.3</ele>
        <time>2020-10-04T07:42:46Z</time>
      </trkpt>
      <trkpt lat="40.0340260" lon="-4.8004030">
        <ele>440.2</ele>
        <time>2020-10-04T07:42:47Z</time>
      </trkpt>
      <trkpt lat="40.0341190" lon="-4.8002770">
        <ele>440.0</ele>
        <time>2020-10-04T07:42:49Z</time>
      </trkpt>
      <trkpt lat="40.0341640" lon="-4.8002150">
        <ele>439.8</ele>
        <time>2020-10-04T07:42:50Z</time>
      </trkpt>
      <trkpt lat="40.0342550" lon="-4.8000910">
        <ele>439.5</ele>
        <time>2020-10-04T07:42:52Z</time>
      </trkpt>
      <trkpt lat="40.0343470" lon="-4.7999590">
        <ele>439.3</ele>
        <time>2020-10-04T07:42:54Z</time>
      </trkpt>
      <trkpt lat="40.0344400" lon="-4.7998240">
        <ele>439.1</ele>
        <time>2020-10-04T07:42:56Z</time>
      </trkpt>
      <trkpt lat="40.0345390" lon="-4.7996880">
        <ele>439.0</ele>
        <time>2020-10-04T07:42:58Z</time>
      </trkpt>
      <trkpt lat="40.0346430" lon="-4.7995510">
        <ele>438.7</ele>
        <time>2020-10-04T07:43:00Z</time>
      </trkpt>
      <trkpt lat="40.0347440" lon="-4.7994170">
        <ele>438.6</ele>
        <time>2020-10-04T07:43:02Z</time>
      </trkpt>
      <trkpt lat="40.0348470" lon="-4.7992820">
        <ele>438.4</ele>
        <time>2020-10-04T07:43:04Z</time>
      </trkpt>
      <trkpt lat="40.0349530" lon="-4.7991460">
        <ele>438.2</ele>
        <time>2020-10-04T07:43:06Z</time>
      </trkpt>
      <trkpt lat="40.0350070" lon="-4.7990780">
        <ele>438.1</ele>
        <time>2020-10-04T07:43:07Z</time>
      </trkpt>
      <trkpt lat="40.0351120" lon="-4.7989480">
        <ele>438.0</ele>
        <time>2020-10-04T07:43:09Z</time>
      </trkpt>
      <trkpt lat="40.0352140" lon="-4.7988190">
        <ele>437.7</ele>
        <time>2020-10-04T07:43:11Z</time>
      </trkpt>
      <trkpt lat="40.0352640" lon="-4.7987540">
        <ele>437.5</ele>
        <time>2020-10-04T07:43:12Z</time>
      </trkpt>
      <trkpt lat="40.0353160" lon="-4.7986890">
        <ele>437.4</ele>
        <time>2020-10-04T07:43:13Z</time>
      </trkpt>
      <trkpt lat="40.0354160" lon="-4.7985560">
        <ele>437.0</ele>
        <time>2020-10-04T07:43:15Z</time>
      </trkpt>
      <trkpt lat="40.0354660" lon="-4.7984850">
        <ele>436.7</ele>
        <time>2020-10-04T07:43:16Z</time>
      </trkpt>
      <trkpt lat="40.0355560" lon="-4.7983320">
        <ele>436.2</ele>
        <time>2020-10-04T07:43:18Z</time>
      </trkpt>
      <trkpt lat="40.0356320" lon="-4.7981650">
        <ele>435.9</ele>
        <time>2020-10-04T07:43:20Z</time>
      </trkpt>
      <trkpt lat="40.0356990" lon="-4.7979950">
        <ele>435.7</ele>
        <time>2020-10-04T07:43:22Z</time>
      </trkpt>
      <trkpt lat="40.0357310" lon="-4.7979110">
        <ele>435.6</ele>
        <time>2020-10-04T07:43:23Z</time>
      </trkpt>
      <trkpt lat="40.0357920" lon="-4.7977370">
        <ele>435.4</ele>
        <time>2020-10-04T07:43:25Z</time>
      </trkpt>
      <trkpt lat="40.0358540" lon="-4.7975660">
        <ele>435.1</ele>
        <time>2020-10-04T07:43:27Z</time>
      </trkpt>
      <trkpt lat="40.0359160" lon="-4.7973880">
        <ele>434.9</ele>
        <time>2020-10-04T07:43:29Z</time>
      </trkpt>
      <trkpt lat="40.0359470" lon="-4.7972980">
        <ele>434.8</ele>
        <time>2020-10-04T07:43:30Z</time>
      </trkpt>
      <trkpt lat="40.0359780" lon="-4.7972080">
        <ele>434.7</ele>
        <time>2020-10-04T07:43:31Z</time>
      </trkpt>
      <trkpt lat="40.0360370" lon="-4.7970290">
        <ele>434.6</ele>
        <time>2020-10-04T07:43:33Z</time>
      </trkpt>
      <trkpt lat="40.0360680" lon="-4.7969420">
        <ele>434.5</ele>
        <time>2020-10-04T07:43:34Z</time>
      </trkpt>
      <trkpt lat="40.0361320" lon="-4.7967700">
        <ele>434.4</ele>
        <time>2020-10-04T07:43:36Z</time>
      </trkpt>
      <trkpt lat="40.0362010" lon="-4.7965960">
        <ele>434.3</ele>
        <time>2020-10-04T07:43:38Z</time>
      </trkpt>
      <trkpt lat="40.0362650" lon="-4.7964220">
        <ele>434.2</ele>
        <time>2020-10-04T07:43:40Z</time>
      </trkpt>
      <trkpt lat="40.0362970" lon="-4.7963380">
        <ele>434.2</ele>
        <time>2020-10-04T07:43:41Z</time>
      </trkpt>
      <trkpt lat="40.0363560" lon="-4.7961690">
        <ele>434.2</ele>
        <time>2020-10-04T07:43:43Z</time>
      </trkpt>
      <trkpt lat="40.0363820" lon="-4.7960810">
        <ele>434.2</ele>
        <time>2020-10-04T07:43:44Z</time>
      </trkpt>
      <trkpt lat="40.0364080" lon="-4.7959930">
        <ele>434.2</ele>
        <time>2020-10-04T07:43:45Z</time>
      </trkpt>
      <trkpt lat="40.0364320" lon="-4.7959040">
        <ele>434.2</ele>
        <time>2020-10-04T07:43:46Z</time>
      </trkpt>
      <trkpt lat="40.0364760" lon="-4.7957260">
        <ele>434.3</ele>
        <time>2020-10-04T07:43:48Z</time>
      </trkpt>
      <trkpt lat="40.0365180" lon="-4.7955510">
        <ele>434.4</ele>
        <time>2020-10-04T07:43:50Z</time>
      </trkpt>
      <trkpt lat="40.0365370" lon="-4.7954600">
        <ele>434.5</ele>
        <time>2020-10-04T07:43:51Z</time>
      </trkpt>
      <trkpt lat="40.0365740" lon="-4.7952800">
        <ele>434.7</ele>
        <time>2020-10-04T07:43:53Z</time>
      </trkpt>
      <trkpt lat="40.0366050" lon="-4.7951020">
        <ele>434.9</ele>
        <time>2020-10-04T07:43:55Z</time>
      </trkpt>
      <trkpt lat="40.0366230" lon="-4.7950120">
        <ele>435.0</ele>
        <time>2020-10-04T07:43:56Z</time>
      </trkpt>
      <trkpt lat="40.0366450" lon="-4.7949220">
        <ele>435.2</ele>
        <time>2020-10-04T07:43:57Z</time>
      </trkpt>
      <trkpt lat="40.0366950" lon="-4.7947540">
        <ele>435.4</ele>
        <time>2020-10-04T07:43:59Z</time>
      </trkpt>
      <trkpt lat="40.0367200" lon="-4.7946710">
        <ele>435.6</ele>
        <time>2020-10-04T07:44:00Z</time>
      </trkpt>
      <trkpt lat="40.0367720" lon="-4.7945110">
        <ele>435.5</ele>
        <time>2020-10-04T07:44:02Z</time>
      </trkpt>
      <trkpt lat="40.0368250" lon="-4.7943500">
        <ele>435.5</ele>
        <time>2020-10-04T07:44:04Z</time>
      </trkpt>
      <trkpt lat="40.0368570" lon="-4.7942690">
        <ele>435.6</ele>
        <time>2020-10-04T07:44:05Z</time>
      </trkpt>
      <trkpt lat="40.0368910" lon="-4.7941920">
        <ele>435.7</ele>
        <time>2020-10-04T07:44:06Z</time>
      </trkpt>
      <trkpt lat="40.0369580" lon="-4.7940440">
        <ele>436.0</ele>
        <time>2020-10-04T07:44:08Z</time>
      </trkpt>
      <trkpt lat="40.0369910" lon="-4.7939720">
        <ele>436.1</ele>
        <time>2020-10-04T07:44:09Z</time>
      </trkpt>
      <trkpt lat="40.0370240" lon="-4.7939030">
        <ele>436.3</ele>
        <time>2020-10-04T07:44:10Z</time>
      </trkpt>
      <trkpt lat="40.0370570" lon="-4.7938360">
        <ele>436.5</ele>
        <time>2020-10-04T07:44:11Z</time>
      </trkpt>
      <trkpt lat="40.0371180" lon="-4.7937020">
        <ele>437.0</ele>
        <time>2020-10-04T07:44:13Z</time>
      </trkpt>
      <trkpt lat="40.0371470" lon="-4.7936390">
        <ele>437.2</ele>
        <time>2020-10-04T07:44:14Z</time>
      </trkpt>
      <trkpt lat="40.0371990" lon="-4.7935130">
        <ele>437.6</ele>
        <time>2020-10-04T07:44:16Z</time>
      </trkpt>
      <trkpt lat="40.0372450" lon="-4.7933880">
        <ele>438.0</ele>
        <time>2020-10-04T07:44:18Z</time>
      </trkpt>
      <trkpt lat="40.0372700" lon="-4.7933270">
        <ele>438.1</ele>
        <time>2020-10-04T07:44:19Z</time>
      </trkpt>
      <trkpt lat="40.0373240" lon="-4.7932110">
        <ele>438.3</ele>
        <time>2020-10-04T07:44:21Z</time>
      </trkpt>
      <trkpt lat="40.0373570" lon="-4.7931620">
        <ele>438.4</ele>
        <time>2020-10-04T07:44:22Z</time>
      </trkpt>
      <trkpt lat="40.0373890" lon="-4.7931150">
        <ele>438.5</ele>
        <time>2020-10-04T07:44:23Z</time>
      </trkpt>
      <trkpt lat="40.0374520" lon="-4.7930160">
        <ele>438.5</ele>
        <time>2020-10-04T07:44:25Z</time>
      </trkpt>
      <trkpt lat="40.0374880" lon="-4.7929650">
        <ele>438.5</ele>
        <time>2020-10-04T07:44:26Z</time>
      </trkpt>
      <trkpt lat="40.0375640" lon="-4.7928660">
        <ele>438.4</ele>
        <time>2020-10-04T07:44:28Z</time>
      </trkpt>
      <trkpt lat="40.0376080" lon="-4.7928180">
        <ele>438.2</ele>
        <time>2020-10-04T07:44:29Z</time>
      </trkpt>
      <trkpt lat="40.0376580" lon="-4.7927730">
        <ele>438.1</ele>
        <time>2020-10-04T07:44:30Z</time>
      </trkpt>
      <trkpt lat="40.0377680" lon="-4.7927060">
        <ele>437.8</ele>
        <time>2020-10-04T07:44:32Z</time>
      </trkpt>
      <trkpt lat="40.0378250" lon="-4.7926730">
        <ele>437.6</ele>
        <time>2020-10-04T07:44:33Z</time>
      </trkpt>
      <trkpt lat="40.0379370" lon="-4.7925920">
        <ele>437.3</ele>
        <time>2020-10-04T07:44:35Z</time>
      </trkpt>
      <trkpt lat="40.0380410" lon="-4.7924930">
        <ele>437.0</ele>
        <time>2020-10-04T07:44:37Z</time>
      </trkpt>
      <trkpt lat="40.0380860" lon="-4.7924380">
        <ele>436.9</ele>
        <time>2020-10-04T07:44:38Z</time>
      </trkpt>
      <trkpt lat="40.0381680" lon="-4.7923150">
        <ele>436.5</ele>
        <time>2020-10-04T07:44:40Z</time>
      </trkpt>
      <trkpt lat="40.0382650" lon="-4.7921890">
        <ele>436.0</ele>
        <time>2020-10-04T07:44:42Z</time>
      </trkpt>
      <trkpt lat="40.0383240" lon="-4.7921280">
        <ele>435.8</ele>
        <time>2020-10-04T07:44:43Z</time>
      </trkpt>
      <trkpt lat="40.0383850" lon="-4.7920640">
        <ele>435.7</ele>
        <time>2020-10-04T07:44:44Z</time>
      </trkpt>
      <trkpt lat="40.0384430" lon="-4.7919980">
        <ele>435.5</ele>
        <time>2020-10-04T07:44:45Z</time>
      </trkpt>
      <trkpt lat="40.0385290" lon="-4.7918530">
        <ele>435.3</ele>
        <time>2020-10-04T07:44:47Z</time>
      </trkpt>
      <trkpt lat="40.0385660" lon="-4.7917840">
        <ele>435.2</ele>
        <time>2020-10-04T07:44:48Z</time>
      </trkpt>
      <trkpt lat="40.0386350" lon="-4.7916400">
        <ele>435.1</ele>
        <time>2020-10-04T07:44:50Z</time>
      </trkpt>
      <trkpt lat="40.0386970" lon="-4.7914940">
        <ele>435.2</ele>
        <time>2020-10-04T07:44:52Z</time>
      </trkpt>
      <trkpt lat="40.0387120" lon="-4.7914180">
        <ele>435.3</ele>
        <time>2020-10-04T07:44:53Z</time>
      </trkpt>
      <trkpt lat="40.0387380" lon="-4.7912630">
        <ele>435.4</ele>
        <time>2020-10-04T07:44:55Z</time>
      </trkpt>
      <trkpt lat="40.0387680" lon="-4.7911040">
        <ele>435.5</ele>
        <time>2020-10-04T07:44:57Z</time>
      </trkpt>
      <trkpt lat="40.0387940" lon="-4.7910260">
        <ele>435.5</ele>
        <time>2020-10-04T07:44:58Z</time>
      </trkpt>
      <trkpt lat="40.0388270" lon="-4.7909620">
        <ele>435.4</ele>
        <time>2020-10-04T07:44:59Z</time>
      </trkpt>
      <trkpt lat="40.0389030" lon="-4.7908370">
        <ele>435.3</ele>
        <time>2020-10-04T07:45:01Z</time>
      </trkpt>
      <trkpt lat="40.0389930" lon="-4.7906910">
        <ele>434.9</ele>
        <time>2020-10-04T07:45:03Z</time>
      </trkpt>
      <trkpt lat="40.0390940" lon="-4.7905350">
        <ele>434.6</ele>
        <time>2020-10-04T07:45:05Z</time>
      </trkpt>
      <trkpt lat="40.0391400" lon="-4.7904480">
        <ele>434.5</ele>
        <time>2020-10-04T07:45:06Z</time>
      </trkpt>
      <trkpt lat="40.0391840" lon="-4.7903640">
        <ele>434.5</ele>
        <time>2020-10-04T07:45:07Z</time>
      </trkpt>
      <trkpt lat="40.0392770" lon="-4.7902260">
        <ele>434.6</ele>
        <time>2020-10-04T07:45:09Z</time>
      </trkpt>
      <trkpt lat="40.0393260" lon="-4.7901720">
        <ele>434.7</ele>
        <time>2020-10-04T07:45:10Z</time>
      </trkpt>
      <trkpt lat="40.0394250" lon="-4.7900660">
        <ele>434.7</ele>
        <time>2020-10-04T07:45:12Z</time>
      </trkpt>
      <trkpt lat="40.0395170" lon="-4.7899520">
        <ele>434.7</ele>
        <time>2020-10-04T07:45:14Z</time>
      </trkpt>
      <trkpt lat="40.0395580" lon="-4.7898870">
        <ele>434.7</ele>
        <time>2020-10-04T07:45:15Z</time>
      </trkpt>
      <trkpt lat="40.0395930" lon="-4.7898150">
        <ele>434.9</ele>
        <time>2020-10-04T07:45:16Z</time>
      </trkpt>
      <trkpt lat="40.0396390" lon="-4.7896650">
        <ele>435.2</ele>
        <time>2020-10-04T07:45:18Z</time>
      </trkpt>
      <trkpt lat="40.0396690" lon="-4.7895090">
        <ele>435.7</ele>
        <time>2020-10-04T07:45:20Z</time>
      </trkpt>
      <trkpt lat="40.0396820" lon="-4.7894310">
        <ele>435.9</ele>
        <time>2020-10-04T07:45:21Z</time>
      </trkpt>
      <trkpt lat="40.0396940" lon="-4.7893530">
        <ele>436.2</ele>
        <time>2020-10-04T07:45:22Z</time>
      </trkpt>
      <trkpt lat="40.0397320" lon="-4.7892040">
        <ele>436.6</ele>
        <time>2020-10-04T07:45:24Z</time>
      </trkpt>
      <trkpt lat="40.0397550" lon="-4.7891370">
        <ele>436.8</ele>
        <time>2020-10-04T07:45:25Z</time>
      </trkpt>
      <trkpt lat="40.0398090" lon="-4.7890020">
        <ele>437.0</ele>
        <time>2020-10-04T07:45:27Z</time>
      </trkpt>
      <trkpt lat="40.0398410" lon="-4.7889360">
        <ele>437.1</ele>
        <time>2020-10-04T07:45:28Z</time>
      </trkpt>
      <trkpt lat="40.0398710" lon="-4.7888740">
        <ele>437.2</ele>
        <time>2020-10-04T07:45:29Z</time>
      </trkpt>
      <trkpt lat="40.0399330" lon="-4.7887560">
        <ele>437.3</ele>
        <time>2020-10-04T07:45:31Z</time>
      </trkpt>
      <trkpt lat="40.0399970" lon="-4.7886310">
        <ele>437.4</ele>
        <time>2020-10-04T07:45:33Z</time>
      </trkpt>
      <trkpt lat="40.0400610" lon="-4.7885110">
        <ele>437.5</ele>
        <time>2020-10-04T07:45:35Z</time>
      </trkpt>
      <trkpt lat="40.0400940" lon="-4.7884480">
        <ele>437.5</ele>
        <time>2020-10-04T07:45:36Z</time>
      </trkpt>
      <trkpt lat="40.0401590" lon="-4.7883170">
        <ele>437.4</ele>
        <time>2020-10-04T07:45:38Z</time>
      </trkpt>
      <trkpt lat="40.0401860" lon="-4.7882520">
        <ele>437.4</ele>
        <time>2020-10-04T07:45:39Z</time>
      </trkpt>
      <trkpt lat="40.0402400" lon="-4.7881180">
        <ele>437.3</ele>
        <time>2020-10-04T07:45:41Z</time>
      </trkpt>
      <trkpt lat="40.0402830" lon="-4.7879720">
        <ele>437.2</ele>
        <time>2020-10-04T07:45:43Z</time>
      </trkpt>
      <trkpt lat="40.0402930" lon="-4.7878250">
        <ele>437.1</ele>
        <time>2020-10-04T07:45:45Z</time>
      </trkpt>
      <trkpt lat="40.0403120" lon="-4.7876750">
        <ele>436.9</ele>
        <time>2020-10-04T07:45:47Z</time>
      </trkpt>
      <trkpt lat="40.0403430" lon="-4.7876040">
        <ele>436.7</ele>
        <time>2020-10-04T07:45:48Z</time>
      </trkpt>
      <trkpt lat="40.0404320" lon="-4.7874960">
        <ele>436.3</ele>
        <time>2020-10-04T07:45:50Z</time>
      </trkpt>
      <trkpt lat="40.0405190" lon="-4.7873840">
        <ele>435.6</ele>
        <time>2020-10-04T07:45:52Z</time>
      </trkpt>
      <trkpt lat="40.0405510" lon="-4.7873150">
        <ele>435.2</ele>
        <time>2020-10-04T07:45:53Z</time>
      </trkpt>
      <trkpt lat="40.0406170" lon="-4.7871770">
        <ele>434.3</ele>
        <time>2020-10-04T07:45:55Z</time>
      </trkpt>
      <trkpt lat="40.0406630" lon="-4.7871110">
        <ele>433.9</ele>
        <time>2020-10-04T07:45:56Z</time>
      </trkpt>
      <trkpt lat="40.0407660" lon="-4.7869810">
        <ele>433.0</ele>
        <time>2020-10-04T07:45:58Z</time>
      </trkpt>
      <trkpt lat="40.0408200" lon="-4.7869070">
        <ele>432.6</ele>
        <time>2020-10-04T07:45:59Z</time>
      </trkpt>
      <trkpt lat="40.0408750" lon="-4.7868290">
        <ele>432.2</ele>
        <time>2020-10-04T07:46:00Z</time>
      </trkpt>
      <trkpt lat="40.0409800" lon="-4.7866730">
        <ele>431.6</ele>
        <time>2020-10-04T07:46:02Z</time>
      </trkpt>
      <trkpt lat="40.0410800" lon="-4.7865170">
        <ele>431.0</ele>
        <time>2020-10-04T07:46:04Z</time>
      </trkpt>
      <trkpt lat="40.0411610" lon="-4.7863610">
        <ele>430.5</ele>
        <time>2020-10-04T07:46:06Z</time>
      </trkpt>
      <trkpt lat="40.0412190" lon="-4.7861940">
        <ele>430.2</ele>
        <time>2020-10-04T07:46:08Z</time>
      </trkpt>
      <trkpt lat="40.0412620" lon="-4.7860250">
        <ele>430.0</ele>
        <time>2020-10-04T07:46:10Z</time>
      </trkpt>
      <trkpt lat="40.0413330" lon="-4.7858830">
        <ele>429.7</ele>
        <time>2020-10-04T07:46:12Z</time>
      </trkpt>
      <trkpt lat="40.0414530" lon="-4.7858120">
        <ele>429.4</ele>
        <time>2020-10-04T07:46:14Z</time>
      </trkpt>
      <trkpt lat="40.0415210" lon="-4.7858070">
        <ele>429.3</ele>
        <time>2020-10-04T07:46:15Z</time>
      </trkpt>
      <trkpt lat="40.0415840" lon="-4.7858270">
        <ele>429.2</ele>
        <time>2020-10-04T07:46:16Z</time>
      </trkpt>
      <trkpt lat="40.0416920" lon="-4.7858940">
        <ele>429.1</ele>
        <time>2020-10-04T07:46:18Z</time>
      </trkpt>
      <trkpt lat="40.0417390" lon="-4.7859290">
        <ele>429.0</ele>
        <time>2020-10-04T07:46:19Z</time>
      </trkpt>
      <trkpt lat="40.0418370" lon="-4.7859890">
        <ele>429.0</ele>
        <time>2020-10-04T07:46:21Z</time>
      </trkpt>
      <trkpt lat="40.0419370" lon="-4.7860230">
        <ele>428.8</ele>
        <time>2020-10-04T07:46:23Z</time>
      </trkpt>
      <trkpt lat="40.0419870" lon="-4.7860050">
        <ele>428.8</ele>
        <time>2020-10-04T07:46:24Z</time>
      </trkpt>
      <trkpt lat="40.0420640" lon="-4.7859100">
        <ele>428.7</ele>
        <time>2020-10-04T07:46:26Z</time>
      </trkpt>
      <trkpt lat="40.0421150" lon="-4.7857820">
        <ele>428.8</ele>
        <time>2020-10-04T07:46:28Z</time>
      </trkpt>
      <trkpt lat="40.0421860" lon="-4.7856570">
        <ele>428.8</ele>
        <time>2020-10-04T07:46:30Z</time>
      </trkpt>
      <trkpt lat="40.0422610" lon="-4.7855290">
        <ele>428.9</ele>
        <time>2020-10-04T07:46:32Z</time>
      </trkpt>
      <trkpt lat="40.0423320" lon="-4.7853850">
        <ele>429.0</ele>
        <time>2020-10-04T07:46:34Z</time>
      </trkpt>
      <trkpt lat="40.0424100" lon="-4.7852350">
        <ele>429.0</ele>
        <time>2020-10-04T07:46:36Z</time>
      </trkpt>
      <trkpt lat="40.0424880" lon="-4.7850960">
        <ele>429.1</ele>
        <time>2020-10-04T07:46:38Z</time>
      </trkpt>
      <trkpt lat="40.0425700" lon="-4.7849810">
        <ele>429.0</ele>
        <time>2020-10-04T07:46:40Z</time>
      </trkpt>
      <trkpt lat="40.0426100" lon="-4.7849260">
        <ele>429.0</ele>
        <time>2020-10-04T07:46:41Z</time>
      </trkpt>
      <trkpt lat="40.0426900" lon="-4.7848160">
        <ele>429.0</ele>
        <time>2020-10-04T07:46:43Z</time>
      </trkpt>
      <trkpt lat="40.0427310" lon="-4.7847640">
        <ele>428.9</ele>
        <time>2020-10-04T07:46:44Z</time>
      </trkpt>
      <trkpt lat="40.0428170" lon="-4.7846600">
        <ele>428.6</ele>
        <time>2020-10-04T07:46:46Z</time>
      </trkpt>
      <trkpt lat="40.0429020" lon="-4.7845390">
        <ele>428.4</ele>
        <time>2020-10-04T07:46:48Z</time>
      </trkpt>
      <trkpt lat="40.0429420" lon="-4.7844720">
        <ele>428.4</ele>
        <time>2020-10-04T07:46:49Z</time>
      </trkpt>
      <trkpt lat="40.0429860" lon="-4.7844100">
        <ele>428.3</ele>
        <time>2020-10-04T07:46:50Z</time>
      </trkpt>
      <trkpt lat="40.0430370" lon="-4.7843530">
        <ele>428.3</ele>
        <time>2020-10-04T07:46:51Z</time>
      </trkpt>
      <trkpt lat="40.0431430" lon="-4.7842490">
        <ele>428.2</ele>
        <time>2020-10-04T07:46:53Z</time>
      </trkpt>
      <trkpt lat="40.0431910" lon="-4.7841950">
        <ele>428.2</ele>
        <time>2020-10-04T07:46:54Z</time>
      </trkpt>
      <trkpt lat="40.0432840" lon="-4.7840900">
        <ele>428.2</ele>
        <time>2020-10-04T07:46:56Z</time>
      </trkpt>
      <trkpt lat="40.0433290" lon="-4.7840410">
        <ele>428.3</ele>
        <time>2020-10-04T07:46:57Z</time>
      </trkpt>
      <trkpt lat="40.0433760" lon="-4.7839910">
        <ele>428.3</ele>
        <time>2020-10-04T07:46:58Z</time>
      </trkpt>
      <trkpt lat="40.0434760" lon="-4.7838950">
        <ele>428.1</ele>
        <time>2020-10-04T07:47:00Z</time>
      </trkpt>
      <trkpt lat="40.0435750" lon="-4.7837940">
        <ele>427.8</ele>
        <time>2020-10-04T07:47:02Z</time>
      </trkpt>
      <trkpt lat="40.0436220" lon="-4.7837360">
        <ele>427.7</ele>
        <time>2020-10-04T07:47:03Z</time>
      </trkpt>
      <trkpt lat="40.0436980" lon="-4.7836160">
        <ele>427.6</ele>
        <time>2020-10-04T07:47:05Z</time>
      </trkpt>
      <trkpt lat="40.0437360" lon="-4.7835620">
        <ele>427.7</ele>
        <time>2020-10-04T07:47:06Z</time>
      </trkpt>
      <trkpt lat="40.0438180" lon="-4.7834630">
        <ele>427.7</ele>
        <time>2020-10-04T07:47:08Z</time>
      </trkpt>
      <trkpt lat="40.0438610" lon="-4.7834120">
        <ele>427.7</ele>
        <time>2020-10-04T07:47:09Z</time>
      </trkpt>
      <trkpt lat="40.0438970" lon="-4.7833630">
        <ele>427.8</ele>
        <time>2020-10-04T07:47:10Z</time>
      </trkpt>
      <trkpt lat="40.0439530" lon="-4.7832670">
        <ele>427.8</ele>
        <time>2020-10-04T07:47:12Z</time>
      </trkpt>
      <trkpt lat="40.0440070" lon="-4.7831570">
        <ele>427.8</ele>
        <time>2020-10-04T07:47:14Z</time>
      </trkpt>
      <trkpt lat="40.0440690" lon="-4.7830380">
        <ele>427.8</ele>
        <time>2020-10-04T07:47:16Z</time>
      </trkpt>
      <trkpt lat="40.0441400" lon="-4.7829200">
        <ele>427.9</ele>
        <time>2020-10-04T07:47:18Z</time>
      </trkpt>
      <trkpt lat="40.0441930" lon="-4.7828180">
        <ele>427.9</ele>
        <time>2020-10-04T07:47:20Z</time>
      </trkpt>
      <trkpt lat="40.0442050" lon="-4.7827000">
        <ele>427.9</ele>
        <time>2020-10-04T07:47:22Z</time>
      </trkpt>
      <trkpt lat="40.0441980" lon="-4.7826190">
        <ele>427.9</ele>
        <time>2020-10-04T07:47:23Z</time>
      </trkpt>
      <trkpt lat="40.0441900" lon="-4.7825390">
        <ele>427.9</ele>
        <time>2020-10-04T07:47:24Z</time>
      </trkpt>
      <trkpt lat="40.0441860" lon="-4.7824580">
        <ele>428.0</ele>
        <time>2020-10-04T07:47:25Z</time>
      </trkpt>
      <trkpt lat="40.0441850" lon="-4.7823730">
        <ele>428.1</ele>
        <time>2020-10-04T07:47:26Z</time>
      </trkpt>
      <trkpt lat="40.0441980" lon="-4.7822120">
        <ele>428.1</ele>
        <time>2020-10-04T07:47:28Z</time>
      </trkpt>
      <trkpt lat="40.0442330" lon="-4.7820500">
        <ele>428.1</ele>
        <time>2020-10-04T07:47:30Z</time>
      </trkpt>
      <trkpt lat="40.0442570" lon="-4.7819670">
        <ele>428.1</ele>
        <time>2020-10-04T07:47:31Z</time>
      </trkpt>
      <trkpt lat="40.0443240" lon="-4.7818200">
        <ele>428.1</ele>
        <time>2020-10-04T07:47:33Z</time>
      </trkpt>
      <trkpt lat="40.0443600" lon="-4.7817580">
        <ele>428.1</ele>
        <time>2020-10-04T07:47:34Z</time>
      </trkpt>
      <trkpt lat="40.0444200" lon="-4.7816170">
        <ele>427.9</ele>
        <time>2020-10-04T07:47:36Z</time>
      </trkpt>
      <trkpt lat="40.0444570" lon="-4.7815370">
        <ele>427.8</ele>
        <time>2020-10-04T07:47:37Z</time>
      </trkpt>
      <trkpt lat="40.0445350" lon="-4.7813760">
        <ele>427.8</ele>
        <time>2020-10-04T07:47:39Z</time>
      </trkpt>
      <trkpt lat="40.0446150" lon="-4.7812230">
        <ele>427.9</ele>
        <time>2020-10-04T07:47:41Z</time>
      </trkpt>
      <trkpt lat="40.0446600" lon="-4.7811530">
        <ele>428.0</ele>
        <time>2020-10-04T07:47:42Z</time>
      </trkpt>
      <trkpt lat="40.0447150" lon="-4.7811080">
        <ele>428.1</ele>
        <time>2020-10-04T07:47:43Z</time>
      </trkpt>
      <trkpt lat="40.0447730" lon="-4.7810760">
        <ele>428.2</ele>
        <time>2020-10-04T07:47:44Z</time>
      </trkpt>
      <trkpt lat="40.0448870" lon="-4.7810230">
        <ele>428.5</ele>
        <time>2020-10-04T07:47:46Z</time>
      </trkpt>
      <trkpt lat="40.0449930" lon="-4.7809660">
        <ele>428.7</ele>
        <time>2020-10-04T07:47:48Z</time>
      </trkpt>
      <trkpt lat="40.0450960" lon="-4.7808970">
        <ele>429.0</ele>
        <time>2020-10-04T07:47:50Z</time>
      </trkpt>
      <trkpt lat="40.0452000" lon="-4.7808280">
        <ele>429.3</ele>
        <time>2020-10-04T07:47:52Z</time>
      </trkpt>
      <trkpt lat="40.0452500" lon="-4.7807950">
        <ele>429.4</ele>
        <time>2020-10-04T07:47:53Z</time>
      </trkpt>
      <trkpt lat="40.0453430" lon="-4.7807290">
        <ele>429.8</ele>
        <time>2020-10-04T07:47:55Z</time>
      </trkpt>
      <trkpt lat="40.0454260" lon="-4.7806500">
        <ele>430.1</ele>
        <time>2020-10-04T07:47:57Z</time>
      </trkpt>
      <trkpt lat="40.0454650" lon="-4.7806100">
        <ele>430.3</ele>
        <time>2020-10-04T07:47:58Z</time>
      </trkpt>
      <trkpt lat="40.0455300" lon="-4.7805350">
        <ele>430.5</ele>
        <time>2020-10-04T07:48:00Z</time>
      </trkpt>
      <trkpt lat="40.0455520" lon="-4.7805060">
        <ele>430.6</ele>
        <time>2020-10-04T07:48:01Z</time>
      </trkpt>
      <trkpt lat="40.0455920" lon="-4.7804280">
        <ele>430.8</ele>
        <time>2020-10-04T07:48:03Z</time>
      </trkpt>
      <trkpt lat="40.0456040" lon="-4.7803910">
        <ele>430.9</ele>
        <time>2020-10-04T07:48:04Z</time>
      </trkpt>
      <trkpt lat="40.0456190" lon="-4.7803490">
        <ele>431.0</ele>
        <time>2020-10-04T07:48:05Z</time>
      </trkpt>
      <trkpt lat="40.0456740" lon="-4.7802560">
        <ele>431.3</ele>
        <time>2020-10-04T07:48:07Z</time>
      </trkpt>
      <trkpt lat="40.0456910" lon="-4.7802260">
        <ele>431.4</ele>
        <time>2020-10-04T07:48:08Z</time>
      </trkpt>
      <trkpt lat="40.0457340" lon="-4.7801880">
        <ele>431.5</ele>
        <time>2020-10-04T07:48:10Z</time>
      </trkpt>
      <trkpt lat="40.0457790" lon="-4.7801620">
        <ele>431.7</ele>
        <time>2020-10-04T07:48:11Z</time>
      </trkpt>
      <trkpt lat="40.0458170" lon="-4.7801280">
        <ele>431.8</ele>
        <time>2020-10-04T07:48:12Z</time>
      </trkpt>
      <trkpt lat="40.0458670" lon="-4.7800930">
        <ele>432.0</ele>
        <time>2020-10-04T07:48:14Z</time>
      </trkpt>
      <trkpt lat="40.0459020" lon="-4.7800670">
        <ele>432.1</ele>
        <time>2020-10-04T07:48:15Z</time>
      </trkpt>
      <trkpt lat="40.0459520" lon="-4.7800190">
        <ele>432.3</ele>
        <time>2020-10-04T07:48:16Z</time>
      </trkpt>
      <trkpt lat="40.0460070" lon="-4.7799540">
        <ele>432.5</ele>
        <time>2020-10-04T07:48:18Z</time>
      </trkpt>
      <trkpt lat="40.0460550" lon="-4.7798990">
        <ele>432.7</ele>
        <time>2020-10-04T07:48:19Z</time>
      </trkpt>
      <trkpt lat="40.0460940" lon="-4.7798570">
        <ele>432.9</ele>
        <time>2020-10-04T07:48:20Z</time>
      </trkpt>
      <trkpt lat="40.0461580" lon="-4.7797770">
        <ele>433.2</ele>
        <time>2020-10-04T07:48:22Z</time>
      </trkpt>
      <trkpt lat="40.0462200" lon="-4.7796950">
        <ele>433.5</ele>
        <time>2020-10-04T07:48:24Z</time>
      </trkpt>
      <trkpt lat="40.0462630" lon="-4.7796350">
        <ele>433.7</ele>
        <time>2020-10-04T07:48:25Z</time>
      </trkpt>
      <trkpt lat="40.0463260" lon="-4.7795430">
        <ele>433.9</ele>
        <time>2020-10-04T07:48:27Z</time>
      </trkpt>
      <trkpt lat="40.0463820" lon="-4.7794580">
        <ele>434.1</ele>
        <time>2020-10-04T07:48:28Z</time>
      </trkpt>
      <trkpt lat="40.0464560" lon="-4.7793520">
        <ele>434.3</ele>
        <time>2020-10-04T07:48:30Z</time>
      </trkpt>
      <trkpt lat="40.0464890" lon="-4.7793020">
        <ele>434.4</ele>
        <time>2020-10-04T07:48:31Z</time>
      </trkpt>
      <trkpt lat="40.0465210" lon="-4.7792520">
        <ele>434.5</ele>
        <time>2020-10-04T07:48:32Z</time>
      </trkpt>
      <trkpt lat="40.0465880" lon="-4.7791540">
        <ele>434.8</ele>
        <time>2020-10-04T07:48:34Z</time>
      </trkpt>
      <trkpt lat="40.0466520" lon="-4.7790560">
        <ele>435.0</ele>
        <time>2020-10-04T07:48:36Z</time>
      </trkpt>
      <trkpt lat="40.0466850" lon="-4.7790060">
        <ele>435.2</ele>
        <time>2020-10-04T07:48:37Z</time>
      </trkpt>
      <trkpt lat="40.0467170" lon="-4.7789570">
        <ele>435.3</ele>
        <time>2020-10-04T07:48:38Z</time>
      </trkpt>
      <trkpt lat="40.0467850" lon="-4.7788590">
        <ele>435.6</ele>
        <time>2020-10-04T07:48:40Z</time>
      </trkpt>
      <trkpt lat="40.0468490" lon="-4.7787620">
        <ele>435.9</ele>
        <time>2020-10-04T07:48:42Z</time>
      </trkpt>
      <trkpt lat="40.0468790" lon="-4.7787140">
        <ele>436.0</ele>
        <time>2020-10-04T07:48:43Z</time>
      </trkpt>
      <trkpt lat="40.0469380" lon="-4.7786190">
        <ele>436.3</ele>
        <time>2020-10-04T07:48:45Z</time>
      </trkpt>
      <trkpt lat="40.0469940" lon="-4.7785310">
        <ele>436.6</ele>
        <time>2020-10-04T07:48:47Z</time>
      </trkpt>
      <trkpt lat="40.0470200" lon="-4.7784880">
        <ele>436.8</ele>
        <time>2020-10-04T07:48:48Z</time>
      </trkpt>
      <trkpt lat="40.0470670" lon="-4.7784040">
        <ele>437.1</ele>
        <time>2020-10-04T07:48:50Z</time>
      </trkpt>
      <trkpt lat="40.0470850" lon="-4.7783700">
        <ele>437.2</ele>
        <time>2020-10-04T07:48:51Z</time>
      </trkpt>
      <trkpt lat="40.0471140" lon="-4.7783390">
        <ele>437.4</ele>
        <time>2020-10-04T07:48:52Z</time>
      </trkpt>
      <trkpt lat="40.0471770" lon="-4.7783060">
        <ele>437.6</ele>
        <time>2020-10-04T07:48:54Z</time>
      </trkpt>
      <trkpt lat="40.0472490" lon="-4.7782760">
        <ele>437.8</ele>
        <time>2020-10-04T07:48:56Z</time>
      </trkpt>
      <trkpt lat="40.0472940" lon="-4.7782460">
        <ele>437.9</ele>
        <time>2020-10-04T07:48:58Z</time>
      </trkpt>
      <trkpt lat="40.0472730" lon="-4.7782070">
        <ele>437.9</ele>
        <time>2020-10-04T07:48:59Z</time>
      </trkpt>
      <trkpt lat="40.0473320" lon="-4.7781600">
        <ele>437.9</ele>
        <time>2020-10-04T07:49:01Z</time>
      </trkpt>
      <trkpt lat="40.0473740" lon="-4.7781160">
        <ele>438.0</ele>
        <time>2020-10-04T07:49:02Z</time>
      </trkpt>
      <trkpt lat="40.0474360" lon="-4.7780370">
        <ele>438.0</ele>
        <time>2020-10-04T07:49:04Z</time>
      </trkpt>
      <trkpt lat="40.0474810" lon="-4.7779800">
        <ele>438.1</ele>
        <time>2020-10-04T07:49:05Z</time>
      </trkpt>
      <trkpt lat="40.0475310" lon="-4.7779170">
        <ele>438.1</ele>
        <time>2020-10-04T07:49:06Z</time>
      </trkpt>
      <trkpt lat="40.0476110" lon="-4.7778220">
        <ele>438.3</ele>
        <time>2020-10-04T07:49:08Z</time>
      </trkpt>
      <trkpt lat="40.0476880" lon="-4.7777300">
        <ele>438.6</ele>
        <time>2020-10-04T07:49:10Z</time>
      </trkpt>
      <trkpt lat="40.0477410" lon="-4.7776650">
        <ele>438.7</ele>
        <time>2020-10-04T07:49:11Z</time>
      </trkpt>
      <trkpt lat="40.0477860" lon="-4.7776130">
        <ele>438.8</ele>
        <time>2020-10-04T07:49:12Z</time>
      </trkpt>
      <trkpt lat="40.0478650" lon="-4.7775220">
        <ele>439.1</ele>
        <time>2020-10-04T07:49:14Z</time>
      </trkpt>
      <trkpt lat="40.0479400" lon="-4.7774340">
        <ele>439.2</ele>
        <time>2020-10-04T07:49:16Z</time>
      </trkpt>
      <trkpt lat="40.0479780" lon="-4.7773880">
        <ele>439.3</ele>
        <time>2020-10-04T07:49:17Z</time>
      </trkpt>
      <trkpt lat="40.0480150" lon="-4.7773430">
        <ele>439.4</ele>
        <time>2020-10-04T07:49:18Z</time>
      </trkpt>
      <trkpt lat="40.0480990" lon="-4.7772580">
        <ele>439.6</ele>
        <time>2020-10-04T07:49:20Z</time>
      </trkpt>
      <trkpt lat="40.0481450" lon="-4.7772240">
        <ele>439.7</ele>
        <time>2020-10-04T07:49:21Z</time>
      </trkpt>
      <trkpt lat="40.0482330" lon="-4.7771540">
        <ele>439.9</ele>
        <time>2020-10-04T07:49:23Z</time>
      </trkpt>
      <trkpt lat="40.0483140" lon="-4.7770770">
        <ele>440.1</ele>
        <time>2020-10-04T07:49:25Z</time>
      </trkpt>
      <trkpt lat="40.0483540" lon="-4.7770370">
        <ele>440.2</ele>
        <time>2020-10-04T07:49:26Z</time>
      </trkpt>
      <trkpt lat="40.0484320" lon="-4.7769570">
        <ele>440.4</ele>
        <time>2020-10-04T07:49:28Z</time>
      </trkpt>
      <trkpt lat="40.0485100" lon="-4.7768730">
        <ele>440.5</ele>
        <time>2020-10-04T07:49:30Z</time>
      </trkpt>
      <trkpt lat="40.0485480" lon="-4.7768300">
        <ele>440.6</ele>
        <time>2020-10-04T07:49:31Z</time>
      </trkpt>
      <trkpt lat="40.0486260" lon="-4.7767470">
        <ele>440.6</ele>
        <time>2020-10-04T07:49:33Z</time>
      </trkpt>
      <trkpt lat="40.0487120" lon="-4.7766690">
        <ele>440.7</ele>
        <time>2020-10-04T07:49:35Z</time>
      </trkpt>
      <trkpt lat="40.0487550" lon="-4.7766260">
        <ele>440.7</ele>
        <time>2020-10-04T07:49:36Z</time>
      </trkpt>
      <trkpt lat="40.0488370" lon="-4.7765320">
        <ele>440.8</ele>
        <time>2020-10-04T07:49:38Z</time>
      </trkpt>
      <trkpt lat="40.0488780" lon="-4.7764830">
        <ele>440.9</ele>
        <time>2020-10-04T07:49:39Z</time>
      </trkpt>
      <trkpt lat="40.0489650" lon="-4.7763930">
        <ele>441.0</ele>
        <time>2020-10-04T07:49:41Z</time>
      </trkpt>
      <trkpt lat="40.0490110" lon="-4.7763540">
        <ele>441.1</ele>
        <time>2020-10-04T07:49:42Z</time>
      </trkpt>
      <trkpt lat="40.0491000" lon="-4.7762760">
        <ele>441.3</ele>
        <time>2020-10-04T07:49:44Z</time>
      </trkpt>
      <trkpt lat="40.0491440" lon="-4.7762370">
        <ele>441.4</ele>
        <time>2020-10-04T07:49:45Z</time>
      </trkpt>
      <trkpt lat="40.0492260" lon="-4.7761450">
        <ele>441.7</ele>
        <time>2020-10-04T07:49:47Z</time>
      </trkpt>
      <trkpt lat="40.0492660" lon="-4.7760950">
        <ele>441.8</ele>
        <time>2020-10-04T07:49:48Z</time>
      </trkpt>
      <trkpt lat="40.0493040" lon="-4.7760480">
        <ele>441.9</ele>
        <time>2020-10-04T07:49:49Z</time>
      </trkpt>
      <trkpt lat="40.0493770" lon="-4.7759540">
        <ele>442.1</ele>
        <time>2020-10-04T07:49:51Z</time>
      </trkpt>
      <trkpt lat="40.0494490" lon="-4.7758570">
        <ele>442.3</ele>
        <time>2020-10-04T07:49:53Z</time>
      </trkpt>
      <trkpt lat="40.0495170" lon="-4.7757590">
        <ele>442.5</ele>
        <time>2020-10-04T07:49:55Z</time>
      </trkpt>
      <trkpt lat="40.0495490" lon="-4.7757120">
        <ele>442.7</ele>
        <time>2020-10-04T07:49:56Z</time>
      </trkpt>
      <trkpt lat="40.0496110" lon="-4.7756170">
        <ele>442.9</ele>
        <time>2020-10-04T07:49:58Z</time>
      </trkpt>
      <trkpt lat="40.0496740" lon="-4.7755130">
        <ele>443.2</ele>
        <time>2020-10-04T07:50:00Z</time>
      </trkpt>
      <trkpt lat="40.0497350" lon="-4.7754060">
        <ele>443.4</ele>
        <time>2020-10-04T07:50:02Z</time>
      </trkpt>
      <trkpt lat="40.0497660" lon="-4.7753520">
        <ele>443.6</ele>
        <time>2020-10-04T07:50:03Z</time>
      </trkpt>
      <trkpt lat="40.0498280" lon="-4.7752440">
        <ele>444.0</ele>
        <time>2020-10-04T07:50:05Z</time>
      </trkpt>
      <trkpt lat="40.0498590" lon="-4.7751910">
        <ele>444.2</ele>
        <time>2020-10-04T07:50:06Z</time>
      </trkpt>
      <trkpt lat="40.0499190" lon="-4.7751060">
        <ele>444.4</ele>
        <time>2020-10-04T07:50:08Z</time>
      </trkpt>
      <trkpt lat="40.0499750" lon="-4.7750480">
        <ele>444.6</ele>
        <time>2020-10-04T07:50:10Z</time>
      </trkpt>
      <trkpt lat="40.0500010" lon="-4.7750200">
        <ele>444.6</ele>
        <time>2020-10-04T07:50:11Z</time>
      </trkpt>
      <trkpt lat="40.0500310" lon="-4.7749440">
        <ele>444.8</ele>
        <time>2020-10-04T07:50:13Z</time>
      </trkpt>
      <trkpt lat="40.0500720" lon="-4.7748450">
        <ele>444.9</ele>
        <time>2020-10-04T07:50:15Z</time>
      </trkpt>
      <trkpt lat="40.0501400" lon="-4.7747770">
        <ele>444.9</ele>
        <time>2020-10-04T07:50:17Z</time>
      </trkpt>
      <trkpt lat="40.0502030" lon="-4.7746930">
        <ele>444.8</ele>
        <time>2020-10-04T07:50:19Z</time>
      </trkpt>
      <trkpt lat="40.0502200" lon="-4.7746650">
        <ele>444.8</ele>
        <time>2020-10-04T07:50:20Z</time>
      </trkpt>
      <trkpt lat="40.0502810" lon="-4.7746210">
        <ele>444.7</ele>
        <time>2020-10-04T07:50:22Z</time>
      </trkpt>
      <trkpt lat="40.0503320" lon="-4.7745700">
        <ele>444.5</ele>
        <time>2020-10-04T07:50:23Z</time>
      </trkpt>
      <trkpt lat="40.0503730" lon="-4.7745170">
        <ele>444.3</ele>
        <time>2020-10-04T07:50:24Z</time>
      </trkpt>
      <trkpt lat="40.0504120" lon="-4.7744610">
        <ele>444.2</ele>
        <time>2020-10-04T07:50:25Z</time>
      </trkpt>
      <trkpt lat="40.0504860" lon="-4.7743490">
        <ele>443.9</ele>
        <time>2020-10-04T07:50:27Z</time>
      </trkpt>
      <trkpt lat="40.0505270" lon="-4.7742910">
        <ele>443.7</ele>
        <time>2020-10-04T07:50:28Z</time>
      </trkpt>
      <trkpt lat="40.0506130" lon="-4.7741780">
        <ele>443.3</ele>
        <time>2020-10-04T07:50:30Z</time>
      </trkpt>
      <trkpt lat="40.0507080" lon="-4.7740590">
        <ele>442.8</ele>
        <time>2020-10-04T07:50:32Z</time>
      </trkpt>
      <trkpt lat="40.0508050" lon="-4.7739330">
        <ele>442.3</ele>
        <time>2020-10-04T07:50:34Z</time>
      </trkpt>
      <trkpt lat="40.0508880" lon="-4.7738090">
        <ele>441.9</ele>
        <time>2020-10-04T07:50:36Z</time>
      </trkpt>
      <trkpt lat="40.0509690" lon="-4.7736890">
        <ele>441.6</ele>
        <time>2020-10-04T07:50:38Z</time>
      </trkpt>
      <trkpt lat="40.0510080" lon="-4.7736240">
        <ele>441.4</ele>
        <time>2020-10-04T07:50:39Z</time>
      </trkpt>
      <trkpt lat="40.0510820" lon="-4.7734890">
        <ele>441.0</ele>
        <time>2020-10-04T07:50:41Z</time>
      </trkpt>
      <trkpt lat="40.0511210" lon="-4.7734220">
        <ele>440.9</ele>
        <time>2020-10-04T07:50:42Z</time>
      </trkpt>
      <trkpt lat="40.0511590" lon="-4.7733560">
        <ele>440.8</ele>
        <time>2020-10-04T07:50:43Z</time>
      </trkpt>
      <trkpt lat="40.0512470" lon="-4.7732390">
        <ele>440.5</ele>
        <time>2020-10-04T07:50:45Z</time>
      </trkpt>
      <trkpt lat="40.0513410" lon="-4.7731400">
        <ele>440.2</ele>
        <time>2020-10-04T07:50:47Z</time>
      </trkpt>
      <trkpt lat="40.0514310" lon="-4.7730320">
        <ele>439.8</ele>
        <time>2020-10-04T07:50:49Z</time>
      </trkpt>
      <trkpt lat="40.0515210" lon="-4.7729040">
        <ele>439.5</ele>
        <time>2020-10-04T07:50:51Z</time>
      </trkpt>
      <trkpt lat="40.0516160" lon="-4.7727640">
        <ele>439.3</ele>
        <time>2020-10-04T07:50:53Z</time>
      </trkpt>
      <trkpt lat="40.0517070" lon="-4.7726220">
        <ele>439.0</ele>
        <time>2020-10-04T07:50:55Z</time>
      </trkpt>
      <trkpt lat="40.0517520" lon="-4.7725490">
        <ele>438.9</ele>
        <time>2020-10-04T07:50:56Z</time>
      </trkpt>
      <trkpt lat="40.0518320" lon="-4.7724060">
        <ele>438.6</ele>
        <time>2020-10-04T07:50:58Z</time>
      </trkpt>
      <trkpt lat="40.0518740" lon="-4.7723360">
        <ele>438.5</ele>
        <time>2020-10-04T07:50:59Z</time>
      </trkpt>
      <trkpt lat="40.0519670" lon="-4.7722060">
        <ele>438.2</ele>
        <time>2020-10-04T07:51:01Z</time>
      </trkpt>
      <trkpt lat="40.0520160" lon="-4.7721420">
        <ele>438.1</ele>
        <time>2020-10-04T07:51:02Z</time>
      </trkpt>
      <trkpt lat="40.0520660" lon="-4.7720780">
        <ele>437.9</ele>
        <time>2020-10-04T07:51:03Z</time>
      </trkpt>
      <trkpt lat="40.0521150" lon="-4.7720130">
        <ele>437.8</ele>
        <time>2020-10-04T07:51:04Z</time>
      </trkpt>
      <trkpt lat="40.0522040" lon="-4.7718760">
        <ele>437.5</ele>
        <time>2020-10-04T07:51:06Z</time>
      </trkpt>
      <trkpt lat="40.0522460" lon="-4.7718020">
        <ele>437.4</ele>
        <time>2020-10-04T07:51:07Z</time>
      </trkpt>
      <trkpt lat="40.0523320" lon="-4.7716550">
        <ele>437.2</ele>
        <time>2020-10-04T07:51:09Z</time>
      </trkpt>
      <trkpt lat="40.0523730" lon="-4.7715810">
        <ele>437.1</ele>
        <time>2020-10-04T07:51:10Z</time>
      </trkpt>
      <trkpt lat="40.0524360" lon="-4.7714270">
        <ele>436.8</ele>
        <time>2020-10-04T07:51:12Z</time>
      </trkpt>
      <trkpt lat="40.0524910" lon="-4.7712800">
        <ele>436.6</ele>
        <time>2020-10-04T07:51:14Z</time>
      </trkpt>
      <trkpt lat="40.0525190" lon="-4.7712080">
        <ele>436.5</ele>
        <time>2020-10-04T07:51:15Z</time>
      </trkpt>
      <trkpt lat="40.0525820" lon="-4.7710650">
        <ele>436.4</ele>
        <time>2020-10-04T07:51:17Z</time>
      </trkpt>
      <trkpt lat="40.0526510" lon="-4.7709040">
        <ele>436.3</ele>
        <time>2020-10-04T07:51:19Z</time>
      </trkpt>
      <trkpt lat="40.0527240" lon="-4.7707450">
        <ele>436.2</ele>
        <time>2020-10-04T07:51:21Z</time>
      </trkpt>
      <trkpt lat="40.0527630" lon="-4.7706740">
        <ele>436.2</ele>
        <time>2020-10-04T07:51:22Z</time>
      </trkpt>
      <trkpt lat="40.0528370" lon="-4.7705590">
        <ele>436.3</ele>
        <time>2020-10-04T07:51:24Z</time>
      </trkpt>
      <trkpt lat="40.0528670" lon="-4.7705210">
        <ele>436.4</ele>
        <time>2020-10-04T07:51:25Z</time>
      </trkpt>
      <trkpt lat="40.0529070" lon="-4.7704870">
        <ele>436.4</ele>
        <time>2020-10-04T07:51:27Z</time>
      </trkpt>
      <trkpt lat="40.0529320" lon="-4.7704670">
        <ele>436.4</ele>
        <time>2020-10-04T07:51:28Z</time>
      </trkpt>
      <trkpt lat="40.0529600" lon="-4.7704370">
        <ele>436.3</ele>
        <time>2020-10-04T07:51:30Z</time>
      </trkpt>
      <trkpt lat="40.0529720" lon="-4.7704150">
        <ele>436.3</ele>
        <time>2020-10-04T07:51:31Z</time>
      </trkpt>
      <trkpt lat="40.0529840" lon="-4.7703560">
        <ele>436.2</ele>
        <time>2020-10-04T07:51:33Z</time>
      </trkpt>
      <trkpt lat="40.0529840" lon="-4.7702870">
        <ele>436.1</ele>
        <time>2020-10-04T07:51:34Z</time>
      </trkpt>
      <trkpt lat="40.0529980" lon="-4.7702390">
        <ele>436.0</ele>
        <time>2020-10-04T07:51:35Z</time>
      </trkpt>
      <trkpt lat="40.0530460" lon="-4.7700770">
        <ele>435.7</ele>
        <time>2020-10-04T07:51:37Z</time>
      </trkpt>
      <trkpt lat="40.0530660" lon="-4.7699990">
        <ele>435.6</ele>
        <time>2020-10-04T07:51:38Z</time>
      </trkpt>
      <trkpt lat="40.0530830" lon="-4.7699220">
        <ele>435.5</ele>
        <time>2020-10-04T07:51:39Z</time>
      </trkpt>
      <trkpt lat="40.0531080" lon="-4.7697550">
        <ele>435.3</ele>
        <time>2020-10-04T07:51:41Z</time>
      </trkpt>
      <trkpt lat="40.0531160" lon="-4.7695810">
        <ele>435.2</ele>
        <time>2020-10-04T07:51:43Z</time>
      </trkpt>
      <trkpt lat="40.0531130" lon="-4.7694010">
        <ele>435.0</ele>
        <time>2020-10-04T07:51:45Z</time>
      </trkpt>
      <trkpt lat="40.0531050" lon="-4.7692220">
        <ele>434.9</ele>
        <time>2020-10-04T07:51:47Z</time>
      </trkpt>
      <trkpt lat="40.0530960" lon="-4.7690430">
        <ele>434.8</ele>
        <time>2020-10-04T07:51:49Z</time>
      </trkpt>
      <trkpt lat="40.0530770" lon="-4.7688680">
        <ele>434.7</ele>
        <time>2020-10-04T07:51:51Z</time>
      </trkpt>
      <trkpt lat="40.0530640" lon="-4.7687050">
        <ele>434.6</ele>
        <time>2020-10-04T07:51:53Z</time>
      </trkpt>
      <trkpt lat="40.0530670" lon="-4.7685300">
        <ele>434.4</ele>
        <time>2020-10-04T07:51:55Z</time>
      </trkpt>
      <trkpt lat="40.0530750" lon="-4.7683530">
        <ele>434.2</ele>
        <time>2020-10-04T07:51:57Z</time>
      </trkpt>
      <trkpt lat="40.0530770" lon="-4.7681820">
        <ele>433.9</ele>
        <time>2020-10-04T07:51:59Z</time>
      </trkpt>
      <trkpt lat="40.0530780" lon="-4.7680170">
        <ele>433.5</ele>
        <time>2020-10-04T07:52:01Z</time>
      </trkpt>
      <trkpt lat="40.0530870" lon="-4.7678300">
        <ele>433.2</ele>
        <time>2020-10-04T07:52:03Z</time>
      </trkpt>
      <trkpt lat="40.0530790" lon="-4.7676480">
        <ele>433.0</ele>
        <time>2020-10-04T07:52:05Z</time>
      </trkpt>
      <trkpt lat="40.0530650" lon="-4.7674680">
        <ele>432.8</ele>
        <time>2020-10-04T07:52:07Z</time>
      </trkpt>
      <trkpt lat="40.0530600" lon="-4.7673730">
        <ele>432.7</ele>
        <time>2020-10-04T07:52:08Z</time>
      </trkpt>
      <trkpt lat="40.0530520" lon="-4.7672810">
        <ele>432.5</ele>
        <time>2020-10-04T07:52:09Z</time>
      </trkpt>
      <trkpt lat="40.0530320" lon="-4.7671060">
        <ele>432.3</ele>
        <time>2020-10-04T07:52:11Z</time>
      </trkpt>
      <trkpt lat="40.0530220" lon="-4.7669350">
        <ele>432.1</ele>
        <time>2020-10-04T07:52:13Z</time>
      </trkpt>
      <trkpt lat="40.0530330" lon="-4.7667590">
        <ele>431.9</ele>
        <time>2020-10-04T07:52:15Z</time>
      </trkpt>
      <trkpt lat="40.0530560" lon="-4.7665770">
        <ele>431.6</ele>
        <time>2020-10-04T07:52:17Z</time>
      </trkpt>
      <trkpt lat="40.0530690" lon="-4.7664860">
        <ele>431.5</ele>
        <time>2020-10-04T07:52:18Z</time>
      </trkpt>
      <trkpt lat="40.0531000" lon="-4.7663090">
        <ele>431.2</ele>
        <time>2020-10-04T07:52:19Z</time>
      </trkpt>
      <trkpt lat="40.0531190" lon="-4.7662200">
        <ele>431.1</ele>
        <time>2020-10-04T07:52:20Z</time>
      </trkpt>
      <trkpt lat="40.0531420" lon="-4.7661310">
        <ele>430.9</ele>
        <time>2020-10-04T07:52:21Z</time>
      </trkpt>
      <trkpt lat="40.0531680" lon="-4.7660440">
        <ele>430.8</ele>
        <time>2020-10-04T07:52:22Z</time>
      </trkpt>
      <trkpt lat="40.0532190" lon="-4.7658710">
        <ele>430.7</ele>
        <time>2020-10-04T07:52:24Z</time>
      </trkpt>
      <trkpt lat="40.0532730" lon="-4.7657180">
        <ele>430.7</ele>
        <time>2020-10-04T07:52:26Z</time>
      </trkpt>
      <trkpt lat="40.0533250" lon="-4.7655890">
        <ele>430.7</ele>
        <time>2020-10-04T07:52:28Z</time>
      </trkpt>
      <trkpt lat="40.0533510" lon="-4.7655250">
        <ele>430.7</ele>
        <time>2020-10-04T07:52:29Z</time>
      </trkpt>
      <trkpt lat="40.0533780" lon="-4.7654610">
        <ele>430.7</ele>
        <time>2020-10-04T07:52:30Z</time>
      </trkpt>
      <trkpt lat="40.0534030" lon="-4.7653980">
        <ele>430.6</ele>
        <time>2020-10-04T07:52:31Z</time>
      </trkpt>
      <trkpt lat="40.0534280" lon="-4.7652670">
        <ele>430.5</ele>
        <time>2020-10-04T07:52:33Z</time>
      </trkpt>
      <trkpt lat="40.0534400" lon="-4.7651970">
        <ele>430.5</ele>
        <time>2020-10-04T07:52:34Z</time>
      </trkpt>
      <trkpt lat="40.0535010" lon="-4.7650930">
        <ele>430.6</ele>
        <time>2020-10-04T07:52:36Z</time>
      </trkpt>
      <trkpt lat="40.0535720" lon="-4.7650020">
        <ele>430.7</ele>
        <time>2020-10-04T07:52:38Z</time>
      </trkpt>
      <trkpt lat="40.0535940" lon="-4.7649680">
        <ele>430.8</ele>
        <time>2020-10-04T07:52:39Z</time>
      </trkpt>
      <trkpt lat="40.0536180" lon="-4.7649220">
        <ele>430.8</ele>
        <time>2020-10-04T07:52:40Z</time>
      </trkpt>
      <trkpt lat="40.0536470" lon="-4.7648590">
        <ele>430.9</ele>
        <time>2020-10-04T07:52:41Z</time>
      </trkpt>
      <trkpt lat="40.0537080" lon="-4.7647050">
        <ele>431.4</ele>
        <time>2020-10-04T07:52:43Z</time>
      </trkpt>
      <trkpt lat="40.0537710" lon="-4.7645600">
        <ele>432.0</ele>
        <time>2020-10-04T07:52:45Z</time>
      </trkpt>
      <trkpt lat="40.0538290" lon="-4.7644510">
        <ele>432.8</ele>
        <time>2020-10-04T07:52:47Z</time>
      </trkpt>
      <trkpt lat="40.0538500" lon="-4.7644030">
        <ele>433.2</ele>
        <time>2020-10-04T07:52:48Z</time>
      </trkpt>
      <trkpt lat="40.0538890" lon="-4.7643260">
        <ele>433.8</ele>
        <time>2020-10-04T07:52:50Z</time>
      </trkpt>
      <trkpt lat="40.0539030" lon="-4.7642800">
        <ele>434.2</ele>
        <time>2020-10-04T07:52:52Z</time>
      </trkpt>
      <trkpt lat="40.0539070" lon="-4.7642220">
        <ele>434.5</ele>
        <time>2020-10-04T07:52:53Z</time>
      </trkpt>
      <trkpt lat="40.0539070" lon="-4.7641600">
        <ele>434.8</ele>
        <time>2020-10-04T07:52:55Z</time>
      </trkpt>
      <trkpt lat="40.0539110" lon="-4.7640860">
        <ele>435.1</ele>
        <time>2020-10-04T07:52:56Z</time>
      </trkpt>
      <trkpt lat="40.0539150" lon="-4.7639930">
        <ele>435.5</ele>
        <time>2020-10-04T07:52:57Z</time>
      </trkpt>
      <trkpt lat="40.0539280" lon="-4.7638520">
        <ele>436.1</ele>
        <time>2020-10-04T07:52:59Z</time>
      </trkpt>
      <trkpt lat="40.0539350" lon="-4.7637920">
        <ele>436.3</ele>
        <time>2020-10-04T07:53:00Z</time>
      </trkpt>
      <trkpt lat="40.0539350" lon="-4.7637420">
        <ele>436.5</ele>
        <time>2020-10-04T07:53:01Z</time>
      </trkpt>
      <trkpt lat="40.0539480" lon="-4.7636680">
        <ele>436.8</ele>
        <time>2020-10-04T07:53:03Z</time>
      </trkpt>
      <trkpt lat="40.0539590" lon="-4.7636090">
        <ele>437.0</ele>
        <time>2020-10-04T07:53:04Z</time>
      </trkpt>
      <trkpt lat="40.0539690" lon="-4.7635320">
        <ele>437.3</ele>
        <time>2020-10-04T07:53:06Z</time>
      </trkpt>
      <trkpt lat="40.0539800" lon="-4.7634560">
        <ele>437.6</ele>
        <time>2020-10-04T07:53:07Z</time>
      </trkpt>
      <trkpt lat="40.0539830" lon="-4.7633940">
        <ele>437.8</ele>
        <time>2020-10-04T07:53:08Z</time>
      </trkpt>
      <trkpt lat="40.0539820" lon="-4.7633350">
        <ele>437.9</ele>
        <time>2020-10-04T07:53:09Z</time>
      </trkpt>
      <trkpt lat="40.0539830" lon="-4.7632360">
        <ele>438.2</ele>
        <time>2020-10-04T07:53:11Z</time>
      </trkpt>
      <trkpt lat="40.0539830" lon="-4.7631310">
        <ele>438.3</ele>
        <time>2020-10-04T07:53:13Z</time>
      </trkpt>
      <trkpt lat="40.0539850" lon="-4.7630330">
        <ele>438.4</ele>
        <time>2020-10-04T07:53:14Z</time>
      </trkpt>
      <trkpt lat="40.0539880" lon="-4.7629590">
        <ele>438.4</ele>
        <time>2020-10-04T07:53:15Z</time>
      </trkpt>
      <trkpt lat="40.0539930" lon="-4.7628240">
        <ele>438.5</ele>
        <time>2020-10-04T07:53:17Z</time>
      </trkpt>
      <trkpt lat="40.0539950" lon="-4.7627550">
        <ele>438.6</ele>
        <time>2020-10-04T07:53:18Z</time>
      </trkpt>
      <trkpt lat="40.0539960" lon="-4.7626820">
        <ele>438.6</ele>
        <time>2020-10-04T07:53:19Z</time>
      </trkpt>
      <trkpt lat="40.0539990" lon="-4.7625340">
        <ele>438.7</ele>
        <time>2020-10-04T07:53:21Z</time>
      </trkpt>
      <trkpt lat="40.0540020" lon="-4.7624640">
        <ele>438.7</ele>
        <time>2020-10-04T07:53:22Z</time>
      </trkpt>
      <trkpt lat="40.0539980" lon="-4.7623290">
        <ele>438.7</ele>
        <time>2020-10-04T07:53:24Z</time>
      </trkpt>
      <trkpt lat="40.0540000" lon="-4.7621960">
        <ele>438.6</ele>
        <time>2020-10-04T07:53:26Z</time>
      </trkpt>
      <trkpt lat="40.0540090" lon="-4.7620580">
        <ele>438.5</ele>
        <time>2020-10-04T07:53:28Z</time>
      </trkpt>
      <trkpt lat="40.0540190" lon="-4.7619140">
        <ele>438.5</ele>
        <time>2020-10-04T07:53:30Z</time>
      </trkpt>
      <trkpt lat="40.0540270" lon="-4.7617670">
        <ele>438.5</ele>
        <time>2020-10-04T07:53:32Z</time>
      </trkpt>
      <trkpt lat="40.0540360" lon="-4.7616150">
        <ele>438.5</ele>
        <time>2020-10-04T07:53:34Z</time>
      </trkpt>
      <trkpt lat="40.0540410" lon="-4.7615390">
        <ele>438.6</ele>
        <time>2020-10-04T07:53:35Z</time>
      </trkpt>
      <trkpt lat="40.0540560" lon="-4.7613970">
        <ele>438.7</ele>
        <time>2020-10-04T07:53:37Z</time>
      </trkpt>
      <trkpt lat="40.0540820" lon="-4.7612570">
        <ele>438.8</ele>
        <time>2020-10-04T07:53:39Z</time>
      </trkpt>
      <trkpt lat="40.0541010" lon="-4.7611860">
        <ele>438.8</ele>
        <time>2020-10-04T07:53:40Z</time>
      </trkpt>
      <trkpt lat="40.0541410" lon="-4.7610450">
        <ele>439.0</ele>
        <time>2020-10-04T07:53:42Z</time>
      </trkpt>
      <trkpt lat="40.0541950" lon="-4.7609180">
        <ele>439.3</ele>
        <time>2020-10-04T07:53:44Z</time>
      </trkpt>
      <trkpt lat="40.0542530" lon="-4.7608050">
        <ele>439.6</ele>
        <time>2020-10-04T07:53:46Z</time>
      </trkpt>
      <trkpt lat="40.0542820" lon="-4.7607500">
        <ele>439.7</ele>
        <time>2020-10-04T07:53:47Z</time>
      </trkpt>
      <trkpt lat="40.0543500" lon="-4.7606570">
        <ele>439.9</ele>
        <time>2020-10-04T07:53:49Z</time>
      </trkpt>
      <trkpt lat="40.0543870" lon="-4.7606130">
        <ele>440.0</ele>
        <time>2020-10-04T07:53:50Z</time>
      </trkpt>
      <trkpt lat="40.0544580" lon="-4.7605230">
        <ele>440.3</ele>
        <time>2020-10-04T07:53:52Z</time>
      </trkpt>
      <trkpt lat="40.0545180" lon="-4.7604210">
        <ele>440.4</ele>
        <time>2020-10-04T07:53:54Z</time>
      </trkpt>
      <trkpt lat="40.0545770" lon="-4.7603120">
        <ele>440.6</ele>
        <time>2020-10-04T07:53:56Z</time>
      </trkpt>
      <trkpt lat="40.0546090" lon="-4.7602580">
        <ele>440.7</ele>
        <time>2020-10-04T07:53:57Z</time>
      </trkpt>
      <trkpt lat="40.0546740" lon="-4.7601520">
        <ele>440.9</ele>
        <time>2020-10-04T07:53:59Z</time>
      </trkpt>
      <trkpt lat="40.0547390" lon="-4.7600520">
        <ele>441.1</ele>
        <time>2020-10-04T07:54:01Z</time>
      </trkpt>
      <trkpt lat="40.0547730" lon="-4.7600040">
        <ele>441.2</ele>
        <time>2020-10-04T07:54:02Z</time>
      </trkpt>
      <trkpt lat="40.0548060" lon="-4.7599560">
        <ele>441.3</ele>
        <time>2020-10-04T07:54:03Z</time>
      </trkpt>
      <trkpt lat="40.0548730" lon="-4.7598620">
        <ele>441.6</ele>
        <time>2020-10-04T07:54:05Z</time>
      </trkpt>
      <trkpt lat="40.0549050" lon="-4.7598120">
        <ele>441.7</ele>
        <time>2020-10-04T07:54:06Z</time>
      </trkpt>
      <trkpt lat="40.0549650" lon="-4.7597140">
        <ele>442.0</ele>
        <time>2020-10-04T07:54:08Z</time>
      </trkpt>
      <trkpt lat="40.0550210" lon="-4.7596150">
        <ele>442.2</ele>
        <time>2020-10-04T07:54:10Z</time>
      </trkpt>
      <trkpt lat="40.0550480" lon="-4.7595660">
        <ele>442.3</ele>
        <time>2020-10-04T07:54:11Z</time>
      </trkpt>
      <trkpt lat="40.0551040" lon="-4.7594700">
        <ele>442.5</ele>
        <time>2020-10-04T07:54:13Z</time>
      </trkpt>
      <trkpt lat="40.0551350" lon="-4.7594230">
        <ele>442.6</ele>
        <time>2020-10-04T07:54:14Z</time>
      </trkpt>
      <trkpt lat="40.0551960" lon="-4.7593290">
        <ele>442.7</ele>
        <time>2020-10-04T07:54:16Z</time>
      </trkpt>
      <trkpt lat="40.0552280" lon="-4.7592800">
        <ele>442.7</ele>
        <time>2020-10-04T07:54:17Z</time>
      </trkpt>
      <trkpt lat="40.0552590" lon="-4.7592300">
        <ele>442.8</ele>
        <time>2020-10-04T07:54:18Z</time>
      </trkpt>
      <trkpt lat="40.0552910" lon="-4.7591770">
        <ele>442.8</ele>
        <time>2020-10-04T07:54:19Z</time>
      </trkpt>
      <trkpt lat="40.0553530" lon="-4.7590670">
        <ele>442.9</ele>
        <time>2020-10-04T07:54:21Z</time>
      </trkpt>
      <trkpt lat="40.0553840" lon="-4.7590100">
        <ele>442.9</ele>
        <time>2020-10-04T07:54:22Z</time>
      </trkpt>
      <trkpt lat="40.0554140" lon="-4.7589530">
        <ele>442.9</ele>
        <time>2020-10-04T07:54:23Z</time>
      </trkpt>
      <trkpt lat="40.0554490" lon="-4.7588980">
        <ele>442.9</ele>
        <time>2020-10-04T07:54:24Z</time>
      </trkpt>
      <trkpt lat="40.0555270" lon="-4.7588030">
        <ele>442.9</ele>
        <time>2020-10-04T07:54:26Z</time>
      </trkpt>
      <trkpt lat="40.0555660" lon="-4.7587580">
        <ele>443.0</ele>
        <time>2020-10-04T07:54:27Z</time>
      </trkpt>
      <trkpt lat="40.0556360" lon="-4.7586620">
        <ele>442.9</ele>
        <time>2020-10-04T07:54:29Z</time>
      </trkpt>
      <trkpt lat="40.0556980" lon="-4.7585580">
        <ele>442.9</ele>
        <time>2020-10-04T07:54:31Z</time>
      </trkpt>
      <trkpt lat="40.0557650" lon="-4.7584480">
        <ele>442.8</ele>
        <time>2020-10-04T07:54:33Z</time>
      </trkpt>
      <trkpt lat="40.0558320" lon="-4.7583320">
        <ele>442.7</ele>
        <time>2020-10-04T07:54:35Z</time>
      </trkpt>
      <trkpt lat="40.0558710" lon="-4.7582840">
        <ele>442.6</ele>
        <time>2020-10-04T07:54:36Z</time>
      </trkpt>
      <trkpt lat="40.0559430" lon="-4.7581910">
        <ele>442.5</ele>
        <time>2020-10-04T07:54:38Z</time>
      </trkpt>
      <trkpt lat="40.0559760" lon="-4.7581420">
        <ele>442.5</ele>
        <time>2020-10-04T07:54:39Z</time>
      </trkpt>
      <trkpt lat="40.0560250" lon="-4.7580380">
        <ele>442.5</ele>
        <time>2020-10-04T07:54:41Z</time>
      </trkpt>
      <trkpt lat="40.0560760" lon="-4.7579380">
        <ele>442.5</ele>
        <time>2020-10-04T07:54:43Z</time>
      </trkpt>
      <trkpt lat="40.0561440" lon="-4.7578390">
        <ele>442.5</ele>
        <time>2020-10-04T07:54:45Z</time>
      </trkpt>
      <trkpt lat="40.0562140" lon="-4.7577410">
        <ele>442.5</ele>
        <time>2020-10-04T07:54:47Z</time>
      </trkpt>
      <trkpt lat="40.0562450" lon="-4.7576860">
        <ele>442.4</ele>
        <time>2020-10-04T07:54:48Z</time>
      </trkpt>
      <trkpt lat="40.0562760" lon="-4.7576300">
        <ele>442.4</ele>
        <time>2020-10-04T07:54:49Z</time>
      </trkpt>
      <trkpt lat="40.0563440" lon="-4.7575150">
        <ele>442.2</ele>
        <time>2020-10-04T07:54:51Z</time>
      </trkpt>
      <trkpt lat="40.0564150" lon="-4.7573980">
        <ele>442.1</ele>
        <time>2020-10-04T07:54:53Z</time>
      </trkpt>
      <trkpt lat="40.0564530" lon="-4.7573380">
        <ele>442.0</ele>
        <time>2020-10-04T07:54:54Z</time>
      </trkpt>
      <trkpt lat="40.0565340" lon="-4.7572190">
        <ele>442.0</ele>
        <time>2020-10-04T07:54:56Z</time>
      </trkpt>
      <trkpt lat="40.0566220" lon="-4.7571060">
        <ele>442.0</ele>
        <time>2020-10-04T07:54:58Z</time>
      </trkpt>
      <trkpt lat="40.0566660" lon="-4.7570470">
        <ele>442.0</ele>
        <time>2020-10-04T07:54:59Z</time>
      </trkpt>
      <trkpt lat="40.0567060" lon="-4.7569860">
        <ele>442.0</ele>
        <time>2020-10-04T07:55:00Z</time>
      </trkpt>
      <trkpt lat="40.0567810" lon="-4.7568690">
        <ele>441.9</ele>
        <time>2020-10-04T07:55:02Z</time>
      </trkpt>
      <trkpt lat="40.0568580" lon="-4.7567590">
        <ele>441.7</ele>
        <time>2020-10-04T07:55:04Z</time>
      </trkpt>
      <trkpt lat="40.0569000" lon="-4.7567020">
        <ele>441.5</ele>
        <time>2020-10-04T07:55:05Z</time>
      </trkpt>
      <trkpt lat="40.0569420" lon="-4.7566440">
        <ele>441.4</ele>
        <time>2020-10-04T07:55:06Z</time>
      </trkpt>
      <trkpt lat="40.0569820" lon="-4.7565830">
        <ele>441.3</ele>
        <time>2020-10-04T07:55:07Z</time>
      </trkpt>
      <trkpt lat="40.0570510" lon="-4.7564590">
        <ele>441.1</ele>
        <time>2020-10-04T07:55:09Z</time>
      </trkpt>
      <trkpt lat="40.0571220" lon="-4.7563260">
        <ele>440.9</ele>
        <time>2020-10-04T07:55:11Z</time>
      </trkpt>
      <trkpt lat="40.0571570" lon="-4.7562570">
        <ele>440.7</ele>
        <time>2020-10-04T07:55:12Z</time>
      </trkpt>
      <trkpt lat="40.0572150" lon="-4.7561210">
        <ele>440.4</ele>
        <time>2020-10-04T07:55:14Z</time>
      </trkpt>
      <trkpt lat="40.0572340" lon="-4.7560460">
        <ele>440.2</ele>
        <time>2020-10-04T07:55:15Z</time>
      </trkpt>
      <trkpt lat="40.0572490" lon="-4.7558740">
        <ele>439.6</ele>
        <time>2020-10-04T07:55:17Z</time>
      </trkpt>
      <trkpt lat="40.0572400" lon="-4.7557840">
        <ele>439.2</ele>
        <time>2020-10-04T07:55:18Z</time>
      </trkpt>
      <trkpt lat="40.0572210" lon="-4.7555870">
        <ele>438.5</ele>
        <time>2020-10-04T07:55:20Z</time>
      </trkpt>
      <trkpt lat="40.0572380" lon="-4.7553870">
        <ele>438.1</ele>
        <time>2020-10-04T07:55:22Z</time>
      </trkpt>
      <trkpt lat="40.0572600" lon="-4.7552900">
        <ele>437.9</ele>
        <time>2020-10-04T07:55:23Z</time>
      </trkpt>
      <trkpt lat="40.0573180" lon="-4.7551190">
        <ele>437.7</ele>
        <time>2020-10-04T07:55:25Z</time>
      </trkpt>
      <trkpt lat="40.0573500" lon="-4.7550380">
        <ele>437.6</ele>
        <time>2020-10-04T07:55:26Z</time>
      </trkpt>
      <trkpt lat="40.0573860" lon="-4.7549570">
        <ele>437.5</ele>
        <time>2020-10-04T07:55:27Z</time>
      </trkpt>
      <trkpt lat="40.0574660" lon="-4.7548090">
        <ele>437.4</ele>
        <time>2020-10-04T07:55:29Z</time>
      </trkpt>
      <trkpt lat="40.0575530" lon="-4.7546820">
        <ele>437.5</ele>
        <time>2020-10-04T07:55:31Z</time>
      </trkpt>
      <trkpt lat="40.0575900" lon="-4.7546200">
        <ele>437.6</ele>
        <time>2020-10-04T07:55:32Z</time>
      </trkpt>
      <trkpt lat="40.0576150" lon="-4.7545500">
        <ele>437.9</ele>
        <time>2020-10-04T07:55:33Z</time>
      </trkpt>
      <trkpt lat="40.0576480" lon="-4.7544010">
        <ele>438.5</ele>
        <time>2020-10-04T07:55:35Z</time>
      </trkpt>
      <trkpt lat="40.0576670" lon="-4.7543280">
        <ele>438.7</ele>
        <time>2020-10-04T07:55:36Z</time>
      </trkpt>
      <trkpt lat="40.0577070" lon="-4.7541930">
        <ele>438.9</ele>
        <time>2020-10-04T07:55:38Z</time>
      </trkpt>
      <trkpt lat="40.0577290" lon="-4.7541280">
        <ele>439.0</ele>
        <time>2020-10-04T07:55:39Z</time>
      </trkpt>
      <trkpt lat="40.0577700" lon="-4.7539920">
        <ele>438.9</ele>
        <time>2020-10-04T07:55:41Z</time>
      </trkpt>
      <trkpt lat="40.0578440" lon="-4.7538640">
        <ele>438.9</ele>
        <time>2020-10-04T07:55:43Z</time>
      </trkpt>
      <trkpt lat="40.0579240" lon="-4.7537350">
        <ele>438.8</ele>
        <time>2020-10-04T07:55:45Z</time>
      </trkpt>
      <trkpt lat="40.0580020" lon="-4.7536000">
        <ele>438.9</ele>
        <time>2020-10-04T07:55:47Z</time>
      </trkpt>
      <trkpt lat="40.0580700" lon="-4.7534590">
        <ele>439.0</ele>
        <time>2020-10-04T07:55:49Z</time>
      </trkpt>
      <trkpt lat="40.0580980" lon="-4.7533910">
        <ele>439.2</ele>
        <time>2020-10-04T07:55:50Z</time>
      </trkpt>
      <trkpt lat="40.0581410" lon="-4.7532600">
        <ele>439.5</ele>
        <time>2020-10-04T07:55:52Z</time>
      </trkpt>
      <trkpt lat="40.0581680" lon="-4.7531340">
        <ele>440.0</ele>
        <time>2020-10-04T07:55:54Z</time>
      </trkpt>
      <trkpt lat="40.0581790" lon="-4.7530760">
        <ele>440.3</ele>
        <time>2020-10-04T07:55:55Z</time>
      </trkpt>
      <trkpt lat="40.0581880" lon="-4.7530190">
        <ele>440.5</ele>
        <time>2020-10-04T07:55:56Z</time>
      </trkpt>
      <trkpt lat="40.0581920" lon="-4.7529600">
        <ele>440.7</ele>
        <time>2020-10-04T07:55:57Z</time>
      </trkpt>
      <trkpt lat="40.0581940" lon="-4.7529070">
        <ele>440.9</ele>
        <time>2020-10-04T07:55:58Z</time>
      </trkpt>
      <trkpt lat="40.0582050" lon="-4.7528060">
        <ele>441.2</ele>
        <time>2020-10-04T07:56:00Z</time>
      </trkpt>
      <trkpt lat="40.0582140" lon="-4.7527540">
        <ele>441.3</ele>
        <time>2020-10-04T07:56:01Z</time>
      </trkpt>
      <trkpt lat="40.0582400" lon="-4.7526410">
        <ele>441.3</ele>
        <time>2020-10-04T07:56:03Z</time>
      </trkpt>
      <trkpt lat="40.0583020" lon="-4.7525020">
        <ele>440.9</ele>
        <time>2020-10-04T07:56:05Z</time>
      </trkpt>
      <trkpt lat="40.0583500" lon="-4.7524270">
        <ele>440.4</ele>
        <time>2020-10-04T07:56:06Z</time>
      </trkpt>
      <trkpt lat="40.0584070" lon="-4.7523460">
        <ele>439.7</ele>
        <time>2020-10-04T07:56:07Z</time>
      </trkpt>
      <trkpt lat="40.0585310" lon="-4.7521720">
        <ele>438.4</ele>
        <time>2020-10-04T07:56:09Z</time>
      </trkpt>
      <trkpt lat="40.0586380" lon="-4.7519810">
        <ele>437.1</ele>
        <time>2020-10-04T07:56:11Z</time>
      </trkpt>
      <trkpt lat="40.0586780" lon="-4.7518770">
        <ele>436.3</ele>
        <time>2020-10-04T07:56:12Z</time>
      </trkpt>
      <trkpt lat="40.0587170" lon="-4.7517680">
        <ele>435.6</ele>
        <time>2020-10-04T07:56:13Z</time>
      </trkpt>
      <trkpt lat="40.0587580" lon="-4.7516570">
        <ele>434.8</ele>
        <time>2020-10-04T07:56:14Z</time>
      </trkpt>
      <trkpt lat="40.0588560" lon="-4.7514540">
        <ele>433.2</ele>
        <time>2020-10-04T07:56:16Z</time>
      </trkpt>
      <trkpt lat="40.0589080" lon="-4.7513610">
        <ele>432.4</ele>
        <time>2020-10-04T07:56:17Z</time>
      </trkpt>
      <trkpt lat="40.0589960" lon="-4.7511650">
        <ele>431.0</ele>
        <time>2020-10-04T07:56:19Z</time>
      </trkpt>
      <trkpt lat="40.0590740" lon="-4.7509680">
        <ele>429.9</ele>
        <time>2020-10-04T07:56:21Z</time>
      </trkpt>
      <trkpt lat="40.0591910" lon="-4.7507950">
        <ele>428.9</ele>
        <time>2020-10-04T07:56:23Z</time>
      </trkpt>
      <trkpt lat="40.0592640" lon="-4.7507370">
        <ele>428.4</ele>
        <time>2020-10-04T07:56:24Z</time>
      </trkpt>
      <trkpt lat="40.0594110" lon="-4.7506910">
        <ele>427.6</ele>
        <time>2020-10-04T07:56:26Z</time>
      </trkpt>
      <trkpt lat="40.0594820" lon="-4.7507130">
        <ele>427.2</ele>
        <time>2020-10-04T07:56:27Z</time>
      </trkpt>
      <trkpt lat="40.0595510" lon="-4.7507420">
        <ele>426.9</ele>
        <time>2020-10-04T07:56:28Z</time>
      </trkpt>
      <trkpt lat="40.0596710" lon="-4.7507550">
        <ele>426.5</ele>
        <time>2020-10-04T07:56:30Z</time>
      </trkpt>
      <trkpt lat="40.0597450" lon="-4.7506950">
        <ele>426.3</ele>
        <time>2020-10-04T07:56:32Z</time>
      </trkpt>
      <trkpt lat="40.0597900" lon="-4.7506320">
        <ele>426.1</ele>
        <time>2020-10-04T07:56:34Z</time>
      </trkpt>
      <trkpt lat="40.0598160" lon="-4.7506330">
        <ele>426.1</ele>
        <time>2020-10-04T07:56:35Z</time>
      </trkpt>
      <trkpt lat="40.0598830" lon="-4.7506230">
        <ele>426.0</ele>
        <time>2020-10-04T07:56:37Z</time>
      </trkpt>
      <trkpt lat="40.0599140" lon="-4.7505970">
        <ele>426.0</ele>
        <time>2020-10-04T07:56:38Z</time>
      </trkpt>
      <trkpt lat="40.0599800" lon="-4.7505100">
        <ele>425.9</ele>
        <time>2020-10-04T07:56:40Z</time>
      </trkpt>
      <trkpt lat="40.0600170" lon="-4.7504700">
        <ele>425.9</ele>
        <time>2020-10-04T07:56:41Z</time>
      </trkpt>
      <trkpt lat="40.0601090" lon="-4.7503850">
        <ele>425.9</ele>
        <time>2020-10-04T07:56:43Z</time>
      </trkpt>
      <trkpt lat="40.0602250" lon="-4.7503320">
        <ele>425.9</ele>
        <time>2020-10-04T07:56:45Z</time>
      </trkpt>
      <trkpt lat="40.0602850" lon="-4.7503080">
        <ele>425.9</ele>
        <time>2020-10-04T07:56:46Z</time>
      </trkpt>
      <trkpt lat="40.0603460" lon="-4.7502820">
        <ele>425.9</ele>
        <time>2020-10-04T07:56:47Z</time>
      </trkpt>
      <trkpt lat="40.0604820" lon="-4.7502390">
        <ele>425.9</ele>
        <time>2020-10-04T07:56:49Z</time>
      </trkpt>
      <trkpt lat="40.0605570" lon="-4.7502290">
        <ele>425.8</ele>
        <time>2020-10-04T07:56:50Z</time>
      </trkpt>
      <trkpt lat="40.0607060" lon="-4.7502090">
        <ele>426.0</ele>
        <time>2020-10-04T07:56:52Z</time>
      </trkpt>
      <trkpt lat="40.0607730" lon="-4.7501900">
        <ele>426.0</ele>
        <time>2020-10-04T07:56:53Z</time>
      </trkpt>
      <trkpt lat="40.0608850" lon="-4.7501230">
        <ele>426.2</ele>
        <time>2020-10-04T07:56:55Z</time>
      </trkpt>
      <trkpt lat="40.0609840" lon="-4.7500370">
        <ele>426.3</ele>
        <time>2020-10-04T07:56:57Z</time>
      </trkpt>
      <trkpt lat="40.0610330" lon="-4.7499920">
        <ele>426.4</ele>
        <time>2020-10-04T07:56:58Z</time>
      </trkpt>
      <trkpt lat="40.0611310" lon="-4.7499030">
        <ele>426.6</ele>
        <time>2020-10-04T07:57:00Z</time>
      </trkpt>
      <trkpt lat="40.0612320" lon="-4.7498210">
        <ele>426.7</ele>
        <time>2020-10-04T07:57:02Z</time>
      </trkpt>
      <trkpt lat="40.0612840" lon="-4.7497830">
        <ele>426.8</ele>
        <time>2020-10-04T07:57:03Z</time>
      </trkpt>
      <trkpt lat="40.0613820" lon="-4.7497050">
        <ele>427.0</ele>
        <time>2020-10-04T07:57:05Z</time>
      </trkpt>
      <trkpt lat="40.0614750" lon="-4.7496190">
        <ele>427.2</ele>
        <time>2020-10-04T07:57:07Z</time>
      </trkpt>
      <trkpt lat="40.0615200" lon="-4.7495780">
        <ele>427.3</ele>
        <time>2020-10-04T07:57:08Z</time>
      </trkpt>
      <trkpt lat="40.0615650" lon="-4.7495360">
        <ele>427.4</ele>
        <time>2020-10-04T07:57:09Z</time>
      </trkpt>
      <trkpt lat="40.0616560" lon="-4.7494530">
        <ele>427.7</ele>
        <time>2020-10-04T07:57:11Z</time>
      </trkpt>
      <trkpt lat="40.0617010" lon="-4.7494100">
        <ele>427.8</ele>
        <time>2020-10-04T07:57:12Z</time>
      </trkpt>
      <trkpt lat="40.0617890" lon="-4.7493320">
        <ele>428.2</ele>
        <time>2020-10-04T07:57:14Z</time>
      </trkpt>
      <trkpt lat="40.0618330" lon="-4.7492970">
        <ele>428.3</ele>
        <time>2020-10-04T07:57:15Z</time>
      </trkpt>
      <trkpt lat="40.0619250" lon="-4.7492290">
        <ele>428.5</ele>
        <time>2020-10-04T07:57:17Z</time>
      </trkpt>
      <trkpt lat="40.0620190" lon="-4.7491560">
        <ele>428.6</ele>
        <time>2020-10-04T07:57:19Z</time>
      </trkpt>
      <trkpt lat="40.0621070" lon="-4.7490770">
        <ele>428.7</ele>
        <time>2020-10-04T07:57:21Z</time>
      </trkpt>
      <trkpt lat="40.0621950" lon="-4.7489950">
        <ele>428.9</ele>
        <time>2020-10-04T07:57:23Z</time>
      </trkpt>
      <trkpt lat="40.0622360" lon="-4.7489560">
        <ele>428.9</ele>
        <time>2020-10-04T07:57:24Z</time>
      </trkpt>
      <trkpt lat="40.0622770" lon="-4.7489180">
        <ele>429.0</ele>
        <time>2020-10-04T07:57:25Z</time>
      </trkpt>
      <trkpt lat="40.0623580" lon="-4.7488270">
        <ele>429.2</ele>
        <time>2020-10-04T07:57:27Z</time>
      </trkpt>
      <trkpt lat="40.0623990" lon="-4.7487800">
        <ele>429.4</ele>
        <time>2020-10-04T07:57:28Z</time>
      </trkpt>
      <trkpt lat="40.0624410" lon="-4.7487370">
        <ele>429.5</ele>
        <time>2020-10-04T07:57:29Z</time>
      </trkpt>
      <trkpt lat="40.0625240" lon="-4.7486570">
        <ele>429.8</ele>
        <time>2020-10-04T07:57:31Z</time>
      </trkpt>
      <trkpt lat="40.0626020" lon="-4.7485800">
        <ele>430.0</ele>
        <time>2020-10-04T07:57:33Z</time>
      </trkpt>
      <trkpt lat="40.0626420" lon="-4.7485430">
        <ele>430.1</ele>
        <time>2020-10-04T07:57:34Z</time>
      </trkpt>
      <trkpt lat="40.0626820" lon="-4.7485090">
        <ele>430.2</ele>
        <time>2020-10-04T07:57:35Z</time>
      </trkpt>
      <trkpt lat="40.0627210" lon="-4.7484730">
        <ele>430.4</ele>
        <time>2020-10-04T07:57:36Z</time>
      </trkpt>
      <trkpt lat="40.0627590" lon="-4.7484340">
        <ele>430.5</ele>
        <time>2020-10-04T07:57:37Z</time>
      </trkpt>
      <trkpt lat="40.0628340" lon="-4.7483530">
        <ele>430.7</ele>
        <time>2020-10-04T07:57:39Z</time>
      </trkpt>
      <trkpt lat="40.0628720" lon="-4.7483130">
        <ele>430.8</ele>
        <time>2020-10-04T07:57:40Z</time>
      </trkpt>
      <trkpt lat="40.0629090" lon="-4.7482710">
        <ele>430.8</ele>
        <time>2020-10-04T07:57:41Z</time>
      </trkpt>
      <trkpt lat="40.0629840" lon="-4.7481820">
        <ele>431.0</ele>
        <time>2020-10-04T07:57:43Z</time>
      </trkpt>
      <trkpt lat="40.0630620" lon="-4.7480900">
        <ele>431.2</ele>
        <time>2020-10-04T07:57:45Z</time>
      </trkpt>
      <trkpt lat="40.0631030" lon="-4.7480470">
        <ele>431.3</ele>
        <time>2020-10-04T07:57:46Z</time>
      </trkpt>
      <trkpt lat="40.0631420" lon="-4.7480040">
        <ele>431.4</ele>
        <time>2020-10-04T07:57:47Z</time>
      </trkpt>
      <trkpt lat="40.0631780" lon="-4.7479600">
        <ele>431.5</ele>
        <time>2020-10-04T07:57:48Z</time>
      </trkpt>
      <trkpt lat="40.0632480" lon="-4.7478750">
        <ele>431.6</ele>
        <time>2020-10-04T07:57:50Z</time>
      </trkpt>
      <trkpt lat="40.0633210" lon="-4.7477950">
        <ele>431.6</ele>
        <time>2020-10-04T07:57:52Z</time>
      </trkpt>
      <trkpt lat="40.0633580" lon="-4.7477540">
        <ele>431.6</ele>
        <time>2020-10-04T07:57:53Z</time>
      </trkpt>
      <trkpt lat="40.0634330" lon="-4.7476720">
        <ele>431.6</ele>
        <time>2020-10-04T07:57:55Z</time>
      </trkpt>
      <trkpt lat="40.0635090" lon="-4.7475880">
        <ele>431.5</ele>
        <time>2020-10-04T07:57:57Z</time>
      </trkpt>
      <trkpt lat="40.0635850" lon="-4.7475030">
        <ele>431.4</ele>
        <time>2020-10-04T07:57:59Z</time>
      </trkpt>
      <trkpt lat="40.0636240" lon="-4.7474610">
        <ele>431.4</ele>
        <time>2020-10-04T07:58:00Z</time>
      </trkpt>
      <trkpt lat="40.0637040" lon="-4.7473760">
        <ele>431.2</ele>
        <time>2020-10-04T07:58:02Z</time>
      </trkpt>
      <trkpt lat="40.0637460" lon="-4.7473300">
        <ele>431.1</ele>
        <time>2020-10-04T07:58:03Z</time>
      </trkpt>
      <trkpt lat="40.0638300" lon="-4.7472390">
        <ele>431.0</ele>
        <time>2020-10-04T07:58:05Z</time>
      </trkpt>
      <trkpt lat="40.0639120" lon="-4.7471530">
        <ele>430.8</ele>
        <time>2020-10-04T07:58:07Z</time>
      </trkpt>
      <trkpt lat="40.0639800" lon="-4.7470560">
        <ele>430.8</ele>
        <time>2020-10-04T07:58:09Z</time>
      </trkpt>
      <trkpt lat="40.0640460" lon="-4.7469560">
        <ele>430.8</ele>
        <time>2020-10-04T07:58:11Z</time>
      </trkpt>
      <trkpt lat="40.0641060" lon="-4.7468460">
        <ele>430.8</ele>
        <time>2020-10-04T07:58:13Z</time>
      </trkpt>
      <trkpt lat="40.0641700" lon="-4.7467350">
        <ele>430.9</ele>
        <time>2020-10-04T07:58:15Z</time>
      </trkpt>
      <trkpt lat="40.0642050" lon="-4.7466800">
        <ele>431.0</ele>
        <time>2020-10-04T07:58:16Z</time>
      </trkpt>
      <trkpt lat="40.0642380" lon="-4.7466250">
        <ele>431.1</ele>
        <time>2020-10-04T07:58:17Z</time>
      </trkpt>
      <trkpt lat="40.0643010" lon="-4.7465160">
        <ele>431.2</ele>
        <time>2020-10-04T07:58:19Z</time>
      </trkpt>
      <trkpt lat="40.0643350" lon="-4.7464630">
        <ele>431.3</ele>
        <time>2020-10-04T07:58:20Z</time>
      </trkpt>
      <trkpt lat="40.0643670" lon="-4.7464110">
        <ele>431.3</ele>
        <time>2020-10-04T07:58:21Z</time>
      </trkpt>
      <trkpt lat="40.0643970" lon="-4.7463600">
        <ele>431.4</ele>
        <time>2020-10-04T07:58:22Z</time>
      </trkpt>
      <trkpt lat="40.0644580" lon="-4.7462580">
        <ele>431.7</ele>
        <time>2020-10-04T07:58:24Z</time>
      </trkpt>
      <trkpt lat="40.0645170" lon="-4.7461600">
        <ele>432.0</ele>
        <time>2020-10-04T07:58:26Z</time>
      </trkpt>
      <trkpt lat="40.0645740" lon="-4.7460680">
        <ele>432.3</ele>
        <time>2020-10-04T07:58:28Z</time>
      </trkpt>
      <trkpt lat="40.0646260" lon="-4.7459790">
        <ele>432.7</ele>
        <time>2020-10-04T07:58:30Z</time>
      </trkpt>
      <trkpt lat="40.0646520" lon="-4.7459340">
        <ele>432.9</ele>
        <time>2020-10-04T07:58:31Z</time>
      </trkpt>
      <trkpt lat="40.0647050" lon="-4.7458490">
        <ele>433.2</ele>
        <time>2020-10-04T07:58:33Z</time>
      </trkpt>
      <trkpt lat="40.0647610" lon="-4.7457670">
        <ele>433.5</ele>
        <time>2020-10-04T07:58:35Z</time>
      </trkpt>
      <trkpt lat="40.0647880" lon="-4.7457270">
        <ele>433.6</ele>
        <time>2020-10-04T07:58:36Z</time>
      </trkpt>
      <trkpt lat="40.0648390" lon="-4.7456430">
        <ele>433.8</ele>
        <time>2020-10-04T07:58:38Z</time>
      </trkpt>
      <trkpt lat="40.0648660" lon="-4.7455990">
        <ele>434.0</ele>
        <time>2020-10-04T07:58:39Z</time>
      </trkpt>
      <trkpt lat="40.0649190" lon="-4.7455070">
        <ele>434.3</ele>
        <time>2020-10-04T07:58:41Z</time>
      </trkpt>
      <trkpt lat="40.0649470" lon="-4.7454600">
        <ele>434.4</ele>
        <time>2020-10-04T07:58:42Z</time>
      </trkpt>
      <trkpt lat="40.0649910" lon="-4.7453840">
        <ele>434.7</ele>
        <time>2020-10-04T07:58:44Z</time>
      </trkpt>
      <trkpt lat="40.0650220" lon="-4.7453340">
        <ele>434.8</ele>
        <time>2020-10-04T07:58:45Z</time>
      </trkpt>
      <trkpt lat="40.0650690" lon="-4.7452620">
        <ele>435.1</ele>
        <time>2020-10-04T07:58:47Z</time>
      </trkpt>
      <trkpt lat="40.0651260" lon="-4.7451730">
        <ele>435.2</ele>
        <time>2020-10-04T07:58:49Z</time>
      </trkpt>
      <trkpt lat="40.0651680" lon="-4.7451090">
        <ele>435.2</ele>
        <time>2020-10-04T07:58:51Z</time>
      </trkpt>
      <trkpt lat="40.0651980" lon="-4.7450710">
        <ele>435.2</ele>
        <time>2020-10-04T07:58:52Z</time>
      </trkpt>
      <trkpt lat="40.0652450" lon="-4.7450280">
        <ele>435.1</ele>
        <time>2020-10-04T07:58:54Z</time>
      </trkpt>
      <trkpt lat="40.0652910" lon="-4.7449910">
        <ele>435.0</ele>
        <time>2020-10-04T07:58:55Z</time>
      </trkpt>
      <trkpt lat="40.0653360" lon="-4.7449470">
        <ele>434.9</ele>
        <time>2020-10-04T07:58:56Z</time>
      </trkpt>
      <trkpt lat="40.0654010" lon="-4.7448760">
        <ele>434.7</ele>
        <time>2020-10-04T07:58:57Z</time>
      </trkpt>
      <trkpt lat="40.0654790" lon="-4.7447710">
        <ele>434.7</ele>
        <time>2020-10-04T07:58:59Z</time>
      </trkpt>
      <trkpt lat="40.0655460" lon="-4.7446740">
        <ele>434.8</ele>
        <time>2020-10-04T07:59:01Z</time>
      </trkpt>
      <trkpt lat="40.0655800" lon="-4.7446300">
        <ele>434.8</ele>
        <time>2020-10-04T07:59:02Z</time>
      </trkpt>
      <trkpt lat="40.0656410" lon="-4.7445380">
        <ele>434.9</ele>
        <time>2020-10-04T07:59:04Z</time>
      </trkpt>
      <trkpt lat="40.0656750" lon="-4.7444240">
        <ele>435.0</ele>
        <time>2020-10-04T07:59:06Z</time>
      </trkpt>
      <trkpt lat="40.0656970" lon="-4.7443020">
        <ele>435.1</ele>
        <time>2020-10-04T07:59:08Z</time>
      </trkpt>
      <trkpt lat="40.0657150" lon="-4.7441810">
        <ele>435.2</ele>
        <time>2020-10-04T07:59:10Z</time>
      </trkpt>
      <trkpt lat="40.0657240" lon="-4.7441210">
        <ele>435.3</ele>
        <time>2020-10-04T07:59:11Z</time>
      </trkpt>
      <trkpt lat="40.0657420" lon="-4.7440020">
        <ele>435.4</ele>
        <time>2020-10-04T07:59:13Z</time>
      </trkpt>
      <trkpt lat="40.0657600" lon="-4.7438820">
        <ele>435.6</ele>
        <time>2020-10-04T07:59:15Z</time>
      </trkpt>
      <trkpt lat="40.0657700" lon="-4.7438220">
        <ele>435.7</ele>
        <time>2020-10-04T07:59:16Z</time>
      </trkpt>
      <trkpt lat="40.0657970" lon="-4.7437060">
        <ele>435.9</ele>
        <time>2020-10-04T07:59:18Z</time>
      </trkpt>
      <trkpt lat="40.0658330" lon="-4.7435950">
        <ele>436.2</ele>
        <time>2020-10-04T07:59:20Z</time>
      </trkpt>
      <trkpt lat="40.0658550" lon="-4.7435410">
        <ele>436.3</ele>
        <time>2020-10-04T07:59:21Z</time>
      </trkpt>
      <trkpt lat="40.0658960" lon="-4.7434380">
        <ele>436.6</ele>
        <time>2020-10-04T07:59:23Z</time>
      </trkpt>
      <trkpt lat="40.0659160" lon="-4.7433840">
        <ele>436.8</ele>
        <time>2020-10-04T07:59:24Z</time>
      </trkpt>
      <trkpt lat="40.0659580" lon="-4.7432800">
        <ele>437.1</ele>
        <time>2020-10-04T07:59:26Z</time>
      </trkpt>
      <trkpt lat="40.0659780" lon="-4.7432280">
        <ele>437.3</ele>
        <time>2020-10-04T07:59:27Z</time>
      </trkpt>
      <trkpt lat="40.0659970" lon="-4.7431760">
        <ele>437.5</ele>
        <time>2020-10-04T07:59:28Z</time>
      </trkpt>
      <trkpt lat="40.0660340" lon="-4.7430760">
        <ele>437.8</ele>
        <time>2020-10-04T07:59:30Z</time>
      </trkpt>
      <trkpt lat="40.0660520" lon="-4.7430310">
        <ele>438.0</ele>
        <time>2020-10-04T07:59:31Z</time>
      </trkpt>
      <trkpt lat="40.0660690" lon="-4.7429850">
        <ele>438.1</ele>
        <time>2020-10-04T07:59:32Z</time>
      </trkpt>
      <trkpt lat="40.0661040" lon="-4.7428930">
        <ele>438.4</ele>
        <time>2020-10-04T07:59:34Z</time>
      </trkpt>
      <trkpt lat="40.0661450" lon="-4.7427910">
        <ele>438.8</ele>
        <time>2020-10-04T07:59:36Z</time>
      </trkpt>
      <trkpt lat="40.0661690" lon="-4.7427000">
        <ele>439.2</ele>
        <time>2020-10-04T07:59:37Z</time>
      </trkpt>
      <trkpt lat="40.0661480" lon="-4.7427050">
        <ele>439.3</ele>
        <time>2020-10-04T07:59:38Z</time>
      </trkpt>
      <trkpt lat="40.0661700" lon="-4.7426380">
        <ele>439.6</ele>
        <time>2020-10-04T07:59:40Z</time>
      </trkpt>
      <trkpt lat="40.0661960" lon="-4.7425890">
        <ele>439.8</ele>
        <time>2020-10-04T07:59:41Z</time>
      </trkpt>
      <trkpt lat="40.0662200" lon="-4.7425340">
        <ele>440.0</ele>
        <time>2020-10-04T07:59:42Z</time>
      </trkpt>
      <trkpt lat="40.0662400" lon="-4.7424830">
        <ele>440.2</ele>
        <time>2020-10-04T07:59:43Z</time>
      </trkpt>
      <trkpt lat="40.0662610" lon="-4.7424260">
        <ele>440.3</ele>
        <time>2020-10-04T07:59:44Z</time>
      </trkpt>
      <trkpt lat="40.0662840" lon="-4.7423750">
        <ele>440.5</ele>
        <time>2020-10-04T07:59:45Z</time>
      </trkpt>
      <trkpt lat="40.0663090" lon="-4.7423230">
        <ele>440.6</ele>
        <time>2020-10-04T07:59:47Z</time>
      </trkpt>
      <trkpt lat="40.0663440" lon="-4.7422660">
        <ele>440.6</ele>
        <time>2020-10-04T07:59:48Z</time>
      </trkpt>
      <trkpt lat="40.0663680" lon="-4.7422210">
        <ele>440.7</ele>
        <time>2020-10-04T07:59:49Z</time>
      </trkpt>
      <trkpt lat="40.0663970" lon="-4.7421700">
        <ele>440.8</ele>
        <time>2020-10-04T07:59:50Z</time>
      </trkpt>
      <trkpt lat="40.0664300" lon="-4.7421090">
        <ele>440.9</ele>
        <time>2020-10-04T07:59:51Z</time>
      </trkpt>
      <trkpt lat="40.0664550" lon="-4.7420640">
        <ele>441.0</ele>
        <time>2020-10-04T07:59:53Z</time>
      </trkpt>
      <trkpt lat="40.0664840" lon="-4.7420040">
        <ele>441.2</ele>
        <time>2020-10-04T07:59:54Z</time>
      </trkpt>
      <trkpt lat="40.0665140" lon="-4.7419460">
        <ele>441.3</ele>
        <time>2020-10-04T07:59:55Z</time>
      </trkpt>
      <trkpt lat="40.0665520" lon="-4.7418790">
        <ele>441.5</ele>
        <time>2020-10-04T07:59:57Z</time>
      </trkpt>
      <trkpt lat="40.0665930" lon="-4.7417990">
        <ele>441.8</ele>
        <time>2020-10-04T07:59:58Z</time>
      </trkpt>
      <trkpt lat="40.0666250" lon="-4.7417290">
        <ele>442.0</ele>
        <time>2020-10-04T08:00:00Z</time>
      </trkpt>
      <trkpt lat="40.0666460" lon="-4.7416850">
        <ele>442.1</ele>
        <time>2020-10-04T08:00:01Z</time>
      </trkpt>
      <trkpt lat="40.0666710" lon="-4.7416340">
        <ele>442.3</ele>
        <time>2020-10-04T08:00:02Z</time>
      </trkpt>
      <trkpt lat="40.0666960" lon="-4.7415810">
        <ele>442.5</ele>
        <time>2020-10-04T08:00:04Z</time>
      </trkpt>
      <trkpt lat="40.0667140" lon="-4.7415340">
        <ele>442.7</ele>
        <time>2020-10-04T08:00:05Z</time>
      </trkpt>
      <trkpt lat="40.0667400" lon="-4.7414770">
        <ele>442.9</ele>
        <time>2020-10-04T08:00:06Z</time>
      </trkpt>
      <trkpt lat="40.0667700" lon="-4.7414110">
        <ele>443.1</ele>
        <time>2020-10-04T08:00:08Z</time>
      </trkpt>
      <trkpt lat="40.0667960" lon="-4.7413520">
        <ele>443.3</ele>
        <time>2020-10-04T08:00:09Z</time>
      </trkpt>
      <trkpt lat="40.0668180" lon="-4.7413050">
        <ele>443.5</ele>
        <time>2020-10-04T08:00:10Z</time>
      </trkpt>
      <trkpt lat="40.0668420" lon="-4.7412600">
        <ele>443.7</ele>
        <time>2020-10-04T08:00:11Z</time>
      </trkpt>
      <trkpt lat="40.0668760" lon="-4.7411850">
        <ele>443.9</ele>
        <time>2020-10-04T08:00:13Z</time>
      </trkpt>
      <trkpt lat="40.0668840" lon="-4.7411270">
        <ele>444.0</ele>
        <time>2020-10-04T08:00:14Z</time>
      </trkpt>
      <trkpt lat="40.0669000" lon="-4.7410520">
        <ele>444.2</ele>
        <time>2020-10-04T08:00:16Z</time>
      </trkpt>
      <trkpt lat="40.0669190" lon="-4.7410010">
        <ele>444.3</ele>
        <time>2020-10-04T08:00:17Z</time>
      </trkpt>
      <trkpt lat="40.0669400" lon="-4.7409520">
        <ele>444.4</ele>
        <time>2020-10-04T08:00:18Z</time>
      </trkpt>
      <trkpt lat="40.0669610" lon="-4.7409000">
        <ele>444.5</ele>
        <time>2020-10-04T08:00:19Z</time>
      </trkpt>
      <trkpt lat="40.0669790" lon="-4.7408550">
        <ele>444.6</ele>
        <time>2020-10-04T08:00:20Z</time>
      </trkpt>
      <trkpt lat="40.0670040" lon="-4.7407940">
        <ele>444.7</ele>
        <time>2020-10-04T08:00:22Z</time>
      </trkpt>
      <trkpt lat="40.0670270" lon="-4.7407390">
        <ele>444.8</ele>
        <time>2020-10-04T08:00:23Z</time>
      </trkpt>
      <trkpt lat="40.0670480" lon="-4.7406800">
        <ele>445.0</ele>
        <time>2020-10-04T08:00:24Z</time>
      </trkpt>
      <trkpt lat="40.0670660" lon="-4.7406220">
        <ele>445.1</ele>
        <time>2020-10-04T08:00:25Z</time>
      </trkpt>
      <trkpt lat="40.0670810" lon="-4.7405670">
        <ele>445.2</ele>
        <time>2020-10-04T08:00:26Z</time>
      </trkpt>
      <trkpt lat="40.0671050" lon="-4.7404940">
        <ele>445.4</ele>
        <time>2020-10-04T08:00:28Z</time>
      </trkpt>
      <trkpt lat="40.0671230" lon="-4.7404310">
        <ele>445.5</ele>
        <time>2020-10-04T08:00:29Z</time>
      </trkpt>
      <trkpt lat="40.0671460" lon="-4.7403650">
        <ele>445.5</ele>
        <time>2020-10-04T08:00:30Z</time>
      </trkpt>
      <trkpt lat="40.0671660" lon="-4.7403180">
        <ele>445.5</ele>
        <time>2020-10-04T08:00:32Z</time>
      </trkpt>
      <trkpt lat="40.0671950" lon="-4.7402520">
        <ele>445.4</ele>
        <time>2020-10-04T08:00:33Z</time>
      </trkpt>
      <trkpt lat="40.0672300" lon="-4.7401680">
        <ele>445.1</ele>
        <time>2020-10-04T08:00:35Z</time>
      </trkpt>
      <trkpt lat="40.0672560" lon="-4.7400890">
        <ele>444.7</ele>
        <time>2020-10-04T08:00:36Z</time>
      </trkpt>
      <trkpt lat="40.0672760" lon="-4.7400200">
        <ele>444.3</ele>
        <time>2020-10-04T08:00:38Z</time>
      </trkpt>
      <trkpt lat="40.0672970" lon="-4.7399560">
        <ele>444.0</ele>
        <time>2020-10-04T08:00:39Z</time>
      </trkpt>
      <trkpt lat="40.0673230" lon="-4.7398750">
        <ele>443.5</ele>
        <time>2020-10-04T08:00:40Z</time>
      </trkpt>
      <trkpt lat="40.0673480" lon="-4.7398070">
        <ele>443.2</ele>
        <time>2020-10-04T08:00:41Z</time>
      </trkpt>
      <trkpt lat="40.0673850" lon="-4.7397180">
        <ele>442.7</ele>
        <time>2020-10-04T08:00:43Z</time>
      </trkpt>
      <trkpt lat="40.0674220" lon="-4.7396280">
        <ele>442.3</ele>
        <time>2020-10-04T08:00:44Z</time>
      </trkpt>
      <trkpt lat="40.0674620" lon="-4.7395370">
        <ele>441.9</ele>
        <time>2020-10-04T08:00:45Z</time>
      </trkpt>
      <trkpt lat="40.0674950" lon="-4.7394650">
        <ele>441.6</ele>
        <time>2020-10-04T08:00:46Z</time>
      </trkpt>
      <trkpt lat="40.0675500" lon="-4.7393500">
        <ele>441.1</ele>
        <time>2020-10-04T08:00:48Z</time>
      </trkpt>
      <trkpt lat="40.0675750" lon="-4.7393010">
        <ele>440.9</ele>
        <time>2020-10-04T08:00:49Z</time>
      </trkpt>
      <trkpt lat="40.0675840" lon="-4.7392520">
        <ele>440.8</ele>
        <time>2020-10-04T08:00:51Z</time>
      </trkpt>
      <trkpt lat="40.0676150" lon="-4.7391980">
        <ele>440.7</ele>
        <time>2020-10-04T08:00:52Z</time>
      </trkpt>
      <trkpt lat="40.0676550" lon="-4.7391260">
        <ele>440.5</ele>
        <time>2020-10-04T08:00:54Z</time>
      </trkpt>
      <trkpt lat="40.0676800" lon="-4.7390820">
        <ele>440.4</ele>
        <time>2020-10-04T08:00:55Z</time>
      </trkpt>
      <trkpt lat="40.0676880" lon="-4.7390650">
        <ele>440.3</ele>
        <time>2020-10-04T08:00:56Z</time>
      </trkpt>
      <trkpt lat="40.0677160" lon="-4.7390090">
        <ele>440.2</ele>
        <time>2020-10-04T08:00:58Z</time>
      </trkpt>
      <trkpt lat="40.0677530" lon="-4.7389630">
        <ele>440.1</ele>
        <time>2020-10-04T08:00:59Z</time>
      </trkpt>
      <trkpt lat="40.0677780" lon="-4.7389170">
        <ele>440.1</ele>
        <time>2020-10-04T08:01:00Z</time>
      </trkpt>
      <trkpt lat="40.0678010" lon="-4.7388670">
        <ele>440.0</ele>
        <time>2020-10-04T08:01:01Z</time>
      </trkpt>
      <trkpt lat="40.0678230" lon="-4.7388160">
        <ele>440.0</ele>
        <time>2020-10-04T08:01:02Z</time>
      </trkpt>
      <trkpt lat="40.0678500" lon="-4.7387390">
        <ele>440.1</ele>
        <time>2020-10-04T08:01:04Z</time>
      </trkpt>
      <trkpt lat="40.0678850" lon="-4.7386400">
        <ele>440.2</ele>
        <time>2020-10-04T08:01:05Z</time>
      </trkpt>
      <trkpt lat="40.0679070" lon="-4.7385750">
        <ele>440.3</ele>
        <time>2020-10-04T08:01:06Z</time>
      </trkpt>
      <trkpt lat="40.0679320" lon="-4.7384710">
        <ele>440.5</ele>
        <time>2020-10-04T08:01:08Z</time>
      </trkpt>
      <trkpt lat="40.0679590" lon="-4.7383600">
        <ele>440.7</ele>
        <time>2020-10-04T08:01:10Z</time>
      </trkpt>
      <trkpt lat="40.0679870" lon="-4.7382620">
        <ele>440.9</ele>
        <time>2020-10-04T08:01:12Z</time>
      </trkpt>
      <trkpt lat="40.0680030" lon="-4.7382100">
        <ele>441.0</ele>
        <time>2020-10-04T08:01:13Z</time>
      </trkpt>
      <trkpt lat="40.0680210" lon="-4.7381520">
        <ele>441.1</ele>
        <time>2020-10-04T08:01:14Z</time>
      </trkpt>
      <trkpt lat="40.0680400" lon="-4.7380900">
        <ele>441.2</ele>
        <time>2020-10-04T08:01:15Z</time>
      </trkpt>
      <trkpt lat="40.0680560" lon="-4.7380370">
        <ele>441.3</ele>
        <time>2020-10-04T08:01:16Z</time>
      </trkpt>
      <trkpt lat="40.0680700" lon="-4.7379840">
        <ele>441.4</ele>
        <time>2020-10-04T08:01:17Z</time>
      </trkpt>
      <trkpt lat="40.0680870" lon="-4.7379290">
        <ele>441.5</ele>
        <time>2020-10-04T08:01:18Z</time>
      </trkpt>
      <trkpt lat="40.0681110" lon="-4.7378560">
        <ele>441.6</ele>
        <time>2020-10-04T08:01:20Z</time>
      </trkpt>
      <trkpt lat="40.0681320" lon="-4.7377830">
        <ele>441.7</ele>
        <time>2020-10-04T08:01:21Z</time>
      </trkpt>
      <trkpt lat="40.0681470" lon="-4.7377290">
        <ele>441.7</ele>
        <time>2020-10-04T08:01:22Z</time>
      </trkpt>
      <trkpt lat="40.0681660" lon="-4.7376650">
        <ele>441.8</ele>
        <time>2020-10-04T08:01:23Z</time>
      </trkpt>
      <trkpt lat="40.0681810" lon="-4.7376150">
        <ele>441.7</ele>
        <time>2020-10-04T08:01:24Z</time>
      </trkpt>
      <trkpt lat="40.0681980" lon="-4.7375450">
        <ele>441.7</ele>
        <time>2020-10-04T08:01:26Z</time>
      </trkpt>
      <trkpt lat="40.0682150" lon="-4.7374770">
        <ele>441.7</ele>
        <time>2020-10-04T08:01:27Z</time>
      </trkpt>
      <trkpt lat="40.0682410" lon="-4.7373910">
        <ele>441.6</ele>
        <time>2020-10-04T08:01:29Z</time>
      </trkpt>
      <trkpt lat="40.0682570" lon="-4.7373310">
        <ele>441.6</ele>
        <time>2020-10-04T08:01:30Z</time>
      </trkpt>
      <trkpt lat="40.0682760" lon="-4.7372580">
        <ele>441.5</ele>
        <time>2020-10-04T08:01:31Z</time>
      </trkpt>
      <trkpt lat="40.0682910" lon="-4.7372000">
        <ele>441.5</ele>
        <time>2020-10-04T08:01:32Z</time>
      </trkpt>
      <trkpt lat="40.0683080" lon="-4.7371150">
        <ele>441.4</ele>
        <time>2020-10-04T08:01:34Z</time>
      </trkpt>
      <trkpt lat="40.0683240" lon="-4.7370550">
        <ele>441.4</ele>
        <time>2020-10-04T08:01:35Z</time>
      </trkpt>
      <trkpt lat="40.0683480" lon="-4.7369720">
        <ele>441.4</ele>
        <time>2020-10-04T08:01:36Z</time>
      </trkpt>
      <trkpt lat="40.0683660" lon="-4.7368890">
        <ele>441.3</ele>
        <time>2020-10-04T08:01:37Z</time>
      </trkpt>
      <trkpt lat="40.0683790" lon="-4.7367840">
        <ele>441.2</ele>
        <time>2020-10-04T08:01:39Z</time>
      </trkpt>
      <trkpt lat="40.0683820" lon="-4.7367040">
        <ele>441.2</ele>
        <time>2020-10-04T08:01:40Z</time>
      </trkpt>
      <trkpt lat="40.0683760" lon="-4.7365600">
        <ele>441.2</ele>
        <time>2020-10-04T08:01:42Z</time>
      </trkpt>
      <trkpt lat="40.0683730" lon="-4.7364960">
        <ele>441.1</ele>
        <time>2020-10-04T08:01:43Z</time>
      </trkpt>
      <trkpt lat="40.0683760" lon="-4.7364250">
        <ele>441.3</ele>
        <time>2020-10-04T08:01:45Z</time>
      </trkpt>
      <trkpt lat="40.0683910" lon="-4.7363630">
        <ele>441.3</ele>
        <time>2020-10-04T08:01:46Z</time>
      </trkpt>
      <trkpt lat="40.0684150" lon="-4.7363160">
        <ele>441.4</ele>
        <time>2020-10-04T08:01:47Z</time>
      </trkpt>
      <trkpt lat="40.0684660" lon="-4.7362400">
        <ele>441.5</ele>
        <time>2020-10-04T08:01:49Z</time>
      </trkpt>
      <trkpt lat="40.0685000" lon="-4.7361950">
        <ele>441.6</ele>
        <time>2020-10-04T08:01:51Z</time>
      </trkpt>
      <trkpt lat="40.0685250" lon="-4.7361530">
        <ele>441.7</ele>
        <time>2020-10-04T08:01:52Z</time>
      </trkpt>
      <trkpt lat="40.0685510" lon="-4.7361110">
        <ele>441.8</ele>
        <time>2020-10-04T08:01:53Z</time>
      </trkpt>
      <trkpt lat="40.0685790" lon="-4.7360610">
        <ele>441.9</ele>
        <time>2020-10-04T08:01:54Z</time>
      </trkpt>
      <trkpt lat="40.0686040" lon="-4.7360220">
        <ele>442.0</ele>
        <time>2020-10-04T08:01:55Z</time>
      </trkpt>
      <trkpt lat="40.0686480" lon="-4.7359500">
        <ele>442.2</ele>
        <time>2020-10-04T08:01:57Z</time>
      </trkpt>
      <trkpt lat="40.0686890" lon="-4.7358830">
        <ele>442.5</ele>
        <time>2020-10-04T08:01:59Z</time>
      </trkpt>
      <trkpt lat="40.0687150" lon="-4.7358440">
        <ele>442.6</ele>
        <time>2020-10-04T08:02:00Z</time>
      </trkpt>
      <trkpt lat="40.0687640" lon="-4.7357780">
        <ele>442.9</ele>
        <time>2020-10-04T08:02:02Z</time>
      </trkpt>
      <trkpt lat="40.0687890" lon="-4.7357360">
        <ele>443.1</ele>
        <time>2020-10-04T08:02:03Z</time>
      </trkpt>
      <trkpt lat="40.0688120" lon="-4.7356980">
        <ele>443.2</ele>
        <time>2020-10-04T08:02:04Z</time>
      </trkpt>
      <trkpt lat="40.0688400" lon="-4.7356500">
        <ele>443.4</ele>
        <time>2020-10-04T08:02:05Z</time>
      </trkpt>
      <trkpt lat="40.0688750" lon="-4.7355980">
        <ele>443.7</ele>
        <time>2020-10-04T08:02:06Z</time>
      </trkpt>
      <trkpt lat="40.0689210" lon="-4.7355220">
        <ele>444.1</ele>
        <time>2020-10-04T08:02:08Z</time>
      </trkpt>
      <trkpt lat="40.0689480" lon="-4.7354780">
        <ele>444.4</ele>
        <time>2020-10-04T08:02:09Z</time>
      </trkpt>
      <trkpt lat="40.0689830" lon="-4.7354290">
        <ele>444.7</ele>
        <time>2020-10-04T08:02:11Z</time>
      </trkpt>
      <trkpt lat="40.0690080" lon="-4.7353770">
        <ele>445.0</ele>
        <time>2020-10-04T08:02:12Z</time>
      </trkpt>
      <trkpt lat="40.0690160" lon="-4.7353350">
        <ele>445.3</ele>
        <time>2020-10-04T08:02:13Z</time>
      </trkpt>
      <trkpt lat="40.0690240" lon="-4.7352790">
        <ele>445.6</ele>
        <time>2020-10-04T08:02:15Z</time>
      </trkpt>
      <trkpt lat="40.0690320" lon="-4.7352320">
        <ele>445.9</ele>
        <time>2020-10-04T08:02:16Z</time>
      </trkpt>
      <trkpt lat="40.0690390" lon="-4.7351710">
        <ele>446.2</ele>
        <time>2020-10-04T08:02:17Z</time>
      </trkpt>
      <trkpt lat="40.0690410" lon="-4.7351060">
        <ele>446.6</ele>
        <time>2020-10-04T08:02:19Z</time>
      </trkpt>
      <trkpt lat="40.0690450" lon="-4.7350500">
        <ele>446.9</ele>
        <time>2020-10-04T08:02:20Z</time>
      </trkpt>
      <trkpt lat="40.0690520" lon="-4.7350070">
        <ele>447.1</ele>
        <time>2020-10-04T08:02:21Z</time>
      </trkpt>
      <trkpt lat="40.0690700" lon="-4.7349380">
        <ele>447.5</ele>
        <time>2020-10-04T08:02:23Z</time>
      </trkpt>
      <trkpt lat="40.0691180" lon="-4.7348780">
        <ele>447.5</ele>
        <time>2020-10-04T08:02:25Z</time>
      </trkpt>
      <trkpt lat="40.0691780" lon="-4.7348190">
        <ele>447.6</ele>
        <time>2020-10-04T08:02:27Z</time>
      </trkpt>
      <trkpt lat="40.0692090" lon="-4.7347900">
        <ele>447.7</ele>
        <time>2020-10-04T08:02:28Z</time>
      </trkpt>
      <trkpt lat="40.0692600" lon="-4.7347430">
        <ele>447.8</ele>
        <time>2020-10-04T08:02:30Z</time>
      </trkpt>
      <trkpt lat="40.0693190" lon="-4.7346930">
        <ele>448.0</ele>
        <time>2020-10-04T08:02:32Z</time>
      </trkpt>
      <trkpt lat="40.0693540" lon="-4.7346600">
        <ele>448.1</ele>
        <time>2020-10-04T08:02:33Z</time>
      </trkpt>
      <trkpt lat="40.0693990" lon="-4.7346160">
        <ele>448.3</ele>
        <time>2020-10-04T08:02:35Z</time>
      </trkpt>
      <trkpt lat="40.0694420" lon="-4.7345760">
        <ele>448.4</ele>
        <time>2020-10-04T08:02:36Z</time>
      </trkpt>
      <trkpt lat="40.0694800" lon="-4.7345350">
        <ele>448.5</ele>
        <time>2020-10-04T08:02:38Z</time>
      </trkpt>
      <trkpt lat="40.0695160" lon="-4.7345050">
        <ele>448.6</ele>
        <time>2020-10-04T08:02:39Z</time>
      </trkpt>
      <trkpt lat="40.0695660" lon="-4.7344580">
        <ele>448.8</ele>
        <time>2020-10-04T08:02:40Z</time>
      </trkpt>
      <trkpt lat="40.0695930" lon="-4.7344340">
        <ele>448.9</ele>
        <time>2020-10-04T08:02:41Z</time>
      </trkpt>
      <trkpt lat="40.0696530" lon="-4.7343800">
        <ele>449.0</ele>
        <time>2020-10-04T08:02:43Z</time>
      </trkpt>
      <trkpt lat="40.0697100" lon="-4.7343220">
        <ele>449.2</ele>
        <time>2020-10-04T08:02:45Z</time>
      </trkpt>
      <trkpt lat="40.0697560" lon="-4.7342780">
        <ele>449.3</ele>
        <time>2020-10-04T08:02:46Z</time>
      </trkpt>
      <trkpt lat="40.0698110" lon="-4.7342230">
        <ele>449.4</ele>
        <time>2020-10-04T08:02:48Z</time>
      </trkpt>
      <trkpt lat="40.0698610" lon="-4.7341750">
        <ele>449.5</ele>
        <time>2020-10-04T08:02:50Z</time>
      </trkpt>
      <trkpt lat="40.0698960" lon="-4.7341370">
        <ele>449.6</ele>
        <time>2020-10-04T08:02:51Z</time>
      </trkpt>
      <trkpt lat="40.0699470" lon="-4.7340810">
        <ele>449.7</ele>
        <time>2020-10-04T08:02:53Z</time>
      </trkpt>
      <trkpt lat="40.0699900" lon="-4.7340390">
        <ele>449.8</ele>
        <time>2020-10-04T08:02:54Z</time>
      </trkpt>
      <trkpt lat="40.0700470" lon="-4.7339780">
        <ele>450.0</ele>
        <time>2020-10-04T08:02:56Z</time>
      </trkpt>
      <trkpt lat="40.0701080" lon="-4.7339130">
        <ele>450.2</ele>
        <time>2020-10-04T08:02:58Z</time>
      </trkpt>
      <trkpt lat="40.0701790" lon="-4.7338500">
        <ele>450.5</ele>
        <time>2020-10-04T08:03:00Z</time>
      </trkpt>
      <trkpt lat="40.0702370" lon="-4.7338000">
        <ele>450.7</ele>
        <time>2020-10-04T08:03:02Z</time>
      </trkpt>
      <trkpt lat="40.0702910" lon="-4.7337460">
        <ele>451.0</ele>
        <time>2020-10-04T08:03:03Z</time>
      </trkpt>
      <trkpt lat="40.0703430" lon="-4.7336950">
        <ele>451.2</ele>
        <time>2020-10-04T08:03:05Z</time>
      </trkpt>
      <trkpt lat="40.0703830" lon="-4.7336600">
        <ele>451.4</ele>
        <time>2020-10-04T08:03:06Z</time>
      </trkpt>
      <trkpt lat="40.0704330" lon="-4.7336170">
        <ele>451.7</ele>
        <time>2020-10-04T08:03:08Z</time>
      </trkpt>
      <trkpt lat="40.0704810" lon="-4.7335670">
        <ele>452.0</ele>
        <time>2020-10-04T08:03:09Z</time>
      </trkpt>
      <trkpt lat="40.0705180" lon="-4.7335310">
        <ele>452.2</ele>
        <time>2020-10-04T08:03:10Z</time>
      </trkpt>
      <trkpt lat="40.0705610" lon="-4.7334950">
        <ele>452.4</ele>
        <time>2020-10-04T08:03:12Z</time>
      </trkpt>
      <trkpt lat="40.0705990" lon="-4.7334590">
        <ele>452.7</ele>
        <time>2020-10-04T08:03:13Z</time>
      </trkpt>
      <trkpt lat="40.0706360" lon="-4.7334230">
        <ele>452.9</ele>
        <time>2020-10-04T08:03:14Z</time>
      </trkpt>
      <trkpt lat="40.0706660" lon="-4.7333950">
        <ele>453.1</ele>
        <time>2020-10-04T08:03:15Z</time>
      </trkpt>
      <trkpt lat="40.0707330" lon="-4.7333350">
        <ele>453.5</ele>
        <time>2020-10-04T08:03:17Z</time>
      </trkpt>
      <trkpt lat="40.0707620" lon="-4.7333070">
        <ele>453.7</ele>
        <time>2020-10-04T08:03:18Z</time>
      </trkpt>
      <trkpt lat="40.0708240" lon="-4.7332510">
        <ele>454.1</ele>
        <time>2020-10-04T08:03:20Z</time>
      </trkpt>
      <trkpt lat="40.0708520" lon="-4.7332250">
        <ele>454.3</ele>
        <time>2020-10-04T08:03:21Z</time>
      </trkpt>
      <trkpt lat="40.0708810" lon="-4.7331970">
        <ele>454.5</ele>
        <time>2020-10-04T08:03:22Z</time>
      </trkpt>
      <trkpt lat="40.0709380" lon="-4.7331390">
        <ele>454.9</ele>
        <time>2020-10-04T08:03:24Z</time>
      </trkpt>
      <trkpt lat="40.0709720" lon="-4.7331030">
        <ele>455.2</ele>
        <time>2020-10-04T08:03:25Z</time>
      </trkpt>
      <trkpt lat="40.0710080" lon="-4.7330710">
        <ele>455.4</ele>
        <time>2020-10-04T08:03:26Z</time>
      </trkpt>
      <trkpt lat="40.0710700" lon="-4.7330120">
        <ele>455.9</ele>
        <time>2020-10-04T08:03:28Z</time>
      </trkpt>
      <trkpt lat="40.0711010" lon="-4.7329860">
        <ele>456.1</ele>
        <time>2020-10-04T08:03:29Z</time>
      </trkpt>
      <trkpt lat="40.0711340" lon="-4.7329510">
        <ele>456.3</ele>
        <time>2020-10-04T08:03:30Z</time>
      </trkpt>
      <trkpt lat="40.0711910" lon="-4.7329040">
        <ele>456.7</ele>
        <time>2020-10-04T08:03:32Z</time>
      </trkpt>
      <trkpt lat="40.0712600" lon="-4.7328370">
        <ele>457.2</ele>
        <time>2020-10-04T08:03:34Z</time>
      </trkpt>
      <trkpt lat="40.0713160" lon="-4.7327910">
        <ele>457.6</ele>
        <time>2020-10-04T08:03:36Z</time>
      </trkpt>
      <trkpt lat="40.0713630" lon="-4.7327430">
        <ele>457.9</ele>
        <time>2020-10-04T08:03:38Z</time>
      </trkpt>
      <trkpt lat="40.0713990" lon="-4.7327070">
        <ele>458.2</ele>
        <time>2020-10-04T08:03:39Z</time>
      </trkpt>
      <trkpt lat="40.0714420" lon="-4.7326670">
        <ele>458.5</ele>
        <time>2020-10-04T08:03:40Z</time>
      </trkpt>
      <trkpt lat="40.0714700" lon="-4.7326420">
        <ele>458.6</ele>
        <time>2020-10-04T08:03:41Z</time>
      </trkpt>
      <trkpt lat="40.0715230" lon="-4.7325920">
        <ele>458.9</ele>
        <time>2020-10-04T08:03:43Z</time>
      </trkpt>
      <trkpt lat="40.0715630" lon="-4.7325570">
        <ele>459.1</ele>
        <time>2020-10-04T08:03:44Z</time>
      </trkpt>
      <trkpt lat="40.0716190" lon="-4.7325040">
        <ele>459.4</ele>
        <time>2020-10-04T08:03:46Z</time>
      </trkpt>
      <trkpt lat="40.0716610" lon="-4.7324650">
        <ele>459.6</ele>
        <time>2020-10-04T08:03:48Z</time>
      </trkpt>
      <trkpt lat="40.0717050" lon="-4.7324200">
        <ele>459.8</ele>
        <time>2020-10-04T08:03:49Z</time>
      </trkpt>
      <trkpt lat="40.0717440" lon="-4.7323780">
        <ele>459.9</ele>
        <time>2020-10-04T08:03:51Z</time>
      </trkpt>
      <trkpt lat="40.0717680" lon="-4.7323220">
        <ele>460.1</ele>
        <time>2020-10-04T08:03:52Z</time>
      </trkpt>
      <trkpt lat="40.0717690" lon="-4.7322290">
        <ele>460.1</ele>
        <time>2020-10-04T08:03:54Z</time>
      </trkpt>
      <trkpt lat="40.0717610" lon="-4.7321680">
        <ele>460.0</ele>
        <time>2020-10-04T08:03:56Z</time>
      </trkpt>
      <trkpt lat="40.0717420" lon="-4.7321080">
        <ele>459.9</ele>
        <time>2020-10-04T08:03:57Z</time>
      </trkpt>
      <trkpt lat="40.0717260" lon="-4.7320620">
        <ele>459.8</ele>
        <time>2020-10-04T08:03:58Z</time>
      </trkpt>
      <trkpt lat="40.0716980" lon="-4.7319950">
        <ele>459.5</ele>
        <time>2020-10-04T08:03:59Z</time>
      </trkpt>
      <trkpt lat="40.0716750" lon="-4.7319470">
        <ele>459.3</ele>
        <time>2020-10-04T08:04:00Z</time>
      </trkpt>
      <trkpt lat="40.0715810" lon="-4.7317650">
        <ele>458.3</ele>
        <time>2020-10-04T08:04:02Z</time>
      </trkpt>
      <trkpt lat="40.0715330" lon="-4.7316740">
        <ele>457.8</ele>
        <time>2020-10-04T08:04:03Z</time>
      </trkpt>
      <trkpt lat="40.0714870" lon="-4.7315810">
        <ele>457.2</ele>
        <time>2020-10-04T08:04:04Z</time>
      </trkpt>
      <trkpt lat="40.0714390" lon="-4.7314890">
        <ele>456.7</ele>
        <time>2020-10-04T08:04:05Z</time>
      </trkpt>
      <trkpt lat="40.0713920" lon="-4.7314000">
        <ele>456.2</ele>
        <time>2020-10-04T08:04:06Z</time>
      </trkpt>
      <trkpt lat="40.0712970" lon="-4.7312250">
        <ele>455.1</ele>
        <time>2020-10-04T08:04:08Z</time>
      </trkpt>
      <trkpt lat="40.0712500" lon="-4.7311330">
        <ele>454.6</ele>
        <time>2020-10-04T08:04:09Z</time>
      </trkpt>
      <trkpt lat="40.0712030" lon="-4.7310390">
        <ele>454.1</ele>
        <time>2020-10-04T08:04:10Z</time>
      </trkpt>
      <trkpt lat="40.0711080" lon="-4.7308490">
        <ele>453.0</ele>
        <time>2020-10-04T08:04:12Z</time>
      </trkpt>
      <trkpt lat="40.0710080" lon="-4.7306590">
        <ele>452.2</ele>
        <time>2020-10-04T08:04:14Z</time>
      </trkpt>
      <trkpt lat="40.0709110" lon="-4.7304760">
        <ele>451.5</ele>
        <time>2020-10-04T08:04:16Z</time>
      </trkpt>
      <trkpt lat="40.0708660" lon="-4.7303870">
        <ele>451.3</ele>
        <time>2020-10-04T08:04:17Z</time>
      </trkpt>
      <trkpt lat="40.0707830" lon="-4.7302110">
        <ele>450.9</ele>
        <time>2020-10-04T08:04:19Z</time>
      </trkpt>
      <trkpt lat="40.0707450" lon="-4.7301240">
        <ele>450.7</ele>
        <time>2020-10-04T08:04:20Z</time>
      </trkpt>
      <trkpt lat="40.0707000" lon="-4.7299390">
        <ele>450.6</ele>
        <time>2020-10-04T08:04:22Z</time>
      </trkpt>
      <trkpt lat="40.0707010" lon="-4.7297430">
        <ele>450.5</ele>
        <time>2020-10-04T08:04:24Z</time>
      </trkpt>
      <trkpt lat="40.0707170" lon="-4.7296500">
        <ele>450.4</ele>
        <time>2020-10-04T08:04:25Z</time>
      </trkpt>
      <trkpt lat="40.0707450" lon="-4.7295630">
        <ele>450.3</ele>
        <time>2020-10-04T08:04:26Z</time>
      </trkpt>
      <trkpt lat="40.0708280" lon="-4.7294150">
        <ele>450.3</ele>
        <time>2020-10-04T08:04:28Z</time>
      </trkpt>
      <trkpt lat="40.0708730" lon="-4.7293440">
        <ele>450.3</ele>
        <time>2020-10-04T08:04:29Z</time>
      </trkpt>
      <trkpt lat="40.0709580" lon="-4.7292070">
        <ele>450.3</ele>
        <time>2020-10-04T08:04:31Z</time>
      </trkpt>
      <trkpt lat="40.0709990" lon="-4.7291410">
        <ele>450.3</ele>
        <time>2020-10-04T08:04:32Z</time>
      </trkpt>
      <trkpt lat="40.0710410" lon="-4.7290760">
        <ele>450.3</ele>
        <time>2020-10-04T08:04:33Z</time>
      </trkpt>
      <trkpt lat="40.0711230" lon="-4.7289450">
        <ele>450.3</ele>
        <time>2020-10-04T08:04:35Z</time>
      </trkpt>
      <trkpt lat="40.0711670" lon="-4.7288790">
        <ele>450.3</ele>
        <time>2020-10-04T08:04:36Z</time>
      </trkpt>
      <trkpt lat="40.0712480" lon="-4.7287460">
        <ele>450.4</ele>
        <time>2020-10-04T08:04:38Z</time>
      </trkpt>
      <trkpt lat="40.0712910" lon="-4.7286820">
        <ele>450.4</ele>
        <time>2020-10-04T08:04:39Z</time>
      </trkpt>
      <trkpt lat="40.0713380" lon="-4.7286200">
        <ele>450.5</ele>
        <time>2020-10-04T08:04:40Z</time>
      </trkpt>
      <trkpt lat="40.0714240" lon="-4.7285010">
        <ele>450.6</ele>
        <time>2020-10-04T08:04:42Z</time>
      </trkpt>
      <trkpt lat="40.0714660" lon="-4.7284410">
        <ele>450.7</ele>
        <time>2020-10-04T08:04:43Z</time>
      </trkpt>
      <trkpt lat="40.0715480" lon="-4.7283230">
        <ele>450.9</ele>
        <time>2020-10-04T08:04:45Z</time>
      </trkpt>
      <trkpt lat="40.0715870" lon="-4.7282660">
        <ele>451.0</ele>
        <time>2020-10-04T08:04:46Z</time>
      </trkpt>
      <trkpt lat="40.0716610" lon="-4.7281460">
        <ele>451.3</ele>
        <time>2020-10-04T08:04:48Z</time>
      </trkpt>
      <trkpt lat="40.0716940" lon="-4.7280830">
        <ele>451.4</ele>
        <time>2020-10-04T08:04:49Z</time>
      </trkpt>
      <trkpt lat="40.0717240" lon="-4.7280230">
        <ele>451.6</ele>
        <time>2020-10-04T08:04:50Z</time>
      </trkpt>
      <trkpt lat="40.0717520" lon="-4.7279650">
        <ele>451.7</ele>
        <time>2020-10-04T08:04:51Z</time>
      </trkpt>
      <trkpt lat="40.0717790" lon="-4.7279060">
        <ele>451.8</ele>
        <time>2020-10-04T08:04:52Z</time>
      </trkpt>
      <trkpt lat="40.0718320" lon="-4.7277780">
        <ele>452.2</ele>
        <time>2020-10-04T08:04:54Z</time>
      </trkpt>
      <trkpt lat="40.0718830" lon="-4.7276510">
        <ele>452.7</ele>
        <time>2020-10-04T08:04:56Z</time>
      </trkpt>
      <trkpt lat="40.0719070" lon="-4.7275900">
        <ele>452.9</ele>
        <time>2020-10-04T08:04:57Z</time>
      </trkpt>
      <trkpt lat="40.0719510" lon="-4.7274750">
        <ele>453.5</ele>
        <time>2020-10-04T08:04:59Z</time>
      </trkpt>
      <trkpt lat="40.0719880" lon="-4.7273680">
        <ele>454.0</ele>
        <time>2020-10-04T08:05:01Z</time>
      </trkpt>
      <trkpt lat="40.0720060" lon="-4.7273150">
        <ele>454.2</ele>
        <time>2020-10-04T08:05:02Z</time>
      </trkpt>
      <trkpt lat="40.0720470" lon="-4.7272140">
        <ele>454.6</ele>
        <time>2020-10-04T08:05:04Z</time>
      </trkpt>
      <trkpt lat="40.0720670" lon="-4.7271640">
        <ele>454.8</ele>
        <time>2020-10-04T08:05:05Z</time>
      </trkpt>
      <trkpt lat="40.0720960" lon="-4.7270890">
        <ele>455.2</ele>
        <time>2020-10-04T08:05:07Z</time>
      </trkpt>
      <trkpt lat="40.0721390" lon="-4.7269910">
        <ele>455.7</ele>
        <time>2020-10-04T08:05:09Z</time>
      </trkpt>
      <trkpt lat="40.0721610" lon="-4.7269470">
        <ele>455.9</ele>
        <time>2020-10-04T08:05:10Z</time>
      </trkpt>
      <trkpt lat="40.0721890" lon="-4.7268620">
        <ele>456.3</ele>
        <time>2020-10-04T08:05:12Z</time>
      </trkpt>
      <trkpt lat="40.0721860" lon="-4.7268070">
        <ele>456.6</ele>
        <time>2020-10-04T08:05:14Z</time>
      </trkpt>
      <trkpt lat="40.0722090" lon="-4.7267760">
        <ele>456.8</ele>
        <time>2020-10-04T08:05:15Z</time>
      </trkpt>
      <trkpt lat="40.0722900" lon="-4.7266940">
        <ele>457.4</ele>
        <time>2020-10-04T08:05:17Z</time>
      </trkpt>
      <trkpt lat="40.0723290" lon="-4.7266560">
        <ele>457.8</ele>
        <time>2020-10-04T08:05:18Z</time>
      </trkpt>
      <trkpt lat="40.0723920" lon="-4.7265920">
        <ele>458.3</ele>
        <time>2020-10-04T08:05:20Z</time>
      </trkpt>
      <trkpt lat="40.0724320" lon="-4.7265400">
        <ele>458.7</ele>
        <time>2020-10-04T08:05:21Z</time>
      </trkpt>
      <trkpt lat="40.0724890" lon="-4.7264610">
        <ele>459.4</ele>
        <time>2020-10-04T08:05:23Z</time>
      </trkpt>
      <trkpt lat="40.0725140" lon="-4.7264210">
        <ele>459.6</ele>
        <time>2020-10-04T08:05:24Z</time>
      </trkpt>
      <trkpt lat="40.0725400" lon="-4.7263800">
        <ele>459.9</ele>
        <time>2020-10-04T08:05:25Z</time>
      </trkpt>
      <trkpt lat="40.0725870" lon="-4.7263040">
        <ele>460.5</ele>
        <time>2020-10-04T08:05:27Z</time>
      </trkpt>
      <trkpt lat="40.0726310" lon="-4.7262270">
        <ele>461.0</ele>
        <time>2020-10-04T08:05:29Z</time>
      </trkpt>
      <trkpt lat="40.0726550" lon="-4.7261880">
        <ele>461.3</ele>
        <time>2020-10-04T08:05:30Z</time>
      </trkpt>
      <trkpt lat="40.0726820" lon="-4.7261410">
        <ele>461.6</ele>
        <time>2020-10-04T08:05:31Z</time>
      </trkpt>
      <trkpt lat="40.0727130" lon="-4.7260460">
        <ele>462.2</ele>
        <time>2020-10-04T08:05:33Z</time>
      </trkpt>
      <trkpt lat="40.0727290" lon="-4.7259910">
        <ele>462.5</ele>
        <time>2020-10-04T08:05:34Z</time>
      </trkpt>
      <trkpt lat="40.0727470" lon="-4.7259060">
        <ele>463.0</ele>
        <time>2020-10-04T08:05:36Z</time>
      </trkpt>
      <trkpt lat="40.0727550" lon="-4.7258550">
        <ele>463.3</ele>
        <time>2020-10-04T08:05:37Z</time>
      </trkpt>
      <trkpt lat="40.0727660" lon="-4.7257660">
        <ele>463.7</ele>
        <time>2020-10-04T08:05:39Z</time>
      </trkpt>
      <trkpt lat="40.0727740" lon="-4.7257070">
        <ele>464.0</ele>
        <time>2020-10-04T08:05:40Z</time>
      </trkpt>
      <trkpt lat="40.0727800" lon="-4.7256370">
        <ele>464.3</ele>
        <time>2020-10-04T08:05:42Z</time>
      </trkpt>
      <trkpt lat="40.0727810" lon="-4.7255890">
        <ele>464.5</ele>
        <time>2020-10-04T08:05:43Z</time>
      </trkpt>
      <trkpt lat="40.0727840" lon="-4.7255230">
        <ele>464.8</ele>
        <time>2020-10-04T08:05:44Z</time>
      </trkpt>
      <trkpt lat="40.0727880" lon="-4.7254580">
        <ele>465.1</ele>
        <time>2020-10-04T08:05:45Z</time>
      </trkpt>
      <trkpt lat="40.0727940" lon="-4.7253930">
        <ele>465.4</ele>
        <time>2020-10-04T08:05:47Z</time>
      </trkpt>
      <trkpt lat="40.0727960" lon="-4.7253340">
        <ele>465.6</ele>
        <time>2020-10-04T08:05:48Z</time>
      </trkpt>
      <trkpt lat="40.0727960" lon="-4.7252400">
        <ele>466.0</ele>
        <time>2020-10-04T08:05:50Z</time>
      </trkpt>
      <trkpt lat="40.0727990" lon="-4.7251920">
        <ele>466.2</ele>
        <time>2020-10-04T08:05:51Z</time>
      </trkpt>
      <trkpt lat="40.0728020" lon="-4.7251110">
        <ele>466.5</ele>
        <time>2020-10-04T08:05:53Z</time>
      </trkpt>
      <trkpt lat="40.0728110" lon="-4.7250190">
        <ele>466.9</ele>
        <time>2020-10-04T08:05:54Z</time>
      </trkpt>
      <trkpt lat="40.0728150" lon="-4.7249740">
        <ele>467.1</ele>
        <time>2020-10-04T08:05:55Z</time>
      </trkpt>
      <trkpt lat="40.0728200" lon="-4.7248940">
        <ele>467.4</ele>
        <time>2020-10-04T08:05:57Z</time>
      </trkpt>
      <trkpt lat="40.0728240" lon="-4.7248210">
        <ele>467.7</ele>
        <time>2020-10-04T08:05:58Z</time>
      </trkpt>
      <trkpt lat="40.0728290" lon="-4.7247450">
        <ele>468.0</ele>
        <time>2020-10-04T08:06:00Z</time>
      </trkpt>
      <trkpt lat="40.0728340" lon="-4.7246730">
        <ele>468.3</ele>
        <time>2020-10-04T08:06:01Z</time>
      </trkpt>
      <trkpt lat="40.0728360" lon="-4.7246170">
        <ele>468.5</ele>
        <time>2020-10-04T08:06:02Z</time>
      </trkpt>
      <trkpt lat="40.0728450" lon="-4.7245130">
        <ele>468.9</ele>
        <time>2020-10-04T08:06:04Z</time>
      </trkpt>
      <trkpt lat="40.0728660" lon="-4.7244370">
        <ele>469.2</ele>
        <time>2020-10-04T08:06:06Z</time>
      </trkpt>
      <trkpt lat="40.0728910" lon="-4.7243950">
        <ele>469.1</ele>
        <time>2020-10-04T08:06:07Z</time>
      </trkpt>
      <trkpt lat="40.0729180" lon="-4.7243750">
        <ele>469.1</ele>
        <time>2020-10-04T08:06:08Z</time>
      </trkpt>
      <trkpt lat="40.0729600" lon="-4.7243710">
        <ele>469.0</ele>
        <time>2020-10-04T08:06:10Z</time>
      </trkpt>
      <trkpt lat="40.0729880" lon="-4.7243800">
        <ele>468.9</ele>
        <time>2020-10-04T08:06:11Z</time>
      </trkpt>
      <trkpt lat="40.0730250" lon="-4.7243880">
        <ele>468.9</ele>
        <time>2020-10-04T08:06:12Z</time>
      </trkpt>
      <trkpt lat="40.0730900" lon="-4.7244290">
        <ele>468.9</ele>
        <time>2020-10-04T08:06:14Z</time>
      </trkpt>
      <trkpt lat="40.0731240" lon="-4.7244580">
        <ele>468.9</ele>
        <time>2020-10-04T08:06:15Z</time>
      </trkpt>
      <trkpt lat="40.0731600" lon="-4.7244900">
        <ele>468.9</ele>
        <time>2020-10-04T08:06:16Z</time>
      </trkpt>
      <trkpt lat="40.0731890" lon="-4.7245110">
        <ele>468.9</ele>
        <time>2020-10-04T08:06:17Z</time>
      </trkpt>
      <trkpt lat="40.0732350" lon="-4.7245400">
        <ele>468.9</ele>
        <time>2020-10-04T08:06:19Z</time>
      </trkpt>
      <trkpt lat="40.0732590" lon="-4.7245570">
        <ele>469.0</ele>
        <time>2020-10-04T08:06:20Z</time>
      </trkpt>
      <trkpt lat="40.0732940" lon="-4.7245800">
        <ele>469.0</ele>
        <time>2020-10-04T08:06:22Z</time>
      </trkpt>
      <trkpt lat="40.0733110" lon="-4.7245930">
        <ele>469.0</ele>
        <time>2020-10-04T08:06:23Z</time>
      </trkpt>
      <trkpt lat="40.0733210" lon="-4.7246110">
        <ele>469.1</ele>
        <time>2020-10-04T08:06:24Z</time>
      </trkpt>
      <trkpt lat="40.0733230" lon="-4.7246260">
        <ele>469.1</ele>
        <time>2020-10-04T08:06:25Z</time>
      </trkpt>
      <trkpt lat="40.0733300" lon="-4.7246340">
        <ele>469.1</ele>
        <time>2020-10-04T08:06:27Z</time>
      </trkpt>
      <trkpt lat="40.0733360" lon="-4.7246410">
        <ele>469.1</ele>
        <time>2020-10-04T08:06:28Z</time>
      </trkpt>
      <trkpt lat="40.0733430" lon="-4.7246490">
        <ele>469.1</ele>
        <time>2020-10-04T08:06:29Z</time>
      </trkpt>
      <trkpt lat="40.0733490" lon="-4.7246560">
        <ele>469.1</ele>
        <time>2020-10-04T08:06:30Z</time>
      </trkpt>
      <trkpt lat="40.0733560" lon="-4.7246630">
        <ele>469.2</ele>
        <time>2020-10-04T08:06:32Z</time>
      </trkpt>
      <trkpt lat="40.0733620" lon="-4.7246710">
        <ele>469.2</ele>
        <time>2020-10-04T08:06:33Z</time>
      </trkpt>
      <trkpt lat="40.0733690" lon="-4.7246780">
        <ele>469.2</ele>
        <time>2020-10-04T08:06:35Z</time>
      </trkpt>
      <trkpt lat="40.0733750" lon="-4.7246860">
        <ele>469.2</ele>
        <time>2020-10-04T08:06:36Z</time>
      </trkpt>
      <trkpt lat="40.0733820" lon="-4.7246930">
        <ele>469.3</ele>
        <time>2020-10-04T08:06:37Z</time>
      </trkpt>
      <trkpt lat="40.0733880" lon="-4.7247000">
        <ele>469.3</ele>
        <time>2020-10-04T08:06:39Z</time>
      </trkpt>
      <trkpt lat="40.0733950" lon="-4.7247080">
        <ele>469.3</ele>
        <time>2020-10-04T08:06:40Z</time>
      </trkpt>
      <trkpt lat="40.0734010" lon="-4.7247150">
        <ele>469.3</ele>
        <time>2020-10-04T08:07:56Z</time>
      </trkpt>
      <trkpt lat="40.0734080" lon="-4.7247230">
        <ele>469.4</ele>
        <time>2020-10-04T08:07:57Z</time>
      </trkpt>
      <trkpt lat="40.0734140" lon="-4.7247300">
        <ele>469.4</ele>
        <time>2020-10-04T08:07:58Z</time>
      </trkpt>
      <trkpt lat="40.0734480" lon="-4.7247240">
        <ele>469.5</ele>
        <time>2020-10-04T08:07:59Z</time>
      </trkpt>
      <trkpt lat="40.0735160" lon="-4.7247250">
        <ele>469.9</ele>
        <time>2020-10-04T08:08:00Z</time>
      </trkpt>
      <trkpt lat="40.0735460" lon="-4.7247260">
        <ele>470.1</ele>
        <time>2020-10-04T08:08:02Z</time>
      </trkpt>
      <trkpt lat="40.0735910" lon="-4.7247310">
        <ele>470.4</ele>
        <time>2020-10-04T08:08:03Z</time>
      </trkpt>
      <trkpt lat="40.0736500" lon="-4.7247330">
        <ele>470.9</ele>
        <time>2020-10-04T08:08:04Z</time>
      </trkpt>
      <trkpt lat="40.0737090" lon="-4.7247320">
        <ele>471.3</ele>
        <time>2020-10-04T08:08:05Z</time>
      </trkpt>
      <trkpt lat="40.0737560" lon="-4.7247300">
        <ele>471.7</ele>
        <time>2020-10-04T08:08:06Z</time>
      </trkpt>
      <trkpt lat="40.0737950" lon="-4.7247270">
        <ele>472.0</ele>
        <time>2020-10-04T08:08:07Z</time>
      </trkpt>
      <trkpt lat="40.0738320" lon="-4.7247180">
        <ele>472.2</ele>
        <time>2020-10-04T08:08:08Z</time>
      </trkpt>
      <trkpt lat="40.0738410" lon="-4.7247150">
        <ele>472.3</ele>
        <time>2020-10-04T08:08:09Z</time>
      </trkpt>
      <trkpt lat="40.0738530" lon="-4.7246980">
        <ele>472.4</ele>
        <time>2020-10-04T08:08:10Z</time>
      </trkpt>
      <trkpt lat="40.0738540" lon="-4.7246900">
        <ele>472.5</ele>
        <time>2020-10-04T08:08:12Z</time>
      </trkpt>
      <trkpt lat="40.0738540" lon="-4.7246820">
        <ele>472.5</ele>
        <time>2020-10-04T08:08:14Z</time>
      </trkpt>
      <trkpt lat="40.0738540" lon="-4.7246740">
        <ele>472.6</ele>
        <time>2020-10-04T08:08:16Z</time>
      </trkpt>
      <trkpt lat="40.0738550" lon="-4.7246660">
        <ele>472.6</ele>
        <time>2020-10-04T08:08:17Z</time>
      </trkpt>
      <trkpt lat="40.0738550" lon="-4.7246580">
        <ele>472.6</ele>
        <time>2020-10-04T08:08:19Z</time>
      </trkpt>
      <trkpt lat="40.0738550" lon="-4.7246500">
        <ele>472.7</ele>
        <time>2020-10-04T08:09:39Z</time>
      </trkpt>
      <trkpt lat="40.0738560" lon="-4.7246420">
        <ele>472.7</ele>
        <time>2020-10-04T08:09:41Z</time>
      </trkpt>
      <trkpt lat="40.0738560" lon="-4.7246340">
        <ele>472.8</ele>
        <time>2020-10-04T08:09:42Z</time>
      </trkpt>
      <trkpt lat="40.0738820" lon="-4.7246020">
        <ele>473.0</ele>
        <time>2020-10-04T08:09:43Z</time>
      </trkpt>
      <trkpt lat="40.0739060" lon="-4.7245590">
        <ele>473.4</ele>
        <time>2020-10-04T08:09:44Z</time>
      </trkpt>
      <trkpt lat="40.0739280" lon="-4.7245470">
        <ele>473.6</ele>
        <time>2020-10-04T08:09:45Z</time>
      </trkpt>
      <trkpt lat="40.0739520" lon="-4.7245190">
        <ele>473.8</ele>
        <time>2020-10-04T08:09:47Z</time>
      </trkpt>
      <trkpt lat="40.0739920" lon="-4.7244870">
        <ele>474.3</ele>
        <time>2020-10-04T08:09:48Z</time>
      </trkpt>
      <trkpt lat="40.0740400" lon="-4.7244450">
        <ele>474.8</ele>
        <time>2020-10-04T08:09:50Z</time>
      </trkpt>
      <trkpt lat="40.0740670" lon="-4.7244210">
        <ele>475.2</ele>
        <time>2020-10-04T08:09:51Z</time>
      </trkpt>
      <trkpt lat="40.0740950" lon="-4.7243920">
        <ele>475.6</ele>
        <time>2020-10-04T08:09:52Z</time>
      </trkpt>
      <trkpt lat="40.0741190" lon="-4.7243630">
        <ele>475.9</ele>
        <time>2020-10-04T08:09:53Z</time>
      </trkpt>
      <trkpt lat="40.0741370" lon="-4.7243410">
        <ele>476.2</ele>
        <time>2020-10-04T08:09:54Z</time>
      </trkpt>
      <trkpt lat="40.0741640" lon="-4.7243050">
        <ele>476.6</ele>
        <time>2020-10-04T08:09:56Z</time>
      </trkpt>
      <trkpt lat="40.0741860" lon="-4.7242720">
        <ele>477.0</ele>
        <time>2020-10-04T08:09:57Z</time>
      </trkpt>
      <trkpt lat="40.0742080" lon="-4.7242410">
        <ele>477.4</ele>
        <time>2020-10-04T08:09:59Z</time>
      </trkpt>
      <trkpt lat="40.0742360" lon="-4.7242080">
        <ele>477.8</ele>
        <time>2020-10-04T08:10:01Z</time>
      </trkpt>
      <trkpt lat="40.0742670" lon="-4.7241660">
        <ele>478.4</ele>
        <time>2020-10-04T08:10:02Z</time>
      </trkpt>
      <trkpt lat="40.0742790" lon="-4.7241480">
        <ele>478.6</ele>
        <time>2020-10-04T08:10:03Z</time>
      </trkpt>
      <trkpt lat="40.0743000" lon="-4.7241140">
        <ele>479.0</ele>
        <time>2020-10-04T08:10:05Z</time>
      </trkpt>
      <trkpt lat="40.0743200" lon="-4.7240830">
        <ele>479.3</ele>
        <time>2020-10-04T08:10:06Z</time>
      </trkpt>
      <trkpt lat="40.0743470" lon="-4.7240490">
        <ele>479.8</ele>
        <time>2020-10-04T08:10:07Z</time>
      </trkpt>
      <trkpt lat="40.0743540" lon="-4.7240360">
        <ele>479.9</ele>
        <time>2020-10-04T08:10:08Z</time>
      </trkpt>
      <trkpt lat="40.0743720" lon="-4.7240090">
        <ele>480.3</ele>
        <time>2020-10-04T08:10:09Z</time>
      </trkpt>
      <trkpt lat="40.0743990" lon="-4.7239810">
        <ele>480.7</ele>
        <time>2020-10-04T08:10:11Z</time>
      </trkpt>
      <trkpt lat="40.0744090" lon="-4.7239720">
        <ele>480.8</ele>
        <time>2020-10-04T08:10:12Z</time>
      </trkpt>
      <trkpt lat="40.0744340" lon="-4.7239530">
        <ele>481.2</ele>
        <time>2020-10-04T08:10:13Z</time>
      </trkpt>
      <trkpt lat="40.0744660" lon="-4.7239200">
        <ele>481.6</ele>
        <time>2020-10-04T08:10:14Z</time>
      </trkpt>
      <trkpt lat="40.0744770" lon="-4.7239070">
        <ele>481.8</ele>
        <time>2020-10-04T08:10:15Z</time>
      </trkpt>
      <trkpt lat="40.0745000" lon="-4.7238820">
        <ele>482.1</ele>
        <time>2020-10-04T08:10:17Z</time>
      </trkpt>
      <trkpt lat="40.0745240" lon="-4.7238570">
        <ele>482.4</ele>
        <time>2020-10-04T08:10:18Z</time>
      </trkpt>
      <trkpt lat="40.0745460" lon="-4.7238320">
        <ele>482.7</ele>
        <time>2020-10-04T08:10:19Z</time>
      </trkpt>
      <trkpt lat="40.0745660" lon="-4.7238120">
        <ele>482.9</ele>
        <time>2020-10-04T08:10:20Z</time>
      </trkpt>
      <trkpt lat="40.0745950" lon="-4.7237790">
        <ele>483.3</ele>
        <time>2020-10-04T08:10:22Z</time>
      </trkpt>
      <trkpt lat="40.0746250" lon="-4.7237510">
        <ele>483.7</ele>
        <time>2020-10-04T08:10:23Z</time>
      </trkpt>
      <trkpt lat="40.0746340" lon="-4.7237420">
        <ele>483.8</ele>
        <time>2020-10-04T08:10:24Z</time>
      </trkpt>
      <trkpt lat="40.0746590" lon="-4.7237160">
        <ele>484.0</ele>
        <time>2020-10-04T08:10:26Z</time>
      </trkpt>
      <trkpt lat="40.0746830" lon="-4.7236890">
        <ele>484.3</ele>
        <time>2020-10-04T08:10:27Z</time>
      </trkpt>
      <trkpt lat="40.0747090" lon="-4.7236620">
        <ele>484.6</ele>
        <time>2020-10-04T08:10:28Z</time>
      </trkpt>
      <trkpt lat="40.0747170" lon="-4.7236530">
        <ele>484.7</ele>
        <time>2020-10-04T08:10:29Z</time>
      </trkpt>
      <trkpt lat="40.0747390" lon="-4.7236320">
        <ele>484.9</ele>
        <time>2020-10-04T08:10:30Z</time>
      </trkpt>
      <trkpt lat="40.0747670" lon="-4.7236000">
        <ele>485.1</ele>
        <time>2020-10-04T08:10:32Z</time>
      </trkpt>
      <trkpt lat="40.0747780" lon="-4.7235870">
        <ele>485.2</ele>
        <time>2020-10-04T08:10:33Z</time>
      </trkpt>
      <trkpt lat="40.0748070" lon="-4.7235580">
        <ele>485.5</ele>
        <time>2020-10-04T08:10:34Z</time>
      </trkpt>
      <trkpt lat="40.0748160" lon="-4.7235480">
        <ele>485.5</ele>
        <time>2020-10-04T08:10:35Z</time>
      </trkpt>
      <trkpt lat="40.0748510" lon="-4.7235170">
        <ele>485.8</ele>
        <time>2020-10-04T08:10:37Z</time>
      </trkpt>
      <trkpt lat="40.0748670" lon="-4.7235010">
        <ele>485.9</ele>
        <time>2020-10-04T08:10:38Z</time>
      </trkpt>
      <trkpt lat="40.0748950" lon="-4.7234850">
        <ele>486.1</ele>
        <time>2020-10-04T08:10:40Z</time>
      </trkpt>
      <trkpt lat="40.0749160" lon="-4.7234770">
        <ele>486.2</ele>
        <time>2020-10-04T08:10:41Z</time>
      </trkpt>
      <trkpt lat="40.0749420" lon="-4.7234610">
        <ele>486.3</ele>
        <time>2020-10-04T08:10:43Z</time>
      </trkpt>
      <trkpt lat="40.0749690" lon="-4.7234500">
        <ele>486.4</ele>
        <time>2020-10-04T08:10:44Z</time>
      </trkpt>
      <trkpt lat="40.0749780" lon="-4.7234470">
        <ele>486.4</ele>
        <time>2020-10-04T08:10:45Z</time>
      </trkpt>
      <trkpt lat="40.0750140" lon="-4.7234300">
        <ele>486.5</ele>
        <time>2020-10-04T08:10:46Z</time>
      </trkpt>
      <trkpt lat="40.0750260" lon="-4.7234240">
        <ele>486.5</ele>
        <time>2020-10-04T08:10:47Z</time>
      </trkpt>
      <trkpt lat="40.0750530" lon="-4.7234110">
        <ele>486.6</ele>
        <time>2020-10-04T08:10:48Z</time>
      </trkpt>
      <trkpt lat="40.0750800" lon="-4.7234000">
        <ele>486.6</ele>
        <time>2020-10-04T08:10:50Z</time>
      </trkpt>
      <trkpt lat="40.0751010" lon="-4.7233940">
        <ele>486.7</ele>
        <time>2020-10-04T08:10:51Z</time>
      </trkpt>
      <trkpt lat="40.0751420" lon="-4.7233740">
        <ele>486.7</ele>
        <time>2020-10-04T08:10:53Z</time>
      </trkpt>
      <trkpt lat="40.0751760" lon="-4.7233480">
        <ele>486.8</ele>
        <time>2020-10-04T08:10:55Z</time>
      </trkpt>
      <trkpt lat="40.0751990" lon="-4.7233200">
        <ele>486.8</ele>
        <time>2020-10-04T08:10:56Z</time>
      </trkpt>
      <trkpt lat="40.0752070" lon="-4.7233070">
        <ele>486.8</ele>
        <time>2020-10-04T08:10:57Z</time>
      </trkpt>
      <trkpt lat="40.0752370" lon="-4.7232720">
        <ele>486.8</ele>
        <time>2020-10-04T08:10:58Z</time>
      </trkpt>
      <trkpt lat="40.0752560" lon="-4.7232470">
        <ele>486.8</ele>
        <time>2020-10-04T08:10:59Z</time>
      </trkpt>
      <trkpt lat="40.0752870" lon="-4.7232140">
        <ele>486.9</ele>
        <time>2020-10-04T08:11:01Z</time>
      </trkpt>
      <trkpt lat="40.0753360" lon="-4.7231700">
        <ele>486.9</ele>
        <time>2020-10-04T08:11:02Z</time>
      </trkpt>
      <trkpt lat="40.0753650" lon="-4.7231420">
        <ele>487.0</ele>
        <time>2020-10-04T08:11:04Z</time>
      </trkpt>
      <trkpt lat="40.0753990" lon="-4.7231170">
        <ele>487.0</ele>
        <time>2020-10-04T08:11:05Z</time>
      </trkpt>
      <trkpt lat="40.0754100" lon="-4.7231090">
        <ele>487.0</ele>
        <time>2020-10-04T08:11:06Z</time>
      </trkpt>
      <trkpt lat="40.0754490" lon="-4.7230850">
        <ele>487.1</ele>
        <time>2020-10-04T08:11:07Z</time>
      </trkpt>
      <trkpt lat="40.0755000" lon="-4.7230530">
        <ele>487.2</ele>
        <time>2020-10-04T08:11:09Z</time>
      </trkpt>
      <trkpt lat="40.0755410" lon="-4.7230250">
        <ele>487.3</ele>
        <time>2020-10-04T08:11:10Z</time>
      </trkpt>
      <trkpt lat="40.0755910" lon="-4.7229870">
        <ele>487.4</ele>
        <time>2020-10-04T08:11:12Z</time>
      </trkpt>
      <trkpt lat="40.0756200" lon="-4.7229630">
        <ele>487.5</ele>
        <time>2020-10-04T08:11:13Z</time>
      </trkpt>
      <trkpt lat="40.0756560" lon="-4.7229300">
        <ele>487.6</ele>
        <time>2020-10-04T08:11:14Z</time>
      </trkpt>
      <trkpt lat="40.0756810" lon="-4.7228970">
        <ele>487.7</ele>
        <time>2020-10-04T08:11:15Z</time>
      </trkpt>
      <trkpt lat="40.0757100" lon="-4.7228540">
        <ele>487.8</ele>
        <time>2020-10-04T08:11:17Z</time>
      </trkpt>
      <trkpt lat="40.0757400" lon="-4.7227990">
        <ele>488.0</ele>
        <time>2020-10-04T08:11:19Z</time>
      </trkpt>
      <trkpt lat="40.0757590" lon="-4.7227660">
        <ele>488.1</ele>
        <time>2020-10-04T08:11:20Z</time>
      </trkpt>
      <trkpt lat="40.0758030" lon="-4.7226960">
        <ele>488.3</ele>
        <time>2020-10-04T08:11:21Z</time>
      </trkpt>
      <trkpt lat="40.0758490" lon="-4.7226420">
        <ele>488.6</ele>
        <time>2020-10-04T08:11:23Z</time>
      </trkpt>
      <trkpt lat="40.0758850" lon="-4.7226040">
        <ele>488.8</ele>
        <time>2020-10-04T08:11:24Z</time>
      </trkpt>
      <trkpt lat="40.0759110" lon="-4.7225730">
        <ele>488.9</ele>
        <time>2020-10-04T08:11:26Z</time>
      </trkpt>
      <trkpt lat="40.0759370" lon="-4.7225490">
        <ele>489.1</ele>
        <time>2020-10-04T08:11:27Z</time>
      </trkpt>
      <trkpt lat="40.0759640" lon="-4.7225190">
        <ele>489.2</ele>
        <time>2020-10-04T08:11:28Z</time>
      </trkpt>
      <trkpt lat="40.0759940" lon="-4.7224750">
        <ele>489.4</ele>
        <time>2020-10-04T08:11:29Z</time>
      </trkpt>
      <trkpt lat="40.0760130" lon="-4.7224400">
        <ele>489.6</ele>
        <time>2020-10-04T08:11:30Z</time>
      </trkpt>
      <trkpt lat="40.0760360" lon="-4.7223950">
        <ele>489.8</ele>
        <time>2020-10-04T08:11:32Z</time>
      </trkpt>
      <trkpt lat="40.0760620" lon="-4.7223400">
        <ele>490.1</ele>
        <time>2020-10-04T08:11:33Z</time>
      </trkpt>
      <trkpt lat="40.0760800" lon="-4.7223080">
        <ele>490.3</ele>
        <time>2020-10-04T08:11:34Z</time>
      </trkpt>
      <trkpt lat="40.0761020" lon="-4.7222670">
        <ele>490.5</ele>
        <time>2020-10-04T08:11:36Z</time>
      </trkpt>
      <trkpt lat="40.0761210" lon="-4.7222310">
        <ele>490.7</ele>
        <time>2020-10-04T08:11:37Z</time>
      </trkpt>
      <trkpt lat="40.0761450" lon="-4.7221930">
        <ele>491.0</ele>
        <time>2020-10-04T08:11:38Z</time>
      </trkpt>
      <trkpt lat="40.0761750" lon="-4.7221560">
        <ele>491.2</ele>
        <time>2020-10-04T08:11:39Z</time>
      </trkpt>
      <trkpt lat="40.0762020" lon="-4.7221330">
        <ele>491.4</ele>
        <time>2020-10-04T08:11:40Z</time>
      </trkpt>
      <trkpt lat="40.0762330" lon="-4.7221100">
        <ele>491.6</ele>
        <time>2020-10-04T08:11:41Z</time>
      </trkpt>
      <trkpt lat="40.0762630" lon="-4.7220890">
        <ele>491.8</ele>
        <time>2020-10-04T08:11:43Z</time>
      </trkpt>
      <trkpt lat="40.0762960" lon="-4.7220580">
        <ele>492.1</ele>
        <time>2020-10-04T08:11:44Z</time>
      </trkpt>
      <trkpt lat="40.0763200" lon="-4.7220260">
        <ele>492.3</ele>
        <time>2020-10-04T08:11:46Z</time>
      </trkpt>
      <trkpt lat="40.0763430" lon="-4.7219910">
        <ele>492.4</ele>
        <time>2020-10-04T08:11:47Z</time>
      </trkpt>
      <trkpt lat="40.0763690" lon="-4.7219560">
        <ele>492.6</ele>
        <time>2020-10-04T08:11:49Z</time>
      </trkpt>
      <trkpt lat="40.0763980" lon="-4.7219130">
        <ele>492.8</ele>
        <time>2020-10-04T08:11:50Z</time>
      </trkpt>
      <trkpt lat="40.0764220" lon="-4.7218780">
        <ele>492.9</ele>
        <time>2020-10-04T08:11:52Z</time>
      </trkpt>
      <trkpt lat="40.0764530" lon="-4.7218360">
        <ele>493.1</ele>
        <time>2020-10-04T08:11:53Z</time>
      </trkpt>
      <trkpt lat="40.0764810" lon="-4.7218050">
        <ele>493.2</ele>
        <time>2020-10-04T08:11:55Z</time>
      </trkpt>
      <trkpt lat="40.0765130" lon="-4.7217640">
        <ele>493.2</ele>
        <time>2020-10-04T08:11:56Z</time>
      </trkpt>
      <trkpt lat="40.0765360" lon="-4.7217370">
        <ele>493.2</ele>
        <time>2020-10-04T08:11:58Z</time>
      </trkpt>
      <trkpt lat="40.0765780" lon="-4.7216840">
        <ele>493.1</ele>
        <time>2020-10-04T08:12:00Z</time>
      </trkpt>
      <trkpt lat="40.0766160" lon="-4.7216390">
        <ele>492.9</ele>
        <time>2020-10-04T08:12:01Z</time>
      </trkpt>
      <trkpt lat="40.0766530" lon="-4.7215910">
        <ele>492.6</ele>
        <time>2020-10-04T08:12:03Z</time>
      </trkpt>
      <trkpt lat="40.0766800" lon="-4.7215510">
        <ele>492.3</ele>
        <time>2020-10-04T08:12:04Z</time>
      </trkpt>
      <trkpt lat="40.0767310" lon="-4.7214920">
        <ele>491.7</ele>
        <time>2020-10-04T08:12:05Z</time>
      </trkpt>
      <trkpt lat="40.0767790" lon="-4.7214440">
        <ele>491.1</ele>
        <time>2020-10-04T08:12:07Z</time>
      </trkpt>
      <trkpt lat="40.0768310" lon="-4.7213940">
        <ele>490.3</ele>
        <time>2020-10-04T08:12:08Z</time>
      </trkpt>
      <trkpt lat="40.0768640" lon="-4.7213590">
        <ele>489.8</ele>
        <time>2020-10-04T08:12:09Z</time>
      </trkpt>
      <trkpt lat="40.0768970" lon="-4.7213290">
        <ele>489.3</ele>
        <time>2020-10-04T08:12:11Z</time>
      </trkpt>
      <trkpt lat="40.0769150" lon="-4.7213050">
        <ele>489.0</ele>
        <time>2020-10-04T08:12:12Z</time>
      </trkpt>
      <trkpt lat="40.0769230" lon="-4.7212930">
        <ele>488.8</ele>
        <time>2020-10-04T08:12:14Z</time>
      </trkpt>
      <trkpt lat="40.0769560" lon="-4.7212620">
        <ele>488.3</ele>
        <time>2020-10-04T08:12:15Z</time>
      </trkpt>
      <trkpt lat="40.0769710" lon="-4.7212490">
        <ele>488.1</ele>
        <time>2020-10-04T08:12:16Z</time>
      </trkpt>
      <trkpt lat="40.0770100" lon="-4.7212080">
        <ele>487.6</ele>
        <time>2020-10-04T08:12:17Z</time>
      </trkpt>
      <trkpt lat="40.0770680" lon="-4.7211250">
        <ele>486.7</ele>
        <time>2020-10-04T08:12:19Z</time>
      </trkpt>
      <trkpt lat="40.0771050" lon="-4.7210620">
        <ele>486.2</ele>
        <time>2020-10-04T08:12:20Z</time>
      </trkpt>
      <trkpt lat="40.0771430" lon="-4.7210010">
        <ele>485.9</ele>
        <time>2020-10-04T08:12:22Z</time>
      </trkpt>
      <trkpt lat="40.0772780" lon="-4.7208090">
        <ele>485.0</ele>
        <time>2020-10-04T08:12:24Z</time>
      </trkpt>
      <trkpt lat="40.0773240" lon="-4.7207510">
        <ele>484.8</ele>
        <time>2020-10-04T08:12:25Z</time>
      </trkpt>
      <trkpt lat="40.0773780" lon="-4.7206530">
        <ele>484.6</ele>
        <time>2020-10-04T08:12:27Z</time>
      </trkpt>
      <trkpt lat="40.0774080" lon="-4.7205690">
        <ele>484.3</ele>
        <time>2020-10-04T08:12:29Z</time>
      </trkpt>
      <trkpt lat="40.0774310" lon="-4.7205130">
        <ele>484.1</ele>
        <time>2020-10-04T08:12:30Z</time>
      </trkpt>
      <trkpt lat="40.0774600" lon="-4.7204570">
        <ele>483.9</ele>
        <time>2020-10-04T08:12:32Z</time>
      </trkpt>
      <trkpt lat="40.0774920" lon="-4.7203920">
        <ele>483.7</ele>
        <time>2020-10-04T08:12:34Z</time>
      </trkpt>
      <trkpt lat="40.0775210" lon="-4.7203280">
        <ele>483.5</ele>
        <time>2020-10-04T08:12:35Z</time>
      </trkpt>
      <trkpt lat="40.0775430" lon="-4.7202830">
        <ele>483.4</ele>
        <time>2020-10-04T08:12:36Z</time>
      </trkpt>
      <trkpt lat="40.0775680" lon="-4.7202290">
        <ele>483.3</ele>
        <time>2020-10-04T08:12:38Z</time>
      </trkpt>
      <trkpt lat="40.0775900" lon="-4.7201780">
        <ele>483.2</ele>
        <time>2020-10-04T08:12:39Z</time>
      </trkpt>
      <trkpt lat="40.0776140" lon="-4.7201230">
        <ele>483.2</ele>
        <time>2020-10-04T08:12:40Z</time>
      </trkpt>
      <trkpt lat="40.0776370" lon="-4.7200710">
        <ele>483.2</ele>
        <time>2020-10-04T08:12:41Z</time>
      </trkpt>
      <trkpt lat="40.0776940" lon="-4.7199790">
        <ele>483.2</ele>
        <time>2020-10-04T08:12:42Z</time>
      </trkpt>
      <trkpt lat="40.0777730" lon="-4.7198700">
        <ele>483.4</ele>
        <time>2020-10-04T08:12:44Z</time>
      </trkpt>
      <trkpt lat="40.0778500" lon="-4.7197390">
        <ele>483.7</ele>
        <time>2020-10-04T08:12:46Z</time>
      </trkpt>
      <trkpt lat="40.0779260" lon="-4.7196190">
        <ele>484.2</ele>
        <time>2020-10-04T08:12:48Z</time>
      </trkpt>
      <trkpt lat="40.0779630" lon="-4.7195610">
        <ele>484.6</ele>
        <time>2020-10-04T08:12:49Z</time>
      </trkpt>
      <trkpt lat="40.0780270" lon="-4.7194510">
        <ele>485.3</ele>
        <time>2020-10-04T08:12:51Z</time>
      </trkpt>
      <trkpt lat="40.0780830" lon="-4.7193580">
        <ele>486.1</ele>
        <time>2020-10-04T08:12:53Z</time>
      </trkpt>
      <trkpt lat="40.0781320" lon="-4.7192910">
        <ele>486.6</ele>
        <time>2020-10-04T08:12:55Z</time>
      </trkpt>
      <trkpt lat="40.0781540" lon="-4.7192650">
        <ele>486.9</ele>
        <time>2020-10-04T08:12:56Z</time>
      </trkpt>
      <trkpt lat="40.0781760" lon="-4.7192400">
        <ele>487.1</ele>
        <time>2020-10-04T08:12:57Z</time>
      </trkpt>
      <trkpt lat="40.0782140" lon="-4.7192130">
        <ele>487.5</ele>
        <time>2020-10-04T08:12:59Z</time>
      </trkpt>
      <trkpt lat="40.0782730" lon="-4.7191930">
        <ele>488.0</ele>
        <time>2020-10-04T08:13:01Z</time>
      </trkpt>
      <trkpt lat="40.0783070" lon="-4.7191990">
        <ele>488.3</ele>
        <time>2020-10-04T08:13:02Z</time>
      </trkpt>
      <trkpt lat="40.0783340" lon="-4.7192100">
        <ele>488.5</ele>
        <time>2020-10-04T08:13:03Z</time>
      </trkpt>
      <trkpt lat="40.0783890" lon="-4.7192330">
        <ele>489.0</ele>
        <time>2020-10-04T08:13:05Z</time>
      </trkpt>
      <trkpt lat="40.0784370" lon="-4.7192500">
        <ele>489.4</ele>
        <time>2020-10-04T08:13:07Z</time>
      </trkpt>
      <trkpt lat="40.0784830" lon="-4.7192570">
        <ele>489.8</ele>
        <time>2020-10-04T08:13:09Z</time>
      </trkpt>
      <trkpt lat="40.0785040" lon="-4.7192560">
        <ele>489.9</ele>
        <time>2020-10-04T08:13:10Z</time>
      </trkpt>
      <trkpt lat="40.0785510" lon="-4.7192520">
        <ele>490.3</ele>
        <time>2020-10-04T08:13:12Z</time>
      </trkpt>
      <trkpt lat="40.0785840" lon="-4.7192450">
        <ele>490.5</ele>
        <time>2020-10-04T08:13:13Z</time>
      </trkpt>
      <trkpt lat="40.0786350" lon="-4.7192270">
        <ele>491.0</ele>
        <time>2020-10-04T08:13:15Z</time>
      </trkpt>
      <trkpt lat="40.0786680" lon="-4.7192110">
        <ele>491.3</ele>
        <time>2020-10-04T08:13:16Z</time>
      </trkpt>
      <trkpt lat="40.0786810" lon="-4.7192030">
        <ele>491.4</ele>
        <time>2020-10-04T08:13:17Z</time>
      </trkpt>
      <trkpt lat="40.0787270" lon="-4.7191710">
        <ele>491.8</ele>
        <time>2020-10-04T08:13:19Z</time>
      </trkpt>
      <trkpt lat="40.0787560" lon="-4.7191510">
        <ele>492.1</ele>
        <time>2020-10-04T08:13:20Z</time>
      </trkpt>
      <trkpt lat="40.0787950" lon="-4.7191300">
        <ele>492.4</ele>
        <time>2020-10-04T08:13:21Z</time>
      </trkpt>
      <trkpt lat="40.0788320" lon="-4.7191170">
        <ele>492.7</ele>
        <time>2020-10-04T08:13:23Z</time>
      </trkpt>
      <trkpt lat="40.0788710" lon="-4.7191030">
        <ele>493.0</ele>
        <time>2020-10-04T08:13:24Z</time>
      </trkpt>
      <trkpt lat="40.0789030" lon="-4.7190880">
        <ele>493.1</ele>
        <time>2020-10-04T08:13:26Z</time>
      </trkpt>
      <trkpt lat="40.0789250" lon="-4.7190520">
        <ele>493.2</ele>
        <time>2020-10-04T08:13:27Z</time>
      </trkpt>
      <trkpt lat="40.0789420" lon="-4.7190190">
        <ele>493.3</ele>
        <time>2020-10-04T08:13:29Z</time>
      </trkpt>
      <trkpt lat="40.0789740" lon="-4.7189670">
        <ele>493.3</ele>
        <time>2020-10-04T08:13:31Z</time>
      </trkpt>
      <trkpt lat="40.0790100" lon="-4.7189160">
        <ele>493.2</ele>
        <time>2020-10-04T08:13:32Z</time>
      </trkpt>
      <trkpt lat="40.0790290" lon="-4.7188910">
        <ele>493.1</ele>
        <time>2020-10-04T08:13:33Z</time>
      </trkpt>
      <trkpt lat="40.0790560" lon="-4.7188550">
        <ele>493.0</ele>
        <time>2020-10-04T08:13:35Z</time>
      </trkpt>
      <trkpt lat="40.0791090" lon="-4.7187780">
        <ele>492.5</ele>
        <time>2020-10-04T08:13:36Z</time>
      </trkpt>
      <trkpt lat="40.0791520" lon="-4.7187160">
        <ele>492.2</ele>
        <time>2020-10-04T08:13:38Z</time>
      </trkpt>
      <trkpt lat="40.0792170" lon="-4.7186160">
        <ele>491.7</ele>
        <time>2020-10-04T08:13:39Z</time>
      </trkpt>
      <trkpt lat="40.0792600" lon="-4.7185420">
        <ele>491.5</ele>
        <time>2020-10-04T08:13:41Z</time>
      </trkpt>
      <trkpt lat="40.0793260" lon="-4.7183960">
        <ele>491.3</ele>
        <time>2020-10-04T08:13:42Z</time>
      </trkpt>
      <trkpt lat="40.0793610" lon="-4.7183040">
        <ele>491.1</ele>
        <time>2020-10-04T08:13:43Z</time>
      </trkpt>
      <trkpt lat="40.0794120" lon="-4.7181430">
        <ele>490.1</ele>
        <time>2020-10-04T08:13:45Z</time>
      </trkpt>
      <trkpt lat="40.0794910" lon="-4.7179790">
        <ele>489.3</ele>
        <time>2020-10-04T08:13:47Z</time>
      </trkpt>
      <trkpt lat="40.0795890" lon="-4.7178740">
        <ele>488.6</ele>
        <time>2020-10-04T08:13:49Z</time>
      </trkpt>
      <trkpt lat="40.0796890" lon="-4.7177460">
        <ele>487.7</ele>
        <time>2020-10-04T08:13:51Z</time>
      </trkpt>
      <trkpt lat="40.0797590" lon="-4.7175720">
        <ele>486.8</ele>
        <time>2020-10-04T08:13:53Z</time>
      </trkpt>
      <trkpt lat="40.0797880" lon="-4.7174800">
        <ele>486.3</ele>
        <time>2020-10-04T08:13:54Z</time>
      </trkpt>
      <trkpt lat="40.0798640" lon="-4.7173210">
        <ele>485.2</ele>
        <time>2020-10-04T08:13:56Z</time>
      </trkpt>
      <trkpt lat="40.0799140" lon="-4.7172560">
        <ele>484.7</ele>
        <time>2020-10-04T08:13:57Z</time>
      </trkpt>
      <trkpt lat="40.0800350" lon="-4.7171460">
        <ele>483.5</ele>
        <time>2020-10-04T08:13:59Z</time>
      </trkpt>
      <trkpt lat="40.0801030" lon="-4.7170940">
        <ele>482.9</ele>
        <time>2020-10-04T08:14:00Z</time>
      </trkpt>
      <trkpt lat="40.0802460" lon="-4.7170240">
        <ele>481.6</ele>
        <time>2020-10-04T08:14:02Z</time>
      </trkpt>
      <trkpt lat="40.0803840" lon="-4.7169540">
        <ele>480.5</ele>
        <time>2020-10-04T08:14:04Z</time>
      </trkpt>
      <trkpt lat="40.0804450" lon="-4.7169020">
        <ele>480.0</ele>
        <time>2020-10-04T08:14:05Z</time>
      </trkpt>
      <trkpt lat="40.0805630" lon="-4.7167860">
        <ele>479.1</ele>
        <time>2020-10-04T08:14:07Z</time>
      </trkpt>
      <trkpt lat="40.0806170" lon="-4.7167240">
        <ele>478.7</ele>
        <time>2020-10-04T08:14:08Z</time>
      </trkpt>
      <trkpt lat="40.0806660" lon="-4.7166510">
        <ele>478.2</ele>
        <time>2020-10-04T08:14:09Z</time>
      </trkpt>
      <trkpt lat="40.0807700" lon="-4.7164920">
        <ele>477.1</ele>
        <time>2020-10-04T08:14:11Z</time>
      </trkpt>
      <trkpt lat="40.0808800" lon="-4.7163330">
        <ele>475.8</ele>
        <time>2020-10-04T08:14:13Z</time>
      </trkpt>
      <trkpt lat="40.0809620" lon="-4.7162060">
        <ele>474.3</ele>
        <time>2020-10-04T08:14:15Z</time>
      </trkpt>
      <trkpt lat="40.0810170" lon="-4.7161270">
        <ele>473.4</ele>
        <time>2020-10-04T08:14:17Z</time>
      </trkpt>
      <trkpt lat="40.0810370" lon="-4.7160700">
        <ele>472.9</ele>
        <time>2020-10-04T08:14:19Z</time>
      </trkpt>
      <trkpt lat="40.0810820" lon="-4.7159620">
        <ele>472.3</ele>
        <time>2020-10-04T08:14:21Z</time>
      </trkpt>
      <trkpt lat="40.0811430" lon="-4.7158250">
        <ele>472.0</ele>
        <time>2020-10-04T08:14:23Z</time>
      </trkpt>
      <trkpt lat="40.0811700" lon="-4.7156520">
        <ele>472.3</ele>
        <time>2020-10-04T08:14:25Z</time>
      </trkpt>
      <trkpt lat="40.0811870" lon="-4.7155700">
        <ele>472.7</ele>
        <time>2020-10-04T08:14:26Z</time>
      </trkpt>
      <trkpt lat="40.0812210" lon="-4.7154320">
        <ele>473.6</ele>
        <time>2020-10-04T08:14:28Z</time>
      </trkpt>
      <trkpt lat="40.0812560" lon="-4.7153480">
        <ele>474.3</ele>
        <time>2020-10-04T08:14:29Z</time>
      </trkpt>
      <trkpt lat="40.0812680" lon="-4.7153050">
        <ele>474.7</ele>
        <time>2020-10-04T08:14:31Z</time>
      </trkpt>
      <trkpt lat="40.0812800" lon="-4.7152710">
        <ele>475.0</ele>
        <time>2020-10-04T08:14:32Z</time>
      </trkpt>
      <trkpt lat="40.0812960" lon="-4.7152250">
        <ele>475.4</ele>
        <time>2020-10-04T08:14:33Z</time>
      </trkpt>
      <trkpt lat="40.0813000" lon="-4.7152040">
        <ele>475.5</ele>
        <time>2020-10-04T08:14:34Z</time>
      </trkpt>
      <trkpt lat="40.0813070" lon="-4.7151810">
        <ele>475.7</ele>
        <time>2020-10-04T08:14:36Z</time>
      </trkpt>
      <trkpt lat="40.0813170" lon="-4.7151650">
        <ele>475.9</ele>
        <time>2020-10-04T08:14:37Z</time>
      </trkpt>
      <trkpt lat="40.0813360" lon="-4.7151340">
        <ele>476.2</ele>
        <time>2020-10-04T08:14:38Z</time>
      </trkpt>
      <trkpt lat="40.0813440" lon="-4.7151210">
        <ele>476.3</ele>
        <time>2020-10-04T08:14:39Z</time>
      </trkpt>
      <trkpt lat="40.0813580" lon="-4.7151010">
        <ele>476.5</ele>
        <time>2020-10-04T08:14:40Z</time>
      </trkpt>
      <trkpt lat="40.0813870" lon="-4.7150670">
        <ele>476.8</ele>
        <time>2020-10-04T08:14:42Z</time>
      </trkpt>
      <trkpt lat="40.0814180" lon="-4.7150310">
        <ele>477.1</ele>
        <time>2020-10-04T08:14:43Z</time>
      </trkpt>
      <trkpt lat="40.0814300" lon="-4.7150160">
        <ele>477.3</ele>
        <time>2020-10-04T08:14:44Z</time>
      </trkpt>
      <trkpt lat="40.0814540" lon="-4.7149950">
        <ele>477.5</ele>
        <time>2020-10-04T08:14:45Z</time>
      </trkpt>
      <trkpt lat="40.0814860" lon="-4.7149690">
        <ele>477.7</ele>
        <time>2020-10-04T08:14:46Z</time>
      </trkpt>
      <trkpt lat="40.0815220" lon="-4.7149330">
        <ele>477.9</ele>
        <time>2020-10-04T08:14:48Z</time>
      </trkpt>
      <trkpt lat="40.0815440" lon="-4.7149110">
        <ele>478.1</ele>
        <time>2020-10-04T08:14:49Z</time>
      </trkpt>
      <trkpt lat="40.0815650" lon="-4.7148880">
        <ele>478.2</ele>
        <time>2020-10-04T08:14:50Z</time>
      </trkpt>
      <trkpt lat="40.0815880" lon="-4.7148630">
        <ele>478.3</ele>
        <time>2020-10-04T08:14:51Z</time>
      </trkpt>
      <trkpt lat="40.0816060" lon="-4.7148420">
        <ele>478.4</ele>
        <time>2020-10-04T08:14:52Z</time>
      </trkpt>
      <trkpt lat="40.0816230" lon="-4.7148140">
        <ele>478.5</ele>
        <time>2020-10-04T08:14:54Z</time>
      </trkpt>
      <trkpt lat="40.0816460" lon="-4.7147870">
        <ele>478.6</ele>
        <time>2020-10-04T08:14:55Z</time>
      </trkpt>
      <trkpt lat="40.0816550" lon="-4.7147760">
        <ele>478.7</ele>
        <time>2020-10-04T08:14:56Z</time>
      </trkpt>
      <trkpt lat="40.0816980" lon="-4.7147380">
        <ele>478.9</ele>
        <time>2020-10-04T08:14:58Z</time>
      </trkpt>
      <trkpt lat="40.0817420" lon="-4.7147120">
        <ele>479.0</ele>
        <time>2020-10-04T08:15:00Z</time>
      </trkpt>
      <trkpt lat="40.0817650" lon="-4.7147030">
        <ele>479.1</ele>
        <time>2020-10-04T08:15:01Z</time>
      </trkpt>
      <trkpt lat="40.0818140" lon="-4.7146970">
        <ele>479.3</ele>
        <time>2020-10-04T08:15:03Z</time>
      </trkpt>
      <trkpt lat="40.0818520" lon="-4.7147000">
        <ele>479.4</ele>
        <time>2020-10-04T08:15:04Z</time>
      </trkpt>
      <trkpt lat="40.0818630" lon="-4.7147030">
        <ele>479.4</ele>
        <time>2020-10-04T08:15:05Z</time>
      </trkpt>
      <trkpt lat="40.0818900" lon="-4.7147110">
        <ele>479.5</ele>
        <time>2020-10-04T08:15:06Z</time>
      </trkpt>
      <trkpt lat="40.0819410" lon="-4.7147270">
        <ele>479.6</ele>
        <time>2020-10-04T08:15:08Z</time>
      </trkpt>
      <trkpt lat="40.0820000" lon="-4.7147320">
        <ele>479.7</ele>
        <time>2020-10-04T08:15:10Z</time>
      </trkpt>
      <trkpt lat="40.0820570" lon="-4.7147320">
        <ele>479.8</ele>
        <time>2020-10-04T08:15:12Z</time>
      </trkpt>
      <trkpt lat="40.0821200" lon="-4.7147240">
        <ele>479.9</ele>
        <time>2020-10-04T08:15:14Z</time>
      </trkpt>
      <trkpt lat="40.0821510" lon="-4.7147080">
        <ele>480.0</ele>
        <time>2020-10-04T08:15:15Z</time>
      </trkpt>
      <trkpt lat="40.0821740" lon="-4.7146930">
        <ele>480.0</ele>
        <time>2020-10-04T08:15:16Z</time>
      </trkpt>
      <trkpt lat="40.0822250" lon="-4.7146520">
        <ele>480.1</ele>
        <time>2020-10-04T08:15:18Z</time>
      </trkpt>
      <trkpt lat="40.0822750" lon="-4.7145950">
        <ele>480.3</ele>
        <time>2020-10-04T08:15:20Z</time>
      </trkpt>
      <trkpt lat="40.0822940" lon="-4.7145690">
        <ele>480.3</ele>
        <time>2020-10-04T08:15:21Z</time>
      </trkpt>
      <trkpt lat="40.0823350" lon="-4.7145100">
        <ele>480.4</ele>
        <time>2020-10-04T08:15:23Z</time>
      </trkpt>
      <trkpt lat="40.0823610" lon="-4.7144710">
        <ele>480.5</ele>
        <time>2020-10-04T08:15:24Z</time>
      </trkpt>
      <trkpt lat="40.0823950" lon="-4.7144260">
        <ele>480.6</ele>
        <time>2020-10-04T08:15:26Z</time>
      </trkpt>
      <trkpt lat="40.0824290" lon="-4.7143920">
        <ele>480.7</ele>
        <time>2020-10-04T08:15:27Z</time>
      </trkpt>
      <trkpt lat="40.0824640" lon="-4.7143660">
        <ele>480.8</ele>
        <time>2020-10-04T08:15:28Z</time>
      </trkpt>
      <trkpt lat="40.0824940" lon="-4.7143480">
        <ele>480.8</ele>
        <time>2020-10-04T08:15:29Z</time>
      </trkpt>
      <trkpt lat="40.0825270" lon="-4.7143330">
        <ele>480.9</ele>
        <time>2020-10-04T08:15:30Z</time>
      </trkpt>
      <trkpt lat="40.0825820" lon="-4.7143130">
        <ele>481.0</ele>
        <time>2020-10-04T08:15:32Z</time>
      </trkpt>
      <trkpt lat="40.0826170" lon="-4.7143070">
        <ele>481.1</ele>
        <time>2020-10-04T08:15:33Z</time>
      </trkpt>
      <trkpt lat="40.0826530" lon="-4.7142980">
        <ele>481.2</ele>
        <time>2020-10-04T08:15:35Z</time>
      </trkpt>
      <trkpt lat="40.0827070" lon="-4.7142760">
        <ele>481.3</ele>
        <time>2020-10-04T08:15:36Z</time>
      </trkpt>
      <trkpt lat="40.0827360" lon="-4.7142590">
        <ele>481.4</ele>
        <time>2020-10-04T08:15:37Z</time>
      </trkpt>
      <trkpt lat="40.0827690" lon="-4.7142370">
        <ele>481.5</ele>
        <time>2020-10-04T08:15:38Z</time>
      </trkpt>
      <trkpt lat="40.0827970" lon="-4.7142170">
        <ele>481.6</ele>
        <time>2020-10-04T08:15:40Z</time>
      </trkpt>
      <trkpt lat="40.0828270" lon="-4.7141970">
        <ele>481.7</ele>
        <time>2020-10-04T08:15:41Z</time>
      </trkpt>
      <trkpt lat="40.0828840" lon="-4.7141680">
        <ele>481.8</ele>
        <time>2020-10-04T08:15:42Z</time>
      </trkpt>
      <trkpt lat="40.0829260" lon="-4.7141450">
        <ele>482.0</ele>
        <time>2020-10-04T08:15:44Z</time>
      </trkpt>
      <trkpt lat="40.0829730" lon="-4.7141240">
        <ele>482.1</ele>
        <time>2020-10-04T08:15:45Z</time>
      </trkpt>
      <trkpt lat="40.0830100" lon="-4.7141000">
        <ele>482.3</ele>
        <time>2020-10-04T08:15:47Z</time>
      </trkpt>
      <trkpt lat="40.0830500" lon="-4.7140720">
        <ele>482.5</ele>
        <time>2020-10-04T08:15:48Z</time>
      </trkpt>
      <trkpt lat="40.0831210" lon="-4.7140380">
        <ele>482.8</ele>
        <time>2020-10-04T08:15:50Z</time>
      </trkpt>
      <trkpt lat="40.0831500" lon="-4.7140210">
        <ele>483.0</ele>
        <time>2020-10-04T08:15:51Z</time>
      </trkpt>
      <trkpt lat="40.0831810" lon="-4.7140060">
        <ele>483.1</ele>
        <time>2020-10-04T08:15:53Z</time>
      </trkpt>
      <trkpt lat="40.0832350" lon="-4.7139870">
        <ele>483.4</ele>
        <time>2020-10-04T08:15:55Z</time>
      </trkpt>
      <trkpt lat="40.0832650" lon="-4.7139780">
        <ele>483.5</ele>
        <time>2020-10-04T08:15:56Z</time>
      </trkpt>
      <trkpt lat="40.0832950" lon="-4.7139740">
        <ele>483.7</ele>
        <time>2020-10-04T08:15:57Z</time>
      </trkpt>
      <trkpt lat="40.0833400" lon="-4.7139570">
        <ele>483.9</ele>
        <time>2020-10-04T08:15:59Z</time>
      </trkpt>
      <trkpt lat="40.0833580" lon="-4.7139420">
        <ele>484.0</ele>
        <time>2020-10-04T08:16:00Z</time>
      </trkpt>
      <trkpt lat="40.0833760" lon="-4.7139260">
        <ele>484.1</ele>
        <time>2020-10-04T08:16:01Z</time>
      </trkpt>
      <trkpt lat="40.0834140" lon="-4.7138840">
        <ele>484.3</ele>
        <time>2020-10-04T08:16:03Z</time>
      </trkpt>
      <trkpt lat="40.0834380" lon="-4.7138620">
        <ele>484.5</ele>
        <time>2020-10-04T08:16:04Z</time>
      </trkpt>
      <trkpt lat="40.0834730" lon="-4.7138260">
        <ele>484.7</ele>
        <time>2020-10-04T08:16:05Z</time>
      </trkpt>
      <trkpt lat="40.0835020" lon="-4.7138020">
        <ele>484.9</ele>
        <time>2020-10-04T08:16:06Z</time>
      </trkpt>
      <trkpt lat="40.0835320" lon="-4.7137770">
        <ele>485.1</ele>
        <time>2020-10-04T08:16:08Z</time>
      </trkpt>
      <trkpt lat="40.0835750" lon="-4.7137420">
        <ele>485.4</ele>
        <time>2020-10-04T08:16:09Z</time>
      </trkpt>
      <trkpt lat="40.0835960" lon="-4.7137270">
        <ele>485.5</ele>
        <time>2020-10-04T08:16:10Z</time>
      </trkpt>
      <trkpt lat="40.0836300" lon="-4.7136960">
        <ele>485.8</ele>
        <time>2020-10-04T08:16:12Z</time>
      </trkpt>
      <trkpt lat="40.0836560" lon="-4.7136720">
        <ele>486.0</ele>
        <time>2020-10-04T08:16:13Z</time>
      </trkpt>
      <trkpt lat="40.0836630" lon="-4.7136660">
        <ele>486.0</ele>
        <time>2020-10-04T08:16:14Z</time>
      </trkpt>
      <trkpt lat="40.0836950" lon="-4.7136380">
        <ele>486.2</ele>
        <time>2020-10-04T08:16:15Z</time>
      </trkpt>
      <trkpt lat="40.0837060" lon="-4.7136270">
        <ele>486.3</ele>
        <time>2020-10-04T08:16:16Z</time>
      </trkpt>
      <trkpt lat="40.0837350" lon="-4.7136060">
        <ele>486.4</ele>
        <time>2020-10-04T08:16:18Z</time>
      </trkpt>
      <trkpt lat="40.0837610" lon="-4.7135920">
        <ele>486.6</ele>
        <time>2020-10-04T08:16:19Z</time>
      </trkpt>
      <trkpt lat="40.0837990" lon="-4.7135810">
        <ele>486.8</ele>
        <time>2020-10-04T08:16:20Z</time>
      </trkpt>
      <trkpt lat="40.0838470" lon="-4.7135640">
        <ele>487.0</ele>
        <time>2020-10-04T08:16:22Z</time>
      </trkpt>
      <trkpt lat="40.0838640" lon="-4.7135560">
        <ele>487.1</ele>
        <time>2020-10-04T08:16:23Z</time>
      </trkpt>
      <trkpt lat="40.0838820" lon="-4.7135480">
        <ele>487.2</ele>
        <time>2020-10-04T08:16:24Z</time>
      </trkpt>
      <trkpt lat="40.0839320" lon="-4.7135180">
        <ele>487.5</ele>
        <time>2020-10-04T08:16:25Z</time>
      </trkpt>
      <trkpt lat="40.0839600" lon="-4.7134980">
        <ele>487.6</ele>
        <time>2020-10-04T08:16:26Z</time>
      </trkpt>
      <trkpt lat="40.0840200" lon="-4.7134670">
        <ele>488.0</ele>
        <time>2020-10-04T08:16:28Z</time>
      </trkpt>
      <trkpt lat="40.0840680" lon="-4.7134430">
        <ele>488.3</ele>
        <time>2020-10-04T08:16:30Z</time>
      </trkpt>
      <trkpt lat="40.0840970" lon="-4.7134240">
        <ele>488.5</ele>
        <time>2020-10-04T08:16:31Z</time>
      </trkpt>
      <trkpt lat="40.0841290" lon="-4.7133980">
        <ele>488.8</ele>
        <time>2020-10-04T08:16:32Z</time>
      </trkpt>
      <trkpt lat="40.0841600" lon="-4.7133720">
        <ele>489.0</ele>
        <time>2020-10-04T08:16:34Z</time>
      </trkpt>
      <trkpt lat="40.0841940" lon="-4.7133340">
        <ele>489.3</ele>
        <time>2020-10-04T08:16:35Z</time>
      </trkpt>
      <trkpt lat="40.0842100" lon="-4.7133090">
        <ele>489.5</ele>
        <time>2020-10-04T08:16:36Z</time>
      </trkpt>
      <trkpt lat="40.0842280" lon="-4.7132800">
        <ele>489.7</ele>
        <time>2020-10-04T08:16:38Z</time>
      </trkpt>
      <trkpt lat="40.0842600" lon="-4.7132340">
        <ele>490.0</ele>
        <time>2020-10-04T08:16:40Z</time>
      </trkpt>
      <trkpt lat="40.0842890" lon="-4.7132000">
        <ele>490.2</ele>
        <time>2020-10-04T08:16:41Z</time>
      </trkpt>
      <trkpt lat="40.0843000" lon="-4.7131870">
        <ele>490.3</ele>
        <time>2020-10-04T08:16:42Z</time>
      </trkpt>
      <trkpt lat="40.0843250" lon="-4.7131610">
        <ele>490.4</ele>
        <time>2020-10-04T08:16:43Z</time>
      </trkpt>
      <trkpt lat="40.0843480" lon="-4.7131490">
        <ele>490.6</ele>
        <time>2020-10-04T08:16:44Z</time>
      </trkpt>
      <trkpt lat="40.0843730" lon="-4.7131370">
        <ele>490.7</ele>
        <time>2020-10-04T08:16:46Z</time>
      </trkpt>
      <trkpt lat="40.0844140" lon="-4.7131110">
        <ele>490.9</ele>
        <time>2020-10-04T08:16:47Z</time>
      </trkpt>
      <trkpt lat="40.0844310" lon="-4.7130990">
        <ele>491.0</ele>
        <time>2020-10-04T08:16:48Z</time>
      </trkpt>
      <trkpt lat="40.0844580" lon="-4.7130810">
        <ele>491.2</ele>
        <time>2020-10-04T08:16:50Z</time>
      </trkpt>
      <trkpt lat="40.0844960" lon="-4.7130510">
        <ele>491.5</ele>
        <time>2020-10-04T08:16:51Z</time>
      </trkpt>
      <trkpt lat="40.0845210" lon="-4.7130320">
        <ele>491.6</ele>
        <time>2020-10-04T08:16:52Z</time>
      </trkpt>
      <trkpt lat="40.0845480" lon="-4.7130100">
        <ele>491.8</ele>
        <time>2020-10-04T08:16:54Z</time>
      </trkpt>
      <trkpt lat="40.0845720" lon="-4.7129890">
        <ele>492.0</ele>
        <time>2020-10-04T08:16:55Z</time>
      </trkpt>
      <trkpt lat="40.0846100" lon="-4.7129670">
        <ele>492.2</ele>
        <time>2020-10-04T08:16:56Z</time>
      </trkpt>
      <trkpt lat="40.0846510" lon="-4.7129460">
        <ele>492.5</ele>
        <time>2020-10-04T08:16:57Z</time>
      </trkpt>
      <trkpt lat="40.0846660" lon="-4.7129380">
        <ele>492.6</ele>
        <time>2020-10-04T08:16:58Z</time>
      </trkpt>
      <trkpt lat="40.0846930" lon="-4.7129240">
        <ele>492.8</ele>
        <time>2020-10-04T08:16:59Z</time>
      </trkpt>
      <trkpt lat="40.0847200" lon="-4.7129150">
        <ele>492.9</ele>
        <time>2020-10-04T08:17:00Z</time>
      </trkpt>
      <trkpt lat="40.0847530" lon="-4.7129060">
        <ele>493.1</ele>
        <time>2020-10-04T08:17:02Z</time>
      </trkpt>
      <trkpt lat="40.0848030" lon="-4.7128830">
        <ele>493.4</ele>
        <time>2020-10-04T08:17:04Z</time>
      </trkpt>
      <trkpt lat="40.0848430" lon="-4.7128610">
        <ele>493.5</ele>
        <time>2020-10-04T08:17:05Z</time>
      </trkpt>
      <trkpt lat="40.0848780" lon="-4.7128430">
        <ele>493.7</ele>
        <time>2020-10-04T08:17:06Z</time>
      </trkpt>
      <trkpt lat="40.0849230" lon="-4.7128250">
        <ele>493.9</ele>
        <time>2020-10-04T08:17:07Z</time>
      </trkpt>
      <trkpt lat="40.0849550" lon="-4.7128060">
        <ele>494.1</ele>
        <time>2020-10-04T08:17:09Z</time>
      </trkpt>
      <trkpt lat="40.0849940" lon="-4.7127790">
        <ele>494.4</ele>
        <time>2020-10-04T08:17:10Z</time>
      </trkpt>
      <trkpt lat="40.0850260" lon="-4.7127500">
        <ele>494.6</ele>
        <time>2020-10-04T08:17:12Z</time>
      </trkpt>
      <trkpt lat="40.0850550" lon="-4.7127230">
        <ele>494.8</ele>
        <time>2020-10-04T08:17:13Z</time>
      </trkpt>
      <trkpt lat="40.0850870" lon="-4.7126890">
        <ele>495.1</ele>
        <time>2020-10-04T08:17:14Z</time>
      </trkpt>
      <trkpt lat="40.0851180" lon="-4.7126610">
        <ele>495.4</ele>
        <time>2020-10-04T08:17:15Z</time>
      </trkpt>
      <trkpt lat="40.0851480" lon="-4.7126320">
        <ele>495.7</ele>
        <time>2020-10-04T08:17:17Z</time>
      </trkpt>
      <trkpt lat="40.0851770" lon="-4.7126080">
        <ele>496.0</ele>
        <time>2020-10-04T08:17:18Z</time>
      </trkpt>
      <trkpt lat="40.0851850" lon="-4.7126000">
        <ele>496.1</ele>
        <time>2020-10-04T08:17:19Z</time>
      </trkpt>
      <trkpt lat="40.0852130" lon="-4.7125740">
        <ele>496.3</ele>
        <time>2020-10-04T08:17:20Z</time>
      </trkpt>
      <trkpt lat="40.0852350" lon="-4.7125460">
        <ele>496.6</ele>
        <time>2020-10-04T08:17:21Z</time>
      </trkpt>
      <trkpt lat="40.0852400" lon="-4.7125370">
        <ele>496.7</ele>
        <time>2020-10-04T08:17:22Z</time>
      </trkpt>
      <trkpt lat="40.0852540" lon="-4.7125200">
        <ele>496.8</ele>
        <time>2020-10-04T08:17:23Z</time>
      </trkpt>
      <trkpt lat="40.0852700" lon="-4.7125080">
        <ele>497.0</ele>
        <time>2020-10-04T08:17:25Z</time>
      </trkpt>
      <trkpt lat="40.0852980" lon="-4.7124870">
        <ele>497.3</ele>
        <time>2020-10-04T08:17:26Z</time>
      </trkpt>
      <trkpt lat="40.0853110" lon="-4.7124750">
        <ele>497.4</ele>
        <time>2020-10-04T08:17:27Z</time>
      </trkpt>
      <trkpt lat="40.0853280" lon="-4.7124590">
        <ele>497.6</ele>
        <time>2020-10-04T08:17:28Z</time>
      </trkpt>
      <trkpt lat="40.0853500" lon="-4.7124430">
        <ele>497.8</ele>
        <time>2020-10-04T08:17:30Z</time>
      </trkpt>
      <trkpt lat="40.0853720" lon="-4.7124370">
        <ele>498.0</ele>
        <time>2020-10-04T08:17:32Z</time>
      </trkpt>
      <trkpt lat="40.0853810" lon="-4.7124270">
        <ele>498.1</ele>
        <time>2020-10-04T08:17:33Z</time>
      </trkpt>
      <trkpt lat="40.0854060" lon="-4.7124010">
        <ele>498.4</ele>
        <time>2020-10-04T08:17:34Z</time>
      </trkpt>
      <trkpt lat="40.0854170" lon="-4.7123890">
        <ele>498.5</ele>
        <time>2020-10-04T08:17:35Z</time>
      </trkpt>
      <trkpt lat="40.0854410" lon="-4.7123740">
        <ele>498.7</ele>
        <time>2020-10-04T08:17:36Z</time>
      </trkpt>
      <trkpt lat="40.0854630" lon="-4.7123550">
        <ele>498.9</ele>
        <time>2020-10-04T08:17:38Z</time>
      </trkpt>
      <trkpt lat="40.0854950" lon="-4.7123300">
        <ele>499.2</ele>
        <time>2020-10-04T08:17:40Z</time>
      </trkpt>
      <trkpt lat="40.0855230" lon="-4.7123160">
        <ele>499.4</ele>
        <time>2020-10-04T08:17:41Z</time>
      </trkpt>
      <trkpt lat="40.0855530" lon="-4.7122950">
        <ele>499.6</ele>
        <time>2020-10-04T08:17:42Z</time>
      </trkpt>
      <trkpt lat="40.0855610" lon="-4.7122880">
        <ele>499.7</ele>
        <time>2020-10-04T08:17:43Z</time>
      </trkpt>
      <trkpt lat="40.0855790" lon="-4.7122770">
        <ele>499.8</ele>
        <time>2020-10-04T08:17:44Z</time>
      </trkpt>
      <trkpt lat="40.0856040" lon="-4.7122670">
        <ele>499.9</ele>
        <time>2020-10-04T08:17:46Z</time>
      </trkpt>
      <trkpt lat="40.0856380" lon="-4.7122490">
        <ele>500.1</ele>
        <time>2020-10-04T08:17:48Z</time>
      </trkpt>
      <trkpt lat="40.0856630" lon="-4.7122330">
        <ele>500.2</ele>
        <time>2020-10-04T08:17:49Z</time>
      </trkpt>
      <trkpt lat="40.0856860" lon="-4.7122110">
        <ele>500.3</ele>
        <time>2020-10-04T08:17:50Z</time>
      </trkpt>
      <trkpt lat="40.0857120" lon="-4.7121730">
        <ele>500.5</ele>
        <time>2020-10-04T08:17:52Z</time>
      </trkpt>
      <trkpt lat="40.0857420" lon="-4.7121350">
        <ele>500.7</ele>
        <time>2020-10-04T08:17:54Z</time>
      </trkpt>
      <trkpt lat="40.0857650" lon="-4.7121020">
        <ele>500.8</ele>
        <time>2020-10-04T08:17:55Z</time>
      </trkpt>
      <trkpt lat="40.0858030" lon="-4.7120420">
        <ele>501.0</ele>
        <time>2020-10-04T08:17:56Z</time>
      </trkpt>
      <trkpt lat="40.0858300" lon="-4.7120000">
        <ele>501.2</ele>
        <time>2020-10-04T08:17:57Z</time>
      </trkpt>
      <trkpt lat="40.0858550" lon="-4.7119600">
        <ele>501.4</ele>
        <time>2020-10-04T08:17:59Z</time>
      </trkpt>
      <trkpt lat="40.0858980" lon="-4.7119010">
        <ele>501.7</ele>
        <time>2020-10-04T08:18:00Z</time>
      </trkpt>
      <trkpt lat="40.0859270" lon="-4.7118560">
        <ele>501.9</ele>
        <time>2020-10-04T08:18:02Z</time>
      </trkpt>
      <trkpt lat="40.0859500" lon="-4.7118220">
        <ele>502.2</ele>
        <time>2020-10-04T08:18:03Z</time>
      </trkpt>
      <trkpt lat="40.0859780" lon="-4.7117840">
        <ele>502.4</ele>
        <time>2020-10-04T08:18:04Z</time>
      </trkpt>
      <trkpt lat="40.0860060" lon="-4.7117490">
        <ele>502.6</ele>
        <time>2020-10-04T08:18:05Z</time>
      </trkpt>
      <trkpt lat="40.0860340" lon="-4.7117150">
        <ele>502.9</ele>
        <time>2020-10-04T08:18:07Z</time>
      </trkpt>
      <trkpt lat="40.0860430" lon="-4.7117040">
        <ele>502.9</ele>
        <time>2020-10-04T08:18:08Z</time>
      </trkpt>
      <trkpt lat="40.0860700" lon="-4.7116730">
        <ele>503.2</ele>
        <time>2020-10-04T08:18:09Z</time>
      </trkpt>
      <trkpt lat="40.0860910" lon="-4.7116500">
        <ele>503.3</ele>
        <time>2020-10-04T08:18:11Z</time>
      </trkpt>
      <trkpt lat="40.0861060" lon="-4.7116390">
        <ele>503.4</ele>
        <time>2020-10-04T08:18:12Z</time>
      </trkpt>
      <trkpt lat="40.0861220" lon="-4.7116260">
        <ele>503.5</ele>
        <time>2020-10-04T08:18:13Z</time>
      </trkpt>
      <trkpt lat="40.0861420" lon="-4.7116100">
        <ele>503.6</ele>
        <time>2020-10-04T08:18:15Z</time>
      </trkpt>
      <trkpt lat="40.0861620" lon="-4.7115910">
        <ele>503.7</ele>
        <time>2020-10-04T08:18:17Z</time>
      </trkpt>
      <trkpt lat="40.0861840" lon="-4.7115700">
        <ele>503.8</ele>
        <time>2020-10-04T08:18:18Z</time>
      </trkpt>
      <trkpt lat="40.0862100" lon="-4.7115560">
        <ele>503.9</ele>
        <time>2020-10-04T08:18:20Z</time>
      </trkpt>
      <trkpt lat="40.0862410" lon="-4.7115380">
        <ele>503.9</ele>
        <time>2020-10-04T08:18:21Z</time>
      </trkpt>
      <trkpt lat="40.0862730" lon="-4.7115170">
        <ele>504.0</ele>
        <time>2020-10-04T08:18:23Z</time>
      </trkpt>
      <trkpt lat="40.0863000" lon="-4.7115010">
        <ele>504.1</ele>
        <time>2020-10-04T08:18:24Z</time>
      </trkpt>
      <trkpt lat="40.0863360" lon="-4.7114780">
        <ele>504.2</ele>
        <time>2020-10-04T08:18:25Z</time>
      </trkpt>
      <trkpt lat="40.0863680" lon="-4.7114550">
        <ele>504.3</ele>
        <time>2020-10-04T08:18:27Z</time>
      </trkpt>
      <trkpt lat="40.0863780" lon="-4.7114470">
        <ele>504.3</ele>
        <time>2020-10-04T08:18:28Z</time>
      </trkpt>
      <trkpt lat="40.0864270" lon="-4.7114210">
        <ele>504.4</ele>
        <time>2020-10-04T08:18:30Z</time>
      </trkpt>
      <trkpt lat="40.0864500" lon="-4.7114050">
        <ele>504.5</ele>
        <time>2020-10-04T08:18:31Z</time>
      </trkpt>
      <trkpt lat="40.0864890" lon="-4.7113730">
        <ele>504.6</ele>
        <time>2020-10-04T08:18:33Z</time>
      </trkpt>
      <trkpt lat="40.0865230" lon="-4.7113520">
        <ele>504.7</ele>
        <time>2020-10-04T08:18:34Z</time>
      </trkpt>
      <trkpt lat="40.0865580" lon="-4.7113290">
        <ele>504.8</ele>
        <time>2020-10-04T08:18:36Z</time>
      </trkpt>
      <trkpt lat="40.0865840" lon="-4.7113070">
        <ele>504.9</ele>
        <time>2020-10-04T08:18:37Z</time>
      </trkpt>
      <trkpt lat="40.0866330" lon="-4.7112740">
        <ele>505.1</ele>
        <time>2020-10-04T08:18:39Z</time>
      </trkpt>
      <trkpt lat="40.0866590" lon="-4.7112490">
        <ele>505.2</ele>
        <time>2020-10-04T08:18:40Z</time>
      </trkpt>
      <trkpt lat="40.0866950" lon="-4.7112160">
        <ele>505.4</ele>
        <time>2020-10-04T08:18:41Z</time>
      </trkpt>
      <trkpt lat="40.0867260" lon="-4.7111920">
        <ele>505.5</ele>
        <time>2020-10-04T08:18:43Z</time>
      </trkpt>
      <trkpt lat="40.0867560" lon="-4.7111700">
        <ele>505.6</ele>
        <time>2020-10-04T08:18:44Z</time>
      </trkpt>
      <trkpt lat="40.0868030" lon="-4.7111340">
        <ele>505.8</ele>
        <time>2020-10-04T08:18:46Z</time>
      </trkpt>
      <trkpt lat="40.0868190" lon="-4.7111210">
        <ele>505.9</ele>
        <time>2020-10-04T08:18:47Z</time>
      </trkpt>
      <trkpt lat="40.0868350" lon="-4.7111070">
        <ele>505.9</ele>
        <time>2020-10-04T08:18:48Z</time>
      </trkpt>
      <trkpt lat="40.0868670" lon="-4.7110880">
        <ele>506.1</ele>
        <time>2020-10-04T08:18:49Z</time>
      </trkpt>
      <trkpt lat="40.0869010" lon="-4.7110690">
        <ele>506.3</ele>
        <time>2020-10-04T08:18:51Z</time>
      </trkpt>
      <trkpt lat="40.0869310" lon="-4.7110480">
        <ele>506.4</ele>
        <time>2020-10-04T08:18:52Z</time>
      </trkpt>
      <trkpt lat="40.0869570" lon="-4.7110270">
        <ele>506.6</ele>
        <time>2020-10-04T08:18:53Z</time>
      </trkpt>
      <trkpt lat="40.0869830" lon="-4.7110080">
        <ele>506.7</ele>
        <time>2020-10-04T08:18:54Z</time>
      </trkpt>
      <trkpt lat="40.0870290" lon="-4.7109730">
        <ele>507.0</ele>
        <time>2020-10-04T08:18:56Z</time>
      </trkpt>
      <trkpt lat="40.0870460" lon="-4.7109600">
        <ele>507.1</ele>
        <time>2020-10-04T08:18:57Z</time>
      </trkpt>
      <trkpt lat="40.0870630" lon="-4.7109460">
        <ele>507.2</ele>
        <time>2020-10-04T08:18:58Z</time>
      </trkpt>
      <trkpt lat="40.0870880" lon="-4.7109290">
        <ele>507.4</ele>
        <time>2020-10-04T08:18:59Z</time>
      </trkpt>
      <trkpt lat="40.0871250" lon="-4.7109050">
        <ele>507.6</ele>
        <time>2020-10-04T08:19:01Z</time>
      </trkpt>
      <trkpt lat="40.0871640" lon="-4.7108770">
        <ele>507.9</ele>
        <time>2020-10-04T08:19:02Z</time>
      </trkpt>
      <trkpt lat="40.0871800" lon="-4.7108650">
        <ele>508.1</ele>
        <time>2020-10-04T08:19:03Z</time>
      </trkpt>
      <trkpt lat="40.0872130" lon="-4.7108420">
        <ele>508.3</ele>
        <time>2020-10-04T08:19:05Z</time>
      </trkpt>
      <trkpt lat="40.0872580" lon="-4.7108080">
        <ele>508.7</ele>
        <time>2020-10-04T08:19:07Z</time>
      </trkpt>
      <trkpt lat="40.0872880" lon="-4.7107900">
        <ele>509.0</ele>
        <time>2020-10-04T08:19:08Z</time>
      </trkpt>
      <trkpt lat="40.0873200" lon="-4.7107710">
        <ele>509.2</ele>
        <time>2020-10-04T08:19:09Z</time>
      </trkpt>
      <trkpt lat="40.0873490" lon="-4.7107540">
        <ele>509.5</ele>
        <time>2020-10-04T08:19:10Z</time>
      </trkpt>
      <trkpt lat="40.0873840" lon="-4.7107360">
        <ele>509.8</ele>
        <time>2020-10-04T08:19:11Z</time>
      </trkpt>
      <trkpt lat="40.0874270" lon="-4.7107270">
        <ele>510.2</ele>
        <time>2020-10-04T08:19:13Z</time>
      </trkpt>
      <trkpt lat="40.0874680" lon="-4.7107160">
        <ele>510.6</ele>
        <time>2020-10-04T08:19:14Z</time>
      </trkpt>
      <trkpt lat="40.0875150" lon="-4.7107010">
        <ele>510.9</ele>
        <time>2020-10-04T08:19:16Z</time>
      </trkpt>
      <trkpt lat="40.0875480" lon="-4.7106900">
        <ele>511.1</ele>
        <time>2020-10-04T08:19:17Z</time>
      </trkpt>
      <trkpt lat="40.0875870" lon="-4.7106720">
        <ele>511.3</ele>
        <time>2020-10-04T08:19:18Z</time>
      </trkpt>
      <trkpt lat="40.0876210" lon="-4.7106480">
        <ele>511.9</ele>
        <time>2020-10-04T08:19:19Z</time>
      </trkpt>
      <trkpt lat="40.0876450" lon="-4.7106110">
        <ele>512.5</ele>
        <time>2020-10-04T08:19:20Z</time>
      </trkpt>
      <trkpt lat="40.0876500" lon="-4.7105970">
        <ele>512.7</ele>
        <time>2020-10-04T08:19:21Z</time>
      </trkpt>
      <trkpt lat="40.0876670" lon="-4.7105600">
        <ele>513.2</ele>
        <time>2020-10-04T08:19:22Z</time>
      </trkpt>
      <trkpt lat="40.0876730" lon="-4.7105490">
        <ele>513.4</ele>
        <time>2020-10-04T08:19:23Z</time>
      </trkpt>
      <trkpt lat="40.0876930" lon="-4.7105200">
        <ele>513.8</ele>
        <time>2020-10-04T08:19:24Z</time>
      </trkpt>
      <trkpt lat="40.0876990" lon="-4.7105110">
        <ele>514.0</ele>
        <time>2020-10-04T08:19:25Z</time>
      </trkpt>
      <trkpt lat="40.0877180" lon="-4.7104840">
        <ele>514.4</ele>
        <time>2020-10-04T08:19:27Z</time>
      </trkpt>
      <trkpt lat="40.0877260" lon="-4.7104700">
        <ele>514.6</ele>
        <time>2020-10-04T08:19:28Z</time>
      </trkpt>
      <trkpt lat="40.0877370" lon="-4.7104490">
        <ele>514.9</ele>
        <time>2020-10-04T08:19:29Z</time>
      </trkpt>
      <trkpt lat="40.0877470" lon="-4.7104290">
        <ele>515.2</ele>
        <time>2020-10-04T08:19:31Z</time>
      </trkpt>
      <trkpt lat="40.0877690" lon="-4.7103910">
        <ele>515.7</ele>
        <time>2020-10-04T08:19:32Z</time>
      </trkpt>
      <trkpt lat="40.0877850" lon="-4.7103590">
        <ele>516.2</ele>
        <time>2020-10-04T08:19:34Z</time>
      </trkpt>
      <trkpt lat="40.0877900" lon="-4.7103470">
        <ele>516.4</ele>
        <time>2020-10-04T08:19:35Z</time>
      </trkpt>
      <trkpt lat="40.0877980" lon="-4.7103190">
        <ele>516.7</ele>
        <time>2020-10-04T08:19:37Z</time>
      </trkpt>
      <trkpt lat="40.0878140" lon="-4.7102960">
        <ele>517.1</ele>
        <time>2020-10-04T08:19:39Z</time>
      </trkpt>
      <trkpt lat="40.0878360" lon="-4.7102630">
        <ele>517.6</ele>
        <time>2020-10-04T08:19:40Z</time>
      </trkpt>
      <trkpt lat="40.0878400" lon="-4.7102530">
        <ele>517.7</ele>
        <time>2020-10-04T08:19:41Z</time>
      </trkpt>
      <trkpt lat="40.0878480" lon="-4.7102380">
        <ele>517.9</ele>
        <time>2020-10-04T08:19:43Z</time>
      </trkpt>
      <trkpt lat="40.0878520" lon="-4.7102190">
        <ele>518.1</ele>
        <time>2020-10-04T08:19:44Z</time>
      </trkpt>
      <trkpt lat="40.0878530" lon="-4.7101960">
        <ele>518.4</ele>
        <time>2020-10-04T08:19:46Z</time>
      </trkpt>
      <trkpt lat="40.0878580" lon="-4.7101750">
        <ele>518.6</ele>
        <time>2020-10-04T08:19:47Z</time>
      </trkpt>
      <trkpt lat="40.0878680" lon="-4.7101370">
        <ele>519.1</ele>
        <time>2020-10-04T08:19:48Z</time>
      </trkpt>
      <trkpt lat="40.0878740" lon="-4.7101190">
        <ele>519.3</ele>
        <time>2020-10-04T08:19:50Z</time>
      </trkpt>
      <trkpt lat="40.0878800" lon="-4.7101010">
        <ele>519.5</ele>
        <time>2020-10-04T08:19:51Z</time>
      </trkpt>
      <trkpt lat="40.0878860" lon="-4.7100830">
        <ele>519.7</ele>
        <time>2020-10-04T08:19:52Z</time>
      </trkpt>
      <trkpt lat="40.0878960" lon="-4.7100610">
        <ele>520.0</ele>
        <time>2020-10-04T08:19:54Z</time>
      </trkpt>
      <trkpt lat="40.0879260" lon="-4.7100240">
        <ele>520.6</ele>
        <time>2020-10-04T08:19:56Z</time>
      </trkpt>
      <trkpt lat="40.0879520" lon="-4.7099940">
        <ele>521.2</ele>
        <time>2020-10-04T08:19:58Z</time>
      </trkpt>
      <trkpt lat="40.0879580" lon="-4.7099840">
        <ele>521.3</ele>
        <time>2020-10-04T08:19:59Z</time>
      </trkpt>
      <trkpt lat="40.0879760" lon="-4.7099530">
        <ele>521.8</ele>
        <time>2020-10-04T08:20:01Z</time>
      </trkpt>
      <trkpt lat="40.0879850" lon="-4.7099390">
        <ele>522.0</ele>
        <time>2020-10-04T08:20:02Z</time>
      </trkpt>
      <trkpt lat="40.0880010" lon="-4.7099200">
        <ele>522.4</ele>
        <time>2020-10-04T08:20:04Z</time>
      </trkpt>
      <trkpt lat="40.0880090" lon="-4.7099100">
        <ele>522.6</ele>
        <time>2020-10-04T08:20:05Z</time>
      </trkpt>
      <trkpt lat="40.0880210" lon="-4.7098980">
        <ele>522.8</ele>
        <time>2020-10-04T08:20:06Z</time>
      </trkpt>
      <trkpt lat="40.0880270" lon="-4.7098910">
        <ele>522.9</ele>
        <time>2020-10-04T08:20:07Z</time>
      </trkpt>
      <trkpt lat="40.0880390" lon="-4.7098800">
        <ele>523.2</ele>
        <time>2020-10-04T08:20:08Z</time>
      </trkpt>
      <trkpt lat="40.0880480" lon="-4.7098730">
        <ele>523.3</ele>
        <time>2020-10-04T08:20:09Z</time>
      </trkpt>
      <trkpt lat="40.0880700" lon="-4.7098560">
        <ele>523.8</ele>
        <time>2020-10-04T08:20:11Z</time>
      </trkpt>
      <trkpt lat="40.0880780" lon="-4.7098460">
        <ele>523.9</ele>
        <time>2020-10-04T08:20:12Z</time>
      </trkpt>
      <trkpt lat="40.0880850" lon="-4.7098360">
        <ele>524.1</ele>
        <time>2020-10-04T08:20:13Z</time>
      </trkpt>
      <trkpt lat="40.0880920" lon="-4.7098260">
        <ele>524.3</ele>
        <time>2020-10-04T08:20:14Z</time>
      </trkpt>
      <trkpt lat="40.0881160" lon="-4.7097970">
        <ele>524.8</ele>
        <time>2020-10-04T08:20:16Z</time>
      </trkpt>
      <trkpt lat="40.0881200" lon="-4.7097900">
        <ele>524.9</ele>
        <time>2020-10-04T08:20:17Z</time>
      </trkpt>
      <trkpt lat="40.0881360" lon="-4.7097710">
        <ele>525.3</ele>
        <time>2020-10-04T08:20:19Z</time>
      </trkpt>
      <trkpt lat="40.0881430" lon="-4.7097590">
        <ele>525.5</ele>
        <time>2020-10-04T08:20:20Z</time>
      </trkpt>
      <trkpt lat="40.0881510" lon="-4.7097480">
        <ele>525.7</ele>
        <time>2020-10-04T08:20:21Z</time>
      </trkpt>
      <trkpt lat="40.0881580" lon="-4.7097370">
        <ele>525.8</ele>
        <time>2020-10-04T08:20:22Z</time>
      </trkpt>
      <trkpt lat="40.0881710" lon="-4.7097240">
        <ele>526.1</ele>
        <time>2020-10-04T08:20:23Z</time>
      </trkpt>
      <trkpt lat="40.0881830" lon="-4.7097090">
        <ele>526.4</ele>
        <time>2020-10-04T08:20:24Z</time>
      </trkpt>
      <trkpt lat="40.0881950" lon="-4.7096930">
        <ele>526.7</ele>
        <time>2020-10-04T08:20:25Z</time>
      </trkpt>
      <trkpt lat="40.0882170" lon="-4.7096410">
        <ele>527.4</ele>
        <time>2020-10-04T08:20:27Z</time>
      </trkpt>
      <trkpt lat="40.0882200" lon="-4.7096220">
        <ele>527.6</ele>
        <time>2020-10-04T08:20:28Z</time>
      </trkpt>
      <trkpt lat="40.0882230" lon="-4.7096030">
        <ele>527.9</ele>
        <time>2020-10-04T08:20:29Z</time>
      </trkpt>
      <trkpt lat="40.0882270" lon="-4.7095420">
        <ele>528.7</ele>
        <time>2020-10-04T08:20:31Z</time>
      </trkpt>
      <trkpt lat="40.0882400" lon="-4.7094960">
        <ele>529.4</ele>
        <time>2020-10-04T08:20:32Z</time>
      </trkpt>
      <trkpt lat="40.0882460" lon="-4.7094810">
        <ele>529.6</ele>
        <time>2020-10-04T08:20:33Z</time>
      </trkpt>
      <trkpt lat="40.0882630" lon="-4.7094810">
        <ele>530.0</ele>
        <time>2020-10-04T08:20:35Z</time>
      </trkpt>
      <trkpt lat="40.0882880" lon="-4.7094770">
        <ele>530.4</ele>
        <time>2020-10-04T08:20:37Z</time>
      </trkpt>
      <trkpt lat="40.0883120" lon="-4.7094590">
        <ele>530.9</ele>
        <time>2020-10-04T08:20:38Z</time>
      </trkpt>
      <trkpt lat="40.0883200" lon="-4.7094510">
        <ele>531.1</ele>
        <time>2020-10-04T08:20:39Z</time>
      </trkpt>
      <trkpt lat="40.0883490" lon="-4.7094270">
        <ele>531.7</ele>
        <time>2020-10-04T08:20:41Z</time>
      </trkpt>
      <trkpt lat="40.0883550" lon="-4.7094190">
        <ele>531.9</ele>
        <time>2020-10-04T08:20:42Z</time>
      </trkpt>
      <trkpt lat="40.0883710" lon="-4.7093940">
        <ele>532.2</ele>
        <time>2020-10-04T08:20:44Z</time>
      </trkpt>
      <trkpt lat="40.0883770" lon="-4.7093820">
        <ele>532.4</ele>
        <time>2020-10-04T08:20:46Z</time>
      </trkpt>
      <trkpt lat="40.0883830" lon="-4.7093700">
        <ele>532.6</ele>
        <time>2020-10-04T08:20:47Z</time>
      </trkpt>
      <trkpt lat="40.0883890" lon="-4.7093580">
        <ele>532.7</ele>
        <time>2020-10-04T08:20:48Z</time>
      </trkpt>
      <trkpt lat="40.0883940" lon="-4.7093450">
        <ele>532.9</ele>
        <time>2020-10-04T08:20:50Z</time>
      </trkpt>
      <trkpt lat="40.0884000" lon="-4.7093330">
        <ele>533.0</ele>
        <time>2020-10-04T08:20:51Z</time>
      </trkpt>
      <trkpt lat="40.0884060" lon="-4.7093210">
        <ele>533.2</ele>
        <time>2020-10-04T08:20:52Z</time>
      </trkpt>
      <trkpt lat="40.0884120" lon="-4.7093090">
        <ele>533.3</ele>
        <time>2020-10-04T08:20:53Z</time>
      </trkpt>
      <trkpt lat="40.0884180" lon="-4.7092850">
        <ele>533.6</ele>
        <time>2020-10-04T08:20:55Z</time>
      </trkpt>
      <trkpt lat="40.0884230" lon="-4.7092660">
        <ele>533.7</ele>
        <time>2020-10-04T08:20:56Z</time>
      </trkpt>
      <trkpt lat="40.0884300" lon="-4.7092500">
        <ele>533.9</ele>
        <time>2020-10-04T08:20:57Z</time>
      </trkpt>
      <trkpt lat="40.0884360" lon="-4.7092320">
        <ele>534.0</ele>
        <time>2020-10-04T08:20:59Z</time>
      </trkpt>
      <trkpt lat="40.0884480" lon="-4.7092000">
        <ele>534.3</ele>
        <time>2020-10-04T08:21:00Z</time>
      </trkpt>
      <trkpt lat="40.0884560" lon="-4.7091800">
        <ele>534.5</ele>
        <time>2020-10-04T08:21:01Z</time>
      </trkpt>
      <trkpt lat="40.0884660" lon="-4.7091640">
        <ele>534.7</ele>
        <time>2020-10-04T08:21:02Z</time>
      </trkpt>
      <trkpt lat="40.0884800" lon="-4.7091340">
        <ele>534.9</ele>
        <time>2020-10-04T08:21:04Z</time>
      </trkpt>
      <trkpt lat="40.0884870" lon="-4.7091190">
        <ele>535.0</ele>
        <time>2020-10-04T08:21:05Z</time>
      </trkpt>
      <trkpt lat="40.0884920" lon="-4.7091100">
        <ele>535.1</ele>
        <time>2020-10-04T08:21:06Z</time>
      </trkpt>
      <trkpt lat="40.0885090" lon="-4.7090970">
        <ele>535.3</ele>
        <time>2020-10-04T08:21:07Z</time>
      </trkpt>
      <trkpt lat="40.0885220" lon="-4.7090880">
        <ele>535.4</ele>
        <time>2020-10-04T08:21:08Z</time>
      </trkpt>
      <trkpt lat="40.0885460" lon="-4.7090690">
        <ele>535.6</ele>
        <time>2020-10-04T08:21:10Z</time>
      </trkpt>
      <trkpt lat="40.0885620" lon="-4.7090600">
        <ele>535.8</ele>
        <time>2020-10-04T08:21:12Z</time>
      </trkpt>
      <trkpt lat="40.0885740" lon="-4.7090500">
        <ele>535.9</ele>
        <time>2020-10-04T08:21:13Z</time>
      </trkpt>
      <trkpt lat="40.0886040" lon="-4.7090320">
        <ele>536.1</ele>
        <time>2020-10-04T08:21:14Z</time>
      </trkpt>
      <trkpt lat="40.0886410" lon="-4.7090140">
        <ele>536.4</ele>
        <time>2020-10-04T08:21:15Z</time>
      </trkpt>
      <trkpt lat="40.0886780" lon="-4.7090040">
        <ele>536.7</ele>
        <time>2020-10-04T08:21:17Z</time>
      </trkpt>
      <trkpt lat="40.0887070" lon="-4.7089970">
        <ele>536.9</ele>
        <time>2020-10-04T08:21:18Z</time>
      </trkpt>
      <trkpt lat="40.0887450" lon="-4.7089870">
        <ele>537.3</ele>
        <time>2020-10-04T08:21:19Z</time>
      </trkpt>
      <trkpt lat="40.0887900" lon="-4.7089690">
        <ele>537.7</ele>
        <time>2020-10-04T08:21:21Z</time>
      </trkpt>
      <trkpt lat="40.0888040" lon="-4.7089600">
        <ele>537.8</ele>
        <time>2020-10-04T08:21:22Z</time>
      </trkpt>
      <trkpt lat="40.0888190" lon="-4.7089510">
        <ele>538.0</ele>
        <time>2020-10-04T08:21:23Z</time>
      </trkpt>
      <trkpt lat="40.0888360" lon="-4.7089400">
        <ele>538.1</ele>
        <time>2020-10-04T08:21:24Z</time>
      </trkpt>
      <trkpt lat="40.0888540" lon="-4.7089230">
        <ele>538.4</ele>
        <time>2020-10-04T08:21:26Z</time>
      </trkpt>
      <trkpt lat="40.0888770" lon="-4.7089080">
        <ele>538.6</ele>
        <time>2020-10-04T08:21:27Z</time>
      </trkpt>
      <trkpt lat="40.0888900" lon="-4.7088870">
        <ele>538.9</ele>
        <time>2020-10-04T08:21:29Z</time>
      </trkpt>
      <trkpt lat="40.0889020" lon="-4.7088620">
        <ele>539.1</ele>
        <time>2020-10-04T08:21:30Z</time>
      </trkpt>
      <trkpt lat="40.0889070" lon="-4.7088490">
        <ele>539.3</ele>
        <time>2020-10-04T08:21:31Z</time>
      </trkpt>
      <trkpt lat="40.0889130" lon="-4.7088370">
        <ele>539.4</ele>
        <time>2020-10-04T08:21:32Z</time>
      </trkpt>
      <trkpt lat="40.0889320" lon="-4.7088050">
        <ele>539.8</ele>
        <time>2020-10-04T08:21:33Z</time>
      </trkpt>
      <trkpt lat="40.0889390" lon="-4.7087950">
        <ele>539.9</ele>
        <time>2020-10-04T08:21:34Z</time>
      </trkpt>
      <trkpt lat="40.0889640" lon="-4.7087650">
        <ele>540.3</ele>
        <time>2020-10-04T08:21:35Z</time>
      </trkpt>
      <trkpt lat="40.0889730" lon="-4.7087560">
        <ele>540.5</ele>
        <time>2020-10-04T08:21:36Z</time>
      </trkpt>
      <trkpt lat="40.0890000" lon="-4.7087250">
        <ele>541.0</ele>
        <time>2020-10-04T08:21:38Z</time>
      </trkpt>
      <trkpt lat="40.0890080" lon="-4.7087160">
        <ele>541.1</ele>
        <time>2020-10-04T08:21:39Z</time>
      </trkpt>
      <trkpt lat="40.0890160" lon="-4.7087070">
        <ele>541.3</ele>
        <time>2020-10-04T08:21:40Z</time>
      </trkpt>
      <trkpt lat="40.0890230" lon="-4.7086990">
        <ele>541.4</ele>
        <time>2020-10-04T08:21:42Z</time>
      </trkpt>
      <trkpt lat="40.0890300" lon="-4.7086890">
        <ele>541.5</ele>
        <time>2020-10-04T08:21:43Z</time>
      </trkpt>
      <trkpt lat="40.0890400" lon="-4.7086780">
        <ele>541.7</ele>
        <time>2020-10-04T08:21:44Z</time>
      </trkpt>
      <trkpt lat="40.0890630" lon="-4.7086660">
        <ele>542.0</ele>
        <time>2020-10-04T08:21:46Z</time>
      </trkpt>
      <trkpt lat="40.0890740" lon="-4.7086590">
        <ele>542.2</ele>
        <time>2020-10-04T08:21:47Z</time>
      </trkpt>
      <trkpt lat="40.0890910" lon="-4.7086480">
        <ele>542.4</ele>
        <time>2020-10-04T08:21:48Z</time>
      </trkpt>
      <trkpt lat="40.0891100" lon="-4.7086420">
        <ele>542.7</ele>
        <time>2020-10-04T08:21:50Z</time>
      </trkpt>
      <trkpt lat="40.0891260" lon="-4.7086370">
        <ele>542.9</ele>
        <time>2020-10-04T08:21:52Z</time>
      </trkpt>
      <trkpt lat="40.0891290" lon="-4.7086310">
        <ele>542.9</ele>
        <time>2020-10-04T08:21:54Z</time>
      </trkpt>
      <trkpt lat="40.0891310" lon="-4.7086290">
        <ele>543.0</ele>
        <time>2020-10-04T08:21:55Z</time>
      </trkpt>
      <trkpt lat="40.0891360" lon="-4.7086240">
        <ele>543.0</ele>
        <time>2020-10-04T08:21:57Z</time>
      </trkpt>
      <trkpt lat="40.0891470" lon="-4.7086070">
        <ele>543.2</ele>
        <time>2020-10-04T08:21:58Z</time>
      </trkpt>
      <trkpt lat="40.0891570" lon="-4.7085920">
        <ele>543.4</ele>
        <time>2020-10-04T08:22:00Z</time>
      </trkpt>
      <trkpt lat="40.0891610" lon="-4.7085830">
        <ele>543.5</ele>
        <time>2020-10-04T08:22:01Z</time>
      </trkpt>
      <trkpt lat="40.0891730" lon="-4.7085670">
        <ele>543.7</ele>
        <time>2020-10-04T08:22:03Z</time>
      </trkpt>
      <trkpt lat="40.0891760" lon="-4.7085640">
        <ele>543.7</ele>
        <time>2020-10-04T08:22:04Z</time>
      </trkpt>
      <trkpt lat="40.0891780" lon="-4.7085600">
        <ele>543.7</ele>
        <time>2020-10-04T08:22:06Z</time>
      </trkpt>
      <trkpt lat="40.0891830" lon="-4.7085560">
        <ele>543.8</ele>
        <time>2020-10-04T08:22:09Z</time>
      </trkpt>
      <trkpt lat="40.0891830" lon="-4.7085560">
        <ele>543.8</ele>
        <time>2020-10-04T08:22:10Z</time>
      </trkpt>
      <trkpt lat="40.0891830" lon="-4.7085550">
        <ele>543.8</ele>
        <time>2020-10-04T08:22:11Z</time>
      </trkpt>
      <trkpt lat="40.0891820" lon="-4.7085510">
        <ele>543.8</ele>
        <time>2020-10-04T08:22:12Z</time>
      </trkpt>
      <trkpt lat="40.0891890" lon="-4.7085410">
        <ele>543.9</ele>
        <time>2020-10-04T08:22:13Z</time>
      </trkpt>
      <trkpt lat="40.0891970" lon="-4.7085300">
        <ele>544.1</ele>
        <time>2020-10-04T08:22:15Z</time>
      </trkpt>
      <trkpt lat="40.0892040" lon="-4.7085100">
        <ele>544.2</ele>
        <time>2020-10-04T08:22:16Z</time>
      </trkpt>
      <trkpt lat="40.0892090" lon="-4.7084950">
        <ele>544.4</ele>
        <time>2020-10-04T08:22:17Z</time>
      </trkpt>
      <trkpt lat="40.0892230" lon="-4.7084550">
        <ele>544.7</ele>
        <time>2020-10-04T08:22:18Z</time>
      </trkpt>
      <trkpt lat="40.0892270" lon="-4.7084420">
        <ele>544.8</ele>
        <time>2020-10-04T08:22:19Z</time>
      </trkpt>
      <trkpt lat="40.0892360" lon="-4.7084240">
        <ele>545.0</ele>
        <time>2020-10-04T08:22:20Z</time>
      </trkpt>
      <trkpt lat="40.0892480" lon="-4.7084040">
        <ele>545.2</ele>
        <time>2020-10-04T08:22:22Z</time>
      </trkpt>
      <trkpt lat="40.0892680" lon="-4.7083730">
        <ele>545.6</ele>
        <time>2020-10-04T08:22:23Z</time>
      </trkpt>
      <trkpt lat="40.0892750" lon="-4.7083510">
        <ele>545.9</ele>
        <time>2020-10-04T08:22:24Z</time>
      </trkpt>
      <trkpt lat="40.0892800" lon="-4.7083240">
        <ele>546.2</ele>
        <time>2020-10-04T08:22:26Z</time>
      </trkpt>
      <trkpt lat="40.0892800" lon="-4.7082890">
        <ele>546.5</ele>
        <time>2020-10-04T08:22:27Z</time>
      </trkpt>
      <trkpt lat="40.0892920" lon="-4.7082310">
        <ele>547.3</ele>
        <time>2020-10-04T08:22:28Z</time>
      </trkpt>
      <trkpt lat="40.0892960" lon="-4.7082140">
        <ele>547.5</ele>
        <time>2020-10-04T08:22:30Z</time>
      </trkpt>
      <trkpt lat="40.0893030" lon="-4.7081910">
        <ele>547.8</ele>
        <time>2020-10-04T08:22:31Z</time>
      </trkpt>
      <trkpt lat="40.0893140" lon="-4.7081660">
        <ele>548.2</ele>
        <time>2020-10-04T08:22:32Z</time>
      </trkpt>
      <trkpt lat="40.0893300" lon="-4.7081450">
        <ele>548.7</ele>
        <time>2020-10-04T08:22:34Z</time>
      </trkpt>
      <trkpt lat="40.0893310" lon="-4.7081370">
        <ele>548.8</ele>
        <time>2020-10-04T08:22:35Z</time>
      </trkpt>
      <trkpt lat="40.0893350" lon="-4.7081250">
        <ele>549.0</ele>
        <time>2020-10-04T08:22:36Z</time>
      </trkpt>
      <trkpt lat="40.0893500" lon="-4.7081130">
        <ele>549.3</ele>
        <time>2020-10-04T08:22:38Z</time>
      </trkpt>
      <trkpt lat="40.0893550" lon="-4.7081040">
        <ele>549.5</ele>
        <time>2020-10-04T08:22:40Z</time>
      </trkpt>
      <trkpt lat="40.0893590" lon="-4.7080960">
        <ele>549.7</ele>
        <time>2020-10-04T08:22:41Z</time>
      </trkpt>
      <trkpt lat="40.0893720" lon="-4.7080930">
        <ele>550.0</ele>
        <time>2020-10-04T08:22:43Z</time>
      </trkpt>
      <trkpt lat="40.0893780" lon="-4.7080960">
        <ele>550.1</ele>
        <time>2020-10-04T08:22:45Z</time>
      </trkpt>
      <trkpt lat="40.0893830" lon="-4.7081010">
        <ele>550.3</ele>
        <time>2020-10-04T08:22:47Z</time>
      </trkpt>
      <trkpt lat="40.0893830" lon="-4.7081040">
        <ele>550.3</ele>
        <time>2020-10-04T08:22:48Z</time>
      </trkpt>
      <trkpt lat="40.0893860" lon="-4.7081070">
        <ele>550.4</ele>
        <time>2020-10-04T08:22:50Z</time>
      </trkpt>
      <trkpt lat="40.0893870" lon="-4.7081050">
        <ele>550.5</ele>
        <time>2020-10-04T08:22:51Z</time>
      </trkpt>
      <trkpt lat="40.0893900" lon="-4.7081010">
        <ele>550.6</ele>
        <time>2020-10-04T08:22:52Z</time>
      </trkpt>
      <trkpt lat="40.0893950" lon="-4.7080970">
        <ele>550.7</ele>
        <time>2020-10-04T08:22:54Z</time>
      </trkpt>
      <trkpt lat="40.0893970" lon="-4.7080910">
        <ele>550.8</ele>
        <time>2020-10-04T08:22:55Z</time>
      </trkpt>
      <trkpt lat="40.0893980" lon="-4.7080850">
        <ele>551.0</ele>
        <time>2020-10-04T08:22:56Z</time>
      </trkpt>
      <trkpt lat="40.0894010" lon="-4.7080890">
        <ele>551.1</ele>
        <time>2020-10-04T08:22:57Z</time>
      </trkpt>
      <trkpt lat="40.0894030" lon="-4.7080810">
        <ele>551.2</ele>
        <time>2020-10-04T08:22:59Z</time>
      </trkpt>
      <trkpt lat="40.0894050" lon="-4.7080750">
        <ele>551.3</ele>
        <time>2020-10-04T08:23:01Z</time>
      </trkpt>
      <trkpt lat="40.0894060" lon="-4.7080730">
        <ele>551.4</ele>
        <time>2020-10-04T08:23:02Z</time>
      </trkpt>
      <trkpt lat="40.0894090" lon="-4.7080670">
        <ele>551.5</ele>
        <time>2020-10-04T08:23:03Z</time>
      </trkpt>
      <trkpt lat="40.0894100" lon="-4.7080660">
        <ele>551.6</ele>
        <time>2020-10-04T08:23:04Z</time>
      </trkpt>
      <trkpt lat="40.0894130" lon="-4.7080640">
        <ele>551.6</ele>
        <time>2020-10-04T08:23:06Z</time>
      </trkpt>
      <trkpt lat="40.0894160" lon="-4.7080600">
        <ele>551.7</ele>
        <time>2020-10-04T08:23:09Z</time>
      </trkpt>
      <trkpt lat="40.0894160" lon="-4.7080500">
        <ele>551.9</ele>
        <time>2020-10-04T08:23:11Z</time>
      </trkpt>
      <trkpt lat="40.0894170" lon="-4.7080370">
        <ele>552.2</ele>
        <time>2020-10-04T08:23:13Z</time>
      </trkpt>
      <trkpt lat="40.0894170" lon="-4.7080290">
        <ele>552.4</ele>
        <time>2020-10-04T08:23:15Z</time>
      </trkpt>
      <trkpt lat="40.0894170" lon="-4.7080250">
        <ele>552.4</ele>
        <time>2020-10-04T08:23:16Z</time>
      </trkpt>
      <trkpt lat="40.0894480" lon="-4.7080180">
        <ele>553.2</ele>
        <time>2020-10-04T08:23:26Z</time>
      </trkpt>
      <trkpt lat="40.0894570" lon="-4.7080140">
        <ele>553.5</ele>
        <time>2020-10-04T08:23:27Z</time>
      </trkpt>
      <trkpt lat="40.0894840" lon="-4.7079970">
        <ele>554.3</ele>
        <time>2020-10-04T08:23:29Z</time>
      </trkpt>
      <trkpt lat="40.0895000" lon="-4.7079780">
        <ele>554.8</ele>
        <time>2020-10-04T08:23:30Z</time>
      </trkpt>
      <trkpt lat="40.0895170" lon="-4.7079580">
        <ele>555.4</ele>
        <time>2020-10-04T08:23:32Z</time>
      </trkpt>
      <trkpt lat="40.0895510" lon="-4.7079180">
        <ele>556.5</ele>
        <time>2020-10-04T08:23:33Z</time>
      </trkpt>
      <trkpt lat="40.0895650" lon="-4.7079010">
        <ele>556.9</ele>
        <time>2020-10-04T08:23:34Z</time>
      </trkpt>
      <trkpt lat="40.0895850" lon="-4.7078710">
        <ele>557.6</ele>
        <time>2020-10-04T08:23:36Z</time>
      </trkpt>
      <trkpt lat="40.0895930" lon="-4.7078610">
        <ele>557.9</ele>
        <time>2020-10-04T08:23:37Z</time>
      </trkpt>
      <trkpt lat="40.0896200" lon="-4.7078290">
        <ele>558.7</ele>
        <time>2020-10-04T08:23:39Z</time>
      </trkpt>
      <trkpt lat="40.0896250" lon="-4.7078180">
        <ele>558.9</ele>
        <time>2020-10-04T08:23:40Z</time>
      </trkpt>
      <trkpt lat="40.0896470" lon="-4.7077950">
        <ele>559.5</ele>
        <time>2020-10-04T08:23:42Z</time>
      </trkpt>
      <trkpt lat="40.0896570" lon="-4.7077860">
        <ele>559.7</ele>
        <time>2020-10-04T08:23:43Z</time>
      </trkpt>
      <trkpt lat="40.0896620" lon="-4.7077760">
        <ele>559.9</ele>
        <time>2020-10-04T08:23:45Z</time>
      </trkpt>
      <trkpt lat="40.0896750" lon="-4.7077660">
        <ele>560.2</ele>
        <time>2020-10-04T08:23:46Z</time>
      </trkpt>
      <trkpt lat="40.0896830" lon="-4.7077630">
        <ele>560.3</ele>
        <time>2020-10-04T08:23:48Z</time>
      </trkpt>
      <trkpt lat="40.0896940" lon="-4.7077590">
        <ele>560.6</ele>
        <time>2020-10-04T08:23:49Z</time>
      </trkpt>
      <trkpt lat="40.0896990" lon="-4.7077550">
        <ele>560.7</ele>
        <time>2020-10-04T08:23:50Z</time>
      </trkpt>
      <trkpt lat="40.0897060" lon="-4.7077470">
        <ele>560.8</ele>
        <time>2020-10-04T08:23:51Z</time>
      </trkpt>
      <trkpt lat="40.0897100" lon="-4.7077380">
        <ele>561.0</ele>
        <time>2020-10-04T08:23:53Z</time>
      </trkpt>
      <trkpt lat="40.0897190" lon="-4.7077270">
        <ele>561.2</ele>
        <time>2020-10-04T08:23:54Z</time>
      </trkpt>
      <trkpt lat="40.0897290" lon="-4.7077190">
        <ele>561.4</ele>
        <time>2020-10-04T08:23:56Z</time>
      </trkpt>
      <trkpt lat="40.0897350" lon="-4.7077120">
        <ele>561.5</ele>
        <time>2020-10-04T08:23:57Z</time>
      </trkpt>
      <trkpt lat="40.0897440" lon="-4.7077040">
        <ele>561.7</ele>
        <time>2020-10-04T08:23:58Z</time>
      </trkpt>
      <trkpt lat="40.0897600" lon="-4.7076950">
        <ele>561.9</ele>
        <time>2020-10-04T08:23:59Z</time>
      </trkpt>
      <trkpt lat="40.0897680" lon="-4.7076910">
        <ele>562.1</ele>
        <time>2020-10-04T08:24:00Z</time>
      </trkpt>
      <trkpt lat="40.0897750" lon="-4.7076790">
        <ele>562.2</ele>
        <time>2020-10-04T08:24:02Z</time>
      </trkpt>
      <trkpt lat="40.0897810" lon="-4.7076680">
        <ele>562.4</ele>
        <time>2020-10-04T08:24:03Z</time>
      </trkpt>
      <trkpt lat="40.0897930" lon="-4.7076490">
        <ele>562.6</ele>
        <time>2020-10-04T08:24:04Z</time>
      </trkpt>
      <trkpt lat="40.0898000" lon="-4.7076390">
        <ele>562.7</ele>
        <time>2020-10-04T08:24:06Z</time>
      </trkpt>
      <trkpt lat="40.0898140" lon="-4.7076220">
        <ele>562.9</ele>
        <time>2020-10-04T08:24:08Z</time>
      </trkpt>
      <trkpt lat="40.0898190" lon="-4.7076050">
        <ele>563.1</ele>
        <time>2020-10-04T08:24:09Z</time>
      </trkpt>
      <trkpt lat="40.0898200" lon="-4.7075990">
        <ele>563.1</ele>
        <time>2020-10-04T08:24:11Z</time>
      </trkpt>
      <trkpt lat="40.0898220" lon="-4.7076010">
        <ele>563.2</ele>
        <time>2020-10-04T08:24:12Z</time>
      </trkpt>
      <trkpt lat="40.0898360" lon="-4.7076010">
        <ele>563.3</ele>
        <time>2020-10-04T08:24:14Z</time>
      </trkpt>
      <trkpt lat="40.0898420" lon="-4.7076020">
        <ele>563.4</ele>
        <time>2020-10-04T08:24:15Z</time>
      </trkpt>
      <trkpt lat="40.0898530" lon="-4.7076010">
        <ele>563.5</ele>
        <time>2020-10-04T08:24:16Z</time>
      </trkpt>
      <trkpt lat="40.0898780" lon="-4.7075740">
        <ele>563.7</ele>
        <time>2020-10-04T08:24:18Z</time>
      </trkpt>
      <trkpt lat="40.0898860" lon="-4.7075620">
        <ele>563.8</ele>
        <time>2020-10-04T08:24:19Z</time>
      </trkpt>
      <trkpt lat="40.0898970" lon="-4.7075540">
        <ele>563.9</ele>
        <time>2020-10-04T08:24:21Z</time>
      </trkpt>
      <trkpt lat="40.0899120" lon="-4.7075340">
        <ele>564.1</ele>
        <time>2020-10-04T08:24:22Z</time>
      </trkpt>
      <trkpt lat="40.0899410" lon="-4.7075020">
        <ele>564.3</ele>
        <time>2020-10-04T08:24:24Z</time>
      </trkpt>
      <trkpt lat="40.0899590" lon="-4.7074670">
        <ele>564.5</ele>
        <time>2020-10-04T08:24:25Z</time>
      </trkpt>
      <trkpt lat="40.0899800" lon="-4.7074160">
        <ele>564.7</ele>
        <time>2020-10-04T08:24:27Z</time>
      </trkpt>
      <trkpt lat="40.0899980" lon="-4.7073710">
        <ele>564.9</ele>
        <time>2020-10-04T08:24:28Z</time>
      </trkpt>
      <trkpt lat="40.0900040" lon="-4.7073530">
        <ele>565.0</ele>
        <time>2020-10-04T08:24:29Z</time>
      </trkpt>
      <trkpt lat="40.0900150" lon="-4.7073280">
        <ele>565.1</ele>
        <time>2020-10-04T08:24:30Z</time>
      </trkpt>
      <trkpt lat="40.0900310" lon="-4.7073000">
        <ele>567.3</ele>
        <time>2020-10-04T08:24:32Z</time>
      </trkpt>
      <trkpt lat="40.0900530" lon="-4.7072700">
        <ele>567.3</ele>
        <time>2020-10-04T08:24:33Z</time>
      </trkpt>
      <trkpt lat="40.0900600" lon="-4.7072610">
        <ele>567.3</ele>
        <time>2020-10-04T08:24:34Z</time>
      </trkpt>
      <trkpt lat="40.0900850" lon="-4.7072330">
        <ele>567.3</ele>
        <time>2020-10-04T08:24:36Z</time>
      </trkpt>
      <trkpt lat="40.0901000" lon="-4.7072030">
        <ele>567.3</ele>
        <time>2020-10-04T08:24:37Z</time>
      </trkpt>
      <trkpt lat="40.0901080" lon="-4.7071820">
        <ele>568.4</ele>
        <time>2020-10-04T08:24:38Z</time>
      </trkpt>
      <trkpt lat="40.0901140" lon="-4.7071870">
        <ele>568.4</ele>
        <time>2020-10-04T08:24:40Z</time>
      </trkpt>
      <trkpt lat="40.0901190" lon="-4.7071920">
        <ele>568.4</ele>
        <time>2020-10-04T08:24:42Z</time>
      </trkpt>
      <trkpt lat="40.0901250" lon="-4.7071970">
        <ele>568.5</ele>
        <time>2020-10-04T08:24:43Z</time>
      </trkpt>
      <trkpt lat="40.0901300" lon="-4.7072020">
        <ele>568.5</ele>
        <time>2020-10-04T08:24:44Z</time>
      </trkpt>
      <trkpt lat="40.0901360" lon="-4.7072070">
        <ele>568.5</ele>
        <time>2020-10-04T08:24:46Z</time>
      </trkpt>
      <trkpt lat="40.0901410" lon="-4.7072120">
        <ele>568.6</ele>
        <time>2020-10-04T08:24:47Z</time>
      </trkpt>
      <trkpt lat="40.0901470" lon="-4.7072160">
        <ele>568.6</ele>
        <time>2020-10-04T08:24:48Z</time>
      </trkpt>
      <trkpt lat="40.0901520" lon="-4.7072210">
        <ele>568.6</ele>
        <time>2020-10-04T08:24:49Z</time>
      </trkpt>
      <trkpt lat="40.0901580" lon="-4.7072260">
        <ele>568.6</ele>
        <time>2020-10-04T08:24:51Z</time>
      </trkpt>
      <trkpt lat="40.0901630" lon="-4.7072310">
        <ele>568.7</ele>
        <time>2020-10-04T08:24:53Z</time>
      </trkpt>
      <trkpt lat="40.0901690" lon="-4.7072360">
        <ele>568.7</ele>
        <time>2020-10-04T08:25:01Z</time>
      </trkpt>
      <trkpt lat="40.0901740" lon="-4.7072410">
        <ele>568.7</ele>
        <time>2020-10-04T08:25:02Z</time>
      </trkpt>
      <trkpt lat="40.0901800" lon="-4.7072460">
        <ele>568.8</ele>
        <time>2020-10-04T08:25:03Z</time>
      </trkpt>
      <trkpt lat="40.0901850" lon="-4.7072510">
        <ele>568.8</ele>
        <time>2020-10-04T08:25:04Z</time>
      </trkpt>
      <trkpt lat="40.0902030" lon="-4.7072680">
        <ele>568.9</ele>
        <time>2020-10-04T08:25:06Z</time>
      </trkpt>
      <trkpt lat="40.0902120" lon="-4.7072740">
        <ele>569.0</ele>
        <time>2020-10-04T08:25:07Z</time>
      </trkpt>
      <trkpt lat="40.0902200" lon="-4.7072810">
        <ele>569.1</ele>
        <time>2020-10-04T08:25:08Z</time>
      </trkpt>
      <trkpt lat="40.0902610" lon="-4.7073270">
        <ele>569.4</ele>
        <time>2020-10-04T08:25:10Z</time>
      </trkpt>
      <trkpt lat="40.0902780" lon="-4.7073440">
        <ele>569.5</ele>
        <time>2020-10-04T08:25:11Z</time>
      </trkpt>
      <trkpt lat="40.0902940" lon="-4.7073600">
        <ele>569.7</ele>
        <time>2020-10-04T08:25:12Z</time>
      </trkpt>
      <trkpt lat="40.0903410" lon="-4.7073920">
        <ele>570.1</ele>
        <time>2020-10-04T08:25:14Z</time>
      </trkpt>
      <trkpt lat="40.0903720" lon="-4.7074110">
        <ele>570.3</ele>
        <time>2020-10-04T08:25:15Z</time>
      </trkpt>
      <trkpt lat="40.0903970" lon="-4.7074270">
        <ele>570.6</ele>
        <time>2020-10-04T08:25:16Z</time>
      </trkpt>
      <trkpt lat="40.0904230" lon="-4.7074490">
        <ele>570.9</ele>
        <time>2020-10-04T08:25:17Z</time>
      </trkpt>
      <trkpt lat="40.0904420" lon="-4.7074610">
        <ele>571.1</ele>
        <time>2020-10-04T08:25:18Z</time>
      </trkpt>
      <trkpt lat="40.0904660" lon="-4.7074700">
        <ele>571.3</ele>
        <time>2020-10-04T08:25:20Z</time>
      </trkpt>
      <trkpt lat="40.0904950" lon="-4.7074860">
        <ele>571.6</ele>
        <time>2020-10-04T08:25:21Z</time>
      </trkpt>
      <trkpt lat="40.0905040" lon="-4.7074910">
        <ele>571.7</ele>
        <time>2020-10-04T08:25:22Z</time>
      </trkpt>
      <trkpt lat="40.0905410" lon="-4.7075000">
        <ele>572.1</ele>
        <time>2020-10-04T08:25:23Z</time>
      </trkpt>
      <trkpt lat="40.0905530" lon="-4.7075040">
        <ele>572.2</ele>
        <time>2020-10-04T08:25:24Z</time>
      </trkpt>
      <trkpt lat="40.0905790" lon="-4.7075230">
        <ele>572.5</ele>
        <time>2020-10-04T08:25:26Z</time>
      </trkpt>
      <trkpt lat="40.0905860" lon="-4.7075300">
        <ele>572.6</ele>
        <time>2020-10-04T08:25:27Z</time>
      </trkpt>
      <trkpt lat="40.0906230" lon="-4.7075550">
        <ele>573.0</ele>
        <time>2020-10-04T08:25:29Z</time>
      </trkpt>
      <trkpt lat="40.0906330" lon="-4.7075620">
        <ele>573.1</ele>
        <time>2020-10-04T08:25:30Z</time>
      </trkpt>
      <trkpt lat="40.0906440" lon="-4.7075700">
        <ele>573.2</ele>
        <time>2020-10-04T08:25:31Z</time>
      </trkpt>
      <trkpt lat="40.0906670" lon="-4.7075980">
        <ele>573.5</ele>
        <time>2020-10-04T08:25:32Z</time>
      </trkpt>
      <trkpt lat="40.0906960" lon="-4.7076340">
        <ele>573.9</ele>
        <time>2020-10-04T08:25:34Z</time>
      </trkpt>
      <trkpt lat="40.0907080" lon="-4.7076480">
        <ele>574.1</ele>
        <time>2020-10-04T08:25:35Z</time>
      </trkpt>
      <trkpt lat="40.0907330" lon="-4.7076670">
        <ele>574.3</ele>
        <time>2020-10-04T08:25:37Z</time>
      </trkpt>
      <trkpt lat="40.0907480" lon="-4.7076740">
        <ele>574.5</ele>
        <time>2020-10-04T08:25:39Z</time>
      </trkpt>
      <trkpt lat="40.0907650" lon="-4.7076780">
        <ele>574.7</ele>
        <time>2020-10-04T08:25:40Z</time>
      </trkpt>
      <trkpt lat="40.0907920" lon="-4.7076770">
        <ele>574.9</ele>
        <time>2020-10-04T08:25:41Z</time>
      </trkpt>
      <trkpt lat="40.0908160" lon="-4.7076760">
        <ele>575.2</ele>
        <time>2020-10-04T08:25:43Z</time>
      </trkpt>
      <trkpt lat="40.0908450" lon="-4.7076770">
        <ele>575.5</ele>
        <time>2020-10-04T08:25:44Z</time>
      </trkpt>
      <trkpt lat="40.0908820" lon="-4.7076770">
        <ele>575.8</ele>
        <time>2020-10-04T08:25:46Z</time>
      </trkpt>
      <trkpt lat="40.0908920" lon="-4.7076780">
        <ele>575.9</ele>
        <time>2020-10-04T08:25:47Z</time>
      </trkpt>
      <trkpt lat="40.0909080" lon="-4.7076800">
        <ele>576.1</ele>
        <time>2020-10-04T08:25:48Z</time>
      </trkpt>
      <trkpt lat="40.0909240" lon="-4.7076830">
        <ele>576.3</ele>
        <time>2020-10-04T08:25:49Z</time>
      </trkpt>
      <trkpt lat="40.0909430" lon="-4.7076770">
        <ele>576.5</ele>
        <time>2020-10-04T08:25:51Z</time>
      </trkpt>
      <trkpt lat="40.0909570" lon="-4.7076710">
        <ele>576.7</ele>
        <time>2020-10-04T08:25:52Z</time>
      </trkpt>
      <trkpt lat="40.0909850" lon="-4.7076670">
        <ele>577.0</ele>
        <time>2020-10-04T08:25:53Z</time>
      </trkpt>
      <trkpt lat="40.0909960" lon="-4.7076650">
        <ele>577.1</ele>
        <time>2020-10-04T08:25:54Z</time>
      </trkpt>
      <trkpt lat="40.0910170" lon="-4.7076570">
        <ele>577.4</ele>
        <time>2020-10-04T08:25:55Z</time>
      </trkpt>
      <trkpt lat="40.0910490" lon="-4.7076420">
        <ele>577.8</ele>
        <time>2020-10-04T08:25:57Z</time>
      </trkpt>
      <trkpt lat="40.0910650" lon="-4.7076370">
        <ele>578.0</ele>
        <time>2020-10-04T08:25:58Z</time>
      </trkpt>
      <trkpt lat="40.0910900" lon="-4.7076310">
        <ele>578.4</ele>
        <time>2020-10-04T08:26:00Z</time>
      </trkpt>
      <trkpt lat="40.0911160" lon="-4.7076250">
        <ele>578.7</ele>
        <time>2020-10-04T08:26:01Z</time>
      </trkpt>
      <trkpt lat="40.0911380" lon="-4.7076210">
        <ele>579.0</ele>
        <time>2020-10-04T08:26:03Z</time>
      </trkpt>
      <trkpt lat="40.0911540" lon="-4.7076190">
        <ele>579.2</ele>
        <time>2020-10-04T08:26:04Z</time>
      </trkpt>
      <trkpt lat="40.0911710" lon="-4.7076200">
        <ele>579.4</ele>
        <time>2020-10-04T08:26:05Z</time>
      </trkpt>
      <trkpt lat="40.0911970" lon="-4.7076290">
        <ele>579.7</ele>
        <time>2020-10-04T08:26:06Z</time>
      </trkpt>
      <trkpt lat="40.0912060" lon="-4.7076310">
        <ele>579.8</ele>
        <time>2020-10-04T08:26:07Z</time>
      </trkpt>
      <trkpt lat="40.0912230" lon="-4.7076270">
        <ele>580.0</ele>
        <time>2020-10-04T08:26:08Z</time>
      </trkpt>
      <trkpt lat="40.0912470" lon="-4.7076320">
        <ele>580.3</ele>
        <time>2020-10-04T08:26:10Z</time>
      </trkpt>
      <trkpt lat="40.0912680" lon="-4.7076350">
        <ele>580.6</ele>
        <time>2020-10-04T08:26:11Z</time>
      </trkpt>
      <trkpt lat="40.0912950" lon="-4.7076440">
        <ele>580.9</ele>
        <time>2020-10-04T08:26:13Z</time>
      </trkpt>
      <trkpt lat="40.0913060" lon="-4.7076520">
        <ele>581.0</ele>
        <time>2020-10-04T08:26:14Z</time>
      </trkpt>
      <trkpt lat="40.0913190" lon="-4.7076640">
        <ele>581.2</ele>
        <time>2020-10-04T08:26:15Z</time>
      </trkpt>
      <trkpt lat="40.0913310" lon="-4.7076710">
        <ele>581.4</ele>
        <time>2020-10-04T08:26:16Z</time>
      </trkpt>
      <trkpt lat="40.0913490" lon="-4.7076730">
        <ele>581.6</ele>
        <time>2020-10-04T08:26:17Z</time>
      </trkpt>
      <trkpt lat="40.0913830" lon="-4.7076710">
        <ele>581.9</ele>
        <time>2020-10-04T08:26:19Z</time>
      </trkpt>
      <trkpt lat="40.0913970" lon="-4.7076700">
        <ele>582.1</ele>
        <time>2020-10-04T08:26:20Z</time>
      </trkpt>
      <trkpt lat="40.0914140" lon="-4.7076680">
        <ele>582.3</ele>
        <time>2020-10-04T08:26:22Z</time>
      </trkpt>
      <trkpt lat="40.0914310" lon="-4.7076680">
        <ele>582.5</ele>
        <time>2020-10-04T08:26:23Z</time>
      </trkpt>
      <trkpt lat="40.0914570" lon="-4.7076770">
        <ele>582.8</ele>
        <time>2020-10-04T08:26:24Z</time>
      </trkpt>
      <trkpt lat="40.0914730" lon="-4.7076930">
        <ele>583.0</ele>
        <time>2020-10-04T08:26:25Z</time>
      </trkpt>
      <trkpt lat="40.0914960" lon="-4.7077100">
        <ele>583.3</ele>
        <time>2020-10-04T08:26:27Z</time>
      </trkpt>
      <trkpt lat="40.0915250" lon="-4.7077330">
        <ele>583.7</ele>
        <time>2020-10-04T08:26:28Z</time>
      </trkpt>
      <trkpt lat="40.0915380" lon="-4.7077440">
        <ele>583.8</ele>
        <time>2020-10-04T08:26:29Z</time>
      </trkpt>
      <trkpt lat="40.0915530" lon="-4.7077580">
        <ele>584.0</ele>
        <time>2020-10-04T08:26:30Z</time>
      </trkpt>
      <trkpt lat="40.0915760" lon="-4.7077780">
        <ele>584.4</ele>
        <time>2020-10-04T08:26:32Z</time>
      </trkpt>
      <trkpt lat="40.0915910" lon="-4.7077920">
        <ele>584.6</ele>
        <time>2020-10-04T08:26:33Z</time>
      </trkpt>
      <trkpt lat="40.0916260" lon="-4.7078240">
        <ele>585.0</ele>
        <time>2020-10-04T08:26:35Z</time>
      </trkpt>
      <trkpt lat="40.0916500" lon="-4.7078440">
        <ele>585.3</ele>
        <time>2020-10-04T08:26:36Z</time>
      </trkpt>
      <trkpt lat="40.0916580" lon="-4.7078530">
        <ele>585.4</ele>
        <time>2020-10-04T08:26:37Z</time>
      </trkpt>
      <trkpt lat="40.0916790" lon="-4.7078790">
        <ele>585.7</ele>
        <time>2020-10-04T08:26:38Z</time>
      </trkpt>
      <trkpt lat="40.0917060" lon="-4.7079100">
        <ele>586.0</ele>
        <time>2020-10-04T08:26:40Z</time>
      </trkpt>
      <trkpt lat="40.0917340" lon="-4.7079600">
        <ele>586.4</ele>
        <time>2020-10-04T08:26:42Z</time>
      </trkpt>
      <trkpt lat="40.0917490" lon="-4.7080120">
        <ele>586.7</ele>
        <time>2020-10-04T08:26:43Z</time>
      </trkpt>
      <trkpt lat="40.0917530" lon="-4.7080340">
        <ele>586.9</ele>
        <time>2020-10-04T08:26:44Z</time>
      </trkpt>
      <trkpt lat="40.0917580" lon="-4.7080880">
        <ele>587.2</ele>
        <time>2020-10-04T08:26:46Z</time>
      </trkpt>
      <trkpt lat="40.0917590" lon="-4.7081060">
        <ele>587.3</ele>
        <time>2020-10-04T08:26:47Z</time>
      </trkpt>
      <trkpt lat="40.0917590" lon="-4.7081250">
        <ele>587.4</ele>
        <time>2020-10-04T08:26:48Z</time>
      </trkpt>
      <trkpt lat="40.0917410" lon="-4.7081490">
        <ele>587.6</ele>
        <time>2020-10-04T08:26:50Z</time>
      </trkpt>
      <trkpt lat="40.0917330" lon="-4.7081520">
        <ele>587.6</ele>
        <time>2020-10-04T08:26:51Z</time>
      </trkpt>
      <trkpt lat="40.0917270" lon="-4.7081760">
        <ele>587.7</ele>
        <time>2020-10-04T08:26:52Z</time>
      </trkpt>
      <trkpt lat="40.0917260" lon="-4.7081890">
        <ele>587.8</ele>
        <time>2020-10-04T08:26:53Z</time>
      </trkpt>
      <trkpt lat="40.0917240" lon="-4.7082010">
        <ele>587.9</ele>
        <time>2020-10-04T08:26:54Z</time>
      </trkpt>
      <trkpt lat="40.0917200" lon="-4.7082320">
        <ele>588.1</ele>
        <time>2020-10-04T08:26:55Z</time>
      </trkpt>
      <trkpt lat="40.0917170" lon="-4.7082660">
        <ele>588.2</ele>
        <time>2020-10-04T08:26:57Z</time>
      </trkpt>
      <trkpt lat="40.0917080" lon="-4.7083030">
        <ele>588.4</ele>
        <time>2020-10-04T08:26:58Z</time>
      </trkpt>
      <trkpt lat="40.0917030" lon="-4.7083210">
        <ele>588.6</ele>
        <time>2020-10-04T08:26:59Z</time>
      </trkpt>
      <trkpt lat="40.0916960" lon="-4.7083360">
        <ele>588.7</ele>
        <time>2020-10-04T08:27:00Z</time>
      </trkpt>
      <trkpt lat="40.0916840" lon="-4.7083690">
        <ele>588.9</ele>
        <time>2020-10-04T08:27:02Z</time>
      </trkpt>
      <trkpt lat="40.0916790" lon="-4.7083800">
        <ele>588.9</ele>
        <time>2020-10-04T08:27:03Z</time>
      </trkpt>
      <trkpt lat="40.0916700" lon="-4.7084000">
        <ele>589.1</ele>
        <time>2020-10-04T08:27:04Z</time>
      </trkpt>
      <trkpt lat="40.0916580" lon="-4.7084350">
        <ele>589.3</ele>
        <time>2020-10-04T08:27:06Z</time>
      </trkpt>
      <trkpt lat="40.0916440" lon="-4.7084660">
        <ele>589.5</ele>
        <time>2020-10-04T08:27:07Z</time>
      </trkpt>
      <trkpt lat="40.0916390" lon="-4.7084770">
        <ele>589.5</ele>
        <time>2020-10-04T08:27:08Z</time>
      </trkpt>
      <trkpt lat="40.0916250" lon="-4.7085120">
        <ele>589.7</ele>
        <time>2020-10-04T08:27:09Z</time>
      </trkpt>
      <trkpt lat="40.0916190" lon="-4.7085250">
        <ele>589.8</ele>
        <time>2020-10-04T08:27:10Z</time>
      </trkpt>
      <trkpt lat="40.0916080" lon="-4.7085730">
        <ele>590.1</ele>
        <time>2020-10-04T08:27:11Z</time>
      </trkpt>
      <trkpt lat="40.0916030" lon="-4.7085920">
        <ele>590.2</ele>
        <time>2020-10-04T08:27:12Z</time>
      </trkpt>
      <trkpt lat="40.0915930" lon="-4.7086370">
        <ele>590.4</ele>
        <time>2020-10-04T08:27:14Z</time>
      </trkpt>
      <trkpt lat="40.0915900" lon="-4.7086510">
        <ele>590.4</ele>
        <time>2020-10-04T08:27:15Z</time>
      </trkpt>
      <trkpt lat="40.0915830" lon="-4.7086950">
        <ele>590.6</ele>
        <time>2020-10-04T08:27:16Z</time>
      </trkpt>
      <trkpt lat="40.0915800" lon="-4.7087110">
        <ele>590.7</ele>
        <time>2020-10-04T08:27:17Z</time>
      </trkpt>
      <trkpt lat="40.0915770" lon="-4.7087380">
        <ele>590.8</ele>
        <time>2020-10-04T08:27:18Z</time>
      </trkpt>
      <trkpt lat="40.0915730" lon="-4.7087730">
        <ele>590.9</ele>
        <time>2020-10-04T08:27:20Z</time>
      </trkpt>
      <trkpt lat="40.0915730" lon="-4.7088120">
        <ele>591.0</ele>
        <time>2020-10-04T08:27:21Z</time>
      </trkpt>
      <trkpt lat="40.0915720" lon="-4.7088280">
        <ele>591.1</ele>
        <time>2020-10-04T08:27:22Z</time>
      </trkpt>
      <trkpt lat="40.0915680" lon="-4.7088590">
        <ele>591.2</ele>
        <time>2020-10-04T08:27:23Z</time>
      </trkpt>
      <trkpt lat="40.0915650" lon="-4.7089020">
        <ele>591.3</ele>
        <time>2020-10-04T08:27:25Z</time>
      </trkpt>
      <trkpt lat="40.0915630" lon="-4.7089580">
        <ele>591.5</ele>
        <time>2020-10-04T08:27:26Z</time>
      </trkpt>
      <trkpt lat="40.0915610" lon="-4.7089810">
        <ele>591.6</ele>
        <time>2020-10-04T08:27:27Z</time>
      </trkpt>
      <trkpt lat="40.0915590" lon="-4.7090200">
        <ele>591.7</ele>
        <time>2020-10-04T08:27:28Z</time>
      </trkpt>
      <trkpt lat="40.0915600" lon="-4.7090650">
        <ele>591.8</ele>
        <time>2020-10-04T08:27:30Z</time>
      </trkpt>
      <trkpt lat="40.0915610" lon="-4.7091220">
        <ele>592.0</ele>
        <time>2020-10-04T08:27:31Z</time>
      </trkpt>
      <trkpt lat="40.0915610" lon="-4.7091610">
        <ele>592.1</ele>
        <time>2020-10-04T08:27:33Z</time>
      </trkpt>
      <trkpt lat="40.0915590" lon="-4.7092170">
        <ele>592.2</ele>
        <time>2020-10-04T08:27:34Z</time>
      </trkpt>
      <trkpt lat="40.0915600" lon="-4.7092550">
        <ele>592.3</ele>
        <time>2020-10-04T08:27:35Z</time>
      </trkpt>
      <trkpt lat="40.0915670" lon="-4.7092940">
        <ele>592.4</ele>
        <time>2020-10-04T08:27:36Z</time>
      </trkpt>
      <trkpt lat="40.0915710" lon="-4.7093350">
        <ele>592.5</ele>
        <time>2020-10-04T08:27:37Z</time>
      </trkpt>
      <trkpt lat="40.0915730" lon="-4.7093810">
        <ele>592.6</ele>
        <time>2020-10-04T08:27:39Z</time>
      </trkpt>
      <trkpt lat="40.0915710" lon="-4.7094370">
        <ele>592.7</ele>
        <time>2020-10-04T08:27:40Z</time>
      </trkpt>
      <trkpt lat="40.0915670" lon="-4.7094660">
        <ele>592.8</ele>
        <time>2020-10-04T08:27:41Z</time>
      </trkpt>
      <trkpt lat="40.0915640" lon="-4.7095050">
        <ele>593.0</ele>
        <time>2020-10-04T08:27:43Z</time>
      </trkpt>
      <trkpt lat="40.0915610" lon="-4.7095510">
        <ele>593.2</ele>
        <time>2020-10-04T08:27:44Z</time>
      </trkpt>
      <trkpt lat="40.0915650" lon="-4.7095990">
        <ele>593.4</ele>
        <time>2020-10-04T08:27:46Z</time>
      </trkpt>
      <trkpt lat="40.0915700" lon="-4.7096370">
        <ele>593.6</ele>
        <time>2020-10-04T08:27:47Z</time>
      </trkpt>
      <trkpt lat="40.0915740" lon="-4.7096710">
        <ele>593.7</ele>
        <time>2020-10-04T08:27:48Z</time>
      </trkpt>
      <trkpt lat="40.0915890" lon="-4.7097370">
        <ele>594.0</ele>
        <time>2020-10-04T08:27:50Z</time>
      </trkpt>
      <trkpt lat="40.0915970" lon="-4.7097740">
        <ele>594.2</ele>
        <time>2020-10-04T08:27:51Z</time>
      </trkpt>
      <trkpt lat="40.0916100" lon="-4.7098130">
        <ele>594.3</ele>
        <time>2020-10-04T08:27:52Z</time>
      </trkpt>
      <trkpt lat="40.0916300" lon="-4.7098610">
        <ele>594.6</ele>
        <time>2020-10-04T08:27:54Z</time>
      </trkpt>
      <trkpt lat="40.0916440" lon="-4.7099100">
        <ele>594.8</ele>
        <time>2020-10-04T08:27:55Z</time>
      </trkpt>
      <trkpt lat="40.0916530" lon="-4.7099400">
        <ele>594.9</ele>
        <time>2020-10-04T08:27:57Z</time>
      </trkpt>
      <trkpt lat="40.0916700" lon="-4.7099900">
        <ele>595.1</ele>
        <time>2020-10-04T08:27:59Z</time>
      </trkpt>
      <trkpt lat="40.0916910" lon="-4.7100430">
        <ele>595.3</ele>
        <time>2020-10-04T08:28:00Z</time>
      </trkpt>
      <trkpt lat="40.0917000" lon="-4.7100660">
        <ele>595.4</ele>
        <time>2020-10-04T08:28:01Z</time>
      </trkpt>
      <trkpt lat="40.0917150" lon="-4.7101090">
        <ele>595.5</ele>
        <time>2020-10-04T08:28:02Z</time>
      </trkpt>
      <trkpt lat="40.0917310" lon="-4.7101460">
        <ele>595.6</ele>
        <time>2020-10-04T08:28:04Z</time>
      </trkpt>
      <trkpt lat="40.0917540" lon="-4.7102000">
        <ele>595.7</ele>
        <time>2020-10-04T08:28:05Z</time>
      </trkpt>
      <trkpt lat="40.0917740" lon="-4.7102550">
        <ele>595.7</ele>
        <time>2020-10-04T08:28:07Z</time>
      </trkpt>
      <trkpt lat="40.0917860" lon="-4.7102840">
        <ele>595.7</ele>
        <time>2020-10-04T08:28:08Z</time>
      </trkpt>
      <trkpt lat="40.0918040" lon="-4.7103250">
        <ele>595.7</ele>
        <time>2020-10-04T08:28:10Z</time>
      </trkpt>
      <trkpt lat="40.0918260" lon="-4.7103750">
        <ele>595.7</ele>
        <time>2020-10-04T08:28:11Z</time>
      </trkpt>
      <trkpt lat="40.0918400" lon="-4.7104050">
        <ele>595.7</ele>
        <time>2020-10-04T08:28:12Z</time>
      </trkpt>
      <trkpt lat="40.0918570" lon="-4.7104480">
        <ele>595.7</ele>
        <time>2020-10-04T08:28:14Z</time>
      </trkpt>
      <trkpt lat="40.0918870" lon="-4.7105190">
        <ele>595.7</ele>
        <time>2020-10-04T08:28:15Z</time>
      </trkpt>
      <trkpt lat="40.0919190" lon="-4.7105990">
        <ele>595.6</ele>
        <time>2020-10-04T08:28:17Z</time>
      </trkpt>
      <trkpt lat="40.0919380" lon="-4.7106520">
        <ele>595.6</ele>
        <time>2020-10-04T08:28:18Z</time>
      </trkpt>
      <trkpt lat="40.0919620" lon="-4.7107170">
        <ele>595.6</ele>
        <time>2020-10-04T08:28:20Z</time>
      </trkpt>
      <trkpt lat="40.0919960" lon="-4.7108180">
        <ele>595.7</ele>
        <time>2020-10-04T08:28:22Z</time>
      </trkpt>
      <trkpt lat="40.0920170" lon="-4.7108720">
        <ele>595.7</ele>
        <time>2020-10-04T08:28:23Z</time>
      </trkpt>
      <trkpt lat="40.0920390" lon="-4.7109180">
        <ele>595.8</ele>
        <time>2020-10-04T08:28:24Z</time>
      </trkpt>
      <trkpt lat="40.0920800" lon="-4.7109960">
        <ele>595.8</ele>
        <time>2020-10-04T08:28:25Z</time>
      </trkpt>
      <trkpt lat="40.0921140" lon="-4.7110570">
        <ele>595.8</ele>
        <time>2020-10-04T08:28:27Z</time>
      </trkpt>
      <trkpt lat="40.0921470" lon="-4.7111180">
        <ele>595.8</ele>
        <time>2020-10-04T08:28:28Z</time>
      </trkpt>
      <trkpt lat="40.0921670" lon="-4.7111610">
        <ele>595.7</ele>
        <time>2020-10-04T08:28:30Z</time>
      </trkpt>
      <trkpt lat="40.0921820" lon="-4.7111940">
        <ele>595.6</ele>
        <time>2020-10-04T08:28:31Z</time>
      </trkpt>
      <trkpt lat="40.0922040" lon="-4.7112410">
        <ele>595.4</ele>
        <time>2020-10-04T08:28:33Z</time>
      </trkpt>
      <trkpt lat="40.0922230" lon="-4.7112650">
        <ele>595.2</ele>
        <time>2020-10-04T08:28:34Z</time>
      </trkpt>
      <trkpt lat="40.0922310" lon="-4.7112730">
        <ele>595.2</ele>
        <time>2020-10-04T08:28:35Z</time>
      </trkpt>
      <trkpt lat="40.0922550" lon="-4.7113000">
        <ele>595.0</ele>
        <time>2020-10-04T08:28:36Z</time>
      </trkpt>
      <trkpt lat="40.0922800" lon="-4.7113270">
        <ele>594.7</ele>
        <time>2020-10-04T08:28:37Z</time>
      </trkpt>
      <trkpt lat="40.0923110" lon="-4.7113700">
        <ele>594.4</ele>
        <time>2020-10-04T08:28:39Z</time>
      </trkpt>
      <trkpt lat="40.0923210" lon="-4.7113880">
        <ele>594.3</ele>
        <time>2020-10-04T08:28:40Z</time>
      </trkpt>
      <trkpt lat="40.0923320" lon="-4.7114050">
        <ele>594.2</ele>
        <time>2020-10-04T08:28:41Z</time>
      </trkpt>
      <trkpt lat="40.0923550" lon="-4.7114480">
        <ele>593.9</ele>
        <time>2020-10-04T08:28:42Z</time>
      </trkpt>
      <trkpt lat="40.0923760" lon="-4.7114960">
        <ele>593.7</ele>
        <time>2020-10-04T08:28:43Z</time>
      </trkpt>
      <trkpt lat="40.0924120" lon="-4.7115650">
        <ele>593.4</ele>
        <time>2020-10-04T08:28:45Z</time>
      </trkpt>
      <trkpt lat="40.0924420" lon="-4.7116180">
        <ele>593.2</ele>
        <time>2020-10-04T08:28:46Z</time>
      </trkpt>
      <trkpt lat="40.0924880" lon="-4.7116940">
        <ele>592.9</ele>
        <time>2020-10-04T08:28:47Z</time>
      </trkpt>
      <trkpt lat="40.0925370" lon="-4.7117600">
        <ele>592.8</ele>
        <time>2020-10-04T08:28:48Z</time>
      </trkpt>
      <trkpt lat="40.0925870" lon="-4.7118160">
        <ele>592.8</ele>
        <time>2020-10-04T08:28:50Z</time>
      </trkpt>
      <trkpt lat="40.0926440" lon="-4.7118900">
        <ele>592.9</ele>
        <time>2020-10-04T08:28:51Z</time>
      </trkpt>
      <trkpt lat="40.0927100" lon="-4.7119630">
        <ele>592.9</ele>
        <time>2020-10-04T08:28:52Z</time>
      </trkpt>
      <trkpt lat="40.0927790" lon="-4.7120280">
        <ele>592.9</ele>
        <time>2020-10-04T08:28:54Z</time>
      </trkpt>
      <trkpt lat="40.0928440" lon="-4.7120700">
        <ele>592.9</ele>
        <time>2020-10-04T08:28:55Z</time>
      </trkpt>
      <trkpt lat="40.0929380" lon="-4.7121480">
        <ele>592.9</ele>
        <time>2020-10-04T08:28:57Z</time>
      </trkpt>
      <trkpt lat="40.0929690" lon="-4.7121970">
        <ele>592.9</ele>
        <time>2020-10-04T08:28:58Z</time>
      </trkpt>
      <trkpt lat="40.0930180" lon="-4.7122280">
        <ele>592.9</ele>
        <time>2020-10-04T08:29:00Z</time>
      </trkpt>
      <trkpt lat="40.0930340" lon="-4.7122580">
        <ele>592.8</ele>
        <time>2020-10-04T08:29:01Z</time>
      </trkpt>
      <trkpt lat="40.0930690" lon="-4.7123120">
        <ele>592.7</ele>
        <time>2020-10-04T08:29:02Z</time>
      </trkpt>
      <trkpt lat="40.0931010" lon="-4.7123400">
        <ele>592.6</ele>
        <time>2020-10-04T08:29:03Z</time>
      </trkpt>
      <trkpt lat="40.0931480" lon="-4.7123730">
        <ele>592.5</ele>
        <time>2020-10-04T08:29:04Z</time>
      </trkpt>
      <trkpt lat="40.0932020" lon="-4.7123950">
        <ele>592.3</ele>
        <time>2020-10-04T08:29:06Z</time>
      </trkpt>
      <trkpt lat="40.0932770" lon="-4.7124310">
        <ele>591.9</ele>
        <time>2020-10-04T08:29:08Z</time>
      </trkpt>
      <trkpt lat="40.0933290" lon="-4.7124700">
        <ele>591.6</ele>
        <time>2020-10-04T08:29:09Z</time>
      </trkpt>
      <trkpt lat="40.0934160" lon="-4.7125590">
        <ele>590.9</ele>
        <time>2020-10-04T08:29:11Z</time>
      </trkpt>
      <trkpt lat="40.0934630" lon="-4.7126060">
        <ele>590.5</ele>
        <time>2020-10-04T08:29:12Z</time>
      </trkpt>
      <trkpt lat="40.0935630" lon="-4.7127040">
        <ele>589.4</ele>
        <time>2020-10-04T08:29:14Z</time>
      </trkpt>
      <trkpt lat="40.0936590" lon="-4.7127740">
        <ele>588.3</ele>
        <time>2020-10-04T08:29:16Z</time>
      </trkpt>
      <trkpt lat="40.0937070" lon="-4.7127880">
        <ele>587.8</ele>
        <time>2020-10-04T08:29:17Z</time>
      </trkpt>
      <trkpt lat="40.0938070" lon="-4.7127830">
        <ele>586.8</ele>
        <time>2020-10-04T08:29:19Z</time>
      </trkpt>
      <trkpt lat="40.0938610" lon="-4.7127810">
        <ele>586.4</ele>
        <time>2020-10-04T08:29:20Z</time>
      </trkpt>
      <trkpt lat="40.0939680" lon="-4.7127700">
        <ele>585.7</ele>
        <time>2020-10-04T08:29:22Z</time>
      </trkpt>
      <trkpt lat="40.0940150" lon="-4.7127460">
        <ele>585.5</ele>
        <time>2020-10-04T08:29:23Z</time>
      </trkpt>
      <trkpt lat="40.0940550" lon="-4.7127440">
        <ele>585.3</ele>
        <time>2020-10-04T08:29:24Z</time>
      </trkpt>
      <trkpt lat="40.0940860" lon="-4.7127660">
        <ele>585.2</ele>
        <time>2020-10-04T08:29:25Z</time>
      </trkpt>
      <trkpt lat="40.0941280" lon="-4.7128470">
        <ele>585.0</ele>
        <time>2020-10-04T08:29:27Z</time>
      </trkpt>
      <trkpt lat="40.0941510" lon="-4.7128850">
        <ele>584.9</ele>
        <time>2020-10-04T08:29:28Z</time>
      </trkpt>
      <trkpt lat="40.0941710" lon="-4.7129220">
        <ele>584.8</ele>
        <time>2020-10-04T08:29:29Z</time>
      </trkpt>
      <trkpt lat="40.0942030" lon="-4.7129830">
        <ele>584.8</ele>
        <time>2020-10-04T08:29:31Z</time>
      </trkpt>
      <trkpt lat="40.0942210" lon="-4.7130130">
        <ele>584.8</ele>
        <time>2020-10-04T08:29:32Z</time>
      </trkpt>
      <trkpt lat="40.0942620" lon="-4.7130880">
        <ele>584.8</ele>
        <time>2020-10-04T08:29:34Z</time>
      </trkpt>
      <trkpt lat="40.0942820" lon="-4.7131220">
        <ele>584.8</ele>
        <time>2020-10-04T08:29:35Z</time>
      </trkpt>
      <trkpt lat="40.0942370" lon="-4.7131580">
        <ele>584.9</ele>
        <time>2020-10-04T08:29:36Z</time>
      </trkpt>
      <trkpt lat="40.0942830" lon="-4.7132050">
        <ele>584.9</ele>
        <time>2020-10-04T08:29:37Z</time>
      </trkpt>
      <trkpt lat="40.0943560" lon="-4.7132920">
        <ele>585.0</ele>
        <time>2020-10-04T08:29:39Z</time>
      </trkpt>
      <trkpt lat="40.0943860" lon="-4.7133460">
        <ele>585.1</ele>
        <time>2020-10-04T08:29:41Z</time>
      </trkpt>
      <trkpt lat="40.0944060" lon="-4.7133990">
        <ele>585.1</ele>
        <time>2020-10-04T08:29:42Z</time>
      </trkpt>
      <trkpt lat="40.0944250" lon="-4.7134810">
        <ele>585.2</ele>
        <time>2020-10-04T08:29:43Z</time>
      </trkpt>
      <trkpt lat="40.0944420" lon="-4.7135500">
        <ele>585.3</ele>
        <time>2020-10-04T08:29:45Z</time>
      </trkpt>
      <trkpt lat="40.0944550" lon="-4.7135960">
        <ele>585.3</ele>
        <time>2020-10-04T08:29:46Z</time>
      </trkpt>
      <trkpt lat="40.0944810" lon="-4.7136560">
        <ele>585.3</ele>
        <time>2020-10-04T08:29:47Z</time>
      </trkpt>
      <trkpt lat="40.0945000" lon="-4.7137010">
        <ele>585.3</ele>
        <time>2020-10-04T08:29:48Z</time>
      </trkpt>
      <trkpt lat="40.0945200" lon="-4.7137540">
        <ele>585.3</ele>
        <time>2020-10-04T08:29:49Z</time>
      </trkpt>
      <trkpt lat="40.0945410" lon="-4.7138130">
        <ele>585.3</ele>
        <time>2020-10-04T08:29:51Z</time>
      </trkpt>
      <trkpt lat="40.0945600" lon="-4.7138660">
        <ele>585.4</ele>
        <time>2020-10-04T08:29:52Z</time>
      </trkpt>
      <trkpt lat="40.0945800" lon="-4.7139340">
        <ele>585.4</ele>
        <time>2020-10-04T08:29:53Z</time>
      </trkpt>
      <trkpt lat="40.0945950" lon="-4.7139960">
        <ele>585.4</ele>
        <time>2020-10-04T08:29:54Z</time>
      </trkpt>
      <trkpt lat="40.0946010" lon="-4.7140420">
        <ele>585.4</ele>
        <time>2020-10-04T08:29:55Z</time>
      </trkpt>
      <trkpt lat="40.0946030" lon="-4.7140870">
        <ele>585.4</ele>
        <time>2020-10-04T08:29:57Z</time>
      </trkpt>
      <trkpt lat="40.0946060" lon="-4.7141420">
        <ele>585.4</ele>
        <time>2020-10-04T08:29:58Z</time>
      </trkpt>
      <trkpt lat="40.0946090" lon="-4.7142270">
        <ele>585.4</ele>
        <time>2020-10-04T08:29:59Z</time>
      </trkpt>
      <trkpt lat="40.0946130" lon="-4.7142860">
        <ele>585.5</ele>
        <time>2020-10-04T08:30:01Z</time>
      </trkpt>
      <trkpt lat="40.0946190" lon="-4.7143710">
        <ele>585.5</ele>
        <time>2020-10-04T08:30:02Z</time>
      </trkpt>
      <trkpt lat="40.0946250" lon="-4.7144360">
        <ele>585.5</ele>
        <time>2020-10-04T08:30:03Z</time>
      </trkpt>
      <trkpt lat="40.0946330" lon="-4.7145030">
        <ele>585.6</ele>
        <time>2020-10-04T08:30:05Z</time>
      </trkpt>
      <trkpt lat="40.0946440" lon="-4.7145950">
        <ele>585.7</ele>
        <time>2020-10-04T08:30:06Z</time>
      </trkpt>
      <trkpt lat="40.0946540" lon="-4.7146590">
        <ele>585.8</ele>
        <time>2020-10-04T08:30:07Z</time>
      </trkpt>
      <trkpt lat="40.0946590" lon="-4.7147150">
        <ele>585.9</ele>
        <time>2020-10-04T08:30:09Z</time>
      </trkpt>
      <trkpt lat="40.0946640" lon="-4.7147780">
        <ele>586.0</ele>
        <time>2020-10-04T08:30:10Z</time>
      </trkpt>
      <trkpt lat="40.0946740" lon="-4.7148800">
        <ele>586.3</ele>
        <time>2020-10-04T08:30:12Z</time>
      </trkpt>
      <trkpt lat="40.0946850" lon="-4.7149360">
        <ele>586.4</ele>
        <time>2020-10-04T08:30:13Z</time>
      </trkpt>
      <trkpt lat="40.0946950" lon="-4.7149910">
        <ele>586.6</ele>
        <time>2020-10-04T08:30:14Z</time>
      </trkpt>
      <trkpt lat="40.0947070" lon="-4.7150920">
        <ele>586.9</ele>
        <time>2020-10-04T08:30:16Z</time>
      </trkpt>
      <trkpt lat="40.0947150" lon="-4.7151560">
        <ele>587.2</ele>
        <time>2020-10-04T08:30:17Z</time>
      </trkpt>
      <trkpt lat="40.0947270" lon="-4.7152080">
        <ele>587.4</ele>
        <time>2020-10-04T08:30:18Z</time>
      </trkpt>
      <trkpt lat="40.0947390" lon="-4.7152600">
        <ele>587.7</ele>
        <time>2020-10-04T08:30:19Z</time>
      </trkpt>
      <trkpt lat="40.0947500" lon="-4.7153130">
        <ele>588.0</ele>
        <time>2020-10-04T08:30:20Z</time>
      </trkpt>
      <trkpt lat="40.0947640" lon="-4.7153670">
        <ele>588.3</ele>
        <time>2020-10-04T08:30:21Z</time>
      </trkpt>
      <trkpt lat="40.0947830" lon="-4.7154440">
        <ele>588.8</ele>
        <time>2020-10-04T08:30:23Z</time>
      </trkpt>
      <trkpt lat="40.0948050" lon="-4.7155470">
        <ele>589.6</ele>
        <time>2020-10-04T08:30:25Z</time>
      </trkpt>
      <trkpt lat="40.0948110" lon="-4.7155920">
        <ele>590.0</ele>
        <time>2020-10-04T08:30:26Z</time>
      </trkpt>
      <trkpt lat="40.0948190" lon="-4.7156370">
        <ele>590.3</ele>
        <time>2020-10-04T08:30:27Z</time>
      </trkpt>
      <trkpt lat="40.0948250" lon="-4.7156760">
        <ele>590.6</ele>
        <time>2020-10-04T08:30:28Z</time>
      </trkpt>
      <trkpt lat="40.0948300" lon="-4.7157170">
        <ele>590.9</ele>
        <time>2020-10-04T08:30:29Z</time>
      </trkpt>
      <trkpt lat="40.0948310" lon="-4.7157670">
        <ele>591.3</ele>
        <time>2020-10-04T08:30:30Z</time>
      </trkpt>
      <trkpt lat="40.0948300" lon="-4.7157870">
        <ele>591.4</ele>
        <time>2020-10-04T08:30:31Z</time>
      </trkpt>
      <trkpt lat="40.0948290" lon="-4.7158440">
        <ele>591.8</ele>
        <time>2020-10-04T08:30:33Z</time>
      </trkpt>
      <trkpt lat="40.0948320" lon="-4.7158940">
        <ele>592.2</ele>
        <time>2020-10-04T08:30:34Z</time>
      </trkpt>
      <trkpt lat="40.0948360" lon="-4.7159540">
        <ele>592.7</ele>
        <time>2020-10-04T08:30:36Z</time>
      </trkpt>
      <trkpt lat="40.0948450" lon="-4.7160250">
        <ele>593.2</ele>
        <time>2020-10-04T08:30:37Z</time>
      </trkpt>
      <trkpt lat="40.0948580" lon="-4.7161040">
        <ele>593.8</ele>
        <time>2020-10-04T08:30:39Z</time>
      </trkpt>
      <trkpt lat="40.0948700" lon="-4.7161500">
        <ele>594.2</ele>
        <time>2020-10-04T08:30:41Z</time>
      </trkpt>
      <trkpt lat="40.0948890" lon="-4.7162110">
        <ele>594.8</ele>
        <time>2020-10-04T08:30:42Z</time>
      </trkpt>
      <trkpt lat="40.0949020" lon="-4.7162520">
        <ele>595.2</ele>
        <time>2020-10-04T08:30:44Z</time>
      </trkpt>
      <trkpt lat="40.0949130" lon="-4.7162850">
        <ele>595.5</ele>
        <time>2020-10-04T08:30:45Z</time>
      </trkpt>
      <trkpt lat="40.0949290" lon="-4.7163210">
        <ele>595.9</ele>
        <time>2020-10-04T08:30:46Z</time>
      </trkpt>
      <trkpt lat="40.0949470" lon="-4.7163630">
        <ele>596.3</ele>
        <time>2020-10-04T08:30:47Z</time>
      </trkpt>
      <trkpt lat="40.0949670" lon="-4.7164170">
        <ele>596.8</ele>
        <time>2020-10-04T08:30:49Z</time>
      </trkpt>
      <trkpt lat="40.0949830" lon="-4.7164620">
        <ele>597.2</ele>
        <time>2020-10-04T08:30:50Z</time>
      </trkpt>
      <trkpt lat="40.0950050" lon="-4.7165020">
        <ele>597.7</ele>
        <time>2020-10-04T08:30:52Z</time>
      </trkpt>
      <trkpt lat="40.0950150" lon="-4.7165230">
        <ele>597.9</ele>
        <time>2020-10-04T08:30:53Z</time>
      </trkpt>
      <trkpt lat="40.0950360" lon="-4.7165710">
        <ele>598.4</ele>
        <time>2020-10-04T08:30:55Z</time>
      </trkpt>
      <trkpt lat="40.0950650" lon="-4.7165990">
        <ele>598.8</ele>
        <time>2020-10-04T08:30:56Z</time>
      </trkpt>
      <trkpt lat="40.0950770" lon="-4.7166070">
        <ele>599.0</ele>
        <time>2020-10-04T08:30:57Z</time>
      </trkpt>
      <trkpt lat="40.0950930" lon="-4.7166260">
        <ele>599.2</ele>
        <time>2020-10-04T08:30:58Z</time>
      </trkpt>
      <trkpt lat="40.0951230" lon="-4.7166530">
        <ele>599.6</ele>
        <time>2020-10-04T08:31:00Z</time>
      </trkpt>
      <trkpt lat="40.0951640" lon="-4.7166790">
        <ele>600.1</ele>
        <time>2020-10-04T08:31:02Z</time>
      </trkpt>
      <trkpt lat="40.0951960" lon="-4.7166980">
        <ele>600.5</ele>
        <time>2020-10-04T08:31:03Z</time>
      </trkpt>
      <trkpt lat="40.0952330" lon="-4.7167240">
        <ele>601.0</ele>
        <time>2020-10-04T08:31:04Z</time>
      </trkpt>
      <trkpt lat="40.0952470" lon="-4.7167330">
        <ele>601.1</ele>
        <time>2020-10-04T08:31:05Z</time>
      </trkpt>
      <trkpt lat="40.0952850" lon="-4.7167490">
        <ele>601.5</ele>
        <time>2020-10-04T08:31:07Z</time>
      </trkpt>
      <trkpt lat="40.0952980" lon="-4.7167560">
        <ele>601.6</ele>
        <time>2020-10-04T08:31:08Z</time>
      </trkpt>
      <trkpt lat="40.0953300" lon="-4.7167730">
        <ele>602.0</ele>
        <time>2020-10-04T08:31:09Z</time>
      </trkpt>
      <trkpt lat="40.0953400" lon="-4.7167790">
        <ele>602.0</ele>
        <time>2020-10-04T08:31:10Z</time>
      </trkpt>
      <trkpt lat="40.0953720" lon="-4.7167940">
        <ele>602.3</ele>
        <time>2020-10-04T08:31:11Z</time>
      </trkpt>
      <trkpt lat="40.0953820" lon="-4.7167980">
        <ele>602.4</ele>
        <time>2020-10-04T08:31:12Z</time>
      </trkpt>
      <trkpt lat="40.0954110" lon="-4.7168100">
        <ele>602.6</ele>
        <time>2020-10-04T08:31:14Z</time>
      </trkpt>
      <trkpt lat="40.0954180" lon="-4.7168140">
        <ele>602.7</ele>
        <time>2020-10-04T08:31:15Z</time>
      </trkpt>
      <trkpt lat="40.0954330" lon="-4.7168250">
        <ele>602.8</ele>
        <time>2020-10-04T08:31:16Z</time>
      </trkpt>
      <trkpt lat="40.0954460" lon="-4.7168340">
        <ele>602.9</ele>
        <time>2020-10-04T08:31:17Z</time>
      </trkpt>
      <trkpt lat="40.0954720" lon="-4.7168490">
        <ele>603.1</ele>
        <time>2020-10-04T08:31:18Z</time>
      </trkpt>
      <trkpt lat="40.0955060" lon="-4.7168640">
        <ele>603.3</ele>
        <time>2020-10-04T08:31:20Z</time>
      </trkpt>
      <trkpt lat="40.0955150" lon="-4.7168680">
        <ele>603.3</ele>
        <time>2020-10-04T08:31:21Z</time>
      </trkpt>
      <trkpt lat="40.0955470" lon="-4.7168850">
        <ele>603.5</ele>
        <time>2020-10-04T08:31:23Z</time>
      </trkpt>
      <trkpt lat="40.0955560" lon="-4.7168910">
        <ele>603.5</ele>
        <time>2020-10-04T08:31:24Z</time>
      </trkpt>
      <trkpt lat="40.0955920" lon="-4.7169130">
        <ele>603.7</ele>
        <time>2020-10-04T08:31:25Z</time>
      </trkpt>
      <trkpt lat="40.0956200" lon="-4.7169270">
        <ele>603.8</ele>
        <time>2020-10-04T08:31:27Z</time>
      </trkpt>
      <trkpt lat="40.0956270" lon="-4.7169330">
        <ele>603.9</ele>
        <time>2020-10-04T08:31:28Z</time>
      </trkpt>
      <trkpt lat="40.0956660" lon="-4.7169520">
        <ele>604.1</ele>
        <time>2020-10-04T08:31:30Z</time>
      </trkpt>
      <trkpt lat="40.0957000" lon="-4.7169710">
        <ele>604.2</ele>
        <time>2020-10-04T08:31:31Z</time>
      </trkpt>
      <trkpt lat="40.0957460" lon="-4.7170060">
        <ele>604.5</ele>
        <time>2020-10-04T08:31:33Z</time>
      </trkpt>
      <trkpt lat="40.0957610" lon="-4.7170220">
        <ele>604.6</ele>
        <time>2020-10-04T08:31:34Z</time>
      </trkpt>
      <trkpt lat="40.0957770" lon="-4.7170380">
        <ele>604.7</ele>
        <time>2020-10-04T08:31:35Z</time>
      </trkpt>
      <trkpt lat="40.0958020" lon="-4.7170660">
        <ele>604.9</ele>
        <time>2020-10-04T08:31:36Z</time>
      </trkpt>
      <trkpt lat="40.0958190" lon="-4.7170830">
        <ele>605.0</ele>
        <time>2020-10-04T08:31:37Z</time>
      </trkpt>
      <trkpt lat="40.0958360" lon="-4.7171030">
        <ele>605.1</ele>
        <time>2020-10-04T08:31:39Z</time>
      </trkpt>
      <trkpt lat="40.0958630" lon="-4.7171260">
        <ele>605.3</ele>
        <time>2020-10-04T08:31:40Z</time>
      </trkpt>
      <trkpt lat="40.0958710" lon="-4.7171340">
        <ele>605.4</ele>
        <time>2020-10-04T08:31:41Z</time>
      </trkpt>
      <trkpt lat="40.0958960" lon="-4.7171610">
        <ele>605.5</ele>
        <time>2020-10-04T08:31:42Z</time>
      </trkpt>
      <trkpt lat="40.0959060" lon="-4.7171740">
        <ele>605.6</ele>
        <time>2020-10-04T08:31:43Z</time>
      </trkpt>
      <trkpt lat="40.0959260" lon="-4.7172080">
        <ele>605.8</ele>
        <time>2020-10-04T08:31:44Z</time>
      </trkpt>
      <trkpt lat="40.0959330" lon="-4.7172200">
        <ele>605.9</ele>
        <time>2020-10-04T08:31:45Z</time>
      </trkpt>
      <trkpt lat="40.0959470" lon="-4.7172750">
        <ele>606.1</ele>
        <time>2020-10-04T08:31:47Z</time>
      </trkpt>
      <trkpt lat="40.0959490" lon="-4.7172990">
        <ele>606.2</ele>
        <time>2020-10-04T08:31:48Z</time>
      </trkpt>
      <trkpt lat="40.0959590" lon="-4.7173420">
        <ele>606.4</ele>
        <time>2020-10-04T08:31:50Z</time>
      </trkpt>
      <trkpt lat="40.0959690" lon="-4.7173850">
        <ele>606.6</ele>
        <time>2020-10-04T08:31:51Z</time>
      </trkpt>
      <trkpt lat="40.0959820" lon="-4.7174200">
        <ele>606.7</ele>
        <time>2020-10-04T08:31:52Z</time>
      </trkpt>
      <trkpt lat="40.0960020" lon="-4.7174600">
        <ele>606.9</ele>
        <time>2020-10-04T08:31:53Z</time>
      </trkpt>
      <trkpt lat="40.0960230" lon="-4.7174870">
        <ele>607.1</ele>
        <time>2020-10-04T08:31:55Z</time>
      </trkpt>
      <trkpt lat="40.0960450" lon="-4.7175120">
        <ele>607.3</ele>
        <time>2020-10-04T08:31:56Z</time>
      </trkpt>
      <trkpt lat="40.0960780" lon="-4.7175400">
        <ele>607.5</ele>
        <time>2020-10-04T08:31:57Z</time>
      </trkpt>
      <trkpt lat="40.0960900" lon="-4.7175500">
        <ele>607.6</ele>
        <time>2020-10-04T08:31:58Z</time>
      </trkpt>
      <trkpt lat="40.0961140" lon="-4.7175680">
        <ele>607.8</ele>
        <time>2020-10-04T08:31:59Z</time>
      </trkpt>
      <trkpt lat="40.0961540" lon="-4.7175990">
        <ele>608.1</ele>
        <time>2020-10-04T08:32:00Z</time>
      </trkpt>
      <trkpt lat="40.0961720" lon="-4.7176140">
        <ele>608.3</ele>
        <time>2020-10-04T08:32:01Z</time>
      </trkpt>
      <trkpt lat="40.0962080" lon="-4.7176370">
        <ele>608.6</ele>
        <time>2020-10-04T08:32:03Z</time>
      </trkpt>
      <trkpt lat="40.0962350" lon="-4.7176520">
        <ele>608.9</ele>
        <time>2020-10-04T08:32:04Z</time>
      </trkpt>
      <trkpt lat="40.0962670" lon="-4.7176740">
        <ele>609.2</ele>
        <time>2020-10-04T08:32:05Z</time>
      </trkpt>
      <trkpt lat="40.0962790" lon="-4.7176840">
        <ele>609.3</ele>
        <time>2020-10-04T08:32:06Z</time>
      </trkpt>
      <trkpt lat="40.0963000" lon="-4.7176970">
        <ele>609.5</ele>
        <time>2020-10-04T08:32:07Z</time>
      </trkpt>
      <trkpt lat="40.0963240" lon="-4.7177120">
        <ele>609.8</ele>
        <time>2020-10-04T08:32:09Z</time>
      </trkpt>
      <trkpt lat="40.0963540" lon="-4.7177290">
        <ele>610.0</ele>
        <time>2020-10-04T08:32:10Z</time>
      </trkpt>
      <trkpt lat="40.0963630" lon="-4.7177360">
        <ele>610.1</ele>
        <time>2020-10-04T08:32:11Z</time>
      </trkpt>
      <trkpt lat="40.0964010" lon="-4.7177650">
        <ele>610.5</ele>
        <time>2020-10-04T08:32:12Z</time>
      </trkpt>
      <trkpt lat="40.0964190" lon="-4.7177810">
        <ele>610.7</ele>
        <time>2020-10-04T08:32:13Z</time>
      </trkpt>
      <trkpt lat="40.0964520" lon="-4.7177990">
        <ele>611.0</ele>
        <time>2020-10-04T08:32:15Z</time>
      </trkpt>
      <trkpt lat="40.0964820" lon="-4.7178140">
        <ele>611.2</ele>
        <time>2020-10-04T08:32:16Z</time>
      </trkpt>
      <trkpt lat="40.0965250" lon="-4.7178340">
        <ele>611.5</ele>
        <time>2020-10-04T08:32:18Z</time>
      </trkpt>
      <trkpt lat="40.0965410" lon="-4.7178390">
        <ele>611.6</ele>
        <time>2020-10-04T08:32:19Z</time>
      </trkpt>
      <trkpt lat="40.0965560" lon="-4.7178450">
        <ele>611.6</ele>
        <time>2020-10-04T08:32:20Z</time>
      </trkpt>
      <trkpt lat="40.0965830" lon="-4.7178550">
        <ele>611.7</ele>
        <time>2020-10-04T08:32:21Z</time>
      </trkpt>
      <trkpt lat="40.0966240" lon="-4.7178690">
        <ele>611.9</ele>
        <time>2020-10-04T08:32:22Z</time>
      </trkpt>
      <trkpt lat="40.0966550" lon="-4.7178820">
        <ele>612.0</ele>
        <time>2020-10-04T08:32:24Z</time>
      </trkpt>
      <trkpt lat="40.0967010" lon="-4.7179030">
        <ele>612.1</ele>
        <time>2020-10-04T08:32:26Z</time>
      </trkpt>
      <trkpt lat="40.0967300" lon="-4.7179160">
        <ele>612.2</ele>
        <time>2020-10-04T08:32:27Z</time>
      </trkpt>
      <trkpt lat="40.0967570" lon="-4.7179330">
        <ele>612.2</ele>
        <time>2020-10-04T08:32:28Z</time>
      </trkpt>
      <trkpt lat="40.0967980" lon="-4.7179510">
        <ele>612.3</ele>
        <time>2020-10-04T08:32:30Z</time>
      </trkpt>
      <trkpt lat="40.0968380" lon="-4.7179630">
        <ele>612.3</ele>
        <time>2020-10-04T08:32:31Z</time>
      </trkpt>
      <trkpt lat="40.0968640" lon="-4.7179690">
        <ele>612.3</ele>
        <time>2020-10-04T08:32:32Z</time>
      </trkpt>
      <trkpt lat="40.0968940" lon="-4.7179760">
        <ele>612.3</ele>
        <time>2020-10-04T08:32:34Z</time>
      </trkpt>
      <trkpt lat="40.0969230" lon="-4.7179860">
        <ele>612.4</ele>
        <time>2020-10-04T08:32:35Z</time>
      </trkpt>
      <trkpt lat="40.0969830" lon="-4.7180000">
        <ele>612.6</ele>
        <time>2020-10-04T08:32:37Z</time>
      </trkpt>
      <trkpt lat="40.0970230" lon="-4.7180200">
        <ele>612.8</ele>
        <time>2020-10-04T08:32:38Z</time>
      </trkpt>
      <trkpt lat="40.0970680" lon="-4.7180360">
        <ele>613.0</ele>
        <time>2020-10-04T08:32:39Z</time>
      </trkpt>
      <trkpt lat="40.0971030" lon="-4.7180500">
        <ele>613.2</ele>
        <time>2020-10-04T08:32:41Z</time>
      </trkpt>
      <trkpt lat="40.0971310" lon="-4.7180600">
        <ele>613.3</ele>
        <time>2020-10-04T08:32:42Z</time>
      </trkpt>
      <trkpt lat="40.0971830" lon="-4.7180750">
        <ele>613.6</ele>
        <time>2020-10-04T08:32:44Z</time>
      </trkpt>
      <trkpt lat="40.0972140" lon="-4.7180790">
        <ele>613.8</ele>
        <time>2020-10-04T08:32:45Z</time>
      </trkpt>
      <trkpt lat="40.0972440" lon="-4.7180760">
        <ele>614.1</ele>
        <time>2020-10-04T08:32:46Z</time>
      </trkpt>
      <trkpt lat="40.0973000" lon="-4.7180550">
        <ele>614.5</ele>
        <time>2020-10-04T08:32:48Z</time>
      </trkpt>
      <trkpt lat="40.0973480" lon="-4.7180390">
        <ele>615.0</ele>
        <time>2020-10-04T08:32:49Z</time>
      </trkpt>
      <trkpt lat="40.0973800" lon="-4.7180270">
        <ele>615.3</ele>
        <time>2020-10-04T08:32:51Z</time>
      </trkpt>
      <trkpt lat="40.0974110" lon="-4.7180200">
        <ele>615.5</ele>
        <time>2020-10-04T08:32:52Z</time>
      </trkpt>
      <trkpt lat="40.0974400" lon="-4.7180160">
        <ele>615.8</ele>
        <time>2020-10-04T08:32:53Z</time>
      </trkpt>
      <trkpt lat="40.0974860" lon="-4.7180210">
        <ele>616.2</ele>
        <time>2020-10-04T08:32:55Z</time>
      </trkpt>
      <trkpt lat="40.0975080" lon="-4.7180290">
        <ele>616.3</ele>
        <time>2020-10-04T08:32:56Z</time>
      </trkpt>
      <trkpt lat="40.0975410" lon="-4.7180480">
        <ele>616.6</ele>
        <time>2020-10-04T08:32:58Z</time>
      </trkpt>
      <trkpt lat="40.0975870" lon="-4.7180790">
        <ele>617.0</ele>
        <time>2020-10-04T08:33:00Z</time>
      </trkpt>
      <trkpt lat="40.0976020" lon="-4.7180890">
        <ele>617.1</ele>
        <time>2020-10-04T08:33:01Z</time>
      </trkpt>
      <trkpt lat="40.0976170" lon="-4.7181000">
        <ele>617.2</ele>
        <time>2020-10-04T08:33:02Z</time>
      </trkpt>
      <trkpt lat="40.0976370" lon="-4.7181150">
        <ele>617.4</ele>
        <time>2020-10-04T08:33:03Z</time>
      </trkpt>
      <trkpt lat="40.0976650" lon="-4.7181390">
        <ele>617.6</ele>
        <time>2020-10-04T08:33:05Z</time>
      </trkpt>
      <trkpt lat="40.0976910" lon="-4.7181640">
        <ele>617.8</ele>
        <time>2020-10-04T08:33:06Z</time>
      </trkpt>
      <trkpt lat="40.0976990" lon="-4.7181740">
        <ele>617.9</ele>
        <time>2020-10-04T08:33:07Z</time>
      </trkpt>
      <trkpt lat="40.0977220" lon="-4.7182000">
        <ele>618.1</ele>
        <time>2020-10-04T08:33:08Z</time>
      </trkpt>
      <trkpt lat="40.0977420" lon="-4.7182220">
        <ele>618.2</ele>
        <time>2020-10-04T08:33:09Z</time>
      </trkpt>
      <trkpt lat="40.0977850" lon="-4.7182850">
        <ele>618.5</ele>
        <time>2020-10-04T08:33:11Z</time>
      </trkpt>
      <trkpt lat="40.0978070" lon="-4.7183240">
        <ele>618.7</ele>
        <time>2020-10-04T08:33:13Z</time>
      </trkpt>
      <trkpt lat="40.0978250" lon="-4.7183520">
        <ele>618.8</ele>
        <time>2020-10-04T08:33:14Z</time>
      </trkpt>
      <trkpt lat="40.0978480" lon="-4.7183780">
        <ele>619.0</ele>
        <time>2020-10-04T08:33:15Z</time>
      </trkpt>
      <trkpt lat="40.0978770" lon="-4.7184080">
        <ele>619.1</ele>
        <time>2020-10-04T08:33:17Z</time>
      </trkpt>
      <trkpt lat="40.0979080" lon="-4.7184390">
        <ele>619.2</ele>
        <time>2020-10-04T08:33:18Z</time>
      </trkpt>
      <trkpt lat="40.0979180" lon="-4.7184540">
        <ele>619.2</ele>
        <time>2020-10-04T08:33:19Z</time>
      </trkpt>
      <trkpt lat="40.0979370" lon="-4.7184820">
        <ele>619.3</ele>
        <time>2020-10-04T08:33:21Z</time>
      </trkpt>
      <trkpt lat="40.0979510" lon="-4.7185050">
        <ele>619.4</ele>
        <time>2020-10-04T08:33:22Z</time>
      </trkpt>
      <trkpt lat="40.0979650" lon="-4.7185460">
        <ele>619.5</ele>
        <time>2020-10-04T08:33:24Z</time>
      </trkpt>
      <trkpt lat="40.0979730" lon="-4.7186010">
        <ele>619.6</ele>
        <time>2020-10-04T08:33:26Z</time>
      </trkpt>
      <trkpt lat="40.0979760" lon="-4.7186380">
        <ele>619.6</ele>
        <time>2020-10-04T08:33:27Z</time>
      </trkpt>
      <trkpt lat="40.0979820" lon="-4.7186870">
        <ele>619.7</ele>
        <time>2020-10-04T08:33:28Z</time>
      </trkpt>
      <trkpt lat="40.0979890" lon="-4.7187320">
        <ele>619.8</ele>
        <time>2020-10-04T08:33:29Z</time>
      </trkpt>
      <trkpt lat="40.0980070" lon="-4.7188130">
        <ele>620.1</ele>
        <time>2020-10-04T08:33:31Z</time>
      </trkpt>
      <trkpt lat="40.0980180" lon="-4.7188530">
        <ele>620.2</ele>
        <time>2020-10-04T08:33:32Z</time>
      </trkpt>
      <trkpt lat="40.0980320" lon="-4.7188940">
        <ele>620.4</ele>
        <time>2020-10-04T08:33:33Z</time>
      </trkpt>
      <trkpt lat="40.0980460" lon="-4.7189310">
        <ele>620.5</ele>
        <time>2020-10-04T08:33:34Z</time>
      </trkpt>
      <trkpt lat="40.0980750" lon="-4.7189980">
        <ele>620.8</ele>
        <time>2020-10-04T08:33:36Z</time>
      </trkpt>
      <trkpt lat="40.0981010" lon="-4.7190370">
        <ele>621.0</ele>
        <time>2020-10-04T08:33:37Z</time>
      </trkpt>
      <trkpt lat="40.0981200" lon="-4.7190630">
        <ele>621.2</ele>
        <time>2020-10-04T08:33:38Z</time>
      </trkpt>
      <trkpt lat="40.0981400" lon="-4.7190940">
        <ele>621.4</ele>
        <time>2020-10-04T08:33:39Z</time>
      </trkpt>
      <trkpt lat="40.0981570" lon="-4.7191200">
        <ele>621.6</ele>
        <time>2020-10-04T08:33:40Z</time>
      </trkpt>
      <trkpt lat="40.0981800" lon="-4.7191600">
        <ele>621.9</ele>
        <time>2020-10-04T08:33:42Z</time>
      </trkpt>
      <trkpt lat="40.0982090" lon="-4.7192040">
        <ele>622.2</ele>
        <time>2020-10-04T08:33:43Z</time>
      </trkpt>
      <trkpt lat="40.0982330" lon="-4.7192350">
        <ele>622.5</ele>
        <time>2020-10-04T08:33:45Z</time>
      </trkpt>
      <trkpt lat="40.0982500" lon="-4.7192640">
        <ele>622.7</ele>
        <time>2020-10-04T08:33:46Z</time>
      </trkpt>
      <trkpt lat="40.0982650" lon="-4.7192890">
        <ele>622.9</ele>
        <time>2020-10-04T08:33:47Z</time>
      </trkpt>
      <trkpt lat="40.0982920" lon="-4.7193370">
        <ele>623.2</ele>
        <time>2020-10-04T08:33:49Z</time>
      </trkpt>
      <trkpt lat="40.0983180" lon="-4.7193640">
        <ele>623.5</ele>
        <time>2020-10-04T08:33:50Z</time>
      </trkpt>
      <trkpt lat="40.0983560" lon="-4.7193940">
        <ele>623.8</ele>
        <time>2020-10-04T08:33:52Z</time>
      </trkpt>
      <trkpt lat="40.0983800" lon="-4.7194120">
        <ele>624.0</ele>
        <time>2020-10-04T08:33:53Z</time>
      </trkpt>
      <trkpt lat="40.0984260" lon="-4.7194470">
        <ele>624.4</ele>
        <time>2020-10-04T08:33:55Z</time>
      </trkpt>
      <trkpt lat="40.0984530" lon="-4.7194690">
        <ele>624.6</ele>
        <time>2020-10-04T08:33:56Z</time>
      </trkpt>
      <trkpt lat="40.0984990" lon="-4.7194910">
        <ele>625.0</ele>
        <time>2020-10-04T08:33:58Z</time>
      </trkpt>
      <trkpt lat="40.0985350" lon="-4.7194980">
        <ele>625.2</ele>
        <time>2020-10-04T08:33:59Z</time>
      </trkpt>
      <trkpt lat="40.0985690" lon="-4.7195060">
        <ele>625.5</ele>
        <time>2020-10-04T08:34:00Z</time>
      </trkpt>
      <trkpt lat="40.0985980" lon="-4.7195120">
        <ele>625.7</ele>
        <time>2020-10-04T08:34:01Z</time>
      </trkpt>
      <trkpt lat="40.0986470" lon="-4.7195140">
        <ele>626.0</ele>
        <time>2020-10-04T08:34:03Z</time>
      </trkpt>
      <trkpt lat="40.0986780" lon="-4.7195080">
        <ele>626.2</ele>
        <time>2020-10-04T08:34:04Z</time>
      </trkpt>
      <trkpt lat="40.0987250" lon="-4.7195000">
        <ele>626.5</ele>
        <time>2020-10-04T08:34:06Z</time>
      </trkpt>
      <trkpt lat="40.0987590" lon="-4.7194880">
        <ele>626.8</ele>
        <time>2020-10-04T08:34:07Z</time>
      </trkpt>
      <trkpt lat="40.0987880" lon="-4.7194820">
        <ele>627.0</ele>
        <time>2020-10-04T08:34:08Z</time>
      </trkpt>
      <trkpt lat="40.0988390" lon="-4.7194730">
        <ele>627.3</ele>
        <time>2020-10-04T08:34:10Z</time>
      </trkpt>
      <trkpt lat="40.0988650" lon="-4.7194680">
        <ele>627.5</ele>
        <time>2020-10-04T08:34:11Z</time>
      </trkpt>
      <trkpt lat="40.0989080" lon="-4.7194570">
        <ele>627.8</ele>
        <time>2020-10-04T08:34:13Z</time>
      </trkpt>
      <trkpt lat="40.0989340" lon="-4.7194530">
        <ele>628.0</ele>
        <time>2020-10-04T08:34:14Z</time>
      </trkpt>
      <trkpt lat="40.0989740" lon="-4.7194460">
        <ele>628.3</ele>
        <time>2020-10-04T08:34:16Z</time>
      </trkpt>
      <trkpt lat="40.0990080" lon="-4.7194450">
        <ele>628.6</ele>
        <time>2020-10-04T08:34:17Z</time>
      </trkpt>
      <trkpt lat="40.0990190" lon="-4.7194440">
        <ele>628.7</ele>
        <time>2020-10-04T08:34:18Z</time>
      </trkpt>
      <trkpt lat="40.0990470" lon="-4.7194410">
        <ele>628.9</ele>
        <time>2020-10-04T08:34:19Z</time>
      </trkpt>
      <trkpt lat="40.0990670" lon="-4.7194370">
        <ele>629.0</ele>
        <time>2020-10-04T08:34:20Z</time>
      </trkpt>
      <trkpt lat="40.0990900" lon="-4.7194290">
        <ele>629.2</ele>
        <time>2020-10-04T08:34:22Z</time>
      </trkpt>
      <trkpt lat="40.0991260" lon="-4.7194250">
        <ele>629.5</ele>
        <time>2020-10-04T08:34:23Z</time>
      </trkpt>
      <trkpt lat="40.0991410" lon="-4.7194260">
        <ele>629.6</ele>
        <time>2020-10-04T08:34:24Z</time>
      </trkpt>
      <trkpt lat="40.0991790" lon="-4.7194410">
        <ele>629.8</ele>
        <time>2020-10-04T08:34:25Z</time>
      </trkpt>
      <trkpt lat="40.0991920" lon="-4.7194480">
        <ele>629.9</ele>
        <time>2020-10-04T08:34:26Z</time>
      </trkpt>
      <trkpt lat="40.0992260" lon="-4.7194680">
        <ele>630.1</ele>
        <time>2020-10-04T08:34:28Z</time>
      </trkpt>
      <trkpt lat="40.0992590" lon="-4.7194950">
        <ele>630.3</ele>
        <time>2020-10-04T08:34:29Z</time>
      </trkpt>
      <trkpt lat="40.0992990" lon="-4.7195270">
        <ele>630.6</ele>
        <time>2020-10-04T08:34:30Z</time>
      </trkpt>
      <trkpt lat="40.0993370" lon="-4.7195680">
        <ele>630.9</ele>
        <time>2020-10-04T08:34:32Z</time>
      </trkpt>
      <trkpt lat="40.0993680" lon="-4.7195980">
        <ele>631.1</ele>
        <time>2020-10-04T08:34:33Z</time>
      </trkpt>
      <trkpt lat="40.0993780" lon="-4.7196100">
        <ele>631.2</ele>
        <time>2020-10-04T08:34:34Z</time>
      </trkpt>
      <trkpt lat="40.0994040" lon="-4.7196370">
        <ele>631.3</ele>
        <time>2020-10-04T08:34:35Z</time>
      </trkpt>
      <trkpt lat="40.0994330" lon="-4.7196690">
        <ele>631.5</ele>
        <time>2020-10-04T08:34:37Z</time>
      </trkpt>
      <trkpt lat="40.0994570" lon="-4.7196940">
        <ele>631.7</ele>
        <time>2020-10-04T08:34:38Z</time>
      </trkpt>
      <trkpt lat="40.0994900" lon="-4.7197190">
        <ele>631.8</ele>
        <time>2020-10-04T08:34:39Z</time>
      </trkpt>
      <trkpt lat="40.0995200" lon="-4.7197440">
        <ele>631.9</ele>
        <time>2020-10-04T08:34:40Z</time>
      </trkpt>
      <trkpt lat="40.0995530" lon="-4.7197720">
        <ele>632.1</ele>
        <time>2020-10-04T08:34:41Z</time>
      </trkpt>
      <trkpt lat="40.0995930" lon="-4.7198060">
        <ele>632.2</ele>
        <time>2020-10-04T08:34:43Z</time>
      </trkpt>
      <trkpt lat="40.0996170" lon="-4.7198230">
        <ele>632.3</ele>
        <time>2020-10-04T08:34:44Z</time>
      </trkpt>
      <trkpt lat="40.0996530" lon="-4.7198500">
        <ele>632.4</ele>
        <time>2020-10-04T08:34:46Z</time>
      </trkpt>
      <trkpt lat="40.0996960" lon="-4.7198800">
        <ele>632.6</ele>
        <time>2020-10-04T08:34:47Z</time>
      </trkpt>
      <trkpt lat="40.0997230" lon="-4.7199030">
        <ele>632.6</ele>
        <time>2020-10-04T08:34:48Z</time>
      </trkpt>
      <trkpt lat="40.0997560" lon="-4.7199390">
        <ele>632.8</ele>
        <time>2020-10-04T08:34:50Z</time>
      </trkpt>
      <trkpt lat="40.0997800" lon="-4.7199690">
        <ele>632.9</ele>
        <time>2020-10-04T08:34:51Z</time>
      </trkpt>
      <trkpt lat="40.0998100" lon="-4.7200200">
        <ele>633.0</ele>
        <time>2020-10-04T08:34:53Z</time>
      </trkpt>
      <trkpt lat="40.0998300" lon="-4.7200610">
        <ele>633.1</ele>
        <time>2020-10-04T08:34:54Z</time>
      </trkpt>
      <trkpt lat="40.0998540" lon="-4.7201070">
        <ele>633.2</ele>
        <time>2020-10-04T08:34:56Z</time>
      </trkpt>
      <trkpt lat="40.0998760" lon="-4.7201510">
        <ele>633.3</ele>
        <time>2020-10-04T08:34:57Z</time>
      </trkpt>
      <trkpt lat="40.0998990" lon="-4.7201960">
        <ele>633.4</ele>
        <time>2020-10-04T08:34:59Z</time>
      </trkpt>
      <trkpt lat="40.0999240" lon="-4.7202340">
        <ele>633.5</ele>
        <time>2020-10-04T08:35:00Z</time>
      </trkpt>
      <trkpt lat="40.0999620" lon="-4.7202790">
        <ele>633.7</ele>
        <time>2020-10-04T08:35:02Z</time>
      </trkpt>
      <trkpt lat="40.0999890" lon="-4.7203030">
        <ele>633.8</ele>
        <time>2020-10-04T08:35:03Z</time>
      </trkpt>
      <trkpt lat="40.1000240" lon="-4.7203340">
        <ele>633.9</ele>
        <time>2020-10-04T08:35:04Z</time>
      </trkpt>
      <trkpt lat="40.1000550" lon="-4.7203620">
        <ele>634.0</ele>
        <time>2020-10-04T08:35:05Z</time>
      </trkpt>
      <trkpt lat="40.1000860" lon="-4.7203930">
        <ele>634.2</ele>
        <time>2020-10-04T08:35:06Z</time>
      </trkpt>
      <trkpt lat="40.1001230" lon="-4.7204370">
        <ele>634.3</ele>
        <time>2020-10-04T08:35:08Z</time>
      </trkpt>
      <trkpt lat="40.1001460" lon="-4.7204710">
        <ele>634.3</ele>
        <time>2020-10-04T08:35:09Z</time>
      </trkpt>
      <trkpt lat="40.1001700" lon="-4.7205050">
        <ele>634.4</ele>
        <time>2020-10-04T08:35:10Z</time>
      </trkpt>
      <trkpt lat="40.1001890" lon="-4.7205350">
        <ele>634.4</ele>
        <time>2020-10-04T08:35:11Z</time>
      </trkpt>
      <trkpt lat="40.1002090" lon="-4.7205620">
        <ele>634.3</ele>
        <time>2020-10-04T08:35:12Z</time>
      </trkpt>
      <trkpt lat="40.1002290" lon="-4.7205930">
        <ele>634.3</ele>
        <time>2020-10-04T08:35:13Z</time>
      </trkpt>
      <trkpt lat="40.1002490" lon="-4.7206160">
        <ele>634.3</ele>
        <time>2020-10-04T08:35:14Z</time>
      </trkpt>
      <trkpt lat="40.1002820" lon="-4.7206430">
        <ele>634.2</ele>
        <time>2020-10-04T08:35:16Z</time>
      </trkpt>
      <trkpt lat="40.1003300" lon="-4.7206710">
        <ele>634.1</ele>
        <time>2020-10-04T08:35:17Z</time>
      </trkpt>
      <trkpt lat="40.1003780" lon="-4.7207010">
        <ele>634.0</ele>
        <time>2020-10-04T08:35:18Z</time>
      </trkpt>
      <trkpt lat="40.1004210" lon="-4.7207290">
        <ele>634.0</ele>
        <time>2020-10-04T08:35:19Z</time>
      </trkpt>
      <trkpt lat="40.1004650" lon="-4.7207580">
        <ele>633.9</ele>
        <time>2020-10-04T08:35:21Z</time>
      </trkpt>
      <trkpt lat="40.1005120" lon="-4.7207890">
        <ele>633.9</ele>
        <time>2020-10-04T08:35:22Z</time>
      </trkpt>
      <trkpt lat="40.1006020" lon="-4.7208360">
        <ele>633.8</ele>
        <time>2020-10-04T08:35:24Z</time>
      </trkpt>
      <trkpt lat="40.1006750" lon="-4.7208750">
        <ele>634.1</ele>
        <time>2020-10-04T08:35:26Z</time>
      </trkpt>
      <trkpt lat="40.1007440" lon="-4.7209350">
        <ele>634.3</ele>
        <time>2020-10-04T08:35:28Z</time>
      </trkpt>
      <trkpt lat="40.1007860" lon="-4.7209840">
        <ele>634.4</ele>
        <time>2020-10-04T08:35:29Z</time>
      </trkpt>
      <trkpt lat="40.1008150" lon="-4.7210130">
        <ele>634.5</ele>
        <time>2020-10-04T08:35:30Z</time>
      </trkpt>
      <trkpt lat="40.1008410" lon="-4.7210390">
        <ele>634.5</ele>
        <time>2020-10-04T08:35:31Z</time>
      </trkpt>
      <trkpt lat="40.1008910" lon="-4.7210860">
        <ele>634.7</ele>
        <time>2020-10-04T08:35:33Z</time>
      </trkpt>
      <trkpt lat="40.1009330" lon="-4.7211200">
        <ele>634.8</ele>
        <time>2020-10-04T08:35:34Z</time>
      </trkpt>
      <trkpt lat="40.1009670" lon="-4.7211410">
        <ele>634.9</ele>
        <time>2020-10-04T08:35:35Z</time>
      </trkpt>
      <trkpt lat="40.1010020" lon="-4.7211570">
        <ele>635.0</ele>
        <time>2020-10-04T08:35:37Z</time>
      </trkpt>
      <trkpt lat="40.1010400" lon="-4.7211820">
        <ele>635.1</ele>
        <time>2020-10-04T08:35:38Z</time>
      </trkpt>
      <trkpt lat="40.1011020" lon="-4.7212090">
        <ele>635.2</ele>
        <time>2020-10-04T08:35:40Z</time>
      </trkpt>
      <trkpt lat="40.1011400" lon="-4.7212300">
        <ele>635.3</ele>
        <time>2020-10-04T08:35:41Z</time>
      </trkpt>
      <trkpt lat="40.1011690" lon="-4.7212420">
        <ele>635.4</ele>
        <time>2020-10-04T08:35:43Z</time>
      </trkpt>
      <trkpt lat="40.1012110" lon="-4.7212490">
        <ele>635.5</ele>
        <time>2020-10-04T08:35:44Z</time>
      </trkpt>
      <trkpt lat="40.1012420" lon="-4.7212500">
        <ele>635.6</ele>
        <time>2020-10-04T08:35:45Z</time>
      </trkpt>
      <trkpt lat="40.1012710" lon="-4.7212490">
        <ele>635.7</ele>
        <time>2020-10-04T08:35:46Z</time>
      </trkpt>
      <trkpt lat="40.1013220" lon="-4.7212200">
        <ele>635.9</ele>
        <time>2020-10-04T08:35:47Z</time>
      </trkpt>
      <trkpt lat="40.1013630" lon="-4.7211940">
        <ele>636.0</ele>
        <time>2020-10-04T08:35:49Z</time>
      </trkpt>
      <trkpt lat="40.1013920" lon="-4.7211750">
        <ele>636.2</ele>
        <time>2020-10-04T08:35:50Z</time>
      </trkpt>
      <trkpt lat="40.1014250" lon="-4.7211470">
        <ele>636.3</ele>
        <time>2020-10-04T08:35:51Z</time>
      </trkpt>
      <trkpt lat="40.1014540" lon="-4.7211230">
        <ele>636.5</ele>
        <time>2020-10-04T08:35:53Z</time>
      </trkpt>
      <trkpt lat="40.1014780" lon="-4.7211020">
        <ele>636.6</ele>
        <time>2020-10-04T08:35:54Z</time>
      </trkpt>
      <trkpt lat="40.1015220" lon="-4.7210660">
        <ele>637.0</ele>
        <time>2020-10-04T08:35:56Z</time>
      </trkpt>
      <trkpt lat="40.1015490" lon="-4.7210440">
        <ele>637.2</ele>
        <time>2020-10-04T08:35:57Z</time>
      </trkpt>
      <trkpt lat="40.1015740" lon="-4.7210230">
        <ele>637.4</ele>
        <time>2020-10-04T08:35:58Z</time>
      </trkpt>
      <trkpt lat="40.1016060" lon="-4.7210040">
        <ele>637.7</ele>
        <time>2020-10-04T08:35:59Z</time>
      </trkpt>
      <trkpt lat="40.1016510" lon="-4.7209980">
        <ele>638.1</ele>
        <time>2020-10-04T08:36:01Z</time>
      </trkpt>
      <trkpt lat="40.1016920" lon="-4.7209910">
        <ele>638.4</ele>
        <time>2020-10-04T08:36:02Z</time>
      </trkpt>
      <trkpt lat="40.1017270" lon="-4.7209870">
        <ele>638.7</ele>
        <time>2020-10-04T08:36:04Z</time>
      </trkpt>
      <trkpt lat="40.1017590" lon="-4.7209950">
        <ele>639.0</ele>
        <time>2020-10-04T08:36:05Z</time>
      </trkpt>
      <trkpt lat="40.1017930" lon="-4.7210000">
        <ele>639.2</ele>
        <time>2020-10-04T08:36:06Z</time>
      </trkpt>
      <trkpt lat="40.1018050" lon="-4.7210020">
        <ele>639.3</ele>
        <time>2020-10-04T08:36:07Z</time>
      </trkpt>
      <trkpt lat="40.1018570" lon="-4.7210110">
        <ele>639.7</ele>
        <time>2020-10-04T08:36:09Z</time>
      </trkpt>
      <trkpt lat="40.1018770" lon="-4.7210140">
        <ele>639.8</ele>
        <time>2020-10-04T08:36:10Z</time>
      </trkpt>
      <trkpt lat="40.1018970" lon="-4.7210180">
        <ele>639.9</ele>
        <time>2020-10-04T08:36:11Z</time>
      </trkpt>
      <trkpt lat="40.1019260" lon="-4.7210270">
        <ele>640.1</ele>
        <time>2020-10-04T08:36:12Z</time>
      </trkpt>
      <trkpt lat="40.1019630" lon="-4.7210370">
        <ele>640.3</ele>
        <time>2020-10-04T08:36:14Z</time>
      </trkpt>
      <trkpt lat="40.1019910" lon="-4.7210420">
        <ele>640.4</ele>
        <time>2020-10-04T08:36:15Z</time>
      </trkpt>
      <trkpt lat="40.1020320" lon="-4.7210650">
        <ele>640.4</ele>
        <time>2020-10-04T08:36:17Z</time>
      </trkpt>
      <trkpt lat="40.1020510" lon="-4.7210720">
        <ele>640.4</ele>
        <time>2020-10-04T08:36:18Z</time>
      </trkpt>
      <trkpt lat="40.1020940" lon="-4.7210820">
        <ele>640.4</ele>
        <time>2020-10-04T08:36:20Z</time>
      </trkpt>
      <trkpt lat="40.1021290" lon="-4.7210810">
        <ele>640.5</ele>
        <time>2020-10-04T08:36:21Z</time>
      </trkpt>
      <trkpt lat="40.1021550" lon="-4.7210810">
        <ele>640.5</ele>
        <time>2020-10-04T08:36:22Z</time>
      </trkpt>
      <trkpt lat="40.1021960" lon="-4.7210860">
        <ele>640.5</ele>
        <time>2020-10-04T08:36:24Z</time>
      </trkpt>
      <trkpt lat="40.1022310" lon="-4.7210890">
        <ele>640.6</ele>
        <time>2020-10-04T08:36:25Z</time>
      </trkpt>
      <trkpt lat="40.1022710" lon="-4.7210890">
        <ele>640.6</ele>
        <time>2020-10-04T08:36:26Z</time>
      </trkpt>
      <trkpt lat="40.1023100" lon="-4.7210870">
        <ele>640.6</ele>
        <time>2020-10-04T08:36:28Z</time>
      </trkpt>
      <trkpt lat="40.1023520" lon="-4.7210850">
        <ele>640.7</ele>
        <time>2020-10-04T08:36:29Z</time>
      </trkpt>
      <trkpt lat="40.1024010" lon="-4.7210860">
        <ele>640.7</ele>
        <time>2020-10-04T08:36:30Z</time>
      </trkpt>
      <trkpt lat="40.1024630" lon="-4.7210780">
        <ele>640.8</ele>
        <time>2020-10-04T08:36:32Z</time>
      </trkpt>
      <trkpt lat="40.1024950" lon="-4.7210780">
        <ele>640.8</ele>
        <time>2020-10-04T08:36:33Z</time>
      </trkpt>
      <trkpt lat="40.1025360" lon="-4.7210840">
        <ele>640.9</ele>
        <time>2020-10-04T08:36:34Z</time>
      </trkpt>
      <trkpt lat="40.1025870" lon="-4.7210840">
        <ele>641.0</ele>
        <time>2020-10-04T08:36:35Z</time>
      </trkpt>
      <trkpt lat="40.1026340" lon="-4.7210920">
        <ele>641.1</ele>
        <time>2020-10-04T08:36:37Z</time>
      </trkpt>
      <trkpt lat="40.1026810" lon="-4.7211070">
        <ele>641.3</ele>
        <time>2020-10-04T08:36:38Z</time>
      </trkpt>
      <trkpt lat="40.1027360" lon="-4.7211220">
        <ele>641.6</ele>
        <time>2020-10-04T08:36:40Z</time>
      </trkpt>
      <trkpt lat="40.1027710" lon="-4.7211390">
        <ele>641.8</ele>
        <time>2020-10-04T08:36:41Z</time>
      </trkpt>
      <trkpt lat="40.1028040" lon="-4.7211600">
        <ele>642.0</ele>
        <time>2020-10-04T08:36:42Z</time>
      </trkpt>
      <trkpt lat="40.1028450" lon="-4.7211890">
        <ele>642.4</ele>
        <time>2020-10-04T08:36:43Z</time>
      </trkpt>
      <trkpt lat="40.1028760" lon="-4.7212170">
        <ele>642.6</ele>
        <time>2020-10-04T08:36:44Z</time>
      </trkpt>
      <trkpt lat="40.1029120" lon="-4.7212660">
        <ele>643.0</ele>
        <time>2020-10-04T08:36:45Z</time>
      </trkpt>
      <trkpt lat="40.1029390" lon="-4.7213010">
        <ele>643.3</ele>
        <time>2020-10-04T08:36:47Z</time>
      </trkpt>
      <trkpt lat="40.1029710" lon="-4.7213480">
        <ele>643.6</ele>
        <time>2020-10-04T08:36:48Z</time>
      </trkpt>
      <trkpt lat="40.1030010" lon="-4.7213860">
        <ele>643.9</ele>
        <time>2020-10-04T08:36:49Z</time>
      </trkpt>
      <trkpt lat="40.1030210" lon="-4.7214150">
        <ele>643.8</ele>
        <time>2020-10-04T08:36:50Z</time>
      </trkpt>
      <trkpt lat="40.1030370" lon="-4.7214480">
        <ele>643.8</ele>
        <time>2020-10-04T08:36:52Z</time>
      </trkpt>
      <trkpt lat="40.1030480" lon="-4.7214840">
        <ele>643.8</ele>
        <time>2020-10-04T08:36:53Z</time>
      </trkpt>
      <trkpt lat="40.1030610" lon="-4.7215260">
        <ele>643.8</ele>
        <time>2020-10-04T08:36:54Z</time>
      </trkpt>
      <trkpt lat="40.1030860" lon="-4.7215700">
        <ele>643.8</ele>
        <time>2020-10-04T08:36:56Z</time>
      </trkpt>
      <trkpt lat="40.1031020" lon="-4.7215870">
        <ele>643.7</ele>
        <time>2020-10-04T08:36:57Z</time>
      </trkpt>
      <trkpt lat="40.1031160" lon="-4.7216080">
        <ele>643.7</ele>
        <time>2020-10-04T08:36:59Z</time>
      </trkpt>
      <trkpt lat="40.1031340" lon="-4.7216370">
        <ele>643.7</ele>
        <time>2020-10-04T08:37:00Z</time>
      </trkpt>
      <trkpt lat="40.1031390" lon="-4.7216460">
        <ele>643.6</ele>
        <time>2020-10-04T08:37:01Z</time>
      </trkpt>
      <trkpt lat="40.1031580" lon="-4.7216810">
        <ele>643.6</ele>
        <time>2020-10-04T08:37:02Z</time>
      </trkpt>
      <trkpt lat="40.1031650" lon="-4.7216940">
        <ele>643.6</ele>
        <time>2020-10-04T08:37:03Z</time>
      </trkpt>
      <trkpt lat="40.1031880" lon="-4.7217340">
        <ele>643.5</ele>
        <time>2020-10-04T08:37:04Z</time>
      </trkpt>
      <trkpt lat="40.1031950" lon="-4.7217470">
        <ele>643.5</ele>
        <time>2020-10-04T08:37:05Z</time>
      </trkpt>
      <trkpt lat="40.1032210" lon="-4.7217920">
        <ele>643.4</ele>
        <time>2020-10-04T08:37:07Z</time>
      </trkpt>
      <trkpt lat="40.1032540" lon="-4.7218410">
        <ele>643.3</ele>
        <time>2020-10-04T08:37:09Z</time>
      </trkpt>
      <trkpt lat="40.1032830" lon="-4.7218820">
        <ele>643.2</ele>
        <time>2020-10-04T08:37:10Z</time>
      </trkpt>
      <trkpt lat="40.1033160" lon="-4.7219490">
        <ele>643.1</ele>
        <time>2020-10-04T08:37:12Z</time>
      </trkpt>
      <trkpt lat="40.1033400" lon="-4.7219960">
        <ele>643.1</ele>
        <time>2020-10-04T08:37:13Z</time>
      </trkpt>
      <trkpt lat="40.1033640" lon="-4.7220490">
        <ele>643.0</ele>
        <time>2020-10-04T08:37:14Z</time>
      </trkpt>
      <trkpt lat="40.1033800" lon="-4.7220940">
        <ele>643.2</ele>
        <time>2020-10-04T08:37:15Z</time>
      </trkpt>
      <trkpt lat="40.1034010" lon="-4.7221900">
        <ele>643.5</ele>
        <time>2020-10-04T08:37:17Z</time>
      </trkpt>
      <trkpt lat="40.1034100" lon="-4.7222500">
        <ele>643.7</ele>
        <time>2020-10-04T08:37:18Z</time>
      </trkpt>
      <trkpt lat="40.1034230" lon="-4.7223270">
        <ele>644.0</ele>
        <time>2020-10-04T08:37:20Z</time>
      </trkpt>
      <trkpt lat="40.1034360" lon="-4.7223910">
        <ele>644.2</ele>
        <time>2020-10-04T08:37:21Z</time>
      </trkpt>
      <trkpt lat="40.1034490" lon="-4.7224470">
        <ele>644.5</ele>
        <time>2020-10-04T08:37:22Z</time>
      </trkpt>
      <trkpt lat="40.1034710" lon="-4.7225340">
        <ele>644.9</ele>
        <time>2020-10-04T08:37:24Z</time>
      </trkpt>
      <trkpt lat="40.1034860" lon="-4.7225940">
        <ele>645.1</ele>
        <time>2020-10-04T08:37:26Z</time>
      </trkpt>
      <trkpt lat="40.1034990" lon="-4.7226390">
        <ele>645.3</ele>
        <time>2020-10-04T08:37:27Z</time>
      </trkpt>
      <trkpt lat="40.1035090" lon="-4.7226870">
        <ele>645.5</ele>
        <time>2020-10-04T08:37:28Z</time>
      </trkpt>
      <trkpt lat="40.1035230" lon="-4.7227310">
        <ele>645.7</ele>
        <time>2020-10-04T08:37:30Z</time>
      </trkpt>
      <trkpt lat="40.1035370" lon="-4.7227720">
        <ele>645.7</ele>
        <time>2020-10-04T08:37:31Z</time>
      </trkpt>
      <trkpt lat="40.1035530" lon="-4.7228060">
        <ele>645.8</ele>
        <time>2020-10-04T08:37:32Z</time>
      </trkpt>
      <trkpt lat="40.1035750" lon="-4.7228480">
        <ele>645.9</ele>
        <time>2020-10-04T08:37:34Z</time>
      </trkpt>
      <trkpt lat="40.1036010" lon="-4.7228910">
        <ele>646.2</ele>
        <time>2020-10-04T08:37:35Z</time>
      </trkpt>
      <trkpt lat="40.1036230" lon="-4.7229250">
        <ele>646.4</ele>
        <time>2020-10-04T08:37:36Z</time>
      </trkpt>
      <trkpt lat="40.1036410" lon="-4.7229530">
        <ele>646.6</ele>
        <time>2020-10-04T08:37:37Z</time>
      </trkpt>
      <trkpt lat="40.1036700" lon="-4.7230010">
        <ele>646.9</ele>
        <time>2020-10-04T08:37:39Z</time>
      </trkpt>
      <trkpt lat="40.1036900" lon="-4.7230400">
        <ele>647.2</ele>
        <time>2020-10-04T08:37:41Z</time>
      </trkpt>
      <trkpt lat="40.1037080" lon="-4.7230800">
        <ele>647.4</ele>
        <time>2020-10-04T08:37:42Z</time>
      </trkpt>
      <trkpt lat="40.1037210" lon="-4.7231140">
        <ele>647.6</ele>
        <time>2020-10-04T08:37:43Z</time>
      </trkpt>
      <trkpt lat="40.1037300" lon="-4.7231480">
        <ele>647.7</ele>
        <time>2020-10-04T08:37:44Z</time>
      </trkpt>
      <trkpt lat="40.1037430" lon="-4.7232000">
        <ele>648.0</ele>
        <time>2020-10-04T08:37:46Z</time>
      </trkpt>
      <trkpt lat="40.1037580" lon="-4.7232480">
        <ele>648.2</ele>
        <time>2020-10-04T08:37:47Z</time>
      </trkpt>
      <trkpt lat="40.1037720" lon="-4.7232860">
        <ele>648.4</ele>
        <time>2020-10-04T08:37:48Z</time>
      </trkpt>
      <trkpt lat="40.1037760" lon="-4.7232970">
        <ele>648.4</ele>
        <time>2020-10-04T08:37:49Z</time>
      </trkpt>
      <trkpt lat="40.1037970" lon="-4.7233490">
        <ele>648.6</ele>
        <time>2020-10-04T08:37:51Z</time>
      </trkpt>
      <trkpt lat="40.1038060" lon="-4.7233670">
        <ele>648.7</ele>
        <time>2020-10-04T08:37:52Z</time>
      </trkpt>
      <trkpt lat="40.1038140" lon="-4.7233860">
        <ele>648.8</ele>
        <time>2020-10-04T08:37:53Z</time>
      </trkpt>
      <trkpt lat="40.1038290" lon="-4.7234160">
        <ele>648.9</ele>
        <time>2020-10-04T08:37:55Z</time>
      </trkpt>
      <trkpt lat="40.1038570" lon="-4.7234500">
        <ele>649.1</ele>
        <time>2020-10-04T08:37:56Z</time>
      </trkpt>
      <trkpt lat="40.1038740" lon="-4.7234770">
        <ele>649.2</ele>
        <time>2020-10-04T08:37:57Z</time>
      </trkpt>
      <trkpt lat="40.1039110" lon="-4.7235180">
        <ele>649.5</ele>
        <time>2020-10-04T08:37:59Z</time>
      </trkpt>
      <trkpt lat="40.1039350" lon="-4.7235370">
        <ele>649.6</ele>
        <time>2020-10-04T08:38:00Z</time>
      </trkpt>
      <trkpt lat="40.1039710" lon="-4.7235510">
        <ele>649.8</ele>
        <time>2020-10-04T08:38:01Z</time>
      </trkpt>
      <trkpt lat="40.1040090" lon="-4.7235540">
        <ele>650.0</ele>
        <time>2020-10-04T08:38:03Z</time>
      </trkpt>
      <trkpt lat="40.1040620" lon="-4.7235370">
        <ele>650.3</ele>
        <time>2020-10-04T08:38:04Z</time>
      </trkpt>
      <trkpt lat="40.1041370" lon="-4.7235070">
        <ele>650.7</ele>
        <time>2020-10-04T08:38:06Z</time>
      </trkpt>
      <trkpt lat="40.1041930" lon="-4.7234850">
        <ele>651.1</ele>
        <time>2020-10-04T08:38:07Z</time>
      </trkpt>
      <trkpt lat="40.1042230" lon="-4.7234800">
        <ele>651.3</ele>
        <time>2020-10-04T08:38:09Z</time>
      </trkpt>
      <trkpt lat="40.1042500" lon="-4.7234940">
        <ele>651.5</ele>
        <time>2020-10-04T08:38:10Z</time>
      </trkpt>
      <trkpt lat="40.1042800" lon="-4.7235080">
        <ele>651.7</ele>
        <time>2020-10-04T08:38:11Z</time>
      </trkpt>
      <trkpt lat="40.1043020" lon="-4.7235300">
        <ele>652.4</ele>
        <time>2020-10-04T08:38:12Z</time>
      </trkpt>
      <trkpt lat="40.1043240" lon="-4.7235800">
        <ele>652.4</ele>
        <time>2020-10-04T08:38:14Z</time>
      </trkpt>
      <trkpt lat="40.1043390" lon="-4.7236210">
        <ele>652.4</ele>
        <time>2020-10-04T08:38:15Z</time>
      </trkpt>
      <trkpt lat="40.1043530" lon="-4.7236770">
        <ele>652.7</ele>
        <time>2020-10-04T08:38:17Z</time>
      </trkpt>
      <trkpt lat="40.1043630" lon="-4.7237310">
        <ele>652.9</ele>
        <time>2020-10-04T08:38:18Z</time>
      </trkpt>
      <trkpt lat="40.1043710" lon="-4.7237770">
        <ele>653.1</ele>
        <time>2020-10-04T08:38:19Z</time>
      </trkpt>
      <trkpt lat="40.1043810" lon="-4.7238190">
        <ele>653.2</ele>
        <time>2020-10-04T08:38:20Z</time>
      </trkpt>
      <trkpt lat="40.1043950" lon="-4.7238580">
        <ele>653.4</ele>
        <time>2020-10-04T08:38:22Z</time>
      </trkpt>
      <trkpt lat="40.1044120" lon="-4.7238860">
        <ele>653.5</ele>
        <time>2020-10-04T08:38:23Z</time>
      </trkpt>
      <trkpt lat="40.1044400" lon="-4.7239150">
        <ele>654.3</ele>
        <time>2020-10-04T08:38:25Z</time>
      </trkpt>
      <trkpt lat="40.1044680" lon="-4.7239470">
        <ele>654.8</ele>
        <time>2020-10-04T08:38:26Z</time>
      </trkpt>
      <trkpt lat="40.1044760" lon="-4.7239590">
        <ele>655.0</ele>
        <time>2020-10-04T08:38:27Z</time>
      </trkpt>
      <trkpt lat="40.1044970" lon="-4.7240060">
        <ele>655.5</ele>
        <time>2020-10-04T08:38:29Z</time>
      </trkpt>
      <trkpt lat="40.1045140" lon="-4.7240540">
        <ele>656.0</ele>
        <time>2020-10-04T08:38:31Z</time>
      </trkpt>
      <trkpt lat="40.1045330" lon="-4.7241000">
        <ele>656.5</ele>
        <time>2020-10-04T08:38:32Z</time>
      </trkpt>
      <trkpt lat="40.1045400" lon="-4.7241200">
        <ele>656.7</ele>
        <time>2020-10-04T08:38:33Z</time>
      </trkpt>
      <trkpt lat="40.1045580" lon="-4.7241770">
        <ele>657.3</ele>
        <time>2020-10-04T08:38:35Z</time>
      </trkpt>
      <trkpt lat="40.1045670" lon="-4.7242110">
        <ele>657.7</ele>
        <time>2020-10-04T08:38:36Z</time>
      </trkpt>
      <trkpt lat="40.1045820" lon="-4.7242540">
        <ele>658.1</ele>
        <time>2020-10-04T08:38:37Z</time>
      </trkpt>
      <trkpt lat="40.1045860" lon="-4.7242670">
        <ele>658.2</ele>
        <time>2020-10-04T08:38:38Z</time>
      </trkpt>
      <trkpt lat="40.1046010" lon="-4.7243070">
        <ele>658.7</ele>
        <time>2020-10-04T08:38:40Z</time>
      </trkpt>
      <trkpt lat="40.1046110" lon="-4.7243340">
        <ele>658.9</ele>
        <time>2020-10-04T08:38:41Z</time>
      </trkpt>
      <trkpt lat="40.1046230" lon="-4.7243720">
        <ele>659.3</ele>
        <time>2020-10-04T08:38:43Z</time>
      </trkpt>
      <trkpt lat="40.1046370" lon="-4.7244190">
        <ele>659.8</ele>
        <time>2020-10-04T08:38:44Z</time>
      </trkpt>
      <trkpt lat="40.1046420" lon="-4.7244340">
        <ele>659.9</ele>
        <time>2020-10-04T08:38:45Z</time>
      </trkpt>
      <trkpt lat="40.1046630" lon="-4.7244770">
        <ele>660.4</ele>
        <time>2020-10-04T08:38:46Z</time>
      </trkpt>
      <trkpt lat="40.1046710" lon="-4.7244910">
        <ele>660.6</ele>
        <time>2020-10-04T08:38:47Z</time>
      </trkpt>
      <trkpt lat="40.1046890" lon="-4.7245250">
        <ele>661.0</ele>
        <time>2020-10-04T08:38:48Z</time>
      </trkpt>
      <trkpt lat="40.1046950" lon="-4.7245370">
        <ele>661.2</ele>
        <time>2020-10-04T08:38:49Z</time>
      </trkpt>
      <trkpt lat="40.1047180" lon="-4.7245820">
        <ele>661.7</ele>
        <time>2020-10-04T08:38:51Z</time>
      </trkpt>
      <trkpt lat="40.1047260" lon="-4.7245970">
        <ele>661.9</ele>
        <time>2020-10-04T08:38:52Z</time>
      </trkpt>
      <trkpt lat="40.1047430" lon="-4.7246410">
        <ele>662.4</ele>
        <time>2020-10-04T08:38:53Z</time>
      </trkpt>
      <trkpt lat="40.1047500" lon="-4.7246600">
        <ele>662.6</ele>
        <time>2020-10-04T08:38:54Z</time>
      </trkpt>
      <trkpt lat="40.1047630" lon="-4.7246920">
        <ele>662.9</ele>
        <time>2020-10-04T08:38:56Z</time>
      </trkpt>
      <trkpt lat="40.1047740" lon="-4.7247270">
        <ele>663.3</ele>
        <time>2020-10-04T08:38:57Z</time>
      </trkpt>
      <trkpt lat="40.1047880" lon="-4.7247720">
        <ele>663.8</ele>
        <time>2020-10-04T08:38:59Z</time>
      </trkpt>
      <trkpt lat="40.1048010" lon="-4.7248040">
        <ele>664.0</ele>
        <time>2020-10-04T08:39:00Z</time>
      </trkpt>
      <trkpt lat="40.1048050" lon="-4.7248150">
        <ele>664.0</ele>
        <time>2020-10-04T08:39:01Z</time>
      </trkpt>
      <trkpt lat="40.1048210" lon="-4.7248480">
        <ele>664.1</ele>
        <time>2020-10-04T08:39:03Z</time>
      </trkpt>
      <trkpt lat="40.1048430" lon="-4.7248760">
        <ele>664.2</ele>
        <time>2020-10-04T08:39:04Z</time>
      </trkpt>
      <trkpt lat="40.1048800" lon="-4.7249180">
        <ele>664.4</ele>
        <time>2020-10-04T08:39:06Z</time>
      </trkpt>
      <trkpt lat="40.1048940" lon="-4.7249300">
        <ele>664.4</ele>
        <time>2020-10-04T08:39:07Z</time>
      </trkpt>
      <trkpt lat="40.1049090" lon="-4.7249410">
        <ele>664.5</ele>
        <time>2020-10-04T08:39:08Z</time>
      </trkpt>
      <trkpt lat="40.1049240" lon="-4.7249480">
        <ele>664.6</ele>
        <time>2020-10-04T08:39:09Z</time>
      </trkpt>
      <trkpt lat="40.1049530" lon="-4.7249400">
        <ele>664.7</ele>
        <time>2020-10-04T08:39:11Z</time>
      </trkpt>
      <trkpt lat="40.1049890" lon="-4.7249240">
        <ele>664.8</ele>
        <time>2020-10-04T08:39:13Z</time>
      </trkpt>
      <trkpt lat="40.1050220" lon="-4.7249150">
        <ele>665.5</ele>
        <time>2020-10-04T08:39:15Z</time>
      </trkpt>
      <trkpt lat="40.1050390" lon="-4.7249120">
        <ele>665.7</ele>
        <time>2020-10-04T08:39:16Z</time>
      </trkpt>
      <trkpt lat="40.1050570" lon="-4.7249100">
        <ele>665.9</ele>
        <time>2020-10-04T08:39:17Z</time>
      </trkpt>
      <trkpt lat="40.1050780" lon="-4.7249070">
        <ele>666.1</ele>
        <time>2020-10-04T08:39:18Z</time>
      </trkpt>
      <trkpt lat="40.1051180" lon="-4.7249080">
        <ele>666.5</ele>
        <time>2020-10-04T08:39:20Z</time>
      </trkpt>
      <trkpt lat="40.1051550" lon="-4.7249080">
        <ele>666.9</ele>
        <time>2020-10-04T08:39:21Z</time>
      </trkpt>
      <trkpt lat="40.1051720" lon="-4.7249100">
        <ele>667.0</ele>
        <time>2020-10-04T08:39:22Z</time>
      </trkpt>
      <trkpt lat="40.1051910" lon="-4.7249180">
        <ele>667.2</ele>
        <time>2020-10-04T08:39:24Z</time>
      </trkpt>
      <trkpt lat="40.1052090" lon="-4.7249230">
        <ele>667.4</ele>
        <time>2020-10-04T08:39:25Z</time>
      </trkpt>
      <trkpt lat="40.1052360" lon="-4.7249470">
        <ele>667.6</ele>
        <time>2020-10-04T08:39:27Z</time>
      </trkpt>
      <trkpt lat="40.1052610" lon="-4.7249730">
        <ele>667.8</ele>
        <time>2020-10-04T08:39:28Z</time>
      </trkpt>
      <trkpt lat="40.1052700" lon="-4.7249820">
        <ele>667.9</ele>
        <time>2020-10-04T08:39:29Z</time>
      </trkpt>
      <trkpt lat="40.1052960" lon="-4.7250120">
        <ele>668.1</ele>
        <time>2020-10-04T08:39:30Z</time>
      </trkpt>
      <trkpt lat="40.1053190" lon="-4.7250370">
        <ele>668.3</ele>
        <time>2020-10-04T08:39:32Z</time>
      </trkpt>
      <trkpt lat="40.1053450" lon="-4.7250580">
        <ele>668.5</ele>
        <time>2020-10-04T08:39:33Z</time>
      </trkpt>
      <trkpt lat="40.1053630" lon="-4.7250770">
        <ele>668.6</ele>
        <time>2020-10-04T08:39:34Z</time>
      </trkpt>
      <trkpt lat="40.1053800" lon="-4.7251040">
        <ele>668.8</ele>
        <time>2020-10-04T08:39:36Z</time>
      </trkpt>
      <trkpt lat="40.1053960" lon="-4.7251340">
        <ele>668.9</ele>
        <time>2020-10-04T08:39:37Z</time>
      </trkpt>
      <trkpt lat="40.1054140" lon="-4.7251740">
        <ele>669.1</ele>
        <time>2020-10-04T08:39:38Z</time>
      </trkpt>
      <trkpt lat="40.1054190" lon="-4.7251900">
        <ele>669.2</ele>
        <time>2020-10-04T08:39:39Z</time>
      </trkpt>
      <trkpt lat="40.1054350" lon="-4.7252310">
        <ele>669.4</ele>
        <time>2020-10-04T08:39:41Z</time>
      </trkpt>
      <trkpt lat="40.1054550" lon="-4.7252660">
        <ele>669.6</ele>
        <time>2020-10-04T08:39:42Z</time>
      </trkpt>
      <trkpt lat="40.1054810" lon="-4.7253000">
        <ele>669.8</ele>
        <time>2020-10-04T08:39:44Z</time>
      </trkpt>
      <trkpt lat="40.1055090" lon="-4.7253310">
        <ele>670.0</ele>
        <time>2020-10-04T08:39:45Z</time>
      </trkpt>
      <trkpt lat="40.1055170" lon="-4.7253410">
        <ele>670.0</ele>
        <time>2020-10-04T08:39:46Z</time>
      </trkpt>
      <trkpt lat="40.1055430" lon="-4.7253650">
        <ele>670.2</ele>
        <time>2020-10-04T08:39:47Z</time>
      </trkpt>
      <trkpt lat="40.1055500" lon="-4.7253740">
        <ele>670.3</ele>
        <time>2020-10-04T08:39:48Z</time>
      </trkpt>
      <trkpt lat="40.1055690" lon="-4.7253960">
        <ele>670.4</ele>
        <time>2020-10-04T08:39:49Z</time>
      </trkpt>
      <trkpt lat="40.1055900" lon="-4.7254180">
        <ele>670.6</ele>
        <time>2020-10-04T08:39:51Z</time>
      </trkpt>
      <trkpt lat="40.1056210" lon="-4.7254400">
        <ele>670.8</ele>
        <time>2020-10-04T08:39:52Z</time>
      </trkpt>
      <trkpt lat="40.1056320" lon="-4.7254470">
        <ele>670.9</ele>
        <time>2020-10-04T08:39:53Z</time>
      </trkpt>
      <trkpt lat="40.1056590" lon="-4.7254700">
        <ele>671.0</ele>
        <time>2020-10-04T08:39:54Z</time>
      </trkpt>
      <trkpt lat="40.1056670" lon="-4.7254790">
        <ele>671.1</ele>
        <time>2020-10-04T08:39:55Z</time>
      </trkpt>
      <trkpt lat="40.1057020" lon="-4.7255180">
        <ele>671.4</ele>
        <time>2020-10-04T08:39:57Z</time>
      </trkpt>
      <trkpt lat="40.1057150" lon="-4.7255320">
        <ele>671.5</ele>
        <time>2020-10-04T08:39:58Z</time>
      </trkpt>
      <trkpt lat="40.1057270" lon="-4.7255460">
        <ele>671.6</ele>
        <time>2020-10-04T08:39:59Z</time>
      </trkpt>
      <trkpt lat="40.1057430" lon="-4.7255650">
        <ele>671.7</ele>
        <time>2020-10-04T08:40:00Z</time>
      </trkpt>
      <trkpt lat="40.1057670" lon="-4.7255970">
        <ele>671.9</ele>
        <time>2020-10-04T08:40:02Z</time>
      </trkpt>
      <trkpt lat="40.1057800" lon="-4.7256160">
        <ele>672.0</ele>
        <time>2020-10-04T08:40:03Z</time>
      </trkpt>
      <trkpt lat="40.1058070" lon="-4.7256660">
        <ele>672.1</ele>
        <time>2020-10-04T08:40:05Z</time>
      </trkpt>
      <trkpt lat="40.1058200" lon="-4.7256930">
        <ele>672.2</ele>
        <time>2020-10-04T08:40:06Z</time>
      </trkpt>
      <trkpt lat="40.1058420" lon="-4.7257340">
        <ele>672.4</ele>
        <time>2020-10-04T08:40:08Z</time>
      </trkpt>
      <trkpt lat="40.1058600" lon="-4.7257670">
        <ele>672.4</ele>
        <time>2020-10-04T08:40:09Z</time>
      </trkpt>
      <trkpt lat="40.1058810" lon="-4.7258080">
        <ele>672.5</ele>
        <time>2020-10-04T08:40:10Z</time>
      </trkpt>
      <trkpt lat="40.1059050" lon="-4.7258500">
        <ele>672.6</ele>
        <time>2020-10-04T08:40:11Z</time>
      </trkpt>
      <trkpt lat="40.1059150" lon="-4.7258650">
        <ele>672.7</ele>
        <time>2020-10-04T08:40:12Z</time>
      </trkpt>
      <trkpt lat="40.1059290" lon="-4.7258960">
        <ele>672.7</ele>
        <time>2020-10-04T08:40:13Z</time>
      </trkpt>
      <trkpt lat="40.1059550" lon="-4.7259380">
        <ele>672.8</ele>
        <time>2020-10-04T08:40:15Z</time>
      </trkpt>
      <trkpt lat="40.1059720" lon="-4.7259710">
        <ele>672.9</ele>
        <time>2020-10-04T08:40:16Z</time>
      </trkpt>
      <trkpt lat="40.1060040" lon="-4.7260280">
        <ele>673.0</ele>
        <time>2020-10-04T08:40:18Z</time>
      </trkpt>
      <trkpt lat="40.1060160" lon="-4.7260500">
        <ele>673.1</ele>
        <time>2020-10-04T08:40:19Z</time>
      </trkpt>
      <trkpt lat="40.1060280" lon="-4.7260720">
        <ele>673.2</ele>
        <time>2020-10-04T08:40:20Z</time>
      </trkpt>
      <trkpt lat="40.1060500" lon="-4.7261380">
        <ele>673.4</ele>
        <time>2020-10-04T08:40:22Z</time>
      </trkpt>
      <trkpt lat="40.1060620" lon="-4.7261850">
        <ele>673.6</ele>
        <time>2020-10-04T08:40:23Z</time>
      </trkpt>
      <trkpt lat="40.1060650" lon="-4.7262020">
        <ele>673.6</ele>
        <time>2020-10-04T08:40:24Z</time>
      </trkpt>
      <trkpt lat="40.1060800" lon="-4.7262680">
        <ele>673.8</ele>
        <time>2020-10-04T08:40:26Z</time>
      </trkpt>
      <trkpt lat="40.1060900" lon="-4.7263200">
        <ele>674.0</ele>
        <time>2020-10-04T08:40:27Z</time>
      </trkpt>
      <trkpt lat="40.1060990" lon="-4.7263730">
        <ele>674.2</ele>
        <time>2020-10-04T08:40:29Z</time>
      </trkpt>
      <trkpt lat="40.1061110" lon="-4.7264180">
        <ele>674.3</ele>
        <time>2020-10-04T08:40:31Z</time>
      </trkpt>
      <trkpt lat="40.1061250" lon="-4.7264620">
        <ele>674.5</ele>
        <time>2020-10-04T08:40:32Z</time>
      </trkpt>
      <trkpt lat="40.1061310" lon="-4.7264800">
        <ele>674.6</ele>
        <time>2020-10-04T08:40:33Z</time>
      </trkpt>
      <trkpt lat="40.1061430" lon="-4.7265140">
        <ele>674.7</ele>
        <time>2020-10-04T08:40:34Z</time>
      </trkpt>
      <trkpt lat="40.1061610" lon="-4.7265660">
        <ele>674.9</ele>
        <time>2020-10-04T08:40:36Z</time>
      </trkpt>
      <trkpt lat="40.1061720" lon="-4.7265990">
        <ele>675.1</ele>
        <time>2020-10-04T08:40:37Z</time>
      </trkpt>
      <trkpt lat="40.1061910" lon="-4.7266470">
        <ele>675.3</ele>
        <time>2020-10-04T08:40:38Z</time>
      </trkpt>
      <trkpt lat="40.1061970" lon="-4.7266660">
        <ele>675.3</ele>
        <time>2020-10-04T08:40:39Z</time>
      </trkpt>
      <trkpt lat="40.1062130" lon="-4.7267200">
        <ele>675.5</ele>
        <time>2020-10-04T08:40:41Z</time>
      </trkpt>
      <trkpt lat="40.1062240" lon="-4.7267620">
        <ele>675.7</ele>
        <time>2020-10-04T08:40:42Z</time>
      </trkpt>
      <trkpt lat="40.1062340" lon="-4.7268010">
        <ele>675.8</ele>
        <time>2020-10-04T08:40:43Z</time>
      </trkpt>
      <trkpt lat="40.1062460" lon="-4.7268520">
        <ele>675.9</ele>
        <time>2020-10-04T08:40:45Z</time>
      </trkpt>
      <trkpt lat="40.1062570" lon="-4.7268890">
        <ele>676.0</ele>
        <time>2020-10-04T08:40:46Z</time>
      </trkpt>
      <trkpt lat="40.1062630" lon="-4.7269240">
        <ele>676.1</ele>
        <time>2020-10-04T08:40:47Z</time>
      </trkpt>
      <trkpt lat="40.1062690" lon="-4.7269820">
        <ele>676.2</ele>
        <time>2020-10-04T08:40:49Z</time>
      </trkpt>
      <trkpt lat="40.1062610" lon="-4.7270290">
        <ele>676.4</ele>
        <time>2020-10-04T08:40:50Z</time>
      </trkpt>
      <trkpt lat="40.1062400" lon="-4.7270920">
        <ele>676.6</ele>
        <time>2020-10-04T08:40:52Z</time>
      </trkpt>
      <trkpt lat="40.1062340" lon="-4.7271150">
        <ele>676.7</ele>
        <time>2020-10-04T08:40:53Z</time>
      </trkpt>
      <trkpt lat="40.1062270" lon="-4.7271370">
        <ele>676.8</ele>
        <time>2020-10-04T08:40:54Z</time>
      </trkpt>
      <trkpt lat="40.1062070" lon="-4.7272050">
        <ele>677.1</ele>
        <time>2020-10-04T08:40:56Z</time>
      </trkpt>
      <trkpt lat="40.1061940" lon="-4.7272340">
        <ele>677.2</ele>
        <time>2020-10-04T08:40:57Z</time>
      </trkpt>
      <trkpt lat="40.1061780" lon="-4.7272780">
        <ele>677.4</ele>
        <time>2020-10-04T08:40:59Z</time>
      </trkpt>
      <trkpt lat="40.1061670" lon="-4.7273160">
        <ele>677.7</ele>
        <time>2020-10-04T08:41:00Z</time>
      </trkpt>
      <trkpt lat="40.1061640" lon="-4.7273540">
        <ele>677.9</ele>
        <time>2020-10-04T08:41:01Z</time>
      </trkpt>
      <trkpt lat="40.1061710" lon="-4.7273930">
        <ele>678.1</ele>
        <time>2020-10-04T08:41:02Z</time>
      </trkpt>
      <trkpt lat="40.1061850" lon="-4.7274350">
        <ele>678.4</ele>
        <time>2020-10-04T08:41:04Z</time>
      </trkpt>
      <trkpt lat="40.1062000" lon="-4.7274740">
        <ele>678.6</ele>
        <time>2020-10-04T08:41:05Z</time>
      </trkpt>
      <trkpt lat="40.1062180" lon="-4.7275130">
        <ele>678.9</ele>
        <time>2020-10-04T08:41:06Z</time>
      </trkpt>
      <trkpt lat="40.1062420" lon="-4.7275640">
        <ele>679.3</ele>
        <time>2020-10-04T08:41:08Z</time>
      </trkpt>
      <trkpt lat="40.1062590" lon="-4.7276160">
        <ele>679.6</ele>
        <time>2020-10-04T08:41:10Z</time>
      </trkpt>
      <trkpt lat="40.1062700" lon="-4.7276460">
        <ele>679.8</ele>
        <time>2020-10-04T08:41:11Z</time>
      </trkpt>
      <trkpt lat="40.1062860" lon="-4.7276800">
        <ele>680.0</ele>
        <time>2020-10-04T08:41:13Z</time>
      </trkpt>
      <trkpt lat="40.1063050" lon="-4.7277080">
        <ele>680.1</ele>
        <time>2020-10-04T08:41:14Z</time>
      </trkpt>
      <trkpt lat="40.1063270" lon="-4.7277410">
        <ele>680.3</ele>
        <time>2020-10-04T08:41:15Z</time>
      </trkpt>
      <trkpt lat="40.1063510" lon="-4.7277880">
        <ele>680.5</ele>
        <time>2020-10-04T08:41:17Z</time>
      </trkpt>
      <trkpt lat="40.1063590" lon="-4.7278020">
        <ele>680.6</ele>
        <time>2020-10-04T08:41:18Z</time>
      </trkpt>
      <trkpt lat="40.1063670" lon="-4.7278160">
        <ele>680.7</ele>
        <time>2020-10-04T08:41:19Z</time>
      </trkpt>
      <trkpt lat="40.1063840" lon="-4.7278580">
        <ele>681.0</ele>
        <time>2020-10-04T08:41:20Z</time>
      </trkpt>
      <trkpt lat="40.1063880" lon="-4.7278710">
        <ele>681.1</ele>
        <time>2020-10-04T08:41:21Z</time>
      </trkpt>
      <trkpt lat="40.1064120" lon="-4.7279320">
        <ele>681.5</ele>
        <time>2020-10-04T08:41:23Z</time>
      </trkpt>
      <trkpt lat="40.1064190" lon="-4.7279540">
        <ele>681.6</ele>
        <time>2020-10-04T08:41:24Z</time>
      </trkpt>
      <trkpt lat="40.1064270" lon="-4.7279750">
        <ele>681.7</ele>
        <time>2020-10-04T08:41:25Z</time>
      </trkpt>
      <trkpt lat="40.1064500" lon="-4.7280330">
        <ele>682.1</ele>
        <time>2020-10-04T08:41:27Z</time>
      </trkpt>
      <trkpt lat="40.1064560" lon="-4.7280520">
        <ele>682.2</ele>
        <time>2020-10-04T08:41:28Z</time>
      </trkpt>
      <trkpt lat="40.1064630" lon="-4.7280720">
        <ele>682.4</ele>
        <time>2020-10-04T08:41:29Z</time>
      </trkpt>
      <trkpt lat="40.1064750" lon="-4.7281120">
        <ele>682.6</ele>
        <time>2020-10-04T08:41:30Z</time>
      </trkpt>
      <trkpt lat="40.1064790" lon="-4.7281270">
        <ele>682.7</ele>
        <time>2020-10-04T08:41:31Z</time>
      </trkpt>
      <trkpt lat="40.1064890" lon="-4.7281660">
        <ele>682.9</ele>
        <time>2020-10-04T08:41:33Z</time>
      </trkpt>
      <trkpt lat="40.1064910" lon="-4.7281760">
        <ele>683.0</ele>
        <time>2020-10-04T08:41:34Z</time>
      </trkpt>
      <trkpt lat="40.1065040" lon="-4.7282190">
        <ele>683.2</ele>
        <time>2020-10-04T08:41:35Z</time>
      </trkpt>
      <trkpt lat="40.1065070" lon="-4.7282320">
        <ele>683.3</ele>
        <time>2020-10-04T08:41:36Z</time>
      </trkpt>
      <trkpt lat="40.1065170" lon="-4.7282680">
        <ele>683.5</ele>
        <time>2020-10-04T08:41:38Z</time>
      </trkpt>
      <trkpt lat="40.1065320" lon="-4.7283190">
        <ele>683.9</ele>
        <time>2020-10-04T08:41:40Z</time>
      </trkpt>
      <trkpt lat="40.1065410" lon="-4.7283440">
        <ele>684.0</ele>
        <time>2020-10-04T08:41:41Z</time>
      </trkpt>
      <trkpt lat="40.1065570" lon="-4.7283840">
        <ele>684.3</ele>
        <time>2020-10-04T08:41:43Z</time>
      </trkpt>
      <trkpt lat="40.1065710" lon="-4.7284250">
        <ele>684.5</ele>
        <time>2020-10-04T08:41:44Z</time>
      </trkpt>
      <trkpt lat="40.1065750" lon="-4.7284390">
        <ele>684.6</ele>
        <time>2020-10-04T08:41:45Z</time>
      </trkpt>
      <trkpt lat="40.1065880" lon="-4.7284730">
        <ele>684.8</ele>
        <time>2020-10-04T08:41:46Z</time>
      </trkpt>
      <trkpt lat="40.1065980" lon="-4.7285010">
        <ele>685.0</ele>
        <time>2020-10-04T08:41:47Z</time>
      </trkpt>
      <trkpt lat="40.1066150" lon="-4.7285580">
        <ele>685.3</ele>
        <time>2020-10-04T08:41:49Z</time>
      </trkpt>
      <trkpt lat="40.1066240" lon="-4.7285840">
        <ele>685.5</ele>
        <time>2020-10-04T08:41:51Z</time>
      </trkpt>
      <trkpt lat="40.1066400" lon="-4.7286220">
        <ele>685.7</ele>
        <time>2020-10-04T08:41:52Z</time>
      </trkpt>
      <trkpt lat="40.1066590" lon="-4.7286720">
        <ele>686.0</ele>
        <time>2020-10-04T08:41:53Z</time>
      </trkpt>
      <trkpt lat="40.1066650" lon="-4.7286920">
        <ele>686.1</ele>
        <time>2020-10-04T08:41:54Z</time>
      </trkpt>
      <trkpt lat="40.1066870" lon="-4.7287510">
        <ele>686.5</ele>
        <time>2020-10-04T08:41:56Z</time>
      </trkpt>
      <trkpt lat="40.1066930" lon="-4.7287700">
        <ele>686.6</ele>
        <time>2020-10-04T08:41:57Z</time>
      </trkpt>
      <trkpt lat="40.1067000" lon="-4.7287890">
        <ele>686.7</ele>
        <time>2020-10-04T08:41:58Z</time>
      </trkpt>
      <trkpt lat="40.1067150" lon="-4.7288330">
        <ele>687.0</ele>
        <time>2020-10-04T08:42:00Z</time>
      </trkpt>
      <trkpt lat="40.1067210" lon="-4.7288510">
        <ele>687.1</ele>
        <time>2020-10-04T08:42:01Z</time>
      </trkpt>
      <trkpt lat="40.1067430" lon="-4.7289030">
        <ele>687.5</ele>
        <time>2020-10-04T08:42:03Z</time>
      </trkpt>
      <trkpt lat="40.1067500" lon="-4.7289200">
        <ele>687.6</ele>
        <time>2020-10-04T08:42:04Z</time>
      </trkpt>
      <trkpt lat="40.1067570" lon="-4.7289360">
        <ele>687.7</ele>
        <time>2020-10-04T08:42:05Z</time>
      </trkpt>
      <trkpt lat="40.1067710" lon="-4.7289730">
        <ele>687.9</ele>
        <time>2020-10-04T08:42:06Z</time>
      </trkpt>
      <trkpt lat="40.1067970" lon="-4.7290220">
        <ele>688.3</ele>
        <time>2020-10-04T08:42:08Z</time>
      </trkpt>
      <trkpt lat="40.1068180" lon="-4.7290600">
        <ele>688.5</ele>
        <time>2020-10-04T08:42:09Z</time>
      </trkpt>
      <trkpt lat="40.1068330" lon="-4.7290930">
        <ele>688.7</ele>
        <time>2020-10-04T08:42:10Z</time>
      </trkpt>
      <trkpt lat="40.1068460" lon="-4.7291290">
        <ele>689.0</ele>
        <time>2020-10-04T08:42:11Z</time>
      </trkpt>
      <trkpt lat="40.1068570" lon="-4.7291620">
        <ele>689.2</ele>
        <time>2020-10-04T08:42:13Z</time>
      </trkpt>
      <trkpt lat="40.1068680" lon="-4.7292000">
        <ele>689.4</ele>
        <time>2020-10-04T08:42:14Z</time>
      </trkpt>
      <trkpt lat="40.1068800" lon="-4.7292460">
        <ele>689.7</ele>
        <time>2020-10-04T08:42:16Z</time>
      </trkpt>
      <trkpt lat="40.1068920" lon="-4.7292780">
        <ele>689.9</ele>
        <time>2020-10-04T08:42:17Z</time>
      </trkpt>
      <trkpt lat="40.1069000" lon="-4.7293160">
        <ele>690.1</ele>
        <time>2020-10-04T08:42:18Z</time>
      </trkpt>
      <trkpt lat="40.1069020" lon="-4.7293340">
        <ele>690.2</ele>
        <time>2020-10-04T08:42:20Z</time>
      </trkpt>
      <trkpt lat="40.1069030" lon="-4.7293510">
        <ele>690.3</ele>
        <time>2020-10-04T08:42:21Z</time>
      </trkpt>
      <trkpt lat="40.1069040" lon="-4.7293690">
        <ele>690.4</ele>
        <time>2020-10-04T08:42:22Z</time>
      </trkpt>
      <trkpt lat="40.1069010" lon="-4.7293910">
        <ele>690.5</ele>
        <time>2020-10-04T08:42:23Z</time>
      </trkpt>
      <trkpt lat="40.1069000" lon="-4.7294150">
        <ele>690.6</ele>
        <time>2020-10-04T08:42:24Z</time>
      </trkpt>
      <trkpt lat="40.1069000" lon="-4.7294590">
        <ele>690.9</ele>
        <time>2020-10-04T08:42:26Z</time>
      </trkpt>
      <trkpt lat="40.1069100" lon="-4.7295170">
        <ele>691.2</ele>
        <time>2020-10-04T08:42:28Z</time>
      </trkpt>
      <trkpt lat="40.1069200" lon="-4.7295580">
        <ele>691.4</ele>
        <time>2020-10-04T08:42:29Z</time>
      </trkpt>
      <trkpt lat="40.1069290" lon="-4.7296000">
        <ele>691.6</ele>
        <time>2020-10-04T08:42:31Z</time>
      </trkpt>
      <trkpt lat="40.1069410" lon="-4.7296580">
        <ele>691.9</ele>
        <time>2020-10-04T08:42:33Z</time>
      </trkpt>
      <trkpt lat="40.1069540" lon="-4.7296930">
        <ele>692.1</ele>
        <time>2020-10-04T08:42:34Z</time>
      </trkpt>
      <trkpt lat="40.1069610" lon="-4.7297290">
        <ele>692.3</ele>
        <time>2020-10-04T08:42:36Z</time>
      </trkpt>
      <trkpt lat="40.1069640" lon="-4.7297850">
        <ele>692.7</ele>
        <time>2020-10-04T08:42:38Z</time>
      </trkpt>
      <trkpt lat="40.1069670" lon="-4.7298260">
        <ele>692.9</ele>
        <time>2020-10-04T08:42:39Z</time>
      </trkpt>
      <trkpt lat="40.1069670" lon="-4.7298400">
        <ele>693.0</ele>
        <time>2020-10-04T08:42:40Z</time>
      </trkpt>
      <trkpt lat="40.1069710" lon="-4.7298910">
        <ele>693.3</ele>
        <time>2020-10-04T08:42:41Z</time>
      </trkpt>
      <trkpt lat="40.1069730" lon="-4.7299080">
        <ele>693.4</ele>
        <time>2020-10-04T08:42:42Z</time>
      </trkpt>
      <trkpt lat="40.1069790" lon="-4.7299710">
        <ele>693.8</ele>
        <time>2020-10-04T08:42:44Z</time>
      </trkpt>
      <trkpt lat="40.1069820" lon="-4.7299920">
        <ele>694.0</ele>
        <time>2020-10-04T08:42:45Z</time>
      </trkpt>
      <trkpt lat="40.1069850" lon="-4.7300140">
        <ele>694.1</ele>
        <time>2020-10-04T08:42:46Z</time>
      </trkpt>
      <trkpt lat="40.1069950" lon="-4.7300670">
        <ele>694.5</ele>
        <time>2020-10-04T08:42:48Z</time>
      </trkpt>
      <trkpt lat="40.1069970" lon="-4.7300840">
        <ele>694.6</ele>
        <time>2020-10-04T08:42:49Z</time>
      </trkpt>
      <trkpt lat="40.1070000" lon="-4.7301010">
        <ele>694.7</ele>
        <time>2020-10-04T08:42:50Z</time>
      </trkpt>
      <trkpt lat="40.1070110" lon="-4.7301650">
        <ele>695.2</ele>
        <time>2020-10-04T08:42:52Z</time>
      </trkpt>
      <trkpt lat="40.1070160" lon="-4.7301820">
        <ele>695.3</ele>
        <time>2020-10-04T08:42:53Z</time>
      </trkpt>
      <trkpt lat="40.1070200" lon="-4.7302000">
        <ele>695.4</ele>
        <time>2020-10-04T08:42:54Z</time>
      </trkpt>
      <trkpt lat="40.1070280" lon="-4.7302370">
        <ele>695.7</ele>
        <time>2020-10-04T08:42:55Z</time>
      </trkpt>
      <trkpt lat="40.1070380" lon="-4.7302810">
        <ele>696.0</ele>
        <time>2020-10-04T08:42:57Z</time>
      </trkpt>
      <trkpt lat="40.1070410" lon="-4.7302950">
        <ele>696.1</ele>
        <time>2020-10-04T08:42:58Z</time>
      </trkpt>
      <trkpt lat="40.1070560" lon="-4.7303310">
        <ele>696.5</ele>
        <time>2020-10-04T08:42:59Z</time>
      </trkpt>
      <trkpt lat="40.1070600" lon="-4.7303420">
        <ele>696.6</ele>
        <time>2020-10-04T08:43:00Z</time>
      </trkpt>
      <trkpt lat="40.1070720" lon="-4.7303720">
        <ele>696.8</ele>
        <time>2020-10-04T08:43:01Z</time>
      </trkpt>
      <trkpt lat="40.1070860" lon="-4.7304080">
        <ele>697.1</ele>
        <time>2020-10-04T08:43:03Z</time>
      </trkpt>
      <trkpt lat="40.1071030" lon="-4.7304510">
        <ele>697.5</ele>
        <time>2020-10-04T08:43:05Z</time>
      </trkpt>
      <trkpt lat="40.1071160" lon="-4.7304830">
        <ele>697.8</ele>
        <time>2020-10-04T08:43:06Z</time>
      </trkpt>
      <trkpt lat="40.1071410" lon="-4.7305320">
        <ele>698.2</ele>
        <time>2020-10-04T08:43:08Z</time>
      </trkpt>
      <trkpt lat="40.1071520" lon="-4.7305520">
        <ele>698.4</ele>
        <time>2020-10-04T08:43:10Z</time>
      </trkpt>
      <trkpt lat="40.1071620" lon="-4.7305710">
        <ele>698.6</ele>
        <time>2020-10-04T08:43:11Z</time>
      </trkpt>
      <trkpt lat="40.1071800" lon="-4.7306050">
        <ele>698.9</ele>
        <time>2020-10-04T08:43:12Z</time>
      </trkpt>
      <trkpt lat="40.1071990" lon="-4.7306440">
        <ele>699.3</ele>
        <time>2020-10-04T08:43:14Z</time>
      </trkpt>
      <trkpt lat="40.1072100" lon="-4.7306730">
        <ele>699.6</ele>
        <time>2020-10-04T08:43:15Z</time>
      </trkpt>
      <trkpt lat="40.1072300" lon="-4.7307190">
        <ele>700.0</ele>
        <time>2020-10-04T08:43:17Z</time>
      </trkpt>
      <trkpt lat="40.1072440" lon="-4.7307550">
        <ele>700.3</ele>
        <time>2020-10-04T08:43:18Z</time>
      </trkpt>
      <trkpt lat="40.1072550" lon="-4.7307790">
        <ele>700.5</ele>
        <time>2020-10-04T08:43:19Z</time>
      </trkpt>
      <trkpt lat="40.1072670" lon="-4.7308130">
        <ele>700.8</ele>
        <time>2020-10-04T08:43:21Z</time>
      </trkpt>
      <trkpt lat="40.1072770" lon="-4.7308390">
        <ele>701.1</ele>
        <time>2020-10-04T08:43:22Z</time>
      </trkpt>
      <trkpt lat="40.1072930" lon="-4.7308730">
        <ele>701.4</ele>
        <time>2020-10-04T08:43:24Z</time>
      </trkpt>
      <trkpt lat="40.1073080" lon="-4.7309130">
        <ele>701.7</ele>
        <time>2020-10-04T08:43:25Z</time>
      </trkpt>
      <trkpt lat="40.1073130" lon="-4.7309260">
        <ele>701.8</ele>
        <time>2020-10-04T08:43:26Z</time>
      </trkpt>
      <trkpt lat="40.1073210" lon="-4.7309470">
        <ele>702.0</ele>
        <time>2020-10-04T08:43:27Z</time>
      </trkpt>
      <trkpt lat="40.1073260" lon="-4.7309690">
        <ele>702.2</ele>
        <time>2020-10-04T08:43:28Z</time>
      </trkpt>
      <trkpt lat="40.1073370" lon="-4.7310040">
        <ele>702.5</ele>
        <time>2020-10-04T08:43:29Z</time>
      </trkpt>
      <trkpt lat="40.1073420" lon="-4.7310190">
        <ele>702.6</ele>
        <time>2020-10-04T08:43:30Z</time>
      </trkpt>
      <trkpt lat="40.1073560" lon="-4.7310530">
        <ele>702.9</ele>
        <time>2020-10-04T08:43:32Z</time>
      </trkpt>
      <trkpt lat="40.1073650" lon="-4.7310740">
        <ele>703.1</ele>
        <time>2020-10-04T08:43:33Z</time>
      </trkpt>
      <trkpt lat="40.1073820" lon="-4.7311110">
        <ele>703.4</ele>
        <time>2020-10-04T08:43:35Z</time>
      </trkpt>
      <trkpt lat="40.1073910" lon="-4.7311300">
        <ele>703.6</ele>
        <time>2020-10-04T08:43:36Z</time>
      </trkpt>
      <trkpt lat="40.1074000" lon="-4.7311490">
        <ele>703.8</ele>
        <time>2020-10-04T08:43:37Z</time>
      </trkpt>
      <trkpt lat="40.1074060" lon="-4.7311670">
        <ele>703.9</ele>
        <time>2020-10-04T08:43:38Z</time>
      </trkpt>
      <trkpt lat="40.1074180" lon="-4.7312030">
        <ele>704.2</ele>
        <time>2020-10-04T08:43:40Z</time>
      </trkpt>
      <trkpt lat="40.1074310" lon="-4.7312420">
        <ele>704.5</ele>
        <time>2020-10-04T08:43:41Z</time>
      </trkpt>
      <trkpt lat="40.1074360" lon="-4.7312580">
        <ele>704.7</ele>
        <time>2020-10-04T08:43:42Z</time>
      </trkpt>
      <trkpt lat="40.1074440" lon="-4.7312830">
        <ele>704.9</ele>
        <time>2020-10-04T08:43:43Z</time>
      </trkpt>
      <trkpt lat="40.1074570" lon="-4.7313120">
        <ele>705.1</ele>
        <time>2020-10-04T08:43:45Z</time>
      </trkpt>
      <trkpt lat="40.1074680" lon="-4.7313350">
        <ele>705.3</ele>
        <time>2020-10-04T08:43:46Z</time>
      </trkpt>
      <trkpt lat="40.1074940" lon="-4.7313780">
        <ele>705.6</ele>
        <time>2020-10-04T08:43:48Z</time>
      </trkpt>
      <trkpt lat="40.1075070" lon="-4.7314080">
        <ele>705.9</ele>
        <time>2020-10-04T08:43:49Z</time>
      </trkpt>
      <trkpt lat="40.1075190" lon="-4.7314410">
        <ele>706.1</ele>
        <time>2020-10-04T08:43:51Z</time>
      </trkpt>
      <trkpt lat="40.1075340" lon="-4.7314760">
        <ele>706.3</ele>
        <time>2020-10-04T08:43:52Z</time>
      </trkpt>
      <trkpt lat="40.1075390" lon="-4.7314890">
        <ele>706.4</ele>
        <time>2020-10-04T08:43:53Z</time>
      </trkpt>
      <trkpt lat="40.1075540" lon="-4.7315240">
        <ele>706.6</ele>
        <time>2020-10-04T08:43:55Z</time>
      </trkpt>
      <trkpt lat="40.1075610" lon="-4.7315300">
        <ele>706.6</ele>
        <time>2020-10-04T08:43:56Z</time>
      </trkpt>
      <trkpt lat="40.1075940" lon="-4.7315170">
        <ele>706.8</ele>
        <time>2020-10-04T08:43:58Z</time>
      </trkpt>
      <trkpt lat="40.1076090" lon="-4.7315110">
        <ele>706.9</ele>
        <time>2020-10-04T08:44:00Z</time>
      </trkpt>
      <trkpt lat="40.1076050" lon="-4.7314960">
        <ele>707.0</ele>
        <time>2020-10-04T08:44:01Z</time>
      </trkpt>
      <trkpt lat="40.1075990" lon="-4.7314900">
        <ele>707.0</ele>
        <time>2020-10-04T08:44:03Z</time>
      </trkpt>
      <trkpt lat="40.1075910" lon="-4.7314770">
        <ele>707.1</ele>
        <time>2020-10-04T08:44:05Z</time>
      </trkpt>
      <trkpt lat="40.1075810" lon="-4.7314590">
        <ele>707.2</ele>
        <time>2020-10-04T08:44:07Z</time>
      </trkpt>
      <trkpt lat="40.1075750" lon="-4.7314510">
        <ele>707.2</ele>
        <time>2020-10-04T08:44:09Z</time>
      </trkpt>
      <trkpt lat="40.1075700" lon="-4.7314450">
        <ele>707.2</ele>
        <time>2020-10-04T08:44:11Z</time>
      </trkpt>
      <trkpt lat="40.1075680" lon="-4.7314410">
        <ele>707.2</ele>
        <time>2020-10-04T08:44:12Z</time>
      </trkpt>
      <trkpt lat="40.1075660" lon="-4.7314370">
        <ele>707.3</ele>
        <time>2020-10-04T08:44:14Z</time>
      </trkpt>
      <trkpt lat="40.1075630" lon="-4.7313320">
        <ele>707.5</ele>
        <time>2020-10-04T08:47:13Z</time>
      </trkpt>
      <trkpt lat="40.1075780" lon="-4.7313540">
        <ele>707.6</ele>
        <time>2020-10-04T08:47:14Z</time>
      </trkpt>
      <trkpt lat="40.1076170" lon="-4.7314090">
        <ele>707.8</ele>
        <time>2020-10-04T08:47:16Z</time>
      </trkpt>
      <trkpt lat="40.1076330" lon="-4.7314360">
        <ele>707.8</ele>
        <time>2020-10-04T08:47:17Z</time>
      </trkpt>
      <trkpt lat="40.1076510" lon="-4.7314730">
        <ele>707.9</ele>
        <time>2020-10-04T08:47:19Z</time>
      </trkpt>
      <trkpt lat="40.1076720" lon="-4.7315260">
        <ele>708.0</ele>
        <time>2020-10-04T08:47:20Z</time>
      </trkpt>
      <trkpt lat="40.1076980" lon="-4.7315950">
        <ele>708.2</ele>
        <time>2020-10-04T08:47:21Z</time>
      </trkpt>
      <trkpt lat="40.1077210" lon="-4.7316580">
        <ele>708.3</ele>
        <time>2020-10-04T08:47:22Z</time>
      </trkpt>
      <trkpt lat="40.1077370" lon="-4.7317050">
        <ele>708.4</ele>
        <time>2020-10-04T08:47:24Z</time>
      </trkpt>
      <trkpt lat="40.1077520" lon="-4.7317450">
        <ele>708.4</ele>
        <time>2020-10-04T08:47:25Z</time>
      </trkpt>
      <trkpt lat="40.1077640" lon="-4.7317810">
        <ele>708.5</ele>
        <time>2020-10-04T08:47:26Z</time>
      </trkpt>
      <trkpt lat="40.1077840" lon="-4.7318370">
        <ele>708.6</ele>
        <time>2020-10-04T08:47:28Z</time>
      </trkpt>
      <trkpt lat="40.1077960" lon="-4.7318790">
        <ele>708.6</ele>
        <time>2020-10-04T08:47:29Z</time>
      </trkpt>
      <trkpt lat="40.1078060" lon="-4.7319140">
        <ele>708.6</ele>
        <time>2020-10-04T08:47:30Z</time>
      </trkpt>
      <trkpt lat="40.1078210" lon="-4.7319800">
        <ele>708.6</ele>
        <time>2020-10-04T08:47:32Z</time>
      </trkpt>
      <trkpt lat="40.1078300" lon="-4.7320090">
        <ele>708.6</ele>
        <time>2020-10-04T08:47:33Z</time>
      </trkpt>
      <trkpt lat="40.1078500" lon="-4.7320650">
        <ele>708.7</ele>
        <time>2020-10-04T08:47:35Z</time>
      </trkpt>
      <trkpt lat="40.1078630" lon="-4.7320960">
        <ele>708.8</ele>
        <time>2020-10-04T08:47:36Z</time>
      </trkpt>
      <trkpt lat="40.1078810" lon="-4.7321410">
        <ele>709.1</ele>
        <time>2020-10-04T08:47:38Z</time>
      </trkpt>
      <trkpt lat="40.1078990" lon="-4.7321840">
        <ele>709.2</ele>
        <time>2020-10-04T08:47:39Z</time>
      </trkpt>
      <trkpt lat="40.1079120" lon="-4.7322250">
        <ele>709.4</ele>
        <time>2020-10-04T08:47:40Z</time>
      </trkpt>
      <trkpt lat="40.1079250" lon="-4.7322710">
        <ele>709.5</ele>
        <time>2020-10-04T08:47:42Z</time>
      </trkpt>
      <trkpt lat="40.1079330" lon="-4.7323090">
        <ele>709.7</ele>
        <time>2020-10-04T08:47:43Z</time>
      </trkpt>
      <trkpt lat="40.1079400" lon="-4.7323460">
        <ele>709.8</ele>
        <time>2020-10-04T08:47:44Z</time>
      </trkpt>
      <trkpt lat="40.1079460" lon="-4.7323920">
        <ele>709.9</ele>
        <time>2020-10-04T08:47:45Z</time>
      </trkpt>
      <trkpt lat="40.1079480" lon="-4.7324260">
        <ele>710.0</ele>
        <time>2020-10-04T08:47:46Z</time>
      </trkpt>
      <trkpt lat="40.1079510" lon="-4.7324610">
        <ele>710.2</ele>
        <time>2020-10-04T08:47:48Z</time>
      </trkpt>
      <trkpt lat="40.1079550" lon="-4.7324960">
        <ele>710.3</ele>
        <time>2020-10-04T08:47:49Z</time>
      </trkpt>
      <trkpt lat="40.1079550" lon="-4.7325360">
        <ele>710.4</ele>
        <time>2020-10-04T08:47:50Z</time>
      </trkpt>
      <trkpt lat="40.1079560" lon="-4.7325690">
        <ele>710.5</ele>
        <time>2020-10-04T08:47:51Z</time>
      </trkpt>
      <trkpt lat="40.1079600" lon="-4.7326160">
        <ele>710.7</ele>
        <time>2020-10-04T08:47:53Z</time>
      </trkpt>
      <trkpt lat="40.1079650" lon="-4.7326540">
        <ele>710.8</ele>
        <time>2020-10-04T08:47:54Z</time>
      </trkpt>
      <trkpt lat="40.1079670" lon="-4.7326690">
        <ele>710.9</ele>
        <time>2020-10-04T08:47:55Z</time>
      </trkpt>
      <trkpt lat="40.1079780" lon="-4.7327120">
        <ele>711.0</ele>
        <time>2020-10-04T08:47:56Z</time>
      </trkpt>
      <trkpt lat="40.1079820" lon="-4.7327280">
        <ele>711.1</ele>
        <time>2020-10-04T08:47:57Z</time>
      </trkpt>
      <trkpt lat="40.1079920" lon="-4.7327630">
        <ele>711.2</ele>
        <time>2020-10-04T08:47:58Z</time>
      </trkpt>
      <trkpt lat="40.1080080" lon="-4.7328190">
        <ele>711.4</ele>
        <time>2020-10-04T08:48:00Z</time>
      </trkpt>
      <trkpt lat="40.1080180" lon="-4.7328570">
        <ele>711.6</ele>
        <time>2020-10-04T08:48:02Z</time>
      </trkpt>
      <trkpt lat="40.1080300" lon="-4.7328970">
        <ele>711.8</ele>
        <time>2020-10-04T08:48:03Z</time>
      </trkpt>
      <trkpt lat="40.1080390" lon="-4.7329280">
        <ele>711.9</ele>
        <time>2020-10-04T08:48:04Z</time>
      </trkpt>
      <trkpt lat="40.1080540" lon="-4.7329770">
        <ele>712.1</ele>
        <time>2020-10-04T08:48:06Z</time>
      </trkpt>
      <trkpt lat="40.1080670" lon="-4.7330080">
        <ele>712.2</ele>
        <time>2020-10-04T08:48:07Z</time>
      </trkpt>
      <trkpt lat="40.1080820" lon="-4.7330500">
        <ele>712.4</ele>
        <time>2020-10-04T08:48:08Z</time>
      </trkpt>
      <trkpt lat="40.1080860" lon="-4.7330640">
        <ele>712.5</ele>
        <time>2020-10-04T08:48:09Z</time>
      </trkpt>
      <trkpt lat="40.1081050" lon="-4.7331160">
        <ele>712.7</ele>
        <time>2020-10-04T08:48:11Z</time>
      </trkpt>
      <trkpt lat="40.1081210" lon="-4.7331620">
        <ele>712.9</ele>
        <time>2020-10-04T08:48:13Z</time>
      </trkpt>
      <trkpt lat="40.1081310" lon="-4.7332010">
        <ele>713.0</ele>
        <time>2020-10-04T08:48:14Z</time>
      </trkpt>
      <trkpt lat="40.1081400" lon="-4.7332330">
        <ele>713.2</ele>
        <time>2020-10-04T08:48:15Z</time>
      </trkpt>
      <trkpt lat="40.1081530" lon="-4.7332700">
        <ele>713.4</ele>
        <time>2020-10-04T08:48:17Z</time>
      </trkpt>
      <trkpt lat="40.1081630" lon="-4.7333050">
        <ele>713.5</ele>
        <time>2020-10-04T08:48:18Z</time>
      </trkpt>
      <trkpt lat="40.1081640" lon="-4.7333440">
        <ele>713.7</ele>
        <time>2020-10-04T08:48:19Z</time>
      </trkpt>
      <trkpt lat="40.1081690" lon="-4.7333920">
        <ele>714.0</ele>
        <time>2020-10-04T08:48:21Z</time>
      </trkpt>
      <trkpt lat="40.1081760" lon="-4.7334280">
        <ele>714.1</ele>
        <time>2020-10-04T08:48:22Z</time>
      </trkpt>
      <trkpt lat="40.1081820" lon="-4.7334760">
        <ele>714.4</ele>
        <time>2020-10-04T08:48:24Z</time>
      </trkpt>
      <trkpt lat="40.1081860" lon="-4.7335170">
        <ele>714.7</ele>
        <time>2020-10-04T08:48:25Z</time>
      </trkpt>
      <trkpt lat="40.1081910" lon="-4.7335470">
        <ele>714.8</ele>
        <time>2020-10-04T08:48:26Z</time>
      </trkpt>
      <trkpt lat="40.1081980" lon="-4.7335830">
        <ele>715.0</ele>
        <time>2020-10-04T08:48:28Z</time>
      </trkpt>
      <trkpt lat="40.1082050" lon="-4.7336210">
        <ele>715.3</ele>
        <time>2020-10-04T08:48:29Z</time>
      </trkpt>
      <trkpt lat="40.1082140" lon="-4.7336630">
        <ele>715.5</ele>
        <time>2020-10-04T08:48:30Z</time>
      </trkpt>
      <trkpt lat="40.1082220" lon="-4.7337090">
        <ele>715.8</ele>
        <time>2020-10-04T08:48:32Z</time>
      </trkpt>
      <trkpt lat="40.1082270" lon="-4.7337490">
        <ele>716.0</ele>
        <time>2020-10-04T08:48:33Z</time>
      </trkpt>
      <trkpt lat="40.1082320" lon="-4.7337890">
        <ele>716.3</ele>
        <time>2020-10-04T08:48:35Z</time>
      </trkpt>
      <trkpt lat="40.1082340" lon="-4.7338270">
        <ele>716.5</ele>
        <time>2020-10-04T08:48:36Z</time>
      </trkpt>
      <trkpt lat="40.1082330" lon="-4.7338730">
        <ele>716.8</ele>
        <time>2020-10-04T08:48:37Z</time>
      </trkpt>
      <trkpt lat="40.1082330" lon="-4.7338860">
        <ele>716.9</ele>
        <time>2020-10-04T08:48:38Z</time>
      </trkpt>
      <trkpt lat="40.1082350" lon="-4.7339130">
        <ele>717.0</ele>
        <time>2020-10-04T08:48:39Z</time>
      </trkpt>
      <trkpt lat="40.1082370" lon="-4.7339560">
        <ele>717.3</ele>
        <time>2020-10-04T08:48:41Z</time>
      </trkpt>
      <trkpt lat="40.1082370" lon="-4.7339960">
        <ele>717.6</ele>
        <time>2020-10-04T08:48:42Z</time>
      </trkpt>
      <trkpt lat="40.1082350" lon="-4.7340410">
        <ele>717.9</ele>
        <time>2020-10-04T08:48:44Z</time>
      </trkpt>
      <trkpt lat="40.1082350" lon="-4.7340620">
        <ele>718.1</ele>
        <time>2020-10-04T08:48:45Z</time>
      </trkpt>
      <trkpt lat="40.1082370" lon="-4.7340830">
        <ele>718.2</ele>
        <time>2020-10-04T08:48:46Z</time>
      </trkpt>
      <trkpt lat="40.1082400" lon="-4.7341070">
        <ele>718.4</ele>
        <time>2020-10-04T08:48:47Z</time>
      </trkpt>
      <trkpt lat="40.1082430" lon="-4.7341370">
        <ele>718.6</ele>
        <time>2020-10-04T08:48:49Z</time>
      </trkpt>
      <trkpt lat="40.1082470" lon="-4.7341730">
        <ele>718.8</ele>
        <time>2020-10-04T08:48:50Z</time>
      </trkpt>
      <trkpt lat="40.1082490" lon="-4.7342030">
        <ele>719.0</ele>
        <time>2020-10-04T08:48:51Z</time>
      </trkpt>
      <trkpt lat="40.1082530" lon="-4.7342310">
        <ele>719.3</ele>
        <time>2020-10-04T08:48:53Z</time>
      </trkpt>
      <trkpt lat="40.1082550" lon="-4.7342740">
        <ele>719.6</ele>
        <time>2020-10-04T08:48:54Z</time>
      </trkpt>
      <trkpt lat="40.1082540" lon="-4.7342820">
        <ele>719.6</ele>
        <time>2020-10-04T08:48:55Z</time>
      </trkpt>
      <trkpt lat="40.1082550" lon="-4.7343070">
        <ele>719.8</ele>
        <time>2020-10-04T08:48:56Z</time>
      </trkpt>
      <trkpt lat="40.1082580" lon="-4.7343290">
        <ele>720.0</ele>
        <time>2020-10-04T08:48:57Z</time>
      </trkpt>
      <trkpt lat="40.1082580" lon="-4.7343540">
        <ele>720.2</ele>
        <time>2020-10-04T08:48:58Z</time>
      </trkpt>
      <trkpt lat="40.1082610" lon="-4.7343790">
        <ele>720.4</ele>
        <time>2020-10-04T08:49:00Z</time>
      </trkpt>
      <trkpt lat="40.1082670" lon="-4.7344240">
        <ele>720.8</ele>
        <time>2020-10-04T08:49:01Z</time>
      </trkpt>
      <trkpt lat="40.1082700" lon="-4.7344440">
        <ele>721.0</ele>
        <time>2020-10-04T08:49:02Z</time>
      </trkpt>
      <trkpt lat="40.1082720" lon="-4.7344830">
        <ele>721.3</ele>
        <time>2020-10-04T08:49:04Z</time>
      </trkpt>
      <trkpt lat="40.1082760" lon="-4.7345150">
        <ele>721.6</ele>
        <time>2020-10-04T08:49:05Z</time>
      </trkpt>
      <trkpt lat="40.1082790" lon="-4.7345560">
        <ele>722.0</ele>
        <time>2020-10-04T08:49:07Z</time>
      </trkpt>
      <trkpt lat="40.1082810" lon="-4.7345980">
        <ele>722.4</ele>
        <time>2020-10-04T08:49:08Z</time>
      </trkpt>
      <trkpt lat="40.1082770" lon="-4.7346370">
        <ele>722.8</ele>
        <time>2020-10-04T08:49:09Z</time>
      </trkpt>
      <trkpt lat="40.1082750" lon="-4.7346650">
        <ele>723.0</ele>
        <time>2020-10-04T08:49:10Z</time>
      </trkpt>
      <trkpt lat="40.1082740" lon="-4.7347000">
        <ele>723.4</ele>
        <time>2020-10-04T08:49:12Z</time>
      </trkpt>
      <trkpt lat="40.1082780" lon="-4.7347310">
        <ele>723.7</ele>
        <time>2020-10-04T08:49:13Z</time>
      </trkpt>
      <trkpt lat="40.1082810" lon="-4.7347590">
        <ele>724.0</ele>
        <time>2020-10-04T08:49:15Z</time>
      </trkpt>
      <trkpt lat="40.1082860" lon="-4.7348050">
        <ele>724.5</ele>
        <time>2020-10-04T08:49:16Z</time>
      </trkpt>
      <trkpt lat="40.1082880" lon="-4.7348190">
        <ele>724.6</ele>
        <time>2020-10-04T08:49:17Z</time>
      </trkpt>
      <trkpt lat="40.1082900" lon="-4.7348520">
        <ele>725.0</ele>
        <time>2020-10-04T08:49:18Z</time>
      </trkpt>
      <trkpt lat="40.1082960" lon="-4.7348880">
        <ele>725.4</ele>
        <time>2020-10-04T08:49:20Z</time>
      </trkpt>
      <trkpt lat="40.1083030" lon="-4.7349220">
        <ele>725.8</ele>
        <time>2020-10-04T08:49:21Z</time>
      </trkpt>
      <trkpt lat="40.1083180" lon="-4.7349820">
        <ele>726.5</ele>
        <time>2020-10-04T08:49:23Z</time>
      </trkpt>
      <trkpt lat="40.1083240" lon="-4.7349990">
        <ele>726.7</ele>
        <time>2020-10-04T08:49:24Z</time>
      </trkpt>
      <trkpt lat="40.1083290" lon="-4.7350170">
        <ele>726.9</ele>
        <time>2020-10-04T08:49:25Z</time>
      </trkpt>
      <trkpt lat="40.1083430" lon="-4.7350480">
        <ele>727.3</ele>
        <time>2020-10-04T08:49:26Z</time>
      </trkpt>
      <trkpt lat="40.1083480" lon="-4.7350600">
        <ele>727.4</ele>
        <time>2020-10-04T08:49:27Z</time>
      </trkpt>
      <trkpt lat="40.1083590" lon="-4.7350790">
        <ele>727.7</ele>
        <time>2020-10-04T08:49:28Z</time>
      </trkpt>
      <trkpt lat="40.1083780" lon="-4.7350980">
        <ele>728.1</ele>
        <time>2020-10-04T08:49:30Z</time>
      </trkpt>
      <trkpt lat="40.1084070" lon="-4.7351100">
        <ele>728.5</ele>
        <time>2020-10-04T08:49:31Z</time>
      </trkpt>
      <trkpt lat="40.1084350" lon="-4.7351240">
        <ele>728.7</ele>
        <time>2020-10-04T08:49:33Z</time>
      </trkpt>
      <trkpt lat="40.1084670" lon="-4.7351430">
        <ele>729.2</ele>
        <time>2020-10-04T08:49:34Z</time>
      </trkpt>
      <trkpt lat="40.1084870" lon="-4.7351490">
        <ele>729.5</ele>
        <time>2020-10-04T08:49:35Z</time>
      </trkpt>
      <trkpt lat="40.1085020" lon="-4.7351550">
        <ele>729.7</ele>
        <time>2020-10-04T08:49:36Z</time>
      </trkpt>
      <trkpt lat="40.1085380" lon="-4.7351640">
        <ele>730.2</ele>
        <time>2020-10-04T08:49:38Z</time>
      </trkpt>
      <trkpt lat="40.1085480" lon="-4.7351650">
        <ele>730.3</ele>
        <time>2020-10-04T08:49:39Z</time>
      </trkpt>
      <trkpt lat="40.1085880" lon="-4.7351780">
        <ele>730.9</ele>
        <time>2020-10-04T08:49:41Z</time>
      </trkpt>
      <trkpt lat="40.1085990" lon="-4.7351860">
        <ele>731.0</ele>
        <time>2020-10-04T08:49:42Z</time>
      </trkpt>
      <trkpt lat="40.1086100" lon="-4.7351930">
        <ele>731.2</ele>
        <time>2020-10-04T08:49:43Z</time>
      </trkpt>
      <trkpt lat="40.1086360" lon="-4.7352000">
        <ele>731.5</ele>
        <time>2020-10-04T08:49:45Z</time>
      </trkpt>
      <trkpt lat="40.1086620" lon="-4.7352090">
        <ele>731.8</ele>
        <time>2020-10-04T08:49:47Z</time>
      </trkpt>
      <trkpt lat="40.1086780" lon="-4.7352100">
        <ele>731.9</ele>
        <time>2020-10-04T08:49:48Z</time>
      </trkpt>
      <trkpt lat="40.1086950" lon="-4.7352120">
        <ele>732.1</ele>
        <time>2020-10-04T08:49:49Z</time>
      </trkpt>
      <trkpt lat="40.1087160" lon="-4.7352180">
        <ele>732.3</ele>
        <time>2020-10-04T08:49:50Z</time>
      </trkpt>
      <trkpt lat="40.1087430" lon="-4.7352300">
        <ele>732.6</ele>
        <time>2020-10-04T08:49:52Z</time>
      </trkpt>
      <trkpt lat="40.1087740" lon="-4.7352380">
        <ele>732.9</ele>
        <time>2020-10-04T08:49:53Z</time>
      </trkpt>
      <trkpt lat="40.1087840" lon="-4.7352430">
        <ele>733.0</ele>
        <time>2020-10-04T08:49:54Z</time>
      </trkpt>
      <trkpt lat="40.1088040" lon="-4.7352360">
        <ele>733.2</ele>
        <time>2020-10-04T08:49:56Z</time>
      </trkpt>
      <trkpt lat="40.1088160" lon="-4.7352340">
        <ele>733.3</ele>
        <time>2020-10-04T08:49:57Z</time>
      </trkpt>
      <trkpt lat="40.1088270" lon="-4.7352350">
        <ele>733.4</ele>
        <time>2020-10-04T08:49:58Z</time>
      </trkpt>
      <trkpt lat="40.1088430" lon="-4.7352360">
        <ele>733.6</ele>
        <time>2020-10-04T08:49:59Z</time>
      </trkpt>
      <trkpt lat="40.1088590" lon="-4.7352380">
        <ele>733.7</ele>
        <time>2020-10-04T08:50:01Z</time>
      </trkpt>
      <trkpt lat="40.1088740" lon="-4.7352440">
        <ele>733.9</ele>
        <time>2020-10-04T08:50:02Z</time>
      </trkpt>
      <trkpt lat="40.1088840" lon="-4.7352470">
        <ele>734.0</ele>
        <time>2020-10-04T08:50:03Z</time>
      </trkpt>
      <trkpt lat="40.1088950" lon="-4.7352520">
        <ele>734.1</ele>
        <time>2020-10-04T08:50:04Z</time>
      </trkpt>
      <trkpt lat="40.1089170" lon="-4.7352540">
        <ele>734.4</ele>
        <time>2020-10-04T08:50:06Z</time>
      </trkpt>
      <trkpt lat="40.1089380" lon="-4.7352560">
        <ele>734.6</ele>
        <time>2020-10-04T08:50:07Z</time>
      </trkpt>
      <trkpt lat="40.1089590" lon="-4.7352580">
        <ele>734.8</ele>
        <time>2020-10-04T08:50:09Z</time>
      </trkpt>
      <trkpt lat="40.1089890" lon="-4.7352610">
        <ele>735.1</ele>
        <time>2020-10-04T08:50:10Z</time>
      </trkpt>
      <trkpt lat="40.1090000" lon="-4.7352620">
        <ele>735.3</ele>
        <time>2020-10-04T08:50:11Z</time>
      </trkpt>
      <trkpt lat="40.1090190" lon="-4.7352650">
        <ele>735.5</ele>
        <time>2020-10-04T08:50:12Z</time>
      </trkpt>
      <trkpt lat="40.1090440" lon="-4.7352750">
        <ele>735.8</ele>
        <time>2020-10-04T08:50:14Z</time>
      </trkpt>
      <trkpt lat="40.1090800" lon="-4.7352770">
        <ele>736.3</ele>
        <time>2020-10-04T08:50:15Z</time>
      </trkpt>
      <trkpt lat="40.1090920" lon="-4.7352800">
        <ele>736.4</ele>
        <time>2020-10-04T08:50:16Z</time>
      </trkpt>
      <trkpt lat="40.1091280" lon="-4.7352890">
        <ele>736.9</ele>
        <time>2020-10-04T08:50:18Z</time>
      </trkpt>
      <trkpt lat="40.1091390" lon="-4.7352930">
        <ele>737.1</ele>
        <time>2020-10-04T08:50:19Z</time>
      </trkpt>
      <trkpt lat="40.1091690" lon="-4.7352950">
        <ele>737.5</ele>
        <time>2020-10-04T08:50:21Z</time>
      </trkpt>
      <trkpt lat="40.1091780" lon="-4.7352960">
        <ele>737.6</ele>
        <time>2020-10-04T08:50:22Z</time>
      </trkpt>
      <trkpt lat="40.1091920" lon="-4.7352990">
        <ele>737.8</ele>
        <time>2020-10-04T08:50:23Z</time>
      </trkpt>
      <trkpt lat="40.1092080" lon="-4.7353030">
        <ele>738.1</ele>
        <time>2020-10-04T08:50:24Z</time>
      </trkpt>
      <trkpt lat="40.1092230" lon="-4.7353100">
        <ele>738.3</ele>
        <time>2020-10-04T08:50:25Z</time>
      </trkpt>
      <trkpt lat="40.1092340" lon="-4.7353160">
        <ele>738.5</ele>
        <time>2020-10-04T08:50:26Z</time>
      </trkpt>
      <trkpt lat="40.1092700" lon="-4.7353280">
        <ele>739.1</ele>
        <time>2020-10-04T08:50:28Z</time>
      </trkpt>
      <trkpt lat="40.1092810" lon="-4.7353310">
        <ele>739.3</ele>
        <time>2020-10-04T08:50:29Z</time>
      </trkpt>
      <trkpt lat="40.1093230" lon="-4.7353480">
        <ele>740.0</ele>
        <time>2020-10-04T08:50:31Z</time>
      </trkpt>
      <trkpt lat="40.1093360" lon="-4.7353530">
        <ele>740.2</ele>
        <time>2020-10-04T08:50:33Z</time>
      </trkpt>
      <trkpt lat="40.1093480" lon="-4.7353590">
        <ele>740.4</ele>
        <time>2020-10-04T08:50:34Z</time>
      </trkpt>
      <trkpt lat="40.1093640" lon="-4.7353580">
        <ele>740.7</ele>
        <time>2020-10-04T08:50:35Z</time>
      </trkpt>
      <trkpt lat="40.1093780" lon="-4.7353610">
        <ele>740.9</ele>
        <time>2020-10-04T08:50:36Z</time>
      </trkpt>
      <trkpt lat="40.1094030" lon="-4.7353720">
        <ele>741.4</ele>
        <time>2020-10-04T08:50:38Z</time>
      </trkpt>
      <trkpt lat="40.1094130" lon="-4.7353790">
        <ele>741.6</ele>
        <time>2020-10-04T08:50:39Z</time>
      </trkpt>
      <trkpt lat="40.1094290" lon="-4.7353880">
        <ele>741.9</ele>
        <time>2020-10-04T08:50:40Z</time>
      </trkpt>
      <trkpt lat="40.1094500" lon="-4.7353870">
        <ele>742.3</ele>
        <time>2020-10-04T08:50:42Z</time>
      </trkpt>
      <trkpt lat="40.1094820" lon="-4.7353960">
        <ele>742.8</ele>
        <time>2020-10-04T08:50:43Z</time>
      </trkpt>
      <trkpt lat="40.1094920" lon="-4.7353990">
        <ele>743.0</ele>
        <time>2020-10-04T08:50:44Z</time>
      </trkpt>
      <trkpt lat="40.1095080" lon="-4.7354020">
        <ele>743.3</ele>
        <time>2020-10-04T08:50:45Z</time>
      </trkpt>
      <trkpt lat="40.1095280" lon="-4.7354090">
        <ele>743.7</ele>
        <time>2020-10-04T08:50:47Z</time>
      </trkpt>
      <trkpt lat="40.1095440" lon="-4.7354160">
        <ele>744.0</ele>
        <time>2020-10-04T08:50:48Z</time>
      </trkpt>
      <trkpt lat="40.1095630" lon="-4.7354240">
        <ele>744.3</ele>
        <time>2020-10-04T08:50:49Z</time>
      </trkpt>
      <trkpt lat="40.1095800" lon="-4.7354310">
        <ele>744.6</ele>
        <time>2020-10-04T08:50:50Z</time>
      </trkpt>
      <trkpt lat="40.1096120" lon="-4.7354460">
        <ele>745.2</ele>
        <time>2020-10-04T08:50:52Z</time>
      </trkpt>
      <trkpt lat="40.1096370" lon="-4.7354590">
        <ele>745.7</ele>
        <time>2020-10-04T08:50:53Z</time>
      </trkpt>
      <trkpt lat="40.1096620" lon="-4.7354760">
        <ele>746.2</ele>
        <time>2020-10-04T08:50:54Z</time>
      </trkpt>
      <trkpt lat="40.1096700" lon="-4.7354800">
        <ele>746.3</ele>
        <time>2020-10-04T08:50:55Z</time>
      </trkpt>
      <trkpt lat="40.1096980" lon="-4.7354870">
        <ele>746.8</ele>
        <time>2020-10-04T08:50:56Z</time>
      </trkpt>
      <trkpt lat="40.1097070" lon="-4.7354930">
        <ele>747.0</ele>
        <time>2020-10-04T08:50:57Z</time>
      </trkpt>
      <trkpt lat="40.1097360" lon="-4.7355110">
        <ele>747.5</ele>
        <time>2020-10-04T08:50:59Z</time>
      </trkpt>
      <trkpt lat="40.1097430" lon="-4.7355160">
        <ele>747.7</ele>
        <time>2020-10-04T08:51:00Z</time>
      </trkpt>
      <trkpt lat="40.1097550" lon="-4.7355220">
        <ele>747.9</ele>
        <time>2020-10-04T08:51:01Z</time>
      </trkpt>
      <trkpt lat="40.1097690" lon="-4.7355270">
        <ele>748.1</ele>
        <time>2020-10-04T08:51:02Z</time>
      </trkpt>
      <trkpt lat="40.1098040" lon="-4.7355310">
        <ele>748.7</ele>
        <time>2020-10-04T08:51:04Z</time>
      </trkpt>
      <trkpt lat="40.1098130" lon="-4.7355320">
        <ele>748.8</ele>
        <time>2020-10-04T08:51:05Z</time>
      </trkpt>
      <trkpt lat="40.1098310" lon="-4.7355320">
        <ele>749.1</ele>
        <time>2020-10-04T08:51:06Z</time>
      </trkpt>
      <trkpt lat="40.1098580" lon="-4.7355310">
        <ele>749.6</ele>
        <time>2020-10-04T08:51:08Z</time>
      </trkpt>
      <trkpt lat="40.1098890" lon="-4.7355420">
        <ele>750.1</ele>
        <time>2020-10-04T08:51:09Z</time>
      </trkpt>
      <trkpt lat="40.1099040" lon="-4.7355490">
        <ele>750.4</ele>
        <time>2020-10-04T08:51:11Z</time>
      </trkpt>
      <trkpt lat="40.1099180" lon="-4.7355550">
        <ele>750.6</ele>
        <time>2020-10-04T08:51:12Z</time>
      </trkpt>
      <trkpt lat="40.1099320" lon="-4.7355620">
        <ele>750.8</ele>
        <time>2020-10-04T08:51:13Z</time>
      </trkpt>
      <trkpt lat="40.1099650" lon="-4.7355770">
        <ele>751.4</ele>
        <time>2020-10-04T08:51:15Z</time>
      </trkpt>
      <trkpt lat="40.1099740" lon="-4.7355790">
        <ele>751.5</ele>
        <time>2020-10-04T08:51:16Z</time>
      </trkpt>
      <trkpt lat="40.1099840" lon="-4.7355870">
        <ele>751.7</ele>
        <time>2020-10-04T08:51:17Z</time>
      </trkpt>
      <trkpt lat="40.1099990" lon="-4.7355970">
        <ele>752.0</ele>
        <time>2020-10-04T08:51:18Z</time>
      </trkpt>
      <trkpt lat="40.1100130" lon="-4.7356030">
        <ele>752.2</ele>
        <time>2020-10-04T08:51:19Z</time>
      </trkpt>
      <trkpt lat="40.1100410" lon="-4.7356150">
        <ele>752.7</ele>
        <time>2020-10-04T08:51:21Z</time>
      </trkpt>
      <trkpt lat="40.1100860" lon="-4.7356340">
        <ele>753.5</ele>
        <time>2020-10-04T08:51:23Z</time>
      </trkpt>
      <trkpt lat="40.1101010" lon="-4.7356450">
        <ele>753.7</ele>
        <time>2020-10-04T08:51:25Z</time>
      </trkpt>
      <trkpt lat="40.1101170" lon="-4.7356550">
        <ele>754.0</ele>
        <time>2020-10-04T08:51:26Z</time>
      </trkpt>
      <trkpt lat="40.1101320" lon="-4.7356660">
        <ele>754.3</ele>
        <time>2020-10-04T08:51:27Z</time>
      </trkpt>
      <trkpt lat="40.1101630" lon="-4.7356840">
        <ele>754.8</ele>
        <time>2020-10-04T08:51:29Z</time>
      </trkpt>
      <trkpt lat="40.1101710" lon="-4.7356890">
        <ele>755.0</ele>
        <time>2020-10-04T08:51:30Z</time>
      </trkpt>
      <trkpt lat="40.1101890" lon="-4.7356960">
        <ele>755.3</ele>
        <time>2020-10-04T08:51:31Z</time>
      </trkpt>
      <trkpt lat="40.1102120" lon="-4.7356980">
        <ele>755.6</ele>
        <time>2020-10-04T08:51:33Z</time>
      </trkpt>
      <trkpt lat="40.1102360" lon="-4.7356960">
        <ele>756.0</ele>
        <time>2020-10-04T08:51:34Z</time>
      </trkpt>
      <trkpt lat="40.1102590" lon="-4.7357020">
        <ele>756.4</ele>
        <time>2020-10-04T08:51:36Z</time>
      </trkpt>
      <trkpt lat="40.1102760" lon="-4.7357050">
        <ele>756.7</ele>
        <time>2020-10-04T08:51:37Z</time>
      </trkpt>
      <trkpt lat="40.1102980" lon="-4.7357150">
        <ele>757.0</ele>
        <time>2020-10-04T08:51:39Z</time>
      </trkpt>
      <trkpt lat="40.1103260" lon="-4.7357100">
        <ele>757.5</ele>
        <time>2020-10-04T08:51:40Z</time>
      </trkpt>
      <trkpt lat="40.1103340" lon="-4.7357080">
        <ele>757.6</ele>
        <time>2020-10-04T08:51:41Z</time>
      </trkpt>
      <trkpt lat="40.1103780" lon="-4.7356930">
        <ele>758.3</ele>
        <time>2020-10-04T08:51:43Z</time>
      </trkpt>
      <trkpt lat="40.1103920" lon="-4.7356880">
        <ele>758.5</ele>
        <time>2020-10-04T08:51:44Z</time>
      </trkpt>
      <trkpt lat="40.1104050" lon="-4.7356820">
        <ele>758.7</ele>
        <time>2020-10-04T08:51:45Z</time>
      </trkpt>
      <trkpt lat="40.1104420" lon="-4.7356710">
        <ele>759.3</ele>
        <time>2020-10-04T08:51:47Z</time>
      </trkpt>
      <trkpt lat="40.1104530" lon="-4.7356680">
        <ele>759.5</ele>
        <time>2020-10-04T08:51:48Z</time>
      </trkpt>
      <trkpt lat="40.1104700" lon="-4.7356600">
        <ele>759.8</ele>
        <time>2020-10-04T08:51:49Z</time>
      </trkpt>
      <trkpt lat="40.1104850" lon="-4.7356500">
        <ele>760.0</ele>
        <time>2020-10-04T08:51:50Z</time>
      </trkpt>
      <trkpt lat="40.1105130" lon="-4.7356350">
        <ele>760.4</ele>
        <time>2020-10-04T08:51:51Z</time>
      </trkpt>
      <trkpt lat="40.1105220" lon="-4.7356310">
        <ele>760.5</ele>
        <time>2020-10-04T08:51:52Z</time>
      </trkpt>
      <trkpt lat="40.1105400" lon="-4.7356290">
        <ele>760.7</ele>
        <time>2020-10-04T08:51:54Z</time>
      </trkpt>
      <trkpt lat="40.1105570" lon="-4.7356300">
        <ele>760.9</ele>
        <time>2020-10-04T08:51:55Z</time>
      </trkpt>
      <trkpt lat="40.1105730" lon="-4.7356290">
        <ele>761.1</ele>
        <time>2020-10-04T08:51:56Z</time>
      </trkpt>
      <trkpt lat="40.1105880" lon="-4.7356290">
        <ele>761.3</ele>
        <time>2020-10-04T08:51:57Z</time>
      </trkpt>
      <trkpt lat="40.1106090" lon="-4.7356340">
        <ele>761.5</ele>
        <time>2020-10-04T08:51:58Z</time>
      </trkpt>
      <trkpt lat="40.1106170" lon="-4.7356380">
        <ele>761.6</ele>
        <time>2020-10-04T08:51:59Z</time>
      </trkpt>
      <trkpt lat="40.1106240" lon="-4.7356410">
        <ele>761.7</ele>
        <time>2020-10-04T08:52:00Z</time>
      </trkpt>
      <trkpt lat="40.1106400" lon="-4.7356500">
        <ele>761.8</ele>
        <time>2020-10-04T08:52:02Z</time>
      </trkpt>
      <trkpt lat="40.1106480" lon="-4.7356550">
        <ele>761.9</ele>
        <time>2020-10-04T08:52:03Z</time>
      </trkpt>
      <trkpt lat="40.1106630" lon="-4.7356670">
        <ele>762.1</ele>
        <time>2020-10-04T08:52:05Z</time>
      </trkpt>
      <trkpt lat="40.1106800" lon="-4.7356820">
        <ele>762.3</ele>
        <time>2020-10-04T08:52:06Z</time>
      </trkpt>
      <trkpt lat="40.1106970" lon="-4.7356980">
        <ele>762.5</ele>
        <time>2020-10-04T08:52:08Z</time>
      </trkpt>
      <trkpt lat="40.1107180" lon="-4.7357310">
        <ele>762.7</ele>
        <time>2020-10-04T08:52:09Z</time>
      </trkpt>
      <trkpt lat="40.1107220" lon="-4.7357390">
        <ele>762.8</ele>
        <time>2020-10-04T08:52:10Z</time>
      </trkpt>
      <trkpt lat="40.1107400" lon="-4.7357730">
        <ele>763.0</ele>
        <time>2020-10-04T08:52:12Z</time>
      </trkpt>
      <trkpt lat="40.1107440" lon="-4.7357850">
        <ele>763.1</ele>
        <time>2020-10-04T08:52:13Z</time>
      </trkpt>
      <trkpt lat="40.1107660" lon="-4.7358400">
        <ele>763.4</ele>
        <time>2020-10-04T08:52:15Z</time>
      </trkpt>
      <trkpt lat="40.1107720" lon="-4.7358570">
        <ele>763.5</ele>
        <time>2020-10-04T08:52:16Z</time>
      </trkpt>
      <trkpt lat="40.1107790" lon="-4.7358750">
        <ele>763.6</ele>
        <time>2020-10-04T08:52:17Z</time>
      </trkpt>
      <trkpt lat="40.1107900" lon="-4.7359080">
        <ele>763.8</ele>
        <time>2020-10-04T08:52:18Z</time>
      </trkpt>
      <trkpt lat="40.1108020" lon="-4.7359480">
        <ele>764.0</ele>
        <time>2020-10-04T08:52:19Z</time>
      </trkpt>
      <trkpt lat="40.1108060" lon="-4.7359620">
        <ele>764.1</ele>
        <time>2020-10-04T08:52:20Z</time>
      </trkpt>
      <trkpt lat="40.1108200" lon="-4.7360030">
        <ele>764.3</ele>
        <time>2020-10-04T08:52:22Z</time>
      </trkpt>
      <trkpt lat="40.1108240" lon="-4.7360150">
        <ele>764.4</ele>
        <time>2020-10-04T08:52:23Z</time>
      </trkpt>
      <trkpt lat="40.1108290" lon="-4.7360380">
        <ele>764.5</ele>
        <time>2020-10-04T08:52:24Z</time>
      </trkpt>
      <trkpt lat="40.1108380" lon="-4.7360730">
        <ele>764.7</ele>
        <time>2020-10-04T08:52:26Z</time>
      </trkpt>
      <trkpt lat="40.1108510" lon="-4.7361080">
        <ele>765.0</ele>
        <time>2020-10-04T08:52:27Z</time>
      </trkpt>
      <trkpt lat="40.1108700" lon="-4.7361590">
        <ele>765.3</ele>
        <time>2020-10-04T08:52:29Z</time>
      </trkpt>
      <trkpt lat="40.1108760" lon="-4.7361750">
        <ele>765.4</ele>
        <time>2020-10-04T08:52:30Z</time>
      </trkpt>
      <trkpt lat="40.1108820" lon="-4.7361900">
        <ele>765.5</ele>
        <time>2020-10-04T08:52:31Z</time>
      </trkpt>
      <trkpt lat="40.1108970" lon="-4.7362360">
        <ele>765.7</ele>
        <time>2020-10-04T08:52:33Z</time>
      </trkpt>
      <trkpt lat="40.1109020" lon="-4.7362520">
        <ele>765.8</ele>
        <time>2020-10-04T08:52:34Z</time>
      </trkpt>
      <trkpt lat="40.1109190" lon="-4.7362810">
        <ele>766.0</ele>
        <time>2020-10-04T08:52:35Z</time>
      </trkpt>
      <trkpt lat="40.1109590" lon="-4.7363250">
        <ele>766.4</ele>
        <time>2020-10-04T08:52:37Z</time>
      </trkpt>
      <trkpt lat="40.1109740" lon="-4.7363390">
        <ele>766.5</ele>
        <time>2020-10-04T08:52:38Z</time>
      </trkpt>
      <trkpt lat="40.1109890" lon="-4.7363530">
        <ele>766.6</ele>
        <time>2020-10-04T08:52:39Z</time>
      </trkpt>
      <trkpt lat="40.1110160" lon="-4.7363720">
        <ele>766.8</ele>
        <time>2020-10-04T08:52:40Z</time>
      </trkpt>
      <trkpt lat="40.1110240" lon="-4.7363780">
        <ele>766.8</ele>
        <time>2020-10-04T08:52:41Z</time>
      </trkpt>
      <trkpt lat="40.1110600" lon="-4.7363950">
        <ele>767.0</ele>
        <time>2020-10-04T08:52:43Z</time>
      </trkpt>
      <trkpt lat="40.1110730" lon="-4.7364020">
        <ele>767.1</ele>
        <time>2020-10-04T08:52:44Z</time>
      </trkpt>
      <trkpt lat="40.1110950" lon="-4.7364120">
        <ele>767.3</ele>
        <time>2020-10-04T08:52:45Z</time>
      </trkpt>
      <trkpt lat="40.1111250" lon="-4.7364290">
        <ele>767.4</ele>
        <time>2020-10-04T08:52:47Z</time>
      </trkpt>
      <trkpt lat="40.1111470" lon="-4.7364510">
        <ele>767.6</ele>
        <time>2020-10-04T08:52:48Z</time>
      </trkpt>
      <trkpt lat="40.1111810" lon="-4.7364780">
        <ele>767.8</ele>
        <time>2020-10-04T08:52:50Z</time>
      </trkpt>
      <trkpt lat="40.1112130" lon="-4.7364950">
        <ele>767.9</ele>
        <time>2020-10-04T08:52:51Z</time>
      </trkpt>
      <trkpt lat="40.1112220" lon="-4.7365020">
        <ele>768.0</ele>
        <time>2020-10-04T08:52:52Z</time>
      </trkpt>
      <trkpt lat="40.1112550" lon="-4.7365300">
        <ele>768.2</ele>
        <time>2020-10-04T08:52:54Z</time>
      </trkpt>
      <trkpt lat="40.1112730" lon="-4.7365470">
        <ele>768.4</ele>
        <time>2020-10-04T08:52:55Z</time>
      </trkpt>
      <trkpt lat="40.1112990" lon="-4.7365750">
        <ele>768.6</ele>
        <time>2020-10-04T08:52:57Z</time>
      </trkpt>
      <trkpt lat="40.1113260" lon="-4.7366070">
        <ele>768.9</ele>
        <time>2020-10-04T08:52:58Z</time>
      </trkpt>
      <trkpt lat="40.1113340" lon="-4.7366190">
        <ele>769.0</ele>
        <time>2020-10-04T08:52:59Z</time>
      </trkpt>
      <trkpt lat="40.1113560" lon="-4.7366630">
        <ele>769.3</ele>
        <time>2020-10-04T08:53:01Z</time>
      </trkpt>
      <trkpt lat="40.1113630" lon="-4.7366790">
        <ele>769.4</ele>
        <time>2020-10-04T08:53:02Z</time>
      </trkpt>
      <trkpt lat="40.1113780" lon="-4.7367280">
        <ele>769.7</ele>
        <time>2020-10-04T08:53:04Z</time>
      </trkpt>
      <trkpt lat="40.1113890" lon="-4.7367720">
        <ele>769.9</ele>
        <time>2020-10-04T08:53:05Z</time>
      </trkpt>
      <trkpt lat="40.1113930" lon="-4.7367900">
        <ele>770.1</ele>
        <time>2020-10-04T08:53:06Z</time>
      </trkpt>
      <trkpt lat="40.1113970" lon="-4.7368290">
        <ele>770.3</ele>
        <time>2020-10-04T08:53:07Z</time>
      </trkpt>
      <trkpt lat="40.1113980" lon="-4.7368420">
        <ele>770.4</ele>
        <time>2020-10-04T08:53:08Z</time>
      </trkpt>
      <trkpt lat="40.1113990" lon="-4.7368630">
        <ele>770.6</ele>
        <time>2020-10-04T08:53:09Z</time>
      </trkpt>
      <trkpt lat="40.1114020" lon="-4.7368860">
        <ele>770.7</ele>
        <time>2020-10-04T08:53:11Z</time>
      </trkpt>
      <trkpt lat="40.1114130" lon="-4.7369160">
        <ele>771.0</ele>
        <time>2020-10-04T08:53:12Z</time>
      </trkpt>
      <trkpt lat="40.1114190" lon="-4.7369430">
        <ele>771.2</ele>
        <time>2020-10-04T08:53:14Z</time>
      </trkpt>
      <trkpt lat="40.1114270" lon="-4.7369620">
        <ele>771.4</ele>
        <time>2020-10-04T08:53:15Z</time>
      </trkpt>
      <trkpt lat="40.1114380" lon="-4.7369820">
        <ele>771.6</ele>
        <time>2020-10-04T08:53:16Z</time>
      </trkpt>
      <trkpt lat="40.1114500" lon="-4.7370010">
        <ele>771.8</ele>
        <time>2020-10-04T08:53:17Z</time>
      </trkpt>
      <trkpt lat="40.1114680" lon="-4.7370330">
        <ele>772.1</ele>
        <time>2020-10-04T08:53:19Z</time>
      </trkpt>
      <trkpt lat="40.1114880" lon="-4.7370640">
        <ele>772.4</ele>
        <time>2020-10-04T08:53:20Z</time>
      </trkpt>
      <trkpt lat="40.1114940" lon="-4.7370730">
        <ele>772.5</ele>
        <time>2020-10-04T08:53:21Z</time>
      </trkpt>
      <trkpt lat="40.1115050" lon="-4.7370870">
        <ele>772.6</ele>
        <time>2020-10-04T08:53:22Z</time>
      </trkpt>
      <trkpt lat="40.1115260" lon="-4.7371140">
        <ele>772.9</ele>
        <time>2020-10-04T08:53:24Z</time>
      </trkpt>
      <trkpt lat="40.1115480" lon="-4.7371370">
        <ele>773.2</ele>
        <time>2020-10-04T08:53:25Z</time>
      </trkpt>
      <trkpt lat="40.1115550" lon="-4.7371460">
        <ele>773.3</ele>
        <time>2020-10-04T08:53:26Z</time>
      </trkpt>
      <trkpt lat="40.1115760" lon="-4.7371670">
        <ele>773.5</ele>
        <time>2020-10-04T08:53:27Z</time>
      </trkpt>
      <trkpt lat="40.1115850" lon="-4.7371750">
        <ele>773.6</ele>
        <time>2020-10-04T08:53:28Z</time>
      </trkpt>
      <trkpt lat="40.1116200" lon="-4.7372180">
        <ele>774.1</ele>
        <time>2020-10-04T08:53:30Z</time>
      </trkpt>
      <trkpt lat="40.1116320" lon="-4.7372320">
        <ele>774.2</ele>
        <time>2020-10-04T08:53:31Z</time>
      </trkpt>
      <trkpt lat="40.1116430" lon="-4.7372470">
        <ele>774.4</ele>
        <time>2020-10-04T08:53:32Z</time>
      </trkpt>
      <trkpt lat="40.1116560" lon="-4.7372630">
        <ele>774.5</ele>
        <time>2020-10-04T08:53:34Z</time>
      </trkpt>
      <trkpt lat="40.1116700" lon="-4.7372780">
        <ele>774.7</ele>
        <time>2020-10-04T08:53:35Z</time>
      </trkpt>
      <trkpt lat="40.1116940" lon="-4.7373100">
        <ele>775.0</ele>
        <time>2020-10-04T08:53:36Z</time>
      </trkpt>
      <trkpt lat="40.1117000" lon="-4.7373200">
        <ele>775.1</ele>
        <time>2020-10-04T08:53:37Z</time>
      </trkpt>
      <trkpt lat="40.1117300" lon="-4.7373630">
        <ele>775.5</ele>
        <time>2020-10-04T08:53:39Z</time>
      </trkpt>
      <trkpt lat="40.1117390" lon="-4.7373770">
        <ele>775.6</ele>
        <time>2020-10-04T08:53:40Z</time>
      </trkpt>
      <trkpt lat="40.1117470" lon="-4.7373900">
        <ele>775.7</ele>
        <time>2020-10-04T08:53:41Z</time>
      </trkpt>
      <trkpt lat="40.1117670" lon="-4.7374220">
        <ele>775.9</ele>
        <time>2020-10-04T08:53:42Z</time>
      </trkpt>
      <trkpt lat="40.1117720" lon="-4.7374330">
        <ele>776.0</ele>
        <time>2020-10-04T08:53:43Z</time>
      </trkpt>
      <trkpt lat="40.1117950" lon="-4.7374680">
        <ele>776.3</ele>
        <time>2020-10-04T08:53:45Z</time>
      </trkpt>
      <trkpt lat="40.1118010" lon="-4.7374790">
        <ele>776.4</ele>
        <time>2020-10-04T08:53:46Z</time>
      </trkpt>
      <trkpt lat="40.1118230" lon="-4.7375070">
        <ele>776.7</ele>
        <time>2020-10-04T08:53:47Z</time>
      </trkpt>
      <trkpt lat="40.1118300" lon="-4.7375140">
        <ele>776.7</ele>
        <time>2020-10-04T08:53:48Z</time>
      </trkpt>
      <trkpt lat="40.1118450" lon="-4.7375300">
        <ele>776.9</ele>
        <time>2020-10-04T08:53:49Z</time>
      </trkpt>
      <trkpt lat="40.1118560" lon="-4.7375430">
        <ele>777.0</ele>
        <time>2020-10-04T08:53:50Z</time>
      </trkpt>
      <trkpt lat="40.1118690" lon="-4.7375560">
        <ele>777.2</ele>
        <time>2020-10-04T08:53:51Z</time>
      </trkpt>
      <trkpt lat="40.1118900" lon="-4.7375700">
        <ele>777.4</ele>
        <time>2020-10-04T08:53:53Z</time>
      </trkpt>
      <trkpt lat="40.1119170" lon="-4.7375840">
        <ele>777.6</ele>
        <time>2020-10-04T08:53:54Z</time>
      </trkpt>
      <trkpt lat="40.1119260" lon="-4.7375910">
        <ele>777.7</ele>
        <time>2020-10-04T08:53:55Z</time>
      </trkpt>
      <trkpt lat="40.1119520" lon="-4.7376120">
        <ele>778.0</ele>
        <time>2020-10-04T08:53:57Z</time>
      </trkpt>
      <trkpt lat="40.1119590" lon="-4.7376180">
        <ele>778.1</ele>
        <time>2020-10-04T08:53:58Z</time>
      </trkpt>
      <trkpt lat="40.1119850" lon="-4.7376470">
        <ele>778.3</ele>
        <time>2020-10-04T08:53:59Z</time>
      </trkpt>
      <trkpt lat="40.1119910" lon="-4.7376560">
        <ele>778.4</ele>
        <time>2020-10-04T08:54:00Z</time>
      </trkpt>
      <trkpt lat="40.1120220" lon="-4.7376810">
        <ele>778.7</ele>
        <time>2020-10-04T08:54:02Z</time>
      </trkpt>
      <trkpt lat="40.1120310" lon="-4.7376880">
        <ele>778.8</ele>
        <time>2020-10-04T08:54:03Z</time>
      </trkpt>
      <trkpt lat="40.1120420" lon="-4.7376960">
        <ele>778.9</ele>
        <time>2020-10-04T08:54:04Z</time>
      </trkpt>
      <trkpt lat="40.1120510" lon="-4.7377060">
        <ele>779.0</ele>
        <time>2020-10-04T08:54:05Z</time>
      </trkpt>
      <trkpt lat="40.1120730" lon="-4.7377240">
        <ele>779.2</ele>
        <time>2020-10-04T08:54:07Z</time>
      </trkpt>
      <trkpt lat="40.1121030" lon="-4.7377310">
        <ele>779.5</ele>
        <time>2020-10-04T08:54:09Z</time>
      </trkpt>
      <trkpt lat="40.1121210" lon="-4.7377390">
        <ele>779.6</ele>
        <time>2020-10-04T08:54:10Z</time>
      </trkpt>
      <trkpt lat="40.1121340" lon="-4.7377440">
        <ele>779.7</ele>
        <time>2020-10-04T08:54:11Z</time>
      </trkpt>
      <trkpt lat="40.1121460" lon="-4.7377470">
        <ele>779.8</ele>
        <time>2020-10-04T08:54:12Z</time>
      </trkpt>
      <trkpt lat="40.1121600" lon="-4.7377520">
        <ele>780.0</ele>
        <time>2020-10-04T08:54:13Z</time>
      </trkpt>
      <trkpt lat="40.1121770" lon="-4.7377600">
        <ele>780.1</ele>
        <time>2020-10-04T08:54:15Z</time>
      </trkpt>
      <trkpt lat="40.1121890" lon="-4.7377740">
        <ele>780.3</ele>
        <time>2020-10-04T08:54:16Z</time>
      </trkpt>
      <trkpt lat="40.1121970" lon="-4.7377820">
        <ele>780.4</ele>
        <time>2020-10-04T08:54:17Z</time>
      </trkpt>
      <trkpt lat="40.1122130" lon="-4.7378040">
        <ele>780.6</ele>
        <time>2020-10-04T08:54:19Z</time>
      </trkpt>
      <trkpt lat="40.1122290" lon="-4.7378320">
        <ele>780.8</ele>
        <time>2020-10-04T08:54:20Z</time>
      </trkpt>
      <trkpt lat="40.1122370" lon="-4.7378480">
        <ele>781.0</ele>
        <time>2020-10-04T08:54:22Z</time>
      </trkpt>
      <trkpt lat="40.1122460" lon="-4.7378640">
        <ele>781.1</ele>
        <time>2020-10-04T08:54:23Z</time>
      </trkpt>
      <trkpt lat="40.1122540" lon="-4.7378800">
        <ele>781.3</ele>
        <time>2020-10-04T08:54:24Z</time>
      </trkpt>
      <trkpt lat="40.1122640" lon="-4.7378990">
        <ele>781.4</ele>
        <time>2020-10-04T08:54:25Z</time>
      </trkpt>
      <trkpt lat="40.1122780" lon="-4.7379260">
        <ele>781.7</ele>
        <time>2020-10-04T08:54:27Z</time>
      </trkpt>
      <trkpt lat="40.1122970" lon="-4.7379520">
        <ele>782.0</ele>
        <time>2020-10-04T08:54:28Z</time>
      </trkpt>
      <trkpt lat="40.1123330" lon="-4.7380100">
        <ele>782.6</ele>
        <time>2020-10-04T08:54:30Z</time>
      </trkpt>
      <trkpt lat="40.1123560" lon="-4.7380490">
        <ele>783.0</ele>
        <time>2020-10-04T08:54:32Z</time>
      </trkpt>
      <trkpt lat="40.1123760" lon="-4.7380750">
        <ele>783.4</ele>
        <time>2020-10-04T08:54:33Z</time>
      </trkpt>
      <trkpt lat="40.1124040" lon="-4.7381020">
        <ele>783.7</ele>
        <time>2020-10-04T08:54:34Z</time>
      </trkpt>
      <trkpt lat="40.1124120" lon="-4.7381120">
        <ele>783.9</ele>
        <time>2020-10-04T08:54:35Z</time>
      </trkpt>
      <trkpt lat="40.1124450" lon="-4.7381430">
        <ele>784.4</ele>
        <time>2020-10-04T08:54:37Z</time>
      </trkpt>
      <trkpt lat="40.1124650" lon="-4.7381720">
        <ele>784.7</ele>
        <time>2020-10-04T08:54:38Z</time>
      </trkpt>
      <trkpt lat="40.1124710" lon="-4.7381820">
        <ele>784.8</ele>
        <time>2020-10-04T08:54:39Z</time>
      </trkpt>
      <trkpt lat="40.1124980" lon="-4.7382290">
        <ele>785.4</ele>
        <time>2020-10-04T08:54:41Z</time>
      </trkpt>
      <trkpt lat="40.1125080" lon="-4.7382460">
        <ele>785.6</ele>
        <time>2020-10-04T08:54:42Z</time>
      </trkpt>
      <trkpt lat="40.1125170" lon="-4.7382640">
        <ele>785.8</ele>
        <time>2020-10-04T08:54:43Z</time>
      </trkpt>
      <trkpt lat="40.1125420" lon="-4.7383120">
        <ele>786.4</ele>
        <time>2020-10-04T08:54:45Z</time>
      </trkpt>
      <trkpt lat="40.1125520" lon="-4.7383280">
        <ele>786.6</ele>
        <time>2020-10-04T08:54:46Z</time>
      </trkpt>
      <trkpt lat="40.1125610" lon="-4.7383440">
        <ele>786.8</ele>
        <time>2020-10-04T08:54:47Z</time>
      </trkpt>
      <trkpt lat="40.1125710" lon="-4.7383660">
        <ele>787.0</ele>
        <time>2020-10-04T08:54:48Z</time>
      </trkpt>
      <trkpt lat="40.1125880" lon="-4.7384000">
        <ele>787.4</ele>
        <time>2020-10-04T08:54:50Z</time>
      </trkpt>
      <trkpt lat="40.1125980" lon="-4.7384170">
        <ele>787.6</ele>
        <time>2020-10-04T08:54:51Z</time>
      </trkpt>
      <trkpt lat="40.1126130" lon="-4.7384470">
        <ele>788.0</ele>
        <time>2020-10-04T08:54:53Z</time>
      </trkpt>
      <trkpt lat="40.1126230" lon="-4.7384640">
        <ele>788.2</ele>
        <time>2020-10-04T08:54:54Z</time>
      </trkpt>
      <trkpt lat="40.1126430" lon="-4.7384910">
        <ele>788.5</ele>
        <time>2020-10-04T08:54:56Z</time>
      </trkpt>
      <trkpt lat="40.1126690" lon="-4.7385260">
        <ele>789.0</ele>
        <time>2020-10-04T08:54:57Z</time>
      </trkpt>
      <trkpt lat="40.1126770" lon="-4.7385400">
        <ele>789.2</ele>
        <time>2020-10-04T08:54:58Z</time>
      </trkpt>
      <trkpt lat="40.1127050" lon="-4.7385790">
        <ele>789.7</ele>
        <time>2020-10-04T08:54:59Z</time>
      </trkpt>
      <trkpt lat="40.1127160" lon="-4.7385930">
        <ele>789.9</ele>
        <time>2020-10-04T08:55:00Z</time>
      </trkpt>
      <trkpt lat="40.1127390" lon="-4.7386310">
        <ele>790.3</ele>
        <time>2020-10-04T08:55:02Z</time>
      </trkpt>
      <trkpt lat="40.1127560" lon="-4.7386800">
        <ele>790.7</ele>
        <time>2020-10-04T08:55:03Z</time>
      </trkpt>
      <trkpt lat="40.1127610" lon="-4.7387000">
        <ele>790.9</ele>
        <time>2020-10-04T08:55:04Z</time>
      </trkpt>
      <trkpt lat="40.1127660" lon="-4.7387330">
        <ele>791.1</ele>
        <time>2020-10-04T08:55:05Z</time>
      </trkpt>
      <trkpt lat="40.1127730" lon="-4.7387580">
        <ele>791.3</ele>
        <time>2020-10-04T08:55:07Z</time>
      </trkpt>
      <trkpt lat="40.1127780" lon="-4.7387730">
        <ele>791.4</ele>
        <time>2020-10-04T08:55:08Z</time>
      </trkpt>
      <trkpt lat="40.1127830" lon="-4.7388020">
        <ele>791.6</ele>
        <time>2020-10-04T08:55:09Z</time>
      </trkpt>
      <trkpt lat="40.1127880" lon="-4.7388440">
        <ele>791.9</ele>
        <time>2020-10-04T08:55:10Z</time>
      </trkpt>
      <trkpt lat="40.1127940" lon="-4.7388810">
        <ele>792.2</ele>
        <time>2020-10-04T08:55:12Z</time>
      </trkpt>
      <trkpt lat="40.1128030" lon="-4.7389220">
        <ele>792.5</ele>
        <time>2020-10-04T08:55:13Z</time>
      </trkpt>
      <trkpt lat="40.1128140" lon="-4.7389620">
        <ele>792.8</ele>
        <time>2020-10-04T08:55:14Z</time>
      </trkpt>
      <trkpt lat="40.1128170" lon="-4.7389760">
        <ele>792.9</ele>
        <time>2020-10-04T08:55:15Z</time>
      </trkpt>
      <trkpt lat="40.1128340" lon="-4.7390320">
        <ele>793.3</ele>
        <time>2020-10-04T08:55:17Z</time>
      </trkpt>
      <trkpt lat="40.1128390" lon="-4.7390490">
        <ele>793.5</ele>
        <time>2020-10-04T08:55:18Z</time>
      </trkpt>
      <trkpt lat="40.1128450" lon="-4.7390670">
        <ele>793.6</ele>
        <time>2020-10-04T08:55:19Z</time>
      </trkpt>
      <trkpt lat="40.1128550" lon="-4.7391160">
        <ele>794.0</ele>
        <time>2020-10-04T08:55:21Z</time>
      </trkpt>
      <trkpt lat="40.1128590" lon="-4.7391330">
        <ele>794.2</ele>
        <time>2020-10-04T08:55:22Z</time>
      </trkpt>
      <trkpt lat="40.1128720" lon="-4.7391780">
        <ele>794.5</ele>
        <time>2020-10-04T08:55:23Z</time>
      </trkpt>
      <trkpt lat="40.1128760" lon="-4.7391920">
        <ele>794.7</ele>
        <time>2020-10-04T08:55:24Z</time>
      </trkpt>
      <trkpt lat="40.1128830" lon="-4.7392200">
        <ele>794.9</ele>
        <time>2020-10-04T08:55:25Z</time>
      </trkpt>
      <trkpt lat="40.1128910" lon="-4.7392480">
        <ele>795.1</ele>
        <time>2020-10-04T08:55:27Z</time>
      </trkpt>
      <trkpt lat="40.1129030" lon="-4.7392860">
        <ele>795.4</ele>
        <time>2020-10-04T08:55:28Z</time>
      </trkpt>
      <trkpt lat="40.1129080" lon="-4.7393000">
        <ele>795.5</ele>
        <time>2020-10-04T08:55:29Z</time>
      </trkpt>
      <trkpt lat="40.1129190" lon="-4.7393260">
        <ele>795.8</ele>
        <time>2020-10-04T08:55:30Z</time>
      </trkpt>
      <trkpt lat="40.1129340" lon="-4.7393630">
        <ele>796.1</ele>
        <time>2020-10-04T08:55:32Z</time>
      </trkpt>
      <trkpt lat="40.1129490" lon="-4.7394060">
        <ele>796.4</ele>
        <time>2020-10-04T08:55:33Z</time>
      </trkpt>
      <trkpt lat="40.1129530" lon="-4.7394170">
        <ele>796.5</ele>
        <time>2020-10-04T08:55:34Z</time>
      </trkpt>
      <trkpt lat="40.1129730" lon="-4.7394780">
        <ele>796.9</ele>
        <time>2020-10-04T08:55:36Z</time>
      </trkpt>
      <trkpt lat="40.1129810" lon="-4.7394970">
        <ele>797.0</ele>
        <time>2020-10-04T08:55:37Z</time>
      </trkpt>
      <trkpt lat="40.1129880" lon="-4.7395150">
        <ele>797.1</ele>
        <time>2020-10-04T08:55:38Z</time>
      </trkpt>
      <trkpt lat="40.1130070" lon="-4.7395680">
        <ele>797.4</ele>
        <time>2020-10-04T08:55:40Z</time>
      </trkpt>
      <trkpt lat="40.1130170" lon="-4.7395880">
        <ele>797.5</ele>
        <time>2020-10-04T08:55:41Z</time>
      </trkpt>
      <trkpt lat="40.1130300" lon="-4.7396260">
        <ele>797.8</ele>
        <time>2020-10-04T08:55:43Z</time>
      </trkpt>
      <trkpt lat="40.1130420" lon="-4.7396670">
        <ele>798.0</ele>
        <time>2020-10-04T08:55:44Z</time>
      </trkpt>
      <trkpt lat="40.1130580" lon="-4.7397090">
        <ele>798.3</ele>
        <time>2020-10-04T08:55:45Z</time>
      </trkpt>
      <trkpt lat="40.1130630" lon="-4.7397230">
        <ele>798.4</ele>
        <time>2020-10-04T08:55:46Z</time>
      </trkpt>
      <trkpt lat="40.1130850" lon="-4.7397730">
        <ele>798.8</ele>
        <time>2020-10-04T08:55:48Z</time>
      </trkpt>
      <trkpt lat="40.1130930" lon="-4.7397910">
        <ele>798.9</ele>
        <time>2020-10-04T08:55:49Z</time>
      </trkpt>
      <trkpt lat="40.1131020" lon="-4.7398080">
        <ele>799.1</ele>
        <time>2020-10-04T08:55:50Z</time>
      </trkpt>
      <trkpt lat="40.1131240" lon="-4.7398480">
        <ele>799.4</ele>
        <time>2020-10-04T08:55:52Z</time>
      </trkpt>
      <trkpt lat="40.1131480" lon="-4.7398980">
        <ele>799.8</ele>
        <time>2020-10-04T08:55:54Z</time>
      </trkpt>
      <trkpt lat="40.1131560" lon="-4.7399160">
        <ele>799.9</ele>
        <time>2020-10-04T08:55:55Z</time>
      </trkpt>
      <trkpt lat="40.1131640" lon="-4.7399330">
        <ele>800.0</ele>
        <time>2020-10-04T08:55:56Z</time>
      </trkpt>
      <trkpt lat="40.1131870" lon="-4.7399700">
        <ele>800.3</ele>
        <time>2020-10-04T08:55:57Z</time>
      </trkpt>
      <trkpt lat="40.1131930" lon="-4.7399810">
        <ele>800.4</ele>
        <time>2020-10-04T08:55:58Z</time>
      </trkpt>
      <trkpt lat="40.1132150" lon="-4.7400180">
        <ele>800.7</ele>
        <time>2020-10-04T08:56:00Z</time>
      </trkpt>
      <trkpt lat="40.1132230" lon="-4.7400330">
        <ele>800.9</ele>
        <time>2020-10-04T08:56:01Z</time>
      </trkpt>
      <trkpt lat="40.1132410" lon="-4.7400650">
        <ele>801.1</ele>
        <time>2020-10-04T08:56:03Z</time>
      </trkpt>
      <trkpt lat="40.1132600" lon="-4.7400960">
        <ele>801.4</ele>
        <time>2020-10-04T08:56:04Z</time>
      </trkpt>
      <trkpt lat="40.1132780" lon="-4.7401420">
        <ele>801.7</ele>
        <time>2020-10-04T08:56:06Z</time>
      </trkpt>
      <trkpt lat="40.1132970" lon="-4.7401730">
        <ele>802.0</ele>
        <time>2020-10-04T08:56:08Z</time>
      </trkpt>
      <trkpt lat="40.1133100" lon="-4.7402050">
        <ele>802.2</ele>
        <time>2020-10-04T08:56:09Z</time>
      </trkpt>
      <trkpt lat="40.1133170" lon="-4.7402270">
        <ele>802.3</ele>
        <time>2020-10-04T08:56:10Z</time>
      </trkpt>
      <trkpt lat="40.1133330" lon="-4.7402650">
        <ele>802.6</ele>
        <time>2020-10-04T08:56:12Z</time>
      </trkpt>
      <trkpt lat="40.1133560" lon="-4.7403080">
        <ele>803.0</ele>
        <time>2020-10-04T08:56:14Z</time>
      </trkpt>
      <trkpt lat="40.1133760" lon="-4.7403390">
        <ele>803.2</ele>
        <time>2020-10-04T08:56:15Z</time>
      </trkpt>
      <trkpt lat="40.1133820" lon="-4.7403490">
        <ele>803.3</ele>
        <time>2020-10-04T08:56:16Z</time>
      </trkpt>
      <trkpt lat="40.1134010" lon="-4.7403760">
        <ele>803.5</ele>
        <time>2020-10-04T08:56:18Z</time>
      </trkpt>
      <trkpt lat="40.1134140" lon="-4.7403950">
        <ele>803.7</ele>
        <time>2020-10-04T08:56:19Z</time>
      </trkpt>
      <trkpt lat="40.1134230" lon="-4.7404080">
        <ele>803.8</ele>
        <time>2020-10-04T08:56:20Z</time>
      </trkpt>
      <trkpt lat="40.1134470" lon="-4.7404360">
        <ele>804.1</ele>
        <time>2020-10-04T08:56:22Z</time>
      </trkpt>
      <trkpt lat="40.1134550" lon="-4.7404440">
        <ele>804.2</ele>
        <time>2020-10-04T08:56:23Z</time>
      </trkpt>
      <trkpt lat="40.1134720" lon="-4.7404760">
        <ele>804.4</ele>
        <time>2020-10-04T08:56:25Z</time>
      </trkpt>
      <trkpt lat="40.1134930" lon="-4.7405190">
        <ele>804.7</ele>
        <time>2020-10-04T08:56:26Z</time>
      </trkpt>
      <trkpt lat="40.1135100" lon="-4.7405520">
        <ele>805.0</ele>
        <time>2020-10-04T08:56:27Z</time>
      </trkpt>
      <trkpt lat="40.1135250" lon="-4.7405850">
        <ele>805.2</ele>
        <time>2020-10-04T08:56:29Z</time>
      </trkpt>
      <trkpt lat="40.1135320" lon="-4.7406030">
        <ele>805.4</ele>
        <time>2020-10-04T08:56:30Z</time>
      </trkpt>
      <trkpt lat="40.1135410" lon="-4.7406320">
        <ele>805.6</ele>
        <time>2020-10-04T08:56:32Z</time>
      </trkpt>
      <trkpt lat="40.1135460" lon="-4.7406490">
        <ele>805.7</ele>
        <time>2020-10-04T08:56:33Z</time>
      </trkpt>
      <trkpt lat="40.1135520" lon="-4.7406740">
        <ele>805.9</ele>
        <time>2020-10-04T08:56:34Z</time>
      </trkpt>
      <trkpt lat="40.1135640" lon="-4.7407180">
        <ele>806.2</ele>
        <time>2020-10-04T08:56:36Z</time>
      </trkpt>
      <trkpt lat="40.1135690" lon="-4.7407370">
        <ele>806.3</ele>
        <time>2020-10-04T08:56:37Z</time>
      </trkpt>
      <trkpt lat="40.1135730" lon="-4.7407570">
        <ele>806.4</ele>
        <time>2020-10-04T08:56:39Z</time>
      </trkpt>
      <trkpt lat="40.1135760" lon="-4.7407810">
        <ele>806.6</ele>
        <time>2020-10-04T08:56:40Z</time>
      </trkpt>
      <trkpt lat="40.1135830" lon="-4.7407960">
        <ele>806.7</ele>
        <time>2020-10-04T08:56:41Z</time>
      </trkpt>
      <trkpt lat="40.1136050" lon="-4.7408380">
        <ele>807.0</ele>
        <time>2020-10-04T08:56:43Z</time>
      </trkpt>
      <trkpt lat="40.1136170" lon="-4.7408610">
        <ele>807.2</ele>
        <time>2020-10-04T08:56:44Z</time>
      </trkpt>
      <trkpt lat="40.1136390" lon="-4.7408970">
        <ele>807.5</ele>
        <time>2020-10-04T08:56:46Z</time>
      </trkpt>
      <trkpt lat="40.1136590" lon="-4.7409320">
        <ele>807.8</ele>
        <time>2020-10-04T08:56:47Z</time>
      </trkpt>
      <trkpt lat="40.1136670" lon="-4.7409450">
        <ele>807.9</ele>
        <time>2020-10-04T08:56:48Z</time>
      </trkpt>
      <trkpt lat="40.1136790" lon="-4.7409660">
        <ele>808.1</ele>
        <time>2020-10-04T08:56:49Z</time>
      </trkpt>
      <trkpt lat="40.1136930" lon="-4.7409900">
        <ele>808.2</ele>
        <time>2020-10-04T08:56:51Z</time>
      </trkpt>
      <trkpt lat="40.1137090" lon="-4.7410240">
        <ele>808.5</ele>
        <time>2020-10-04T08:56:52Z</time>
      </trkpt>
      <trkpt lat="40.1137150" lon="-4.7410380">
        <ele>808.6</ele>
        <time>2020-10-04T08:56:53Z</time>
      </trkpt>
      <trkpt lat="40.1137330" lon="-4.7410720">
        <ele>808.9</ele>
        <time>2020-10-04T08:56:54Z</time>
      </trkpt>
      <trkpt lat="40.1137530" lon="-4.7411050">
        <ele>809.1</ele>
        <time>2020-10-04T08:56:56Z</time>
      </trkpt>
      <trkpt lat="40.1137590" lon="-4.7411150">
        <ele>809.2</ele>
        <time>2020-10-04T08:56:57Z</time>
      </trkpt>
      <trkpt lat="40.1137810" lon="-4.7411560">
        <ele>809.5</ele>
        <time>2020-10-04T08:56:58Z</time>
      </trkpt>
      <trkpt lat="40.1137870" lon="-4.7411720">
        <ele>809.7</ele>
        <time>2020-10-04T08:56:59Z</time>
      </trkpt>
      <trkpt lat="40.1137980" lon="-4.7411980">
        <ele>809.9</ele>
        <time>2020-10-04T08:57:00Z</time>
      </trkpt>
      <trkpt lat="40.1138140" lon="-4.7412410">
        <ele>810.2</ele>
        <time>2020-10-04T08:57:02Z</time>
      </trkpt>
      <trkpt lat="40.1138340" lon="-4.7412830">
        <ele>810.5</ele>
        <time>2020-10-04T08:57:03Z</time>
      </trkpt>
      <trkpt lat="40.1138400" lon="-4.7412990">
        <ele>810.6</ele>
        <time>2020-10-04T08:57:04Z</time>
      </trkpt>
      <trkpt lat="40.1138560" lon="-4.7413440">
        <ele>810.9</ele>
        <time>2020-10-04T08:57:06Z</time>
      </trkpt>
      <trkpt lat="40.1138720" lon="-4.7413840">
        <ele>811.2</ele>
        <time>2020-10-04T08:57:07Z</time>
      </trkpt>
      <trkpt lat="40.1138770" lon="-4.7413960">
        <ele>811.3</ele>
        <time>2020-10-04T08:57:08Z</time>
      </trkpt>
      <trkpt lat="40.1138950" lon="-4.7414320">
        <ele>811.6</ele>
        <time>2020-10-04T08:57:09Z</time>
      </trkpt>
      <trkpt lat="40.1139020" lon="-4.7414460">
        <ele>811.7</ele>
        <time>2020-10-04T08:57:10Z</time>
      </trkpt>
      <trkpt lat="40.1139230" lon="-4.7414860">
        <ele>812.0</ele>
        <time>2020-10-04T08:57:12Z</time>
      </trkpt>
      <trkpt lat="40.1139290" lon="-4.7414990">
        <ele>812.1</ele>
        <time>2020-10-04T08:57:13Z</time>
      </trkpt>
      <trkpt lat="40.1139500" lon="-4.7415330">
        <ele>812.4</ele>
        <time>2020-10-04T08:57:14Z</time>
      </trkpt>
      <trkpt lat="40.1139560" lon="-4.7415410">
        <ele>812.4</ele>
        <time>2020-10-04T08:57:15Z</time>
      </trkpt>
      <trkpt lat="40.1139830" lon="-4.7415850">
        <ele>812.8</ele>
        <time>2020-10-04T08:57:17Z</time>
      </trkpt>
      <trkpt lat="40.1139900" lon="-4.7415980">
        <ele>812.9</ele>
        <time>2020-10-04T08:57:18Z</time>
      </trkpt>
      <trkpt lat="40.1139980" lon="-4.7416120">
        <ele>813.0</ele>
        <time>2020-10-04T08:57:19Z</time>
      </trkpt>
      <trkpt lat="40.1140080" lon="-4.7416360">
        <ele>813.2</ele>
        <time>2020-10-04T08:57:20Z</time>
      </trkpt>
      <trkpt lat="40.1140220" lon="-4.7416660">
        <ele>813.4</ele>
        <time>2020-10-04T08:57:22Z</time>
      </trkpt>
      <trkpt lat="40.1140440" lon="-4.7417050">
        <ele>813.7</ele>
        <time>2020-10-04T08:57:23Z</time>
      </trkpt>
      <trkpt lat="40.1140510" lon="-4.7417180">
        <ele>813.8</ele>
        <time>2020-10-04T08:57:24Z</time>
      </trkpt>
      <trkpt lat="40.1140740" lon="-4.7417470">
        <ele>814.1</ele>
        <time>2020-10-04T08:57:26Z</time>
      </trkpt>
      <trkpt lat="40.1140810" lon="-4.7417560">
        <ele>814.2</ele>
        <time>2020-10-04T08:57:27Z</time>
      </trkpt>
      <trkpt lat="40.1140990" lon="-4.7417800">
        <ele>814.4</ele>
        <time>2020-10-04T08:57:28Z</time>
      </trkpt>
      <trkpt lat="40.1141060" lon="-4.7417890">
        <ele>814.5</ele>
        <time>2020-10-04T08:57:29Z</time>
      </trkpt>
      <trkpt lat="40.1141240" lon="-4.7418190">
        <ele>814.7</ele>
        <time>2020-10-04T08:57:30Z</time>
      </trkpt>
      <trkpt lat="40.1141290" lon="-4.7418280">
        <ele>814.8</ele>
        <time>2020-10-04T08:57:31Z</time>
      </trkpt>
      <trkpt lat="40.1141500" lon="-4.7418600">
        <ele>815.1</ele>
        <time>2020-10-04T08:57:32Z</time>
      </trkpt>
      <trkpt lat="40.1141580" lon="-4.7418730">
        <ele>815.2</ele>
        <time>2020-10-04T08:57:33Z</time>
      </trkpt>
      <trkpt lat="40.1141830" lon="-4.7419030">
        <ele>815.5</ele>
        <time>2020-10-04T08:57:35Z</time>
      </trkpt>
      <trkpt lat="40.1141900" lon="-4.7419130">
        <ele>815.6</ele>
        <time>2020-10-04T08:57:36Z</time>
      </trkpt>
      <trkpt lat="40.1142070" lon="-4.7419430">
        <ele>815.8</ele>
        <time>2020-10-04T08:57:37Z</time>
      </trkpt>
      <trkpt lat="40.1142260" lon="-4.7419690">
        <ele>816.0</ele>
        <time>2020-10-04T08:57:39Z</time>
      </trkpt>
      <trkpt lat="40.1142370" lon="-4.7419870">
        <ele>816.2</ele>
        <time>2020-10-04T08:57:40Z</time>
      </trkpt>
      <trkpt lat="40.1142590" lon="-4.7420170">
        <ele>816.4</ele>
        <time>2020-10-04T08:57:42Z</time>
      </trkpt>
      <trkpt lat="40.1142760" lon="-4.7420310">
        <ele>816.6</ele>
        <time>2020-10-04T08:57:43Z</time>
      </trkpt>
      <trkpt lat="40.1142980" lon="-4.7420500">
        <ele>816.8</ele>
        <time>2020-10-04T08:57:45Z</time>
      </trkpt>
      <trkpt lat="40.1143210" lon="-4.7420750">
        <ele>817.1</ele>
        <time>2020-10-04T08:57:46Z</time>
      </trkpt>
      <trkpt lat="40.1143310" lon="-4.7420840">
        <ele>817.2</ele>
        <time>2020-10-04T08:57:47Z</time>
      </trkpt>
      <trkpt lat="40.1143510" lon="-4.7420970">
        <ele>817.4</ele>
        <time>2020-10-04T08:57:48Z</time>
      </trkpt>
      <trkpt lat="40.1143750" lon="-4.7421130">
        <ele>817.6</ele>
        <time>2020-10-04T08:57:50Z</time>
      </trkpt>
      <trkpt lat="40.1144030" lon="-4.7421310">
        <ele>817.9</ele>
        <time>2020-10-04T08:57:51Z</time>
      </trkpt>
      <trkpt lat="40.1144150" lon="-4.7421370">
        <ele>818.0</ele>
        <time>2020-10-04T08:57:52Z</time>
      </trkpt>
      <trkpt lat="40.1144490" lon="-4.7421470">
        <ele>818.3</ele>
        <time>2020-10-04T08:57:53Z</time>
      </trkpt>
      <trkpt lat="40.1144600" lon="-4.7421510">
        <ele>818.4</ele>
        <time>2020-10-04T08:57:54Z</time>
      </trkpt>
      <trkpt lat="40.1144890" lon="-4.7421530">
        <ele>818.6</ele>
        <time>2020-10-04T08:57:55Z</time>
      </trkpt>
      <trkpt lat="40.1144990" lon="-4.7421520">
        <ele>818.7</ele>
        <time>2020-10-04T08:57:56Z</time>
      </trkpt>
      <trkpt lat="40.1145310" lon="-4.7421370">
        <ele>819.0</ele>
        <time>2020-10-04T08:57:58Z</time>
      </trkpt>
      <trkpt lat="40.1145390" lon="-4.7421320">
        <ele>819.0</ele>
        <time>2020-10-04T08:57:59Z</time>
      </trkpt>
      <trkpt lat="40.1145680" lon="-4.7421240">
        <ele>819.3</ele>
        <time>2020-10-04T08:58:00Z</time>
      </trkpt>
      <trkpt lat="40.1145760" lon="-4.7421200">
        <ele>819.4</ele>
        <time>2020-10-04T08:58:01Z</time>
      </trkpt>
      <trkpt lat="40.1145950" lon="-4.7421070">
        <ele>819.5</ele>
        <time>2020-10-04T08:58:03Z</time>
      </trkpt>
      <trkpt lat="40.1146090" lon="-4.7421020">
        <ele>819.7</ele>
        <time>2020-10-04T08:58:04Z</time>
      </trkpt>
      <trkpt lat="40.1146210" lon="-4.7421020">
        <ele>819.8</ele>
        <time>2020-10-04T08:58:05Z</time>
      </trkpt>
      <trkpt lat="40.1146340" lon="-4.7420920">
        <ele>819.9</ele>
        <time>2020-10-04T08:58:06Z</time>
      </trkpt>
      <trkpt lat="40.1146530" lon="-4.7420760">
        <ele>820.1</ele>
        <time>2020-10-04T08:58:08Z</time>
      </trkpt>
      <trkpt lat="40.1146710" lon="-4.7420580">
        <ele>820.3</ele>
        <time>2020-10-04T08:58:09Z</time>
      </trkpt>
      <trkpt lat="40.1147010" lon="-4.7420370">
        <ele>820.6</ele>
        <time>2020-10-04T08:58:11Z</time>
      </trkpt>
      <trkpt lat="40.1147280" lon="-4.7420190">
        <ele>820.8</ele>
        <time>2020-10-04T08:58:12Z</time>
      </trkpt>
      <trkpt lat="40.1147580" lon="-4.7420040">
        <ele>821.1</ele>
        <time>2020-10-04T08:58:14Z</time>
      </trkpt>
      <trkpt lat="40.1147850" lon="-4.7419930">
        <ele>821.3</ele>
        <time>2020-10-04T08:58:15Z</time>
      </trkpt>
      <trkpt lat="40.1148170" lon="-4.7419820">
        <ele>821.6</ele>
        <time>2020-10-04T08:58:16Z</time>
      </trkpt>
      <trkpt lat="40.1148270" lon="-4.7419770">
        <ele>821.7</ele>
        <time>2020-10-04T08:58:17Z</time>
      </trkpt>
      <trkpt lat="40.1148410" lon="-4.7419680">
        <ele>821.8</ele>
        <time>2020-10-04T08:58:18Z</time>
      </trkpt>
      <trkpt lat="40.1148600" lon="-4.7419570">
        <ele>822.0</ele>
        <time>2020-10-04T08:58:20Z</time>
      </trkpt>
      <trkpt lat="40.1148690" lon="-4.7419420">
        <ele>822.1</ele>
        <time>2020-10-04T08:58:21Z</time>
      </trkpt>
      <trkpt lat="40.1148850" lon="-4.7419320">
        <ele>822.3</ele>
        <time>2020-10-04T08:58:22Z</time>
      </trkpt>
      <trkpt lat="40.1148990" lon="-4.7419190">
        <ele>822.4</ele>
        <time>2020-10-04T08:58:23Z</time>
      </trkpt>
      <trkpt lat="40.1149250" lon="-4.7419010">
        <ele>822.7</ele>
        <time>2020-10-04T08:58:25Z</time>
      </trkpt>
      <trkpt lat="40.1149440" lon="-4.7418980">
        <ele>822.8</ele>
        <time>2020-10-04T08:58:26Z</time>
      </trkpt>
      <trkpt lat="40.1149660" lon="-4.7418850">
        <ele>823.0</ele>
        <time>2020-10-04T08:58:28Z</time>
      </trkpt>
      <trkpt lat="40.1149840" lon="-4.7418770">
        <ele>823.2</ele>
        <time>2020-10-04T08:58:29Z</time>
      </trkpt>
      <trkpt lat="40.1150120" lon="-4.7418710">
        <ele>823.4</ele>
        <time>2020-10-04T08:58:31Z</time>
      </trkpt>
      <trkpt lat="40.1150450" lon="-4.7418650">
        <ele>823.7</ele>
        <time>2020-10-04T08:58:32Z</time>
      </trkpt>
      <trkpt lat="40.1150530" lon="-4.7418650">
        <ele>823.8</ele>
        <time>2020-10-04T08:58:33Z</time>
      </trkpt>
      <trkpt lat="40.1150740" lon="-4.7418680">
        <ele>824.0</ele>
        <time>2020-10-04T08:58:35Z</time>
      </trkpt>
      <trkpt lat="40.1150850" lon="-4.7418730">
        <ele>824.0</ele>
        <time>2020-10-04T08:58:36Z</time>
      </trkpt>
      <trkpt lat="40.1151010" lon="-4.7418800">
        <ele>824.2</ele>
        <time>2020-10-04T08:58:37Z</time>
      </trkpt>
      <trkpt lat="40.1151140" lon="-4.7418880">
        <ele>824.3</ele>
        <time>2020-10-04T08:58:39Z</time>
      </trkpt>
      <trkpt lat="40.1151240" lon="-4.7418980">
        <ele>824.4</ele>
        <time>2020-10-04T08:58:40Z</time>
      </trkpt>
      <trkpt lat="40.1151440" lon="-4.7419140">
        <ele>824.6</ele>
        <time>2020-10-04T08:58:41Z</time>
      </trkpt>
      <trkpt lat="40.1151670" lon="-4.7419330">
        <ele>824.8</ele>
        <time>2020-10-04T08:58:43Z</time>
      </trkpt>
      <trkpt lat="40.1151880" lon="-4.7419540">
        <ele>825.1</ele>
        <time>2020-10-04T08:58:44Z</time>
      </trkpt>
      <trkpt lat="40.1152080" lon="-4.7419720">
        <ele>825.3</ele>
        <time>2020-10-04T08:58:46Z</time>
      </trkpt>
      <trkpt lat="40.1152350" lon="-4.7419980">
        <ele>825.6</ele>
        <time>2020-10-04T08:58:47Z</time>
      </trkpt>
      <trkpt lat="40.1152400" lon="-4.7420050">
        <ele>825.6</ele>
        <time>2020-10-04T08:58:48Z</time>
      </trkpt>
      <trkpt lat="40.1152620" lon="-4.7420400">
        <ele>825.9</ele>
        <time>2020-10-04T08:58:50Z</time>
      </trkpt>
      <trkpt lat="40.1152670" lon="-4.7420490">
        <ele>826.0</ele>
        <time>2020-10-04T08:58:51Z</time>
      </trkpt>
      <trkpt lat="40.1152790" lon="-4.7420670">
        <ele>826.1</ele>
        <time>2020-10-04T08:58:52Z</time>
      </trkpt>
      <trkpt lat="40.1152910" lon="-4.7420830">
        <ele>826.3</ele>
        <time>2020-10-04T08:58:53Z</time>
      </trkpt>
      <trkpt lat="40.1153200" lon="-4.7421100">
        <ele>826.6</ele>
        <time>2020-10-04T08:58:55Z</time>
      </trkpt>
      <trkpt lat="40.1153360" lon="-4.7421300">
        <ele>826.8</ele>
        <time>2020-10-04T08:58:56Z</time>
      </trkpt>
      <trkpt lat="40.1153470" lon="-4.7421510">
        <ele>826.9</ele>
        <time>2020-10-04T08:58:58Z</time>
      </trkpt>
      <trkpt lat="40.1153490" lon="-4.7421640">
        <ele>827.0</ele>
        <time>2020-10-04T08:58:59Z</time>
      </trkpt>
      <trkpt lat="40.1153540" lon="-4.7421830">
        <ele>827.1</ele>
        <time>2020-10-04T08:59:01Z</time>
      </trkpt>
      <trkpt lat="40.1153600" lon="-4.7422040">
        <ele>827.3</ele>
        <time>2020-10-04T08:59:03Z</time>
      </trkpt>
      <trkpt lat="40.1153690" lon="-4.7422250">
        <ele>827.4</ele>
        <time>2020-10-04T08:59:04Z</time>
      </trkpt>
      <trkpt lat="40.1153790" lon="-4.7422510">
        <ele>827.6</ele>
        <time>2020-10-04T08:59:06Z</time>
      </trkpt>
      <trkpt lat="40.1153890" lon="-4.7422730">
        <ele>827.8</ele>
        <time>2020-10-04T08:59:07Z</time>
      </trkpt>
      <trkpt lat="40.1154060" lon="-4.7423080">
        <ele>828.1</ele>
        <time>2020-10-04T08:59:09Z</time>
      </trkpt>
      <trkpt lat="40.1154250" lon="-4.7423390">
        <ele>828.3</ele>
        <time>2020-10-04T08:59:10Z</time>
      </trkpt>
      <trkpt lat="40.1154330" lon="-4.7423500">
        <ele>828.4</ele>
        <time>2020-10-04T08:59:11Z</time>
      </trkpt>
      <trkpt lat="40.1154620" lon="-4.7423770">
        <ele>828.7</ele>
        <time>2020-10-04T08:59:12Z</time>
      </trkpt>
      <trkpt lat="40.1154740" lon="-4.7423880">
        <ele>828.8</ele>
        <time>2020-10-04T08:59:13Z</time>
      </trkpt>
      <trkpt lat="40.1155050" lon="-4.7424140">
        <ele>829.1</ele>
        <time>2020-10-04T08:59:15Z</time>
      </trkpt>
      <trkpt lat="40.1155170" lon="-4.7424240">
        <ele>829.3</ele>
        <time>2020-10-04T08:59:16Z</time>
      </trkpt>
      <trkpt lat="40.1155490" lon="-4.7424540">
        <ele>829.6</ele>
        <time>2020-10-04T08:59:18Z</time>
      </trkpt>
      <trkpt lat="40.1155820" lon="-4.7424750">
        <ele>829.9</ele>
        <time>2020-10-04T08:59:19Z</time>
      </trkpt>
      <trkpt lat="40.1155930" lon="-4.7424830">
        <ele>830.0</ele>
        <time>2020-10-04T08:59:20Z</time>
      </trkpt>
      <trkpt lat="40.1156160" lon="-4.7425070">
        <ele>830.3</ele>
        <time>2020-10-04T08:59:22Z</time>
      </trkpt>
      <trkpt lat="40.1156230" lon="-4.7425130">
        <ele>830.3</ele>
        <time>2020-10-04T08:59:23Z</time>
      </trkpt>
      <trkpt lat="40.1156520" lon="-4.7425310">
        <ele>830.6</ele>
        <time>2020-10-04T08:59:24Z</time>
      </trkpt>
      <trkpt lat="40.1156610" lon="-4.7425380">
        <ele>830.7</ele>
        <time>2020-10-04T08:59:25Z</time>
      </trkpt>
      <trkpt lat="40.1156760" lon="-4.7425550">
        <ele>830.8</ele>
        <time>2020-10-04T08:59:26Z</time>
      </trkpt>
      <trkpt lat="40.1157070" lon="-4.7425880">
        <ele>831.2</ele>
        <time>2020-10-04T08:59:28Z</time>
      </trkpt>
      <trkpt lat="40.1157300" lon="-4.7426120">
        <ele>831.4</ele>
        <time>2020-10-04T08:59:29Z</time>
      </trkpt>
      <trkpt lat="40.1157370" lon="-4.7426200">
        <ele>831.5</ele>
        <time>2020-10-04T08:59:30Z</time>
      </trkpt>
      <trkpt lat="40.1157670" lon="-4.7426420">
        <ele>831.8</ele>
        <time>2020-10-04T08:59:31Z</time>
      </trkpt>
      <trkpt lat="40.1157780" lon="-4.7426490">
        <ele>831.9</ele>
        <time>2020-10-04T08:59:32Z</time>
      </trkpt>
      <trkpt lat="40.1158070" lon="-4.7426700">
        <ele>832.2</ele>
        <time>2020-10-04T08:59:34Z</time>
      </trkpt>
      <trkpt lat="40.1158270" lon="-4.7426870">
        <ele>832.4</ele>
        <time>2020-10-04T08:59:35Z</time>
      </trkpt>
      <trkpt lat="40.1158500" lon="-4.7427150">
        <ele>832.6</ele>
        <time>2020-10-04T08:59:37Z</time>
      </trkpt>
      <trkpt lat="40.1158760" lon="-4.7427450">
        <ele>832.9</ele>
        <time>2020-10-04T08:59:38Z</time>
      </trkpt>
      <trkpt lat="40.1158860" lon="-4.7427570">
        <ele>833.1</ele>
        <time>2020-10-04T08:59:39Z</time>
      </trkpt>
      <trkpt lat="40.1159120" lon="-4.7427870">
        <ele>833.3</ele>
        <time>2020-10-04T08:59:40Z</time>
      </trkpt>
      <trkpt lat="40.1159200" lon="-4.7427950">
        <ele>833.4</ele>
        <time>2020-10-04T08:59:41Z</time>
      </trkpt>
      <trkpt lat="40.1159450" lon="-4.7428130">
        <ele>833.7</ele>
        <time>2020-10-04T08:59:42Z</time>
      </trkpt>
      <trkpt lat="40.1159650" lon="-4.7428320">
        <ele>833.9</ele>
        <time>2020-10-04T08:59:43Z</time>
      </trkpt>
      <trkpt lat="40.1159830" lon="-4.7428600">
        <ele>834.1</ele>
        <time>2020-10-04T08:59:45Z</time>
      </trkpt>
      <trkpt lat="40.1160020" lon="-4.7428910">
        <ele>834.4</ele>
        <time>2020-10-04T08:59:46Z</time>
      </trkpt>
      <trkpt lat="40.1160320" lon="-4.7429200">
        <ele>834.7</ele>
        <time>2020-10-04T08:59:47Z</time>
      </trkpt>
      <trkpt lat="40.1160690" lon="-4.7429540">
        <ele>835.1</ele>
        <time>2020-10-04T08:59:49Z</time>
      </trkpt>
      <trkpt lat="40.1160810" lon="-4.7429700">
        <ele>835.2</ele>
        <time>2020-10-04T08:59:50Z</time>
      </trkpt>
      <trkpt lat="40.1160940" lon="-4.7429850">
        <ele>835.4</ele>
        <time>2020-10-04T08:59:51Z</time>
      </trkpt>
      <trkpt lat="40.1161090" lon="-4.7430050">
        <ele>835.5</ele>
        <time>2020-10-04T08:59:52Z</time>
      </trkpt>
      <trkpt lat="40.1161280" lon="-4.7430250">
        <ele>835.7</ele>
        <time>2020-10-04T08:59:54Z</time>
      </trkpt>
      <trkpt lat="40.1161490" lon="-4.7430300">
        <ele>835.9</ele>
        <time>2020-10-04T08:59:55Z</time>
      </trkpt>
      <trkpt lat="40.1161620" lon="-4.7430260">
        <ele>836.0</ele>
        <time>2020-10-04T08:59:57Z</time>
      </trkpt>
      <trkpt lat="40.1161680" lon="-4.7430310">
        <ele>836.1</ele>
        <time>2020-10-04T08:59:58Z</time>
      </trkpt>
      <trkpt lat="40.1161740" lon="-4.7430330">
        <ele>836.1</ele>
        <time>2020-10-04T08:59:59Z</time>
      </trkpt>
      <trkpt lat="40.1161810" lon="-4.7430330">
        <ele>836.2</ele>
        <time>2020-10-04T09:00:01Z</time>
      </trkpt>
      <trkpt lat="40.1161880" lon="-4.7430490">
        <ele>836.3</ele>
        <time>2020-10-04T09:00:02Z</time>
      </trkpt>
      <trkpt lat="40.1161960" lon="-4.7430630">
        <ele>836.4</ele>
        <time>2020-10-04T09:00:03Z</time>
      </trkpt>
      <trkpt lat="40.1162000" lon="-4.7430770">
        <ele>836.5</ele>
        <time>2020-10-04T09:00:04Z</time>
      </trkpt>
      <trkpt lat="40.1162150" lon="-4.7431160">
        <ele>836.8</ele>
        <time>2020-10-04T09:00:06Z</time>
      </trkpt>
      <trkpt lat="40.1162260" lon="-4.7431330">
        <ele>836.9</ele>
        <time>2020-10-04T09:00:07Z</time>
      </trkpt>
      <trkpt lat="40.1162430" lon="-4.7431630">
        <ele>837.2</ele>
        <time>2020-10-04T09:00:09Z</time>
      </trkpt>
      <trkpt lat="40.1162570" lon="-4.7431940">
        <ele>837.4</ele>
        <time>2020-10-04T09:00:10Z</time>
      </trkpt>
      <trkpt lat="40.1162620" lon="-4.7432080">
        <ele>837.5</ele>
        <time>2020-10-04T09:00:11Z</time>
      </trkpt>
      <trkpt lat="40.1162780" lon="-4.7432420">
        <ele>837.8</ele>
        <time>2020-10-04T09:00:12Z</time>
      </trkpt>
      <trkpt lat="40.1162860" lon="-4.7432560">
        <ele>837.9</ele>
        <time>2020-10-04T09:00:13Z</time>
      </trkpt>
      <trkpt lat="40.1163060" lon="-4.7433080">
        <ele>838.3</ele>
        <time>2020-10-04T09:00:15Z</time>
      </trkpt>
      <trkpt lat="40.1163130" lon="-4.7433260">
        <ele>838.4</ele>
        <time>2020-10-04T09:00:16Z</time>
      </trkpt>
      <trkpt lat="40.1163200" lon="-4.7433440">
        <ele>838.5</ele>
        <time>2020-10-04T09:00:17Z</time>
      </trkpt>
      <trkpt lat="40.1163340" lon="-4.7433750">
        <ele>838.8</ele>
        <time>2020-10-04T09:00:18Z</time>
      </trkpt>
      <trkpt lat="40.1163550" lon="-4.7434240">
        <ele>839.1</ele>
        <time>2020-10-04T09:00:19Z</time>
      </trkpt>
      <trkpt lat="40.1163810" lon="-4.7434760">
        <ele>839.5</ele>
        <time>2020-10-04T09:00:21Z</time>
      </trkpt>
      <trkpt lat="40.1163910" lon="-4.7434950">
        <ele>839.7</ele>
        <time>2020-10-04T09:00:22Z</time>
      </trkpt>
      <trkpt lat="40.1164010" lon="-4.7435140">
        <ele>839.8</ele>
        <time>2020-10-04T09:00:23Z</time>
      </trkpt>
      <trkpt lat="40.1164250" lon="-4.7435660">
        <ele>840.2</ele>
        <time>2020-10-04T09:00:24Z</time>
      </trkpt>
      <trkpt lat="40.1164330" lon="-4.7435890">
        <ele>840.4</ele>
        <time>2020-10-04T09:00:25Z</time>
      </trkpt>
      <trkpt lat="40.1164500" lon="-4.7436330">
        <ele>840.7</ele>
        <time>2020-10-04T09:00:27Z</time>
      </trkpt>
      <trkpt lat="40.1164640" lon="-4.7436740">
        <ele>841.0</ele>
        <time>2020-10-04T09:00:28Z</time>
      </trkpt>
      <trkpt lat="40.1164770" lon="-4.7437100">
        <ele>841.2</ele>
        <time>2020-10-04T09:00:29Z</time>
      </trkpt>
      <trkpt lat="40.1164910" lon="-4.7437490">
        <ele>841.5</ele>
        <time>2020-10-04T09:00:31Z</time>
      </trkpt>
      <trkpt lat="40.1165070" lon="-4.7437900">
        <ele>841.8</ele>
        <time>2020-10-04T09:00:32Z</time>
      </trkpt>
      <trkpt lat="40.1165290" lon="-4.7438340">
        <ele>842.1</ele>
        <time>2020-10-04T09:00:33Z</time>
      </trkpt>
      <trkpt lat="40.1165530" lon="-4.7438920">
        <ele>842.6</ele>
        <time>2020-10-04T09:00:35Z</time>
      </trkpt>
      <trkpt lat="40.1165710" lon="-4.7439420">
        <ele>842.9</ele>
        <time>2020-10-04T09:00:36Z</time>
      </trkpt>
      <trkpt lat="40.1165840" lon="-4.7439850">
        <ele>843.2</ele>
        <time>2020-10-04T09:00:37Z</time>
      </trkpt>
      <trkpt lat="40.1166010" lon="-4.7440180">
        <ele>843.5</ele>
        <time>2020-10-04T09:00:38Z</time>
      </trkpt>
      <trkpt lat="40.1166320" lon="-4.7440780">
        <ele>843.9</ele>
        <time>2020-10-04T09:00:40Z</time>
      </trkpt>
      <trkpt lat="40.1166550" lon="-4.7441320">
        <ele>844.3</ele>
        <time>2020-10-04T09:00:41Z</time>
      </trkpt>
      <trkpt lat="40.1166700" lon="-4.7441700">
        <ele>844.6</ele>
        <time>2020-10-04T09:00:42Z</time>
      </trkpt>
      <trkpt lat="40.1166850" lon="-4.7442100">
        <ele>844.9</ele>
        <time>2020-10-04T09:00:43Z</time>
      </trkpt>
      <trkpt lat="40.1167100" lon="-4.7442770">
        <ele>845.4</ele>
        <time>2020-10-04T09:00:44Z</time>
      </trkpt>
      <trkpt lat="40.1167300" lon="-4.7443300">
        <ele>845.8</ele>
        <time>2020-10-04T09:00:46Z</time>
      </trkpt>
      <trkpt lat="40.1167460" lon="-4.7443670">
        <ele>846.0</ele>
        <time>2020-10-04T09:00:47Z</time>
      </trkpt>
      <trkpt lat="40.1167670" lon="-4.7444190">
        <ele>846.4</ele>
        <time>2020-10-04T09:00:48Z</time>
      </trkpt>
      <trkpt lat="40.1167780" lon="-4.7444620">
        <ele>846.7</ele>
        <time>2020-10-04T09:00:49Z</time>
      </trkpt>
      <trkpt lat="40.1167880" lon="-4.7444970">
        <ele>846.9</ele>
        <time>2020-10-04T09:00:51Z</time>
      </trkpt>
      <trkpt lat="40.1168010" lon="-4.7445360">
        <ele>847.2</ele>
        <time>2020-10-04T09:00:52Z</time>
      </trkpt>
      <trkpt lat="40.1168140" lon="-4.7445810">
        <ele>847.5</ele>
        <time>2020-10-04T09:00:53Z</time>
      </trkpt>
      <trkpt lat="40.1168440" lon="-4.7446540">
        <ele>848.1</ele>
        <time>2020-10-04T09:00:55Z</time>
      </trkpt>
      <trkpt lat="40.1168580" lon="-4.7447040">
        <ele>848.4</ele>
        <time>2020-10-04T09:00:56Z</time>
      </trkpt>
      <trkpt lat="40.1168720" lon="-4.7447590">
        <ele>848.8</ele>
        <time>2020-10-04T09:00:57Z</time>
      </trkpt>
      <trkpt lat="40.1168860" lon="-4.7448290">
        <ele>849.2</ele>
        <time>2020-10-04T09:00:58Z</time>
      </trkpt>
      <trkpt lat="40.1168990" lon="-4.7449010">
        <ele>849.7</ele>
        <time>2020-10-04T09:00:59Z</time>
      </trkpt>
      <trkpt lat="40.1169080" lon="-4.7449570">
        <ele>850.1</ele>
        <time>2020-10-04T09:01:00Z</time>
      </trkpt>
      <trkpt lat="40.1169220" lon="-4.7450400">
        <ele>850.6</ele>
        <time>2020-10-04T09:01:02Z</time>
      </trkpt>
      <trkpt lat="40.1169310" lon="-4.7450870">
        <ele>850.9</ele>
        <time>2020-10-04T09:01:03Z</time>
      </trkpt>
      <trkpt lat="40.1169450" lon="-4.7451480">
        <ele>851.3</ele>
        <time>2020-10-04T09:01:04Z</time>
      </trkpt>
      <trkpt lat="40.1169630" lon="-4.7452230">
        <ele>851.9</ele>
        <time>2020-10-04T09:01:06Z</time>
      </trkpt>
      <trkpt lat="40.1169810" lon="-4.7452700">
        <ele>852.2</ele>
        <time>2020-10-04T09:01:07Z</time>
      </trkpt>
      <trkpt lat="40.1170010" lon="-4.7453230">
        <ele>852.6</ele>
        <time>2020-10-04T09:01:08Z</time>
      </trkpt>
      <trkpt lat="40.1170160" lon="-4.7453690">
        <ele>852.9</ele>
        <time>2020-10-04T09:01:09Z</time>
      </trkpt>
      <trkpt lat="40.1170420" lon="-4.7454400">
        <ele>853.4</ele>
        <time>2020-10-04T09:01:11Z</time>
      </trkpt>
      <trkpt lat="40.1170710" lon="-4.7454960">
        <ele>853.8</ele>
        <time>2020-10-04T09:01:12Z</time>
      </trkpt>
      <trkpt lat="40.1171010" lon="-4.7455520">
        <ele>854.3</ele>
        <time>2020-10-04T09:01:14Z</time>
      </trkpt>
      <trkpt lat="40.1171170" lon="-4.7455940">
        <ele>854.6</ele>
        <time>2020-10-04T09:01:15Z</time>
      </trkpt>
      <trkpt lat="40.1171370" lon="-4.7456510">
        <ele>855.0</ele>
        <time>2020-10-04T09:01:16Z</time>
      </trkpt>
      <trkpt lat="40.1171550" lon="-4.7457020">
        <ele>855.3</ele>
        <time>2020-10-04T09:01:17Z</time>
      </trkpt>
      <trkpt lat="40.1171740" lon="-4.7457710">
        <ele>855.8</ele>
        <time>2020-10-04T09:01:18Z</time>
      </trkpt>
      <trkpt lat="40.1171920" lon="-4.7458330">
        <ele>856.2</ele>
        <time>2020-10-04T09:01:20Z</time>
      </trkpt>
      <trkpt lat="40.1172030" lon="-4.7458820">
        <ele>856.6</ele>
        <time>2020-10-04T09:01:21Z</time>
      </trkpt>
      <trkpt lat="40.1172160" lon="-4.7459280">
        <ele>856.9</ele>
        <time>2020-10-04T09:01:22Z</time>
      </trkpt>
      <trkpt lat="40.1172320" lon="-4.7459850">
        <ele>857.3</ele>
        <time>2020-10-04T09:01:23Z</time>
      </trkpt>
      <trkpt lat="40.1172500" lon="-4.7460620">
        <ele>857.8</ele>
        <time>2020-10-04T09:01:25Z</time>
      </trkpt>
      <trkpt lat="40.1172580" lon="-4.7461020">
        <ele>858.1</ele>
        <time>2020-10-04T09:01:26Z</time>
      </trkpt>
      <trkpt lat="40.1172840" lon="-4.7461690">
        <ele>858.5</ele>
        <time>2020-10-04T09:01:28Z</time>
      </trkpt>
      <trkpt lat="40.1173050" lon="-4.7462090">
        <ele>858.9</ele>
        <time>2020-10-04T09:01:30Z</time>
      </trkpt>
      <trkpt lat="40.1173200" lon="-4.7462390">
        <ele>859.1</ele>
        <time>2020-10-04T09:01:31Z</time>
      </trkpt>
      <trkpt lat="40.1173310" lon="-4.7462790">
        <ele>859.4</ele>
        <time>2020-10-04T09:01:32Z</time>
      </trkpt>
      <trkpt lat="40.1173330" lon="-4.7462930">
        <ele>859.4</ele>
        <time>2020-10-04T09:01:33Z</time>
      </trkpt>
      <trkpt lat="40.1173310" lon="-4.7463290">
        <ele>859.7</ele>
        <time>2020-10-04T09:01:34Z</time>
      </trkpt>
      <trkpt lat="40.1173310" lon="-4.7463860">
        <ele>860.0</ele>
        <time>2020-10-04T09:01:36Z</time>
      </trkpt>
      <trkpt lat="40.1173340" lon="-4.7464220">
        <ele>860.3</ele>
        <time>2020-10-04T09:01:37Z</time>
      </trkpt>
      <trkpt lat="40.1173420" lon="-4.7464830">
        <ele>860.7</ele>
        <time>2020-10-04T09:01:39Z</time>
      </trkpt>
      <trkpt lat="40.1173450" lon="-4.7465040">
        <ele>860.8</ele>
        <time>2020-10-04T09:01:40Z</time>
      </trkpt>
      <trkpt lat="40.1173490" lon="-4.7465260">
        <ele>861.0</ele>
        <time>2020-10-04T09:01:41Z</time>
      </trkpt>
      <trkpt lat="40.1173530" lon="-4.7465690">
        <ele>861.3</ele>
        <time>2020-10-04T09:01:42Z</time>
      </trkpt>
      <trkpt lat="40.1173540" lon="-4.7465850">
        <ele>861.4</ele>
        <time>2020-10-04T09:01:43Z</time>
      </trkpt>
      <trkpt lat="40.1173550" lon="-4.7466190">
        <ele>861.6</ele>
        <time>2020-10-04T09:01:44Z</time>
      </trkpt>
      <trkpt lat="40.1173550" lon="-4.7466610">
        <ele>861.8</ele>
        <time>2020-10-04T09:01:46Z</time>
      </trkpt>
      <trkpt lat="40.1173520" lon="-4.7467020">
        <ele>862.1</ele>
        <time>2020-10-04T09:01:47Z</time>
      </trkpt>
      <trkpt lat="40.1173430" lon="-4.7467350">
        <ele>862.3</ele>
        <time>2020-10-04T09:01:49Z</time>
      </trkpt>
      <trkpt lat="40.1173410" lon="-4.7467760">
        <ele>862.6</ele>
        <time>2020-10-04T09:01:50Z</time>
      </trkpt>
      <trkpt lat="40.1173400" lon="-4.7468220">
        <ele>862.9</ele>
        <time>2020-10-04T09:01:51Z</time>
      </trkpt>
      <trkpt lat="40.1173400" lon="-4.7468420">
        <ele>863.0</ele>
        <time>2020-10-04T09:01:52Z</time>
      </trkpt>
      <trkpt lat="40.1173480" lon="-4.7468880">
        <ele>863.3</ele>
        <time>2020-10-04T09:01:54Z</time>
      </trkpt>
      <trkpt lat="40.1173500" lon="-4.7469010">
        <ele>863.4</ele>
        <time>2020-10-04T09:01:55Z</time>
      </trkpt>
      <trkpt lat="40.1173570" lon="-4.7469310">
        <ele>863.6</ele>
        <time>2020-10-04T09:01:56Z</time>
      </trkpt>
      <trkpt lat="40.1173730" lon="-4.7469720">
        <ele>863.9</ele>
        <time>2020-10-04T09:01:58Z</time>
      </trkpt>
      <trkpt lat="40.1173930" lon="-4.7470020">
        <ele>864.2</ele>
        <time>2020-10-04T09:01:59Z</time>
      </trkpt>
      <trkpt lat="40.1174000" lon="-4.7470130">
        <ele>864.3</ele>
        <time>2020-10-04T09:02:00Z</time>
      </trkpt>
      <trkpt lat="40.1174310" lon="-4.7470490">
        <ele>864.6</ele>
        <time>2020-10-04T09:02:02Z</time>
      </trkpt>
      <trkpt lat="40.1174580" lon="-4.7470580">
        <ele>864.8</ele>
        <time>2020-10-04T09:02:03Z</time>
      </trkpt>
      <trkpt lat="40.1175060" lon="-4.7470850">
        <ele>865.3</ele>
        <time>2020-10-04T09:02:05Z</time>
      </trkpt>
      <trkpt lat="40.1175230" lon="-4.7470950">
        <ele>865.4</ele>
        <time>2020-10-04T09:02:06Z</time>
      </trkpt>
      <trkpt lat="40.1175400" lon="-4.7471050">
        <ele>865.6</ele>
        <time>2020-10-04T09:02:07Z</time>
      </trkpt>
      <trkpt lat="40.1175630" lon="-4.7471260">
        <ele>865.8</ele>
        <time>2020-10-04T09:02:08Z</time>
      </trkpt>
      <trkpt lat="40.1175890" lon="-4.7471500">
        <ele>866.1</ele>
        <time>2020-10-04T09:02:10Z</time>
      </trkpt>
      <trkpt lat="40.1176060" lon="-4.7471660">
        <ele>866.3</ele>
        <time>2020-10-04T09:02:11Z</time>
      </trkpt>
      <trkpt lat="40.1176270" lon="-4.7471970">
        <ele>866.5</ele>
        <time>2020-10-04T09:02:13Z</time>
      </trkpt>
      <trkpt lat="40.1176520" lon="-4.7472330">
        <ele>866.8</ele>
        <time>2020-10-04T09:02:14Z</time>
      </trkpt>
      <trkpt lat="40.1176590" lon="-4.7472450">
        <ele>866.9</ele>
        <time>2020-10-04T09:02:15Z</time>
      </trkpt>
      <trkpt lat="40.1176790" lon="-4.7472810">
        <ele>867.2</ele>
        <time>2020-10-04T09:02:16Z</time>
      </trkpt>
      <trkpt lat="40.1176860" lon="-4.7472940">
        <ele>867.3</ele>
        <time>2020-10-04T09:02:17Z</time>
      </trkpt>
      <trkpt lat="40.1176970" lon="-4.7473140">
        <ele>867.5</ele>
        <time>2020-10-04T09:02:18Z</time>
      </trkpt>
      <trkpt lat="40.1177100" lon="-4.7473410">
        <ele>867.7</ele>
        <time>2020-10-04T09:02:20Z</time>
      </trkpt>
      <trkpt lat="40.1177250" lon="-4.7473780">
        <ele>868.0</ele>
        <time>2020-10-04T09:02:21Z</time>
      </trkpt>
      <trkpt lat="40.1177280" lon="-4.7473890">
        <ele>868.0</ele>
        <time>2020-10-04T09:02:22Z</time>
      </trkpt>
      <trkpt lat="40.1177440" lon="-4.7474410">
        <ele>868.4</ele>
        <time>2020-10-04T09:02:24Z</time>
      </trkpt>
      <trkpt lat="40.1177520" lon="-4.7474830">
        <ele>868.7</ele>
        <time>2020-10-04T09:02:25Z</time>
      </trkpt>
      <trkpt lat="40.1177540" lon="-4.7474950">
        <ele>868.8</ele>
        <time>2020-10-04T09:02:26Z</time>
      </trkpt>
      <trkpt lat="40.1177730" lon="-4.7475530">
        <ele>869.2</ele>
        <time>2020-10-04T09:02:28Z</time>
      </trkpt>
      <trkpt lat="40.1177780" lon="-4.7475700">
        <ele>869.3</ele>
        <time>2020-10-04T09:02:29Z</time>
      </trkpt>
      <trkpt lat="40.1177830" lon="-4.7475860">
        <ele>869.4</ele>
        <time>2020-10-04T09:02:30Z</time>
      </trkpt>
      <trkpt lat="40.1177920" lon="-4.7476250">
        <ele>869.7</ele>
        <time>2020-10-04T09:02:31Z</time>
      </trkpt>
      <trkpt lat="40.1177950" lon="-4.7476370">
        <ele>869.9</ele>
        <time>2020-10-04T09:02:32Z</time>
      </trkpt>
      <trkpt lat="40.1178010" lon="-4.7476630">
        <ele>870.1</ele>
        <time>2020-10-04T09:02:33Z</time>
      </trkpt>
      <trkpt lat="40.1178100" lon="-4.7476970">
        <ele>870.4</ele>
        <time>2020-10-04T09:02:35Z</time>
      </trkpt>
      <trkpt lat="40.1178200" lon="-4.7477350">
        <ele>870.7</ele>
        <time>2020-10-04T09:02:36Z</time>
      </trkpt>
      <trkpt lat="40.1178330" lon="-4.7477740">
        <ele>871.0</ele>
        <time>2020-10-04T09:02:37Z</time>
      </trkpt>
      <trkpt lat="40.1178370" lon="-4.7477860">
        <ele>871.1</ele>
        <time>2020-10-04T09:02:38Z</time>
      </trkpt>
      <trkpt lat="40.1178470" lon="-4.7478060">
        <ele>871.3</ele>
        <time>2020-10-04T09:02:39Z</time>
      </trkpt>
      <trkpt lat="40.1178610" lon="-4.7478310">
        <ele>871.5</ele>
        <time>2020-10-04T09:02:41Z</time>
      </trkpt>
      <trkpt lat="40.1178760" lon="-4.7478540">
        <ele>871.6</ele>
        <time>2020-10-04T09:02:42Z</time>
      </trkpt>
      <trkpt lat="40.1179020" lon="-4.7478890">
        <ele>871.8</ele>
        <time>2020-10-04T09:02:44Z</time>
      </trkpt>
      <trkpt lat="40.1179370" lon="-4.7479030">
        <ele>872.0</ele>
        <time>2020-10-04T09:02:46Z</time>
      </trkpt>
      <trkpt lat="40.1179740" lon="-4.7479070">
        <ele>872.2</ele>
        <time>2020-10-04T09:02:48Z</time>
      </trkpt>
      <trkpt lat="40.1180050" lon="-4.7479010">
        <ele>872.3</ele>
        <time>2020-10-04T09:02:49Z</time>
      </trkpt>
      <trkpt lat="40.1180350" lon="-4.7478900">
        <ele>872.5</ele>
        <time>2020-10-04T09:02:50Z</time>
      </trkpt>
      <trkpt lat="40.1180640" lon="-4.7478730">
        <ele>872.6</ele>
        <time>2020-10-04T09:02:52Z</time>
      </trkpt>
      <trkpt lat="40.1180900" lon="-4.7478540">
        <ele>872.7</ele>
        <time>2020-10-04T09:02:53Z</time>
      </trkpt>
      <trkpt lat="40.1181090" lon="-4.7478350">
        <ele>872.8</ele>
        <time>2020-10-04T09:02:54Z</time>
      </trkpt>
      <trkpt lat="40.1181410" lon="-4.7478030">
        <ele>872.9</ele>
        <time>2020-10-04T09:02:56Z</time>
      </trkpt>
      <trkpt lat="40.1181620" lon="-4.7477820">
        <ele>873.0</ele>
        <time>2020-10-04T09:02:57Z</time>
      </trkpt>
      <trkpt lat="40.1181920" lon="-4.7477510">
        <ele>873.1</ele>
        <time>2020-10-04T09:02:59Z</time>
      </trkpt>
      <trkpt lat="40.1182280" lon="-4.7477280">
        <ele>873.2</ele>
        <time>2020-10-04T09:03:00Z</time>
      </trkpt>
      <trkpt lat="40.1182750" lon="-4.7477080">
        <ele>873.4</ele>
        <time>2020-10-04T09:03:02Z</time>
      </trkpt>
      <trkpt lat="40.1183080" lon="-4.7477030">
        <ele>873.5</ele>
        <time>2020-10-04T09:03:03Z</time>
      </trkpt>
      <trkpt lat="40.1183650" lon="-4.7476920">
        <ele>873.7</ele>
        <time>2020-10-04T09:03:05Z</time>
      </trkpt>
      <trkpt lat="40.1183950" lon="-4.7476930">
        <ele>873.8</ele>
        <time>2020-10-04T09:03:06Z</time>
      </trkpt>
      <trkpt lat="40.1184320" lon="-4.7476930">
        <ele>874.0</ele>
        <time>2020-10-04T09:03:08Z</time>
      </trkpt>
      <trkpt lat="40.1184610" lon="-4.7476990">
        <ele>874.1</ele>
        <time>2020-10-04T09:03:09Z</time>
      </trkpt>
      <trkpt lat="40.1184980" lon="-4.7477090">
        <ele>874.4</ele>
        <time>2020-10-04T09:03:10Z</time>
      </trkpt>
      <trkpt lat="40.1185250" lon="-4.7477150">
        <ele>874.5</ele>
        <time>2020-10-04T09:03:11Z</time>
      </trkpt>
      <trkpt lat="40.1185490" lon="-4.7477200">
        <ele>874.7</ele>
        <time>2020-10-04T09:03:12Z</time>
      </trkpt>
      <trkpt lat="40.1185890" lon="-4.7477270">
        <ele>875.0</ele>
        <time>2020-10-04T09:03:14Z</time>
      </trkpt>
      <trkpt lat="40.1186180" lon="-4.7477340">
        <ele>875.3</ele>
        <time>2020-10-04T09:03:15Z</time>
      </trkpt>
      <trkpt lat="40.1186630" lon="-4.7477490">
        <ele>875.7</ele>
        <time>2020-10-04T09:03:17Z</time>
      </trkpt>
      <trkpt lat="40.1186960" lon="-4.7477610">
        <ele>876.0</ele>
        <time>2020-10-04T09:03:18Z</time>
      </trkpt>
      <trkpt lat="40.1187060" lon="-4.7477660">
        <ele>876.1</ele>
        <time>2020-10-04T09:03:19Z</time>
      </trkpt>
      <trkpt lat="40.1187350" lon="-4.7477790">
        <ele>876.5</ele>
        <time>2020-10-04T09:03:20Z</time>
      </trkpt>
      <trkpt lat="40.1187440" lon="-4.7477840">
        <ele>876.6</ele>
        <time>2020-10-04T09:03:21Z</time>
      </trkpt>
      <trkpt lat="40.1187760" lon="-4.7478040">
        <ele>877.0</ele>
        <time>2020-10-04T09:03:23Z</time>
      </trkpt>
      <trkpt lat="40.1187870" lon="-4.7478120">
        <ele>877.1</ele>
        <time>2020-10-04T09:03:24Z</time>
      </trkpt>
      <trkpt lat="40.1188140" lon="-4.7478300">
        <ele>877.4</ele>
        <time>2020-10-04T09:03:25Z</time>
      </trkpt>
      <trkpt lat="40.1188240" lon="-4.7478370">
        <ele>877.6</ele>
        <time>2020-10-04T09:03:26Z</time>
      </trkpt>
      <trkpt lat="40.1188510" lon="-4.7478550">
        <ele>877.9</ele>
        <time>2020-10-04T09:03:28Z</time>
      </trkpt>
      <trkpt lat="40.1188760" lon="-4.7478730">
        <ele>878.2</ele>
        <time>2020-10-04T09:03:29Z</time>
      </trkpt>
      <trkpt lat="40.1189020" lon="-4.7478880">
        <ele>878.5</ele>
        <time>2020-10-04T09:03:30Z</time>
      </trkpt>
      <trkpt lat="40.1189120" lon="-4.7478940">
        <ele>878.7</ele>
        <time>2020-10-04T09:03:31Z</time>
      </trkpt>
      <trkpt lat="40.1189390" lon="-4.7479030">
        <ele>879.0</ele>
        <time>2020-10-04T09:03:32Z</time>
      </trkpt>
      <trkpt lat="40.1189470" lon="-4.7479070">
        <ele>879.1</ele>
        <time>2020-10-04T09:03:33Z</time>
      </trkpt>
      <trkpt lat="40.1189950" lon="-4.7479200">
        <ele>879.6</ele>
        <time>2020-10-04T09:03:35Z</time>
      </trkpt>
      <trkpt lat="40.1190120" lon="-4.7479180">
        <ele>879.8</ele>
        <time>2020-10-04T09:03:37Z</time>
      </trkpt>
      <trkpt lat="40.1190290" lon="-4.7479160">
        <ele>880.0</ele>
        <time>2020-10-04T09:03:38Z</time>
      </trkpt>
      <trkpt lat="40.1190670" lon="-4.7479180">
        <ele>880.4</ele>
        <time>2020-10-04T09:03:40Z</time>
      </trkpt>
      <trkpt lat="40.1190810" lon="-4.7479170">
        <ele>880.5</ele>
        <time>2020-10-04T09:03:41Z</time>
      </trkpt>
      <trkpt lat="40.1190980" lon="-4.7479180">
        <ele>880.7</ele>
        <time>2020-10-04T09:03:42Z</time>
      </trkpt>
      <trkpt lat="40.1191160" lon="-4.7479180">
        <ele>880.9</ele>
        <time>2020-10-04T09:03:43Z</time>
      </trkpt>
      <trkpt lat="40.1191340" lon="-4.7479210">
        <ele>881.1</ele>
        <time>2020-10-04T09:03:44Z</time>
      </trkpt>
      <trkpt lat="40.1191660" lon="-4.7479200">
        <ele>881.4</ele>
        <time>2020-10-04T09:03:46Z</time>
      </trkpt>
      <trkpt lat="40.1192030" lon="-4.7479220">
        <ele>881.8</ele>
        <time>2020-10-04T09:03:47Z</time>
      </trkpt>
      <trkpt lat="40.1192130" lon="-4.7479210">
        <ele>881.9</ele>
        <time>2020-10-04T09:03:48Z</time>
      </trkpt>
      <trkpt lat="40.1192350" lon="-4.7479190">
        <ele>882.1</ele>
        <time>2020-10-04T09:03:49Z</time>
      </trkpt>
      <trkpt lat="40.1192750" lon="-4.7479040">
        <ele>882.4</ele>
        <time>2020-10-04T09:03:51Z</time>
      </trkpt>
      <trkpt lat="40.1193120" lon="-4.7478960">
        <ele>882.7</ele>
        <time>2020-10-04T09:03:53Z</time>
      </trkpt>
      <trkpt lat="40.1193440" lon="-4.7478820">
        <ele>883.0</ele>
        <time>2020-10-04T09:03:54Z</time>
      </trkpt>
      <trkpt lat="40.1193820" lon="-4.7478680">
        <ele>883.4</ele>
        <time>2020-10-04T09:03:55Z</time>
      </trkpt>
      <trkpt lat="40.1193960" lon="-4.7478640">
        <ele>883.5</ele>
        <time>2020-10-04T09:03:56Z</time>
      </trkpt>
      <trkpt lat="40.1194280" lon="-4.7478550">
        <ele>883.8</ele>
        <time>2020-10-04T09:03:57Z</time>
      </trkpt>
      <trkpt lat="40.1194520" lon="-4.7478460">
        <ele>884.0</ele>
        <time>2020-10-04T09:03:58Z</time>
      </trkpt>
      <trkpt lat="40.1194860" lon="-4.7478320">
        <ele>884.3</ele>
        <time>2020-10-04T09:04:00Z</time>
      </trkpt>
      <trkpt lat="40.1195130" lon="-4.7478180">
        <ele>884.5</ele>
        <time>2020-10-04T09:04:01Z</time>
      </trkpt>
      <trkpt lat="40.1195430" lon="-4.7477920">
        <ele>884.8</ele>
        <time>2020-10-04T09:04:02Z</time>
      </trkpt>
      <trkpt lat="40.1195510" lon="-4.7477850">
        <ele>884.8</ele>
        <time>2020-10-04T09:04:03Z</time>
      </trkpt>
      <trkpt lat="40.1195690" lon="-4.7477620">
        <ele>885.0</ele>
        <time>2020-10-04T09:04:04Z</time>
      </trkpt>
      <trkpt lat="40.1196090" lon="-4.7477190">
        <ele>885.4</ele>
        <time>2020-10-04T09:04:06Z</time>
      </trkpt>
      <trkpt lat="40.1196500" lon="-4.7476630">
        <ele>885.8</ele>
        <time>2020-10-04T09:04:08Z</time>
      </trkpt>
      <trkpt lat="40.1196790" lon="-4.7476270">
        <ele>886.1</ele>
        <time>2020-10-04T09:04:09Z</time>
      </trkpt>
      <trkpt lat="40.1197070" lon="-4.7475920">
        <ele>886.3</ele>
        <time>2020-10-04T09:04:11Z</time>
      </trkpt>
      <trkpt lat="40.1197340" lon="-4.7475600">
        <ele>886.6</ele>
        <time>2020-10-04T09:04:12Z</time>
      </trkpt>
      <trkpt lat="40.1197610" lon="-4.7475190">
        <ele>886.8</ele>
        <time>2020-10-04T09:04:13Z</time>
      </trkpt>
      <trkpt lat="40.1197710" lon="-4.7475060">
        <ele>886.9</ele>
        <time>2020-10-04T09:04:14Z</time>
      </trkpt>
      <trkpt lat="40.1198030" lon="-4.7474720">
        <ele>887.2</ele>
        <time>2020-10-04T09:04:15Z</time>
      </trkpt>
      <trkpt lat="40.1198410" lon="-4.7474320">
        <ele>887.5</ele>
        <time>2020-10-04T09:04:17Z</time>
      </trkpt>
      <trkpt lat="40.1198530" lon="-4.7474200">
        <ele>887.5</ele>
        <time>2020-10-04T09:04:18Z</time>
      </trkpt>
      <trkpt lat="40.1198640" lon="-4.7474070">
        <ele>887.6</ele>
        <time>2020-10-04T09:04:19Z</time>
      </trkpt>
      <trkpt lat="40.1198860" lon="-4.7473850">
        <ele>887.8</ele>
        <time>2020-10-04T09:04:21Z</time>
      </trkpt>
      <trkpt lat="40.1199130" lon="-4.7473510">
        <ele>888.0</ele>
        <time>2020-10-04T09:04:22Z</time>
      </trkpt>
      <trkpt lat="40.1199320" lon="-4.7473250">
        <ele>888.1</ele>
        <time>2020-10-04T09:04:23Z</time>
      </trkpt>
      <trkpt lat="40.1199560" lon="-4.7472960">
        <ele>888.3</ele>
        <time>2020-10-04T09:04:24Z</time>
      </trkpt>
      <trkpt lat="40.1199800" lon="-4.7472680">
        <ele>888.5</ele>
        <time>2020-10-04T09:04:25Z</time>
      </trkpt>
      <trkpt lat="40.1200060" lon="-4.7472380">
        <ele>888.7</ele>
        <time>2020-10-04T09:04:27Z</time>
      </trkpt>
      <trkpt lat="40.1200300" lon="-4.7472090">
        <ele>888.9</ele>
        <time>2020-10-04T09:04:28Z</time>
      </trkpt>
      <trkpt lat="40.1200570" lon="-4.7471730">
        <ele>889.1</ele>
        <time>2020-10-04T09:04:29Z</time>
      </trkpt>
      <trkpt lat="40.1200760" lon="-4.7471460">
        <ele>889.3</ele>
        <time>2020-10-04T09:04:31Z</time>
      </trkpt>
      <trkpt lat="40.1200970" lon="-4.7471150">
        <ele>889.5</ele>
        <time>2020-10-04T09:04:32Z</time>
      </trkpt>
      <trkpt lat="40.1201220" lon="-4.7470810">
        <ele>889.7</ele>
        <time>2020-10-04T09:04:33Z</time>
      </trkpt>
      <trkpt lat="40.1201420" lon="-4.7470530">
        <ele>889.9</ele>
        <time>2020-10-04T09:04:34Z</time>
      </trkpt>
      <trkpt lat="40.1201570" lon="-4.7470330">
        <ele>890.1</ele>
        <time>2020-10-04T09:04:35Z</time>
      </trkpt>
      <trkpt lat="40.1201890" lon="-4.7469980">
        <ele>890.4</ele>
        <time>2020-10-04T09:04:37Z</time>
      </trkpt>
      <trkpt lat="40.1202130" lon="-4.7469680">
        <ele>890.6</ele>
        <time>2020-10-04T09:04:39Z</time>
      </trkpt>
      <trkpt lat="40.1202360" lon="-4.7469380">
        <ele>890.8</ele>
        <time>2020-10-04T09:04:40Z</time>
      </trkpt>
      <trkpt lat="40.1202660" lon="-4.7469060">
        <ele>891.1</ele>
        <time>2020-10-04T09:04:42Z</time>
      </trkpt>
      <trkpt lat="40.1202910" lon="-4.7468570">
        <ele>891.5</ele>
        <time>2020-10-04T09:04:44Z</time>
      </trkpt>
      <trkpt lat="40.1203030" lon="-4.7468260">
        <ele>891.8</ele>
        <time>2020-10-04T09:04:45Z</time>
      </trkpt>
      <trkpt lat="40.1203210" lon="-4.7467870">
        <ele>892.1</ele>
        <time>2020-10-04T09:04:47Z</time>
      </trkpt>
      <trkpt lat="40.1203440" lon="-4.7467480">
        <ele>892.6</ele>
        <time>2020-10-04T09:04:48Z</time>
      </trkpt>
      <trkpt lat="40.1203500" lon="-4.7467350">
        <ele>892.7</ele>
        <time>2020-10-04T09:04:49Z</time>
      </trkpt>
      <trkpt lat="40.1203730" lon="-4.7467030">
        <ele>893.2</ele>
        <time>2020-10-04T09:04:51Z</time>
      </trkpt>
      <trkpt lat="40.1203950" lon="-4.7466780">
        <ele>893.6</ele>
        <time>2020-10-04T09:04:52Z</time>
      </trkpt>
      <trkpt lat="40.1204140" lon="-4.7466540">
        <ele>894.0</ele>
        <time>2020-10-04T09:04:53Z</time>
      </trkpt>
      <trkpt lat="40.1204300" lon="-4.7466330">
        <ele>894.4</ele>
        <time>2020-10-04T09:04:55Z</time>
      </trkpt>
      <trkpt lat="40.1204570" lon="-4.7466080">
        <ele>894.9</ele>
        <time>2020-10-04T09:04:56Z</time>
      </trkpt>
      <trkpt lat="40.1204870" lon="-4.7465890">
        <ele>895.5</ele>
        <time>2020-10-04T09:04:58Z</time>
      </trkpt>
      <trkpt lat="40.1205120" lon="-4.7465740">
        <ele>895.9</ele>
        <time>2020-10-04T09:04:59Z</time>
      </trkpt>
      <trkpt lat="40.1205430" lon="-4.7465570">
        <ele>896.5</ele>
        <time>2020-10-04T09:05:01Z</time>
      </trkpt>
      <trkpt lat="40.1205640" lon="-4.7465390">
        <ele>896.9</ele>
        <time>2020-10-04T09:05:02Z</time>
      </trkpt>
      <trkpt lat="40.1205920" lon="-4.7465170">
        <ele>897.4</ele>
        <time>2020-10-04T09:05:04Z</time>
      </trkpt>
      <trkpt lat="40.1206120" lon="-4.7465000">
        <ele>897.8</ele>
        <time>2020-10-04T09:05:05Z</time>
      </trkpt>
      <trkpt lat="40.1206390" lon="-4.7464810">
        <ele>898.3</ele>
        <time>2020-10-04T09:05:07Z</time>
      </trkpt>
      <trkpt lat="40.1206660" lon="-4.7464610">
        <ele>898.7</ele>
        <time>2020-10-04T09:05:08Z</time>
      </trkpt>
      <trkpt lat="40.1206730" lon="-4.7464560">
        <ele>898.8</ele>
        <time>2020-10-04T09:05:09Z</time>
      </trkpt>
      <trkpt lat="40.1206980" lon="-4.7464360">
        <ele>899.2</ele>
        <time>2020-10-04T09:05:11Z</time>
      </trkpt>
      <trkpt lat="40.1207200" lon="-4.7464150">
        <ele>899.6</ele>
        <time>2020-10-04T09:05:12Z</time>
      </trkpt>
      <trkpt lat="40.1207390" lon="-4.7463970">
        <ele>899.9</ele>
        <time>2020-10-04T09:05:13Z</time>
      </trkpt>
      <trkpt lat="40.1207660" lon="-4.7463720">
        <ele>900.3</ele>
        <time>2020-10-04T09:05:15Z</time>
      </trkpt>
      <trkpt lat="40.1207900" lon="-4.7463500">
        <ele>900.6</ele>
        <time>2020-10-04T09:05:16Z</time>
      </trkpt>
      <trkpt lat="40.1208180" lon="-4.7463320">
        <ele>901.0</ele>
        <time>2020-10-04T09:05:17Z</time>
      </trkpt>
      <trkpt lat="40.1208270" lon="-4.7463280">
        <ele>901.1</ele>
        <time>2020-10-04T09:05:18Z</time>
      </trkpt>
      <trkpt lat="40.1208610" lon="-4.7463220">
        <ele>901.4</ele>
        <time>2020-10-04T09:05:20Z</time>
      </trkpt>
      <trkpt lat="40.1208750" lon="-4.7463220">
        <ele>901.6</ele>
        <time>2020-10-04T09:05:21Z</time>
      </trkpt>
      <trkpt lat="40.1209090" lon="-4.7463230">
        <ele>901.9</ele>
        <time>2020-10-04T09:05:23Z</time>
      </trkpt>
      <trkpt lat="40.1209170" lon="-4.7463240">
        <ele>902.0</ele>
        <time>2020-10-04T09:05:24Z</time>
      </trkpt>
      <trkpt lat="40.1209300" lon="-4.7463240">
        <ele>902.1</ele>
        <time>2020-10-04T09:05:25Z</time>
      </trkpt>
      <trkpt lat="40.1209470" lon="-4.7463290">
        <ele>902.3</ele>
        <time>2020-10-04T09:05:26Z</time>
      </trkpt>
      <trkpt lat="40.1209740" lon="-4.7463440">
        <ele>902.5</ele>
        <time>2020-10-04T09:05:28Z</time>
      </trkpt>
      <trkpt lat="40.1209830" lon="-4.7463480">
        <ele>902.6</ele>
        <time>2020-10-04T09:05:29Z</time>
      </trkpt>
      <trkpt lat="40.1210180" lon="-4.7463610">
        <ele>903.0</ele>
        <time>2020-10-04T09:05:31Z</time>
      </trkpt>
      <trkpt lat="40.1210280" lon="-4.7463660">
        <ele>903.1</ele>
        <time>2020-10-04T09:05:32Z</time>
      </trkpt>
      <trkpt lat="40.1210450" lon="-4.7463710">
        <ele>903.2</ele>
        <time>2020-10-04T09:05:33Z</time>
      </trkpt>
      <trkpt lat="40.1210620" lon="-4.7463750">
        <ele>903.3</ele>
        <time>2020-10-04T09:05:34Z</time>
      </trkpt>
      <trkpt lat="40.1211110" lon="-4.7463840">
        <ele>903.7</ele>
        <time>2020-10-04T09:05:36Z</time>
      </trkpt>
      <trkpt lat="40.1211250" lon="-4.7463880">
        <ele>903.8</ele>
        <time>2020-10-04T09:05:37Z</time>
      </trkpt>
      <trkpt lat="40.1211400" lon="-4.7463930">
        <ele>903.9</ele>
        <time>2020-10-04T09:05:38Z</time>
      </trkpt>
      <trkpt lat="40.1211780" lon="-4.7464110">
        <ele>904.2</ele>
        <time>2020-10-04T09:05:40Z</time>
      </trkpt>
      <trkpt lat="40.1212060" lon="-4.7464170">
        <ele>904.4</ele>
        <time>2020-10-04T09:05:41Z</time>
      </trkpt>
      <trkpt lat="40.1212290" lon="-4.7464210">
        <ele>904.5</ele>
        <time>2020-10-04T09:05:42Z</time>
      </trkpt>
      <trkpt lat="40.1212700" lon="-4.7464260">
        <ele>904.8</ele>
        <time>2020-10-04T09:05:44Z</time>
      </trkpt>
      <trkpt lat="40.1213040" lon="-4.7464360">
        <ele>905.0</ele>
        <time>2020-10-04T09:05:45Z</time>
      </trkpt>
      <trkpt lat="40.1213400" lon="-4.7464420">
        <ele>905.1</ele>
        <time>2020-10-04T09:05:46Z</time>
      </trkpt>
      <trkpt lat="40.1213500" lon="-4.7464440">
        <ele>905.2</ele>
        <time>2020-10-04T09:05:47Z</time>
      </trkpt>
      <trkpt lat="40.1213730" lon="-4.7464420">
        <ele>905.3</ele>
        <time>2020-10-04T09:05:48Z</time>
      </trkpt>
      <trkpt lat="40.1214180" lon="-4.7464360">
        <ele>905.6</ele>
        <time>2020-10-04T09:05:50Z</time>
      </trkpt>
      <trkpt lat="40.1214480" lon="-4.7464330">
        <ele>905.7</ele>
        <time>2020-10-04T09:05:51Z</time>
      </trkpt>
      <trkpt lat="40.1215020" lon="-4.7464220">
        <ele>906.0</ele>
        <time>2020-10-04T09:05:53Z</time>
      </trkpt>
      <trkpt lat="40.1215270" lon="-4.7464160">
        <ele>906.1</ele>
        <time>2020-10-04T09:05:54Z</time>
      </trkpt>
      <trkpt lat="40.1215750" lon="-4.7463900">
        <ele>906.4</ele>
        <time>2020-10-04T09:05:56Z</time>
      </trkpt>
      <trkpt lat="40.1216080" lon="-4.7463740">
        <ele>906.6</ele>
        <time>2020-10-04T09:05:57Z</time>
      </trkpt>
      <trkpt lat="40.1216390" lon="-4.7463630">
        <ele>906.8</ele>
        <time>2020-10-04T09:05:58Z</time>
      </trkpt>
      <trkpt lat="40.1216650" lon="-4.7463480">
        <ele>907.0</ele>
        <time>2020-10-04T09:05:59Z</time>
      </trkpt>
      <trkpt lat="40.1217080" lon="-4.7463300">
        <ele>907.3</ele>
        <time>2020-10-04T09:06:01Z</time>
      </trkpt>
      <trkpt lat="40.1217210" lon="-4.7463250">
        <ele>907.4</ele>
        <time>2020-10-04T09:06:02Z</time>
      </trkpt>
      <trkpt lat="40.1217350" lon="-4.7463200">
        <ele>907.5</ele>
        <time>2020-10-04T09:06:03Z</time>
      </trkpt>
      <trkpt lat="40.1217720" lon="-4.7463190">
        <ele>907.8</ele>
        <time>2020-10-04T09:06:04Z</time>
      </trkpt>
      <trkpt lat="40.1217820" lon="-4.7463180">
        <ele>907.8</ele>
        <time>2020-10-04T09:06:05Z</time>
      </trkpt>
      <trkpt lat="40.1218230" lon="-4.7463210">
        <ele>908.1</ele>
        <time>2020-10-04T09:06:07Z</time>
      </trkpt>
      <trkpt lat="40.1218620" lon="-4.7463370">
        <ele>908.4</ele>
        <time>2020-10-04T09:06:08Z</time>
      </trkpt>
      <trkpt lat="40.1218750" lon="-4.7463450">
        <ele>908.5</ele>
        <time>2020-10-04T09:06:09Z</time>
      </trkpt>
      <trkpt lat="40.1219060" lon="-4.7463590">
        <ele>908.7</ele>
        <time>2020-10-04T09:06:10Z</time>
      </trkpt>
      <trkpt lat="40.1219360" lon="-4.7463740">
        <ele>908.9</ele>
        <time>2020-10-04T09:06:12Z</time>
      </trkpt>
      <trkpt lat="40.1219780" lon="-4.7463990">
        <ele>909.2</ele>
        <time>2020-10-04T09:06:13Z</time>
      </trkpt>
      <trkpt lat="40.1220180" lon="-4.7464230">
        <ele>909.4</ele>
        <time>2020-10-04T09:06:14Z</time>
      </trkpt>
      <trkpt lat="40.1220550" lon="-4.7464490">
        <ele>909.7</ele>
        <time>2020-10-04T09:06:16Z</time>
      </trkpt>
      <trkpt lat="40.1221050" lon="-4.7464800">
        <ele>910.0</ele>
        <time>2020-10-04T09:06:18Z</time>
      </trkpt>
      <trkpt lat="40.1221350" lon="-4.7465030">
        <ele>910.2</ele>
        <time>2020-10-04T09:06:19Z</time>
      </trkpt>
      <trkpt lat="40.1221640" lon="-4.7465340">
        <ele>910.4</ele>
        <time>2020-10-04T09:06:21Z</time>
      </trkpt>
      <trkpt lat="40.1221870" lon="-4.7465610">
        <ele>910.5</ele>
        <time>2020-10-04T09:06:22Z</time>
      </trkpt>
      <trkpt lat="40.1222160" lon="-4.7465930">
        <ele>910.7</ele>
        <time>2020-10-04T09:06:23Z</time>
      </trkpt>
      <trkpt lat="40.1222520" lon="-4.7466270">
        <ele>910.8</ele>
        <time>2020-10-04T09:06:25Z</time>
      </trkpt>
      <trkpt lat="40.1222810" lon="-4.7466620">
        <ele>910.9</ele>
        <time>2020-10-04T09:06:26Z</time>
      </trkpt>
      <trkpt lat="40.1223110" lon="-4.7467010">
        <ele>911.0</ele>
        <time>2020-10-04T09:06:28Z</time>
      </trkpt>
      <trkpt lat="40.1223420" lon="-4.7467460">
        <ele>911.1</ele>
        <time>2020-10-04T09:06:29Z</time>
      </trkpt>
      <trkpt lat="40.1223790" lon="-4.7467910">
        <ele>911.2</ele>
        <time>2020-10-04T09:06:31Z</time>
      </trkpt>
      <trkpt lat="40.1224040" lon="-4.7468210">
        <ele>911.3</ele>
        <time>2020-10-04T09:06:32Z</time>
      </trkpt>
      <trkpt lat="40.1224530" lon="-4.7468680">
        <ele>911.5</ele>
        <time>2020-10-04T09:06:34Z</time>
      </trkpt>
      <trkpt lat="40.1224850" lon="-4.7468900">
        <ele>911.5</ele>
        <time>2020-10-04T09:06:36Z</time>
      </trkpt>
      <trkpt lat="40.1225200" lon="-4.7469150">
        <ele>911.6</ele>
        <time>2020-10-04T09:06:37Z</time>
      </trkpt>
      <trkpt lat="40.1225570" lon="-4.7469280">
        <ele>911.8</ele>
        <time>2020-10-04T09:06:38Z</time>
      </trkpt>
      <trkpt lat="40.1225700" lon="-4.7469320">
        <ele>911.8</ele>
        <time>2020-10-04T09:06:39Z</time>
      </trkpt>
      <trkpt lat="40.1225970" lon="-4.7469350">
        <ele>911.9</ele>
        <time>2020-10-04T09:06:40Z</time>
      </trkpt>
      <trkpt lat="40.1226420" lon="-4.7469230">
        <ele>912.2</ele>
        <time>2020-10-04T09:06:42Z</time>
      </trkpt>
      <trkpt lat="40.1226560" lon="-4.7469140">
        <ele>912.2</ele>
        <time>2020-10-04T09:06:43Z</time>
      </trkpt>
      <trkpt lat="40.1226690" lon="-4.7469060">
        <ele>912.3</ele>
        <time>2020-10-04T09:06:44Z</time>
      </trkpt>
      <trkpt lat="40.1227000" lon="-4.7468930">
        <ele>912.5</ele>
        <time>2020-10-04T09:06:45Z</time>
      </trkpt>
      <trkpt lat="40.1227100" lon="-4.7468890">
        <ele>912.6</ele>
        <time>2020-10-04T09:06:46Z</time>
      </trkpt>
      <trkpt lat="40.1227290" lon="-4.7468820">
        <ele>912.8</ele>
        <time>2020-10-04T09:06:47Z</time>
      </trkpt>
      <trkpt lat="40.1227610" lon="-4.7468690">
        <ele>913.0</ele>
        <time>2020-10-04T09:06:49Z</time>
      </trkpt>
      <trkpt lat="40.1227940" lon="-4.7468550">
        <ele>913.4</ele>
        <time>2020-10-04T09:06:50Z</time>
      </trkpt>
      <trkpt lat="40.1228040" lon="-4.7468510">
        <ele>913.5</ele>
        <time>2020-10-04T09:06:51Z</time>
      </trkpt>
      <trkpt lat="40.1228300" lon="-4.7468370">
        <ele>913.7</ele>
        <time>2020-10-04T09:06:52Z</time>
      </trkpt>
      <trkpt lat="40.1228370" lon="-4.7468310">
        <ele>913.8</ele>
        <time>2020-10-04T09:06:53Z</time>
      </trkpt>
      <trkpt lat="40.1228760" lon="-4.7468060">
        <ele>914.3</ele>
        <time>2020-10-04T09:06:55Z</time>
      </trkpt>
      <trkpt lat="40.1228880" lon="-4.7467980">
        <ele>914.4</ele>
        <time>2020-10-04T09:06:56Z</time>
      </trkpt>
      <trkpt lat="40.1229010" lon="-4.7467910">
        <ele>914.6</ele>
        <time>2020-10-04T09:06:57Z</time>
      </trkpt>
      <trkpt lat="40.1229270" lon="-4.7467730">
        <ele>914.9</ele>
        <time>2020-10-04T09:06:58Z</time>
      </trkpt>
      <trkpt lat="40.1229680" lon="-4.7467520">
        <ele>915.4</ele>
        <time>2020-10-04T09:07:00Z</time>
      </trkpt>
      <trkpt lat="40.1229800" lon="-4.7467450">
        <ele>915.5</ele>
        <time>2020-10-04T09:07:01Z</time>
      </trkpt>
      <trkpt lat="40.1229930" lon="-4.7467380">
        <ele>915.6</ele>
        <time>2020-10-04T09:07:02Z</time>
      </trkpt>
      <trkpt lat="40.1230220" lon="-4.7467150">
        <ele>916.0</ele>
        <time>2020-10-04T09:07:04Z</time>
      </trkpt>
      <trkpt lat="40.1230310" lon="-4.7467050">
        <ele>916.1</ele>
        <time>2020-10-04T09:07:05Z</time>
      </trkpt>
      <trkpt lat="40.1230540" lon="-4.7466770">
        <ele>916.3</ele>
        <time>2020-10-04T09:07:06Z</time>
      </trkpt>
      <trkpt lat="40.1230620" lon="-4.7466650">
        <ele>916.4</ele>
        <time>2020-10-04T09:07:07Z</time>
      </trkpt>
      <trkpt lat="40.1230880" lon="-4.7466290">
        <ele>916.9</ele>
        <time>2020-10-04T09:07:09Z</time>
      </trkpt>
      <trkpt lat="40.1231060" lon="-4.7466010">
        <ele>917.3</ele>
        <time>2020-10-04T09:07:10Z</time>
      </trkpt>
      <trkpt lat="40.1231270" lon="-4.7465600">
        <ele>917.8</ele>
        <time>2020-10-04T09:07:11Z</time>
      </trkpt>
      <trkpt lat="40.1231460" lon="-4.7465290">
        <ele>918.3</ele>
        <time>2020-10-04T09:07:12Z</time>
      </trkpt>
      <trkpt lat="40.1231670" lon="-4.7464950">
        <ele>918.8</ele>
        <time>2020-10-04T09:07:13Z</time>
      </trkpt>
      <trkpt lat="40.1231950" lon="-4.7464650">
        <ele>919.4</ele>
        <time>2020-10-04T09:07:15Z</time>
      </trkpt>
      <trkpt lat="40.1232210" lon="-4.7464210">
        <ele>920.2</ele>
        <time>2020-10-04T09:07:17Z</time>
      </trkpt>
      <trkpt lat="40.1232350" lon="-4.7464000">
        <ele>920.6</ele>
        <time>2020-10-04T09:07:18Z</time>
      </trkpt>
      <trkpt lat="40.1232560" lon="-4.7463700">
        <ele>921.1</ele>
        <time>2020-10-04T09:07:20Z</time>
      </trkpt>
      <trkpt lat="40.1232700" lon="-4.7463410">
        <ele>921.6</ele>
        <time>2020-10-04T09:07:21Z</time>
      </trkpt>
      <trkpt lat="40.1233020" lon="-4.7462920">
        <ele>922.5</ele>
        <time>2020-10-04T09:07:23Z</time>
      </trkpt>
      <trkpt lat="40.1233200" lon="-4.7462760">
        <ele>922.9</ele>
        <time>2020-10-04T09:07:25Z</time>
      </trkpt>
      <trkpt lat="40.1233510" lon="-4.7462470">
        <ele>923.6</ele>
        <time>2020-10-04T09:07:27Z</time>
      </trkpt>
      <trkpt lat="40.1233800" lon="-4.7462380">
        <ele>924.1</ele>
        <time>2020-10-04T09:07:28Z</time>
      </trkpt>
      <trkpt lat="40.1234220" lon="-4.7462240">
        <ele>924.9</ele>
        <time>2020-10-04T09:07:30Z</time>
      </trkpt>
      <trkpt lat="40.1234590" lon="-4.7462270">
        <ele>925.5</ele>
        <time>2020-10-04T09:07:31Z</time>
      </trkpt>
      <trkpt lat="40.1234710" lon="-4.7462300">
        <ele>925.7</ele>
        <time>2020-10-04T09:07:32Z</time>
      </trkpt>
      <trkpt lat="40.1234960" lon="-4.7462390">
        <ele>926.2</ele>
        <time>2020-10-04T09:07:33Z</time>
      </trkpt>
      <trkpt lat="40.1235240" lon="-4.7462470">
        <ele>926.6</ele>
        <time>2020-10-04T09:07:35Z</time>
      </trkpt>
      <trkpt lat="40.1235510" lon="-4.7462500">
        <ele>927.0</ele>
        <time>2020-10-04T09:07:36Z</time>
      </trkpt>
      <trkpt lat="40.1235830" lon="-4.7462620">
        <ele>927.5</ele>
        <time>2020-10-04T09:07:37Z</time>
      </trkpt>
      <trkpt lat="40.1235920" lon="-4.7462670">
        <ele>927.6</ele>
        <time>2020-10-04T09:07:38Z</time>
      </trkpt>
      <trkpt lat="40.1236240" lon="-4.7462770">
        <ele>928.0</ele>
        <time>2020-10-04T09:07:39Z</time>
      </trkpt>
      <trkpt lat="40.1236690" lon="-4.7462760">
        <ele>928.6</ele>
        <time>2020-10-04T09:07:41Z</time>
      </trkpt>
      <trkpt lat="40.1236860" lon="-4.7462720">
        <ele>928.8</ele>
        <time>2020-10-04T09:07:42Z</time>
      </trkpt>
      <trkpt lat="40.1237030" lon="-4.7462690">
        <ele>929.0</ele>
        <time>2020-10-04T09:07:43Z</time>
      </trkpt>
      <trkpt lat="40.1237420" lon="-4.7462590">
        <ele>929.5</ele>
        <time>2020-10-04T09:07:45Z</time>
      </trkpt>
      <trkpt lat="40.1237540" lon="-4.7462550">
        <ele>929.6</ele>
        <time>2020-10-04T09:07:46Z</time>
      </trkpt>
      <trkpt lat="40.1237850" lon="-4.7462420">
        <ele>930.0</ele>
        <time>2020-10-04T09:07:47Z</time>
      </trkpt>
      <trkpt lat="40.1237940" lon="-4.7462380">
        <ele>930.1</ele>
        <time>2020-10-04T09:07:48Z</time>
      </trkpt>
      <trkpt lat="40.1238130" lon="-4.7462310">
        <ele>930.4</ele>
        <time>2020-10-04T09:07:49Z</time>
      </trkpt>
      <trkpt lat="40.1238380" lon="-4.7462220">
        <ele>930.7</ele>
        <time>2020-10-04T09:07:51Z</time>
      </trkpt>
      <trkpt lat="40.1238570" lon="-4.7462090">
        <ele>931.0</ele>
        <time>2020-10-04T09:07:52Z</time>
      </trkpt>
      <trkpt lat="40.1238880" lon="-4.7461910">
        <ele>931.4</ele>
        <time>2020-10-04T09:07:54Z</time>
      </trkpt>
      <trkpt lat="40.1239090" lon="-4.7461790">
        <ele>931.7</ele>
        <time>2020-10-04T09:07:55Z</time>
      </trkpt>
      <trkpt lat="40.1239400" lon="-4.7461580">
        <ele>932.1</ele>
        <time>2020-10-04T09:07:57Z</time>
      </trkpt>
      <trkpt lat="40.1239680" lon="-4.7461410">
        <ele>932.5</ele>
        <time>2020-10-04T09:07:58Z</time>
      </trkpt>
      <trkpt lat="40.1239990" lon="-4.7461170">
        <ele>933.0</ele>
        <time>2020-10-04T09:07:59Z</time>
      </trkpt>
      <trkpt lat="40.1240100" lon="-4.7461080">
        <ele>933.2</ele>
        <time>2020-10-04T09:08:00Z</time>
      </trkpt>
      <trkpt lat="40.1240490" lon="-4.7460800">
        <ele>933.8</ele>
        <time>2020-10-04T09:08:02Z</time>
      </trkpt>
      <trkpt lat="40.1240600" lon="-4.7460720">
        <ele>933.9</ele>
        <time>2020-10-04T09:08:03Z</time>
      </trkpt>
      <trkpt lat="40.1240710" lon="-4.7460640">
        <ele>934.1</ele>
        <time>2020-10-04T09:08:04Z</time>
      </trkpt>
      <trkpt lat="40.1241040" lon="-4.7460420">
        <ele>934.6</ele>
        <time>2020-10-04T09:08:06Z</time>
      </trkpt>
      <trkpt lat="40.1241260" lon="-4.7460210">
        <ele>935.0</ele>
        <time>2020-10-04T09:08:08Z</time>
      </trkpt>
      <trkpt lat="40.1241410" lon="-4.7460100">
        <ele>935.2</ele>
        <time>2020-10-04T09:08:09Z</time>
      </trkpt>
      <trkpt lat="40.1241510" lon="-4.7460000">
        <ele>935.4</ele>
        <time>2020-10-04T09:08:10Z</time>
      </trkpt>
      <trkpt lat="40.1241660" lon="-4.7459900">
        <ele>935.7</ele>
        <time>2020-10-04T09:08:11Z</time>
      </trkpt>
      <trkpt lat="40.1241820" lon="-4.7459810">
        <ele>935.9</ele>
        <time>2020-10-04T09:08:12Z</time>
      </trkpt>
      <trkpt lat="40.1242170" lon="-4.7459590">
        <ele>936.5</ele>
        <time>2020-10-04T09:08:14Z</time>
      </trkpt>
      <trkpt lat="40.1242280" lon="-4.7459530">
        <ele>936.7</ele>
        <time>2020-10-04T09:08:15Z</time>
      </trkpt>
      <trkpt lat="40.1242600" lon="-4.7459460">
        <ele>937.2</ele>
        <time>2020-10-04T09:08:16Z</time>
      </trkpt>
      <trkpt lat="40.1242700" lon="-4.7459450">
        <ele>937.4</ele>
        <time>2020-10-04T09:08:17Z</time>
      </trkpt>
      <trkpt lat="40.1243050" lon="-4.7459280">
        <ele>938.0</ele>
        <time>2020-10-04T09:08:19Z</time>
      </trkpt>
      <trkpt lat="40.1243330" lon="-4.7459150">
        <ele>938.5</ele>
        <time>2020-10-04T09:08:20Z</time>
      </trkpt>
      <trkpt lat="40.1243650" lon="-4.7459090">
        <ele>939.0</ele>
        <time>2020-10-04T09:08:21Z</time>
      </trkpt>
      <trkpt lat="40.1243730" lon="-4.7459050">
        <ele>939.2</ele>
        <time>2020-10-04T09:08:22Z</time>
      </trkpt>
      <trkpt lat="40.1244020" lon="-4.7458960">
        <ele>939.7</ele>
        <time>2020-10-04T09:08:23Z</time>
      </trkpt>
      <trkpt lat="40.1244120" lon="-4.7458930">
        <ele>939.9</ele>
        <time>2020-10-04T09:08:24Z</time>
      </trkpt>
      <trkpt lat="40.1244450" lon="-4.7458880">
        <ele>940.5</ele>
        <time>2020-10-04T09:08:26Z</time>
      </trkpt>
      <trkpt lat="40.1244820" lon="-4.7458770">
        <ele>941.1</ele>
        <time>2020-10-04T09:08:28Z</time>
      </trkpt>
      <trkpt lat="40.1245020" lon="-4.7458700">
        <ele>941.5</ele>
        <time>2020-10-04T09:08:29Z</time>
      </trkpt>
      <trkpt lat="40.1245340" lon="-4.7458620">
        <ele>942.2</ele>
        <time>2020-10-04T09:08:31Z</time>
      </trkpt>
      <trkpt lat="40.1245650" lon="-4.7458550">
        <ele>942.8</ele>
        <time>2020-10-04T09:08:32Z</time>
      </trkpt>
      <trkpt lat="40.1245750" lon="-4.7458520">
        <ele>943.0</ele>
        <time>2020-10-04T09:08:33Z</time>
      </trkpt>
      <trkpt lat="40.1245910" lon="-4.7458440">
        <ele>943.3</ele>
        <time>2020-10-04T09:08:34Z</time>
      </trkpt>
      <trkpt lat="40.1246250" lon="-4.7458240">
        <ele>944.0</ele>
        <time>2020-10-04T09:08:36Z</time>
      </trkpt>
      <trkpt lat="40.1246550" lon="-4.7458060">
        <ele>944.7</ele>
        <time>2020-10-04T09:08:38Z</time>
      </trkpt>
      <trkpt lat="40.1246630" lon="-4.7458000">
        <ele>944.9</ele>
        <time>2020-10-04T09:08:39Z</time>
      </trkpt>
      <trkpt lat="40.1246920" lon="-4.7457860">
        <ele>945.5</ele>
        <time>2020-10-04T09:08:40Z</time>
      </trkpt>
      <trkpt lat="40.1247030" lon="-4.7457810">
        <ele>945.7</ele>
        <time>2020-10-04T09:08:41Z</time>
      </trkpt>
      <trkpt lat="40.1247150" lon="-4.7457800">
        <ele>945.9</ele>
        <time>2020-10-04T09:08:42Z</time>
      </trkpt>
      <trkpt lat="40.1247430" lon="-4.7457700">
        <ele>946.5</ele>
        <time>2020-10-04T09:08:44Z</time>
      </trkpt>
      <trkpt lat="40.1247570" lon="-4.7457620">
        <ele>946.8</ele>
        <time>2020-10-04T09:08:45Z</time>
      </trkpt>
      <trkpt lat="40.1247730" lon="-4.7457540">
        <ele>947.1</ele>
        <time>2020-10-04T09:08:47Z</time>
      </trkpt>
      <trkpt lat="40.1247910" lon="-4.7457460">
        <ele>947.5</ele>
        <time>2020-10-04T09:08:48Z</time>
      </trkpt>
      <trkpt lat="40.1248070" lon="-4.7457400">
        <ele>947.8</ele>
        <time>2020-10-04T09:08:50Z</time>
      </trkpt>
      <trkpt lat="40.1248220" lon="-4.7457360">
        <ele>948.1</ele>
        <time>2020-10-04T09:08:51Z</time>
      </trkpt>
      <trkpt lat="40.1248370" lon="-4.7457290">
        <ele>948.4</ele>
        <time>2020-10-04T09:08:52Z</time>
      </trkpt>
      <trkpt lat="40.1248600" lon="-4.7457210">
        <ele>948.9</ele>
        <time>2020-10-04T09:08:54Z</time>
      </trkpt>
      <trkpt lat="40.1248920" lon="-4.7457100">
        <ele>949.5</ele>
        <time>2020-10-04T09:08:56Z</time>
      </trkpt>
      <trkpt lat="40.1249070" lon="-4.7457050">
        <ele>949.8</ele>
        <time>2020-10-04T09:08:57Z</time>
      </trkpt>
      <trkpt lat="40.1249240" lon="-4.7456980">
        <ele>950.1</ele>
        <time>2020-10-04T09:08:58Z</time>
      </trkpt>
      <trkpt lat="40.1249390" lon="-4.7456910">
        <ele>950.4</ele>
        <time>2020-10-04T09:08:59Z</time>
      </trkpt>
      <trkpt lat="40.1249660" lon="-4.7456780">
        <ele>951.0</ele>
        <time>2020-10-04T09:09:01Z</time>
      </trkpt>
      <trkpt lat="40.1250030" lon="-4.7456550">
        <ele>951.7</ele>
        <time>2020-10-04T09:09:03Z</time>
      </trkpt>
      <trkpt lat="40.1250150" lon="-4.7456480">
        <ele>952.0</ele>
        <time>2020-10-04T09:09:04Z</time>
      </trkpt>
      <trkpt lat="40.1250270" lon="-4.7456400">
        <ele>952.2</ele>
        <time>2020-10-04T09:09:05Z</time>
      </trkpt>
      <trkpt lat="40.1250570" lon="-4.7456220">
        <ele>952.8</ele>
        <time>2020-10-04T09:09:07Z</time>
      </trkpt>
      <trkpt lat="40.1250650" lon="-4.7456150">
        <ele>953.0</ele>
        <time>2020-10-04T09:09:08Z</time>
      </trkpt>
      <trkpt lat="40.1250790" lon="-4.7456030">
        <ele>953.3</ele>
        <time>2020-10-04T09:09:09Z</time>
      </trkpt>
      <trkpt lat="40.1250940" lon="-4.7455900">
        <ele>953.6</ele>
        <time>2020-10-04T09:09:10Z</time>
      </trkpt>
      <trkpt lat="40.1251300" lon="-4.7455590">
        <ele>954.4</ele>
        <time>2020-10-04T09:09:12Z</time>
      </trkpt>
      <trkpt lat="40.1251430" lon="-4.7455480">
        <ele>954.6</ele>
        <time>2020-10-04T09:09:13Z</time>
      </trkpt>
      <trkpt lat="40.1251550" lon="-4.7455380">
        <ele>954.9</ele>
        <time>2020-10-04T09:09:14Z</time>
      </trkpt>
      <trkpt lat="40.1251910" lon="-4.7454950">
        <ele>955.7</ele>
        <time>2020-10-04T09:09:16Z</time>
      </trkpt>
      <trkpt lat="40.1252030" lon="-4.7454770">
        <ele>956.0</ele>
        <time>2020-10-04T09:09:17Z</time>
      </trkpt>
      <trkpt lat="40.1252140" lon="-4.7454580">
        <ele>956.3</ele>
        <time>2020-10-04T09:09:18Z</time>
      </trkpt>
      <trkpt lat="40.1252370" lon="-4.7454200">
        <ele>956.9</ele>
        <time>2020-10-04T09:09:20Z</time>
      </trkpt>
      <trkpt lat="40.1252440" lon="-4.7454080">
        <ele>957.1</ele>
        <time>2020-10-04T09:09:21Z</time>
      </trkpt>
      <trkpt lat="40.1252590" lon="-4.7453860">
        <ele>957.4</ele>
        <time>2020-10-04T09:09:22Z</time>
      </trkpt>
      <trkpt lat="40.1252740" lon="-4.7453610">
        <ele>957.8</ele>
        <time>2020-10-04T09:09:24Z</time>
      </trkpt>
      <trkpt lat="40.1252870" lon="-4.7453390">
        <ele>958.2</ele>
        <time>2020-10-04T09:09:25Z</time>
      </trkpt>
      <trkpt lat="40.1253000" lon="-4.7453150">
        <ele>958.5</ele>
        <time>2020-10-04T09:09:27Z</time>
      </trkpt>
      <trkpt lat="40.1253100" lon="-4.7452950">
        <ele>958.8</ele>
        <time>2020-10-04T09:09:28Z</time>
      </trkpt>
      <trkpt lat="40.1253170" lon="-4.7452770">
        <ele>959.0</ele>
        <time>2020-10-04T09:09:29Z</time>
      </trkpt>
      <trkpt lat="40.1253310" lon="-4.7452410">
        <ele>959.5</ele>
        <time>2020-10-04T09:09:31Z</time>
      </trkpt>
      <trkpt lat="40.1253350" lon="-4.7452320">
        <ele>959.6</ele>
        <time>2020-10-04T09:09:32Z</time>
      </trkpt>
      <trkpt lat="40.1253440" lon="-4.7452130">
        <ele>959.9</ele>
        <time>2020-10-04T09:09:33Z</time>
      </trkpt>
      <trkpt lat="40.1253510" lon="-4.7451960">
        <ele>960.2</ele>
        <time>2020-10-04T09:09:34Z</time>
      </trkpt>
      <trkpt lat="40.1253600" lon="-4.7451660">
        <ele>960.5</ele>
        <time>2020-10-04T09:09:36Z</time>
      </trkpt>
      <trkpt lat="40.1253710" lon="-4.7451370">
        <ele>960.9</ele>
        <time>2020-10-04T09:09:38Z</time>
      </trkpt>
      <trkpt lat="40.1253770" lon="-4.7451220">
        <ele>961.1</ele>
        <time>2020-10-04T09:09:39Z</time>
      </trkpt>
      <trkpt lat="40.1253840" lon="-4.7451040">
        <ele>961.4</ele>
        <time>2020-10-04T09:09:40Z</time>
      </trkpt>
      <trkpt lat="40.1253960" lon="-4.7450690">
        <ele>961.9</ele>
        <time>2020-10-04T09:09:42Z</time>
      </trkpt>
      <trkpt lat="40.1254080" lon="-4.7450310">
        <ele>962.4</ele>
        <time>2020-10-04T09:09:43Z</time>
      </trkpt>
      <trkpt lat="40.1254200" lon="-4.7449830">
        <ele>963.0</ele>
        <time>2020-10-04T09:09:45Z</time>
      </trkpt>
      <trkpt lat="40.1254230" lon="-4.7449660">
        <ele>963.2</ele>
        <time>2020-10-04T09:09:46Z</time>
      </trkpt>
      <trkpt lat="40.1254360" lon="-4.7449340">
        <ele>963.6</ele>
        <time>2020-10-04T09:09:47Z</time>
      </trkpt>
      <trkpt lat="40.1254400" lon="-4.7449220">
        <ele>963.8</ele>
        <time>2020-10-04T09:09:48Z</time>
      </trkpt>
      <trkpt lat="40.1254490" lon="-4.7448990">
        <ele>964.1</ele>
        <time>2020-10-04T09:09:49Z</time>
      </trkpt>
      <trkpt lat="40.1254630" lon="-4.7448650">
        <ele>964.6</ele>
        <time>2020-10-04T09:09:51Z</time>
      </trkpt>
      <trkpt lat="40.1254750" lon="-4.7448400">
        <ele>964.9</ele>
        <time>2020-10-04T09:09:53Z</time>
      </trkpt>
      <trkpt lat="40.1254820" lon="-4.7448260">
        <ele>965.1</ele>
        <time>2020-10-04T09:09:54Z</time>
      </trkpt>
      <trkpt lat="40.1254960" lon="-4.7447990">
        <ele>965.5</ele>
        <time>2020-10-04T09:09:55Z</time>
      </trkpt>
      <trkpt lat="40.1255010" lon="-4.7447880">
        <ele>965.7</ele>
        <time>2020-10-04T09:09:57Z</time>
      </trkpt>
      <trkpt lat="40.1255070" lon="-4.7447760">
        <ele>965.8</ele>
        <time>2020-10-04T09:09:58Z</time>
      </trkpt>
      <trkpt lat="40.1255140" lon="-4.7447600">
        <ele>966.1</ele>
        <time>2020-10-04T09:09:59Z</time>
      </trkpt>
      <trkpt lat="40.1255220" lon="-4.7447430">
        <ele>966.3</ele>
        <time>2020-10-04T09:10:00Z</time>
      </trkpt>
      <trkpt lat="40.1255320" lon="-4.7447200">
        <ele>966.6</ele>
        <time>2020-10-04T09:10:01Z</time>
      </trkpt>
      <trkpt lat="40.1255440" lon="-4.7446950">
        <ele>966.9</ele>
        <time>2020-10-04T09:10:03Z</time>
      </trkpt>
      <trkpt lat="40.1255630" lon="-4.7446550">
        <ele>967.5</ele>
        <time>2020-10-04T09:10:05Z</time>
      </trkpt>
      <trkpt lat="40.1255690" lon="-4.7446410">
        <ele>967.6</ele>
        <time>2020-10-04T09:10:06Z</time>
      </trkpt>
      <trkpt lat="40.1255840" lon="-4.7446030">
        <ele>968.1</ele>
        <time>2020-10-04T09:10:07Z</time>
      </trkpt>
      <trkpt lat="40.1255900" lon="-4.7445880">
        <ele>968.3</ele>
        <time>2020-10-04T09:10:08Z</time>
      </trkpt>
      <trkpt lat="40.1256050" lon="-4.7445570">
        <ele>968.7</ele>
        <time>2020-10-04T09:10:10Z</time>
      </trkpt>
      <trkpt lat="40.1256100" lon="-4.7445470">
        <ele>968.9</ele>
        <time>2020-10-04T09:10:11Z</time>
      </trkpt>
      <trkpt lat="40.1256200" lon="-4.7445280">
        <ele>969.1</ele>
        <time>2020-10-04T09:10:12Z</time>
      </trkpt>
      <trkpt lat="40.1256290" lon="-4.7445100">
        <ele>969.4</ele>
        <time>2020-10-04T09:10:13Z</time>
      </trkpt>
      <trkpt lat="40.1256520" lon="-4.7444750">
        <ele>969.9</ele>
        <time>2020-10-04T09:10:15Z</time>
      </trkpt>
      <trkpt lat="40.1256570" lon="-4.7444650">
        <ele>970.1</ele>
        <time>2020-10-04T09:10:16Z</time>
      </trkpt>
      <trkpt lat="40.1256730" lon="-4.7444410">
        <ele>970.5</ele>
        <time>2020-10-04T09:10:17Z</time>
      </trkpt>
      <trkpt lat="40.1256840" lon="-4.7444200">
        <ele>970.8</ele>
        <time>2020-10-04T09:10:19Z</time>
      </trkpt>
      <trkpt lat="40.1256930" lon="-4.7444000">
        <ele>971.1</ele>
        <time>2020-10-04T09:10:20Z</time>
      </trkpt>
      <trkpt lat="40.1257030" lon="-4.7443840">
        <ele>971.3</ele>
        <time>2020-10-04T09:10:21Z</time>
      </trkpt>
      <trkpt lat="40.1257220" lon="-4.7443520">
        <ele>971.8</ele>
        <time>2020-10-04T09:10:23Z</time>
      </trkpt>
      <trkpt lat="40.1257280" lon="-4.7443400">
        <ele>972.0</ele>
        <time>2020-10-04T09:10:24Z</time>
      </trkpt>
      <trkpt lat="40.1257380" lon="-4.7443190">
        <ele>972.3</ele>
        <time>2020-10-04T09:10:25Z</time>
      </trkpt>
      <trkpt lat="40.1257480" lon="-4.7442910">
        <ele>972.7</ele>
        <time>2020-10-04T09:10:27Z</time>
      </trkpt>
      <trkpt lat="40.1257550" lon="-4.7442720">
        <ele>973.0</ele>
        <time>2020-10-04T09:10:28Z</time>
      </trkpt>
      <trkpt lat="40.1257650" lon="-4.7442440">
        <ele>973.4</ele>
        <time>2020-10-04T09:10:30Z</time>
      </trkpt>
      <trkpt lat="40.1257730" lon="-4.7442020">
        <ele>974.0</ele>
        <time>2020-10-04T09:10:32Z</time>
      </trkpt>
      <trkpt lat="40.1257750" lon="-4.7441910">
        <ele>974.1</ele>
        <time>2020-10-04T09:10:33Z</time>
      </trkpt>
      <trkpt lat="40.1257800" lon="-4.7441530">
        <ele>974.7</ele>
        <time>2020-10-04T09:10:34Z</time>
      </trkpt>
      <trkpt lat="40.1257820" lon="-4.7441390">
        <ele>974.9</ele>
        <time>2020-10-04T09:10:35Z</time>
      </trkpt>
      <trkpt lat="40.1257860" lon="-4.7441150">
        <ele>975.2</ele>
        <time>2020-10-04T09:10:36Z</time>
      </trkpt>
      <trkpt lat="40.1257920" lon="-4.7440940">
        <ele>975.6</ele>
        <time>2020-10-04T09:10:37Z</time>
      </trkpt>
      <trkpt lat="40.1257970" lon="-4.7440740">
        <ele>975.9</ele>
        <time>2020-10-04T09:10:38Z</time>
      </trkpt>
      <trkpt lat="40.1258040" lon="-4.7440490">
        <ele>976.3</ele>
        <time>2020-10-04T09:10:40Z</time>
      </trkpt>
      <trkpt lat="40.1258100" lon="-4.7440250">
        <ele>976.6</ele>
        <time>2020-10-04T09:10:41Z</time>
      </trkpt>
      <trkpt lat="40.1258140" lon="-4.7439870">
        <ele>977.2</ele>
        <time>2020-10-04T09:10:43Z</time>
      </trkpt>
      <trkpt lat="40.1258170" lon="-4.7439660">
        <ele>977.5</ele>
        <time>2020-10-04T09:10:44Z</time>
      </trkpt>
      <trkpt lat="40.1258200" lon="-4.7439440">
        <ele>977.8</ele>
        <time>2020-10-04T09:10:45Z</time>
      </trkpt>
      <trkpt lat="40.1258260" lon="-4.7438850">
        <ele>978.7</ele>
        <time>2020-10-04T09:10:47Z</time>
      </trkpt>
      <trkpt lat="40.1258260" lon="-4.7438660">
        <ele>979.0</ele>
        <time>2020-10-04T09:10:48Z</time>
      </trkpt>
      <trkpt lat="40.1258270" lon="-4.7438470">
        <ele>979.2</ele>
        <time>2020-10-04T09:10:49Z</time>
      </trkpt>
      <trkpt lat="40.1258280" lon="-4.7438070">
        <ele>979.8</ele>
        <time>2020-10-04T09:10:51Z</time>
      </trkpt>
      <trkpt lat="40.1258310" lon="-4.7437730">
        <ele>980.3</ele>
        <time>2020-10-04T09:10:52Z</time>
      </trkpt>
      <trkpt lat="40.1258340" lon="-4.7437450">
        <ele>980.7</ele>
        <time>2020-10-04T09:10:54Z</time>
      </trkpt>
      <trkpt lat="40.1258360" lon="-4.7437250">
        <ele>981.0</ele>
        <time>2020-10-04T09:10:55Z</time>
      </trkpt>
      <trkpt lat="40.1258380" lon="-4.7437010">
        <ele>981.3</ele>
        <time>2020-10-04T09:10:56Z</time>
      </trkpt>
      <trkpt lat="40.1258450" lon="-4.7436590">
        <ele>981.9</ele>
        <time>2020-10-04T09:10:58Z</time>
      </trkpt>
      <trkpt lat="40.1258480" lon="-4.7436480">
        <ele>982.1</ele>
        <time>2020-10-04T09:10:59Z</time>
      </trkpt>
      <trkpt lat="40.1258530" lon="-4.7436260">
        <ele>982.4</ele>
        <time>2020-10-04T09:11:00Z</time>
      </trkpt>
      <trkpt lat="40.1258570" lon="-4.7436100">
        <ele>982.6</ele>
        <time>2020-10-04T09:11:01Z</time>
      </trkpt>
      <trkpt lat="40.1258630" lon="-4.7435740">
        <ele>983.1</ele>
        <time>2020-10-04T09:11:03Z</time>
      </trkpt>
      <trkpt lat="40.1258680" lon="-4.7435530">
        <ele>983.4</ele>
        <time>2020-10-04T09:11:04Z</time>
      </trkpt>
      <trkpt lat="40.1258730" lon="-4.7435320">
        <ele>983.7</ele>
        <time>2020-10-04T09:11:05Z</time>
      </trkpt>
      <trkpt lat="40.1258740" lon="-4.7435120">
        <ele>983.9</ele>
        <time>2020-10-04T09:11:06Z</time>
      </trkpt>
      <trkpt lat="40.1258780" lon="-4.7434730">
        <ele>984.4</ele>
        <time>2020-10-04T09:11:08Z</time>
      </trkpt>
      <trkpt lat="40.1258810" lon="-4.7434340">
        <ele>984.8</ele>
        <time>2020-10-04T09:11:10Z</time>
      </trkpt>
      <trkpt lat="40.1258810" lon="-4.7434230">
        <ele>984.9</ele>
        <time>2020-10-04T09:11:11Z</time>
      </trkpt>
      <trkpt lat="40.1258820" lon="-4.7433970">
        <ele>985.2</ele>
        <time>2020-10-04T09:11:12Z</time>
      </trkpt>
      <trkpt lat="40.1258820" lon="-4.7433780">
        <ele>985.4</ele>
        <time>2020-10-04T09:11:13Z</time>
      </trkpt>
      <trkpt lat="40.1258800" lon="-4.7433510">
        <ele>985.7</ele>
        <time>2020-10-04T09:11:14Z</time>
      </trkpt>
      <trkpt lat="40.1258770" lon="-4.7433210">
        <ele>986.0</ele>
        <time>2020-10-04T09:11:16Z</time>
      </trkpt>
      <trkpt lat="40.1258740" lon="-4.7432620">
        <ele>986.7</ele>
        <time>2020-10-04T09:11:18Z</time>
      </trkpt>
      <trkpt lat="40.1258740" lon="-4.7432430">
        <ele>986.9</ele>
        <time>2020-10-04T09:11:19Z</time>
      </trkpt>
      <trkpt lat="40.1258730" lon="-4.7432240">
        <ele>987.0</ele>
        <time>2020-10-04T09:11:20Z</time>
      </trkpt>
      <trkpt lat="40.1258780" lon="-4.7431830">
        <ele>987.5</ele>
        <time>2020-10-04T09:11:21Z</time>
      </trkpt>
      <trkpt lat="40.1258800" lon="-4.7431660">
        <ele>987.6</ele>
        <time>2020-10-04T09:11:22Z</time>
      </trkpt>
      <trkpt lat="40.1258820" lon="-4.7431340">
        <ele>988.0</ele>
        <time>2020-10-04T09:11:23Z</time>
      </trkpt>
      <trkpt lat="40.1258820" lon="-4.7430940">
        <ele>988.4</ele>
        <time>2020-10-04T09:11:25Z</time>
      </trkpt>
      <trkpt lat="40.1258820" lon="-4.7430500">
        <ele>988.8</ele>
        <time>2020-10-04T09:11:26Z</time>
      </trkpt>
      <trkpt lat="40.1258820" lon="-4.7430350">
        <ele>989.0</ele>
        <time>2020-10-04T09:11:27Z</time>
      </trkpt>
      <trkpt lat="40.1258850" lon="-4.7429930">
        <ele>989.4</ele>
        <time>2020-10-04T09:11:28Z</time>
      </trkpt>
      <trkpt lat="40.1258860" lon="-4.7429780">
        <ele>989.5</ele>
        <time>2020-10-04T09:11:29Z</time>
      </trkpt>
      <trkpt lat="40.1258780" lon="-4.7429140">
        <ele>990.2</ele>
        <time>2020-10-04T09:11:31Z</time>
      </trkpt>
      <trkpt lat="40.1258730" lon="-4.7428760">
        <ele>990.6</ele>
        <time>2020-10-04T09:11:32Z</time>
      </trkpt>
      <trkpt lat="40.1258680" lon="-4.7428310">
        <ele>991.0</ele>
        <time>2020-10-04T09:11:33Z</time>
      </trkpt>
      <trkpt lat="40.1258660" lon="-4.7428180">
        <ele>991.2</ele>
        <time>2020-10-04T09:11:34Z</time>
      </trkpt>
      <trkpt lat="40.1258630" lon="-4.7427780">
        <ele>991.5</ele>
        <time>2020-10-04T09:11:35Z</time>
      </trkpt>
      <trkpt lat="40.1258620" lon="-4.7427660">
        <ele>991.6</ele>
        <time>2020-10-04T09:11:36Z</time>
      </trkpt>
      <trkpt lat="40.1258740" lon="-4.7427240">
        <ele>992.0</ele>
        <time>2020-10-04T09:11:38Z</time>
      </trkpt>
      <trkpt lat="40.1258770" lon="-4.7427090">
        <ele>992.2</ele>
        <time>2020-10-04T09:11:39Z</time>
      </trkpt>
      <trkpt lat="40.1258820" lon="-4.7426670">
        <ele>992.5</ele>
        <time>2020-10-04T09:11:40Z</time>
      </trkpt>
      <trkpt lat="40.1258840" lon="-4.7426510">
        <ele>992.7</ele>
        <time>2020-10-04T09:11:41Z</time>
      </trkpt>
      <trkpt lat="40.1258940" lon="-4.7426150">
        <ele>993.0</ele>
        <time>2020-10-04T09:11:42Z</time>
      </trkpt>
      <trkpt lat="40.1259060" lon="-4.7425720">
        <ele>993.3</ele>
        <time>2020-10-04T09:11:43Z</time>
      </trkpt>
      <trkpt lat="40.1259090" lon="-4.7425540">
        <ele>993.5</ele>
        <time>2020-10-04T09:11:44Z</time>
      </trkpt>
      <trkpt lat="40.1259160" lon="-4.7425200">
        <ele>993.7</ele>
        <time>2020-10-04T09:11:45Z</time>
      </trkpt>
      <trkpt lat="40.1259220" lon="-4.7424940">
        <ele>994.0</ele>
        <time>2020-10-04T09:11:46Z</time>
      </trkpt>
      <trkpt lat="40.1259320" lon="-4.7424440">
        <ele>994.4</ele>
        <time>2020-10-04T09:11:48Z</time>
      </trkpt>
      <trkpt lat="40.1259390" lon="-4.7424050">
        <ele>994.7</ele>
        <time>2020-10-04T09:11:49Z</time>
      </trkpt>
      <trkpt lat="40.1259450" lon="-4.7423700">
        <ele>995.0</ele>
        <time>2020-10-04T09:11:50Z</time>
      </trkpt>
      <trkpt lat="40.1259540" lon="-4.7423170">
        <ele>995.3</ele>
        <time>2020-10-04T09:11:52Z</time>
      </trkpt>
      <trkpt lat="40.1259670" lon="-4.7422600">
        <ele>995.8</ele>
        <time>2020-10-04T09:11:54Z</time>
      </trkpt>
      <trkpt lat="40.1259810" lon="-4.7422220">
        <ele>996.0</ele>
        <time>2020-10-04T09:11:55Z</time>
      </trkpt>
      <trkpt lat="40.1259870" lon="-4.7422100">
        <ele>996.1</ele>
        <time>2020-10-04T09:11:56Z</time>
      </trkpt>
      <trkpt lat="40.1260030" lon="-4.7421770">
        <ele>996.4</ele>
        <time>2020-10-04T09:11:57Z</time>
      </trkpt>
      <trkpt lat="40.1260250" lon="-4.7421230">
        <ele>996.8</ele>
        <time>2020-10-04T09:11:59Z</time>
      </trkpt>
      <trkpt lat="40.1260430" lon="-4.7420900">
        <ele>997.0</ele>
        <time>2020-10-04T09:12:01Z</time>
      </trkpt>
      <trkpt lat="40.1260610" lon="-4.7420600">
        <ele>997.2</ele>
        <time>2020-10-04T09:12:02Z</time>
      </trkpt>
      <trkpt lat="40.1260850" lon="-4.7420190">
        <ele>997.5</ele>
        <time>2020-10-04T09:12:03Z</time>
      </trkpt>
      <trkpt lat="40.1260940" lon="-4.7420020">
        <ele>997.6</ele>
        <time>2020-10-04T09:12:04Z</time>
      </trkpt>
      <trkpt lat="40.1261090" lon="-4.7419770">
        <ele>997.8</ele>
        <time>2020-10-04T09:12:05Z</time>
      </trkpt>
      <trkpt lat="40.1261340" lon="-4.7419430">
        <ele>998.1</ele>
        <time>2020-10-04T09:12:07Z</time>
      </trkpt>
      <trkpt lat="40.1261530" lon="-4.7419130">
        <ele>998.3</ele>
        <time>2020-10-04T09:12:08Z</time>
      </trkpt>
      <trkpt lat="40.1261760" lon="-4.7418740">
        <ele>998.5</ele>
        <time>2020-10-04T09:12:09Z</time>
      </trkpt>
      <trkpt lat="40.1261930" lon="-4.7418460">
        <ele>998.7</ele>
        <time>2020-10-04T09:12:10Z</time>
      </trkpt>
      <trkpt lat="40.1262260" lon="-4.7417940">
        <ele>999.1</ele>
        <time>2020-10-04T09:12:12Z</time>
      </trkpt>
      <trkpt lat="40.1262460" lon="-4.7417660">
        <ele>999.4</ele>
        <time>2020-10-04T09:12:13Z</time>
      </trkpt>
      <trkpt lat="40.1262710" lon="-4.7417260">
        <ele>999.7</ele>
        <time>2020-10-04T09:12:14Z</time>
      </trkpt>
      <trkpt lat="40.1262790" lon="-4.7417110">
        <ele>999.8</ele>
        <time>2020-10-04T09:12:15Z</time>
      </trkpt>
      <trkpt lat="40.1262970" lon="-4.7416790">
        <ele>1000.0</ele>
        <time>2020-10-04T09:12:16Z</time>
      </trkpt>
      <trkpt lat="40.1263140" lon="-4.7416500">
        <ele>1000.1</ele>
        <time>2020-10-04T09:12:17Z</time>
      </trkpt>
      <trkpt lat="40.1263340" lon="-4.7416130">
        <ele>1000.3</ele>
        <time>2020-10-04T09:12:18Z</time>
      </trkpt>
      <trkpt lat="40.1263550" lon="-4.7415830">
        <ele>1000.4</ele>
        <time>2020-10-04T09:12:19Z</time>
      </trkpt>
      <trkpt lat="40.1263880" lon="-4.7415350">
        <ele>1000.7</ele>
        <time>2020-10-04T09:12:21Z</time>
      </trkpt>
      <trkpt lat="40.1264080" lon="-4.7415030">
        <ele>1000.9</ele>
        <time>2020-10-04T09:12:22Z</time>
      </trkpt>
      <trkpt lat="40.1264270" lon="-4.7414750">
        <ele>1001.1</ele>
        <time>2020-10-04T09:12:23Z</time>
      </trkpt>
      <trkpt lat="40.1264520" lon="-4.7414290">
        <ele>1001.5</ele>
        <time>2020-10-04T09:12:25Z</time>
      </trkpt>
      <trkpt lat="40.1264670" lon="-4.7414000">
        <ele>1001.7</ele>
        <time>2020-10-04T09:12:26Z</time>
      </trkpt>
      <trkpt lat="40.1264860" lon="-4.7413610">
        <ele>1002.0</ele>
        <time>2020-10-04T09:12:28Z</time>
      </trkpt>
      <trkpt lat="40.1265060" lon="-4.7413250">
        <ele>1002.4</ele>
        <time>2020-10-04T09:12:29Z</time>
      </trkpt>
      <trkpt lat="40.1265120" lon="-4.7413130">
        <ele>1002.5</ele>
        <time>2020-10-04T09:12:30Z</time>
      </trkpt>
      <trkpt lat="40.1265250" lon="-4.7412910">
        <ele>1002.7</ele>
        <time>2020-10-04T09:12:31Z</time>
      </trkpt>
      <trkpt lat="40.1265400" lon="-4.7412690">
        <ele>1003.0</ele>
        <time>2020-10-04T09:12:33Z</time>
      </trkpt>
      <trkpt lat="40.1265580" lon="-4.7412370">
        <ele>1003.3</ele>
        <time>2020-10-04T09:12:34Z</time>
      </trkpt>
      <trkpt lat="40.1265640" lon="-4.7412250">
        <ele>1003.4</ele>
        <time>2020-10-04T09:12:35Z</time>
      </trkpt>
      <trkpt lat="40.1265880" lon="-4.7411920">
        <ele>1003.8</ele>
        <time>2020-10-04T09:12:36Z</time>
      </trkpt>
      <trkpt lat="40.1265940" lon="-4.7411830">
        <ele>1003.9</ele>
        <time>2020-10-04T09:12:37Z</time>
      </trkpt>
      <trkpt lat="40.1266170" lon="-4.7411500">
        <ele>1004.3</ele>
        <time>2020-10-04T09:12:39Z</time>
      </trkpt>
      <trkpt lat="40.1266230" lon="-4.7411390">
        <ele>1004.4</ele>
        <time>2020-10-04T09:12:40Z</time>
      </trkpt>
      <trkpt lat="40.1266410" lon="-4.7411120">
        <ele>1004.7</ele>
        <time>2020-10-04T09:12:41Z</time>
      </trkpt>
      <trkpt lat="40.1266590" lon="-4.7410960">
        <ele>1004.9</ele>
        <time>2020-10-04T09:12:42Z</time>
      </trkpt>
      <trkpt lat="40.1266790" lon="-4.7410670">
        <ele>1005.2</ele>
        <time>2020-10-04T09:12:44Z</time>
      </trkpt>
      <trkpt lat="40.1267030" lon="-4.7410290">
        <ele>1005.6</ele>
        <time>2020-10-04T09:12:45Z</time>
      </trkpt>
      <trkpt lat="40.1267290" lon="-4.7409850">
        <ele>1006.1</ele>
        <time>2020-10-04T09:12:47Z</time>
      </trkpt>
      <trkpt lat="40.1267520" lon="-4.7409480">
        <ele>1006.5</ele>
        <time>2020-10-04T09:12:49Z</time>
      </trkpt>
      <trkpt lat="40.1267760" lon="-4.7409130">
        <ele>1006.8</ele>
        <time>2020-10-04T09:12:50Z</time>
      </trkpt>
      <trkpt lat="40.1268050" lon="-4.7408680">
        <ele>1007.3</ele>
        <time>2020-10-04T09:12:52Z</time>
      </trkpt>
      <trkpt lat="40.1268160" lon="-4.7408540">
        <ele>1007.5</ele>
        <time>2020-10-04T09:12:53Z</time>
      </trkpt>
      <trkpt lat="40.1268270" lon="-4.7408410">
        <ele>1007.6</ele>
        <time>2020-10-04T09:12:54Z</time>
      </trkpt>
      <trkpt lat="40.1268460" lon="-4.7408160">
        <ele>1007.9</ele>
        <time>2020-10-04T09:12:56Z</time>
      </trkpt>
      <trkpt lat="40.1268680" lon="-4.7407880">
        <ele>1008.2</ele>
        <time>2020-10-04T09:12:57Z</time>
      </trkpt>
      <trkpt lat="40.1268830" lon="-4.7407750">
        <ele>1008.4</ele>
        <time>2020-10-04T09:12:58Z</time>
      </trkpt>
      <trkpt lat="40.1269050" lon="-4.7407520">
        <ele>1008.7</ele>
        <time>2020-10-04T09:13:00Z</time>
      </trkpt>
      <trkpt lat="40.1269140" lon="-4.7407370">
        <ele>1008.9</ele>
        <time>2020-10-04T09:13:01Z</time>
      </trkpt>
      <trkpt lat="40.1269290" lon="-4.7407210">
        <ele>1009.1</ele>
        <time>2020-10-04T09:13:02Z</time>
      </trkpt>
      <trkpt lat="40.1269480" lon="-4.7407050">
        <ele>1009.3</ele>
        <time>2020-10-04T09:13:03Z</time>
      </trkpt>
      <trkpt lat="40.1269720" lon="-4.7406760">
        <ele>1009.7</ele>
        <time>2020-10-04T09:13:05Z</time>
      </trkpt>
      <trkpt lat="40.1269860" lon="-4.7406620">
        <ele>1009.9</ele>
        <time>2020-10-04T09:13:06Z</time>
      </trkpt>
      <trkpt lat="40.1270010" lon="-4.7406490">
        <ele>1010.2</ele>
        <time>2020-10-04T09:13:07Z</time>
      </trkpt>
      <trkpt lat="40.1270240" lon="-4.7406140">
        <ele>1010.7</ele>
        <time>2020-10-04T09:13:09Z</time>
      </trkpt>
      <trkpt lat="40.1270310" lon="-4.7406040">
        <ele>1010.8</ele>
        <time>2020-10-04T09:13:10Z</time>
      </trkpt>
      <trkpt lat="40.1270510" lon="-4.7405790">
        <ele>1011.2</ele>
        <time>2020-10-04T09:13:12Z</time>
      </trkpt>
      <trkpt lat="40.1270580" lon="-4.7405690">
        <ele>1011.4</ele>
        <time>2020-10-04T09:13:13Z</time>
      </trkpt>
      <trkpt lat="40.1270700" lon="-4.7405590">
        <ele>1011.6</ele>
        <time>2020-10-04T09:13:14Z</time>
      </trkpt>
      <trkpt lat="40.1270940" lon="-4.7405340">
        <ele>1012.2</ele>
        <time>2020-10-04T09:13:16Z</time>
      </trkpt>
      <trkpt lat="40.1271120" lon="-4.7405190">
        <ele>1012.5</ele>
        <time>2020-10-04T09:13:17Z</time>
      </trkpt>
      <trkpt lat="40.1271370" lon="-4.7404970">
        <ele>1013.1</ele>
        <time>2020-10-04T09:13:19Z</time>
      </trkpt>
      <trkpt lat="40.1271530" lon="-4.7404880">
        <ele>1013.4</ele>
        <time>2020-10-04T09:13:20Z</time>
      </trkpt>
      <trkpt lat="40.1271700" lon="-4.7404730">
        <ele>1013.8</ele>
        <time>2020-10-04T09:13:22Z</time>
      </trkpt>
      <trkpt lat="40.1271940" lon="-4.7404510">
        <ele>1014.4</ele>
        <time>2020-10-04T09:13:23Z</time>
      </trkpt>
      <trkpt lat="40.1272020" lon="-4.7404410">
        <ele>1014.6</ele>
        <time>2020-10-04T09:13:24Z</time>
      </trkpt>
      <trkpt lat="40.1272140" lon="-4.7404280">
        <ele>1014.9</ele>
        <time>2020-10-04T09:13:25Z</time>
      </trkpt>
      <trkpt lat="40.1272220" lon="-4.7404170">
        <ele>1015.1</ele>
        <time>2020-10-04T09:13:26Z</time>
      </trkpt>
      <trkpt lat="40.1272400" lon="-4.7403840">
        <ele>1015.7</ele>
        <time>2020-10-04T09:13:28Z</time>
      </trkpt>
      <trkpt lat="40.1272440" lon="-4.7403700">
        <ele>1015.9</ele>
        <time>2020-10-04T09:13:29Z</time>
      </trkpt>
      <trkpt lat="40.1272490" lon="-4.7403320">
        <ele>1016.5</ele>
        <time>2020-10-04T09:13:30Z</time>
      </trkpt>
      <trkpt lat="40.1272500" lon="-4.7403160">
        <ele>1016.7</ele>
        <time>2020-10-04T09:13:31Z</time>
      </trkpt>
      <trkpt lat="40.1272530" lon="-4.7402770">
        <ele>1017.3</ele>
        <time>2020-10-04T09:13:33Z</time>
      </trkpt>
      <trkpt lat="40.1272580" lon="-4.7402390">
        <ele>1017.8</ele>
        <time>2020-10-04T09:13:34Z</time>
      </trkpt>
      <trkpt lat="40.1272530" lon="-4.7401840">
        <ele>1018.6</ele>
        <time>2020-10-04T09:13:36Z</time>
      </trkpt>
      <trkpt lat="40.1272330" lon="-4.7401110">
        <ele>1019.6</ele>
        <time>2020-10-04T09:13:38Z</time>
      </trkpt>
      <trkpt lat="40.1272240" lon="-4.7400480">
        <ele>1020.5</ele>
        <time>2020-10-04T09:13:40Z</time>
      </trkpt>
      <trkpt lat="40.1272230" lon="-4.7400280">
        <ele>1020.8</ele>
        <time>2020-10-04T09:13:41Z</time>
      </trkpt>
      <trkpt lat="40.1272210" lon="-4.7400070">
        <ele>1021.0</ele>
        <time>2020-10-04T09:13:42Z</time>
      </trkpt>
      <trkpt lat="40.1272190" lon="-4.7399640">
        <ele>1021.6</ele>
        <time>2020-10-04T09:13:44Z</time>
      </trkpt>
      <trkpt lat="40.1272150" lon="-4.7399270">
        <ele>1022.1</ele>
        <time>2020-10-04T09:13:45Z</time>
      </trkpt>
      <trkpt lat="40.1272160" lon="-4.7398940">
        <ele>1022.5</ele>
        <time>2020-10-04T09:13:46Z</time>
      </trkpt>
      <trkpt lat="40.1272190" lon="-4.7398560">
        <ele>1023.0</ele>
        <time>2020-10-04T09:13:48Z</time>
      </trkpt>
      <trkpt lat="40.1272200" lon="-4.7398290">
        <ele>1023.4</ele>
        <time>2020-10-04T09:13:49Z</time>
      </trkpt>
      <trkpt lat="40.1272110" lon="-4.7397950">
        <ele>1023.9</ele>
        <time>2020-10-04T09:13:51Z</time>
      </trkpt>
      <trkpt lat="40.1272080" lon="-4.7397540">
        <ele>1024.4</ele>
        <time>2020-10-04T09:13:52Z</time>
      </trkpt>
      <trkpt lat="40.1272070" lon="-4.7397420">
        <ele>1024.6</ele>
        <time>2020-10-04T09:13:53Z</time>
      </trkpt>
      <trkpt lat="40.1272040" lon="-4.7397230">
        <ele>1024.8</ele>
        <time>2020-10-04T09:13:54Z</time>
      </trkpt>
      <trkpt lat="40.1272000" lon="-4.7396880">
        <ele>1025.3</ele>
        <time>2020-10-04T09:13:56Z</time>
      </trkpt>
      <trkpt lat="40.1271990" lon="-4.7396510">
        <ele>1025.8</ele>
        <time>2020-10-04T09:13:58Z</time>
      </trkpt>
      <trkpt lat="40.1271980" lon="-4.7396390">
        <ele>1026.0</ele>
        <time>2020-10-04T09:13:59Z</time>
      </trkpt>
      <trkpt lat="40.1272090" lon="-4.7396010">
        <ele>1026.5</ele>
        <time>2020-10-04T09:14:00Z</time>
      </trkpt>
      <trkpt lat="40.1272100" lon="-4.7395900">
        <ele>1026.7</ele>
        <time>2020-10-04T09:14:01Z</time>
      </trkpt>
      <trkpt lat="40.1272170" lon="-4.7395380">
        <ele>1027.4</ele>
        <time>2020-10-04T09:14:03Z</time>
      </trkpt>
      <trkpt lat="40.1272200" lon="-4.7395210">
        <ele>1027.6</ele>
        <time>2020-10-04T09:14:04Z</time>
      </trkpt>
      <trkpt lat="40.1272230" lon="-4.7395050">
        <ele>1027.8</ele>
        <time>2020-10-04T09:14:05Z</time>
      </trkpt>
      <trkpt lat="40.1272270" lon="-4.7394810">
        <ele>1028.1</ele>
        <time>2020-10-04T09:14:06Z</time>
      </trkpt>
      <trkpt lat="40.1272340" lon="-4.7394480">
        <ele>1028.6</ele>
        <time>2020-10-04T09:14:08Z</time>
      </trkpt>
      <trkpt lat="40.1272410" lon="-4.7394190">
        <ele>1029.0</ele>
        <time>2020-10-04T09:14:09Z</time>
      </trkpt>
      <trkpt lat="40.1272530" lon="-4.7393910">
        <ele>1029.4</ele>
        <time>2020-10-04T09:14:11Z</time>
      </trkpt>
      <trkpt lat="40.1272590" lon="-4.7393820">
        <ele>1029.5</ele>
        <time>2020-10-04T09:14:12Z</time>
      </trkpt>
      <trkpt lat="40.1272680" lon="-4.7393700">
        <ele>1029.8</ele>
        <time>2020-10-04T09:14:13Z</time>
      </trkpt>
      <trkpt lat="40.1272740" lon="-4.7393520">
        <ele>1030.0</ele>
        <time>2020-10-04T09:14:14Z</time>
      </trkpt>
      <trkpt lat="40.1272860" lon="-4.7393120">
        <ele>1030.6</ele>
        <time>2020-10-04T09:14:16Z</time>
      </trkpt>
      <trkpt lat="40.1272880" lon="-4.7393020">
        <ele>1030.7</ele>
        <time>2020-10-04T09:14:17Z</time>
      </trkpt>
      <trkpt lat="40.1272970" lon="-4.7392850">
        <ele>1031.0</ele>
        <time>2020-10-04T09:14:18Z</time>
      </trkpt>
      <trkpt lat="40.1273080" lon="-4.7392630">
        <ele>1031.3</ele>
        <time>2020-10-04T09:14:19Z</time>
      </trkpt>
      <trkpt lat="40.1273200" lon="-4.7392440">
        <ele>1031.6</ele>
        <time>2020-10-04T09:14:20Z</time>
      </trkpt>
      <trkpt lat="40.1273320" lon="-4.7392260">
        <ele>1032.0</ele>
        <time>2020-10-04T09:14:22Z</time>
      </trkpt>
      <trkpt lat="40.1273510" lon="-4.7391970">
        <ele>1032.4</ele>
        <time>2020-10-04T09:14:23Z</time>
      </trkpt>
      <trkpt lat="40.1273550" lon="-4.7391890">
        <ele>1032.6</ele>
        <time>2020-10-04T09:14:24Z</time>
      </trkpt>
      <trkpt lat="40.1273630" lon="-4.7391720">
        <ele>1032.8</ele>
        <time>2020-10-04T09:14:25Z</time>
      </trkpt>
      <trkpt lat="40.1273740" lon="-4.7391480">
        <ele>1033.2</ele>
        <time>2020-10-04T09:14:27Z</time>
      </trkpt>
      <trkpt lat="40.1273840" lon="-4.7391120">
        <ele>1033.7</ele>
        <time>2020-10-04T09:14:28Z</time>
      </trkpt>
      <trkpt lat="40.1273970" lon="-4.7390770">
        <ele>1034.2</ele>
        <time>2020-10-04T09:14:30Z</time>
      </trkpt>
      <trkpt lat="40.1273990" lon="-4.7390390">
        <ele>1034.7</ele>
        <time>2020-10-04T09:14:32Z</time>
      </trkpt>
      <trkpt lat="40.1274050" lon="-4.7390090">
        <ele>1035.1</ele>
        <time>2020-10-04T09:14:33Z</time>
      </trkpt>
      <trkpt lat="40.1274160" lon="-4.7389780">
        <ele>1035.5</ele>
        <time>2020-10-04T09:14:35Z</time>
      </trkpt>
      <trkpt lat="40.1274340" lon="-4.7389420">
        <ele>1036.1</ele>
        <time>2020-10-04T09:14:36Z</time>
      </trkpt>
      <trkpt lat="40.1274400" lon="-4.7389240">
        <ele>1036.3</ele>
        <time>2020-10-04T09:14:37Z</time>
      </trkpt>
      <trkpt lat="40.1274610" lon="-4.7388780">
        <ele>1036.9</ele>
        <time>2020-10-04T09:14:39Z</time>
      </trkpt>
      <trkpt lat="40.1274690" lon="-4.7388630">
        <ele>1037.1</ele>
        <time>2020-10-04T09:14:40Z</time>
      </trkpt>
      <trkpt lat="40.1274770" lon="-4.7388490">
        <ele>1037.3</ele>
        <time>2020-10-04T09:14:41Z</time>
      </trkpt>
      <trkpt lat="40.1274900" lon="-4.7388270">
        <ele>1037.7</ele>
        <time>2020-10-04T09:14:43Z</time>
      </trkpt>
      <trkpt lat="40.1275000" lon="-4.7388120">
        <ele>1037.9</ele>
        <time>2020-10-04T09:14:44Z</time>
      </trkpt>
      <trkpt lat="40.1275210" lon="-4.7387820">
        <ele>1038.4</ele>
        <time>2020-10-04T09:14:45Z</time>
      </trkpt>
      <trkpt lat="40.1275270" lon="-4.7387720">
        <ele>1038.5</ele>
        <time>2020-10-04T09:14:46Z</time>
      </trkpt>
      <trkpt lat="40.1275470" lon="-4.7387450">
        <ele>1039.0</ele>
        <time>2020-10-04T09:14:47Z</time>
      </trkpt>
      <trkpt lat="40.1275530" lon="-4.7387350">
        <ele>1039.1</ele>
        <time>2020-10-04T09:14:48Z</time>
      </trkpt>
      <trkpt lat="40.1275740" lon="-4.7386920">
        <ele>1039.7</ele>
        <time>2020-10-04T09:14:50Z</time>
      </trkpt>
      <trkpt lat="40.1275880" lon="-4.7386670">
        <ele>1040.1</ele>
        <time>2020-10-04T09:14:51Z</time>
      </trkpt>
      <trkpt lat="40.1276070" lon="-4.7386470">
        <ele>1040.4</ele>
        <time>2020-10-04T09:14:53Z</time>
      </trkpt>
      <trkpt lat="40.1276270" lon="-4.7386250">
        <ele>1040.8</ele>
        <time>2020-10-04T09:14:54Z</time>
      </trkpt>
      <trkpt lat="40.1276640" lon="-4.7385920">
        <ele>1041.5</ele>
        <time>2020-10-04T09:14:56Z</time>
      </trkpt>
      <trkpt lat="40.1276870" lon="-4.7385720">
        <ele>1041.9</ele>
        <time>2020-10-04T09:14:58Z</time>
      </trkpt>
      <trkpt lat="40.1276960" lon="-4.7385670">
        <ele>1042.0</ele>
        <time>2020-10-04T09:14:59Z</time>
      </trkpt>
      <trkpt lat="40.1277220" lon="-4.7385410">
        <ele>1042.5</ele>
        <time>2020-10-04T09:15:00Z</time>
      </trkpt>
      <trkpt lat="40.1277300" lon="-4.7385320">
        <ele>1042.6</ele>
        <time>2020-10-04T09:15:01Z</time>
      </trkpt>
      <trkpt lat="40.1277420" lon="-4.7385160">
        <ele>1042.9</ele>
        <time>2020-10-04T09:15:03Z</time>
      </trkpt>
      <trkpt lat="40.1277580" lon="-4.7385060">
        <ele>1043.5</ele>
        <time>2020-10-04T09:15:04Z</time>
      </trkpt>
      <trkpt lat="40.1277730" lon="-4.7384940">
        <ele>1043.8</ele>
        <time>2020-10-04T09:15:05Z</time>
      </trkpt>
      <trkpt lat="40.1277950" lon="-4.7384750">
        <ele>1044.1</ele>
        <time>2020-10-04T09:15:07Z</time>
      </trkpt>
      <trkpt lat="40.1278120" lon="-4.7384610">
        <ele>1044.4</ele>
        <time>2020-10-04T09:15:08Z</time>
      </trkpt>
      <trkpt lat="40.1278350" lon="-4.7384370">
        <ele>1044.8</ele>
        <time>2020-10-04T09:15:10Z</time>
      </trkpt>
      <trkpt lat="40.1278590" lon="-4.7384140">
        <ele>1045.1</ele>
        <time>2020-10-04T09:15:11Z</time>
      </trkpt>
      <trkpt lat="40.1278750" lon="-4.7384060">
        <ele>1045.3</ele>
        <time>2020-10-04T09:15:12Z</time>
      </trkpt>
      <trkpt lat="40.1279000" lon="-4.7383920">
        <ele>1045.6</ele>
        <time>2020-10-04T09:15:14Z</time>
      </trkpt>
      <trkpt lat="40.1279250" lon="-4.7383740">
        <ele>1045.9</ele>
        <time>2020-10-04T09:15:15Z</time>
      </trkpt>
      <trkpt lat="40.1279330" lon="-4.7383690">
        <ele>1046.0</ele>
        <time>2020-10-04T09:15:16Z</time>
      </trkpt>
      <trkpt lat="40.1279460" lon="-4.7383610">
        <ele>1046.1</ele>
        <time>2020-10-04T09:15:17Z</time>
      </trkpt>
      <trkpt lat="40.1279590" lon="-4.7383500">
        <ele>1046.2</ele>
        <time>2020-10-04T09:15:18Z</time>
      </trkpt>
      <trkpt lat="40.1279960" lon="-4.7383280">
        <ele>1046.6</ele>
        <time>2020-10-04T09:15:20Z</time>
      </trkpt>
      <trkpt lat="40.1280300" lon="-4.7383020">
        <ele>1046.9</ele>
        <time>2020-10-04T09:15:22Z</time>
      </trkpt>
      <trkpt lat="40.1280640" lon="-4.7382810">
        <ele>1047.2</ele>
        <time>2020-10-04T09:15:23Z</time>
      </trkpt>
      <trkpt lat="40.1280770" lon="-4.7382720">
        <ele>1047.3</ele>
        <time>2020-10-04T09:15:24Z</time>
      </trkpt>
      <trkpt lat="40.1280960" lon="-4.7382610">
        <ele>1047.4</ele>
        <time>2020-10-04T09:15:25Z</time>
      </trkpt>
      <trkpt lat="40.1281290" lon="-4.7382390">
        <ele>1047.6</ele>
        <time>2020-10-04T09:15:27Z</time>
      </trkpt>
      <trkpt lat="40.1281550" lon="-4.7382200">
        <ele>1047.8</ele>
        <time>2020-10-04T09:15:28Z</time>
      </trkpt>
      <trkpt lat="40.1281770" lon="-4.7382050">
        <ele>1048.0</ele>
        <time>2020-10-04T09:15:29Z</time>
      </trkpt>
      <trkpt lat="40.1282180" lon="-4.7381750">
        <ele>1048.3</ele>
        <time>2020-10-04T09:15:31Z</time>
      </trkpt>
      <trkpt lat="40.1282500" lon="-4.7381480">
        <ele>1048.5</ele>
        <time>2020-10-04T09:15:32Z</time>
      </trkpt>
      <trkpt lat="40.1282790" lon="-4.7381220">
        <ele>1048.7</ele>
        <time>2020-10-04T09:15:33Z</time>
      </trkpt>
      <trkpt lat="40.1283040" lon="-4.7380970">
        <ele>1048.9</ele>
        <time>2020-10-04T09:15:34Z</time>
      </trkpt>
      <trkpt lat="40.1283380" lon="-4.7380570">
        <ele>1049.2</ele>
        <time>2020-10-04T09:15:36Z</time>
      </trkpt>
      <trkpt lat="40.1283650" lon="-4.7380300">
        <ele>1049.5</ele>
        <time>2020-10-04T09:15:37Z</time>
      </trkpt>
      <trkpt lat="40.1283740" lon="-4.7380200">
        <ele>1049.6</ele>
        <time>2020-10-04T09:15:38Z</time>
      </trkpt>
      <trkpt lat="40.1284080" lon="-4.7379770">
        <ele>1049.9</ele>
        <time>2020-10-04T09:15:40Z</time>
      </trkpt>
      <trkpt lat="40.1284220" lon="-4.7379600">
        <ele>1050.1</ele>
        <time>2020-10-04T09:15:41Z</time>
      </trkpt>
      <trkpt lat="40.1284390" lon="-4.7379330">
        <ele>1050.3</ele>
        <time>2020-10-04T09:15:43Z</time>
      </trkpt>
      <trkpt lat="40.1284650" lon="-4.7379060">
        <ele>1050.7</ele>
        <time>2020-10-04T09:15:44Z</time>
      </trkpt>
      <trkpt lat="40.1284720" lon="-4.7378990">
        <ele>1050.7</ele>
        <time>2020-10-04T09:15:45Z</time>
      </trkpt>
      <trkpt lat="40.1285080" lon="-4.7378560">
        <ele>1051.3</ele>
        <time>2020-10-04T09:15:47Z</time>
      </trkpt>
      <trkpt lat="40.1285190" lon="-4.7378450">
        <ele>1051.5</ele>
        <time>2020-10-04T09:15:49Z</time>
      </trkpt>
      <trkpt lat="40.1285310" lon="-4.7378350">
        <ele>1051.6</ele>
        <time>2020-10-04T09:15:50Z</time>
      </trkpt>
      <trkpt lat="40.1285560" lon="-4.7378130">
        <ele>1052.0</ele>
        <time>2020-10-04T09:15:51Z</time>
      </trkpt>
      <trkpt lat="40.1285650" lon="-4.7378080">
        <ele>1052.1</ele>
        <time>2020-10-04T09:15:52Z</time>
      </trkpt>
      <trkpt lat="40.1285960" lon="-4.7377630">
        <ele>1052.7</ele>
        <time>2020-10-04T09:15:54Z</time>
      </trkpt>
      <trkpt lat="40.1286050" lon="-4.7377480">
        <ele>1052.9</ele>
        <time>2020-10-04T09:15:55Z</time>
      </trkpt>
      <trkpt lat="40.1286150" lon="-4.7377330">
        <ele>1053.2</ele>
        <time>2020-10-04T09:15:56Z</time>
      </trkpt>
      <trkpt lat="40.1286440" lon="-4.7376940">
        <ele>1053.8</ele>
        <time>2020-10-04T09:15:58Z</time>
      </trkpt>
      <trkpt lat="40.1286640" lon="-4.7376770">
        <ele>1054.2</ele>
        <time>2020-10-04T09:15:59Z</time>
      </trkpt>
      <trkpt lat="40.1286920" lon="-4.7376470">
        <ele>1054.7</ele>
        <time>2020-10-04T09:16:01Z</time>
      </trkpt>
      <trkpt lat="40.1287140" lon="-4.7376240">
        <ele>1055.2</ele>
        <time>2020-10-04T09:16:02Z</time>
      </trkpt>
      <trkpt lat="40.1287390" lon="-4.7376070">
        <ele>1055.6</ele>
        <time>2020-10-04T09:16:03Z</time>
      </trkpt>
      <trkpt lat="40.1287460" lon="-4.7376030">
        <ele>1055.8</ele>
        <time>2020-10-04T09:16:04Z</time>
      </trkpt>
      <trkpt lat="40.1287780" lon="-4.7375810">
        <ele>1056.4</ele>
        <time>2020-10-04T09:16:06Z</time>
      </trkpt>
      <trkpt lat="40.1287880" lon="-4.7375730">
        <ele>1056.6</ele>
        <time>2020-10-04T09:16:07Z</time>
      </trkpt>
      <trkpt lat="40.1288140" lon="-4.7375510">
        <ele>1057.1</ele>
        <time>2020-10-04T09:16:08Z</time>
      </trkpt>
      <trkpt lat="40.1288240" lon="-4.7375420">
        <ele>1057.3</ele>
        <time>2020-10-04T09:16:09Z</time>
      </trkpt>
      <trkpt lat="40.1288430" lon="-4.7375180">
        <ele>1057.7</ele>
        <time>2020-10-04T09:16:10Z</time>
      </trkpt>
      <trkpt lat="40.1288680" lon="-4.7374870">
        <ele>1058.3</ele>
        <time>2020-10-04T09:16:11Z</time>
      </trkpt>
      <trkpt lat="40.1288770" lon="-4.7374760">
        <ele>1058.5</ele>
        <time>2020-10-04T09:16:12Z</time>
      </trkpt>
      <trkpt lat="40.1289080" lon="-4.7374330">
        <ele>1059.2</ele>
        <time>2020-10-04T09:16:14Z</time>
      </trkpt>
      <trkpt lat="40.1289190" lon="-4.7374180">
        <ele>1059.5</ele>
        <time>2020-10-04T09:16:15Z</time>
      </trkpt>
      <trkpt lat="40.1289300" lon="-4.7374030">
        <ele>1059.7</ele>
        <time>2020-10-04T09:16:16Z</time>
      </trkpt>
      <trkpt lat="40.1289570" lon="-4.7373790">
        <ele>1060.2</ele>
        <time>2020-10-04T09:16:17Z</time>
      </trkpt>
      <trkpt lat="40.1289660" lon="-4.7373710">
        <ele>1060.4</ele>
        <time>2020-10-04T09:16:18Z</time>
      </trkpt>
      <trkpt lat="40.1289840" lon="-4.7373530">
        <ele>1060.7</ele>
        <time>2020-10-04T09:16:19Z</time>
      </trkpt>
      <trkpt lat="40.1290000" lon="-4.7373260">
        <ele>1061.1</ele>
        <time>2020-10-04T09:16:21Z</time>
      </trkpt>
      <trkpt lat="40.1290110" lon="-4.7373000">
        <ele>1061.5</ele>
        <time>2020-10-04T09:16:22Z</time>
      </trkpt>
      <trkpt lat="40.1290180" lon="-4.7372750">
        <ele>1061.8</ele>
        <time>2020-10-04T09:16:24Z</time>
      </trkpt>
      <trkpt lat="40.1290290" lon="-4.7372540">
        <ele>1062.0</ele>
        <time>2020-10-04T09:16:25Z</time>
      </trkpt>
      <trkpt lat="40.1290380" lon="-4.7372440">
        <ele>1062.2</ele>
        <time>2020-10-04T09:16:26Z</time>
      </trkpt>
      <trkpt lat="40.1290490" lon="-4.7372330">
        <ele>1062.3</ele>
        <time>2020-10-04T09:16:27Z</time>
      </trkpt>
      <trkpt lat="40.1290690" lon="-4.7372230">
        <ele>1062.6</ele>
        <time>2020-10-04T09:16:29Z</time>
      </trkpt>
      <trkpt lat="40.1290810" lon="-4.7372180">
        <ele>1062.8</ele>
        <time>2020-10-04T09:16:30Z</time>
      </trkpt>
      <trkpt lat="40.1290890" lon="-4.7372130">
        <ele>1062.9</ele>
        <time>2020-10-04T09:16:32Z</time>
      </trkpt>
      <trkpt lat="40.1290980" lon="-4.7372070">
        <ele>1063.0</ele>
        <time>2020-10-04T09:16:33Z</time>
      </trkpt>
      <trkpt lat="40.1291210" lon="-4.7371890">
        <ele>1063.4</ele>
        <time>2020-10-04T09:16:34Z</time>
      </trkpt>
      <trkpt lat="40.1291310" lon="-4.7371800">
        <ele>1063.5</ele>
        <time>2020-10-04T09:16:35Z</time>
      </trkpt>
      <trkpt lat="40.1291450" lon="-4.7371680">
        <ele>1063.7</ele>
        <time>2020-10-04T09:16:37Z</time>
      </trkpt>
      <trkpt lat="40.1291550" lon="-4.7371570">
        <ele>1063.9</ele>
        <time>2020-10-04T09:16:38Z</time>
      </trkpt>
      <trkpt lat="40.1291770" lon="-4.7371390">
        <ele>1064.2</ele>
        <time>2020-10-04T09:16:39Z</time>
      </trkpt>
      <trkpt lat="40.1291880" lon="-4.7371310">
        <ele>1064.4</ele>
        <time>2020-10-04T09:16:40Z</time>
      </trkpt>
      <trkpt lat="40.1291990" lon="-4.7371210">
        <ele>1064.6</ele>
        <time>2020-10-04T09:16:41Z</time>
      </trkpt>
      <trkpt lat="40.1292130" lon="-4.7371110">
        <ele>1064.8</ele>
        <time>2020-10-04T09:16:42Z</time>
      </trkpt>
      <trkpt lat="40.1292280" lon="-4.7371000">
        <ele>1065.1</ele>
        <time>2020-10-04T09:16:43Z</time>
      </trkpt>
      <trkpt lat="40.1292650" lon="-4.7370740">
        <ele>1065.6</ele>
        <time>2020-10-04T09:16:45Z</time>
      </trkpt>
      <trkpt lat="40.1292900" lon="-4.7370390">
        <ele>1066.2</ele>
        <time>2020-10-04T09:16:47Z</time>
      </trkpt>
      <trkpt lat="40.1292980" lon="-4.7370270">
        <ele>1066.3</ele>
        <time>2020-10-04T09:16:48Z</time>
      </trkpt>
      <trkpt lat="40.1293280" lon="-4.7369880">
        <ele>1066.9</ele>
        <time>2020-10-04T09:16:50Z</time>
      </trkpt>
      <trkpt lat="40.1293480" lon="-4.7369540">
        <ele>1067.4</ele>
        <time>2020-10-04T09:16:51Z</time>
      </trkpt>
      <trkpt lat="40.1293550" lon="-4.7369420">
        <ele>1067.6</ele>
        <time>2020-10-04T09:16:52Z</time>
      </trkpt>
      <trkpt lat="40.1293720" lon="-4.7369170">
        <ele>1067.9</ele>
        <time>2020-10-04T09:16:53Z</time>
      </trkpt>
      <trkpt lat="40.1294180" lon="-4.7368650">
        <ele>1068.8</ele>
        <time>2020-10-04T09:16:55Z</time>
      </trkpt>
      <trkpt lat="40.1294520" lon="-4.7368320">
        <ele>1069.4</ele>
        <time>2020-10-04T09:16:57Z</time>
      </trkpt>
      <trkpt lat="40.1294650" lon="-4.7368200">
        <ele>1069.6</ele>
        <time>2020-10-04T09:16:58Z</time>
      </trkpt>
      <trkpt lat="40.1295150" lon="-4.7367870">
        <ele>1070.4</ele>
        <time>2020-10-04T09:17:00Z</time>
      </trkpt>
      <trkpt lat="40.1295520" lon="-4.7367590">
        <ele>1071.0</ele>
        <time>2020-10-04T09:17:02Z</time>
      </trkpt>
      <trkpt lat="40.1295750" lon="-4.7367310">
        <ele>1071.5</ele>
        <time>2020-10-04T09:17:03Z</time>
      </trkpt>
      <trkpt lat="40.1296040" lon="-4.7366940">
        <ele>1072.1</ele>
        <time>2020-10-04T09:17:05Z</time>
      </trkpt>
      <trkpt lat="40.1296350" lon="-4.7366500">
        <ele>1072.8</ele>
        <time>2020-10-04T09:17:06Z</time>
      </trkpt>
      <trkpt lat="40.1296590" lon="-4.7366170">
        <ele>1073.3</ele>
        <time>2020-10-04T09:17:07Z</time>
      </trkpt>
      <trkpt lat="40.1296840" lon="-4.7365830">
        <ele>1073.9</ele>
        <time>2020-10-04T09:17:08Z</time>
      </trkpt>
      <trkpt lat="40.1297120" lon="-4.7365400">
        <ele>1074.5</ele>
        <time>2020-10-04T09:17:10Z</time>
      </trkpt>
      <trkpt lat="40.1297370" lon="-4.7365080">
        <ele>1075.0</ele>
        <time>2020-10-04T09:17:11Z</time>
      </trkpt>
      <trkpt lat="40.1297450" lon="-4.7365000">
        <ele>1075.1</ele>
        <time>2020-10-04T09:17:12Z</time>
      </trkpt>
      <trkpt lat="40.1297550" lon="-4.7364880">
        <ele>1075.3</ele>
        <time>2020-10-04T09:17:13Z</time>
      </trkpt>
      <trkpt lat="40.1297730" lon="-4.7364660">
        <ele>1075.7</ele>
        <time>2020-10-04T09:17:15Z</time>
      </trkpt>
      <trkpt lat="40.1297870" lon="-4.7364410">
        <ele>1076.0</ele>
        <time>2020-10-04T09:17:16Z</time>
      </trkpt>
      <trkpt lat="40.1297980" lon="-4.7364100">
        <ele>1076.3</ele>
        <time>2020-10-04T09:17:18Z</time>
      </trkpt>
      <trkpt lat="40.1298100" lon="-4.7363740">
        <ele>1076.7</ele>
        <time>2020-10-04T09:17:19Z</time>
      </trkpt>
      <trkpt lat="40.1298130" lon="-4.7363650">
        <ele>1076.8</ele>
        <time>2020-10-04T09:17:20Z</time>
      </trkpt>
      <trkpt lat="40.1298190" lon="-4.7363440">
        <ele>1077.1</ele>
        <time>2020-10-04T09:17:21Z</time>
      </trkpt>
      <trkpt lat="40.1298270" lon="-4.7363160">
        <ele>1077.4</ele>
        <time>2020-10-04T09:17:23Z</time>
      </trkpt>
      <trkpt lat="40.1298430" lon="-4.7362820">
        <ele>1077.8</ele>
        <time>2020-10-04T09:17:24Z</time>
      </trkpt>
      <trkpt lat="40.1298490" lon="-4.7362690">
        <ele>1077.9</ele>
        <time>2020-10-04T09:17:25Z</time>
      </trkpt>
      <trkpt lat="40.1298690" lon="-4.7362330">
        <ele>1078.4</ele>
        <time>2020-10-04T09:17:27Z</time>
      </trkpt>
      <trkpt lat="40.1298760" lon="-4.7362210">
        <ele>1078.5</ele>
        <time>2020-10-04T09:17:28Z</time>
      </trkpt>
      <trkpt lat="40.1298880" lon="-4.7361950">
        <ele>1078.8</ele>
        <time>2020-10-04T09:17:29Z</time>
      </trkpt>
      <trkpt lat="40.1299070" lon="-4.7361630">
        <ele>1079.2</ele>
        <time>2020-10-04T09:17:31Z</time>
      </trkpt>
      <trkpt lat="40.1299270" lon="-4.7361250">
        <ele>1079.6</ele>
        <time>2020-10-04T09:17:32Z</time>
      </trkpt>
      <trkpt lat="40.1299480" lon="-4.7360940">
        <ele>1079.9</ele>
        <time>2020-10-04T09:17:33Z</time>
      </trkpt>
      <trkpt lat="40.1299680" lon="-4.7360680">
        <ele>1080.2</ele>
        <time>2020-10-04T09:17:34Z</time>
      </trkpt>
      <trkpt lat="40.1299920" lon="-4.7360380">
        <ele>1080.5</ele>
        <time>2020-10-04T09:17:36Z</time>
      </trkpt>
      <trkpt lat="40.1300110" lon="-4.7360200">
        <ele>1080.8</ele>
        <time>2020-10-04T09:17:37Z</time>
      </trkpt>
      <trkpt lat="40.1300330" lon="-4.7360080">
        <ele>1081.1</ele>
        <time>2020-10-04T09:17:39Z</time>
      </trkpt>
      <trkpt lat="40.1300620" lon="-4.7359950">
        <ele>1081.4</ele>
        <time>2020-10-04T09:17:40Z</time>
      </trkpt>
      <trkpt lat="40.1300730" lon="-4.7359920">
        <ele>1081.5</ele>
        <time>2020-10-04T09:17:41Z</time>
      </trkpt>
      <trkpt lat="40.1301050" lon="-4.7359710">
        <ele>1081.9</ele>
        <time>2020-10-04T09:17:43Z</time>
      </trkpt>
      <trkpt lat="40.1301350" lon="-4.7359560">
        <ele>1082.3</ele>
        <time>2020-10-04T09:17:44Z</time>
      </trkpt>
      <trkpt lat="40.1301440" lon="-4.7359510">
        <ele>1082.4</ele>
        <time>2020-10-04T09:17:45Z</time>
      </trkpt>
      <trkpt lat="40.1301870" lon="-4.7359390">
        <ele>1082.9</ele>
        <time>2020-10-04T09:17:47Z</time>
      </trkpt>
      <trkpt lat="40.1302100" lon="-4.7359310">
        <ele>1083.2</ele>
        <time>2020-10-04T09:17:48Z</time>
      </trkpt>
      <trkpt lat="40.1302390" lon="-4.7359180">
        <ele>1083.6</ele>
        <time>2020-10-04T09:17:50Z</time>
      </trkpt>
      <trkpt lat="40.1302740" lon="-4.7359020">
        <ele>1084.1</ele>
        <time>2020-10-04T09:17:51Z</time>
      </trkpt>
      <trkpt lat="40.1302850" lon="-4.7358980">
        <ele>1084.3</ele>
        <time>2020-10-04T09:17:52Z</time>
      </trkpt>
      <trkpt lat="40.1303150" lon="-4.7358860">
        <ele>1084.7</ele>
        <time>2020-10-04T09:17:54Z</time>
      </trkpt>
      <trkpt lat="40.1303450" lon="-4.7358680">
        <ele>1085.2</ele>
        <time>2020-10-04T09:17:55Z</time>
      </trkpt>
      <trkpt lat="40.1303580" lon="-4.7358530">
        <ele>1085.4</ele>
        <time>2020-10-04T09:17:56Z</time>
      </trkpt>
      <trkpt lat="40.1303720" lon="-4.7358300">
        <ele>1085.8</ele>
        <time>2020-10-04T09:17:58Z</time>
      </trkpt>
      <trkpt lat="40.1303840" lon="-4.7358160">
        <ele>1086.0</ele>
        <time>2020-10-04T09:17:59Z</time>
      </trkpt>
      <trkpt lat="40.1303930" lon="-4.7358010">
        <ele>1086.2</ele>
        <time>2020-10-04T09:18:00Z</time>
      </trkpt>
      <trkpt lat="40.1304160" lon="-4.7357670">
        <ele>1086.7</ele>
        <time>2020-10-04T09:18:02Z</time>
      </trkpt>
      <trkpt lat="40.1304200" lon="-4.7357560">
        <ele>1086.9</ele>
        <time>2020-10-04T09:18:03Z</time>
      </trkpt>
      <trkpt lat="40.1304330" lon="-4.7357250">
        <ele>1087.3</ele>
        <time>2020-10-04T09:18:04Z</time>
      </trkpt>
      <trkpt lat="40.1304550" lon="-4.7356880">
        <ele>1087.8</ele>
        <time>2020-10-04T09:18:06Z</time>
      </trkpt>
      <trkpt lat="40.1304670" lon="-4.7356660">
        <ele>1088.0</ele>
        <time>2020-10-04T09:18:07Z</time>
      </trkpt>
      <trkpt lat="40.1304830" lon="-4.7356400">
        <ele>1088.4</ele>
        <time>2020-10-04T09:18:09Z</time>
      </trkpt>
      <trkpt lat="40.1305000" lon="-4.7356210">
        <ele>1088.7</ele>
        <time>2020-10-04T09:18:10Z</time>
      </trkpt>
      <trkpt lat="40.1305090" lon="-4.7356080">
        <ele>1088.9</ele>
        <time>2020-10-04T09:18:11Z</time>
      </trkpt>
      <trkpt lat="40.1305250" lon="-4.7355760">
        <ele>1089.3</ele>
        <time>2020-10-04T09:18:13Z</time>
      </trkpt>
      <trkpt lat="40.1305340" lon="-4.7355570">
        <ele>1089.5</ele>
        <time>2020-10-04T09:18:14Z</time>
      </trkpt>
      <trkpt lat="40.1305480" lon="-4.7355430">
        <ele>1089.7</ele>
        <time>2020-10-04T09:18:15Z</time>
      </trkpt>
      <trkpt lat="40.1305590" lon="-4.7355240">
        <ele>1090.0</ele>
        <time>2020-10-04T09:18:16Z</time>
      </trkpt>
      <trkpt lat="40.1305800" lon="-4.7355020">
        <ele>1090.3</ele>
        <time>2020-10-04T09:18:18Z</time>
      </trkpt>
      <trkpt lat="40.1305970" lon="-4.7354680">
        <ele>1090.8</ele>
        <time>2020-10-04T09:18:19Z</time>
      </trkpt>
      <trkpt lat="40.1305990" lon="-4.7354590">
        <ele>1090.9</ele>
        <time>2020-10-04T09:18:20Z</time>
      </trkpt>
      <trkpt lat="40.1306220" lon="-4.7354180">
        <ele>1091.4</ele>
        <time>2020-10-04T09:18:22Z</time>
      </trkpt>
      <trkpt lat="40.1306310" lon="-4.7353850">
        <ele>1091.7</ele>
        <time>2020-10-04T09:18:23Z</time>
      </trkpt>
      <trkpt lat="40.1306410" lon="-4.7353630">
        <ele>1092.0</ele>
        <time>2020-10-04T09:18:25Z</time>
      </trkpt>
      <trkpt lat="40.1306540" lon="-4.7353240">
        <ele>1092.5</ele>
        <time>2020-10-04T09:18:26Z</time>
      </trkpt>
      <trkpt lat="40.1306560" lon="-4.7353140">
        <ele>1092.6</ele>
        <time>2020-10-04T09:18:27Z</time>
      </trkpt>
      <trkpt lat="40.1306640" lon="-4.7352930">
        <ele>1092.8</ele>
        <time>2020-10-04T09:18:28Z</time>
      </trkpt>
      <trkpt lat="40.1306770" lon="-4.7352700">
        <ele>1093.1</ele>
        <time>2020-10-04T09:18:30Z</time>
      </trkpt>
      <trkpt lat="40.1306930" lon="-4.7352340">
        <ele>1093.6</ele>
        <time>2020-10-04T09:18:31Z</time>
      </trkpt>
      <trkpt lat="40.1306990" lon="-4.7352220">
        <ele>1093.7</ele>
        <time>2020-10-04T09:18:32Z</time>
      </trkpt>
      <trkpt lat="40.1307070" lon="-4.7352070">
        <ele>1093.9</ele>
        <time>2020-10-04T09:18:33Z</time>
      </trkpt>
      <trkpt lat="40.1307150" lon="-4.7351850">
        <ele>1094.2</ele>
        <time>2020-10-04T09:18:35Z</time>
      </trkpt>
      <trkpt lat="40.1307230" lon="-4.7351700">
        <ele>1094.4</ele>
        <time>2020-10-04T09:18:36Z</time>
      </trkpt>
      <trkpt lat="40.1307340" lon="-4.7351540">
        <ele>1094.6</ele>
        <time>2020-10-04T09:18:37Z</time>
      </trkpt>
      <trkpt lat="40.1307430" lon="-4.7351300">
        <ele>1094.9</ele>
        <time>2020-10-04T09:18:38Z</time>
      </trkpt>
      <trkpt lat="40.1307520" lon="-4.7351140">
        <ele>1095.1</ele>
        <time>2020-10-04T09:18:39Z</time>
      </trkpt>
      <trkpt lat="40.1307710" lon="-4.7350650">
        <ele>1095.7</ele>
        <time>2020-10-04T09:18:41Z</time>
      </trkpt>
      <trkpt lat="40.1307750" lon="-4.7350460">
        <ele>1095.9</ele>
        <time>2020-10-04T09:18:42Z</time>
      </trkpt>
      <trkpt lat="40.1307800" lon="-4.7350230">
        <ele>1096.1</ele>
        <time>2020-10-04T09:18:43Z</time>
      </trkpt>
      <trkpt lat="40.1307910" lon="-4.7349840">
        <ele>1096.5</ele>
        <time>2020-10-04T09:18:45Z</time>
      </trkpt>
      <trkpt lat="40.1308040" lon="-4.7349490">
        <ele>1096.9</ele>
        <time>2020-10-04T09:18:46Z</time>
      </trkpt>
      <trkpt lat="40.1308070" lon="-4.7349370">
        <ele>1097.0</ele>
        <time>2020-10-04T09:18:47Z</time>
      </trkpt>
      <trkpt lat="40.1308250" lon="-4.7348970">
        <ele>1097.4</ele>
        <time>2020-10-04T09:18:49Z</time>
      </trkpt>
      <trkpt lat="40.1308330" lon="-4.7348810">
        <ele>1097.6</ele>
        <time>2020-10-04T09:18:50Z</time>
      </trkpt>
      <trkpt lat="40.1308560" lon="-4.7348430">
        <ele>1098.0</ele>
        <time>2020-10-04T09:18:52Z</time>
      </trkpt>
      <trkpt lat="40.1308750" lon="-4.7348110">
        <ele>1098.3</ele>
        <time>2020-10-04T09:18:54Z</time>
      </trkpt>
      <trkpt lat="40.1308920" lon="-4.7347820">
        <ele>1098.6</ele>
        <time>2020-10-04T09:18:55Z</time>
      </trkpt>
      <trkpt lat="40.1309140" lon="-4.7347430">
        <ele>1099.0</ele>
        <time>2020-10-04T09:18:56Z</time>
      </trkpt>
      <trkpt lat="40.1309210" lon="-4.7347310">
        <ele>1099.1</ele>
        <time>2020-10-04T09:18:57Z</time>
      </trkpt>
      <trkpt lat="40.1309430" lon="-4.7346830">
        <ele>1099.5</ele>
        <time>2020-10-04T09:18:59Z</time>
      </trkpt>
      <trkpt lat="40.1309510" lon="-4.7346640">
        <ele>1099.7</ele>
        <time>2020-10-04T09:19:00Z</time>
      </trkpt>
      <trkpt lat="40.1309610" lon="-4.7346460">
        <ele>1099.8</ele>
        <time>2020-10-04T09:19:01Z</time>
      </trkpt>
      <trkpt lat="40.1309760" lon="-4.7346200">
        <ele>1100.1</ele>
        <time>2020-10-04T09:19:03Z</time>
      </trkpt>
      <trkpt lat="40.1310030" lon="-4.7345780">
        <ele>1100.4</ele>
        <time>2020-10-04T09:19:04Z</time>
      </trkpt>
      <trkpt lat="40.1310130" lon="-4.7345600">
        <ele>1100.6</ele>
        <time>2020-10-04T09:19:05Z</time>
      </trkpt>
      <trkpt lat="40.1310470" lon="-4.7345070">
        <ele>1101.1</ele>
        <time>2020-10-04T09:19:07Z</time>
      </trkpt>
      <trkpt lat="40.1310580" lon="-4.7344870">
        <ele>1101.2</ele>
        <time>2020-10-04T09:19:08Z</time>
      </trkpt>
      <trkpt lat="40.1310700" lon="-4.7344670">
        <ele>1101.4</ele>
        <time>2020-10-04T09:19:09Z</time>
      </trkpt>
      <trkpt lat="40.1310950" lon="-4.7344130">
        <ele>1101.9</ele>
        <time>2020-10-04T09:19:11Z</time>
      </trkpt>
      <trkpt lat="40.1311110" lon="-4.7343790">
        <ele>1102.1</ele>
        <time>2020-10-04T09:19:12Z</time>
      </trkpt>
      <trkpt lat="40.1311370" lon="-4.7343370">
        <ele>1102.6</ele>
        <time>2020-10-04T09:19:13Z</time>
      </trkpt>
      <trkpt lat="40.1311460" lon="-4.7343230">
        <ele>1102.7</ele>
        <time>2020-10-04T09:19:14Z</time>
      </trkpt>
      <trkpt lat="40.1311660" lon="-4.7342900">
        <ele>1103.0</ele>
        <time>2020-10-04T09:19:15Z</time>
      </trkpt>
      <trkpt lat="40.1312000" lon="-4.7342450">
        <ele>1103.5</ele>
        <time>2020-10-04T09:19:17Z</time>
      </trkpt>
      <trkpt lat="40.1312140" lon="-4.7342290">
        <ele>1103.7</ele>
        <time>2020-10-04T09:19:18Z</time>
      </trkpt>
      <trkpt lat="40.1312270" lon="-4.7342140">
        <ele>1103.9</ele>
        <time>2020-10-04T09:19:19Z</time>
      </trkpt>
      <trkpt lat="40.1312670" lon="-4.7341920">
        <ele>1104.3</ele>
        <time>2020-10-04T09:19:21Z</time>
      </trkpt>
      <trkpt lat="40.1312800" lon="-4.7341850">
        <ele>1104.5</ele>
        <time>2020-10-04T09:19:22Z</time>
      </trkpt>
      <trkpt lat="40.1312930" lon="-4.7341780">
        <ele>1104.6</ele>
        <time>2020-10-04T09:19:23Z</time>
      </trkpt>
      <trkpt lat="40.1313080" lon="-4.7341670">
        <ele>1104.8</ele>
        <time>2020-10-04T09:19:24Z</time>
      </trkpt>
      <trkpt lat="40.1313320" lon="-4.7341520">
        <ele>1105.1</ele>
        <time>2020-10-04T09:19:26Z</time>
      </trkpt>
      <trkpt lat="40.1313640" lon="-4.7341360">
        <ele>1105.5</ele>
        <time>2020-10-04T09:19:27Z</time>
      </trkpt>
      <trkpt lat="40.1313730" lon="-4.7341300">
        <ele>1105.7</ele>
        <time>2020-10-04T09:19:28Z</time>
      </trkpt>
      <trkpt lat="40.1314100" lon="-4.7341190">
        <ele>1106.2</ele>
        <time>2020-10-04T09:19:29Z</time>
      </trkpt>
      <trkpt lat="40.1314220" lon="-4.7341140">
        <ele>1106.3</ele>
        <time>2020-10-04T09:19:30Z</time>
      </trkpt>
      <trkpt lat="40.1314750" lon="-4.7340910">
        <ele>1107.1</ele>
        <time>2020-10-04T09:19:32Z</time>
      </trkpt>
      <trkpt lat="40.1314940" lon="-4.7340810">
        <ele>1107.4</ele>
        <time>2020-10-04T09:19:34Z</time>
      </trkpt>
      <trkpt lat="40.1315130" lon="-4.7340700">
        <ele>1107.7</ele>
        <time>2020-10-04T09:19:35Z</time>
      </trkpt>
      <trkpt lat="40.1315320" lon="-4.7340600">
        <ele>1108.0</ele>
        <time>2020-10-04T09:19:36Z</time>
      </trkpt>
      <trkpt lat="40.1315680" lon="-4.7340420">
        <ele>1108.5</ele>
        <time>2020-10-04T09:19:37Z</time>
      </trkpt>
      <trkpt lat="40.1315800" lon="-4.7340360">
        <ele>1108.7</ele>
        <time>2020-10-04T09:19:38Z</time>
      </trkpt>
      <trkpt lat="40.1316250" lon="-4.7340090">
        <ele>1109.3</ele>
        <time>2020-10-04T09:19:40Z</time>
      </trkpt>
      <trkpt lat="40.1316720" lon="-4.7339750">
        <ele>1109.9</ele>
        <time>2020-10-04T09:19:42Z</time>
      </trkpt>
      <trkpt lat="40.1317030" lon="-4.7339460">
        <ele>1110.3</ele>
        <time>2020-10-04T09:19:43Z</time>
      </trkpt>
      <trkpt lat="40.1317310" lon="-4.7339180">
        <ele>1110.7</ele>
        <time>2020-10-04T09:19:44Z</time>
      </trkpt>
      <trkpt lat="40.1317530" lon="-4.7338950">
        <ele>1111.0</ele>
        <time>2020-10-04T09:19:45Z</time>
      </trkpt>
      <trkpt lat="40.1317780" lon="-4.7338710">
        <ele>1111.4</ele>
        <time>2020-10-04T09:19:46Z</time>
      </trkpt>
      <trkpt lat="40.1318080" lon="-4.7338470">
        <ele>1111.8</ele>
        <time>2020-10-04T09:19:48Z</time>
      </trkpt>
      <trkpt lat="40.1318170" lon="-4.7338380">
        <ele>1111.9</ele>
        <time>2020-10-04T09:19:49Z</time>
      </trkpt>
      <trkpt lat="40.1318480" lon="-4.7338080">
        <ele>1112.3</ele>
        <time>2020-10-04T09:19:50Z</time>
      </trkpt>
      <trkpt lat="40.1318750" lon="-4.7337850">
        <ele>1112.6</ele>
        <time>2020-10-04T09:19:51Z</time>
      </trkpt>
      <trkpt lat="40.1319050" lon="-4.7337590">
        <ele>1113.0</ele>
        <time>2020-10-04T09:19:53Z</time>
      </trkpt>
      <trkpt lat="40.1319330" lon="-4.7337340">
        <ele>1113.4</ele>
        <time>2020-10-04T09:19:54Z</time>
      </trkpt>
      <trkpt lat="40.1319570" lon="-4.7337100">
        <ele>1113.7</ele>
        <time>2020-10-04T09:19:55Z</time>
      </trkpt>
      <trkpt lat="40.1319860" lon="-4.7336770">
        <ele>1114.0</ele>
        <time>2020-10-04T09:19:56Z</time>
      </trkpt>
      <trkpt lat="40.1320140" lon="-4.7336510">
        <ele>1114.3</ele>
        <time>2020-10-04T09:19:57Z</time>
      </trkpt>
      <trkpt lat="40.1320610" lon="-4.7336170">
        <ele>1114.8</ele>
        <time>2020-10-04T09:19:59Z</time>
      </trkpt>
      <trkpt lat="40.1320970" lon="-4.7335900">
        <ele>1115.1</ele>
        <time>2020-10-04T09:20:00Z</time>
      </trkpt>
      <trkpt lat="40.1321250" lon="-4.7335650">
        <ele>1115.4</ele>
        <time>2020-10-04T09:20:01Z</time>
      </trkpt>
      <trkpt lat="40.1321510" lon="-4.7335490">
        <ele>1115.7</ele>
        <time>2020-10-04T09:20:02Z</time>
      </trkpt>
      <trkpt lat="40.1321860" lon="-4.7335240">
        <ele>1116.0</ele>
        <time>2020-10-04T09:20:04Z</time>
      </trkpt>
      <trkpt lat="40.1322130" lon="-4.7335070">
        <ele>1116.3</ele>
        <time>2020-10-04T09:20:05Z</time>
      </trkpt>
      <trkpt lat="40.1322590" lon="-4.7334780">
        <ele>1116.7</ele>
        <time>2020-10-04T09:20:06Z</time>
      </trkpt>
      <trkpt lat="40.1322870" lon="-4.7334640">
        <ele>1117.0</ele>
        <time>2020-10-04T09:20:08Z</time>
      </trkpt>
      <trkpt lat="40.1323260" lon="-4.7334410">
        <ele>1117.3</ele>
        <time>2020-10-04T09:20:09Z</time>
      </trkpt>
      <trkpt lat="40.1323560" lon="-4.7334140">
        <ele>1117.7</ele>
        <time>2020-10-04T09:20:10Z</time>
      </trkpt>
      <trkpt lat="40.1323970" lon="-4.7333780">
        <ele>1118.1</ele>
        <time>2020-10-04T09:20:11Z</time>
      </trkpt>
      <trkpt lat="40.1324360" lon="-4.7333440">
        <ele>1118.5</ele>
        <time>2020-10-04T09:20:13Z</time>
      </trkpt>
      <trkpt lat="40.1324680" lon="-4.7333120">
        <ele>1118.9</ele>
        <time>2020-10-04T09:20:14Z</time>
      </trkpt>
      <trkpt lat="40.1325020" lon="-4.7332800">
        <ele>1119.3</ele>
        <time>2020-10-04T09:20:15Z</time>
      </trkpt>
      <trkpt lat="40.1325300" lon="-4.7332510">
        <ele>1119.6</ele>
        <time>2020-10-04T09:20:16Z</time>
      </trkpt>
      <trkpt lat="40.1325630" lon="-4.7332190">
        <ele>1119.9</ele>
        <time>2020-10-04T09:20:17Z</time>
      </trkpt>
      <trkpt lat="40.1325920" lon="-4.7331900">
        <ele>1120.1</ele>
        <time>2020-10-04T09:20:18Z</time>
      </trkpt>
      <trkpt lat="40.1326470" lon="-4.7331230">
        <ele>1120.7</ele>
        <time>2020-10-04T09:20:20Z</time>
      </trkpt>
      <trkpt lat="40.1326790" lon="-4.7330670">
        <ele>1121.0</ele>
        <time>2020-10-04T09:20:21Z</time>
      </trkpt>
      <trkpt lat="40.1327120" lon="-4.7330170">
        <ele>1121.3</ele>
        <time>2020-10-04T09:20:23Z</time>
      </trkpt>
      <trkpt lat="40.1327560" lon="-4.7329730">
        <ele>1121.6</ele>
        <time>2020-10-04T09:20:24Z</time>
      </trkpt>
      <trkpt lat="40.1328100" lon="-4.7329390">
        <ele>1121.9</ele>
        <time>2020-10-04T09:20:25Z</time>
      </trkpt>
      <trkpt lat="40.1328710" lon="-4.7329110">
        <ele>1122.4</ele>
        <time>2020-10-04T09:20:27Z</time>
      </trkpt>
      <trkpt lat="40.1329040" lon="-4.7328960">
        <ele>1122.7</ele>
        <time>2020-10-04T09:20:28Z</time>
      </trkpt>
      <trkpt lat="40.1329370" lon="-4.7328840">
        <ele>1123.0</ele>
        <time>2020-10-04T09:20:29Z</time>
      </trkpt>
      <trkpt lat="40.1329650" lon="-4.7328750">
        <ele>1123.3</ele>
        <time>2020-10-04T09:20:30Z</time>
      </trkpt>
      <trkpt lat="40.1330050" lon="-4.7328660">
        <ele>1123.7</ele>
        <time>2020-10-04T09:20:32Z</time>
      </trkpt>
      <trkpt lat="40.1330280" lon="-4.7328670">
        <ele>1124.0</ele>
        <time>2020-10-04T09:20:33Z</time>
      </trkpt>
      <trkpt lat="40.1330700" lon="-4.7328760">
        <ele>1124.5</ele>
        <time>2020-10-04T09:20:35Z</time>
      </trkpt>
      <trkpt lat="40.1331060" lon="-4.7328960">
        <ele>1124.9</ele>
        <time>2020-10-04T09:20:36Z</time>
      </trkpt>
      <trkpt lat="40.1331340" lon="-4.7329220">
        <ele>1125.3</ele>
        <time>2020-10-04T09:20:37Z</time>
      </trkpt>
      <trkpt lat="40.1331650" lon="-4.7329600">
        <ele>1125.8</ele>
        <time>2020-10-04T09:20:39Z</time>
      </trkpt>
      <trkpt lat="40.1331820" lon="-4.7330010">
        <ele>1126.2</ele>
        <time>2020-10-04T09:20:40Z</time>
      </trkpt>
      <trkpt lat="40.1331920" lon="-4.7330380">
        <ele>1126.5</ele>
        <time>2020-10-04T09:20:41Z</time>
      </trkpt>
      <trkpt lat="40.1332100" lon="-4.7330940">
        <ele>1127.1</ele>
        <time>2020-10-04T09:20:43Z</time>
      </trkpt>
      <trkpt lat="40.1332180" lon="-4.7331120">
        <ele>1127.2</ele>
        <time>2020-10-04T09:20:44Z</time>
      </trkpt>
      <trkpt lat="40.1332260" lon="-4.7331310">
        <ele>1127.4</ele>
        <time>2020-10-04T09:20:45Z</time>
      </trkpt>
      <trkpt lat="40.1332470" lon="-4.7331730">
        <ele>1127.8</ele>
        <time>2020-10-04T09:20:47Z</time>
      </trkpt>
      <trkpt lat="40.1332580" lon="-4.7331880">
        <ele>1128.0</ele>
        <time>2020-10-04T09:20:48Z</time>
      </trkpt>
      <trkpt lat="40.1332730" lon="-4.7332130">
        <ele>1128.3</ele>
        <time>2020-10-04T09:20:49Z</time>
      </trkpt>
      <trkpt lat="40.1332920" lon="-4.7332470">
        <ele>1128.7</ele>
        <time>2020-10-04T09:20:51Z</time>
      </trkpt>
      <trkpt lat="40.1333210" lon="-4.7332760">
        <ele>1129.1</ele>
        <time>2020-10-04T09:20:52Z</time>
      </trkpt>
      <trkpt lat="40.1333310" lon="-4.7332850">
        <ele>1129.2</ele>
        <time>2020-10-04T09:20:53Z</time>
      </trkpt>
      <trkpt lat="40.1333620" lon="-4.7333220">
        <ele>1129.7</ele>
        <time>2020-10-04T09:20:54Z</time>
      </trkpt>
      <trkpt lat="40.1333740" lon="-4.7333380">
        <ele>1129.9</ele>
        <time>2020-10-04T09:20:55Z</time>
      </trkpt>
      <trkpt lat="40.1333950" lon="-4.7333700">
        <ele>1130.2</ele>
        <time>2020-10-04T09:20:56Z</time>
      </trkpt>
      <trkpt lat="40.1334030" lon="-4.7333830">
        <ele>1130.4</ele>
        <time>2020-10-04T09:20:57Z</time>
      </trkpt>
      <trkpt lat="40.1334260" lon="-4.7334180">
        <ele>1130.8</ele>
        <time>2020-10-04T09:20:59Z</time>
      </trkpt>
      <trkpt lat="40.1334480" lon="-4.7334580">
        <ele>1131.1</ele>
        <time>2020-10-04T09:21:00Z</time>
      </trkpt>
      <trkpt lat="40.1334710" lon="-4.7335110">
        <ele>1131.6</ele>
        <time>2020-10-04T09:21:02Z</time>
      </trkpt>
      <trkpt lat="40.1334900" lon="-4.7335570">
        <ele>1132.0</ele>
        <time>2020-10-04T09:21:04Z</time>
      </trkpt>
      <trkpt lat="40.1335080" lon="-4.7336000">
        <ele>1132.4</ele>
        <time>2020-10-04T09:21:05Z</time>
      </trkpt>
      <trkpt lat="40.1335160" lon="-4.7336190">
        <ele>1132.5</ele>
        <time>2020-10-04T09:21:06Z</time>
      </trkpt>
      <trkpt lat="40.1335300" lon="-4.7336590">
        <ele>1132.9</ele>
        <time>2020-10-04T09:21:07Z</time>
      </trkpt>
      <trkpt lat="40.1335430" lon="-4.7337060">
        <ele>1133.2</ele>
        <time>2020-10-04T09:21:09Z</time>
      </trkpt>
      <trkpt lat="40.1335520" lon="-4.7337460">
        <ele>1133.6</ele>
        <time>2020-10-04T09:21:10Z</time>
      </trkpt>
      <trkpt lat="40.1335600" lon="-4.7337940">
        <ele>1133.9</ele>
        <time>2020-10-04T09:21:11Z</time>
      </trkpt>
      <trkpt lat="40.1335630" lon="-4.7338110">
        <ele>1134.0</ele>
        <time>2020-10-04T09:21:12Z</time>
      </trkpt>
      <trkpt lat="40.1335760" lon="-4.7338700">
        <ele>1134.5</ele>
        <time>2020-10-04T09:21:14Z</time>
      </trkpt>
      <trkpt lat="40.1335850" lon="-4.7339110">
        <ele>1134.8</ele>
        <time>2020-10-04T09:21:15Z</time>
      </trkpt>
      <trkpt lat="40.1335970" lon="-4.7339630">
        <ele>1135.2</ele>
        <time>2020-10-04T09:21:17Z</time>
      </trkpt>
      <trkpt lat="40.1336020" lon="-4.7340130">
        <ele>1135.7</ele>
        <time>2020-10-04T09:21:18Z</time>
      </trkpt>
      <trkpt lat="40.1336030" lon="-4.7340650">
        <ele>1136.1</ele>
        <time>2020-10-04T09:21:20Z</time>
      </trkpt>
      <trkpt lat="40.1336050" lon="-4.7341150">
        <ele>1136.6</ele>
        <time>2020-10-04T09:21:21Z</time>
      </trkpt>
      <trkpt lat="40.1336050" lon="-4.7341480">
        <ele>1136.9</ele>
        <time>2020-10-04T09:21:22Z</time>
      </trkpt>
      <trkpt lat="40.1335980" lon="-4.7342150">
        <ele>1137.5</ele>
        <time>2020-10-04T09:21:24Z</time>
      </trkpt>
      <trkpt lat="40.1335950" lon="-4.7342540">
        <ele>1137.9</ele>
        <time>2020-10-04T09:21:25Z</time>
      </trkpt>
      <trkpt lat="40.1335940" lon="-4.7343000">
        <ele>1138.3</ele>
        <time>2020-10-04T09:21:26Z</time>
      </trkpt>
      <trkpt lat="40.1335940" lon="-4.7343530">
        <ele>1138.8</ele>
        <time>2020-10-04T09:21:28Z</time>
      </trkpt>
      <trkpt lat="40.1335920" lon="-4.7343920">
        <ele>1139.2</ele>
        <time>2020-10-04T09:21:29Z</time>
      </trkpt>
      <trkpt lat="40.1335900" lon="-4.7344330">
        <ele>1139.6</ele>
        <time>2020-10-04T09:21:30Z</time>
      </trkpt>
      <trkpt lat="40.1335880" lon="-4.7344960">
        <ele>1140.2</ele>
        <time>2020-10-04T09:21:32Z</time>
      </trkpt>
      <trkpt lat="40.1335890" lon="-4.7345440">
        <ele>1140.7</ele>
        <time>2020-10-04T09:21:33Z</time>
      </trkpt>
      <trkpt lat="40.1335910" lon="-4.7345600">
        <ele>1140.8</ele>
        <time>2020-10-04T09:21:34Z</time>
      </trkpt>
      <trkpt lat="40.1336070" lon="-4.7346030">
        <ele>1141.3</ele>
        <time>2020-10-04T09:21:36Z</time>
      </trkpt>
      <trkpt lat="40.1336130" lon="-4.7346130">
        <ele>1141.4</ele>
        <time>2020-10-04T09:21:37Z</time>
      </trkpt>
      <trkpt lat="40.1336350" lon="-4.7346410">
        <ele>1141.7</ele>
        <time>2020-10-04T09:21:38Z</time>
      </trkpt>
      <trkpt lat="40.1336560" lon="-4.7346680">
        <ele>1142.1</ele>
        <time>2020-10-04T09:21:40Z</time>
      </trkpt>
      <trkpt lat="40.1336870" lon="-4.7346870">
        <ele>1142.5</ele>
        <time>2020-10-04T09:21:41Z</time>
      </trkpt>
      <trkpt lat="40.1337200" lon="-4.7347120">
        <ele>1143.0</ele>
        <time>2020-10-04T09:21:43Z</time>
      </trkpt>
      <trkpt lat="40.1337480" lon="-4.7347340">
        <ele>1143.4</ele>
        <time>2020-10-04T09:21:44Z</time>
      </trkpt>
      <trkpt lat="40.1337590" lon="-4.7347440">
        <ele>1143.5</ele>
        <time>2020-10-04T09:21:45Z</time>
      </trkpt>
      <trkpt lat="40.1337880" lon="-4.7347620">
        <ele>1143.9</ele>
        <time>2020-10-04T09:21:46Z</time>
      </trkpt>
      <trkpt lat="40.1338140" lon="-4.7347660">
        <ele>1144.3</ele>
        <time>2020-10-04T09:21:47Z</time>
      </trkpt>
      <trkpt lat="40.1338410" lon="-4.7347610">
        <ele>1144.6</ele>
        <time>2020-10-04T09:21:49Z</time>
      </trkpt>
      <trkpt lat="40.1338700" lon="-4.7347460">
        <ele>1145.0</ele>
        <time>2020-10-04T09:21:50Z</time>
      </trkpt>
      <trkpt lat="40.1339050" lon="-4.7347080">
        <ele>1145.5</ele>
        <time>2020-10-04T09:21:52Z</time>
      </trkpt>
      <trkpt lat="40.1339250" lon="-4.7346740">
        <ele>1145.9</ele>
        <time>2020-10-04T09:21:53Z</time>
      </trkpt>
      <trkpt lat="40.1339500" lon="-4.7346390">
        <ele>1146.1</ele>
        <time>2020-10-04T09:21:55Z</time>
      </trkpt>
      <trkpt lat="40.1339720" lon="-4.7346070">
        <ele>1146.5</ele>
        <time>2020-10-04T09:21:56Z</time>
      </trkpt>
      <trkpt lat="40.1339880" lon="-4.7345750">
        <ele>1146.9</ele>
        <time>2020-10-04T09:21:57Z</time>
      </trkpt>
      <trkpt lat="40.1340060" lon="-4.7345320">
        <ele>1147.3</ele>
        <time>2020-10-04T09:21:59Z</time>
      </trkpt>
      <trkpt lat="40.1340120" lon="-4.7345180">
        <ele>1147.5</ele>
        <time>2020-10-04T09:22:00Z</time>
      </trkpt>
      <trkpt lat="40.1340300" lon="-4.7344740">
        <ele>1147.9</ele>
        <time>2020-10-04T09:22:01Z</time>
      </trkpt>
      <trkpt lat="40.1340360" lon="-4.7344600">
        <ele>1148.1</ele>
        <time>2020-10-04T09:22:02Z</time>
      </trkpt>
      <trkpt lat="40.1340500" lon="-4.7344380">
        <ele>1148.3</ele>
        <time>2020-10-04T09:22:03Z</time>
      </trkpt>
      <trkpt lat="40.1340660" lon="-4.7344170">
        <ele>1148.6</ele>
        <time>2020-10-04T09:22:05Z</time>
      </trkpt>
      <trkpt lat="40.1340960" lon="-4.7343930">
        <ele>1149.1</ele>
        <time>2020-10-04T09:22:06Z</time>
      </trkpt>
      <trkpt lat="40.1341050" lon="-4.7343860">
        <ele>1149.2</ele>
        <time>2020-10-04T09:22:07Z</time>
      </trkpt>
      <trkpt lat="40.1341270" lon="-4.7343690">
        <ele>1149.6</ele>
        <time>2020-10-04T09:22:08Z</time>
      </trkpt>
      <trkpt lat="40.1341510" lon="-4.7343520">
        <ele>1150.0</ele>
        <time>2020-10-04T09:22:10Z</time>
      </trkpt>
      <trkpt lat="40.1341800" lon="-4.7343370">
        <ele>1150.5</ele>
        <time>2020-10-04T09:22:11Z</time>
      </trkpt>
      <trkpt lat="40.1342050" lon="-4.7343230">
        <ele>1150.9</ele>
        <time>2020-10-04T09:22:13Z</time>
      </trkpt>
      <trkpt lat="40.1342330" lon="-4.7343070">
        <ele>1151.4</ele>
        <time>2020-10-04T09:22:14Z</time>
      </trkpt>
      <trkpt lat="40.1342680" lon="-4.7342900">
        <ele>1152.0</ele>
        <time>2020-10-04T09:22:15Z</time>
      </trkpt>
      <trkpt lat="40.1342790" lon="-4.7342820">
        <ele>1152.2</ele>
        <time>2020-10-04T09:22:16Z</time>
      </trkpt>
      <trkpt lat="40.1343190" lon="-4.7342600">
        <ele>1153.0</ele>
        <time>2020-10-04T09:22:18Z</time>
      </trkpt>
      <trkpt lat="40.1343330" lon="-4.7342540">
        <ele>1153.3</ele>
        <time>2020-10-04T09:22:19Z</time>
      </trkpt>
      <trkpt lat="40.1343480" lon="-4.7342480">
        <ele>1153.6</ele>
        <time>2020-10-04T09:22:20Z</time>
      </trkpt>
      <trkpt lat="40.1343650" lon="-4.7342420">
        <ele>1153.9</ele>
        <time>2020-10-04T09:22:21Z</time>
      </trkpt>
      <trkpt lat="40.1343980" lon="-4.7342320">
        <ele>1154.5</ele>
        <time>2020-10-04T09:22:23Z</time>
      </trkpt>
      <trkpt lat="40.1344200" lon="-4.7342230">
        <ele>1154.9</ele>
        <time>2020-10-04T09:22:24Z</time>
      </trkpt>
      <trkpt lat="40.1344540" lon="-4.7342200">
        <ele>1155.5</ele>
        <time>2020-10-04T09:22:26Z</time>
      </trkpt>
      <trkpt lat="40.1344890" lon="-4.7342190">
        <ele>1156.1</ele>
        <time>2020-10-04T09:22:27Z</time>
      </trkpt>
      <trkpt lat="40.1344970" lon="-4.7342180">
        <ele>1156.3</ele>
        <time>2020-10-04T09:22:28Z</time>
      </trkpt>
      <trkpt lat="40.1345270" lon="-4.7342290">
        <ele>1156.8</ele>
        <time>2020-10-04T09:22:30Z</time>
      </trkpt>
      <trkpt lat="40.1345380" lon="-4.7342360">
        <ele>1157.0</ele>
        <time>2020-10-04T09:22:31Z</time>
      </trkpt>
      <trkpt lat="40.1345610" lon="-4.7342540">
        <ele>1157.3</ele>
        <time>2020-10-04T09:22:32Z</time>
      </trkpt>
      <trkpt lat="40.1345860" lon="-4.7342720">
        <ele>1157.7</ele>
        <time>2020-10-04T09:22:34Z</time>
      </trkpt>
      <trkpt lat="40.1346140" lon="-4.7342940">
        <ele>1158.2</ele>
        <time>2020-10-04T09:22:35Z</time>
      </trkpt>
      <trkpt lat="40.1346350" lon="-4.7343100">
        <ele>1158.5</ele>
        <time>2020-10-04T09:22:36Z</time>
      </trkpt>
      <trkpt lat="40.1346690" lon="-4.7343380">
        <ele>1159.0</ele>
        <time>2020-10-04T09:22:38Z</time>
      </trkpt>
      <trkpt lat="40.1346920" lon="-4.7343570">
        <ele>1159.3</ele>
        <time>2020-10-04T09:22:39Z</time>
      </trkpt>
      <trkpt lat="40.1347080" lon="-4.7343720">
        <ele>1159.6</ele>
        <time>2020-10-04T09:22:40Z</time>
      </trkpt>
      <trkpt lat="40.1347320" lon="-4.7343990">
        <ele>1159.9</ele>
        <time>2020-10-04T09:22:42Z</time>
      </trkpt>
      <trkpt lat="40.1347460" lon="-4.7344140">
        <ele>1160.1</ele>
        <time>2020-10-04T09:22:43Z</time>
      </trkpt>
      <trkpt lat="40.1347580" lon="-4.7344280">
        <ele>1160.3</ele>
        <time>2020-10-04T09:22:44Z</time>
      </trkpt>
      <trkpt lat="40.1347670" lon="-4.7344410">
        <ele>1160.5</ele>
        <time>2020-10-04T09:22:45Z</time>
      </trkpt>
      <trkpt lat="40.1347790" lon="-4.7344590">
        <ele>1160.7</ele>
        <time>2020-10-04T09:22:46Z</time>
      </trkpt>
      <trkpt lat="40.1347980" lon="-4.7344790">
        <ele>1161.0</ele>
        <time>2020-10-04T09:22:47Z</time>
      </trkpt>
      <trkpt lat="40.1348250" lon="-4.7345130">
        <ele>1161.3</ele>
        <time>2020-10-04T09:22:49Z</time>
      </trkpt>
      <trkpt lat="40.1348600" lon="-4.7345580">
        <ele>1161.8</ele>
        <time>2020-10-04T09:22:51Z</time>
      </trkpt>
      <trkpt lat="40.1348720" lon="-4.7345730">
        <ele>1162.0</ele>
        <time>2020-10-04T09:22:52Z</time>
      </trkpt>
      <trkpt lat="40.1348850" lon="-4.7345880">
        <ele>1162.2</ele>
        <time>2020-10-04T09:22:53Z</time>
      </trkpt>
      <trkpt lat="40.1349120" lon="-4.7346210">
        <ele>1162.5</ele>
        <time>2020-10-04T09:22:54Z</time>
      </trkpt>
      <trkpt lat="40.1349230" lon="-4.7346370">
        <ele>1162.7</ele>
        <time>2020-10-04T09:22:55Z</time>
      </trkpt>
      <trkpt lat="40.1349450" lon="-4.7346680">
        <ele>1163.0</ele>
        <time>2020-10-04T09:22:57Z</time>
      </trkpt>
      <trkpt lat="40.1349620" lon="-4.7346960">
        <ele>1163.3</ele>
        <time>2020-10-04T09:22:58Z</time>
      </trkpt>
      <trkpt lat="40.1349850" lon="-4.7347330">
        <ele>1163.6</ele>
        <time>2020-10-04T09:22:59Z</time>
      </trkpt>
      <trkpt lat="40.1350040" lon="-4.7347670">
        <ele>1163.9</ele>
        <time>2020-10-04T09:23:00Z</time>
      </trkpt>
      <trkpt lat="40.1350190" lon="-4.7347910">
        <ele>1164.1</ele>
        <time>2020-10-04T09:23:01Z</time>
      </trkpt>
      <trkpt lat="40.1350510" lon="-4.7348370">
        <ele>1164.6</ele>
        <time>2020-10-04T09:23:03Z</time>
      </trkpt>
      <trkpt lat="40.1350760" lon="-4.7348690">
        <ele>1165.0</ele>
        <time>2020-10-04T09:23:05Z</time>
      </trkpt>
      <trkpt lat="40.1351030" lon="-4.7349060">
        <ele>1165.4</ele>
        <time>2020-10-04T09:23:06Z</time>
      </trkpt>
      <trkpt lat="40.1351240" lon="-4.7349330">
        <ele>1165.8</ele>
        <time>2020-10-04T09:23:08Z</time>
      </trkpt>
      <trkpt lat="40.1351480" lon="-4.7349650">
        <ele>1166.2</ele>
        <time>2020-10-04T09:23:09Z</time>
      </trkpt>
      <trkpt lat="40.1351730" lon="-4.7349910">
        <ele>1166.7</ele>
        <time>2020-10-04T09:23:11Z</time>
      </trkpt>
      <trkpt lat="40.1351970" lon="-4.7349980">
        <ele>1167.0</ele>
        <time>2020-10-04T09:23:12Z</time>
      </trkpt>
      <trkpt lat="40.1352290" lon="-4.7350010">
        <ele>1167.5</ele>
        <time>2020-10-04T09:23:14Z</time>
      </trkpt>
      <trkpt lat="40.1352420" lon="-4.7349810">
        <ele>1167.8</ele>
        <time>2020-10-04T09:23:15Z</time>
      </trkpt>
      <trkpt lat="40.1352430" lon="-4.7349590">
        <ele>1168.0</ele>
        <time>2020-10-04T09:23:16Z</time>
      </trkpt>
      <trkpt lat="40.1352460" lon="-4.7349130">
        <ele>1168.5</ele>
        <time>2020-10-04T09:23:17Z</time>
      </trkpt>
      <trkpt lat="40.1352430" lon="-4.7348700">
        <ele>1169.0</ele>
        <time>2020-10-04T09:23:19Z</time>
      </trkpt>
      <trkpt lat="40.1352430" lon="-4.7348310">
        <ele>1169.4</ele>
        <time>2020-10-04T09:23:20Z</time>
      </trkpt>
      <trkpt lat="40.1352430" lon="-4.7347470">
        <ele>1170.3</ele>
        <time>2020-10-04T09:23:22Z</time>
      </trkpt>
      <trkpt lat="40.1352430" lon="-4.7347010">
        <ele>1170.7</ele>
        <time>2020-10-04T09:23:23Z</time>
      </trkpt>
      <trkpt lat="40.1352460" lon="-4.7346540">
        <ele>1171.2</ele>
        <time>2020-10-04T09:23:24Z</time>
      </trkpt>
      <trkpt lat="40.1352500" lon="-4.7345890">
        <ele>1171.8</ele>
        <time>2020-10-04T09:23:26Z</time>
      </trkpt>
      <trkpt lat="40.1352510" lon="-4.7345270">
        <ele>1172.4</ele>
        <time>2020-10-04T09:23:27Z</time>
      </trkpt>
      <trkpt lat="40.1352510" lon="-4.7344820">
        <ele>1172.8</ele>
        <time>2020-10-04T09:23:28Z</time>
      </trkpt>
      <trkpt lat="40.1352540" lon="-4.7344440">
        <ele>1173.1</ele>
        <time>2020-10-04T09:23:29Z</time>
      </trkpt>
      <trkpt lat="40.1352590" lon="-4.7343930">
        <ele>1173.6</ele>
        <time>2020-10-04T09:23:31Z</time>
      </trkpt>
      <trkpt lat="40.1352640" lon="-4.7343330">
        <ele>1174.1</ele>
        <time>2020-10-04T09:23:32Z</time>
      </trkpt>
      <trkpt lat="40.1352720" lon="-4.7342710">
        <ele>1174.8</ele>
        <time>2020-10-04T09:23:34Z</time>
      </trkpt>
      <trkpt lat="40.1352750" lon="-4.7342340">
        <ele>1175.1</ele>
        <time>2020-10-04T09:23:35Z</time>
      </trkpt>
      <trkpt lat="40.1352780" lon="-4.7341980">
        <ele>1175.5</ele>
        <time>2020-10-04T09:23:36Z</time>
      </trkpt>
      <trkpt lat="40.1352810" lon="-4.7341440">
        <ele>1176.1</ele>
        <time>2020-10-04T09:23:38Z</time>
      </trkpt>
      <trkpt lat="40.1352780" lon="-4.7341040">
        <ele>1176.5</ele>
        <time>2020-10-04T09:23:39Z</time>
      </trkpt>
      <trkpt lat="40.1352730" lon="-4.7340650">
        <ele>1177.0</ele>
        <time>2020-10-04T09:23:40Z</time>
      </trkpt>
      <trkpt lat="40.1352650" lon="-4.7340290">
        <ele>1177.4</ele>
        <time>2020-10-04T09:23:41Z</time>
      </trkpt>
      <trkpt lat="40.1352560" lon="-4.7339710">
        <ele>1178.0</ele>
        <time>2020-10-04T09:23:43Z</time>
      </trkpt>
      <trkpt lat="40.1352510" lon="-4.7339290">
        <ele>1178.4</ele>
        <time>2020-10-04T09:23:44Z</time>
      </trkpt>
      <trkpt lat="40.1352480" lon="-4.7338970">
        <ele>1178.8</ele>
        <time>2020-10-04T09:23:45Z</time>
      </trkpt>
      <trkpt lat="40.1352390" lon="-4.7338630">
        <ele>1179.2</ele>
        <time>2020-10-04T09:23:47Z</time>
      </trkpt>
      <trkpt lat="40.1352280" lon="-4.7338280">
        <ele>1179.6</ele>
        <time>2020-10-04T09:23:48Z</time>
      </trkpt>
      <trkpt lat="40.1352250" lon="-4.7338130">
        <ele>1179.7</ele>
        <time>2020-10-04T09:23:49Z</time>
      </trkpt>
      <trkpt lat="40.1352250" lon="-4.7337750">
        <ele>1180.1</ele>
        <time>2020-10-04T09:23:50Z</time>
      </trkpt>
      <trkpt lat="40.1352250" lon="-4.7337340">
        <ele>1180.6</ele>
        <time>2020-10-04T09:23:51Z</time>
      </trkpt>
      <trkpt lat="40.1352240" lon="-4.7337200">
        <ele>1180.7</ele>
        <time>2020-10-04T09:23:52Z</time>
      </trkpt>
      <trkpt lat="40.1352200" lon="-4.7336810">
        <ele>1181.1</ele>
        <time>2020-10-04T09:23:54Z</time>
      </trkpt>
      <trkpt lat="40.1352160" lon="-4.7336300">
        <ele>1181.7</ele>
        <time>2020-10-04T09:23:55Z</time>
      </trkpt>
      <trkpt lat="40.1352140" lon="-4.7335790">
        <ele>1182.3</ele>
        <time>2020-10-04T09:23:57Z</time>
      </trkpt>
      <trkpt lat="40.1352110" lon="-4.7335260">
        <ele>1182.9</ele>
        <time>2020-10-04T09:23:59Z</time>
      </trkpt>
      <trkpt lat="40.1352070" lon="-4.7334820">
        <ele>1183.4</ele>
        <time>2020-10-04T09:24:00Z</time>
      </trkpt>
      <trkpt lat="40.1352060" lon="-4.7334690">
        <ele>1183.5</ele>
        <time>2020-10-04T09:24:01Z</time>
      </trkpt>
      <trkpt lat="40.1352010" lon="-4.7334200">
        <ele>1184.0</ele>
        <time>2020-10-04T09:24:03Z</time>
      </trkpt>
      <trkpt lat="40.1351920" lon="-4.7333650">
        <ele>1184.6</ele>
        <time>2020-10-04T09:24:05Z</time>
      </trkpt>
      <trkpt lat="40.1351850" lon="-4.7333470">
        <ele>1184.8</ele>
        <time>2020-10-04T09:24:06Z</time>
      </trkpt>
      <trkpt lat="40.1351790" lon="-4.7333300">
        <ele>1185.0</ele>
        <time>2020-10-04T09:24:07Z</time>
      </trkpt>
      <trkpt lat="40.1351650" lon="-4.7332890">
        <ele>1185.4</ele>
        <time>2020-10-04T09:24:09Z</time>
      </trkpt>
      <trkpt lat="40.1351600" lon="-4.7332560">
        <ele>1185.8</ele>
        <time>2020-10-04T09:24:10Z</time>
      </trkpt>
      <trkpt lat="40.1351570" lon="-4.7331890">
        <ele>1186.4</ele>
        <time>2020-10-04T09:24:12Z</time>
      </trkpt>
      <trkpt lat="40.1351540" lon="-4.7331540">
        <ele>1186.7</ele>
        <time>2020-10-04T09:24:13Z</time>
      </trkpt>
      <trkpt lat="40.1351480" lon="-4.7331260">
        <ele>1186.9</ele>
        <time>2020-10-04T09:24:14Z</time>
      </trkpt>
      <trkpt lat="40.1351410" lon="-4.7330930">
        <ele>1187.3</ele>
        <time>2020-10-04T09:24:16Z</time>
      </trkpt>
      <trkpt lat="40.1351370" lon="-4.7330440">
        <ele>1187.7</ele>
        <time>2020-10-04T09:24:17Z</time>
      </trkpt>
      <trkpt lat="40.1351360" lon="-4.7330300">
        <ele>1187.8</ele>
        <time>2020-10-04T09:24:18Z</time>
      </trkpt>
      <trkpt lat="40.1351350" lon="-4.7329870">
        <ele>1188.2</ele>
        <time>2020-10-04T09:24:19Z</time>
      </trkpt>
      <trkpt lat="40.1351320" lon="-4.7329230">
        <ele>1188.8</ele>
        <time>2020-10-04T09:24:21Z</time>
      </trkpt>
      <trkpt lat="40.1351300" lon="-4.7328970">
        <ele>1189.1</ele>
        <time>2020-10-04T09:24:22Z</time>
      </trkpt>
      <trkpt lat="40.1351280" lon="-4.7328720">
        <ele>1189.3</ele>
        <time>2020-10-04T09:24:23Z</time>
      </trkpt>
      <trkpt lat="40.1351220" lon="-4.7328120">
        <ele>1190.0</ele>
        <time>2020-10-04T09:24:25Z</time>
      </trkpt>
      <trkpt lat="40.1351200" lon="-4.7327570">
        <ele>1190.5</ele>
        <time>2020-10-04T09:24:26Z</time>
      </trkpt>
      <trkpt lat="40.1351190" lon="-4.7327380">
        <ele>1190.7</ele>
        <time>2020-10-04T09:24:27Z</time>
      </trkpt>
      <trkpt lat="40.1351200" lon="-4.7327010">
        <ele>1191.1</ele>
        <time>2020-10-04T09:24:29Z</time>
      </trkpt>
      <trkpt lat="40.1351200" lon="-4.7326550">
        <ele>1191.6</ele>
        <time>2020-10-04T09:24:30Z</time>
      </trkpt>
      <trkpt lat="40.1351180" lon="-4.7326250">
        <ele>1191.9</ele>
        <time>2020-10-04T09:24:31Z</time>
      </trkpt>
      <trkpt lat="40.1351150" lon="-4.7325850">
        <ele>1192.3</ele>
        <time>2020-10-04T09:24:33Z</time>
      </trkpt>
      <trkpt lat="40.1351140" lon="-4.7325460">
        <ele>1192.7</ele>
        <time>2020-10-04T09:24:34Z</time>
      </trkpt>
      <trkpt lat="40.1351140" lon="-4.7325010">
        <ele>1193.1</ele>
        <time>2020-10-04T09:24:36Z</time>
      </trkpt>
      <trkpt lat="40.1351150" lon="-4.7324600">
        <ele>1193.5</ele>
        <time>2020-10-04T09:24:37Z</time>
      </trkpt>
      <trkpt lat="40.1351180" lon="-4.7324230">
        <ele>1193.8</ele>
        <time>2020-10-04T09:24:38Z</time>
      </trkpt>
      <trkpt lat="40.1351190" lon="-4.7323840">
        <ele>1194.2</ele>
        <time>2020-10-04T09:24:40Z</time>
      </trkpt>
      <trkpt lat="40.1351190" lon="-4.7323540">
        <ele>1194.5</ele>
        <time>2020-10-04T09:24:41Z</time>
      </trkpt>
      <trkpt lat="40.1351170" lon="-4.7323000">
        <ele>1195.0</ele>
        <time>2020-10-04T09:24:43Z</time>
      </trkpt>
      <trkpt lat="40.1351140" lon="-4.7322560">
        <ele>1195.4</ele>
        <time>2020-10-04T09:24:44Z</time>
      </trkpt>
      <trkpt lat="40.1351150" lon="-4.7322050">
        <ele>1195.9</ele>
        <time>2020-10-04T09:24:46Z</time>
      </trkpt>
      <trkpt lat="40.1351120" lon="-4.7321660">
        <ele>1196.3</ele>
        <time>2020-10-04T09:24:47Z</time>
      </trkpt>
      <trkpt lat="40.1351080" lon="-4.7321280">
        <ele>1196.7</ele>
        <time>2020-10-04T09:24:48Z</time>
      </trkpt>
      <trkpt lat="40.1351060" lon="-4.7320820">
        <ele>1197.2</ele>
        <time>2020-10-04T09:24:50Z</time>
      </trkpt>
      <trkpt lat="40.1351100" lon="-4.7320510">
        <ele>1197.6</ele>
        <time>2020-10-04T09:24:51Z</time>
      </trkpt>
      <trkpt lat="40.1351120" lon="-4.7320030">
        <ele>1198.1</ele>
        <time>2020-10-04T09:24:53Z</time>
      </trkpt>
      <trkpt lat="40.1351130" lon="-4.7319550">
        <ele>1198.7</ele>
        <time>2020-10-04T09:24:54Z</time>
      </trkpt>
      <trkpt lat="40.1351120" lon="-4.7319080">
        <ele>1199.3</ele>
        <time>2020-10-04T09:24:56Z</time>
      </trkpt>
      <trkpt lat="40.1351090" lon="-4.7318710">
        <ele>1199.8</ele>
        <time>2020-10-04T09:24:57Z</time>
      </trkpt>
      <trkpt lat="40.1351050" lon="-4.7318320">
        <ele>1200.3</ele>
        <time>2020-10-04T09:24:58Z</time>
      </trkpt>
      <trkpt lat="40.1350930" lon="-4.7317750">
        <ele>1201.0</ele>
        <time>2020-10-04T09:24:59Z</time>
      </trkpt>
      <trkpt lat="40.1350840" lon="-4.7317280">
        <ele>1201.6</ele>
        <time>2020-10-04T09:25:00Z</time>
      </trkpt>
      <trkpt lat="40.1350790" lon="-4.7316850">
        <ele>1202.1</ele>
        <time>2020-10-04T09:25:01Z</time>
      </trkpt>
      <trkpt lat="40.1350710" lon="-4.7316420">
        <ele>1202.6</ele>
        <time>2020-10-04T09:25:03Z</time>
      </trkpt>
      <trkpt lat="40.1350630" lon="-4.7316070">
        <ele>1203.0</ele>
        <time>2020-10-04T09:25:04Z</time>
      </trkpt>
      <trkpt lat="40.1350640" lon="-4.7315620">
        <ele>1203.4</ele>
        <time>2020-10-04T09:25:05Z</time>
      </trkpt>
      <trkpt lat="40.1350660" lon="-4.7315470">
        <ele>1203.6</ele>
        <time>2020-10-04T09:25:06Z</time>
      </trkpt>
      <trkpt lat="40.1350660" lon="-4.7315260">
        <ele>1203.8</ele>
        <time>2020-10-04T09:25:07Z</time>
      </trkpt>
      <trkpt lat="40.1350670" lon="-4.7315050">
        <ele>1204.0</ele>
        <time>2020-10-04T09:25:08Z</time>
      </trkpt>
      <trkpt lat="40.1350730" lon="-4.7314560">
        <ele>1204.5</ele>
        <time>2020-10-04T09:25:10Z</time>
      </trkpt>
      <trkpt lat="40.1350750" lon="-4.7314410">
        <ele>1204.6</ele>
        <time>2020-10-04T09:25:11Z</time>
      </trkpt>
      <trkpt lat="40.1350770" lon="-4.7314100">
        <ele>1204.9</ele>
        <time>2020-10-04T09:25:12Z</time>
      </trkpt>
      <trkpt lat="40.1350820" lon="-4.7313730">
        <ele>1205.2</ele>
        <time>2020-10-04T09:25:14Z</time>
      </trkpt>
      <trkpt lat="40.1350840" lon="-4.7313430">
        <ele>1205.4</ele>
        <time>2020-10-04T09:25:15Z</time>
      </trkpt>
      <trkpt lat="40.1350900" lon="-4.7313070">
        <ele>1205.7</ele>
        <time>2020-10-04T09:25:17Z</time>
      </trkpt>
      <trkpt lat="40.1351070" lon="-4.7312740">
        <ele>1205.8</ele>
        <time>2020-10-04T09:25:18Z</time>
      </trkpt>
      <trkpt lat="40.1351120" lon="-4.7312640">
        <ele>1205.8</ele>
        <time>2020-10-04T09:25:19Z</time>
      </trkpt>
      <trkpt lat="40.1351150" lon="-4.7312580">
        <ele>1205.8</ele>
        <time>2020-10-04T09:25:20Z</time>
      </trkpt>
      <trkpt lat="40.1351190" lon="-4.7312480">
        <ele>1205.8</ele>
        <time>2020-10-04T09:25:22Z</time>
      </trkpt>
      <trkpt lat="40.1351230" lon="-4.7312240">
        <ele>1205.7</ele>
        <time>2020-10-04T09:25:23Z</time>
      </trkpt>
      <trkpt lat="40.1351230" lon="-4.7312060">
        <ele>1205.7</ele>
        <time>2020-10-04T09:25:24Z</time>
      </trkpt>
      <trkpt lat="40.1351210" lon="-4.7311860">
        <ele>1205.7</ele>
        <time>2020-10-04T09:25:25Z</time>
      </trkpt>
      <trkpt lat="40.1351260" lon="-4.7311620">
        <ele>1205.7</ele>
        <time>2020-10-04T09:25:27Z</time>
      </trkpt>
      <trkpt lat="40.1351330" lon="-4.7311490">
        <ele>1205.6</ele>
        <time>2020-10-04T09:25:28Z</time>
      </trkpt>
      <trkpt lat="40.1351400" lon="-4.7311490">
        <ele>1205.6</ele>
        <time>2020-10-04T09:25:30Z</time>
      </trkpt>
      <trkpt lat="40.1351530" lon="-4.7311590">
        <ele>1205.6</ele>
        <time>2020-10-04T09:25:31Z</time>
      </trkpt>
      <trkpt lat="40.1351630" lon="-4.7311700">
        <ele>1205.5</ele>
        <time>2020-10-04T09:25:32Z</time>
      </trkpt>
      <trkpt lat="40.1351690" lon="-4.7311940">
        <ele>1205.4</ele>
        <time>2020-10-04T09:25:33Z</time>
      </trkpt>
      <trkpt lat="40.1351790" lon="-4.7312400">
        <ele>1205.2</ele>
        <time>2020-10-04T09:25:35Z</time>
      </trkpt>
      <trkpt lat="40.1351830" lon="-4.7312750">
        <ele>1205.1</ele>
        <time>2020-10-04T09:25:36Z</time>
      </trkpt>
      <trkpt lat="40.1351850" lon="-4.7313320">
        <ele>1204.7</ele>
        <time>2020-10-04T09:25:38Z</time>
      </trkpt>
      <trkpt lat="40.1351780" lon="-4.7313570">
        <ele>1204.6</ele>
        <time>2020-10-04T09:25:39Z</time>
      </trkpt>
      <trkpt lat="40.1351680" lon="-4.7313690">
        <ele>1204.5</ele>
        <time>2020-10-04T09:25:40Z</time>
      </trkpt>
      <trkpt lat="40.1351430" lon="-4.7313620">
        <ele>1204.2</ele>
        <time>2020-10-04T09:25:42Z</time>
      </trkpt>
      <trkpt lat="40.1351320" lon="-4.7313560">
        <ele>1204.1</ele>
        <time>2020-10-04T09:25:43Z</time>
      </trkpt>
      <trkpt lat="40.1351070" lon="-4.7313370">
        <ele>1203.8</ele>
        <time>2020-10-04T09:25:45Z</time>
      </trkpt>
      <trkpt lat="40.1350860" lon="-4.7313180">
        <ele>1203.6</ele>
        <time>2020-10-04T09:25:47Z</time>
      </trkpt>
      <trkpt lat="40.1350710" lon="-4.7313090">
        <ele>1203.4</ele>
        <time>2020-10-04T09:25:49Z</time>
      </trkpt>
      <trkpt lat="40.1350620" lon="-4.7313100">
        <ele>1203.3</ele>
        <time>2020-10-04T09:25:51Z</time>
      </trkpt>
      <trkpt lat="40.1350580" lon="-4.7313200">
        <ele>1203.2</ele>
        <time>2020-10-04T09:25:53Z</time>
      </trkpt>
      <trkpt lat="40.1350520" lon="-4.7313330">
        <ele>1203.1</ele>
        <time>2020-10-04T09:25:54Z</time>
      </trkpt>
      <trkpt lat="40.1350540" lon="-4.7313410">
        <ele>1203.0</ele>
        <time>2020-10-04T09:25:56Z</time>
      </trkpt>
      <trkpt lat="40.1350560" lon="-4.7313510">
        <ele>1203.0</ele>
        <time>2020-10-04T09:25:57Z</time>
      </trkpt>
      <trkpt lat="40.1350550" lon="-4.7313590">
        <ele>1202.9</ele>
        <time>2020-10-04T09:25:59Z</time>
      </trkpt>
      <trkpt lat="40.1350520" lon="-4.7313700">
        <ele>1202.8</ele>
        <time>2020-10-04T09:26:00Z</time>
      </trkpt>
      <trkpt lat="40.1350520" lon="-4.7313770">
        <ele>1202.7</ele>
        <time>2020-10-04T09:26:02Z</time>
      </trkpt>
      <trkpt lat="40.1350530" lon="-4.7313850">
        <ele>1202.7</ele>
        <time>2020-10-04T09:26:04Z</time>
      </trkpt>
      <trkpt lat="40.1350520" lon="-4.7313970">
        <ele>1202.6</ele>
        <time>2020-10-04T09:26:06Z</time>
      </trkpt>
      <trkpt lat="40.1350530" lon="-4.7314030">
        <ele>1202.5</ele>
        <time>2020-10-04T09:26:08Z</time>
      </trkpt>
      <trkpt lat="40.1350570" lon="-4.7314100">
        <ele>1202.5</ele>
        <time>2020-10-04T09:26:10Z</time>
      </trkpt>
      <trkpt lat="40.1351550" lon="-4.7313790">
        <ele>1201.4</ele>
        <time>2020-10-04T09:31:07Z</time>
      </trkpt>
      <trkpt lat="40.1351670" lon="-4.7313600">
        <ele>1201.2</ele>
        <time>2020-10-04T09:31:09Z</time>
      </trkpt>
      <trkpt lat="40.1351790" lon="-4.7313430">
        <ele>1201.1</ele>
        <time>2020-10-04T09:31:10Z</time>
      </trkpt>
      <trkpt lat="40.1351900" lon="-4.7313290">
        <ele>1200.9</ele>
        <time>2020-10-04T09:31:11Z</time>
      </trkpt>
      <trkpt lat="40.1352040" lon="-4.7313110">
        <ele>1200.7</ele>
        <time>2020-10-04T09:31:13Z</time>
      </trkpt>
      <trkpt lat="40.1352240" lon="-4.7312810">
        <ele>1200.4</ele>
        <time>2020-10-04T09:31:14Z</time>
      </trkpt>
      <trkpt lat="40.1352380" lon="-4.7312590">
        <ele>1200.2</ele>
        <time>2020-10-04T09:31:15Z</time>
      </trkpt>
      <trkpt lat="40.1352550" lon="-4.7312280">
        <ele>1200.0</ele>
        <time>2020-10-04T09:31:17Z</time>
      </trkpt>
      <trkpt lat="40.1352740" lon="-4.7311980">
        <ele>1199.7</ele>
        <time>2020-10-04T09:31:18Z</time>
      </trkpt>
      <trkpt lat="40.1352940" lon="-4.7311650">
        <ele>1199.4</ele>
        <time>2020-10-04T09:31:19Z</time>
      </trkpt>
      <trkpt lat="40.1353180" lon="-4.7311280">
        <ele>1199.1</ele>
        <time>2020-10-04T09:31:21Z</time>
      </trkpt>
      <trkpt lat="40.1353400" lon="-4.7310920">
        <ele>1198.8</ele>
        <time>2020-10-04T09:31:22Z</time>
      </trkpt>
      <trkpt lat="40.1353950" lon="-4.7310040">
        <ele>1198.2</ele>
        <time>2020-10-04T09:31:23Z</time>
      </trkpt>
      <trkpt lat="40.1354610" lon="-4.7309040">
        <ele>1197.6</ele>
        <time>2020-10-04T09:31:24Z</time>
      </trkpt>
      <trkpt lat="40.1356140" lon="-4.7306770">
        <ele>1196.8</ele>
        <time>2020-10-04T09:31:25Z</time>
      </trkpt>
      <trkpt lat="40.1357570" lon="-4.7304740">
        <ele>1196.5</ele>
        <time>2020-10-04T09:31:27Z</time>
      </trkpt>
      <trkpt lat="40.1358210" lon="-4.7303800">
        <ele>1196.4</ele>
        <time>2020-10-04T09:31:28Z</time>
      </trkpt>
      <trkpt lat="40.1358840" lon="-4.7302940">
        <ele>1196.3</ele>
        <time>2020-10-04T09:31:29Z</time>
      </trkpt>
      <trkpt lat="40.1359380" lon="-4.7302120">
        <ele>1196.1</ele>
        <time>2020-10-04T09:31:30Z</time>
      </trkpt>
      <trkpt lat="40.1360330" lon="-4.7300880">
        <ele>1195.9</ele>
        <time>2020-10-04T09:31:32Z</time>
      </trkpt>
      <trkpt lat="40.1360850" lon="-4.7300270">
        <ele>1195.8</ele>
        <time>2020-10-04T09:31:34Z</time>
      </trkpt>
      <trkpt lat="40.1361270" lon="-4.7299690">
        <ele>1195.8</ele>
        <time>2020-10-04T09:31:36Z</time>
      </trkpt>
      <trkpt lat="40.1361450" lon="-4.7299260">
        <ele>1195.7</ele>
        <time>2020-10-04T09:31:37Z</time>
      </trkpt>
      <trkpt lat="40.1361700" lon="-4.7298600">
        <ele>1195.7</ele>
        <time>2020-10-04T09:31:39Z</time>
      </trkpt>
      <trkpt lat="40.1361910" lon="-4.7297970">
        <ele>1195.7</ele>
        <time>2020-10-04T09:31:40Z</time>
      </trkpt>
      <trkpt lat="40.1362070" lon="-4.7297400">
        <ele>1195.7</ele>
        <time>2020-10-04T09:31:42Z</time>
      </trkpt>
      <trkpt lat="40.1362220" lon="-4.7296830">
        <ele>1195.6</ele>
        <time>2020-10-04T09:31:43Z</time>
      </trkpt>
      <trkpt lat="40.1362430" lon="-4.7296250">
        <ele>1195.6</ele>
        <time>2020-10-04T09:31:45Z</time>
      </trkpt>
      <trkpt lat="40.1362500" lon="-4.7296070">
        <ele>1195.6</ele>
        <time>2020-10-04T09:31:46Z</time>
      </trkpt>
      <trkpt lat="40.1362570" lon="-4.7295880">
        <ele>1195.5</ele>
        <time>2020-10-04T09:31:47Z</time>
      </trkpt>
      <trkpt lat="40.1362630" lon="-4.7295700">
        <ele>1195.5</ele>
        <time>2020-10-04T09:31:48Z</time>
      </trkpt>
      <trkpt lat="40.1362740" lon="-4.7295330">
        <ele>1195.4</ele>
        <time>2020-10-04T09:31:50Z</time>
      </trkpt>
      <trkpt lat="40.1362880" lon="-4.7294990">
        <ele>1195.3</ele>
        <time>2020-10-04T09:31:51Z</time>
      </trkpt>
      <trkpt lat="40.1362980" lon="-4.7294620">
        <ele>1195.2</ele>
        <time>2020-10-04T09:31:52Z</time>
      </trkpt>
      <trkpt lat="40.1363190" lon="-4.7294100">
        <ele>1195.0</ele>
        <time>2020-10-04T09:31:54Z</time>
      </trkpt>
      <trkpt lat="40.1363390" lon="-4.7293590">
        <ele>1194.8</ele>
        <time>2020-10-04T09:31:55Z</time>
      </trkpt>
      <trkpt lat="40.1363760" lon="-4.7292570">
        <ele>1194.3</ele>
        <time>2020-10-04T09:31:56Z</time>
      </trkpt>
      <trkpt lat="40.1364390" lon="-4.7290890">
        <ele>1193.5</ele>
        <time>2020-10-04T09:31:58Z</time>
      </trkpt>
      <trkpt lat="40.1364740" lon="-4.7290010">
        <ele>1193.3</ele>
        <time>2020-10-04T09:32:00Z</time>
      </trkpt>
      <trkpt lat="40.1364900" lon="-4.7289520">
        <ele>1193.1</ele>
        <time>2020-10-04T09:32:01Z</time>
      </trkpt>
      <trkpt lat="40.1365290" lon="-4.7289120">
        <ele>1193.0</ele>
        <time>2020-10-04T09:32:02Z</time>
      </trkpt>
      <trkpt lat="40.1365810" lon="-4.7288490">
        <ele>1192.7</ele>
        <time>2020-10-04T09:32:04Z</time>
      </trkpt>
      <trkpt lat="40.1365990" lon="-4.7288180">
        <ele>1193.0</ele>
        <time>2020-10-04T09:32:05Z</time>
      </trkpt>
      <trkpt lat="40.1366080" lon="-4.7287600">
        <ele>1193.3</ele>
        <time>2020-10-04T09:32:07Z</time>
      </trkpt>
      <trkpt lat="40.1366170" lon="-4.7287370">
        <ele>1193.4</ele>
        <time>2020-10-04T09:32:08Z</time>
      </trkpt>
      <trkpt lat="40.1366430" lon="-4.7286910">
        <ele>1193.8</ele>
        <time>2020-10-04T09:32:10Z</time>
      </trkpt>
      <trkpt lat="40.1366590" lon="-4.7286460">
        <ele>1194.1</ele>
        <time>2020-10-04T09:32:12Z</time>
      </trkpt>
      <trkpt lat="40.1366730" lon="-4.7286220">
        <ele>1194.2</ele>
        <time>2020-10-04T09:32:13Z</time>
      </trkpt>
      <trkpt lat="40.1366920" lon="-4.7285700">
        <ele>1194.5</ele>
        <time>2020-10-04T09:32:15Z</time>
      </trkpt>
      <trkpt lat="40.1367080" lon="-4.7285330">
        <ele>1194.8</ele>
        <time>2020-10-04T09:32:16Z</time>
      </trkpt>
      <trkpt lat="40.1367320" lon="-4.7284830">
        <ele>1195.1</ele>
        <time>2020-10-04T09:32:18Z</time>
      </trkpt>
      <trkpt lat="40.1367520" lon="-4.7284340">
        <ele>1195.4</ele>
        <time>2020-10-04T09:32:19Z</time>
      </trkpt>
      <trkpt lat="40.1367590" lon="-4.7284160">
        <ele>1195.5</ele>
        <time>2020-10-04T09:32:20Z</time>
      </trkpt>
      <trkpt lat="40.1367730" lon="-4.7283620">
        <ele>1195.8</ele>
        <time>2020-10-04T09:32:22Z</time>
      </trkpt>
      <trkpt lat="40.1367830" lon="-4.7283350">
        <ele>1195.9</ele>
        <time>2020-10-04T09:32:23Z</time>
      </trkpt>
      <trkpt lat="40.1367950" lon="-4.7282820">
        <ele>1196.2</ele>
        <time>2020-10-04T09:32:25Z</time>
      </trkpt>
      <trkpt lat="40.1368020" lon="-4.7282500">
        <ele>1196.4</ele>
        <time>2020-10-04T09:32:26Z</time>
      </trkpt>
      <trkpt lat="40.1368130" lon="-4.7281850">
        <ele>1196.8</ele>
        <time>2020-10-04T09:32:28Z</time>
      </trkpt>
      <trkpt lat="40.1368230" lon="-4.7281320">
        <ele>1197.1</ele>
        <time>2020-10-04T09:32:29Z</time>
      </trkpt>
      <trkpt lat="40.1368250" lon="-4.7281110">
        <ele>1197.2</ele>
        <time>2020-10-04T09:32:30Z</time>
      </trkpt>
      <trkpt lat="40.1368270" lon="-4.7280680">
        <ele>1197.4</ele>
        <time>2020-10-04T09:32:31Z</time>
      </trkpt>
      <trkpt lat="40.1368350" lon="-4.7280140">
        <ele>1197.7</ele>
        <time>2020-10-04T09:32:33Z</time>
      </trkpt>
      <trkpt lat="40.1368400" lon="-4.7279850">
        <ele>1197.9</ele>
        <time>2020-10-04T09:32:34Z</time>
      </trkpt>
      <trkpt lat="40.1368500" lon="-4.7279300">
        <ele>1198.2</ele>
        <time>2020-10-04T09:32:36Z</time>
      </trkpt>
      <trkpt lat="40.1368590" lon="-4.7278740">
        <ele>1198.5</ele>
        <time>2020-10-04T09:32:38Z</time>
      </trkpt>
      <trkpt lat="40.1368670" lon="-4.7278140">
        <ele>1198.9</ele>
        <time>2020-10-04T09:32:40Z</time>
      </trkpt>
      <trkpt lat="40.1368660" lon="-4.7277480">
        <ele>1199.2</ele>
        <time>2020-10-04T09:32:42Z</time>
      </trkpt>
      <trkpt lat="40.1368680" lon="-4.7276800">
        <ele>1199.6</ele>
        <time>2020-10-04T09:32:44Z</time>
      </trkpt>
      <trkpt lat="40.1368680" lon="-4.7276410">
        <ele>1199.8</ele>
        <time>2020-10-04T09:32:45Z</time>
      </trkpt>
      <trkpt lat="40.1368660" lon="-4.7276060">
        <ele>1200.0</ele>
        <time>2020-10-04T09:32:46Z</time>
      </trkpt>
      <trkpt lat="40.1368620" lon="-4.7275490">
        <ele>1200.3</ele>
        <time>2020-10-04T09:32:48Z</time>
      </trkpt>
      <trkpt lat="40.1368550" lon="-4.7274800">
        <ele>1200.7</ele>
        <time>2020-10-04T09:32:50Z</time>
      </trkpt>
      <trkpt lat="40.1368600" lon="-4.7274050">
        <ele>1201.1</ele>
        <time>2020-10-04T09:32:52Z</time>
      </trkpt>
      <trkpt lat="40.1368510" lon="-4.7273430">
        <ele>1201.3</ele>
        <time>2020-10-04T09:32:54Z</time>
      </trkpt>
      <trkpt lat="40.1368440" lon="-4.7272690">
        <ele>1201.7</ele>
        <time>2020-10-04T09:32:56Z</time>
      </trkpt>
      <trkpt lat="40.1368370" lon="-4.7272040">
        <ele>1202.0</ele>
        <time>2020-10-04T09:32:58Z</time>
      </trkpt>
      <trkpt lat="40.1368180" lon="-4.7271330">
        <ele>1202.4</ele>
        <time>2020-10-04T09:33:00Z</time>
      </trkpt>
      <trkpt lat="40.1368010" lon="-4.7270730">
        <ele>1202.8</ele>
        <time>2020-10-04T09:33:02Z</time>
      </trkpt>
      <trkpt lat="40.1367860" lon="-4.7270190">
        <ele>1203.0</ele>
        <time>2020-10-04T09:33:03Z</time>
      </trkpt>
      <trkpt lat="40.1367790" lon="-4.7269970">
        <ele>1203.2</ele>
        <time>2020-10-04T09:33:04Z</time>
      </trkpt>
      <trkpt lat="40.1367640" lon="-4.7269430">
        <ele>1203.4</ele>
        <time>2020-10-04T09:33:06Z</time>
      </trkpt>
      <trkpt lat="40.1367570" lon="-4.7269030">
        <ele>1203.7</ele>
        <time>2020-10-04T09:33:07Z</time>
      </trkpt>
      <trkpt lat="40.1367450" lon="-4.7268410">
        <ele>1204.0</ele>
        <time>2020-10-04T09:33:09Z</time>
      </trkpt>
      <trkpt lat="40.1367370" lon="-4.7267860">
        <ele>1204.3</ele>
        <time>2020-10-04T09:33:11Z</time>
      </trkpt>
      <trkpt lat="40.1367320" lon="-4.7267300">
        <ele>1204.5</ele>
        <time>2020-10-04T09:33:12Z</time>
      </trkpt>
      <trkpt lat="40.1367300" lon="-4.7267010">
        <ele>1204.7</ele>
        <time>2020-10-04T09:33:13Z</time>
      </trkpt>
      <trkpt lat="40.1367230" lon="-4.7266390">
        <ele>1205.0</ele>
        <time>2020-10-04T09:33:15Z</time>
      </trkpt>
      <trkpt lat="40.1367200" lon="-4.7265990">
        <ele>1205.2</ele>
        <time>2020-10-04T09:33:16Z</time>
      </trkpt>
      <trkpt lat="40.1367160" lon="-4.7265540">
        <ele>1205.4</ele>
        <time>2020-10-04T09:33:17Z</time>
      </trkpt>
      <trkpt lat="40.1367160" lon="-4.7265150">
        <ele>1205.6</ele>
        <time>2020-10-04T09:33:18Z</time>
      </trkpt>
      <trkpt lat="40.1367170" lon="-4.7264770">
        <ele>1205.8</ele>
        <time>2020-10-04T09:33:19Z</time>
      </trkpt>
      <trkpt lat="40.1367240" lon="-4.7264020">
        <ele>1206.1</ele>
        <time>2020-10-04T09:33:21Z</time>
      </trkpt>
      <trkpt lat="40.1367330" lon="-4.7263470">
        <ele>1206.3</ele>
        <time>2020-10-04T09:33:22Z</time>
      </trkpt>
      <trkpt lat="40.1367410" lon="-4.7263050">
        <ele>1206.5</ele>
        <time>2020-10-04T09:33:24Z</time>
      </trkpt>
      <trkpt lat="40.1367540" lon="-4.7262540">
        <ele>1206.7</ele>
        <time>2020-10-04T09:33:25Z</time>
      </trkpt>
      <trkpt lat="40.1367700" lon="-4.7261900">
        <ele>1206.9</ele>
        <time>2020-10-04T09:33:27Z</time>
      </trkpt>
      <trkpt lat="40.1368020" lon="-4.7261320">
        <ele>1207.2</ele>
        <time>2020-10-04T09:33:29Z</time>
      </trkpt>
      <trkpt lat="40.1368220" lon="-4.7260990">
        <ele>1207.3</ele>
        <time>2020-10-04T09:33:30Z</time>
      </trkpt>
      <trkpt lat="40.1368450" lon="-4.7260710">
        <ele>1207.4</ele>
        <time>2020-10-04T09:33:31Z</time>
      </trkpt>
      <trkpt lat="40.1368940" lon="-4.7260210">
        <ele>1207.7</ele>
        <time>2020-10-04T09:33:33Z</time>
      </trkpt>
      <trkpt lat="40.1369560" lon="-4.7259740">
        <ele>1208.0</ele>
        <time>2020-10-04T09:33:35Z</time>
      </trkpt>
      <trkpt lat="40.1370180" lon="-4.7259290">
        <ele>1208.3</ele>
        <time>2020-10-04T09:33:37Z</time>
      </trkpt>
      <trkpt lat="40.1370800" lon="-4.7258870">
        <ele>1208.6</ele>
        <time>2020-10-04T09:33:39Z</time>
      </trkpt>
      <trkpt lat="40.1371250" lon="-4.7258600">
        <ele>1208.8</ele>
        <time>2020-10-04T09:33:41Z</time>
      </trkpt>
      <trkpt lat="40.1371560" lon="-4.7258380">
        <ele>1208.9</ele>
        <time>2020-10-04T09:33:42Z</time>
      </trkpt>
      <trkpt lat="40.1371890" lon="-4.7258160">
        <ele>1209.0</ele>
        <time>2020-10-04T09:33:43Z</time>
      </trkpt>
      <trkpt lat="40.1372330" lon="-4.7257820">
        <ele>1209.4</ele>
        <time>2020-10-04T09:33:44Z</time>
      </trkpt>
      <trkpt lat="40.1372840" lon="-4.7257450">
        <ele>1209.8</ele>
        <time>2020-10-04T09:33:46Z</time>
      </trkpt>
      <trkpt lat="40.1373140" lon="-4.7257230">
        <ele>1210.1</ele>
        <time>2020-10-04T09:33:47Z</time>
      </trkpt>
      <trkpt lat="40.1373420" lon="-4.7256990">
        <ele>1210.4</ele>
        <time>2020-10-04T09:33:48Z</time>
      </trkpt>
      <trkpt lat="40.1373790" lon="-4.7256690">
        <ele>1210.7</ele>
        <time>2020-10-04T09:33:50Z</time>
      </trkpt>
      <trkpt lat="40.1374140" lon="-4.7256330">
        <ele>1211.1</ele>
        <time>2020-10-04T09:33:51Z</time>
      </trkpt>
      <trkpt lat="40.1374370" lon="-4.7256090">
        <ele>1211.3</ele>
        <time>2020-10-04T09:33:52Z</time>
      </trkpt>
      <trkpt lat="40.1374710" lon="-4.7255580">
        <ele>1211.8</ele>
        <time>2020-10-04T09:33:54Z</time>
      </trkpt>
      <trkpt lat="40.1375100" lon="-4.7254960">
        <ele>1212.3</ele>
        <time>2020-10-04T09:33:56Z</time>
      </trkpt>
      <trkpt lat="40.1375300" lon="-4.7254650">
        <ele>1212.5</ele>
        <time>2020-10-04T09:33:57Z</time>
      </trkpt>
      <trkpt lat="40.1375440" lon="-4.7254350">
        <ele>1212.8</ele>
        <time>2020-10-04T09:33:58Z</time>
      </trkpt>
      <trkpt lat="40.1375710" lon="-4.7253760">
        <ele>1213.2</ele>
        <time>2020-10-04T09:34:00Z</time>
      </trkpt>
      <trkpt lat="40.1375890" lon="-4.7253400">
        <ele>1213.5</ele>
        <time>2020-10-04T09:34:01Z</time>
      </trkpt>
      <trkpt lat="40.1376020" lon="-4.7253080">
        <ele>1213.8</ele>
        <time>2020-10-04T09:34:02Z</time>
      </trkpt>
      <trkpt lat="40.1376140" lon="-4.7252800">
        <ele>1214.0</ele>
        <time>2020-10-04T09:34:03Z</time>
      </trkpt>
      <trkpt lat="40.1376310" lon="-4.7252370">
        <ele>1214.3</ele>
        <time>2020-10-04T09:34:05Z</time>
      </trkpt>
      <trkpt lat="40.1376380" lon="-4.7252010">
        <ele>1214.6</ele>
        <time>2020-10-04T09:34:06Z</time>
      </trkpt>
      <trkpt lat="40.1376440" lon="-4.7251470">
        <ele>1215.0</ele>
        <time>2020-10-04T09:34:08Z</time>
      </trkpt>
      <trkpt lat="40.1376420" lon="-4.7251090">
        <ele>1215.3</ele>
        <time>2020-10-04T09:34:10Z</time>
      </trkpt>
      <trkpt lat="40.1376390" lon="-4.7250880">
        <ele>1215.5</ele>
        <time>2020-10-04T09:34:11Z</time>
      </trkpt>
      <trkpt lat="40.1376270" lon="-4.7250540">
        <ele>1215.8</ele>
        <time>2020-10-04T09:34:13Z</time>
      </trkpt>
      <trkpt lat="40.1376240" lon="-4.7250420">
        <ele>1215.9</ele>
        <time>2020-10-04T09:34:14Z</time>
      </trkpt>
      <trkpt lat="40.1376220" lon="-4.7250160">
        <ele>1216.1</ele>
        <time>2020-10-04T09:34:16Z</time>
      </trkpt>
      <trkpt lat="40.1376190" lon="-4.7249850">
        <ele>1216.4</ele>
        <time>2020-10-04T09:34:17Z</time>
      </trkpt>
      <trkpt lat="40.1376280" lon="-4.7249340">
        <ele>1216.6</ele>
        <time>2020-10-04T09:34:19Z</time>
      </trkpt>
      <trkpt lat="40.1376370" lon="-4.7248910">
        <ele>1216.7</ele>
        <time>2020-10-04T09:34:20Z</time>
      </trkpt>
      <trkpt lat="40.1376550" lon="-4.7248300">
        <ele>1216.9</ele>
        <time>2020-10-04T09:34:22Z</time>
      </trkpt>
      <trkpt lat="40.1376610" lon="-4.7248090">
        <ele>1217.0</ele>
        <time>2020-10-04T09:34:23Z</time>
      </trkpt>
      <trkpt lat="40.1376660" lon="-4.7247870">
        <ele>1217.0</ele>
        <time>2020-10-04T09:34:24Z</time>
      </trkpt>
      <trkpt lat="40.1377100" lon="-4.7247450">
        <ele>1217.2</ele>
        <time>2020-10-04T09:34:26Z</time>
      </trkpt>
      <trkpt lat="40.1377520" lon="-4.7247120">
        <ele>1217.3</ele>
        <time>2020-10-04T09:34:28Z</time>
      </trkpt>
      <trkpt lat="40.1377870" lon="-4.7246890">
        <ele>1217.3</ele>
        <time>2020-10-04T09:34:29Z</time>
      </trkpt>
      <trkpt lat="40.1378170" lon="-4.7246720">
        <ele>1217.4</ele>
        <time>2020-10-04T09:34:30Z</time>
      </trkpt>
      <trkpt lat="40.1378840" lon="-4.7246390">
        <ele>1217.5</ele>
        <time>2020-10-04T09:34:32Z</time>
      </trkpt>
      <trkpt lat="40.1379360" lon="-4.7246190">
        <ele>1217.6</ele>
        <time>2020-10-04T09:34:33Z</time>
      </trkpt>
      <trkpt lat="40.1379890" lon="-4.7245980">
        <ele>1217.7</ele>
        <time>2020-10-04T09:34:34Z</time>
      </trkpt>
      <trkpt lat="40.1380380" lon="-4.7245720">
        <ele>1217.7</ele>
        <time>2020-10-04T09:34:35Z</time>
      </trkpt>
      <trkpt lat="40.1380970" lon="-4.7245390">
        <ele>1217.8</ele>
        <time>2020-10-04T09:34:37Z</time>
      </trkpt>
      <trkpt lat="40.1382140" lon="-4.7245020">
        <ele>1217.9</ele>
        <time>2020-10-04T09:34:39Z</time>
      </trkpt>
      <trkpt lat="40.1382670" lon="-4.7244870">
        <ele>1217.9</ele>
        <time>2020-10-04T09:34:40Z</time>
      </trkpt>
      <trkpt lat="40.1382980" lon="-4.7244700">
        <ele>1217.9</ele>
        <time>2020-10-04T09:34:41Z</time>
      </trkpt>
      <trkpt lat="40.1383380" lon="-4.7244540">
        <ele>1217.9</ele>
        <time>2020-10-04T09:34:42Z</time>
      </trkpt>
      <trkpt lat="40.1383950" lon="-4.7244310">
        <ele>1217.9</ele>
        <time>2020-10-04T09:34:44Z</time>
      </trkpt>
      <trkpt lat="40.1384400" lon="-4.7244010">
        <ele>1217.9</ele>
        <time>2020-10-04T09:34:45Z</time>
      </trkpt>
      <trkpt lat="40.1384790" lon="-4.7243720">
        <ele>1217.9</ele>
        <time>2020-10-04T09:34:46Z</time>
      </trkpt>
      <trkpt lat="40.1385370" lon="-4.7243230">
        <ele>1217.8</ele>
        <time>2020-10-04T09:34:48Z</time>
      </trkpt>
      <trkpt lat="40.1385880" lon="-4.7242750">
        <ele>1217.7</ele>
        <time>2020-10-04T09:34:50Z</time>
      </trkpt>
      <trkpt lat="40.1386350" lon="-4.7242270">
        <ele>1217.7</ele>
        <time>2020-10-04T09:34:51Z</time>
      </trkpt>
      <trkpt lat="40.1386700" lon="-4.7241830">
        <ele>1217.6</ele>
        <time>2020-10-04T09:34:52Z</time>
      </trkpt>
      <trkpt lat="40.1387060" lon="-4.7241200">
        <ele>1217.6</ele>
        <time>2020-10-04T09:34:54Z</time>
      </trkpt>
      <trkpt lat="40.1387290" lon="-4.7240610">
        <ele>1217.5</ele>
        <time>2020-10-04T09:34:55Z</time>
      </trkpt>
      <trkpt lat="40.1387490" lon="-4.7240170">
        <ele>1217.5</ele>
        <time>2020-10-04T09:34:56Z</time>
      </trkpt>
      <trkpt lat="40.1387700" lon="-4.7239800">
        <ele>1217.4</ele>
        <time>2020-10-04T09:34:57Z</time>
      </trkpt>
      <trkpt lat="40.1388170" lon="-4.7238740">
        <ele>1217.3</ele>
        <time>2020-10-04T09:34:59Z</time>
      </trkpt>
      <trkpt lat="40.1388400" lon="-4.7238250">
        <ele>1217.3</ele>
        <time>2020-10-04T09:35:00Z</time>
      </trkpt>
      <trkpt lat="40.1388870" lon="-4.7237220">
        <ele>1217.3</ele>
        <time>2020-10-04T09:35:02Z</time>
      </trkpt>
      <trkpt lat="40.1389340" lon="-4.7236410">
        <ele>1217.3</ele>
        <time>2020-10-04T09:35:04Z</time>
      </trkpt>
      <trkpt lat="40.1389920" lon="-4.7235570">
        <ele>1217.4</ele>
        <time>2020-10-04T09:35:06Z</time>
      </trkpt>
      <trkpt lat="40.1390420" lon="-4.7234990">
        <ele>1217.5</ele>
        <time>2020-10-04T09:35:08Z</time>
      </trkpt>
      <trkpt lat="40.1390830" lon="-4.7234610">
        <ele>1217.5</ele>
        <time>2020-10-04T09:35:09Z</time>
      </trkpt>
      <trkpt lat="40.1391410" lon="-4.7234090">
        <ele>1217.7</ele>
        <time>2020-10-04T09:35:11Z</time>
      </trkpt>
      <trkpt lat="40.1391850" lon="-4.7233810">
        <ele>1217.8</ele>
        <time>2020-10-04T09:35:12Z</time>
      </trkpt>
      <trkpt lat="40.1392220" lon="-4.7233620">
        <ele>1217.9</ele>
        <time>2020-10-04T09:35:13Z</time>
      </trkpt>
      <trkpt lat="40.1392540" lon="-4.7233470">
        <ele>1218.0</ele>
        <time>2020-10-04T09:35:14Z</time>
      </trkpt>
      <trkpt lat="40.1392850" lon="-4.7233330">
        <ele>1218.1</ele>
        <time>2020-10-04T09:35:15Z</time>
      </trkpt>
      <trkpt lat="40.1393330" lon="-4.7233100">
        <ele>1218.3</ele>
        <time>2020-10-04T09:35:17Z</time>
      </trkpt>
      <trkpt lat="40.1393720" lon="-4.7233000">
        <ele>1218.5</ele>
        <time>2020-10-04T09:35:18Z</time>
      </trkpt>
      <trkpt lat="40.1394170" lon="-4.7232870">
        <ele>1218.7</ele>
        <time>2020-10-04T09:35:20Z</time>
      </trkpt>
      <trkpt lat="40.1394540" lon="-4.7232740">
        <ele>1218.9</ele>
        <time>2020-10-04T09:35:21Z</time>
      </trkpt>
      <trkpt lat="40.1394910" lon="-4.7232600">
        <ele>1219.1</ele>
        <time>2020-10-04T09:35:22Z</time>
      </trkpt>
      <trkpt lat="40.1395240" lon="-4.7232420">
        <ele>1219.2</ele>
        <time>2020-10-04T09:35:23Z</time>
      </trkpt>
      <trkpt lat="40.1395750" lon="-4.7232050">
        <ele>1219.5</ele>
        <time>2020-10-04T09:35:25Z</time>
      </trkpt>
      <trkpt lat="40.1396050" lon="-4.7231880">
        <ele>1219.6</ele>
        <time>2020-10-04T09:35:26Z</time>
      </trkpt>
      <trkpt lat="40.1396330" lon="-4.7231690">
        <ele>1219.7</ele>
        <time>2020-10-04T09:35:27Z</time>
      </trkpt>
      <trkpt lat="40.1396980" lon="-4.7231360">
        <ele>1220.0</ele>
        <time>2020-10-04T09:35:29Z</time>
      </trkpt>
      <trkpt lat="40.1397390" lon="-4.7231250">
        <ele>1220.2</ele>
        <time>2020-10-04T09:35:30Z</time>
      </trkpt>
      <trkpt lat="40.1397820" lon="-4.7231080">
        <ele>1220.4</ele>
        <time>2020-10-04T09:35:31Z</time>
      </trkpt>
      <trkpt lat="40.1398330" lon="-4.7230890">
        <ele>1220.6</ele>
        <time>2020-10-04T09:35:33Z</time>
      </trkpt>
      <trkpt lat="40.1398620" lon="-4.7230850">
        <ele>1220.7</ele>
        <time>2020-10-04T09:35:34Z</time>
      </trkpt>
      <trkpt lat="40.1398860" lon="-4.7230760">
        <ele>1220.8</ele>
        <time>2020-10-04T09:35:35Z</time>
      </trkpt>
      <trkpt lat="40.1399230" lon="-4.7230730">
        <ele>1221.0</ele>
        <time>2020-10-04T09:35:37Z</time>
      </trkpt>
      <trkpt lat="40.1399580" lon="-4.7230810">
        <ele>1221.1</ele>
        <time>2020-10-04T09:35:38Z</time>
      </trkpt>
      <trkpt lat="40.1399890" lon="-4.7230870">
        <ele>1221.2</ele>
        <time>2020-10-04T09:35:39Z</time>
      </trkpt>
      <trkpt lat="40.1400250" lon="-4.7230740">
        <ele>1221.4</ele>
        <time>2020-10-04T09:35:40Z</time>
      </trkpt>
      <trkpt lat="40.1400660" lon="-4.7230550">
        <ele>1221.5</ele>
        <time>2020-10-04T09:35:42Z</time>
      </trkpt>
      <trkpt lat="40.1400930" lon="-4.7230480">
        <ele>1221.6</ele>
        <time>2020-10-04T09:35:43Z</time>
      </trkpt>
      <trkpt lat="40.1401320" lon="-4.7230310">
        <ele>1221.8</ele>
        <time>2020-10-04T09:35:44Z</time>
      </trkpt>
      <trkpt lat="40.1401660" lon="-4.7230210">
        <ele>1222.0</ele>
        <time>2020-10-04T09:35:45Z</time>
      </trkpt>
      <trkpt lat="40.1402280" lon="-4.7230010">
        <ele>1222.2</ele>
        <time>2020-10-04T09:35:47Z</time>
      </trkpt>
      <trkpt lat="40.1402830" lon="-4.7229900">
        <ele>1222.4</ele>
        <time>2020-10-04T09:35:49Z</time>
      </trkpt>
      <trkpt lat="40.1403180" lon="-4.7229790">
        <ele>1222.6</ele>
        <time>2020-10-04T09:35:50Z</time>
      </trkpt>
      <trkpt lat="40.1403690" lon="-4.7229660">
        <ele>1222.8</ele>
        <time>2020-10-04T09:35:51Z</time>
      </trkpt>
      <trkpt lat="40.1404180" lon="-4.7229700">
        <ele>1222.9</ele>
        <time>2020-10-04T09:35:53Z</time>
      </trkpt>
      <trkpt lat="40.1404770" lon="-4.7229950">
        <ele>1223.2</ele>
        <time>2020-10-04T09:35:54Z</time>
      </trkpt>
      <trkpt lat="40.1405160" lon="-4.7230100">
        <ele>1223.3</ele>
        <time>2020-10-04T09:35:55Z</time>
      </trkpt>
      <trkpt lat="40.1405790" lon="-4.7230340">
        <ele>1223.5</ele>
        <time>2020-10-04T09:35:57Z</time>
      </trkpt>
      <trkpt lat="40.1406430" lon="-4.7230640">
        <ele>1223.8</ele>
        <time>2020-10-04T09:35:59Z</time>
      </trkpt>
      <trkpt lat="40.1406860" lon="-4.7230770">
        <ele>1223.9</ele>
        <time>2020-10-04T09:36:00Z</time>
      </trkpt>
      <trkpt lat="40.1407420" lon="-4.7231090">
        <ele>1224.1</ele>
        <time>2020-10-04T09:36:02Z</time>
      </trkpt>
      <trkpt lat="40.1407950" lon="-4.7231670">
        <ele>1224.3</ele>
        <time>2020-10-04T09:36:04Z</time>
      </trkpt>
      <trkpt lat="40.1408340" lon="-4.7232010">
        <ele>1224.4</ele>
        <time>2020-10-04T09:36:05Z</time>
      </trkpt>
      <trkpt lat="40.1408810" lon="-4.7232330">
        <ele>1224.5</ele>
        <time>2020-10-04T09:36:07Z</time>
      </trkpt>
      <trkpt lat="40.1409280" lon="-4.7232650">
        <ele>1224.6</ele>
        <time>2020-10-04T09:36:08Z</time>
      </trkpt>
      <trkpt lat="40.1409720" lon="-4.7232930">
        <ele>1224.7</ele>
        <time>2020-10-04T09:36:09Z</time>
      </trkpt>
      <trkpt lat="40.1410010" lon="-4.7233120">
        <ele>1224.8</ele>
        <time>2020-10-04T09:36:10Z</time>
      </trkpt>
      <trkpt lat="40.1410660" lon="-4.7233600">
        <ele>1224.9</ele>
        <time>2020-10-04T09:36:12Z</time>
      </trkpt>
      <trkpt lat="40.1411050" lon="-4.7233870">
        <ele>1224.9</ele>
        <time>2020-10-04T09:36:13Z</time>
      </trkpt>
      <trkpt lat="40.1411450" lon="-4.7234080">
        <ele>1225.0</ele>
        <time>2020-10-04T09:36:14Z</time>
      </trkpt>
      <trkpt lat="40.1412080" lon="-4.7234470">
        <ele>1225.0</ele>
        <time>2020-10-04T09:36:16Z</time>
      </trkpt>
      <trkpt lat="40.1412520" lon="-4.7234780">
        <ele>1225.1</ele>
        <time>2020-10-04T09:36:17Z</time>
      </trkpt>
      <trkpt lat="40.1413050" lon="-4.7235290">
        <ele>1225.1</ele>
        <time>2020-10-04T09:36:19Z</time>
      </trkpt>
      <trkpt lat="40.1413490" lon="-4.7235590">
        <ele>1225.1</ele>
        <time>2020-10-04T09:36:20Z</time>
      </trkpt>
      <trkpt lat="40.1414020" lon="-4.7235900">
        <ele>1225.1</ele>
        <time>2020-10-04T09:36:22Z</time>
      </trkpt>
      <trkpt lat="40.1414470" lon="-4.7236120">
        <ele>1225.1</ele>
        <time>2020-10-04T09:36:23Z</time>
      </trkpt>
      <trkpt lat="40.1414840" lon="-4.7236220">
        <ele>1225.1</ele>
        <time>2020-10-04T09:36:24Z</time>
      </trkpt>
      <trkpt lat="40.1415370" lon="-4.7236380">
        <ele>1225.1</ele>
        <time>2020-10-04T09:36:26Z</time>
      </trkpt>
      <trkpt lat="40.1415740" lon="-4.7236800">
        <ele>1225.0</ele>
        <time>2020-10-04T09:36:28Z</time>
      </trkpt>
      <trkpt lat="40.1416070" lon="-4.7237060">
        <ele>1224.9</ele>
        <time>2020-10-04T09:36:29Z</time>
      </trkpt>
      <trkpt lat="40.1416470" lon="-4.7237210">
        <ele>1224.9</ele>
        <time>2020-10-04T09:36:30Z</time>
      </trkpt>
      <trkpt lat="40.1416900" lon="-4.7237370">
        <ele>1224.7</ele>
        <time>2020-10-04T09:36:32Z</time>
      </trkpt>
      <trkpt lat="40.1417440" lon="-4.7237610">
        <ele>1224.6</ele>
        <time>2020-10-04T09:36:33Z</time>
      </trkpt>
      <trkpt lat="40.1417780" lon="-4.7237740">
        <ele>1224.4</ele>
        <time>2020-10-04T09:36:34Z</time>
      </trkpt>
      <trkpt lat="40.1418400" lon="-4.7237840">
        <ele>1224.2</ele>
        <time>2020-10-04T09:36:36Z</time>
      </trkpt>
      <trkpt lat="40.1418830" lon="-4.7237860">
        <ele>1224.1</ele>
        <time>2020-10-04T09:36:37Z</time>
      </trkpt>
      <trkpt lat="40.1419180" lon="-4.7237860">
        <ele>1224.0</ele>
        <time>2020-10-04T09:36:38Z</time>
      </trkpt>
      <trkpt lat="40.1420010" lon="-4.7237940">
        <ele>1223.7</ele>
        <time>2020-10-04T09:36:40Z</time>
      </trkpt>
      <trkpt lat="40.1420880" lon="-4.7237920">
        <ele>1223.4</ele>
        <time>2020-10-04T09:36:41Z</time>
      </trkpt>
      <trkpt lat="40.1421320" lon="-4.7237900">
        <ele>1223.2</ele>
        <time>2020-10-04T09:36:42Z</time>
      </trkpt>
      <trkpt lat="40.1422190" lon="-4.7237870">
        <ele>1222.8</ele>
        <time>2020-10-04T09:36:44Z</time>
      </trkpt>
      <trkpt lat="40.1422840" lon="-4.7237640">
        <ele>1222.5</ele>
        <time>2020-10-04T09:36:45Z</time>
      </trkpt>
      <trkpt lat="40.1423490" lon="-4.7237280">
        <ele>1222.3</ele>
        <time>2020-10-04T09:36:46Z</time>
      </trkpt>
      <trkpt lat="40.1424070" lon="-4.7236870">
        <ele>1222.0</ele>
        <time>2020-10-04T09:36:48Z</time>
      </trkpt>
      <trkpt lat="40.1424680" lon="-4.7236480">
        <ele>1221.7</ele>
        <time>2020-10-04T09:36:49Z</time>
      </trkpt>
      <trkpt lat="40.1425370" lon="-4.7235860">
        <ele>1221.3</ele>
        <time>2020-10-04T09:36:51Z</time>
      </trkpt>
      <trkpt lat="40.1425860" lon="-4.7235480">
        <ele>1221.0</ele>
        <time>2020-10-04T09:36:52Z</time>
      </trkpt>
      <trkpt lat="40.1426440" lon="-4.7234910">
        <ele>1220.7</ele>
        <time>2020-10-04T09:36:54Z</time>
      </trkpt>
      <trkpt lat="40.1426910" lon="-4.7234530">
        <ele>1220.4</ele>
        <time>2020-10-04T09:36:55Z</time>
      </trkpt>
      <trkpt lat="40.1427310" lon="-4.7234250">
        <ele>1220.1</ele>
        <time>2020-10-04T09:36:56Z</time>
      </trkpt>
      <trkpt lat="40.1428010" lon="-4.7233900">
        <ele>1219.7</ele>
        <time>2020-10-04T09:36:58Z</time>
      </trkpt>
      <trkpt lat="40.1428580" lon="-4.7233770">
        <ele>1219.5</ele>
        <time>2020-10-04T09:36:59Z</time>
      </trkpt>
      <trkpt lat="40.1429630" lon="-4.7233920">
        <ele>1219.0</ele>
        <time>2020-10-04T09:37:01Z</time>
      </trkpt>
      <trkpt lat="40.1430710" lon="-4.7234010">
        <ele>1218.6</ele>
        <time>2020-10-04T09:37:03Z</time>
      </trkpt>
      <trkpt lat="40.1431280" lon="-4.7233940">
        <ele>1218.3</ele>
        <time>2020-10-04T09:37:04Z</time>
      </trkpt>
      <trkpt lat="40.1431860" lon="-4.7233780">
        <ele>1218.1</ele>
        <time>2020-10-04T09:37:05Z</time>
      </trkpt>
      <trkpt lat="40.1432850" lon="-4.7233670">
        <ele>1217.7</ele>
        <time>2020-10-04T09:37:07Z</time>
      </trkpt>
      <trkpt lat="40.1433450" lon="-4.7233590">
        <ele>1217.5</ele>
        <time>2020-10-04T09:37:08Z</time>
      </trkpt>
      <trkpt lat="40.1434100" lon="-4.7233560">
        <ele>1217.2</ele>
        <time>2020-10-04T09:37:09Z</time>
      </trkpt>
      <trkpt lat="40.1434720" lon="-4.7233560">
        <ele>1217.0</ele>
        <time>2020-10-04T09:37:11Z</time>
      </trkpt>
      <trkpt lat="40.1435440" lon="-4.7233650">
        <ele>1216.7</ele>
        <time>2020-10-04T09:37:12Z</time>
      </trkpt>
      <trkpt lat="40.1436470" lon="-4.7233630">
        <ele>1216.4</ele>
        <time>2020-10-04T09:37:14Z</time>
      </trkpt>
      <trkpt lat="40.1437140" lon="-4.7233590">
        <ele>1216.3</ele>
        <time>2020-10-04T09:37:16Z</time>
      </trkpt>
      <trkpt lat="40.1437770" lon="-4.7233520">
        <ele>1216.1</ele>
        <time>2020-10-04T09:37:17Z</time>
      </trkpt>
      <trkpt lat="40.1438580" lon="-4.7233400">
        <ele>1215.9</ele>
        <time>2020-10-04T09:37:19Z</time>
      </trkpt>
      <trkpt lat="40.1439250" lon="-4.7233310">
        <ele>1215.8</ele>
        <time>2020-10-04T09:37:21Z</time>
      </trkpt>
      <trkpt lat="40.1439810" lon="-4.7233240">
        <ele>1215.7</ele>
        <time>2020-10-04T09:37:22Z</time>
      </trkpt>
      <trkpt lat="40.1440200" lon="-4.7233240">
        <ele>1215.6</ele>
        <time>2020-10-04T09:37:23Z</time>
      </trkpt>
      <trkpt lat="40.1440550" lon="-4.7233220">
        <ele>1215.6</ele>
        <time>2020-10-04T09:37:24Z</time>
      </trkpt>
      <trkpt lat="40.1441220" lon="-4.7233160">
        <ele>1215.5</ele>
        <time>2020-10-04T09:37:26Z</time>
      </trkpt>
      <trkpt lat="40.1441780" lon="-4.7233110">
        <ele>1215.4</ele>
        <time>2020-10-04T09:37:27Z</time>
      </trkpt>
      <trkpt lat="40.1442260" lon="-4.7233080">
        <ele>1215.4</ele>
        <time>2020-10-04T09:37:28Z</time>
      </trkpt>
      <trkpt lat="40.1442700" lon="-4.7233040">
        <ele>1215.4</ele>
        <time>2020-10-04T09:37:29Z</time>
      </trkpt>
      <trkpt lat="40.1443170" lon="-4.7232970">
        <ele>1215.4</ele>
        <time>2020-10-04T09:37:31Z</time>
      </trkpt>
      <trkpt lat="40.1443550" lon="-4.7232970">
        <ele>1215.4</ele>
        <time>2020-10-04T09:37:32Z</time>
      </trkpt>
      <trkpt lat="40.1443930" lon="-4.7232930">
        <ele>1215.4</ele>
        <time>2020-10-04T09:37:33Z</time>
      </trkpt>
      <trkpt lat="40.1444250" lon="-4.7232900">
        <ele>1215.4</ele>
        <time>2020-10-04T09:37:34Z</time>
      </trkpt>
      <trkpt lat="40.1444460" lon="-4.7232870">
        <ele>1215.5</ele>
        <time>2020-10-04T09:37:35Z</time>
      </trkpt>
      <trkpt lat="40.1444800" lon="-4.7232840">
        <ele>1215.5</ele>
        <time>2020-10-04T09:37:37Z</time>
      </trkpt>
      <trkpt lat="40.1445200" lon="-4.7232860">
        <ele>1215.5</ele>
        <time>2020-10-04T09:37:39Z</time>
      </trkpt>
      <trkpt lat="40.1445560" lon="-4.7232900">
        <ele>1215.5</ele>
        <time>2020-10-04T09:37:40Z</time>
      </trkpt>
      <trkpt lat="40.1445920" lon="-4.7232970">
        <ele>1215.5</ele>
        <time>2020-10-04T09:37:41Z</time>
      </trkpt>
      <trkpt lat="40.1446430" lon="-4.7233080">
        <ele>1215.6</ele>
        <time>2020-10-04T09:37:43Z</time>
      </trkpt>
      <trkpt lat="40.1446840" lon="-4.7233140">
        <ele>1215.6</ele>
        <time>2020-10-04T09:37:44Z</time>
      </trkpt>
      <trkpt lat="40.1447550" lon="-4.7233270">
        <ele>1215.7</ele>
        <time>2020-10-04T09:37:46Z</time>
      </trkpt>
      <trkpt lat="40.1447990" lon="-4.7233220">
        <ele>1215.8</ele>
        <time>2020-10-04T09:37:47Z</time>
      </trkpt>
      <trkpt lat="40.1448430" lon="-4.7233180">
        <ele>1215.9</ele>
        <time>2020-10-04T09:37:48Z</time>
      </trkpt>
      <trkpt lat="40.1449030" lon="-4.7233280">
        <ele>1216.0</ele>
        <time>2020-10-04T09:37:50Z</time>
      </trkpt>
      <trkpt lat="40.1449510" lon="-4.7233530">
        <ele>1216.1</ele>
        <time>2020-10-04T09:37:51Z</time>
      </trkpt>
      <trkpt lat="40.1450020" lon="-4.7233850">
        <ele>1216.3</ele>
        <time>2020-10-04T09:37:53Z</time>
      </trkpt>
      <trkpt lat="40.1450400" lon="-4.7234130">
        <ele>1216.4</ele>
        <time>2020-10-04T09:37:54Z</time>
      </trkpt>
      <trkpt lat="40.1450940" lon="-4.7234570">
        <ele>1216.5</ele>
        <time>2020-10-04T09:37:56Z</time>
      </trkpt>
      <trkpt lat="40.1451450" lon="-4.7235130">
        <ele>1216.6</ele>
        <time>2020-10-04T09:37:58Z</time>
      </trkpt>
      <trkpt lat="40.1451930" lon="-4.7235440">
        <ele>1216.7</ele>
        <time>2020-10-04T09:37:59Z</time>
      </trkpt>
      <trkpt lat="40.1452470" lon="-4.7235800">
        <ele>1216.8</ele>
        <time>2020-10-04T09:38:01Z</time>
      </trkpt>
      <trkpt lat="40.1452840" lon="-4.7236030">
        <ele>1216.9</ele>
        <time>2020-10-04T09:38:02Z</time>
      </trkpt>
      <trkpt lat="40.1453210" lon="-4.7236200">
        <ele>1217.0</ele>
        <time>2020-10-04T09:38:03Z</time>
      </trkpt>
      <trkpt lat="40.1453470" lon="-4.7236300">
        <ele>1217.0</ele>
        <time>2020-10-04T09:38:04Z</time>
      </trkpt>
      <trkpt lat="40.1453740" lon="-4.7236380">
        <ele>1217.1</ele>
        <time>2020-10-04T09:38:05Z</time>
      </trkpt>
      <trkpt lat="40.1454280" lon="-4.7236590">
        <ele>1217.2</ele>
        <time>2020-10-04T09:38:07Z</time>
      </trkpt>
      <trkpt lat="40.1454720" lon="-4.7236740">
        <ele>1217.3</ele>
        <time>2020-10-04T09:38:09Z</time>
      </trkpt>
      <trkpt lat="40.1455110" lon="-4.7236890">
        <ele>1217.4</ele>
        <time>2020-10-04T09:38:10Z</time>
      </trkpt>
      <trkpt lat="40.1455400" lon="-4.7236980">
        <ele>1217.5</ele>
        <time>2020-10-04T09:38:11Z</time>
      </trkpt>
      <trkpt lat="40.1455620" lon="-4.7236910">
        <ele>1217.6</ele>
        <time>2020-10-04T09:38:12Z</time>
      </trkpt>
      <trkpt lat="40.1455930" lon="-4.7236870">
        <ele>1217.7</ele>
        <time>2020-10-04T09:38:14Z</time>
      </trkpt>
      <trkpt lat="40.1456280" lon="-4.7237110">
        <ele>1217.8</ele>
        <time>2020-10-04T09:38:15Z</time>
      </trkpt>
      <trkpt lat="40.1456680" lon="-4.7237290">
        <ele>1217.9</ele>
        <time>2020-10-04T09:38:17Z</time>
      </trkpt>
      <trkpt lat="40.1457050" lon="-4.7237520">
        <ele>1218.0</ele>
        <time>2020-10-04T09:38:18Z</time>
      </trkpt>
      <trkpt lat="40.1457400" lon="-4.7237680">
        <ele>1218.1</ele>
        <time>2020-10-04T09:38:19Z</time>
      </trkpt>
      <trkpt lat="40.1457660" lon="-4.7237770">
        <ele>1218.2</ele>
        <time>2020-10-04T09:38:20Z</time>
      </trkpt>
      <trkpt lat="40.1458060" lon="-4.7238020">
        <ele>1218.4</ele>
        <time>2020-10-04T09:38:22Z</time>
      </trkpt>
      <trkpt lat="40.1458360" lon="-4.7238050">
        <ele>1218.5</ele>
        <time>2020-10-04T09:38:23Z</time>
      </trkpt>
      <trkpt lat="40.1458660" lon="-4.7238280">
        <ele>1218.6</ele>
        <time>2020-10-04T09:38:25Z</time>
      </trkpt>
      <trkpt lat="40.1458960" lon="-4.7238540">
        <ele>1218.8</ele>
        <time>2020-10-04T09:38:26Z</time>
      </trkpt>
      <trkpt lat="40.1459320" lon="-4.7238750">
        <ele>1219.0</ele>
        <time>2020-10-04T09:38:27Z</time>
      </trkpt>
      <trkpt lat="40.1459440" lon="-4.7238810">
        <ele>1219.0</ele>
        <time>2020-10-04T09:38:28Z</time>
      </trkpt>
      <trkpt lat="40.1459680" lon="-4.7239000">
        <ele>1219.1</ele>
        <time>2020-10-04T09:38:29Z</time>
      </trkpt>
      <trkpt lat="40.1460040" lon="-4.7239350">
        <ele>1219.4</ele>
        <time>2020-10-04T09:38:31Z</time>
      </trkpt>
      <trkpt lat="40.1460380" lon="-4.7239670">
        <ele>1219.5</ele>
        <time>2020-10-04T09:38:32Z</time>
      </trkpt>
      <trkpt lat="40.1460720" lon="-4.7239890">
        <ele>1219.7</ele>
        <time>2020-10-04T09:38:33Z</time>
      </trkpt>
      <trkpt lat="40.1461040" lon="-4.7240120">
        <ele>1219.9</ele>
        <time>2020-10-04T09:38:34Z</time>
      </trkpt>
      <trkpt lat="40.1461400" lon="-4.7240350">
        <ele>1220.1</ele>
        <time>2020-10-04T09:38:35Z</time>
      </trkpt>
      <trkpt lat="40.1461790" lon="-4.7240580">
        <ele>1220.3</ele>
        <time>2020-10-04T09:38:37Z</time>
      </trkpt>
      <trkpt lat="40.1462150" lon="-4.7240850">
        <ele>1220.5</ele>
        <time>2020-10-04T09:38:38Z</time>
      </trkpt>
      <trkpt lat="40.1462600" lon="-4.7241190">
        <ele>1220.7</ele>
        <time>2020-10-04T09:38:39Z</time>
      </trkpt>
      <trkpt lat="40.1463060" lon="-4.7241490">
        <ele>1221.0</ele>
        <time>2020-10-04T09:38:40Z</time>
      </trkpt>
      <trkpt lat="40.1463450" lon="-4.7241710">
        <ele>1221.2</ele>
        <time>2020-10-04T09:38:42Z</time>
      </trkpt>
      <trkpt lat="40.1463860" lon="-4.7241880">
        <ele>1221.4</ele>
        <time>2020-10-04T09:38:43Z</time>
      </trkpt>
      <trkpt lat="40.1464360" lon="-4.7242030">
        <ele>1221.6</ele>
        <time>2020-10-04T09:38:44Z</time>
      </trkpt>
      <trkpt lat="40.1464750" lon="-4.7242060">
        <ele>1221.8</ele>
        <time>2020-10-04T09:38:45Z</time>
      </trkpt>
      <trkpt lat="40.1465310" lon="-4.7242090">
        <ele>1222.1</ele>
        <time>2020-10-04T09:38:47Z</time>
      </trkpt>
      <trkpt lat="40.1465720" lon="-4.7242060">
        <ele>1222.3</ele>
        <time>2020-10-04T09:38:48Z</time>
      </trkpt>
      <trkpt lat="40.1466110" lon="-4.7242030">
        <ele>1222.5</ele>
        <time>2020-10-04T09:38:49Z</time>
      </trkpt>
      <trkpt lat="40.1466480" lon="-4.7242020">
        <ele>1222.7</ele>
        <time>2020-10-04T09:38:50Z</time>
      </trkpt>
      <trkpt lat="40.1467080" lon="-4.7242010">
        <ele>1223.1</ele>
        <time>2020-10-04T09:38:52Z</time>
      </trkpt>
      <trkpt lat="40.1467470" lon="-4.7242000">
        <ele>1223.3</ele>
        <time>2020-10-04T09:38:53Z</time>
      </trkpt>
      <trkpt lat="40.1467900" lon="-4.7241950">
        <ele>1223.5</ele>
        <time>2020-10-04T09:38:54Z</time>
      </trkpt>
      <trkpt lat="40.1468300" lon="-4.7241920">
        <ele>1223.8</ele>
        <time>2020-10-04T09:38:55Z</time>
      </trkpt>
      <trkpt lat="40.1468690" lon="-4.7241930">
        <ele>1224.0</ele>
        <time>2020-10-04T09:38:56Z</time>
      </trkpt>
      <trkpt lat="40.1469220" lon="-4.7242030">
        <ele>1224.3</ele>
        <time>2020-10-04T09:38:58Z</time>
      </trkpt>
      <trkpt lat="40.1469600" lon="-4.7242110">
        <ele>1224.5</ele>
        <time>2020-10-04T09:38:59Z</time>
      </trkpt>
      <trkpt lat="40.1470020" lon="-4.7242240">
        <ele>1224.7</ele>
        <time>2020-10-04T09:39:00Z</time>
      </trkpt>
      <trkpt lat="40.1470530" lon="-4.7242410">
        <ele>1225.0</ele>
        <time>2020-10-04T09:39:02Z</time>
      </trkpt>
      <trkpt lat="40.1470960" lon="-4.7242610">
        <ele>1225.3</ele>
        <time>2020-10-04T09:39:03Z</time>
      </trkpt>
      <trkpt lat="40.1471340" lon="-4.7242790">
        <ele>1225.5</ele>
        <time>2020-10-04T09:39:04Z</time>
      </trkpt>
      <trkpt lat="40.1471920" lon="-4.7242990">
        <ele>1225.9</ele>
        <time>2020-10-04T09:39:06Z</time>
      </trkpt>
      <trkpt lat="40.1472230" lon="-4.7243140">
        <ele>1226.1</ele>
        <time>2020-10-04T09:39:07Z</time>
      </trkpt>
      <trkpt lat="40.1472670" lon="-4.7243340">
        <ele>1226.3</ele>
        <time>2020-10-04T09:39:09Z</time>
      </trkpt>
      <trkpt lat="40.1472950" lon="-4.7243490">
        <ele>1226.5</ele>
        <time>2020-10-04T09:39:10Z</time>
      </trkpt>
      <trkpt lat="40.1473260" lon="-4.7243640">
        <ele>1226.7</ele>
        <time>2020-10-04T09:39:11Z</time>
      </trkpt>
      <trkpt lat="40.1473610" lon="-4.7243730">
        <ele>1226.9</ele>
        <time>2020-10-04T09:39:12Z</time>
      </trkpt>
      <trkpt lat="40.1473940" lon="-4.7243800">
        <ele>1227.1</ele>
        <time>2020-10-04T09:39:13Z</time>
      </trkpt>
      <trkpt lat="40.1474680" lon="-4.7244010">
        <ele>1227.5</ele>
        <time>2020-10-04T09:39:15Z</time>
      </trkpt>
      <trkpt lat="40.1475090" lon="-4.7244030">
        <ele>1227.7</ele>
        <time>2020-10-04T09:39:16Z</time>
      </trkpt>
      <trkpt lat="40.1475380" lon="-4.7244050">
        <ele>1227.9</ele>
        <time>2020-10-04T09:39:17Z</time>
      </trkpt>
      <trkpt lat="40.1475650" lon="-4.7244110">
        <ele>1228.1</ele>
        <time>2020-10-04T09:39:19Z</time>
      </trkpt>
      <trkpt lat="40.1475930" lon="-4.7244070">
        <ele>1228.3</ele>
        <time>2020-10-04T09:39:20Z</time>
      </trkpt>
      <trkpt lat="40.1476150" lon="-4.7244060">
        <ele>1228.4</ele>
        <time>2020-10-04T09:39:21Z</time>
      </trkpt>
      <trkpt lat="40.1476400" lon="-4.7244160">
        <ele>1228.6</ele>
        <time>2020-10-04T09:39:23Z</time>
      </trkpt>
      <trkpt lat="40.1476720" lon="-4.7244210">
        <ele>1228.8</ele>
        <time>2020-10-04T09:39:24Z</time>
      </trkpt>
      <trkpt lat="40.1476840" lon="-4.7244220">
        <ele>1228.9</ele>
        <time>2020-10-04T09:39:25Z</time>
      </trkpt>
      <trkpt lat="40.1477110" lon="-4.7244220">
        <ele>1229.0</ele>
        <time>2020-10-04T09:39:26Z</time>
      </trkpt>
      <trkpt lat="40.1477390" lon="-4.7244200">
        <ele>1229.2</ele>
        <time>2020-10-04T09:39:28Z</time>
      </trkpt>
      <trkpt lat="40.1477650" lon="-4.7244260">
        <ele>1229.4</ele>
        <time>2020-10-04T09:39:29Z</time>
      </trkpt>
      <trkpt lat="40.1478070" lon="-4.7244420">
        <ele>1229.6</ele>
        <time>2020-10-04T09:39:31Z</time>
      </trkpt>
      <trkpt lat="40.1478510" lon="-4.7244420">
        <ele>1229.9</ele>
        <time>2020-10-04T09:39:32Z</time>
      </trkpt>
      <trkpt lat="40.1478850" lon="-4.7244360">
        <ele>1230.1</ele>
        <time>2020-10-04T09:39:33Z</time>
      </trkpt>
      <trkpt lat="40.1479220" lon="-4.7244370">
        <ele>1230.4</ele>
        <time>2020-10-04T09:39:34Z</time>
      </trkpt>
      <trkpt lat="40.1479560" lon="-4.7244350">
        <ele>1230.6</ele>
        <time>2020-10-04T09:39:35Z</time>
      </trkpt>
      <trkpt lat="40.1479960" lon="-4.7244280">
        <ele>1230.8</ele>
        <time>2020-10-04T09:39:37Z</time>
      </trkpt>
      <trkpt lat="40.1480270" lon="-4.7244230">
        <ele>1231.0</ele>
        <time>2020-10-04T09:39:38Z</time>
      </trkpt>
      <trkpt lat="40.1480680" lon="-4.7244230">
        <ele>1231.3</ele>
        <time>2020-10-04T09:39:39Z</time>
      </trkpt>
      <trkpt lat="40.1480830" lon="-4.7244250">
        <ele>1231.4</ele>
        <time>2020-10-04T09:39:40Z</time>
      </trkpt>
      <trkpt lat="40.1481010" lon="-4.7244390">
        <ele>1231.5</ele>
        <time>2020-10-04T09:39:41Z</time>
      </trkpt>
      <trkpt lat="40.1481270" lon="-4.7244490">
        <ele>1231.7</ele>
        <time>2020-10-04T09:39:43Z</time>
      </trkpt>
      <trkpt lat="40.1481610" lon="-4.7244630">
        <ele>1231.9</ele>
        <time>2020-10-04T09:39:44Z</time>
      </trkpt>
      <trkpt lat="40.1481870" lon="-4.7244690">
        <ele>1232.0</ele>
        <time>2020-10-04T09:39:45Z</time>
      </trkpt>
      <trkpt lat="40.1482400" lon="-4.7244760">
        <ele>1232.4</ele>
        <time>2020-10-04T09:39:47Z</time>
      </trkpt>
      <trkpt lat="40.1482740" lon="-4.7244860">
        <ele>1232.6</ele>
        <time>2020-10-04T09:39:48Z</time>
      </trkpt>
      <trkpt lat="40.1483060" lon="-4.7244950">
        <ele>1232.8</ele>
        <time>2020-10-04T09:39:50Z</time>
      </trkpt>
      <trkpt lat="40.1483360" lon="-4.7245080">
        <ele>1233.0</ele>
        <time>2020-10-04T09:39:51Z</time>
      </trkpt>
      <trkpt lat="40.1483750" lon="-4.7245170">
        <ele>1233.2</ele>
        <time>2020-10-04T09:39:52Z</time>
      </trkpt>
      <trkpt lat="40.1484190" lon="-4.7245290">
        <ele>1233.5</ele>
        <time>2020-10-04T09:39:54Z</time>
      </trkpt>
      <trkpt lat="40.1484490" lon="-4.7245400">
        <ele>1233.8</ele>
        <time>2020-10-04T09:39:55Z</time>
      </trkpt>
      <trkpt lat="40.1484730" lon="-4.7245480">
        <ele>1233.9</ele>
        <time>2020-10-04T09:39:56Z</time>
      </trkpt>
      <trkpt lat="40.1485100" lon="-4.7245520">
        <ele>1234.2</ele>
        <time>2020-10-04T09:39:58Z</time>
      </trkpt>
      <trkpt lat="40.1485350" lon="-4.7245480">
        <ele>1234.4</ele>
        <time>2020-10-04T09:39:59Z</time>
      </trkpt>
      <trkpt lat="40.1485590" lon="-4.7245380">
        <ele>1234.5</ele>
        <time>2020-10-04T09:40:01Z</time>
      </trkpt>
      <trkpt lat="40.1485980" lon="-4.7245410">
        <ele>1234.8</ele>
        <time>2020-10-04T09:40:02Z</time>
      </trkpt>
      <trkpt lat="40.1486120" lon="-4.7245400">
        <ele>1234.9</ele>
        <time>2020-10-04T09:40:03Z</time>
      </trkpt>
      <trkpt lat="40.1486500" lon="-4.7245210">
        <ele>1235.2</ele>
        <time>2020-10-04T09:40:05Z</time>
      </trkpt>
      <trkpt lat="40.1486910" lon="-4.7244990">
        <ele>1235.4</ele>
        <time>2020-10-04T09:40:06Z</time>
      </trkpt>
      <trkpt lat="40.1487490" lon="-4.7244790">
        <ele>1235.8</ele>
        <time>2020-10-04T09:40:08Z</time>
      </trkpt>
      <trkpt lat="40.1487970" lon="-4.7244600">
        <ele>1236.2</ele>
        <time>2020-10-04T09:40:10Z</time>
      </trkpt>
      <trkpt lat="40.1488300" lon="-4.7244460">
        <ele>1236.4</ele>
        <time>2020-10-04T09:40:11Z</time>
      </trkpt>
      <trkpt lat="40.1488640" lon="-4.7244300">
        <ele>1236.7</ele>
        <time>2020-10-04T09:40:12Z</time>
      </trkpt>
      <trkpt lat="40.1489060" lon="-4.7243980">
        <ele>1237.0</ele>
        <time>2020-10-04T09:40:14Z</time>
      </trkpt>
      <trkpt lat="40.1489170" lon="-4.7243870">
        <ele>1237.1</ele>
        <time>2020-10-04T09:40:15Z</time>
      </trkpt>
      <trkpt lat="40.1489280" lon="-4.7243760">
        <ele>1237.2</ele>
        <time>2020-10-04T09:40:16Z</time>
      </trkpt>
      <trkpt lat="40.1489620" lon="-4.7243350">
        <ele>1237.6</ele>
        <time>2020-10-04T09:40:18Z</time>
      </trkpt>
      <trkpt lat="40.1489880" lon="-4.7243060">
        <ele>1237.8</ele>
        <time>2020-10-04T09:40:20Z</time>
      </trkpt>
      <trkpt lat="40.1490090" lon="-4.7242810">
        <ele>1238.1</ele>
        <time>2020-10-04T09:40:21Z</time>
      </trkpt>
      <trkpt lat="40.1490340" lon="-4.7242400">
        <ele>1238.4</ele>
        <time>2020-10-04T09:40:23Z</time>
      </trkpt>
      <trkpt lat="40.1490590" lon="-4.7242090">
        <ele>1238.6</ele>
        <time>2020-10-04T09:40:24Z</time>
      </trkpt>
      <trkpt lat="40.1490880" lon="-4.7241830">
        <ele>1238.9</ele>
        <time>2020-10-04T09:40:26Z</time>
      </trkpt>
      <trkpt lat="40.1491140" lon="-4.7241550">
        <ele>1239.2</ele>
        <time>2020-10-04T09:40:27Z</time>
      </trkpt>
      <trkpt lat="40.1491350" lon="-4.7241260">
        <ele>1239.4</ele>
        <time>2020-10-04T09:40:28Z</time>
      </trkpt>
      <trkpt lat="40.1491600" lon="-4.7240880">
        <ele>1239.7</ele>
        <time>2020-10-04T09:40:30Z</time>
      </trkpt>
      <trkpt lat="40.1491680" lon="-4.7240750">
        <ele>1239.8</ele>
        <time>2020-10-04T09:40:31Z</time>
      </trkpt>
      <trkpt lat="40.1491930" lon="-4.7240470">
        <ele>1240.0</ele>
        <time>2020-10-04T09:40:33Z</time>
      </trkpt>
      <trkpt lat="40.1492150" lon="-4.7240270">
        <ele>1240.2</ele>
        <time>2020-10-04T09:40:34Z</time>
      </trkpt>
      <trkpt lat="40.1492430" lon="-4.7240070">
        <ele>1240.5</ele>
        <time>2020-10-04T09:40:36Z</time>
      </trkpt>
      <trkpt lat="40.1492750" lon="-4.7239830">
        <ele>1240.8</ele>
        <time>2020-10-04T09:40:37Z</time>
      </trkpt>
      <trkpt lat="40.1493090" lon="-4.7239650">
        <ele>1241.0</ele>
        <time>2020-10-04T09:40:39Z</time>
      </trkpt>
      <trkpt lat="40.1493360" lon="-4.7239590">
        <ele>1241.2</ele>
        <time>2020-10-04T09:40:40Z</time>
      </trkpt>
      <trkpt lat="40.1493680" lon="-4.7239550">
        <ele>1241.4</ele>
        <time>2020-10-04T09:40:41Z</time>
      </trkpt>
      <trkpt lat="40.1493760" lon="-4.7239540">
        <ele>1241.5</ele>
        <time>2020-10-04T09:40:42Z</time>
      </trkpt>
      <trkpt lat="40.1494070" lon="-4.7239390">
        <ele>1241.7</ele>
        <time>2020-10-04T09:40:44Z</time>
      </trkpt>
      <trkpt lat="40.1494370" lon="-4.7239060">
        <ele>1241.9</ele>
        <time>2020-10-04T09:40:45Z</time>
      </trkpt>
      <trkpt lat="40.1494800" lon="-4.7238690">
        <ele>1242.2</ele>
        <time>2020-10-04T09:40:47Z</time>
      </trkpt>
      <trkpt lat="40.1495180" lon="-4.7238640">
        <ele>1242.4</ele>
        <time>2020-10-04T09:40:48Z</time>
      </trkpt>
      <trkpt lat="40.1495770" lon="-4.7238510">
        <ele>1242.8</ele>
        <time>2020-10-04T09:40:50Z</time>
      </trkpt>
      <trkpt lat="40.1496450" lon="-4.7238400">
        <ele>1243.2</ele>
        <time>2020-10-04T09:40:52Z</time>
      </trkpt>
      <trkpt lat="40.1496860" lon="-4.7238390">
        <ele>1243.4</ele>
        <time>2020-10-04T09:40:53Z</time>
      </trkpt>
      <trkpt lat="40.1497190" lon="-4.7238400">
        <ele>1243.6</ele>
        <time>2020-10-04T09:40:55Z</time>
      </trkpt>
      <trkpt lat="40.1497480" lon="-4.7238410">
        <ele>1243.8</ele>
        <time>2020-10-04T09:40:56Z</time>
      </trkpt>
      <trkpt lat="40.1497920" lon="-4.7238440">
        <ele>1244.0</ele>
        <time>2020-10-04T09:40:57Z</time>
      </trkpt>
      <trkpt lat="40.1498180" lon="-4.7238500">
        <ele>1244.1</ele>
        <time>2020-10-04T09:40:58Z</time>
      </trkpt>
      <trkpt lat="40.1498450" lon="-4.7238630">
        <ele>1244.3</ele>
        <time>2020-10-04T09:41:00Z</time>
      </trkpt>
      <trkpt lat="40.1498710" lon="-4.7238720">
        <ele>1244.4</ele>
        <time>2020-10-04T09:41:01Z</time>
      </trkpt>
      <trkpt lat="40.1499060" lon="-4.7238860">
        <ele>1244.6</ele>
        <time>2020-10-04T09:41:02Z</time>
      </trkpt>
      <trkpt lat="40.1499160" lon="-4.7238910">
        <ele>1244.7</ele>
        <time>2020-10-04T09:41:03Z</time>
      </trkpt>
      <trkpt lat="40.1499440" lon="-4.7239010">
        <ele>1244.8</ele>
        <time>2020-10-04T09:41:04Z</time>
      </trkpt>
      <trkpt lat="40.1499720" lon="-4.7239260">
        <ele>1245.0</ele>
        <time>2020-10-04T09:41:06Z</time>
      </trkpt>
      <trkpt lat="40.1499920" lon="-4.7239400">
        <ele>1245.1</ele>
        <time>2020-10-04T09:41:07Z</time>
      </trkpt>
      <trkpt lat="40.1500230" lon="-4.7239600">
        <ele>1245.3</ele>
        <time>2020-10-04T09:41:09Z</time>
      </trkpt>
      <trkpt lat="40.1500440" lon="-4.7239750">
        <ele>1245.4</ele>
        <time>2020-10-04T09:41:10Z</time>
      </trkpt>
      <trkpt lat="40.1500820" lon="-4.7239970">
        <ele>1245.5</ele>
        <time>2020-10-04T09:41:12Z</time>
      </trkpt>
      <trkpt lat="40.1501120" lon="-4.7240210">
        <ele>1245.6</ele>
        <time>2020-10-04T09:41:13Z</time>
      </trkpt>
      <trkpt lat="40.1501510" lon="-4.7240470">
        <ele>1245.7</ele>
        <time>2020-10-04T09:41:15Z</time>
      </trkpt>
      <trkpt lat="40.1501890" lon="-4.7240700">
        <ele>1245.7</ele>
        <time>2020-10-04T09:41:16Z</time>
      </trkpt>
      <trkpt lat="40.1502040" lon="-4.7240790">
        <ele>1245.7</ele>
        <time>2020-10-04T09:41:17Z</time>
      </trkpt>
      <trkpt lat="40.1502390" lon="-4.7241040">
        <ele>1245.8</ele>
        <time>2020-10-04T09:41:18Z</time>
      </trkpt>
      <trkpt lat="40.1502510" lon="-4.7241140">
        <ele>1245.8</ele>
        <time>2020-10-04T09:41:19Z</time>
      </trkpt>
      <trkpt lat="40.1502760" lon="-4.7241330">
        <ele>1245.8</ele>
        <time>2020-10-04T09:41:21Z</time>
      </trkpt>
      <trkpt lat="40.1503010" lon="-4.7241490">
        <ele>1245.8</ele>
        <time>2020-10-04T09:41:22Z</time>
      </trkpt>
      <trkpt lat="40.1503290" lon="-4.7241690">
        <ele>1245.8</ele>
        <time>2020-10-04T09:41:23Z</time>
      </trkpt>
      <trkpt lat="40.1503630" lon="-4.7241950">
        <ele>1246.0</ele>
        <time>2020-10-04T09:41:24Z</time>
      </trkpt>
      <trkpt lat="40.1504060" lon="-4.7242240">
        <ele>1246.2</ele>
        <time>2020-10-04T09:41:26Z</time>
      </trkpt>
      <trkpt lat="40.1504430" lon="-4.7242370">
        <ele>1246.4</ele>
        <time>2020-10-04T09:41:28Z</time>
      </trkpt>
      <trkpt lat="40.1504710" lon="-4.7242480">
        <ele>1246.5</ele>
        <time>2020-10-04T09:41:29Z</time>
      </trkpt>
      <trkpt lat="40.1505240" lon="-4.7242730">
        <ele>1246.8</ele>
        <time>2020-10-04T09:41:31Z</time>
      </trkpt>
      <trkpt lat="40.1505660" lon="-4.7242920">
        <ele>1246.9</ele>
        <time>2020-10-04T09:41:33Z</time>
      </trkpt>
      <trkpt lat="40.1505860" lon="-4.7243020">
        <ele>1247.0</ele>
        <time>2020-10-04T09:41:34Z</time>
      </trkpt>
      <trkpt lat="40.1506230" lon="-4.7243190">
        <ele>1247.2</ele>
        <time>2020-10-04T09:41:36Z</time>
      </trkpt>
      <trkpt lat="40.1506540" lon="-4.7243330">
        <ele>1247.4</ele>
        <time>2020-10-04T09:41:37Z</time>
      </trkpt>
      <trkpt lat="40.1506940" lon="-4.7243520">
        <ele>1247.6</ele>
        <time>2020-10-04T09:41:38Z</time>
      </trkpt>
      <trkpt lat="40.1507090" lon="-4.7243590">
        <ele>1247.6</ele>
        <time>2020-10-04T09:41:39Z</time>
      </trkpt>
      <trkpt lat="40.1507470" lon="-4.7243790">
        <ele>1247.9</ele>
        <time>2020-10-04T09:41:41Z</time>
      </trkpt>
      <trkpt lat="40.1507750" lon="-4.7243920">
        <ele>1248.0</ele>
        <time>2020-10-04T09:41:42Z</time>
      </trkpt>
      <trkpt lat="40.1508130" lon="-4.7244060">
        <ele>1248.3</ele>
        <time>2020-10-04T09:41:43Z</time>
      </trkpt>
      <trkpt lat="40.1508280" lon="-4.7244110">
        <ele>1248.3</ele>
        <time>2020-10-04T09:41:44Z</time>
      </trkpt>
      <trkpt lat="40.1508550" lon="-4.7244240">
        <ele>1248.5</ele>
        <time>2020-10-04T09:41:45Z</time>
      </trkpt>
      <trkpt lat="40.1508770" lon="-4.7244360">
        <ele>1248.7</ele>
        <time>2020-10-04T09:41:46Z</time>
      </trkpt>
      <trkpt lat="40.1508980" lon="-4.7244440">
        <ele>1248.8</ele>
        <time>2020-10-04T09:41:48Z</time>
      </trkpt>
      <trkpt lat="40.1509270" lon="-4.7244600">
        <ele>1249.0</ele>
        <time>2020-10-04T09:41:49Z</time>
      </trkpt>
      <trkpt lat="40.1509610" lon="-4.7244710">
        <ele>1249.2</ele>
        <time>2020-10-04T09:41:51Z</time>
      </trkpt>
      <trkpt lat="40.1509960" lon="-4.7244860">
        <ele>1249.4</ele>
        <time>2020-10-04T09:41:53Z</time>
      </trkpt>
      <trkpt lat="40.1510220" lon="-4.7244960">
        <ele>1249.6</ele>
        <time>2020-10-04T09:41:54Z</time>
      </trkpt>
      <trkpt lat="40.1510610" lon="-4.7245180">
        <ele>1249.8</ele>
        <time>2020-10-04T09:41:56Z</time>
      </trkpt>
      <trkpt lat="40.1510860" lon="-4.7245330">
        <ele>1250.0</ele>
        <time>2020-10-04T09:41:57Z</time>
      </trkpt>
      <trkpt lat="40.1511330" lon="-4.7245520">
        <ele>1250.3</ele>
        <time>2020-10-04T09:41:59Z</time>
      </trkpt>
      <trkpt lat="40.1511720" lon="-4.7245660">
        <ele>1250.6</ele>
        <time>2020-10-04T09:42:01Z</time>
      </trkpt>
      <trkpt lat="40.1512010" lon="-4.7245780">
        <ele>1250.8</ele>
        <time>2020-10-04T09:42:02Z</time>
      </trkpt>
      <trkpt lat="40.1512510" lon="-4.7245950">
        <ele>1251.1</ele>
        <time>2020-10-04T09:42:04Z</time>
      </trkpt>
      <trkpt lat="40.1512960" lon="-4.7246080">
        <ele>1251.3</ele>
        <time>2020-10-04T09:42:06Z</time>
      </trkpt>
      <trkpt lat="40.1513250" lon="-4.7246150">
        <ele>1251.5</ele>
        <time>2020-10-04T09:42:07Z</time>
      </trkpt>
      <trkpt lat="40.1513700" lon="-4.7246200">
        <ele>1251.7</ele>
        <time>2020-10-04T09:42:09Z</time>
      </trkpt>
      <trkpt lat="40.1513980" lon="-4.7246300">
        <ele>1251.9</ele>
        <time>2020-10-04T09:42:10Z</time>
      </trkpt>
      <trkpt lat="40.1514340" lon="-4.7246470">
        <ele>1252.1</ele>
        <time>2020-10-04T09:42:12Z</time>
      </trkpt>
      <trkpt lat="40.1514710" lon="-4.7246550">
        <ele>1252.3</ele>
        <time>2020-10-04T09:42:13Z</time>
      </trkpt>
      <trkpt lat="40.1514970" lon="-4.7246630">
        <ele>1252.5</ele>
        <time>2020-10-04T09:42:14Z</time>
      </trkpt>
      <trkpt lat="40.1515330" lon="-4.7246870">
        <ele>1252.7</ele>
        <time>2020-10-04T09:42:16Z</time>
      </trkpt>
      <trkpt lat="40.1515640" lon="-4.7247010">
        <ele>1252.9</ele>
        <time>2020-10-04T09:42:17Z</time>
      </trkpt>
      <trkpt lat="40.1515960" lon="-4.7247170">
        <ele>1253.1</ele>
        <time>2020-10-04T09:42:18Z</time>
      </trkpt>
      <trkpt lat="40.1516420" lon="-4.7247490">
        <ele>1253.5</ele>
        <time>2020-10-04T09:42:20Z</time>
      </trkpt>
      <trkpt lat="40.1516570" lon="-4.7247580">
        <ele>1253.6</ele>
        <time>2020-10-04T09:42:21Z</time>
      </trkpt>
      <trkpt lat="40.1516720" lon="-4.7247680">
        <ele>1253.7</ele>
        <time>2020-10-04T09:42:22Z</time>
      </trkpt>
      <trkpt lat="40.1517070" lon="-4.7248010">
        <ele>1253.9</ele>
        <time>2020-10-04T09:42:23Z</time>
      </trkpt>
      <trkpt lat="40.1517320" lon="-4.7248270">
        <ele>1254.1</ele>
        <time>2020-10-04T09:42:24Z</time>
      </trkpt>
      <trkpt lat="40.1517570" lon="-4.7248510">
        <ele>1254.3</ele>
        <time>2020-10-04T09:42:25Z</time>
      </trkpt>
      <trkpt lat="40.1517900" lon="-4.7248790">
        <ele>1254.5</ele>
        <time>2020-10-04T09:42:27Z</time>
      </trkpt>
      <trkpt lat="40.1518230" lon="-4.7249020">
        <ele>1254.7</ele>
        <time>2020-10-04T09:42:28Z</time>
      </trkpt>
      <trkpt lat="40.1518360" lon="-4.7249100">
        <ele>1254.8</ele>
        <time>2020-10-04T09:42:29Z</time>
      </trkpt>
      <trkpt lat="40.1518640" lon="-4.7249330">
        <ele>1255.0</ele>
        <time>2020-10-04T09:42:31Z</time>
      </trkpt>
      <trkpt lat="40.1518870" lon="-4.7249570">
        <ele>1255.1</ele>
        <time>2020-10-04T09:42:32Z</time>
      </trkpt>
      <trkpt lat="40.1519110" lon="-4.7249770">
        <ele>1255.3</ele>
        <time>2020-10-04T09:42:33Z</time>
      </trkpt>
      <trkpt lat="40.1519420" lon="-4.7249950">
        <ele>1255.5</ele>
        <time>2020-10-04T09:42:34Z</time>
      </trkpt>
      <trkpt lat="40.1519700" lon="-4.7250070">
        <ele>1255.6</ele>
        <time>2020-10-04T09:42:35Z</time>
      </trkpt>
      <trkpt lat="40.1520050" lon="-4.7250230">
        <ele>1255.8</ele>
        <time>2020-10-04T09:42:37Z</time>
      </trkpt>
      <trkpt lat="40.1520300" lon="-4.7250250">
        <ele>1255.9</ele>
        <time>2020-10-04T09:42:38Z</time>
      </trkpt>
      <trkpt lat="40.1520650" lon="-4.7250280">
        <ele>1256.1</ele>
        <time>2020-10-04T09:42:40Z</time>
      </trkpt>
      <trkpt lat="40.1520940" lon="-4.7250340">
        <ele>1256.3</ele>
        <time>2020-10-04T09:42:41Z</time>
      </trkpt>
      <trkpt lat="40.1521340" lon="-4.7250400">
        <ele>1256.5</ele>
        <time>2020-10-04T09:42:43Z</time>
      </trkpt>
      <trkpt lat="40.1521690" lon="-4.7250460">
        <ele>1256.6</ele>
        <time>2020-10-04T09:42:44Z</time>
      </trkpt>
      <trkpt lat="40.1522090" lon="-4.7250500">
        <ele>1256.8</ele>
        <time>2020-10-04T09:42:46Z</time>
      </trkpt>
      <trkpt lat="40.1522520" lon="-4.7250490">
        <ele>1257.0</ele>
        <time>2020-10-04T09:42:47Z</time>
      </trkpt>
      <trkpt lat="40.1522700" lon="-4.7250490">
        <ele>1257.1</ele>
        <time>2020-10-04T09:42:48Z</time>
      </trkpt>
      <trkpt lat="40.1523010" lon="-4.7250520">
        <ele>1257.2</ele>
        <time>2020-10-04T09:42:49Z</time>
      </trkpt>
      <trkpt lat="40.1523360" lon="-4.7250680">
        <ele>1257.3</ele>
        <time>2020-10-04T09:42:51Z</time>
      </trkpt>
      <trkpt lat="40.1523620" lon="-4.7250840">
        <ele>1257.4</ele>
        <time>2020-10-04T09:42:52Z</time>
      </trkpt>
      <trkpt lat="40.1524080" lon="-4.7251210">
        <ele>1257.5</ele>
        <time>2020-10-04T09:42:54Z</time>
      </trkpt>
      <trkpt lat="40.1524310" lon="-4.7251620">
        <ele>1257.6</ele>
        <time>2020-10-04T09:42:56Z</time>
      </trkpt>
      <trkpt lat="40.1524480" lon="-4.7252020">
        <ele>1257.6</ele>
        <time>2020-10-04T09:42:57Z</time>
      </trkpt>
      <trkpt lat="40.1524540" lon="-4.7252480">
        <ele>1257.7</ele>
        <time>2020-10-04T09:42:58Z</time>
      </trkpt>
      <trkpt lat="40.1524560" lon="-4.7252920">
        <ele>1257.7</ele>
        <time>2020-10-04T09:42:59Z</time>
      </trkpt>
      <trkpt lat="40.1524570" lon="-4.7253640">
        <ele>1257.7</ele>
        <time>2020-10-04T09:43:01Z</time>
      </trkpt>
      <trkpt lat="40.1524550" lon="-4.7253990">
        <ele>1257.7</ele>
        <time>2020-10-04T09:43:02Z</time>
      </trkpt>
      <trkpt lat="40.1524520" lon="-4.7254350">
        <ele>1257.7</ele>
        <time>2020-10-04T09:43:03Z</time>
      </trkpt>
      <trkpt lat="40.1524450" lon="-4.7255100">
        <ele>1257.7</ele>
        <time>2020-10-04T09:43:05Z</time>
      </trkpt>
      <trkpt lat="40.1524410" lon="-4.7255660">
        <ele>1257.7</ele>
        <time>2020-10-04T09:43:06Z</time>
      </trkpt>
      <trkpt lat="40.1524450" lon="-4.7256420">
        <ele>1257.7</ele>
        <time>2020-10-04T09:43:08Z</time>
      </trkpt>
      <trkpt lat="40.1524520" lon="-4.7257000">
        <ele>1257.7</ele>
        <time>2020-10-04T09:43:09Z</time>
      </trkpt>
      <trkpt lat="40.1524600" lon="-4.7257360">
        <ele>1257.7</ele>
        <time>2020-10-04T09:43:10Z</time>
      </trkpt>
      <trkpt lat="40.1524860" lon="-4.7258020">
        <ele>1257.8</ele>
        <time>2020-10-04T09:43:12Z</time>
      </trkpt>
      <trkpt lat="40.1525200" lon="-4.7258720">
        <ele>1257.9</ele>
        <time>2020-10-04T09:43:14Z</time>
      </trkpt>
      <trkpt lat="40.1525530" lon="-4.7259320">
        <ele>1258.0</ele>
        <time>2020-10-04T09:43:16Z</time>
      </trkpt>
      <trkpt lat="40.1525870" lon="-4.7259770">
        <ele>1258.0</ele>
        <time>2020-10-04T09:43:17Z</time>
      </trkpt>
      <trkpt lat="40.1526160" lon="-4.7260090">
        <ele>1258.1</ele>
        <time>2020-10-04T09:43:18Z</time>
      </trkpt>
      <trkpt lat="40.1526640" lon="-4.7260490">
        <ele>1258.2</ele>
        <time>2020-10-04T09:43:20Z</time>
      </trkpt>
      <trkpt lat="40.1527180" lon="-4.7260820">
        <ele>1258.3</ele>
        <time>2020-10-04T09:43:22Z</time>
      </trkpt>
      <trkpt lat="40.1527670" lon="-4.7261080">
        <ele>1258.4</ele>
        <time>2020-10-04T09:43:23Z</time>
      </trkpt>
      <trkpt lat="40.1528140" lon="-4.7261280">
        <ele>1258.4</ele>
        <time>2020-10-04T09:43:24Z</time>
      </trkpt>
      <trkpt lat="40.1528760" lon="-4.7261540">
        <ele>1258.6</ele>
        <time>2020-10-04T09:43:26Z</time>
      </trkpt>
      <trkpt lat="40.1529370" lon="-4.7261820">
        <ele>1258.8</ele>
        <time>2020-10-04T09:43:27Z</time>
      </trkpt>
      <trkpt lat="40.1530030" lon="-4.7262140">
        <ele>1259.0</ele>
        <time>2020-10-04T09:43:29Z</time>
      </trkpt>
      <trkpt lat="40.1530450" lon="-4.7262360">
        <ele>1259.1</ele>
        <time>2020-10-04T09:43:30Z</time>
      </trkpt>
      <trkpt lat="40.1530870" lon="-4.7262560">
        <ele>1259.2</ele>
        <time>2020-10-04T09:43:31Z</time>
      </trkpt>
      <trkpt lat="40.1531290" lon="-4.7262750">
        <ele>1259.3</ele>
        <time>2020-10-04T09:43:32Z</time>
      </trkpt>
      <trkpt lat="40.1531840" lon="-4.7263000">
        <ele>1259.5</ele>
        <time>2020-10-04T09:43:34Z</time>
      </trkpt>
      <trkpt lat="40.1532250" lon="-4.7263290">
        <ele>1259.6</ele>
        <time>2020-10-04T09:43:35Z</time>
      </trkpt>
      <trkpt lat="40.1532750" lon="-4.7263920">
        <ele>1259.8</ele>
        <time>2020-10-04T09:43:37Z</time>
      </trkpt>
      <trkpt lat="40.1533170" lon="-4.7264580">
        <ele>1260.0</ele>
        <time>2020-10-04T09:43:39Z</time>
      </trkpt>
      <trkpt lat="40.1533530" lon="-4.7265200">
        <ele>1260.1</ele>
        <time>2020-10-04T09:43:41Z</time>
      </trkpt>
      <trkpt lat="40.1533860" lon="-4.7265780">
        <ele>1260.2</ele>
        <time>2020-10-04T09:43:42Z</time>
      </trkpt>
      <trkpt lat="40.1534140" lon="-4.7266350">
        <ele>1260.4</ele>
        <time>2020-10-04T09:43:44Z</time>
      </trkpt>
      <trkpt lat="40.1534390" lon="-4.7266860">
        <ele>1260.5</ele>
        <time>2020-10-04T09:43:45Z</time>
      </trkpt>
      <trkpt lat="40.1534620" lon="-4.7267240">
        <ele>1260.6</ele>
        <time>2020-10-04T09:43:46Z</time>
      </trkpt>
      <trkpt lat="40.1534810" lon="-4.7267520">
        <ele>1260.6</ele>
        <time>2020-10-04T09:43:47Z</time>
      </trkpt>
      <trkpt lat="40.1535020" lon="-4.7267880">
        <ele>1260.7</ele>
        <time>2020-10-04T09:43:48Z</time>
      </trkpt>
      <trkpt lat="40.1535280" lon="-4.7268290">
        <ele>1260.8</ele>
        <time>2020-10-04T09:43:50Z</time>
      </trkpt>
      <trkpt lat="40.1535550" lon="-4.7268720">
        <ele>1260.9</ele>
        <time>2020-10-04T09:43:51Z</time>
      </trkpt>
      <trkpt lat="40.1535790" lon="-4.7269200">
        <ele>1261.0</ele>
        <time>2020-10-04T09:43:52Z</time>
      </trkpt>
      <trkpt lat="40.1536030" lon="-4.7269790">
        <ele>1261.2</ele>
        <time>2020-10-04T09:43:54Z</time>
      </trkpt>
      <trkpt lat="40.1536280" lon="-4.7270380">
        <ele>1261.3</ele>
        <time>2020-10-04T09:43:55Z</time>
      </trkpt>
      <trkpt lat="40.1536430" lon="-4.7270860">
        <ele>1261.4</ele>
        <time>2020-10-04T09:43:56Z</time>
      </trkpt>
      <trkpt lat="40.1536660" lon="-4.7271550">
        <ele>1261.5</ele>
        <time>2020-10-04T09:43:58Z</time>
      </trkpt>
      <trkpt lat="40.1536940" lon="-4.7272400">
        <ele>1261.6</ele>
        <time>2020-10-04T09:44:00Z</time>
      </trkpt>
      <trkpt lat="40.1537060" lon="-4.7272820">
        <ele>1261.6</ele>
        <time>2020-10-04T09:44:01Z</time>
      </trkpt>
      <trkpt lat="40.1537280" lon="-4.7273550">
        <ele>1261.7</ele>
        <time>2020-10-04T09:44:03Z</time>
      </trkpt>
      <trkpt lat="40.1537480" lon="-4.7274110">
        <ele>1261.8</ele>
        <time>2020-10-04T09:44:04Z</time>
      </trkpt>
      <trkpt lat="40.1537680" lon="-4.7274830">
        <ele>1261.9</ele>
        <time>2020-10-04T09:44:06Z</time>
      </trkpt>
      <trkpt lat="40.1537750" lon="-4.7275300">
        <ele>1262.0</ele>
        <time>2020-10-04T09:44:07Z</time>
      </trkpt>
      <trkpt lat="40.1537890" lon="-4.7275880">
        <ele>1262.0</ele>
        <time>2020-10-04T09:44:08Z</time>
      </trkpt>
      <trkpt lat="40.1538040" lon="-4.7276520">
        <ele>1262.1</ele>
        <time>2020-10-04T09:44:10Z</time>
      </trkpt>
      <trkpt lat="40.1538170" lon="-4.7277130">
        <ele>1262.2</ele>
        <time>2020-10-04T09:44:11Z</time>
      </trkpt>
      <trkpt lat="40.1538260" lon="-4.7277610">
        <ele>1262.3</ele>
        <time>2020-10-04T09:44:12Z</time>
      </trkpt>
      <trkpt lat="40.1538440" lon="-4.7278230">
        <ele>1262.4</ele>
        <time>2020-10-04T09:44:14Z</time>
      </trkpt>
      <trkpt lat="40.1538590" lon="-4.7278800">
        <ele>1262.5</ele>
        <time>2020-10-04T09:44:15Z</time>
      </trkpt>
      <trkpt lat="40.1538720" lon="-4.7279320">
        <ele>1262.6</ele>
        <time>2020-10-04T09:44:17Z</time>
      </trkpt>
      <trkpt lat="40.1538810" lon="-4.7279810">
        <ele>1262.6</ele>
        <time>2020-10-04T09:44:18Z</time>
      </trkpt>
      <trkpt lat="40.1538910" lon="-4.7280410">
        <ele>1262.7</ele>
        <time>2020-10-04T09:44:19Z</time>
      </trkpt>
      <trkpt lat="40.1538930" lon="-4.7280850">
        <ele>1262.8</ele>
        <time>2020-10-04T09:44:20Z</time>
      </trkpt>
      <trkpt lat="40.1538970" lon="-4.7281530">
        <ele>1262.9</ele>
        <time>2020-10-04T09:44:22Z</time>
      </trkpt>
      <trkpt lat="40.1538990" lon="-4.7282130">
        <ele>1263.0</ele>
        <time>2020-10-04T09:44:23Z</time>
      </trkpt>
      <trkpt lat="40.1539050" lon="-4.7282880">
        <ele>1263.2</ele>
        <time>2020-10-04T09:44:25Z</time>
      </trkpt>
      <trkpt lat="40.1539080" lon="-4.7283680">
        <ele>1263.3</ele>
        <time>2020-10-04T09:44:27Z</time>
      </trkpt>
      <trkpt lat="40.1539100" lon="-4.7284110">
        <ele>1263.4</ele>
        <time>2020-10-04T09:44:28Z</time>
      </trkpt>
      <trkpt lat="40.1539090" lon="-4.7284650">
        <ele>1263.5</ele>
        <time>2020-10-04T09:44:30Z</time>
      </trkpt>
      <trkpt lat="40.1539070" lon="-4.7285180">
        <ele>1263.6</ele>
        <time>2020-10-04T09:44:31Z</time>
      </trkpt>
      <trkpt lat="40.1539110" lon="-4.7285630">
        <ele>1263.7</ele>
        <time>2020-10-04T09:44:32Z</time>
      </trkpt>
      <trkpt lat="40.1539140" lon="-4.7286190">
        <ele>1263.8</ele>
        <time>2020-10-04T09:44:33Z</time>
      </trkpt>
      <trkpt lat="40.1539160" lon="-4.7286560">
        <ele>1263.9</ele>
        <time>2020-10-04T09:44:35Z</time>
      </trkpt>
      <trkpt lat="40.1539190" lon="-4.7287030">
        <ele>1264.0</ele>
        <time>2020-10-04T09:44:36Z</time>
      </trkpt>
      <trkpt lat="40.1539260" lon="-4.7287750">
        <ele>1264.2</ele>
        <time>2020-10-04T09:44:38Z</time>
      </trkpt>
      <trkpt lat="40.1539290" lon="-4.7288390">
        <ele>1264.3</ele>
        <time>2020-10-04T09:44:39Z</time>
      </trkpt>
      <trkpt lat="40.1539320" lon="-4.7288900">
        <ele>1264.4</ele>
        <time>2020-10-04T09:44:40Z</time>
      </trkpt>
      <trkpt lat="40.1539380" lon="-4.7289500">
        <ele>1264.5</ele>
        <time>2020-10-04T09:44:42Z</time>
      </trkpt>
      <trkpt lat="40.1539430" lon="-4.7290070">
        <ele>1264.6</ele>
        <time>2020-10-04T09:44:43Z</time>
      </trkpt>
      <trkpt lat="40.1539430" lon="-4.7290730">
        <ele>1264.8</ele>
        <time>2020-10-04T09:44:44Z</time>
      </trkpt>
      <trkpt lat="40.1539410" lon="-4.7291460">
        <ele>1264.9</ele>
        <time>2020-10-04T09:44:46Z</time>
      </trkpt>
      <trkpt lat="40.1539370" lon="-4.7292010">
        <ele>1265.0</ele>
        <time>2020-10-04T09:44:47Z</time>
      </trkpt>
      <trkpt lat="40.1539320" lon="-4.7292590">
        <ele>1265.1</ele>
        <time>2020-10-04T09:44:48Z</time>
      </trkpt>
      <trkpt lat="40.1539230" lon="-4.7293530">
        <ele>1265.3</ele>
        <time>2020-10-04T09:44:50Z</time>
      </trkpt>
      <trkpt lat="40.1539170" lon="-4.7294150">
        <ele>1265.4</ele>
        <time>2020-10-04T09:44:52Z</time>
      </trkpt>
      <trkpt lat="40.1539090" lon="-4.7294900">
        <ele>1265.6</ele>
        <time>2020-10-04T09:44:53Z</time>
      </trkpt>
      <trkpt lat="40.1539040" lon="-4.7295330">
        <ele>1265.7</ele>
        <time>2020-10-04T09:44:54Z</time>
      </trkpt>
      <trkpt lat="40.1538990" lon="-4.7296070">
        <ele>1265.9</ele>
        <time>2020-10-04T09:44:56Z</time>
      </trkpt>
      <trkpt lat="40.1538940" lon="-4.7296800">
        <ele>1266.0</ele>
        <time>2020-10-04T09:44:58Z</time>
      </trkpt>
      <trkpt lat="40.1538850" lon="-4.7297280">
        <ele>1266.1</ele>
        <time>2020-10-04T09:44:59Z</time>
      </trkpt>
      <trkpt lat="40.1538800" lon="-4.7297660">
        <ele>1266.2</ele>
        <time>2020-10-04T09:45:00Z</time>
      </trkpt>
      <trkpt lat="40.1538660" lon="-4.7298490">
        <ele>1266.4</ele>
        <time>2020-10-04T09:45:02Z</time>
      </trkpt>
      <trkpt lat="40.1538420" lon="-4.7299410">
        <ele>1266.6</ele>
        <time>2020-10-04T09:45:04Z</time>
      </trkpt>
      <trkpt lat="40.1538320" lon="-4.7299890">
        <ele>1266.8</ele>
        <time>2020-10-04T09:45:05Z</time>
      </trkpt>
      <trkpt lat="40.1538130" lon="-4.7300590">
        <ele>1266.9</ele>
        <time>2020-10-04T09:45:07Z</time>
      </trkpt>
      <trkpt lat="40.1538000" lon="-4.7301000">
        <ele>1267.0</ele>
        <time>2020-10-04T09:45:08Z</time>
      </trkpt>
      <trkpt lat="40.1537820" lon="-4.7301480">
        <ele>1267.1</ele>
        <time>2020-10-04T09:45:10Z</time>
      </trkpt>
      <trkpt lat="40.1537610" lon="-4.7302040">
        <ele>1267.3</ele>
        <time>2020-10-04T09:45:11Z</time>
      </trkpt>
      <trkpt lat="40.1537500" lon="-4.7302370">
        <ele>1267.3</ele>
        <time>2020-10-04T09:45:12Z</time>
      </trkpt>
      <trkpt lat="40.1537190" lon="-4.7302980">
        <ele>1267.5</ele>
        <time>2020-10-04T09:45:14Z</time>
      </trkpt>
      <trkpt lat="40.1537000" lon="-4.7303300">
        <ele>1267.5</ele>
        <time>2020-10-04T09:45:15Z</time>
      </trkpt>
      <trkpt lat="40.1536760" lon="-4.7303930">
        <ele>1267.6</ele>
        <time>2020-10-04T09:45:17Z</time>
      </trkpt>
      <trkpt lat="40.1536490" lon="-4.7304570">
        <ele>1267.7</ele>
        <time>2020-10-04T09:45:18Z</time>
      </trkpt>
      <trkpt lat="40.1536240" lon="-4.7305190">
        <ele>1267.8</ele>
        <time>2020-10-04T09:45:20Z</time>
      </trkpt>
      <trkpt lat="40.1536060" lon="-4.7305690">
        <ele>1267.9</ele>
        <time>2020-10-04T09:45:21Z</time>
      </trkpt>
      <trkpt lat="40.1535910" lon="-4.7306120">
        <ele>1268.0</ele>
        <time>2020-10-04T09:45:22Z</time>
      </trkpt>
      <trkpt lat="40.1535710" lon="-4.7306720">
        <ele>1268.1</ele>
        <time>2020-10-04T09:45:24Z</time>
      </trkpt>
      <trkpt lat="40.1535490" lon="-4.7307290">
        <ele>1268.2</ele>
        <time>2020-10-04T09:45:25Z</time>
      </trkpt>
      <trkpt lat="40.1535350" lon="-4.7307600">
        <ele>1268.2</ele>
        <time>2020-10-04T09:45:26Z</time>
      </trkpt>
      <trkpt lat="40.1535030" lon="-4.7308350">
        <ele>1268.3</ele>
        <time>2020-10-04T09:45:28Z</time>
      </trkpt>
      <trkpt lat="40.1534830" lon="-4.7308760">
        <ele>1268.3</ele>
        <time>2020-10-04T09:45:29Z</time>
      </trkpt>
      <trkpt lat="40.1534580" lon="-4.7309240">
        <ele>1268.3</ele>
        <time>2020-10-04T09:45:31Z</time>
      </trkpt>
      <trkpt lat="40.1534400" lon="-4.7309670">
        <ele>1268.3</ele>
        <time>2020-10-04T09:45:32Z</time>
      </trkpt>
      <trkpt lat="40.1534150" lon="-4.7310270">
        <ele>1268.2</ele>
        <time>2020-10-04T09:45:34Z</time>
      </trkpt>
      <trkpt lat="40.1533870" lon="-4.7310790">
        <ele>1268.2</ele>
        <time>2020-10-04T09:45:35Z</time>
      </trkpt>
      <trkpt lat="40.1533430" lon="-4.7311450">
        <ele>1268.1</ele>
        <time>2020-10-04T09:45:37Z</time>
      </trkpt>
      <trkpt lat="40.1533220" lon="-4.7311750">
        <ele>1268.0</ele>
        <time>2020-10-04T09:45:38Z</time>
      </trkpt>
      <trkpt lat="40.1532890" lon="-4.7312260">
        <ele>1267.9</ele>
        <time>2020-10-04T09:45:39Z</time>
      </trkpt>
      <trkpt lat="40.1532550" lon="-4.7312850">
        <ele>1267.8</ele>
        <time>2020-10-04T09:45:40Z</time>
      </trkpt>
      <trkpt lat="40.1532180" lon="-4.7313550">
        <ele>1267.6</ele>
        <time>2020-10-04T09:45:42Z</time>
      </trkpt>
      <trkpt lat="40.1531940" lon="-4.7314110">
        <ele>1267.4</ele>
        <time>2020-10-04T09:45:43Z</time>
      </trkpt>
      <trkpt lat="40.1531720" lon="-4.7314720">
        <ele>1267.3</ele>
        <time>2020-10-04T09:45:44Z</time>
      </trkpt>
      <trkpt lat="40.1531570" lon="-4.7315630">
        <ele>1267.1</ele>
        <time>2020-10-04T09:45:46Z</time>
      </trkpt>
      <trkpt lat="40.1531610" lon="-4.7316350">
        <ele>1266.9</ele>
        <time>2020-10-04T09:45:47Z</time>
      </trkpt>
      <trkpt lat="40.1531740" lon="-4.7317000">
        <ele>1266.7</ele>
        <time>2020-10-04T09:45:48Z</time>
      </trkpt>
      <trkpt lat="40.1532250" lon="-4.7318170">
        <ele>1266.6</ele>
        <time>2020-10-04T09:45:50Z</time>
      </trkpt>
      <trkpt lat="40.1532740" lon="-4.7319180">
        <ele>1266.5</ele>
        <time>2020-10-04T09:45:52Z</time>
      </trkpt>
      <trkpt lat="40.1533030" lon="-4.7319750">
        <ele>1266.5</ele>
        <time>2020-10-04T09:45:53Z</time>
      </trkpt>
      <trkpt lat="40.1533340" lon="-4.7320430">
        <ele>1266.6</ele>
        <time>2020-10-04T09:45:54Z</time>
      </trkpt>
      <trkpt lat="40.1533770" lon="-4.7321300">
        <ele>1266.7</ele>
        <time>2020-10-04T09:45:56Z</time>
      </trkpt>
      <trkpt lat="40.1534020" lon="-4.7321770">
        <ele>1266.8</ele>
        <time>2020-10-04T09:45:57Z</time>
      </trkpt>
      <trkpt lat="40.1534300" lon="-4.7322320">
        <ele>1266.9</ele>
        <time>2020-10-04T09:45:58Z</time>
      </trkpt>
      <trkpt lat="40.1534550" lon="-4.7322780">
        <ele>1267.0</ele>
        <time>2020-10-04T09:45:59Z</time>
      </trkpt>
      <trkpt lat="40.1534850" lon="-4.7323500">
        <ele>1266.9</ele>
        <time>2020-10-04T09:46:01Z</time>
      </trkpt>
      <trkpt lat="40.1535170" lon="-4.7324120">
        <ele>1266.9</ele>
        <time>2020-10-04T09:46:02Z</time>
      </trkpt>
      <trkpt lat="40.1535380" lon="-4.7324520">
        <ele>1266.9</ele>
        <time>2020-10-04T09:46:03Z</time>
      </trkpt>
      <trkpt lat="40.1535580" lon="-4.7324870">
        <ele>1266.9</ele>
        <time>2020-10-04T09:46:04Z</time>
      </trkpt>
      <trkpt lat="40.1535940" lon="-4.7325520">
        <ele>1267.0</ele>
        <time>2020-10-04T09:46:06Z</time>
      </trkpt>
      <trkpt lat="40.1536230" lon="-4.7326090">
        <ele>1267.1</ele>
        <time>2020-10-04T09:46:08Z</time>
      </trkpt>
      <trkpt lat="40.1536570" lon="-4.7326710">
        <ele>1267.3</ele>
        <time>2020-10-04T09:46:09Z</time>
      </trkpt>
      <trkpt lat="40.1536930" lon="-4.7327360">
        <ele>1267.6</ele>
        <time>2020-10-04T09:46:11Z</time>
      </trkpt>
      <trkpt lat="40.1537160" lon="-4.7327780">
        <ele>1267.8</ele>
        <time>2020-10-04T09:46:13Z</time>
      </trkpt>
      <trkpt lat="40.1537360" lon="-4.7328130">
        <ele>1268.0</ele>
        <time>2020-10-04T09:46:14Z</time>
      </trkpt>
      <trkpt lat="40.1537640" lon="-4.7328610">
        <ele>1268.2</ele>
        <time>2020-10-04T09:46:15Z</time>
      </trkpt>
      <trkpt lat="40.1537800" lon="-4.7328910">
        <ele>1268.3</ele>
        <time>2020-10-04T09:46:16Z</time>
      </trkpt>
      <trkpt lat="40.1538060" lon="-4.7329380">
        <ele>1268.6</ele>
        <time>2020-10-04T09:46:18Z</time>
      </trkpt>
      <trkpt lat="40.1538250" lon="-4.7329860">
        <ele>1268.8</ele>
        <time>2020-10-04T09:46:19Z</time>
      </trkpt>
      <trkpt lat="40.1538470" lon="-4.7330320">
        <ele>1269.0</ele>
        <time>2020-10-04T09:46:21Z</time>
      </trkpt>
      <trkpt lat="40.1538750" lon="-4.7330910">
        <ele>1269.2</ele>
        <time>2020-10-04T09:46:22Z</time>
      </trkpt>
      <trkpt lat="40.1539060" lon="-4.7331550">
        <ele>1269.4</ele>
        <time>2020-10-04T09:46:24Z</time>
      </trkpt>
      <trkpt lat="40.1539420" lon="-4.7332240">
        <ele>1269.7</ele>
        <time>2020-10-04T09:46:25Z</time>
      </trkpt>
      <trkpt lat="40.1539770" lon="-4.7332970">
        <ele>1269.9</ele>
        <time>2020-10-04T09:46:27Z</time>
      </trkpt>
      <trkpt lat="40.1540080" lon="-4.7333710">
        <ele>1270.2</ele>
        <time>2020-10-04T09:46:29Z</time>
      </trkpt>
      <trkpt lat="40.1540220" lon="-4.7334050">
        <ele>1270.3</ele>
        <time>2020-10-04T09:46:30Z</time>
      </trkpt>
      <trkpt lat="40.1540420" lon="-4.7334520">
        <ele>1270.5</ele>
        <time>2020-10-04T09:46:31Z</time>
      </trkpt>
      <trkpt lat="40.1540580" lon="-4.7334860">
        <ele>1270.6</ele>
        <time>2020-10-04T09:46:32Z</time>
      </trkpt>
      <trkpt lat="40.1540910" lon="-4.7335620">
        <ele>1270.8</ele>
        <time>2020-10-04T09:46:34Z</time>
      </trkpt>
      <trkpt lat="40.1541290" lon="-4.7336480">
        <ele>1271.1</ele>
        <time>2020-10-04T09:46:36Z</time>
      </trkpt>
      <trkpt lat="40.1541440" lon="-4.7336820">
        <ele>1271.2</ele>
        <time>2020-10-04T09:46:37Z</time>
      </trkpt>
      <trkpt lat="40.1541710" lon="-4.7337460">
        <ele>1271.4</ele>
        <time>2020-10-04T09:46:39Z</time>
      </trkpt>
      <trkpt lat="40.1541890" lon="-4.7337850">
        <ele>1271.5</ele>
        <time>2020-10-04T09:46:40Z</time>
      </trkpt>
      <trkpt lat="40.1542080" lon="-4.7338190">
        <ele>1271.6</ele>
        <time>2020-10-04T09:46:41Z</time>
      </trkpt>
      <trkpt lat="40.1542240" lon="-4.7338500">
        <ele>1271.7</ele>
        <time>2020-10-04T09:46:42Z</time>
      </trkpt>
      <trkpt lat="40.1542390" lon="-4.7338920">
        <ele>1271.9</ele>
        <time>2020-10-04T09:46:43Z</time>
      </trkpt>
      <trkpt lat="40.1542440" lon="-4.7339070">
        <ele>1272.0</ele>
        <time>2020-10-04T09:46:44Z</time>
      </trkpt>
      <trkpt lat="40.1542690" lon="-4.7339730">
        <ele>1272.3</ele>
        <time>2020-10-04T09:46:46Z</time>
      </trkpt>
      <trkpt lat="40.1542900" lon="-4.7340450">
        <ele>1272.7</ele>
        <time>2020-10-04T09:46:48Z</time>
      </trkpt>
      <trkpt lat="40.1543010" lon="-4.7341070">
        <ele>1273.0</ele>
        <time>2020-10-04T09:46:50Z</time>
      </trkpt>
      <trkpt lat="40.1543070" lon="-4.7341390">
        <ele>1273.2</ele>
        <time>2020-10-04T09:46:51Z</time>
      </trkpt>
      <trkpt lat="40.1543130" lon="-4.7342110">
        <ele>1273.6</ele>
        <time>2020-10-04T09:46:53Z</time>
      </trkpt>
      <trkpt lat="40.1543140" lon="-4.7342630">
        <ele>1273.9</ele>
        <time>2020-10-04T09:46:55Z</time>
      </trkpt>
      <trkpt lat="40.1543080" lon="-4.7343170">
        <ele>1274.2</ele>
        <time>2020-10-04T09:46:56Z</time>
      </trkpt>
      <trkpt lat="40.1543000" lon="-4.7343610">
        <ele>1274.4</ele>
        <time>2020-10-04T09:46:57Z</time>
      </trkpt>
      <trkpt lat="40.1542970" lon="-4.7343780">
        <ele>1274.5</ele>
        <time>2020-10-04T09:46:58Z</time>
      </trkpt>
      <trkpt lat="40.1542930" lon="-4.7344370">
        <ele>1274.8</ele>
        <time>2020-10-04T09:47:00Z</time>
      </trkpt>
      <trkpt lat="40.1542880" lon="-4.7344770">
        <ele>1275.0</ele>
        <time>2020-10-04T09:47:02Z</time>
      </trkpt>
      <trkpt lat="40.1542790" lon="-4.7345170">
        <ele>1275.2</ele>
        <time>2020-10-04T09:47:03Z</time>
      </trkpt>
      <trkpt lat="40.1542730" lon="-4.7345680">
        <ele>1275.4</ele>
        <time>2020-10-04T09:47:05Z</time>
      </trkpt>
      <trkpt lat="40.1542660" lon="-4.7346250">
        <ele>1275.7</ele>
        <time>2020-10-04T09:47:06Z</time>
      </trkpt>
      <trkpt lat="40.1542620" lon="-4.7346650">
        <ele>1275.8</ele>
        <time>2020-10-04T09:47:07Z</time>
      </trkpt>
      <trkpt lat="40.1542590" lon="-4.7347140">
        <ele>1276.0</ele>
        <time>2020-10-04T09:47:08Z</time>
      </trkpt>
      <trkpt lat="40.1542550" lon="-4.7347620">
        <ele>1276.2</ele>
        <time>2020-10-04T09:47:10Z</time>
      </trkpt>
      <trkpt lat="40.1542480" lon="-4.7348190">
        <ele>1276.5</ele>
        <time>2020-10-04T09:47:11Z</time>
      </trkpt>
      <trkpt lat="40.1542440" lon="-4.7348510">
        <ele>1276.6</ele>
        <time>2020-10-04T09:47:12Z</time>
      </trkpt>
      <trkpt lat="40.1542380" lon="-4.7349120">
        <ele>1276.9</ele>
        <time>2020-10-04T09:47:14Z</time>
      </trkpt>
      <trkpt lat="40.1542400" lon="-4.7349520">
        <ele>1277.0</ele>
        <time>2020-10-04T09:47:15Z</time>
      </trkpt>
      <trkpt lat="40.1542370" lon="-4.7350210">
        <ele>1277.2</ele>
        <time>2020-10-04T09:47:17Z</time>
      </trkpt>
      <trkpt lat="40.1542340" lon="-4.7350540">
        <ele>1277.4</ele>
        <time>2020-10-04T09:47:18Z</time>
      </trkpt>
      <trkpt lat="40.1542310" lon="-4.7351180">
        <ele>1277.6</ele>
        <time>2020-10-04T09:47:20Z</time>
      </trkpt>
      <trkpt lat="40.1542330" lon="-4.7351580">
        <ele>1277.8</ele>
        <time>2020-10-04T09:47:21Z</time>
      </trkpt>
      <trkpt lat="40.1542340" lon="-4.7351950">
        <ele>1278.0</ele>
        <time>2020-10-04T09:47:22Z</time>
      </trkpt>
      <trkpt lat="40.1542380" lon="-4.7352360">
        <ele>1278.2</ele>
        <time>2020-10-04T09:47:23Z</time>
      </trkpt>
      <trkpt lat="40.1542390" lon="-4.7352510">
        <ele>1278.3</ele>
        <time>2020-10-04T09:47:24Z</time>
      </trkpt>
      <trkpt lat="40.1542410" lon="-4.7352950">
        <ele>1278.6</ele>
        <time>2020-10-04T09:47:25Z</time>
      </trkpt>
      <trkpt lat="40.1542410" lon="-4.7353460">
        <ele>1278.9</ele>
        <time>2020-10-04T09:47:27Z</time>
      </trkpt>
      <trkpt lat="40.1542410" lon="-4.7353940">
        <ele>1279.2</ele>
        <time>2020-10-04T09:47:28Z</time>
      </trkpt>
      <trkpt lat="40.1542400" lon="-4.7354300">
        <ele>1279.5</ele>
        <time>2020-10-04T09:47:29Z</time>
      </trkpt>
      <trkpt lat="40.1542360" lon="-4.7355000">
        <ele>1280.0</ele>
        <time>2020-10-04T09:47:31Z</time>
      </trkpt>
      <trkpt lat="40.1542320" lon="-4.7355340">
        <ele>1280.2</ele>
        <time>2020-10-04T09:47:32Z</time>
      </trkpt>
      <trkpt lat="40.1542230" lon="-4.7355810">
        <ele>1280.5</ele>
        <time>2020-10-04T09:47:34Z</time>
      </trkpt>
      <trkpt lat="40.1542180" lon="-4.7356190">
        <ele>1280.7</ele>
        <time>2020-10-04T09:47:35Z</time>
      </trkpt>
      <trkpt lat="40.1542110" lon="-4.7356840">
        <ele>1281.0</ele>
        <time>2020-10-04T09:47:37Z</time>
      </trkpt>
      <trkpt lat="40.1542080" lon="-4.7357300">
        <ele>1281.1</ele>
        <time>2020-10-04T09:47:38Z</time>
      </trkpt>
      <trkpt lat="40.1542010" lon="-4.7357920">
        <ele>1281.4</ele>
        <time>2020-10-04T09:47:40Z</time>
      </trkpt>
      <trkpt lat="40.1541980" lon="-4.7358430">
        <ele>1281.6</ele>
        <time>2020-10-04T09:47:41Z</time>
      </trkpt>
      <trkpt lat="40.1541930" lon="-4.7359060">
        <ele>1281.8</ele>
        <time>2020-10-04T09:47:43Z</time>
      </trkpt>
      <trkpt lat="40.1541860" lon="-4.7359590">
        <ele>1282.0</ele>
        <time>2020-10-04T09:47:44Z</time>
      </trkpt>
      <trkpt lat="40.1541790" lon="-4.7360290">
        <ele>1282.2</ele>
        <time>2020-10-04T09:47:46Z</time>
      </trkpt>
      <trkpt lat="40.1541770" lon="-4.7360790">
        <ele>1282.4</ele>
        <time>2020-10-04T09:47:47Z</time>
      </trkpt>
      <trkpt lat="40.1541710" lon="-4.7361230">
        <ele>1282.5</ele>
        <time>2020-10-04T09:47:48Z</time>
      </trkpt>
      <trkpt lat="40.1541670" lon="-4.7361620">
        <ele>1282.6</ele>
        <time>2020-10-04T09:47:49Z</time>
      </trkpt>
      <trkpt lat="40.1541550" lon="-4.7362150">
        <ele>1282.9</ele>
        <time>2020-10-04T09:47:51Z</time>
      </trkpt>
      <trkpt lat="40.1541460" lon="-4.7362420">
        <ele>1283.0</ele>
        <time>2020-10-04T09:47:52Z</time>
      </trkpt>
      <trkpt lat="40.1541240" lon="-4.7362720">
        <ele>1283.3</ele>
        <time>2020-10-04T09:47:54Z</time>
      </trkpt>
      <trkpt lat="40.1541120" lon="-4.7363080">
        <ele>1283.6</ele>
        <time>2020-10-04T09:47:55Z</time>
      </trkpt>
      <trkpt lat="40.1541080" lon="-4.7363180">
        <ele>1283.7</ele>
        <time>2020-10-04T09:47:56Z</time>
      </trkpt>
      <trkpt lat="40.1540950" lon="-4.7363370">
        <ele>1283.9</ele>
        <time>2020-10-04T09:47:57Z</time>
      </trkpt>
      <trkpt lat="40.1540650" lon="-4.7363590">
        <ele>1284.3</ele>
        <time>2020-10-04T09:47:59Z</time>
      </trkpt>
      <trkpt lat="40.1540360" lon="-4.7363750">
        <ele>1284.7</ele>
        <time>2020-10-04T09:48:00Z</time>
      </trkpt>
      <trkpt lat="40.1540270" lon="-4.7363780">
        <ele>1284.8</ele>
        <time>2020-10-04T09:48:01Z</time>
      </trkpt>
      <trkpt lat="40.1540110" lon="-4.7363870">
        <ele>1285.0</ele>
        <time>2020-10-04T09:48:02Z</time>
      </trkpt>
      <trkpt lat="40.1539760" lon="-4.7363970">
        <ele>1285.4</ele>
        <time>2020-10-04T09:48:04Z</time>
      </trkpt>
      <trkpt lat="40.1539420" lon="-4.7363970">
        <ele>1285.8</ele>
        <time>2020-10-04T09:48:06Z</time>
      </trkpt>
      <trkpt lat="40.1539150" lon="-4.7363850">
        <ele>1286.2</ele>
        <time>2020-10-04T09:48:07Z</time>
      </trkpt>
      <trkpt lat="40.1538690" lon="-4.7363720">
        <ele>1286.7</ele>
        <time>2020-10-04T09:48:09Z</time>
      </trkpt>
      <trkpt lat="40.1538290" lon="-4.7363710">
        <ele>1287.1</ele>
        <time>2020-10-04T09:48:10Z</time>
      </trkpt>
      <trkpt lat="40.1538160" lon="-4.7363710">
        <ele>1287.2</ele>
        <time>2020-10-04T09:48:11Z</time>
      </trkpt>
      <trkpt lat="40.1537720" lon="-4.7363770">
        <ele>1287.7</ele>
        <time>2020-10-04T09:48:13Z</time>
      </trkpt>
      <trkpt lat="40.1537490" lon="-4.7363790">
        <ele>1287.9</ele>
        <time>2020-10-04T09:48:14Z</time>
      </trkpt>
      <trkpt lat="40.1537090" lon="-4.7363860">
        <ele>1288.4</ele>
        <time>2020-10-04T09:48:16Z</time>
      </trkpt>
      <trkpt lat="40.1536850" lon="-4.7363860">
        <ele>1288.7</ele>
        <time>2020-10-04T09:48:17Z</time>
      </trkpt>
      <trkpt lat="40.1536470" lon="-4.7363890">
        <ele>1289.1</ele>
        <time>2020-10-04T09:48:19Z</time>
      </trkpt>
      <trkpt lat="40.1536070" lon="-4.7363870">
        <ele>1289.6</ele>
        <time>2020-10-04T09:48:21Z</time>
      </trkpt>
      <trkpt lat="40.1535760" lon="-4.7363860">
        <ele>1289.9</ele>
        <time>2020-10-04T09:48:22Z</time>
      </trkpt>
      <trkpt lat="40.1535420" lon="-4.7363840">
        <ele>1290.2</ele>
        <time>2020-10-04T09:48:23Z</time>
      </trkpt>
      <trkpt lat="40.1535310" lon="-4.7363830">
        <ele>1290.3</ele>
        <time>2020-10-04T09:48:24Z</time>
      </trkpt>
      <trkpt lat="40.1534830" lon="-4.7363880">
        <ele>1290.7</ele>
        <time>2020-10-04T09:48:26Z</time>
      </trkpt>
      <trkpt lat="40.1534560" lon="-4.7363900">
        <ele>1290.9</ele>
        <time>2020-10-04T09:48:27Z</time>
      </trkpt>
      <trkpt lat="40.1534170" lon="-4.7364000">
        <ele>1291.2</ele>
        <time>2020-10-04T09:48:29Z</time>
      </trkpt>
      <trkpt lat="40.1534030" lon="-4.7364030">
        <ele>1291.3</ele>
        <time>2020-10-04T09:48:30Z</time>
      </trkpt>
      <trkpt lat="40.1533730" lon="-4.7364160">
        <ele>1291.5</ele>
        <time>2020-10-04T09:48:31Z</time>
      </trkpt>
      <trkpt lat="40.1533600" lon="-4.7364220">
        <ele>1291.6</ele>
        <time>2020-10-04T09:48:32Z</time>
      </trkpt>
      <trkpt lat="40.1533380" lon="-4.7364300">
        <ele>1291.8</ele>
        <time>2020-10-04T09:48:33Z</time>
      </trkpt>
      <trkpt lat="40.1533040" lon="-4.7364380">
        <ele>1292.1</ele>
        <time>2020-10-04T09:48:35Z</time>
      </trkpt>
      <trkpt lat="40.1532770" lon="-4.7364350">
        <ele>1292.3</ele>
        <time>2020-10-04T09:48:36Z</time>
      </trkpt>
      <trkpt lat="40.1532440" lon="-4.7364310">
        <ele>1292.6</ele>
        <time>2020-10-04T09:48:37Z</time>
      </trkpt>
      <trkpt lat="40.1532120" lon="-4.7364350">
        <ele>1292.8</ele>
        <time>2020-10-04T09:48:39Z</time>
      </trkpt>
      <trkpt lat="40.1531750" lon="-4.7364360">
        <ele>1293.1</ele>
        <time>2020-10-04T09:48:40Z</time>
      </trkpt>
      <trkpt lat="40.1531390" lon="-4.7364380">
        <ele>1293.4</ele>
        <time>2020-10-04T09:48:41Z</time>
      </trkpt>
      <trkpt lat="40.1531160" lon="-4.7364400">
        <ele>1293.6</ele>
        <time>2020-10-04T09:48:42Z</time>
      </trkpt>
      <trkpt lat="40.1530840" lon="-4.7364480">
        <ele>1293.9</ele>
        <time>2020-10-04T09:48:44Z</time>
      </trkpt>
      <trkpt lat="40.1530630" lon="-4.7364520">
        <ele>1294.1</ele>
        <time>2020-10-04T09:48:45Z</time>
      </trkpt>
      <trkpt lat="40.1530290" lon="-4.7364520">
        <ele>1294.3</ele>
        <time>2020-10-04T09:48:47Z</time>
      </trkpt>
      <trkpt lat="40.1530010" lon="-4.7364500">
        <ele>1294.5</ele>
        <time>2020-10-04T09:48:48Z</time>
      </trkpt>
      <trkpt lat="40.1529510" lon="-4.7364530">
        <ele>1294.9</ele>
        <time>2020-10-04T09:48:50Z</time>
      </trkpt>
      <trkpt lat="40.1529350" lon="-4.7364570">
        <ele>1295.0</ele>
        <time>2020-10-04T09:48:51Z</time>
      </trkpt>
      <trkpt lat="40.1529200" lon="-4.7364600">
        <ele>1295.0</ele>
        <time>2020-10-04T09:48:52Z</time>
      </trkpt>
      <trkpt lat="40.1528750" lon="-4.7364680">
        <ele>1295.3</ele>
        <time>2020-10-04T09:48:54Z</time>
      </trkpt>
      <trkpt lat="40.1528590" lon="-4.7364710">
        <ele>1295.4</ele>
        <time>2020-10-04T09:48:55Z</time>
      </trkpt>
      <trkpt lat="40.1528440" lon="-4.7364730">
        <ele>1295.5</ele>
        <time>2020-10-04T09:48:56Z</time>
      </trkpt>
      <trkpt lat="40.1528120" lon="-4.7364900">
        <ele>1295.7</ele>
        <time>2020-10-04T09:48:57Z</time>
      </trkpt>
      <trkpt lat="40.1527680" lon="-4.7365100">
        <ele>1295.9</ele>
        <time>2020-10-04T09:48:59Z</time>
      </trkpt>
      <trkpt lat="40.1527190" lon="-4.7365280">
        <ele>1296.2</ele>
        <time>2020-10-04T09:49:01Z</time>
      </trkpt>
      <trkpt lat="40.1526860" lon="-4.7365350">
        <ele>1296.4</ele>
        <time>2020-10-04T09:49:02Z</time>
      </trkpt>
      <trkpt lat="40.1526450" lon="-4.7365470">
        <ele>1296.7</ele>
        <time>2020-10-04T09:49:03Z</time>
      </trkpt>
      <trkpt lat="40.1525980" lon="-4.7365700">
        <ele>1297.0</ele>
        <time>2020-10-04T09:49:05Z</time>
      </trkpt>
      <trkpt lat="40.1525720" lon="-4.7365820">
        <ele>1297.1</ele>
        <time>2020-10-04T09:49:06Z</time>
      </trkpt>
      <trkpt lat="40.1525430" lon="-4.7366000">
        <ele>1297.4</ele>
        <time>2020-10-04T09:49:07Z</time>
      </trkpt>
      <trkpt lat="40.1525060" lon="-4.7366280">
        <ele>1297.7</ele>
        <time>2020-10-04T09:49:09Z</time>
      </trkpt>
      <trkpt lat="40.1524720" lon="-4.7366520">
        <ele>1297.9</ele>
        <time>2020-10-04T09:49:10Z</time>
      </trkpt>
      <trkpt lat="40.1524610" lon="-4.7366590">
        <ele>1298.0</ele>
        <time>2020-10-04T09:49:11Z</time>
      </trkpt>
      <trkpt lat="40.1524420" lon="-4.7366700">
        <ele>1298.2</ele>
        <time>2020-10-04T09:49:12Z</time>
      </trkpt>
      <trkpt lat="40.1524000" lon="-4.7366940">
        <ele>1298.5</ele>
        <time>2020-10-04T09:49:14Z</time>
      </trkpt>
      <trkpt lat="40.1523670" lon="-4.7367130">
        <ele>1298.7</ele>
        <time>2020-10-04T09:49:16Z</time>
      </trkpt>
      <trkpt lat="40.1523370" lon="-4.7367400">
        <ele>1299.0</ele>
        <time>2020-10-04T09:49:17Z</time>
      </trkpt>
      <trkpt lat="40.1523270" lon="-4.7367490">
        <ele>1299.1</ele>
        <time>2020-10-04T09:49:18Z</time>
      </trkpt>
      <trkpt lat="40.1522920" lon="-4.7367760">
        <ele>1299.4</ele>
        <time>2020-10-04T09:49:19Z</time>
      </trkpt>
      <trkpt lat="40.1522780" lon="-4.7367860">
        <ele>1299.5</ele>
        <time>2020-10-04T09:49:20Z</time>
      </trkpt>
      <trkpt lat="40.1522510" lon="-4.7368060">
        <ele>1299.8</ele>
        <time>2020-10-04T09:49:21Z</time>
      </trkpt>
      <trkpt lat="40.1522090" lon="-4.7368350">
        <ele>1300.1</ele>
        <time>2020-10-04T09:49:23Z</time>
      </trkpt>
      <trkpt lat="40.1521940" lon="-4.7368430">
        <ele>1300.2</ele>
        <time>2020-10-04T09:49:24Z</time>
      </trkpt>
      <trkpt lat="40.1521790" lon="-4.7368510">
        <ele>1300.3</ele>
        <time>2020-10-04T09:49:25Z</time>
      </trkpt>
      <trkpt lat="40.1521440" lon="-4.7368740">
        <ele>1300.5</ele>
        <time>2020-10-04T09:49:26Z</time>
      </trkpt>
      <trkpt lat="40.1521290" lon="-4.7368820">
        <ele>1300.6</ele>
        <time>2020-10-04T09:49:27Z</time>
      </trkpt>
      <trkpt lat="40.1520940" lon="-4.7369000">
        <ele>1300.8</ele>
        <time>2020-10-04T09:49:29Z</time>
      </trkpt>
      <trkpt lat="40.1520690" lon="-4.7369130">
        <ele>1301.0</ele>
        <time>2020-10-04T09:49:30Z</time>
      </trkpt>
      <trkpt lat="40.1520410" lon="-4.7369260">
        <ele>1301.2</ele>
        <time>2020-10-04T09:49:31Z</time>
      </trkpt>
      <trkpt lat="40.1520150" lon="-4.7369360">
        <ele>1301.4</ele>
        <time>2020-10-04T09:49:32Z</time>
      </trkpt>
      <trkpt lat="40.1519770" lon="-4.7369550">
        <ele>1301.6</ele>
        <time>2020-10-04T09:49:33Z</time>
      </trkpt>
      <trkpt lat="40.1519630" lon="-4.7369630">
        <ele>1301.7</ele>
        <time>2020-10-04T09:49:34Z</time>
      </trkpt>
      <trkpt lat="40.1519290" lon="-4.7369900">
        <ele>1302.0</ele>
        <time>2020-10-04T09:49:36Z</time>
      </trkpt>
      <trkpt lat="40.1519010" lon="-4.7370120">
        <ele>1302.2</ele>
        <time>2020-10-04T09:49:37Z</time>
      </trkpt>
      <trkpt lat="40.1518930" lon="-4.7370200">
        <ele>1302.3</ele>
        <time>2020-10-04T09:49:38Z</time>
      </trkpt>
      <trkpt lat="40.1518720" lon="-4.7370510">
        <ele>1302.5</ele>
        <time>2020-10-04T09:49:39Z</time>
      </trkpt>
      <trkpt lat="40.1518640" lon="-4.7370620">
        <ele>1302.5</ele>
        <time>2020-10-04T09:49:40Z</time>
      </trkpt>
      <trkpt lat="40.1518450" lon="-4.7370870">
        <ele>1302.7</ele>
        <time>2020-10-04T09:49:41Z</time>
      </trkpt>
      <trkpt lat="40.1518110" lon="-4.7371340">
        <ele>1303.0</ele>
        <time>2020-10-04T09:49:43Z</time>
      </trkpt>
      <trkpt lat="40.1517860" lon="-4.7371690">
        <ele>1303.3</ele>
        <time>2020-10-04T09:49:44Z</time>
      </trkpt>
      <trkpt lat="40.1517790" lon="-4.7371790">
        <ele>1303.4</ele>
        <time>2020-10-04T09:49:45Z</time>
      </trkpt>
      <trkpt lat="40.1517530" lon="-4.7372150">
        <ele>1303.7</ele>
        <time>2020-10-04T09:49:46Z</time>
      </trkpt>
      <trkpt lat="40.1517450" lon="-4.7372250">
        <ele>1303.8</ele>
        <time>2020-10-04T09:49:47Z</time>
      </trkpt>
      <trkpt lat="40.1517160" lon="-4.7372550">
        <ele>1304.1</ele>
        <time>2020-10-04T09:49:48Z</time>
      </trkpt>
      <trkpt lat="40.1517040" lon="-4.7372660">
        <ele>1304.2</ele>
        <time>2020-10-04T09:49:49Z</time>
      </trkpt>
      <trkpt lat="40.1516840" lon="-4.7372860">
        <ele>1304.4</ele>
        <time>2020-10-04T09:49:50Z</time>
      </trkpt>
      <trkpt lat="40.1516590" lon="-4.7373150">
        <ele>1304.7</ele>
        <time>2020-10-04T09:49:52Z</time>
      </trkpt>
      <trkpt lat="40.1516330" lon="-4.7373510">
        <ele>1305.0</ele>
        <time>2020-10-04T09:49:54Z</time>
      </trkpt>
      <trkpt lat="40.1516200" lon="-4.7373760">
        <ele>1305.1</ele>
        <time>2020-10-04T09:49:55Z</time>
      </trkpt>
      <trkpt lat="40.1515960" lon="-4.7374100">
        <ele>1305.4</ele>
        <time>2020-10-04T09:49:57Z</time>
      </trkpt>
      <trkpt lat="40.1515770" lon="-4.7374420">
        <ele>1305.7</ele>
        <time>2020-10-04T09:49:58Z</time>
      </trkpt>
      <trkpt lat="40.1515520" lon="-4.7374880">
        <ele>1306.0</ele>
        <time>2020-10-04T09:49:59Z</time>
      </trkpt>
      <trkpt lat="40.1515430" lon="-4.7375060">
        <ele>1306.1</ele>
        <time>2020-10-04T09:50:00Z</time>
      </trkpt>
      <trkpt lat="40.1515180" lon="-4.7375630">
        <ele>1306.5</ele>
        <time>2020-10-04T09:50:02Z</time>
      </trkpt>
      <trkpt lat="40.1514950" lon="-4.7376260">
        <ele>1307.0</ele>
        <time>2020-10-04T09:50:04Z</time>
      </trkpt>
      <trkpt lat="40.1514820" lon="-4.7376640">
        <ele>1307.3</ele>
        <time>2020-10-04T09:50:05Z</time>
      </trkpt>
      <trkpt lat="40.1514660" lon="-4.7377070">
        <ele>1307.6</ele>
        <time>2020-10-04T09:50:07Z</time>
      </trkpt>
      <trkpt lat="40.1514540" lon="-4.7377440">
        <ele>1307.9</ele>
        <time>2020-10-04T09:50:08Z</time>
      </trkpt>
      <trkpt lat="40.1514420" lon="-4.7377850">
        <ele>1308.2</ele>
        <time>2020-10-04T09:50:09Z</time>
      </trkpt>
      <trkpt lat="40.1514380" lon="-4.7377960">
        <ele>1308.3</ele>
        <time>2020-10-04T09:50:10Z</time>
      </trkpt>
      <trkpt lat="40.1514230" lon="-4.7378440">
        <ele>1308.7</ele>
        <time>2020-10-04T09:50:12Z</time>
      </trkpt>
      <trkpt lat="40.1514080" lon="-4.7378990">
        <ele>1309.1</ele>
        <time>2020-10-04T09:50:14Z</time>
      </trkpt>
      <trkpt lat="40.1513970" lon="-4.7379420">
        <ele>1309.4</ele>
        <time>2020-10-04T09:50:15Z</time>
      </trkpt>
      <trkpt lat="40.1513920" lon="-4.7379730">
        <ele>1309.6</ele>
        <time>2020-10-04T09:50:16Z</time>
      </trkpt>
      <trkpt lat="40.1513820" lon="-4.7380190">
        <ele>1309.9</ele>
        <time>2020-10-04T09:50:18Z</time>
      </trkpt>
      <trkpt lat="40.1513860" lon="-4.7380690">
        <ele>1310.1</ele>
        <time>2020-10-04T09:50:20Z</time>
      </trkpt>
      <trkpt lat="40.1513930" lon="-4.7381090">
        <ele>1310.3</ele>
        <time>2020-10-04T09:50:21Z</time>
      </trkpt>
      <trkpt lat="40.1513970" lon="-4.7381430">
        <ele>1310.5</ele>
        <time>2020-10-04T09:50:22Z</time>
      </trkpt>
      <trkpt lat="40.1514050" lon="-4.7382120">
        <ele>1310.9</ele>
        <time>2020-10-04T09:50:24Z</time>
      </trkpt>
      <trkpt lat="40.1514150" lon="-4.7382570">
        <ele>1311.1</ele>
        <time>2020-10-04T09:50:25Z</time>
      </trkpt>
      <trkpt lat="40.1514280" lon="-4.7382880">
        <ele>1311.3</ele>
        <time>2020-10-04T09:50:26Z</time>
      </trkpt>
      <trkpt lat="40.1514640" lon="-4.7383380">
        <ele>1311.7</ele>
        <time>2020-10-04T09:50:28Z</time>
      </trkpt>
      <trkpt lat="40.1514850" lon="-4.7383610">
        <ele>1311.9</ele>
        <time>2020-10-04T09:50:29Z</time>
      </trkpt>
      <trkpt lat="40.1515090" lon="-4.7383800">
        <ele>1312.1</ele>
        <time>2020-10-04T09:50:30Z</time>
      </trkpt>
      <trkpt lat="40.1515290" lon="-4.7383930">
        <ele>1312.3</ele>
        <time>2020-10-04T09:50:31Z</time>
      </trkpt>
      <trkpt lat="40.1515670" lon="-4.7384320">
        <ele>1312.7</ele>
        <time>2020-10-04T09:50:33Z</time>
      </trkpt>
      <trkpt lat="40.1515990" lon="-4.7384740">
        <ele>1313.1</ele>
        <time>2020-10-04T09:50:35Z</time>
      </trkpt>
      <trkpt lat="40.1516180" lon="-4.7384960">
        <ele>1313.3</ele>
        <time>2020-10-04T09:50:36Z</time>
      </trkpt>
      <trkpt lat="40.1516590" lon="-4.7385380">
        <ele>1313.7</ele>
        <time>2020-10-04T09:50:38Z</time>
      </trkpt>
      <trkpt lat="40.1517100" lon="-4.7385750">
        <ele>1314.2</ele>
        <time>2020-10-04T09:50:40Z</time>
      </trkpt>
      <trkpt lat="40.1517260" lon="-4.7385940">
        <ele>1314.4</ele>
        <time>2020-10-04T09:50:41Z</time>
      </trkpt>
      <trkpt lat="40.1517490" lon="-4.7386260">
        <ele>1314.7</ele>
        <time>2020-10-04T09:50:43Z</time>
      </trkpt>
      <trkpt lat="40.1517760" lon="-4.7386670">
        <ele>1315.1</ele>
        <time>2020-10-04T09:50:44Z</time>
      </trkpt>
      <trkpt lat="40.1517860" lon="-4.7386820">
        <ele>1315.2</ele>
        <time>2020-10-04T09:50:45Z</time>
      </trkpt>
      <trkpt lat="40.1518180" lon="-4.7387140">
        <ele>1315.6</ele>
        <time>2020-10-04T09:50:46Z</time>
      </trkpt>
      <trkpt lat="40.1518290" lon="-4.7387240">
        <ele>1315.7</ele>
        <time>2020-10-04T09:50:47Z</time>
      </trkpt>
      <trkpt lat="40.1518580" lon="-4.7387480">
        <ele>1316.0</ele>
        <time>2020-10-04T09:50:48Z</time>
      </trkpt>
      <trkpt lat="40.1518950" lon="-4.7387870">
        <ele>1316.4</ele>
        <time>2020-10-04T09:50:50Z</time>
      </trkpt>
      <trkpt lat="40.1519080" lon="-4.7388010">
        <ele>1316.5</ele>
        <time>2020-10-04T09:50:51Z</time>
      </trkpt>
      <trkpt lat="40.1519210" lon="-4.7388140">
        <ele>1316.6</ele>
        <time>2020-10-04T09:50:52Z</time>
      </trkpt>
      <trkpt lat="40.1519560" lon="-4.7388550">
        <ele>1316.9</ele>
        <time>2020-10-04T09:50:54Z</time>
      </trkpt>
      <trkpt lat="40.1519790" lon="-4.7388850">
        <ele>1317.2</ele>
        <time>2020-10-04T09:50:56Z</time>
      </trkpt>
      <trkpt lat="40.1520000" lon="-4.7389070">
        <ele>1317.3</ele>
        <time>2020-10-04T09:50:57Z</time>
      </trkpt>
      <trkpt lat="40.1520290" lon="-4.7389330">
        <ele>1317.6</ele>
        <time>2020-10-04T09:50:59Z</time>
      </trkpt>
      <trkpt lat="40.1520600" lon="-4.7389600">
        <ele>1317.8</ele>
        <time>2020-10-04T09:51:00Z</time>
      </trkpt>
      <trkpt lat="40.1520730" lon="-4.7389700">
        <ele>1317.9</ele>
        <time>2020-10-04T09:51:01Z</time>
      </trkpt>
      <trkpt lat="40.1521020" lon="-4.7389990">
        <ele>1318.2</ele>
        <time>2020-10-04T09:51:03Z</time>
      </trkpt>
      <trkpt lat="40.1521290" lon="-4.7390320">
        <ele>1318.5</ele>
        <time>2020-10-04T09:51:04Z</time>
      </trkpt>
      <trkpt lat="40.1521370" lon="-4.7390430">
        <ele>1318.6</ele>
        <time>2020-10-04T09:51:05Z</time>
      </trkpt>
      <trkpt lat="40.1521700" lon="-4.7390800">
        <ele>1319.0</ele>
        <time>2020-10-04T09:51:07Z</time>
      </trkpt>
      <trkpt lat="40.1522080" lon="-4.7391110">
        <ele>1319.4</ele>
        <time>2020-10-04T09:51:09Z</time>
      </trkpt>
      <trkpt lat="40.1522410" lon="-4.7391200">
        <ele>1319.8</ele>
        <time>2020-10-04T09:51:10Z</time>
      </trkpt>
      <trkpt lat="40.1522520" lon="-4.7391210">
        <ele>1319.9</ele>
        <time>2020-10-04T09:51:11Z</time>
      </trkpt>
      <trkpt lat="40.1522820" lon="-4.7391210">
        <ele>1320.2</ele>
        <time>2020-10-04T09:51:12Z</time>
      </trkpt>
      <trkpt lat="40.1522900" lon="-4.7391180">
        <ele>1320.3</ele>
        <time>2020-10-04T09:51:13Z</time>
      </trkpt>
      <trkpt lat="40.1523180" lon="-4.7390650">
        <ele>1320.8</ele>
        <time>2020-10-04T09:51:15Z</time>
      </trkpt>
      <trkpt lat="40.1523240" lon="-4.7390410">
        <ele>1321.0</ele>
        <time>2020-10-04T09:51:16Z</time>
      </trkpt>
      <trkpt lat="40.1523310" lon="-4.7390180">
        <ele>1321.2</ele>
        <time>2020-10-04T09:51:17Z</time>
      </trkpt>
      <trkpt lat="40.1523350" lon="-4.7389740">
        <ele>1321.6</ele>
        <time>2020-10-04T09:51:18Z</time>
      </trkpt>
      <trkpt lat="40.1523300" lon="-4.7389260">
        <ele>1322.0</ele>
        <time>2020-10-04T09:51:20Z</time>
      </trkpt>
      <trkpt lat="40.1523290" lon="-4.7388850">
        <ele>1322.3</ele>
        <time>2020-10-04T09:51:21Z</time>
      </trkpt>
      <trkpt lat="40.1523270" lon="-4.7388250">
        <ele>1322.8</ele>
        <time>2020-10-04T09:51:23Z</time>
      </trkpt>
      <trkpt lat="40.1523360" lon="-4.7387800">
        <ele>1323.1</ele>
        <time>2020-10-04T09:51:24Z</time>
      </trkpt>
      <trkpt lat="40.1523430" lon="-4.7387390">
        <ele>1323.4</ele>
        <time>2020-10-04T09:51:25Z</time>
      </trkpt>
      <trkpt lat="40.1523540" lon="-4.7386860">
        <ele>1323.9</ele>
        <time>2020-10-04T09:51:27Z</time>
      </trkpt>
      <trkpt lat="40.1523690" lon="-4.7386300">
        <ele>1324.3</ele>
        <time>2020-10-04T09:51:29Z</time>
      </trkpt>
      <trkpt lat="40.1523760" lon="-4.7385930">
        <ele>1324.6</ele>
        <time>2020-10-04T09:51:30Z</time>
      </trkpt>
      <trkpt lat="40.1523800" lon="-4.7385540">
        <ele>1325.0</ele>
        <time>2020-10-04T09:51:32Z</time>
      </trkpt>
      <trkpt lat="40.1523820" lon="-4.7385180">
        <ele>1325.2</ele>
        <time>2020-10-04T09:51:33Z</time>
      </trkpt>
      <trkpt lat="40.1523900" lon="-4.7384760">
        <ele>1325.6</ele>
        <time>2020-10-04T09:51:34Z</time>
      </trkpt>
      <trkpt lat="40.1523920" lon="-4.7384610">
        <ele>1325.7</ele>
        <time>2020-10-04T09:51:35Z</time>
      </trkpt>
      <trkpt lat="40.1523990" lon="-4.7384320">
        <ele>1325.9</ele>
        <time>2020-10-04T09:51:36Z</time>
      </trkpt>
      <trkpt lat="40.1524130" lon="-4.7383940">
        <ele>1326.1</ele>
        <time>2020-10-04T09:51:38Z</time>
      </trkpt>
      <trkpt lat="40.1524260" lon="-4.7383510">
        <ele>1326.4</ele>
        <time>2020-10-04T09:51:40Z</time>
      </trkpt>
      <trkpt lat="40.1524390" lon="-4.7383270">
        <ele>1326.6</ele>
        <time>2020-10-04T09:51:41Z</time>
      </trkpt>
      <trkpt lat="40.1524580" lon="-4.7382930">
        <ele>1326.8</ele>
        <time>2020-10-04T09:51:43Z</time>
      </trkpt>
      <trkpt lat="40.1524840" lon="-4.7382680">
        <ele>1327.1</ele>
        <time>2020-10-04T09:51:45Z</time>
      </trkpt>
      <trkpt lat="40.1525110" lon="-4.7382450">
        <ele>1327.3</ele>
        <time>2020-10-04T09:51:46Z</time>
      </trkpt>
      <trkpt lat="40.1525310" lon="-4.7382260">
        <ele>1327.5</ele>
        <time>2020-10-04T09:51:47Z</time>
      </trkpt>
      <trkpt lat="40.1525580" lon="-4.7382000">
        <ele>1327.8</ele>
        <time>2020-10-04T09:51:49Z</time>
      </trkpt>
      <trkpt lat="40.1525990" lon="-4.7381860">
        <ele>1328.0</ele>
        <time>2020-10-04T09:51:51Z</time>
      </trkpt>
      <trkpt lat="40.1526240" lon="-4.7381830">
        <ele>1328.2</ele>
        <time>2020-10-04T09:51:52Z</time>
      </trkpt>
      <trkpt lat="40.1526640" lon="-4.7381830">
        <ele>1328.4</ele>
        <time>2020-10-04T09:51:54Z</time>
      </trkpt>
      <trkpt lat="40.1526990" lon="-4.7381910">
        <ele>1328.5</ele>
        <time>2020-10-04T09:51:56Z</time>
      </trkpt>
      <trkpt lat="40.1527370" lon="-4.7382030">
        <ele>1328.6</ele>
        <time>2020-10-04T09:51:57Z</time>
      </trkpt>
      <trkpt lat="40.1527690" lon="-4.7382200">
        <ele>1328.8</ele>
        <time>2020-10-04T09:51:58Z</time>
      </trkpt>
      <trkpt lat="40.1527810" lon="-4.7382300">
        <ele>1328.8</ele>
        <time>2020-10-04T09:51:59Z</time>
      </trkpt>
      <trkpt lat="40.1528060" lon="-4.7382540">
        <ele>1329.0</ele>
        <time>2020-10-04T09:52:01Z</time>
      </trkpt>
      <trkpt lat="40.1528230" lon="-4.7382730">
        <ele>1329.5</ele>
        <time>2020-10-04T09:52:02Z</time>
      </trkpt>
      <trkpt lat="40.1528610" lon="-4.7383140">
        <ele>1329.8</ele>
        <time>2020-10-04T09:52:04Z</time>
      </trkpt>
      <trkpt lat="40.1528910" lon="-4.7383610">
        <ele>1330.1</ele>
        <time>2020-10-04T09:52:06Z</time>
      </trkpt>
      <trkpt lat="40.1529220" lon="-4.7384010">
        <ele>1330.4</ele>
        <time>2020-10-04T09:52:08Z</time>
      </trkpt>
      <trkpt lat="40.1529540" lon="-4.7384500">
        <ele>1330.7</ele>
        <time>2020-10-04T09:52:10Z</time>
      </trkpt>
      <trkpt lat="40.1529720" lon="-4.7384830">
        <ele>1330.9</ele>
        <time>2020-10-04T09:52:11Z</time>
      </trkpt>
      <trkpt lat="40.1530000" lon="-4.7385280">
        <ele>1331.1</ele>
        <time>2020-10-04T09:52:13Z</time>
      </trkpt>
      <trkpt lat="40.1530250" lon="-4.7385680">
        <ele>1331.4</ele>
        <time>2020-10-04T09:52:14Z</time>
      </trkpt>
      <trkpt lat="40.1530330" lon="-4.7385810">
        <ele>1331.5</ele>
        <time>2020-10-04T09:52:15Z</time>
      </trkpt>
      <trkpt lat="40.1530520" lon="-4.7386140">
        <ele>1331.7</ele>
        <time>2020-10-04T09:52:16Z</time>
      </trkpt>
      <trkpt lat="40.1530800" lon="-4.7386630">
        <ele>1332.0</ele>
        <time>2020-10-04T09:52:18Z</time>
      </trkpt>
      <trkpt lat="40.1530900" lon="-4.7386810">
        <ele>1332.1</ele>
        <time>2020-10-04T09:52:19Z</time>
      </trkpt>
      <trkpt lat="40.1530990" lon="-4.7386980">
        <ele>1332.2</ele>
        <time>2020-10-04T09:52:20Z</time>
      </trkpt>
      <trkpt lat="40.1531280" lon="-4.7387500">
        <ele>1332.5</ele>
        <time>2020-10-04T09:52:22Z</time>
      </trkpt>
      <trkpt lat="40.1531570" lon="-4.7388170">
        <ele>1332.8</ele>
        <time>2020-10-04T09:52:24Z</time>
      </trkpt>
      <trkpt lat="40.1531710" lon="-4.7388570">
        <ele>1333.0</ele>
        <time>2020-10-04T09:52:25Z</time>
      </trkpt>
      <trkpt lat="40.1531890" lon="-4.7389040">
        <ele>1333.3</ele>
        <time>2020-10-04T09:52:27Z</time>
      </trkpt>
      <trkpt lat="40.1532010" lon="-4.7389410">
        <ele>1333.5</ele>
        <time>2020-10-04T09:52:28Z</time>
      </trkpt>
      <trkpt lat="40.1532050" lon="-4.7389550">
        <ele>1333.5</ele>
        <time>2020-10-04T09:52:29Z</time>
      </trkpt>
      <trkpt lat="40.1532240" lon="-4.7390140">
        <ele>1333.8</ele>
        <time>2020-10-04T09:52:31Z</time>
      </trkpt>
      <trkpt lat="40.1532340" lon="-4.7390380">
        <ele>1334.0</ele>
        <time>2020-10-04T09:52:32Z</time>
      </trkpt>
      <trkpt lat="40.1532540" lon="-4.7390940">
        <ele>1334.3</ele>
        <time>2020-10-04T09:52:34Z</time>
      </trkpt>
      <trkpt lat="40.1532640" lon="-4.7391350">
        <ele>1334.5</ele>
        <time>2020-10-04T09:52:36Z</time>
      </trkpt>
      <trkpt lat="40.1532680" lon="-4.7391590">
        <ele>1334.6</ele>
        <time>2020-10-04T09:52:37Z</time>
      </trkpt>
      <trkpt lat="40.1532680" lon="-4.7391780">
        <ele>1334.7</ele>
        <time>2020-10-04T09:52:38Z</time>
      </trkpt>
      <trkpt lat="40.1532720" lon="-4.7392280">
        <ele>1335.0</ele>
        <time>2020-10-04T09:52:40Z</time>
      </trkpt>
      <trkpt lat="40.1532740" lon="-4.7392450">
        <ele>1335.1</ele>
        <time>2020-10-04T09:52:41Z</time>
      </trkpt>
      <trkpt lat="40.1532850" lon="-4.7392950">
        <ele>1335.4</ele>
        <time>2020-10-04T09:52:42Z</time>
      </trkpt>
      <trkpt lat="40.1532920" lon="-4.7393370">
        <ele>1335.7</ele>
        <time>2020-10-04T09:52:44Z</time>
      </trkpt>
      <trkpt lat="40.1533060" lon="-4.7393860">
        <ele>1336.0</ele>
        <time>2020-10-04T09:52:46Z</time>
      </trkpt>
      <trkpt lat="40.1533140" lon="-4.7394160">
        <ele>1336.2</ele>
        <time>2020-10-04T09:52:47Z</time>
      </trkpt>
      <trkpt lat="40.1533320" lon="-4.7394730">
        <ele>1336.6</ele>
        <time>2020-10-04T09:52:49Z</time>
      </trkpt>
      <trkpt lat="40.1533480" lon="-4.7395210">
        <ele>1337.0</ele>
        <time>2020-10-04T09:52:50Z</time>
      </trkpt>
      <trkpt lat="40.1533680" lon="-4.7395800">
        <ele>1337.5</ele>
        <time>2020-10-04T09:52:52Z</time>
      </trkpt>
      <trkpt lat="40.1533760" lon="-4.7396270">
        <ele>1337.8</ele>
        <time>2020-10-04T09:52:53Z</time>
      </trkpt>
      <trkpt lat="40.1533780" lon="-4.7396420">
        <ele>1337.9</ele>
        <time>2020-10-04T09:52:54Z</time>
      </trkpt>
      <trkpt lat="40.1533880" lon="-4.7396880">
        <ele>1338.2</ele>
        <time>2020-10-04T09:52:55Z</time>
      </trkpt>
      <trkpt lat="40.1533910" lon="-4.7397050">
        <ele>1338.3</ele>
        <time>2020-10-04T09:52:56Z</time>
      </trkpt>
      <trkpt lat="40.1534050" lon="-4.7397400">
        <ele>1338.6</ele>
        <time>2020-10-04T09:52:58Z</time>
      </trkpt>
      <trkpt lat="40.1534130" lon="-4.7397750">
        <ele>1338.8</ele>
        <time>2020-10-04T09:52:59Z</time>
      </trkpt>
      <trkpt lat="40.1534260" lon="-4.7398350">
        <ele>1339.2</ele>
        <time>2020-10-04T09:53:01Z</time>
      </trkpt>
      <trkpt lat="40.1534390" lon="-4.7398930">
        <ele>1339.6</ele>
        <time>2020-10-04T09:53:03Z</time>
      </trkpt>
      <trkpt lat="40.1534440" lon="-4.7399170">
        <ele>1339.7</ele>
        <time>2020-10-04T09:53:04Z</time>
      </trkpt>
      <trkpt lat="40.1534540" lon="-4.7399590">
        <ele>1340.0</ele>
        <time>2020-10-04T09:53:06Z</time>
      </trkpt>
      <trkpt lat="40.1534660" lon="-4.7399900">
        <ele>1340.2</ele>
        <time>2020-10-04T09:53:08Z</time>
      </trkpt>
      <trkpt lat="40.1534700" lon="-4.7400200">
        <ele>1340.4</ele>
        <time>2020-10-04T09:53:09Z</time>
      </trkpt>
      <trkpt lat="40.1534730" lon="-4.7400530">
        <ele>1340.6</ele>
        <time>2020-10-04T09:53:11Z</time>
      </trkpt>
      <trkpt lat="40.1534760" lon="-4.7400880">
        <ele>1340.8</ele>
        <time>2020-10-04T09:53:12Z</time>
      </trkpt>
      <trkpt lat="40.1534770" lon="-4.7401320">
        <ele>1341.1</ele>
        <time>2020-10-04T09:53:14Z</time>
      </trkpt>
      <trkpt lat="40.1534830" lon="-4.7401760">
        <ele>1341.4</ele>
        <time>2020-10-04T09:53:15Z</time>
      </trkpt>
      <trkpt lat="40.1534950" lon="-4.7402280">
        <ele>1341.7</ele>
        <time>2020-10-04T09:53:17Z</time>
      </trkpt>
      <trkpt lat="40.1535000" lon="-4.7402740">
        <ele>1342.0</ele>
        <time>2020-10-04T09:53:18Z</time>
      </trkpt>
      <trkpt lat="40.1535070" lon="-4.7403240">
        <ele>1342.3</ele>
        <time>2020-10-04T09:53:20Z</time>
      </trkpt>
      <trkpt lat="40.1535100" lon="-4.7403680">
        <ele>1342.5</ele>
        <time>2020-10-04T09:53:21Z</time>
      </trkpt>
      <trkpt lat="40.1535110" lon="-4.7403980">
        <ele>1342.7</ele>
        <time>2020-10-04T09:53:22Z</time>
      </trkpt>
      <trkpt lat="40.1535160" lon="-4.7404650">
        <ele>1343.1</ele>
        <time>2020-10-04T09:53:24Z</time>
      </trkpt>
      <trkpt lat="40.1535240" lon="-4.7405000">
        <ele>1343.3</ele>
        <time>2020-10-04T09:53:25Z</time>
      </trkpt>
      <trkpt lat="40.1535270" lon="-4.7405130">
        <ele>1343.3</ele>
        <time>2020-10-04T09:53:26Z</time>
      </trkpt>
      <trkpt lat="40.1535320" lon="-4.7405520">
        <ele>1343.6</ele>
        <time>2020-10-04T09:53:27Z</time>
      </trkpt>
      <trkpt lat="40.1535330" lon="-4.7405640">
        <ele>1343.6</ele>
        <time>2020-10-04T09:53:28Z</time>
      </trkpt>
      <trkpt lat="40.1535370" lon="-4.7406060">
        <ele>1343.9</ele>
        <time>2020-10-04T09:53:29Z</time>
      </trkpt>
      <trkpt lat="40.1535410" lon="-4.7406510">
        <ele>1344.1</ele>
        <time>2020-10-04T09:53:31Z</time>
      </trkpt>
      <trkpt lat="40.1535500" lon="-4.7407100">
        <ele>1344.4</ele>
        <time>2020-10-04T09:53:32Z</time>
      </trkpt>
      <trkpt lat="40.1535610" lon="-4.7407800">
        <ele>1344.8</ele>
        <time>2020-10-04T09:53:34Z</time>
      </trkpt>
      <trkpt lat="40.1535680" lon="-4.7408510">
        <ele>1345.1</ele>
        <time>2020-10-04T09:53:36Z</time>
      </trkpt>
      <trkpt lat="40.1535760" lon="-4.7409040">
        <ele>1345.4</ele>
        <time>2020-10-04T09:53:37Z</time>
      </trkpt>
      <trkpt lat="40.1535850" lon="-4.7409460">
        <ele>1345.6</ele>
        <time>2020-10-04T09:53:38Z</time>
      </trkpt>
      <trkpt lat="40.1535940" lon="-4.7409860">
        <ele>1345.8</ele>
        <time>2020-10-04T09:53:39Z</time>
      </trkpt>
      <trkpt lat="40.1535980" lon="-4.7410370">
        <ele>1346.0</ele>
        <time>2020-10-04T09:53:41Z</time>
      </trkpt>
      <trkpt lat="40.1536070" lon="-4.7411040">
        <ele>1346.4</ele>
        <time>2020-10-04T09:53:43Z</time>
      </trkpt>
      <trkpt lat="40.1536180" lon="-4.7411670">
        <ele>1346.7</ele>
        <time>2020-10-04T09:53:45Z</time>
      </trkpt>
      <trkpt lat="40.1536270" lon="-4.7412150">
        <ele>1347.0</ele>
        <time>2020-10-04T09:53:46Z</time>
      </trkpt>
      <trkpt lat="40.1536290" lon="-4.7412330">
        <ele>1347.1</ele>
        <time>2020-10-04T09:53:47Z</time>
      </trkpt>
      <trkpt lat="40.1536330" lon="-4.7412730">
        <ele>1347.3</ele>
        <time>2020-10-04T09:53:49Z</time>
      </trkpt>
      <trkpt lat="40.1536410" lon="-4.7413120">
        <ele>1347.5</ele>
        <time>2020-10-04T09:53:50Z</time>
      </trkpt>
      <trkpt lat="40.1536510" lon="-4.7413550">
        <ele>1347.8</ele>
        <time>2020-10-04T09:53:51Z</time>
      </trkpt>
      <trkpt lat="40.1536540" lon="-4.7413690">
        <ele>1347.8</ele>
        <time>2020-10-04T09:53:52Z</time>
      </trkpt>
      <trkpt lat="40.1536640" lon="-4.7414070">
        <ele>1348.1</ele>
        <time>2020-10-04T09:53:54Z</time>
      </trkpt>
      <trkpt lat="40.1536660" lon="-4.7414300">
        <ele>1348.2</ele>
        <time>2020-10-04T09:53:55Z</time>
      </trkpt>
      <trkpt lat="40.1536720" lon="-4.7414510">
        <ele>1348.4</ele>
        <time>2020-10-04T09:53:56Z</time>
      </trkpt>
      <trkpt lat="40.1536830" lon="-4.7414640">
        <ele>1348.5</ele>
        <time>2020-10-04T09:53:57Z</time>
      </trkpt>
      <trkpt lat="40.1536910" lon="-4.7414920">
        <ele>1348.7</ele>
        <time>2020-10-04T09:53:58Z</time>
      </trkpt>
      <trkpt lat="40.1536950" lon="-4.7415400">
        <ele>1349.0</ele>
        <time>2020-10-04T09:54:00Z</time>
      </trkpt>
      <trkpt lat="40.1536940" lon="-4.7415540">
        <ele>1349.1</ele>
        <time>2020-10-04T09:54:01Z</time>
      </trkpt>
      <trkpt lat="40.1536950" lon="-4.7415890">
        <ele>1349.3</ele>
        <time>2020-10-04T09:54:02Z</time>
      </trkpt>
      <trkpt lat="40.1536980" lon="-4.7416310">
        <ele>1349.6</ele>
        <time>2020-10-04T09:54:04Z</time>
      </trkpt>
      <trkpt lat="40.1537070" lon="-4.7416860">
        <ele>1350.0</ele>
        <time>2020-10-04T09:54:06Z</time>
      </trkpt>
      <trkpt lat="40.1537120" lon="-4.7417280">
        <ele>1350.3</ele>
        <time>2020-10-04T09:54:08Z</time>
      </trkpt>
      <trkpt lat="40.1537150" lon="-4.7417650">
        <ele>1350.6</ele>
        <time>2020-10-04T09:54:09Z</time>
      </trkpt>
      <trkpt lat="40.1537170" lon="-4.7417890">
        <ele>1350.8</ele>
        <time>2020-10-04T09:54:10Z</time>
      </trkpt>
      <trkpt lat="40.1537240" lon="-4.7418220">
        <ele>1351.1</ele>
        <time>2020-10-04T09:54:12Z</time>
      </trkpt>
      <trkpt lat="40.1537320" lon="-4.7418710">
        <ele>1351.4</ele>
        <time>2020-10-04T09:54:13Z</time>
      </trkpt>
      <trkpt lat="40.1537330" lon="-4.7418870">
        <ele>1351.6</ele>
        <time>2020-10-04T09:54:14Z</time>
      </trkpt>
      <trkpt lat="40.1537310" lon="-4.7419550">
        <ele>1352.1</ele>
        <time>2020-10-04T09:54:16Z</time>
      </trkpt>
      <trkpt lat="40.1537280" lon="-4.7419790">
        <ele>1352.3</ele>
        <time>2020-10-04T09:54:17Z</time>
      </trkpt>
      <trkpt lat="40.1537260" lon="-4.7420040">
        <ele>1352.4</ele>
        <time>2020-10-04T09:54:18Z</time>
      </trkpt>
      <trkpt lat="40.1537260" lon="-4.7420490">
        <ele>1352.7</ele>
        <time>2020-10-04T09:54:19Z</time>
      </trkpt>
      <trkpt lat="40.1537250" lon="-4.7420620">
        <ele>1352.8</ele>
        <time>2020-10-04T09:54:20Z</time>
      </trkpt>
      <trkpt lat="40.1537180" lon="-4.7421100">
        <ele>1353.2</ele>
        <time>2020-10-04T09:54:22Z</time>
      </trkpt>
      <trkpt lat="40.1537160" lon="-4.7421750">
        <ele>1353.6</ele>
        <time>2020-10-04T09:54:24Z</time>
      </trkpt>
      <trkpt lat="40.1537150" lon="-4.7421950">
        <ele>1353.7</ele>
        <time>2020-10-04T09:54:25Z</time>
      </trkpt>
      <trkpt lat="40.1537150" lon="-4.7422160">
        <ele>1353.9</ele>
        <time>2020-10-04T09:54:26Z</time>
      </trkpt>
      <trkpt lat="40.1537130" lon="-4.7422660">
        <ele>1354.2</ele>
        <time>2020-10-04T09:54:27Z</time>
      </trkpt>
      <trkpt lat="40.1537120" lon="-4.7422820">
        <ele>1354.3</ele>
        <time>2020-10-04T09:54:28Z</time>
      </trkpt>
      <trkpt lat="40.1537090" lon="-4.7423490">
        <ele>1354.7</ele>
        <time>2020-10-04T09:54:30Z</time>
      </trkpt>
      <trkpt lat="40.1537090" lon="-4.7423710">
        <ele>1354.8</ele>
        <time>2020-10-04T09:54:31Z</time>
      </trkpt>
      <trkpt lat="40.1537090" lon="-4.7423920">
        <ele>1355.0</ele>
        <time>2020-10-04T09:54:32Z</time>
      </trkpt>
      <trkpt lat="40.1537100" lon="-4.7424190">
        <ele>1355.1</ele>
        <time>2020-10-04T09:54:33Z</time>
      </trkpt>
      <trkpt lat="40.1537060" lon="-4.7424720">
        <ele>1355.4</ele>
        <time>2020-10-04T09:54:35Z</time>
      </trkpt>
      <trkpt lat="40.1537060" lon="-4.7425170">
        <ele>1355.7</ele>
        <time>2020-10-04T09:54:36Z</time>
      </trkpt>
      <trkpt lat="40.1537090" lon="-4.7425660">
        <ele>1355.9</ele>
        <time>2020-10-04T09:54:37Z</time>
      </trkpt>
      <trkpt lat="40.1537060" lon="-4.7426100">
        <ele>1356.1</ele>
        <time>2020-10-04T09:54:39Z</time>
      </trkpt>
      <trkpt lat="40.1537020" lon="-4.7426540">
        <ele>1356.3</ele>
        <time>2020-10-04T09:54:40Z</time>
      </trkpt>
      <trkpt lat="40.1537020" lon="-4.7427050">
        <ele>1356.5</ele>
        <time>2020-10-04T09:54:41Z</time>
      </trkpt>
      <trkpt lat="40.1537000" lon="-4.7427240">
        <ele>1356.5</ele>
        <time>2020-10-04T09:54:42Z</time>
      </trkpt>
      <trkpt lat="40.1537000" lon="-4.7427740">
        <ele>1356.7</ele>
        <time>2020-10-04T09:54:44Z</time>
      </trkpt>
      <trkpt lat="40.1537010" lon="-4.7427940">
        <ele>1356.8</ele>
        <time>2020-10-04T09:54:45Z</time>
      </trkpt>
      <trkpt lat="40.1537100" lon="-4.7428320">
        <ele>1356.9</ele>
        <time>2020-10-04T09:54:46Z</time>
      </trkpt>
      <trkpt lat="40.1537220" lon="-4.7428810">
        <ele>1357.1</ele>
        <time>2020-10-04T09:54:47Z</time>
      </trkpt>
      <trkpt lat="40.1537520" lon="-4.7429340">
        <ele>1357.3</ele>
        <time>2020-10-04T09:54:49Z</time>
      </trkpt>
      <trkpt lat="40.1537650" lon="-4.7429540">
        <ele>1357.4</ele>
        <time>2020-10-04T09:54:50Z</time>
      </trkpt>
      <trkpt lat="40.1537790" lon="-4.7429740">
        <ele>1357.5</ele>
        <time>2020-10-04T09:54:51Z</time>
      </trkpt>
      <trkpt lat="40.1537980" lon="-4.7429950">
        <ele>1357.6</ele>
        <time>2020-10-04T09:54:52Z</time>
      </trkpt>
      <trkpt lat="40.1538290" lon="-4.7430220">
        <ele>1357.8</ele>
        <time>2020-10-04T09:54:54Z</time>
      </trkpt>
      <trkpt lat="40.1538530" lon="-4.7430460">
        <ele>1357.9</ele>
        <time>2020-10-04T09:54:55Z</time>
      </trkpt>
      <trkpt lat="40.1539050" lon="-4.7430650">
        <ele>1358.1</ele>
        <time>2020-10-04T09:54:57Z</time>
      </trkpt>
      <trkpt lat="40.1539350" lon="-4.7430750">
        <ele>1358.2</ele>
        <time>2020-10-04T09:54:58Z</time>
      </trkpt>
      <trkpt lat="40.1539640" lon="-4.7430810">
        <ele>1358.3</ele>
        <time>2020-10-04T09:54:59Z</time>
      </trkpt>
      <trkpt lat="40.1540050" lon="-4.7430960">
        <ele>1358.5</ele>
        <time>2020-10-04T09:55:01Z</time>
      </trkpt>
      <trkpt lat="40.1540350" lon="-4.7431090">
        <ele>1358.6</ele>
        <time>2020-10-04T09:55:02Z</time>
      </trkpt>
      <trkpt lat="40.1540620" lon="-4.7431220">
        <ele>1358.7</ele>
        <time>2020-10-04T09:55:03Z</time>
      </trkpt>
      <trkpt lat="40.1541060" lon="-4.7431190">
        <ele>1358.9</ele>
        <time>2020-10-04T09:55:05Z</time>
      </trkpt>
      <trkpt lat="40.1541190" lon="-4.7431170">
        <ele>1358.9</ele>
        <time>2020-10-04T09:55:06Z</time>
      </trkpt>
      <trkpt lat="40.1541320" lon="-4.7431160">
        <ele>1359.0</ele>
        <time>2020-10-04T09:55:07Z</time>
      </trkpt>
      <trkpt lat="40.1541690" lon="-4.7431200">
        <ele>1359.1</ele>
        <time>2020-10-04T09:55:09Z</time>
      </trkpt>
      <trkpt lat="40.1541840" lon="-4.7431260">
        <ele>1359.1</ele>
        <time>2020-10-04T09:55:10Z</time>
      </trkpt>
      <trkpt lat="40.1542160" lon="-4.7431290">
        <ele>1359.2</ele>
        <time>2020-10-04T09:55:11Z</time>
      </trkpt>
      <trkpt lat="40.1542500" lon="-4.7431240">
        <ele>1359.3</ele>
        <time>2020-10-04T09:55:12Z</time>
      </trkpt>
      <trkpt lat="40.1542870" lon="-4.7431240">
        <ele>1359.4</ele>
        <time>2020-10-04T09:55:14Z</time>
      </trkpt>
      <trkpt lat="40.1543130" lon="-4.7431440">
        <ele>1359.5</ele>
        <time>2020-10-04T09:55:15Z</time>
      </trkpt>
      <trkpt lat="40.1543220" lon="-4.7431530">
        <ele>1359.6</ele>
        <time>2020-10-04T09:55:16Z</time>
      </trkpt>
      <trkpt lat="40.1543300" lon="-4.7431860">
        <ele>1359.6</ele>
        <time>2020-10-04T09:55:17Z</time>
      </trkpt>
      <trkpt lat="40.1543120" lon="-4.7432180">
        <ele>1359.7</ele>
        <time>2020-10-04T09:55:19Z</time>
      </trkpt>
      <trkpt lat="40.1542960" lon="-4.7432310">
        <ele>1359.7</ele>
        <time>2020-10-04T09:55:20Z</time>
      </trkpt>
      <trkpt lat="40.1542830" lon="-4.7432430">
        <ele>1359.7</ele>
        <time>2020-10-04T09:55:22Z</time>
      </trkpt>
      <trkpt lat="40.1542820" lon="-4.7432510">
        <ele>1359.8</ele>
        <time>2020-10-04T09:55:23Z</time>
      </trkpt>
      <trkpt lat="40.1542770" lon="-4.7432490">
        <ele>1359.8</ele>
        <time>2020-10-04T09:55:24Z</time>
      </trkpt>
      <trkpt lat="40.1542740" lon="-4.7432430">
        <ele>1359.8</ele>
        <time>2020-10-04T09:55:25Z</time>
      </trkpt>
      <trkpt lat="40.1542800" lon="-4.7432340">
        <ele>1359.8</ele>
        <time>2020-10-04T09:55:27Z</time>
      </trkpt>
      <trkpt lat="40.1542910" lon="-4.7432230">
        <ele>1359.8</ele>
        <time>2020-10-04T09:55:29Z</time>
      </trkpt>
      <trkpt lat="40.1542940" lon="-4.7432180">
        <ele>1359.8</ele>
        <time>2020-10-04T09:55:30Z</time>
      </trkpt>
      <trkpt lat="40.1542960" lon="-4.7432130">
        <ele>1359.8</ele>
        <time>2020-10-04T09:55:32Z</time>
      </trkpt>
      <trkpt lat="40.1542960" lon="-4.7432100">
        <ele>1359.8</ele>
        <time>2020-10-04T09:55:33Z</time>
      </trkpt>
      <trkpt lat="40.1542950" lon="-4.7432080">
        <ele>1359.8</ele>
        <time>2020-10-04T09:55:34Z</time>
      </trkpt>
      <trkpt lat="40.1542930" lon="-4.7432030">
        <ele>1359.8</ele>
        <time>2020-10-04T09:55:36Z</time>
      </trkpt>
      <trkpt lat="40.1541930" lon="-4.7431190">
        <ele>1359.6</ele>
        <time>2020-10-04T09:57:40Z</time>
      </trkpt>
      <trkpt lat="40.1541950" lon="-4.7431280">
        <ele>1359.6</ele>
        <time>2020-10-04T09:57:41Z</time>
      </trkpt>
      <trkpt lat="40.1541910" lon="-4.7431320">
        <ele>1359.6</ele>
        <time>2020-10-04T09:57:42Z</time>
      </trkpt>
      <trkpt lat="40.1541700" lon="-4.7431230">
        <ele>1359.5</ele>
        <time>2020-10-04T09:57:44Z</time>
      </trkpt>
      <trkpt lat="40.1541400" lon="-4.7431050">
        <ele>1359.4</ele>
        <time>2020-10-04T09:57:46Z</time>
      </trkpt>
      <trkpt lat="40.1541030" lon="-4.7430820">
        <ele>1359.3</ele>
        <time>2020-10-04T09:57:48Z</time>
      </trkpt>
      <trkpt lat="40.1540870" lon="-4.7430740">
        <ele>1359.2</ele>
        <time>2020-10-04T09:57:49Z</time>
      </trkpt>
      <trkpt lat="40.1540270" lon="-4.7430510">
        <ele>1359.0</ele>
        <time>2020-10-04T09:57:50Z</time>
      </trkpt>
      <trkpt lat="40.1539630" lon="-4.7430340">
        <ele>1358.8</ele>
        <time>2020-10-04T09:57:52Z</time>
      </trkpt>
      <trkpt lat="40.1538320" lon="-4.7430100">
        <ele>1358.2</ele>
        <time>2020-10-04T09:57:54Z</time>
      </trkpt>
      <trkpt lat="40.1537450" lon="-4.7429700">
        <ele>1357.8</ele>
        <time>2020-10-04T09:57:55Z</time>
      </trkpt>
      <trkpt lat="40.1536880" lon="-4.7429030">
        <ele>1357.5</ele>
        <time>2020-10-04T09:57:57Z</time>
      </trkpt>
      <trkpt lat="40.1536650" lon="-4.7428530">
        <ele>1357.2</ele>
        <time>2020-10-04T09:57:58Z</time>
      </trkpt>
      <trkpt lat="40.1536420" lon="-4.7427840">
        <ele>1356.9</ele>
        <time>2020-10-04T09:57:59Z</time>
      </trkpt>
      <trkpt lat="40.1536310" lon="-4.7427270">
        <ele>1356.7</ele>
        <time>2020-10-04T09:58:00Z</time>
      </trkpt>
      <trkpt lat="40.1536220" lon="-4.7426010">
        <ele>1356.2</ele>
        <time>2020-10-04T09:58:02Z</time>
      </trkpt>
      <trkpt lat="40.1536190" lon="-4.7425210">
        <ele>1355.9</ele>
        <time>2020-10-04T09:58:03Z</time>
      </trkpt>
      <trkpt lat="40.1536300" lon="-4.7423470">
        <ele>1354.8</ele>
        <time>2020-10-04T09:58:05Z</time>
      </trkpt>
      <trkpt lat="40.1536420" lon="-4.7422000">
        <ele>1353.8</ele>
        <time>2020-10-04T09:58:06Z</time>
      </trkpt>
      <trkpt lat="40.1536650" lon="-4.7420020">
        <ele>1352.5</ele>
        <time>2020-10-04T09:58:08Z</time>
      </trkpt>
      <trkpt lat="40.1536750" lon="-4.7419050">
        <ele>1351.7</ele>
        <time>2020-10-04T09:58:09Z</time>
      </trkpt>
      <trkpt lat="40.1536790" lon="-4.7418040">
        <ele>1351.0</ele>
        <time>2020-10-04T09:58:10Z</time>
      </trkpt>
      <trkpt lat="40.1536770" lon="-4.7417100">
        <ele>1350.2</ele>
        <time>2020-10-04T09:58:11Z</time>
      </trkpt>
      <trkpt lat="40.1536610" lon="-4.7415190">
        <ele>1348.9</ele>
        <time>2020-10-04T09:58:13Z</time>
      </trkpt>
      <trkpt lat="40.1536400" lon="-4.7413300">
        <ele>1347.7</ele>
        <time>2020-10-04T09:58:15Z</time>
      </trkpt>
      <trkpt lat="40.1536140" lon="-4.7411550">
        <ele>1346.7</ele>
        <time>2020-10-04T09:58:17Z</time>
      </trkpt>
      <trkpt lat="40.1535960" lon="-4.7410720">
        <ele>1346.3</ele>
        <time>2020-10-04T09:58:18Z</time>
      </trkpt>
      <trkpt lat="40.1535680" lon="-4.7409050">
        <ele>1345.5</ele>
        <time>2020-10-04T09:58:20Z</time>
      </trkpt>
      <trkpt lat="40.1535550" lon="-4.7408200">
        <ele>1345.0</ele>
        <time>2020-10-04T09:58:21Z</time>
      </trkpt>
      <trkpt lat="40.1535320" lon="-4.7406540">
        <ele>1344.2</ele>
        <time>2020-10-04T09:58:23Z</time>
      </trkpt>
      <trkpt lat="40.1535170" lon="-4.7404890">
        <ele>1343.3</ele>
        <time>2020-10-04T09:58:25Z</time>
      </trkpt>
      <trkpt lat="40.1535090" lon="-4.7404060">
        <ele>1342.8</ele>
        <time>2020-10-04T09:58:26Z</time>
      </trkpt>
      <trkpt lat="40.1534900" lon="-4.7402400">
        <ele>1341.8</ele>
        <time>2020-10-04T09:58:28Z</time>
      </trkpt>
      <trkpt lat="40.1534780" lon="-4.7401530">
        <ele>1341.3</ele>
        <time>2020-10-04T09:58:29Z</time>
      </trkpt>
      <trkpt lat="40.1534490" lon="-4.7399780">
        <ele>1340.2</ele>
        <time>2020-10-04T09:58:31Z</time>
      </trkpt>
      <trkpt lat="40.1534310" lon="-4.7398840">
        <ele>1339.6</ele>
        <time>2020-10-04T09:58:32Z</time>
      </trkpt>
      <trkpt lat="40.1534100" lon="-4.7397890">
        <ele>1338.9</ele>
        <time>2020-10-04T09:58:33Z</time>
      </trkpt>
      <trkpt lat="40.1533660" lon="-4.7395970">
        <ele>1337.6</ele>
        <time>2020-10-04T09:58:35Z</time>
      </trkpt>
      <trkpt lat="40.1533450" lon="-4.7395000">
        <ele>1336.9</ele>
        <time>2020-10-04T09:58:36Z</time>
      </trkpt>
      <trkpt lat="40.1532890" lon="-4.7393170">
        <ele>1335.6</ele>
        <time>2020-10-04T09:58:38Z</time>
      </trkpt>
      <trkpt lat="40.1532600" lon="-4.7392260">
        <ele>1335.0</ele>
        <time>2020-10-04T09:58:39Z</time>
      </trkpt>
      <trkpt lat="40.1532350" lon="-4.7391330">
        <ele>1334.5</ele>
        <time>2020-10-04T09:58:40Z</time>
      </trkpt>
      <trkpt lat="40.1531980" lon="-4.7389380">
        <ele>1333.5</ele>
        <time>2020-10-04T09:58:42Z</time>
      </trkpt>
      <trkpt lat="40.1531610" lon="-4.7388460">
        <ele>1333.0</ele>
        <time>2020-10-04T09:58:43Z</time>
      </trkpt>
      <trkpt lat="40.1531220" lon="-4.7387600">
        <ele>1332.5</ele>
        <time>2020-10-04T09:58:44Z</time>
      </trkpt>
      <trkpt lat="40.1530880" lon="-4.7386760">
        <ele>1332.1</ele>
        <time>2020-10-04T09:58:45Z</time>
      </trkpt>
      <trkpt lat="40.1530530" lon="-4.7385970">
        <ele>1331.6</ele>
        <time>2020-10-04T09:58:46Z</time>
      </trkpt>
      <trkpt lat="40.1529720" lon="-4.7384550">
        <ele>1330.8</ele>
        <time>2020-10-04T09:58:48Z</time>
      </trkpt>
      <trkpt lat="40.1528860" lon="-4.7383160">
        <ele>1329.9</ele>
        <time>2020-10-04T09:58:50Z</time>
      </trkpt>
      <trkpt lat="40.1528430" lon="-4.7382440">
        <ele>1329.5</ele>
        <time>2020-10-04T09:58:51Z</time>
      </trkpt>
      <trkpt lat="40.1527960" lon="-4.7381810">
        <ele>1329.0</ele>
        <time>2020-10-04T09:58:52Z</time>
      </trkpt>
      <trkpt lat="40.1526860" lon="-4.7380980">
        <ele>1328.4</ele>
        <time>2020-10-04T09:58:54Z</time>
      </trkpt>
      <trkpt lat="40.1525650" lon="-4.7380980">
        <ele>1327.7</ele>
        <time>2020-10-04T09:58:56Z</time>
      </trkpt>
      <trkpt lat="40.1524600" lon="-4.7381590">
        <ele>1326.8</ele>
        <time>2020-10-04T09:58:58Z</time>
      </trkpt>
      <trkpt lat="40.1523900" lon="-4.7382800">
        <ele>1325.9</ele>
        <time>2020-10-04T09:59:00Z</time>
      </trkpt>
      <trkpt lat="40.1523460" lon="-4.7384060">
        <ele>1324.9</ele>
        <time>2020-10-04T09:59:02Z</time>
      </trkpt>
      <trkpt lat="40.1523280" lon="-4.7385560">
        <ele>1323.7</ele>
        <time>2020-10-04T09:59:04Z</time>
      </trkpt>
      <trkpt lat="40.1523130" lon="-4.7387120">
        <ele>1322.4</ele>
        <time>2020-10-04T09:59:06Z</time>
      </trkpt>
      <trkpt lat="40.1522980" lon="-4.7387880">
        <ele>1321.8</ele>
        <time>2020-10-04T09:59:07Z</time>
      </trkpt>
      <trkpt lat="40.1522820" lon="-4.7389260">
        <ele>1320.6</ele>
        <time>2020-10-04T09:59:09Z</time>
      </trkpt>
      <trkpt lat="40.1522730" lon="-4.7389890">
        <ele>1320.1</ele>
        <time>2020-10-04T09:59:10Z</time>
      </trkpt>
      <trkpt lat="40.1522010" lon="-4.7390640">
        <ele>1319.1</ele>
        <time>2020-10-04T09:59:12Z</time>
      </trkpt>
      <trkpt lat="40.1521520" lon="-4.7390550">
        <ele>1318.7</ele>
        <time>2020-10-04T09:59:13Z</time>
      </trkpt>
      <trkpt lat="40.1521070" lon="-4.7390230">
        <ele>1318.2</ele>
        <time>2020-10-04T09:59:14Z</time>
      </trkpt>
      <trkpt lat="40.1520690" lon="-4.7389780">
        <ele>1317.8</ele>
        <time>2020-10-04T09:59:15Z</time>
      </trkpt>
      <trkpt lat="40.1520290" lon="-4.7389230">
        <ele>1317.4</ele>
        <time>2020-10-04T09:59:16Z</time>
      </trkpt>
      <trkpt lat="40.1519420" lon="-4.7388100">
        <ele>1316.6</ele>
        <time>2020-10-04T09:59:18Z</time>
      </trkpt>
      <trkpt lat="40.1518880" lon="-4.7387530">
        <ele>1316.0</ele>
        <time>2020-10-04T09:59:19Z</time>
      </trkpt>
      <trkpt lat="40.1517780" lon="-4.7386270">
        <ele>1314.7</ele>
        <time>2020-10-04T09:59:21Z</time>
      </trkpt>
      <trkpt lat="40.1516590" lon="-4.7384980">
        <ele>1313.4</ele>
        <time>2020-10-04T09:59:23Z</time>
      </trkpt>
      <trkpt lat="40.1515980" lon="-4.7384390">
        <ele>1312.7</ele>
        <time>2020-10-04T09:59:24Z</time>
      </trkpt>
      <trkpt lat="40.1515390" lon="-4.7383790">
        <ele>1312.1</ele>
        <time>2020-10-04T09:59:25Z</time>
      </trkpt>
      <trkpt lat="40.1514760" lon="-4.7383290">
        <ele>1311.5</ele>
        <time>2020-10-04T09:59:26Z</time>
      </trkpt>
      <trkpt lat="40.1513630" lon="-4.7382280">
        <ele>1310.6</ele>
        <time>2020-10-04T09:59:28Z</time>
      </trkpt>
      <trkpt lat="40.1513310" lon="-4.7381580">
        <ele>1310.1</ele>
        <time>2020-10-04T09:59:29Z</time>
      </trkpt>
      <trkpt lat="40.1513050" lon="-4.7379850">
        <ele>1309.1</ele>
        <time>2020-10-04T09:59:31Z</time>
      </trkpt>
      <trkpt lat="40.1513390" lon="-4.7378040">
        <ele>1307.7</ele>
        <time>2020-10-04T09:59:33Z</time>
      </trkpt>
      <trkpt lat="40.1513690" lon="-4.7377140">
        <ele>1307.0</ele>
        <time>2020-10-04T09:59:34Z</time>
      </trkpt>
      <trkpt lat="40.1514400" lon="-4.7375320">
        <ele>1305.7</ele>
        <time>2020-10-04T09:59:36Z</time>
      </trkpt>
      <trkpt lat="40.1514810" lon="-4.7374510">
        <ele>1305.1</ele>
        <time>2020-10-04T09:59:37Z</time>
      </trkpt>
      <trkpt lat="40.1515300" lon="-4.7373770">
        <ele>1304.5</ele>
        <time>2020-10-04T09:59:38Z</time>
      </trkpt>
      <trkpt lat="40.1515810" lon="-4.7373080">
        <ele>1303.9</ele>
        <time>2020-10-04T09:59:39Z</time>
      </trkpt>
      <trkpt lat="40.1516710" lon="-4.7371630">
        <ele>1302.8</ele>
        <time>2020-10-04T09:59:41Z</time>
      </trkpt>
      <trkpt lat="40.1517170" lon="-4.7370860">
        <ele>1302.3</ele>
        <time>2020-10-04T09:59:42Z</time>
      </trkpt>
      <trkpt lat="40.1518240" lon="-4.7369480">
        <ele>1301.3</ele>
        <time>2020-10-04T09:59:44Z</time>
      </trkpt>
      <trkpt lat="40.1519550" lon="-4.7368360">
        <ele>1300.3</ele>
        <time>2020-10-04T09:59:46Z</time>
      </trkpt>
      <trkpt lat="40.1520970" lon="-4.7367550">
        <ele>1299.3</ele>
        <time>2020-10-04T09:59:48Z</time>
      </trkpt>
      <trkpt lat="40.1521750" lon="-4.7367120">
        <ele>1298.6</ele>
        <time>2020-10-04T09:59:49Z</time>
      </trkpt>
      <trkpt lat="40.1522570" lon="-4.7366670">
        <ele>1298.0</ele>
        <time>2020-10-04T09:59:50Z</time>
      </trkpt>
      <trkpt lat="40.1524240" lon="-4.7365700">
        <ele>1296.8</ele>
        <time>2020-10-04T09:59:52Z</time>
      </trkpt>
      <trkpt lat="40.1525800" lon="-4.7364700">
        <ele>1295.7</ele>
        <time>2020-10-04T09:59:54Z</time>
      </trkpt>
      <trkpt lat="40.1527190" lon="-4.7364130">
        <ele>1294.9</ele>
        <time>2020-10-04T09:59:56Z</time>
      </trkpt>
      <trkpt lat="40.1527950" lon="-4.7363950">
        <ele>1294.3</ele>
        <time>2020-10-04T09:59:57Z</time>
      </trkpt>
      <trkpt lat="40.1529650" lon="-4.7363940">
        <ele>1292.9</ele>
        <time>2020-10-04T09:59:59Z</time>
      </trkpt>
      <trkpt lat="40.1530540" lon="-4.7363930">
        <ele>1292.2</ele>
        <time>2020-10-04T10:00:00Z</time>
      </trkpt>
      <trkpt lat="40.1532290" lon="-4.7363690">
        <ele>1290.8</ele>
        <time>2020-10-04T10:00:02Z</time>
      </trkpt>
      <trkpt lat="40.1533180" lon="-4.7363490">
        <ele>1290.0</ele>
        <time>2020-10-04T10:00:03Z</time>
      </trkpt>
      <trkpt lat="40.1535010" lon="-4.7363140">
        <ele>1288.0</ele>
        <time>2020-10-04T10:00:05Z</time>
      </trkpt>
      <trkpt lat="40.1536750" lon="-4.7363020">
        <ele>1286.1</ele>
        <time>2020-10-04T10:00:07Z</time>
      </trkpt>
      <trkpt lat="40.1538360" lon="-4.7362790">
        <ele>1284.1</ele>
        <time>2020-10-04T10:00:09Z</time>
      </trkpt>
      <trkpt lat="40.1539330" lon="-4.7361890">
        <ele>1282.9</ele>
        <time>2020-10-04T10:00:11Z</time>
      </trkpt>
      <trkpt lat="40.1539580" lon="-4.7361330">
        <ele>1282.6</ele>
        <time>2020-10-04T10:00:12Z</time>
      </trkpt>
      <trkpt lat="40.1539690" lon="-4.7360710">
        <ele>1282.4</ele>
        <time>2020-10-04T10:00:13Z</time>
      </trkpt>
      <trkpt lat="40.1539700" lon="-4.7359330">
        <ele>1282.0</ele>
        <time>2020-10-04T10:00:15Z</time>
      </trkpt>
      <trkpt lat="40.1539820" lon="-4.7357810">
        <ele>1281.4</ele>
        <time>2020-10-04T10:00:17Z</time>
      </trkpt>
      <trkpt lat="40.1539980" lon="-4.7356380">
        <ele>1280.8</ele>
        <time>2020-10-04T10:00:19Z</time>
      </trkpt>
      <trkpt lat="40.1540110" lon="-4.7355640">
        <ele>1280.5</ele>
        <time>2020-10-04T10:00:20Z</time>
      </trkpt>
      <trkpt lat="40.1540220" lon="-4.7354880">
        <ele>1280.0</ele>
        <time>2020-10-04T10:00:21Z</time>
      </trkpt>
      <trkpt lat="40.1540460" lon="-4.7353160">
        <ele>1278.8</ele>
        <time>2020-10-04T10:00:23Z</time>
      </trkpt>
      <trkpt lat="40.1540660" lon="-4.7351290">
        <ele>1277.7</ele>
        <time>2020-10-04T10:00:25Z</time>
      </trkpt>
      <trkpt lat="40.1540740" lon="-4.7350270">
        <ele>1277.3</ele>
        <time>2020-10-04T10:00:26Z</time>
      </trkpt>
      <trkpt lat="40.1540850" lon="-4.7349180">
        <ele>1276.9</ele>
        <time>2020-10-04T10:00:27Z</time>
      </trkpt>
      <trkpt lat="40.1541150" lon="-4.7346900">
        <ele>1275.9</ele>
        <time>2020-10-04T10:00:29Z</time>
      </trkpt>
      <trkpt lat="40.1541320" lon="-4.7345730">
        <ele>1275.4</ele>
        <time>2020-10-04T10:00:30Z</time>
      </trkpt>
      <trkpt lat="40.1541490" lon="-4.7344570">
        <ele>1274.9</ele>
        <time>2020-10-04T10:00:31Z</time>
      </trkpt>
      <trkpt lat="40.1541620" lon="-4.7343400">
        <ele>1274.2</ele>
        <time>2020-10-04T10:00:32Z</time>
      </trkpt>
      <trkpt lat="40.1541780" lon="-4.7341050">
        <ele>1272.9</ele>
        <time>2020-10-04T10:00:34Z</time>
      </trkpt>
      <trkpt lat="40.1541590" lon="-4.7338650">
        <ele>1271.8</ele>
        <time>2020-10-04T10:00:36Z</time>
      </trkpt>
      <trkpt lat="40.1540800" lon="-4.7336450">
        <ele>1271.1</ele>
        <time>2020-10-04T10:00:38Z</time>
      </trkpt>
      <trkpt lat="40.1540300" lon="-4.7335400">
        <ele>1270.8</ele>
        <time>2020-10-04T10:00:39Z</time>
      </trkpt>
      <trkpt lat="40.1539470" lon="-4.7333240">
        <ele>1270.0</ele>
        <time>2020-10-04T10:00:41Z</time>
      </trkpt>
      <trkpt lat="40.1538720" lon="-4.7331160">
        <ele>1269.3</ele>
        <time>2020-10-04T10:00:43Z</time>
      </trkpt>
      <trkpt lat="40.1538330" lon="-4.7330170">
        <ele>1269.0</ele>
        <time>2020-10-04T10:00:44Z</time>
      </trkpt>
      <trkpt lat="40.1537480" lon="-4.7328240">
        <ele>1268.1</ele>
        <time>2020-10-04T10:00:46Z</time>
      </trkpt>
      <trkpt lat="40.1537010" lon="-4.7327230">
        <ele>1267.6</ele>
        <time>2020-10-04T10:00:47Z</time>
      </trkpt>
      <trkpt lat="40.1536530" lon="-4.7326230">
        <ele>1267.3</ele>
        <time>2020-10-04T10:00:48Z</time>
      </trkpt>
      <trkpt lat="40.1535440" lon="-4.7324340">
        <ele>1266.9</ele>
        <time>2020-10-04T10:00:50Z</time>
      </trkpt>
      <trkpt lat="40.1534270" lon="-4.7322560">
        <ele>1267.0</ele>
        <time>2020-10-04T10:00:52Z</time>
      </trkpt>
      <trkpt lat="40.1533150" lon="-4.7320850">
        <ele>1266.6</ele>
        <time>2020-10-04T10:00:54Z</time>
      </trkpt>
      <trkpt lat="40.1532660" lon="-4.7319960">
        <ele>1266.5</ele>
        <time>2020-10-04T10:00:55Z</time>
      </trkpt>
      <trkpt lat="40.1532190" lon="-4.7319100">
        <ele>1266.5</ele>
        <time>2020-10-04T10:00:56Z</time>
      </trkpt>
      <trkpt lat="40.1531370" lon="-4.7317470">
        <ele>1266.7</ele>
        <time>2020-10-04T10:00:58Z</time>
      </trkpt>
      <trkpt lat="40.1530770" lon="-4.7315950">
        <ele>1267.1</ele>
        <time>2020-10-04T10:01:00Z</time>
      </trkpt>
      <trkpt lat="40.1530550" lon="-4.7315240">
        <ele>1267.3</ele>
        <time>2020-10-04T10:01:01Z</time>
      </trkpt>
      <trkpt lat="40.1530850" lon="-4.7313940">
        <ele>1267.6</ele>
        <time>2020-10-04T10:01:03Z</time>
      </trkpt>
      <trkpt lat="40.1531220" lon="-4.7313440">
        <ele>1267.7</ele>
        <time>2020-10-04T10:01:04Z</time>
      </trkpt>
      <trkpt lat="40.1531790" lon="-4.7312640">
        <ele>1267.9</ele>
        <time>2020-10-04T10:01:06Z</time>
      </trkpt>
      <trkpt lat="40.1531980" lon="-4.7312310">
        <ele>1268.0</ele>
        <time>2020-10-04T10:01:07Z</time>
      </trkpt>
      <trkpt lat="40.1532460" lon="-4.7311550">
        <ele>1268.1</ele>
        <time>2020-10-04T10:01:09Z</time>
      </trkpt>
      <trkpt lat="40.1532730" lon="-4.7311090">
        <ele>1268.2</ele>
        <time>2020-10-04T10:01:10Z</time>
      </trkpt>
      <trkpt lat="40.1532920" lon="-4.7310600">
        <ele>1268.3</ele>
        <time>2020-10-04T10:01:11Z</time>
      </trkpt>
      <trkpt lat="40.1533280" lon="-4.7310000">
        <ele>1268.3</ele>
        <time>2020-10-04T10:01:13Z</time>
      </trkpt>
      <trkpt lat="40.1533550" lon="-4.7309960">
        <ele>1268.3</ele>
        <time>2020-10-04T10:01:14Z</time>
      </trkpt>
      <trkpt lat="40.1533680" lon="-4.7309690">
        <ele>1268.3</ele>
        <time>2020-10-04T10:01:15Z</time>
      </trkpt>
      <trkpt lat="40.1534030" lon="-4.7308100">
        <ele>1268.2</ele>
        <time>2020-10-04T10:01:17Z</time>
      </trkpt>
      <trkpt lat="40.1534550" lon="-4.7306620">
        <ele>1268.0</ele>
        <time>2020-10-04T10:01:19Z</time>
      </trkpt>
      <trkpt lat="40.1534770" lon="-4.7305950">
        <ele>1267.9</ele>
        <time>2020-10-04T10:01:20Z</time>
      </trkpt>
      <trkpt lat="40.1535230" lon="-4.7304750">
        <ele>1267.6</ele>
        <time>2020-10-04T10:01:22Z</time>
      </trkpt>
      <trkpt lat="40.1535460" lon="-4.7304120">
        <ele>1267.5</ele>
        <time>2020-10-04T10:01:23Z</time>
      </trkpt>
      <trkpt lat="40.1535950" lon="-4.7302870">
        <ele>1267.3</ele>
        <time>2020-10-04T10:01:25Z</time>
      </trkpt>
      <trkpt lat="40.1536230" lon="-4.7302260">
        <ele>1267.2</ele>
        <time>2020-10-04T10:01:26Z</time>
      </trkpt>
      <trkpt lat="40.1536730" lon="-4.7301000">
        <ele>1266.9</ele>
        <time>2020-10-04T10:01:28Z</time>
      </trkpt>
      <trkpt lat="40.1536970" lon="-4.7300320">
        <ele>1266.7</ele>
        <time>2020-10-04T10:01:29Z</time>
      </trkpt>
      <trkpt lat="40.1537430" lon="-4.7298890">
        <ele>1266.3</ele>
        <time>2020-10-04T10:01:31Z</time>
      </trkpt>
      <trkpt lat="40.1537630" lon="-4.7298120">
        <ele>1266.1</ele>
        <time>2020-10-04T10:01:32Z</time>
      </trkpt>
      <trkpt lat="40.1537970" lon="-4.7296450">
        <ele>1265.8</ele>
        <time>2020-10-04T10:01:34Z</time>
      </trkpt>
      <trkpt lat="40.1538070" lon="-4.7295580">
        <ele>1265.6</ele>
        <time>2020-10-04T10:01:35Z</time>
      </trkpt>
      <trkpt lat="40.1538150" lon="-4.7294710">
        <ele>1265.4</ele>
        <time>2020-10-04T10:01:36Z</time>
      </trkpt>
      <trkpt lat="40.1538270" lon="-4.7292950">
        <ele>1265.0</ele>
        <time>2020-10-04T10:01:38Z</time>
      </trkpt>
      <trkpt lat="40.1538330" lon="-4.7292050">
        <ele>1264.8</ele>
        <time>2020-10-04T10:01:39Z</time>
      </trkpt>
      <trkpt lat="40.1538390" lon="-4.7290260">
        <ele>1264.5</ele>
        <time>2020-10-04T10:01:41Z</time>
      </trkpt>
      <trkpt lat="40.1538410" lon="-4.7289330">
        <ele>1264.3</ele>
        <time>2020-10-04T10:01:42Z</time>
      </trkpt>
      <trkpt lat="40.1538320" lon="-4.7287490">
        <ele>1263.9</ele>
        <time>2020-10-04T10:01:44Z</time>
      </trkpt>
      <trkpt lat="40.1538190" lon="-4.7285620">
        <ele>1263.5</ele>
        <time>2020-10-04T10:01:46Z</time>
      </trkpt>
      <trkpt lat="40.1538150" lon="-4.7283820">
        <ele>1263.2</ele>
        <time>2020-10-04T10:01:48Z</time>
      </trkpt>
      <trkpt lat="40.1538100" lon="-4.7282930">
        <ele>1263.0</ele>
        <time>2020-10-04T10:01:49Z</time>
      </trkpt>
      <trkpt lat="40.1538010" lon="-4.7281250">
        <ele>1262.7</ele>
        <time>2020-10-04T10:01:51Z</time>
      </trkpt>
      <trkpt lat="40.1537850" lon="-4.7279590">
        <ele>1262.5</ele>
        <time>2020-10-04T10:01:53Z</time>
      </trkpt>
      <trkpt lat="40.1537490" lon="-4.7277970">
        <ele>1262.2</ele>
        <time>2020-10-04T10:01:55Z</time>
      </trkpt>
      <trkpt lat="40.1537140" lon="-4.7276410">
        <ele>1262.0</ele>
        <time>2020-10-04T10:01:57Z</time>
      </trkpt>
      <trkpt lat="40.1536850" lon="-4.7274960">
        <ele>1261.8</ele>
        <time>2020-10-04T10:01:59Z</time>
      </trkpt>
      <trkpt lat="40.1536490" lon="-4.7273670">
        <ele>1261.6</ele>
        <time>2020-10-04T10:02:01Z</time>
      </trkpt>
      <trkpt lat="40.1536230" lon="-4.7273060">
        <ele>1261.6</ele>
        <time>2020-10-04T10:02:02Z</time>
      </trkpt>
      <trkpt lat="40.1535990" lon="-4.7272450">
        <ele>1261.5</ele>
        <time>2020-10-04T10:02:03Z</time>
      </trkpt>
      <trkpt lat="40.1535600" lon="-4.7271290">
        <ele>1261.3</ele>
        <time>2020-10-04T10:02:05Z</time>
      </trkpt>
      <trkpt lat="40.1535210" lon="-4.7270080">
        <ele>1261.0</ele>
        <time>2020-10-04T10:02:07Z</time>
      </trkpt>
      <trkpt lat="40.1535010" lon="-4.7269440">
        <ele>1260.9</ele>
        <time>2020-10-04T10:02:08Z</time>
      </trkpt>
      <trkpt lat="40.1534420" lon="-4.7268180">
        <ele>1260.6</ele>
        <time>2020-10-04T10:02:10Z</time>
      </trkpt>
      <trkpt lat="40.1533650" lon="-4.7266930">
        <ele>1260.3</ele>
        <time>2020-10-04T10:02:12Z</time>
      </trkpt>
      <trkpt lat="40.1533230" lon="-4.7266260">
        <ele>1260.2</ele>
        <time>2020-10-04T10:02:13Z</time>
      </trkpt>
      <trkpt lat="40.1532800" lon="-4.7265590">
        <ele>1260.0</ele>
        <time>2020-10-04T10:02:14Z</time>
      </trkpt>
      <trkpt lat="40.1532380" lon="-4.7264910">
        <ele>1259.9</ele>
        <time>2020-10-04T10:02:15Z</time>
      </trkpt>
      <trkpt lat="40.1531570" lon="-4.7263590">
        <ele>1259.5</ele>
        <time>2020-10-04T10:02:17Z</time>
      </trkpt>
      <trkpt lat="40.1531150" lon="-4.7263020">
        <ele>1259.3</ele>
        <time>2020-10-04T10:02:18Z</time>
      </trkpt>
      <trkpt lat="40.1530220" lon="-4.7262150">
        <ele>1259.0</ele>
        <time>2020-10-04T10:02:20Z</time>
      </trkpt>
      <trkpt lat="40.1529150" lon="-4.7261460">
        <ele>1258.7</ele>
        <time>2020-10-04T10:02:22Z</time>
      </trkpt>
      <trkpt lat="40.1528580" lon="-4.7261160">
        <ele>1258.5</ele>
        <time>2020-10-04T10:02:23Z</time>
      </trkpt>
      <trkpt lat="40.1528000" lon="-4.7260870">
        <ele>1258.4</ele>
        <time>2020-10-04T10:02:24Z</time>
      </trkpt>
      <trkpt lat="40.1526880" lon="-4.7260350">
        <ele>1258.2</ele>
        <time>2020-10-04T10:02:26Z</time>
      </trkpt>
      <trkpt lat="40.1525750" lon="-4.7259750">
        <ele>1258.0</ele>
        <time>2020-10-04T10:02:28Z</time>
      </trkpt>
      <trkpt lat="40.1524730" lon="-4.7258510">
        <ele>1257.8</ele>
        <time>2020-10-04T10:02:30Z</time>
      </trkpt>
      <trkpt lat="40.1524270" lon="-4.7257790">
        <ele>1257.7</ele>
        <time>2020-10-04T10:02:31Z</time>
      </trkpt>
      <trkpt lat="40.1523500" lon="-4.7256270">
        <ele>1257.7</ele>
        <time>2020-10-04T10:02:33Z</time>
      </trkpt>
      <trkpt lat="40.1523140" lon="-4.7254650">
        <ele>1257.7</ele>
        <time>2020-10-04T10:02:35Z</time>
      </trkpt>
      <trkpt lat="40.1523200" lon="-4.7253820">
        <ele>1257.7</ele>
        <time>2020-10-04T10:02:36Z</time>
      </trkpt>
      <trkpt lat="40.1523360" lon="-4.7252190">
        <ele>1257.6</ele>
        <time>2020-10-04T10:02:38Z</time>
      </trkpt>
      <trkpt lat="40.1523130" lon="-4.7250770">
        <ele>1257.3</ele>
        <time>2020-10-04T10:02:40Z</time>
      </trkpt>
      <trkpt lat="40.1522410" lon="-4.7249940">
        <ele>1257.0</ele>
        <time>2020-10-04T10:02:42Z</time>
      </trkpt>
      <trkpt lat="40.1521950" lon="-4.7249710">
        <ele>1256.7</ele>
        <time>2020-10-04T10:02:43Z</time>
      </trkpt>
      <trkpt lat="40.1520870" lon="-4.7249630">
        <ele>1256.2</ele>
        <time>2020-10-04T10:02:45Z</time>
      </trkpt>
      <trkpt lat="40.1519640" lon="-4.7249400">
        <ele>1255.6</ele>
        <time>2020-10-04T10:02:47Z</time>
      </trkpt>
      <trkpt lat="40.1518970" lon="-4.7249170">
        <ele>1255.2</ele>
        <time>2020-10-04T10:02:48Z</time>
      </trkpt>
      <trkpt lat="40.1518310" lon="-4.7248870">
        <ele>1254.8</ele>
        <time>2020-10-04T10:02:49Z</time>
      </trkpt>
      <trkpt lat="40.1517110" lon="-4.7247890">
        <ele>1254.1</ele>
        <time>2020-10-04T10:02:51Z</time>
      </trkpt>
      <trkpt lat="40.1515860" lon="-4.7246820">
        <ele>1253.1</ele>
        <time>2020-10-04T10:02:53Z</time>
      </trkpt>
      <trkpt lat="40.1515210" lon="-4.7246350">
        <ele>1252.7</ele>
        <time>2020-10-04T10:02:54Z</time>
      </trkpt>
      <trkpt lat="40.1514530" lon="-4.7246000">
        <ele>1252.3</ele>
        <time>2020-10-04T10:02:55Z</time>
      </trkpt>
      <trkpt lat="40.1513080" lon="-4.7245520">
        <ele>1251.4</ele>
        <time>2020-10-04T10:02:57Z</time>
      </trkpt>
      <trkpt lat="40.1511560" lon="-4.7245150">
        <ele>1250.5</ele>
        <time>2020-10-04T10:02:59Z</time>
      </trkpt>
      <trkpt lat="40.1510810" lon="-4.7244850">
        <ele>1250.0</ele>
        <time>2020-10-04T10:03:00Z</time>
      </trkpt>
      <trkpt lat="40.1509330" lon="-4.7244270">
        <ele>1249.0</ele>
        <time>2020-10-04T10:03:02Z</time>
      </trkpt>
      <trkpt lat="40.1508580" lon="-4.7244010">
        <ele>1248.6</ele>
        <time>2020-10-04T10:03:03Z</time>
      </trkpt>
      <trkpt lat="40.1507130" lon="-4.7243500">
        <ele>1247.7</ele>
        <time>2020-10-04T10:03:05Z</time>
      </trkpt>
      <trkpt lat="40.1506350" lon="-4.7243230">
        <ele>1247.3</ele>
        <time>2020-10-04T10:03:06Z</time>
      </trkpt>
      <trkpt lat="40.1504840" lon="-4.7242730">
        <ele>1246.6</ele>
        <time>2020-10-04T10:03:08Z</time>
      </trkpt>
      <trkpt lat="40.1503480" lon="-4.7242250">
        <ele>1246.0</ele>
        <time>2020-10-04T10:03:10Z</time>
      </trkpt>
      <trkpt lat="40.1502280" lon="-4.7241870">
        <ele>1245.8</ele>
        <time>2020-10-04T10:03:12Z</time>
      </trkpt>
      <trkpt lat="40.1501450" lon="-4.7241310">
        <ele>1245.7</ele>
        <time>2020-10-04T10:03:14Z</time>
      </trkpt>
      <trkpt lat="40.1500800" lon="-4.7240950">
        <ele>1245.6</ele>
        <time>2020-10-04T10:03:16Z</time>
      </trkpt>
      <trkpt lat="40.1500020" lon="-4.7240500">
        <ele>1245.3</ele>
        <time>2020-10-04T10:03:18Z</time>
      </trkpt>
      <trkpt lat="40.1499400" lon="-4.7240180">
        <ele>1245.0</ele>
        <time>2020-10-04T10:03:20Z</time>
      </trkpt>
      <trkpt lat="40.1498680" lon="-4.7239720">
        <ele>1244.5</ele>
        <time>2020-10-04T10:03:22Z</time>
      </trkpt>
      <trkpt lat="40.1498450" lon="-4.7239500">
        <ele>1244.4</ele>
        <time>2020-10-04T10:03:23Z</time>
      </trkpt>
      <trkpt lat="40.1498110" lon="-4.7239240">
        <ele>1244.2</ele>
        <time>2020-10-04T10:03:24Z</time>
      </trkpt>
      <trkpt lat="40.1497770" lon="-4.7239150">
        <ele>1244.0</ele>
        <time>2020-10-04T10:03:25Z</time>
      </trkpt>
      <trkpt lat="40.1497100" lon="-4.7239040">
        <ele>1243.7</ele>
        <time>2020-10-04T10:03:26Z</time>
      </trkpt>
      <trkpt lat="40.1496330" lon="-4.7239000">
        <ele>1243.2</ele>
        <time>2020-10-04T10:03:28Z</time>
      </trkpt>
      <trkpt lat="40.1495230" lon="-4.7239400">
        <ele>1242.5</ele>
        <time>2020-10-04T10:03:30Z</time>
      </trkpt>
      <trkpt lat="40.1494420" lon="-4.7240330">
        <ele>1241.9</ele>
        <time>2020-10-04T10:03:32Z</time>
      </trkpt>
      <trkpt lat="40.1494080" lon="-4.7240910">
        <ele>1241.6</ele>
        <time>2020-10-04T10:03:33Z</time>
      </trkpt>
      <trkpt lat="40.1493730" lon="-4.7241480">
        <ele>1241.2</ele>
        <time>2020-10-04T10:03:34Z</time>
      </trkpt>
      <trkpt lat="40.1492970" lon="-4.7242490">
        <ele>1240.5</ele>
        <time>2020-10-04T10:03:36Z</time>
      </trkpt>
      <trkpt lat="40.1492200" lon="-4.7243370">
        <ele>1239.7</ele>
        <time>2020-10-04T10:03:38Z</time>
      </trkpt>
      <trkpt lat="40.1491790" lon="-4.7243780">
        <ele>1239.3</ele>
        <time>2020-10-04T10:03:39Z</time>
      </trkpt>
      <trkpt lat="40.1491350" lon="-4.7244140">
        <ele>1238.9</ele>
        <time>2020-10-04T10:03:40Z</time>
      </trkpt>
      <trkpt lat="40.1490160" lon="-4.7245010">
        <ele>1237.8</ele>
        <time>2020-10-04T10:03:42Z</time>
      </trkpt>
      <trkpt lat="40.1489450" lon="-4.7245450">
        <ele>1237.2</ele>
        <time>2020-10-04T10:03:43Z</time>
      </trkpt>
      <trkpt lat="40.1487970" lon="-4.7246080">
        <ele>1236.1</ele>
        <time>2020-10-04T10:03:45Z</time>
      </trkpt>
      <trkpt lat="40.1487210" lon="-4.7246180">
        <ele>1235.6</ele>
        <time>2020-10-04T10:03:46Z</time>
      </trkpt>
      <trkpt lat="40.1485730" lon="-4.7246520">
        <ele>1234.6</ele>
        <time>2020-10-04T10:03:48Z</time>
      </trkpt>
      <trkpt lat="40.1484500" lon="-4.7246690">
        <ele>1233.8</ele>
        <time>2020-10-04T10:03:50Z</time>
      </trkpt>
      <trkpt lat="40.1483390" lon="-4.7246560">
        <ele>1233.1</ele>
        <time>2020-10-04T10:03:52Z</time>
      </trkpt>
      <trkpt lat="40.1482290" lon="-4.7246300">
        <ele>1232.4</ele>
        <time>2020-10-04T10:03:54Z</time>
      </trkpt>
      <trkpt lat="40.1481930" lon="-4.7246220">
        <ele>1232.1</ele>
        <time>2020-10-04T10:03:55Z</time>
      </trkpt>
      <trkpt lat="40.1481290" lon="-4.7246100">
        <ele>1231.7</ele>
        <time>2020-10-04T10:03:57Z</time>
      </trkpt>
      <trkpt lat="40.1480880" lon="-4.7245970">
        <ele>1231.5</ele>
        <time>2020-10-04T10:03:58Z</time>
      </trkpt>
      <trkpt lat="40.1480360" lon="-4.7245840">
        <ele>1231.2</ele>
        <time>2020-10-04T10:03:59Z</time>
      </trkpt>
      <trkpt lat="40.1479040" lon="-4.7245770">
        <ele>1230.3</ele>
        <time>2020-10-04T10:04:01Z</time>
      </trkpt>
      <trkpt lat="40.1478000" lon="-4.7245770">
        <ele>1229.7</ele>
        <time>2020-10-04T10:04:02Z</time>
      </trkpt>
      <trkpt lat="40.1476910" lon="-4.7245770">
        <ele>1229.0</ele>
        <time>2020-10-04T10:04:04Z</time>
      </trkpt>
      <trkpt lat="40.1475840" lon="-4.7245590">
        <ele>1228.3</ele>
        <time>2020-10-04T10:04:06Z</time>
      </trkpt>
      <trkpt lat="40.1474530" lon="-4.7245330">
        <ele>1227.5</ele>
        <time>2020-10-04T10:04:08Z</time>
      </trkpt>
      <trkpt lat="40.1473780" lon="-4.7245200">
        <ele>1227.1</ele>
        <time>2020-10-04T10:04:09Z</time>
      </trkpt>
      <trkpt lat="40.1472320" lon="-4.7244760">
        <ele>1226.2</ele>
        <time>2020-10-04T10:04:11Z</time>
      </trkpt>
      <trkpt lat="40.1471020" lon="-4.7244290">
        <ele>1225.5</ele>
        <time>2020-10-04T10:04:13Z</time>
      </trkpt>
      <trkpt lat="40.1470360" lon="-4.7244070">
        <ele>1225.1</ele>
        <time>2020-10-04T10:04:14Z</time>
      </trkpt>
      <trkpt lat="40.1469790" lon="-4.7243870">
        <ele>1224.7</ele>
        <time>2020-10-04T10:04:15Z</time>
      </trkpt>
      <trkpt lat="40.1468560" lon="-4.7243730">
        <ele>1224.0</ele>
        <time>2020-10-04T10:04:17Z</time>
      </trkpt>
      <trkpt lat="40.1467810" lon="-4.7243760">
        <ele>1223.6</ele>
        <time>2020-10-04T10:04:18Z</time>
      </trkpt>
      <trkpt lat="40.1466160" lon="-4.7243820">
        <ele>1222.7</ele>
        <time>2020-10-04T10:04:20Z</time>
      </trkpt>
      <trkpt lat="40.1465320" lon="-4.7243790">
        <ele>1222.2</ele>
        <time>2020-10-04T10:04:21Z</time>
      </trkpt>
      <trkpt lat="40.1463600" lon="-4.7243360">
        <ele>1221.4</ele>
        <time>2020-10-04T10:04:23Z</time>
      </trkpt>
      <trkpt lat="40.1462810" lon="-4.7242920">
        <ele>1221.0</ele>
        <time>2020-10-04T10:04:24Z</time>
      </trkpt>
      <trkpt lat="40.1462100" lon="-4.7242420">
        <ele>1220.6</ele>
        <time>2020-10-04T10:04:25Z</time>
      </trkpt>
      <trkpt lat="40.1460850" lon="-4.7241640">
        <ele>1219.9</ele>
        <time>2020-10-04T10:04:27Z</time>
      </trkpt>
      <trkpt lat="40.1460290" lon="-4.7241330">
        <ele>1219.7</ele>
        <time>2020-10-04T10:04:28Z</time>
      </trkpt>
      <trkpt lat="40.1459150" lon="-4.7240560">
        <ele>1219.1</ele>
        <time>2020-10-04T10:04:30Z</time>
      </trkpt>
      <trkpt lat="40.1458070" lon="-4.7239860">
        <ele>1218.5</ele>
        <time>2020-10-04T10:04:32Z</time>
      </trkpt>
      <trkpt lat="40.1457590" lon="-4.7239580">
        <ele>1218.3</ele>
        <time>2020-10-04T10:04:33Z</time>
      </trkpt>
      <trkpt lat="40.1457200" lon="-4.7239310">
        <ele>1218.2</ele>
        <time>2020-10-04T10:04:34Z</time>
      </trkpt>
      <trkpt lat="40.1456840" lon="-4.7239060">
        <ele>1218.1</ele>
        <time>2020-10-04T10:04:35Z</time>
      </trkpt>
      <trkpt lat="40.1456700" lon="-4.7238980">
        <ele>1218.0</ele>
        <time>2020-10-04T10:04:36Z</time>
      </trkpt>
      <trkpt lat="40.1456160" lon="-4.7238900">
        <ele>1217.9</ele>
        <time>2020-10-04T10:04:38Z</time>
      </trkpt>
      <trkpt lat="40.1455940" lon="-4.7238700">
        <ele>1217.8</ele>
        <time>2020-10-04T10:04:39Z</time>
      </trkpt>
      <trkpt lat="40.1455830" lon="-4.7238630">
        <ele>1217.7</ele>
        <time>2020-10-04T10:04:40Z</time>
      </trkpt>
      <trkpt lat="40.1455530" lon="-4.7238490">
        <ele>1217.7</ele>
        <time>2020-10-04T10:04:41Z</time>
      </trkpt>
      <trkpt lat="40.1455620" lon="-4.7238620">
        <ele>1217.6</ele>
        <time>2020-10-04T10:04:42Z</time>
      </trkpt>
      <trkpt lat="40.1455010" lon="-4.7238500">
        <ele>1217.4</ele>
        <time>2020-10-04T10:04:44Z</time>
      </trkpt>
      <trkpt lat="40.1454450" lon="-4.7238340">
        <ele>1217.3</ele>
        <time>2020-10-04T10:04:45Z</time>
      </trkpt>
      <trkpt lat="40.1453690" lon="-4.7238060">
        <ele>1217.1</ele>
        <time>2020-10-04T10:04:46Z</time>
      </trkpt>
      <trkpt lat="40.1453170" lon="-4.7237810">
        <ele>1217.0</ele>
        <time>2020-10-04T10:04:47Z</time>
      </trkpt>
      <trkpt lat="40.1452710" lon="-4.7237570">
        <ele>1216.9</ele>
        <time>2020-10-04T10:04:48Z</time>
      </trkpt>
      <trkpt lat="40.1452340" lon="-4.7237300">
        <ele>1216.9</ele>
        <time>2020-10-04T10:04:49Z</time>
      </trkpt>
      <trkpt lat="40.1451860" lon="-4.7236980">
        <ele>1216.8</ele>
        <time>2020-10-04T10:04:51Z</time>
      </trkpt>
      <trkpt lat="40.1451390" lon="-4.7236720">
        <ele>1216.7</ele>
        <time>2020-10-04T10:04:52Z</time>
      </trkpt>
      <trkpt lat="40.1450860" lon="-4.7236420">
        <ele>1216.6</ele>
        <time>2020-10-04T10:04:53Z</time>
      </trkpt>
      <trkpt lat="40.1450130" lon="-4.7236080">
        <ele>1216.4</ele>
        <time>2020-10-04T10:04:54Z</time>
      </trkpt>
      <trkpt lat="40.1449640" lon="-4.7235870">
        <ele>1216.3</ele>
        <time>2020-10-04T10:04:55Z</time>
      </trkpt>
      <trkpt lat="40.1449190" lon="-4.7235750">
        <ele>1216.1</ele>
        <time>2020-10-04T10:04:56Z</time>
      </trkpt>
      <trkpt lat="40.1448680" lon="-4.7235620">
        <ele>1216.0</ele>
        <time>2020-10-04T10:04:58Z</time>
      </trkpt>
      <trkpt lat="40.1447860" lon="-4.7235330">
        <ele>1215.8</ele>
        <time>2020-10-04T10:05:00Z</time>
      </trkpt>
      <trkpt lat="40.1447200" lon="-4.7235230">
        <ele>1215.7</ele>
        <time>2020-10-04T10:05:01Z</time>
      </trkpt>
      <trkpt lat="40.1446650" lon="-4.7235380">
        <ele>1215.7</ele>
        <time>2020-10-04T10:05:03Z</time>
      </trkpt>
      <trkpt lat="40.1446260" lon="-4.7235370">
        <ele>1215.6</ele>
        <time>2020-10-04T10:05:04Z</time>
      </trkpt>
      <trkpt lat="40.1446140" lon="-4.7235350">
        <ele>1215.6</ele>
        <time>2020-10-04T10:05:05Z</time>
      </trkpt>
      <trkpt lat="40.1445800" lon="-4.7235340">
        <ele>1215.6</ele>
        <time>2020-10-04T10:05:06Z</time>
      </trkpt>
      <trkpt lat="40.1445380" lon="-4.7235340">
        <ele>1215.5</ele>
        <time>2020-10-04T10:05:07Z</time>
      </trkpt>
      <trkpt lat="40.1445220" lon="-4.7235330">
        <ele>1215.5</ele>
        <time>2020-10-04T10:05:08Z</time>
      </trkpt>
      <trkpt lat="40.1444800" lon="-4.7235400">
        <ele>1215.5</ele>
        <time>2020-10-04T10:05:10Z</time>
      </trkpt>
      <trkpt lat="40.1444630" lon="-4.7235450">
        <ele>1215.5</ele>
        <time>2020-10-04T10:05:11Z</time>
      </trkpt>
      <trkpt lat="40.1444280" lon="-4.7235460">
        <ele>1215.5</ele>
        <time>2020-10-04T10:05:13Z</time>
      </trkpt>
      <trkpt lat="40.1443910" lon="-4.7235520">
        <ele>1215.5</ele>
        <time>2020-10-04T10:05:14Z</time>
      </trkpt>
      <trkpt lat="40.1443610" lon="-4.7235670">
        <ele>1215.4</ele>
        <time>2020-10-04T10:05:15Z</time>
      </trkpt>
      <trkpt lat="40.1443320" lon="-4.7235850">
        <ele>1215.4</ele>
        <time>2020-10-04T10:05:16Z</time>
      </trkpt>
      <trkpt lat="40.1442930" lon="-4.7235950">
        <ele>1215.4</ele>
        <time>2020-10-04T10:05:18Z</time>
      </trkpt>
      <trkpt lat="40.1442790" lon="-4.7235960">
        <ele>1215.4</ele>
        <time>2020-10-04T10:05:19Z</time>
      </trkpt>
      <trkpt lat="40.1442280" lon="-4.7235890">
        <ele>1215.4</ele>
        <time>2020-10-04T10:05:21Z</time>
      </trkpt>
      <trkpt lat="40.1441730" lon="-4.7235960">
        <ele>1215.4</ele>
        <time>2020-10-04T10:05:22Z</time>
      </trkpt>
      <trkpt lat="40.1441360" lon="-4.7236050">
        <ele>1215.4</ele>
        <time>2020-10-04T10:05:24Z</time>
      </trkpt>
      <trkpt lat="40.1440830" lon="-4.7236240">
        <ele>1215.5</ele>
        <time>2020-10-04T10:05:26Z</time>
      </trkpt>
      <trkpt lat="40.1440470" lon="-4.7236280">
        <ele>1215.5</ele>
        <time>2020-10-04T10:05:27Z</time>
      </trkpt>
      <trkpt lat="40.1440320" lon="-4.7236290">
        <ele>1215.5</ele>
        <time>2020-10-04T10:05:28Z</time>
      </trkpt>
      <trkpt lat="40.1440000" lon="-4.7236250">
        <ele>1215.6</ele>
        <time>2020-10-04T10:05:30Z</time>
      </trkpt>
      <trkpt lat="40.1439740" lon="-4.7236240">
        <ele>1215.6</ele>
        <time>2020-10-04T10:05:31Z</time>
      </trkpt>
      <trkpt lat="40.1439130" lon="-4.7236220">
        <ele>1215.8</ele>
        <time>2020-10-04T10:05:33Z</time>
      </trkpt>
      <trkpt lat="40.1438410" lon="-4.7236220">
        <ele>1215.9</ele>
        <time>2020-10-04T10:05:35Z</time>
      </trkpt>
      <trkpt lat="40.1438000" lon="-4.7236160">
        <ele>1216.0</ele>
        <time>2020-10-04T10:05:36Z</time>
      </trkpt>
      <trkpt lat="40.1437310" lon="-4.7236080">
        <ele>1216.1</ele>
        <time>2020-10-04T10:05:37Z</time>
      </trkpt>
      <trkpt lat="40.1436860" lon="-4.7236030">
        <ele>1216.2</ele>
        <time>2020-10-04T10:05:38Z</time>
      </trkpt>
      <trkpt lat="40.1436500" lon="-4.7236000">
        <ele>1216.3</ele>
        <time>2020-10-04T10:05:39Z</time>
      </trkpt>
      <trkpt lat="40.1436190" lon="-4.7236000">
        <ele>1216.4</ele>
        <time>2020-10-04T10:05:41Z</time>
      </trkpt>
      <trkpt lat="40.1435790" lon="-4.7235900">
        <ele>1216.5</ele>
        <time>2020-10-04T10:05:42Z</time>
      </trkpt>
      <trkpt lat="40.1435330" lon="-4.7235820">
        <ele>1216.7</ele>
        <time>2020-10-04T10:05:43Z</time>
      </trkpt>
      <trkpt lat="40.1434900" lon="-4.7235750">
        <ele>1216.8</ele>
        <time>2020-10-04T10:05:44Z</time>
      </trkpt>
      <trkpt lat="40.1434460" lon="-4.7235760">
        <ele>1217.0</ele>
        <time>2020-10-04T10:05:46Z</time>
      </trkpt>
      <trkpt lat="40.1434170" lon="-4.7235740">
        <ele>1217.1</ele>
        <time>2020-10-04T10:05:47Z</time>
      </trkpt>
      <trkpt lat="40.1433850" lon="-4.7235670">
        <ele>1217.2</ele>
        <time>2020-10-04T10:05:48Z</time>
      </trkpt>
      <trkpt lat="40.1433540" lon="-4.7235660">
        <ele>1217.3</ele>
        <time>2020-10-04T10:05:49Z</time>
      </trkpt>
      <trkpt lat="40.1432740" lon="-4.7235560">
        <ele>1217.6</ele>
        <time>2020-10-04T10:05:51Z</time>
      </trkpt>
      <trkpt lat="40.1431920" lon="-4.7235930">
        <ele>1217.9</ele>
        <time>2020-10-04T10:05:53Z</time>
      </trkpt>
      <trkpt lat="40.1431190" lon="-4.7236130">
        <ele>1218.2</ele>
        <time>2020-10-04T10:05:55Z</time>
      </trkpt>
      <trkpt lat="40.1430780" lon="-4.7236080">
        <ele>1218.4</ele>
        <time>2020-10-04T10:05:56Z</time>
      </trkpt>
      <trkpt lat="40.1430400" lon="-4.7236020">
        <ele>1218.5</ele>
        <time>2020-10-04T10:05:57Z</time>
      </trkpt>
      <trkpt lat="40.1429890" lon="-4.7235960">
        <ele>1218.8</ele>
        <time>2020-10-04T10:05:58Z</time>
      </trkpt>
      <trkpt lat="40.1429300" lon="-4.7236010">
        <ele>1219.0</ele>
        <time>2020-10-04T10:06:01Z</time>
      </trkpt>
      <trkpt lat="40.1428630" lon="-4.7236050">
        <ele>1219.3</ele>
        <time>2020-10-04T10:06:03Z</time>
      </trkpt>
      <trkpt lat="40.1428320" lon="-4.7236000">
        <ele>1219.4</ele>
        <time>2020-10-04T10:06:04Z</time>
      </trkpt>
      <trkpt lat="40.1427730" lon="-4.7236010">
        <ele>1219.7</ele>
        <time>2020-10-04T10:06:05Z</time>
      </trkpt>
      <trkpt lat="40.1427170" lon="-4.7236390">
        <ele>1220.0</ele>
        <time>2020-10-04T10:06:08Z</time>
      </trkpt>
      <trkpt lat="40.1426680" lon="-4.7236970">
        <ele>1220.4</ele>
        <time>2020-10-04T10:06:10Z</time>
      </trkpt>
      <trkpt lat="40.1426440" lon="-4.7237210">
        <ele>1220.5</ele>
        <time>2020-10-04T10:06:11Z</time>
      </trkpt>
      <trkpt lat="40.1426120" lon="-4.7237520">
        <ele>1220.8</ele>
        <time>2020-10-04T10:06:12Z</time>
      </trkpt>
      <trkpt lat="40.1425740" lon="-4.7237930">
        <ele>1221.0</ele>
        <time>2020-10-04T10:06:13Z</time>
      </trkpt>
      <trkpt lat="40.1425460" lon="-4.7238250">
        <ele>1221.2</ele>
        <time>2020-10-04T10:06:14Z</time>
      </trkpt>
      <trkpt lat="40.1425050" lon="-4.7238600">
        <ele>1221.4</ele>
        <time>2020-10-04T10:06:15Z</time>
      </trkpt>
      <trkpt lat="40.1424370" lon="-4.7239200">
        <ele>1221.8</ele>
        <time>2020-10-04T10:06:18Z</time>
      </trkpt>
      <trkpt lat="40.1423630" lon="-4.7239450">
        <ele>1222.1</ele>
        <time>2020-10-04T10:06:19Z</time>
      </trkpt>
      <trkpt lat="40.1422950" lon="-4.7239590">
        <ele>1222.4</ele>
        <time>2020-10-04T10:06:21Z</time>
      </trkpt>
      <trkpt lat="40.1421940" lon="-4.7239710">
        <ele>1222.8</ele>
        <time>2020-10-04T10:06:23Z</time>
      </trkpt>
      <trkpt lat="40.1421020" lon="-4.7239840">
        <ele>1223.2</ele>
        <time>2020-10-04T10:06:25Z</time>
      </trkpt>
      <trkpt lat="40.1420420" lon="-4.7239860">
        <ele>1223.4</ele>
        <time>2020-10-04T10:06:26Z</time>
      </trkpt>
      <trkpt lat="40.1419760" lon="-4.7239830">
        <ele>1223.6</ele>
        <time>2020-10-04T10:06:27Z</time>
      </trkpt>
      <trkpt lat="40.1419160" lon="-4.7239830">
        <ele>1223.9</ele>
        <time>2020-10-04T10:06:29Z</time>
      </trkpt>
      <trkpt lat="40.1418760" lon="-4.7239830">
        <ele>1224.0</ele>
        <time>2020-10-04T10:06:30Z</time>
      </trkpt>
      <trkpt lat="40.1418110" lon="-4.7239670">
        <ele>1224.2</ele>
        <time>2020-10-04T10:06:32Z</time>
      </trkpt>
      <trkpt lat="40.1417770" lon="-4.7239390">
        <ele>1224.3</ele>
        <time>2020-10-04T10:06:33Z</time>
      </trkpt>
      <trkpt lat="40.1417500" lon="-4.7239240">
        <ele>1224.4</ele>
        <time>2020-10-04T10:06:34Z</time>
      </trkpt>
      <trkpt lat="40.1417250" lon="-4.7239160">
        <ele>1224.5</ele>
        <time>2020-10-04T10:06:35Z</time>
      </trkpt>
      <trkpt lat="40.1416940" lon="-4.7239000">
        <ele>1224.6</ele>
        <time>2020-10-04T10:06:37Z</time>
      </trkpt>
      <trkpt lat="40.1416760" lon="-4.7238840">
        <ele>1224.6</ele>
        <time>2020-10-04T10:06:38Z</time>
      </trkpt>
      <trkpt lat="40.1416510" lon="-4.7238650">
        <ele>1224.7</ele>
        <time>2020-10-04T10:06:40Z</time>
      </trkpt>
      <trkpt lat="40.1416280" lon="-4.7238390">
        <ele>1224.8</ele>
        <time>2020-10-04T10:06:41Z</time>
      </trkpt>
      <trkpt lat="40.1415840" lon="-4.7237960">
        <ele>1224.9</ele>
        <time>2020-10-04T10:06:42Z</time>
      </trkpt>
      <trkpt lat="40.1415350" lon="-4.7237610">
        <ele>1225.0</ele>
        <time>2020-10-04T10:06:44Z</time>
      </trkpt>
      <trkpt lat="40.1414810" lon="-4.7237350">
        <ele>1225.1</ele>
        <time>2020-10-04T10:06:45Z</time>
      </trkpt>
      <trkpt lat="40.1413950" lon="-4.7236920">
        <ele>1225.1</ele>
        <time>2020-10-04T10:06:46Z</time>
      </trkpt>
      <trkpt lat="40.1413250" lon="-4.7236580">
        <ele>1225.1</ele>
        <time>2020-10-04T10:06:47Z</time>
      </trkpt>
      <trkpt lat="40.1412560" lon="-4.7236220">
        <ele>1225.1</ele>
        <time>2020-10-04T10:06:49Z</time>
      </trkpt>
      <trkpt lat="40.1411960" lon="-4.7235850">
        <ele>1225.0</ele>
        <time>2020-10-04T10:06:51Z</time>
      </trkpt>
      <trkpt lat="40.1411380" lon="-4.7235250">
        <ele>1225.0</ele>
        <time>2020-10-04T10:06:53Z</time>
      </trkpt>
      <trkpt lat="40.1410790" lon="-4.7234910">
        <ele>1224.9</ele>
        <time>2020-10-04T10:06:55Z</time>
      </trkpt>
      <trkpt lat="40.1410210" lon="-4.7234600">
        <ele>1224.8</ele>
        <time>2020-10-04T10:06:57Z</time>
      </trkpt>
      <trkpt lat="40.1409510" lon="-4.7234130">
        <ele>1224.7</ele>
        <time>2020-10-04T10:06:59Z</time>
      </trkpt>
      <trkpt lat="40.1409180" lon="-4.7233840">
        <ele>1224.6</ele>
        <time>2020-10-04T10:07:00Z</time>
      </trkpt>
      <trkpt lat="40.1408230" lon="-4.7233100">
        <ele>1224.3</ele>
        <time>2020-10-04T10:07:02Z</time>
      </trkpt>
      <trkpt lat="40.1407770" lon="-4.7232730">
        <ele>1224.2</ele>
        <time>2020-10-04T10:07:03Z</time>
      </trkpt>
      <trkpt lat="40.1407190" lon="-4.7232310">
        <ele>1224.0</ele>
        <time>2020-10-04T10:07:04Z</time>
      </trkpt>
      <trkpt lat="40.1406440" lon="-4.7231850">
        <ele>1223.7</ele>
        <time>2020-10-04T10:07:06Z</time>
      </trkpt>
      <trkpt lat="40.1406000" lon="-4.7231600">
        <ele>1223.5</ele>
        <time>2020-10-04T10:07:07Z</time>
      </trkpt>
      <trkpt lat="40.1405410" lon="-4.7231450">
        <ele>1223.3</ele>
        <time>2020-10-04T10:07:08Z</time>
      </trkpt>
      <trkpt lat="40.1405110" lon="-4.7231680">
        <ele>1223.2</ele>
        <time>2020-10-04T10:07:10Z</time>
      </trkpt>
      <trkpt lat="40.1405020" lon="-4.7231750">
        <ele>1223.1</ele>
        <time>2020-10-04T10:07:11Z</time>
      </trkpt>
      <trkpt lat="40.1404670" lon="-4.7231570">
        <ele>1223.0</ele>
        <time>2020-10-04T10:07:12Z</time>
      </trkpt>
      <trkpt lat="40.1404280" lon="-4.7231800">
        <ele>1222.8</ele>
        <time>2020-10-04T10:07:14Z</time>
      </trkpt>
      <trkpt lat="40.1404090" lon="-4.7231870">
        <ele>1222.7</ele>
        <time>2020-10-04T10:07:15Z</time>
      </trkpt>
      <trkpt lat="40.1403700" lon="-4.7232000">
        <ele>1222.6</ele>
        <time>2020-10-04T10:07:17Z</time>
      </trkpt>
      <trkpt lat="40.1403440" lon="-4.7232090">
        <ele>1222.5</ele>
        <time>2020-10-04T10:07:18Z</time>
      </trkpt>
      <trkpt lat="40.1403240" lon="-4.7232330">
        <ele>1222.4</ele>
        <time>2020-10-04T10:07:19Z</time>
      </trkpt>
      <trkpt lat="40.1403030" lon="-4.7232590">
        <ele>1222.3</ele>
        <time>2020-10-04T10:07:21Z</time>
      </trkpt>
      <trkpt lat="40.1402640" lon="-4.7232820">
        <ele>1222.1</ele>
        <time>2020-10-04T10:07:22Z</time>
      </trkpt>
      <trkpt lat="40.1402470" lon="-4.7232920">
        <ele>1222.0</ele>
        <time>2020-10-04T10:07:23Z</time>
      </trkpt>
      <trkpt lat="40.1402010" lon="-4.7232880">
        <ele>1221.8</ele>
        <time>2020-10-04T10:07:25Z</time>
      </trkpt>
      <trkpt lat="40.1401400" lon="-4.7232960">
        <ele>1221.5</ele>
        <time>2020-10-04T10:07:26Z</time>
      </trkpt>
      <trkpt lat="40.1400330" lon="-4.7233270">
        <ele>1221.1</ele>
        <time>2020-10-04T10:07:28Z</time>
      </trkpt>
      <trkpt lat="40.1398980" lon="-4.7233590">
        <ele>1220.5</ele>
        <time>2020-10-04T10:07:29Z</time>
      </trkpt>
      <trkpt lat="40.1398090" lon="-4.7233730">
        <ele>1220.1</ele>
        <time>2020-10-04T10:07:31Z</time>
      </trkpt>
      <trkpt lat="40.1397200" lon="-4.7233870">
        <ele>1219.7</ele>
        <time>2020-10-04T10:07:32Z</time>
      </trkpt>
      <trkpt lat="40.1396260" lon="-4.7234050">
        <ele>1219.3</ele>
        <time>2020-10-04T10:07:33Z</time>
      </trkpt>
      <trkpt lat="40.1395300" lon="-4.7234290">
        <ele>1218.8</ele>
        <time>2020-10-04T10:07:34Z</time>
      </trkpt>
      <trkpt lat="40.1394470" lon="-4.7234480">
        <ele>1218.4</ele>
        <time>2020-10-04T10:07:35Z</time>
      </trkpt>
      <trkpt lat="40.1393040" lon="-4.7234980">
        <ele>1217.8</ele>
        <time>2020-10-04T10:07:37Z</time>
      </trkpt>
      <trkpt lat="40.1392050" lon="-4.7235420">
        <ele>1217.6</ele>
        <time>2020-10-04T10:07:39Z</time>
      </trkpt>
      <trkpt lat="40.1391100" lon="-4.7236090">
        <ele>1217.4</ele>
        <time>2020-10-04T10:07:40Z</time>
      </trkpt>
      <trkpt lat="40.1390500" lon="-4.7236650">
        <ele>1217.3</ele>
        <time>2020-10-04T10:07:41Z</time>
      </trkpt>
      <trkpt lat="40.1390090" lon="-4.7237060">
        <ele>1217.3</ele>
        <time>2020-10-04T10:07:43Z</time>
      </trkpt>
      <trkpt lat="40.1389530" lon="-4.7237720">
        <ele>1217.3</ele>
        <time>2020-10-04T10:07:44Z</time>
      </trkpt>
      <trkpt lat="40.1389100" lon="-4.7238300">
        <ele>1217.3</ele>
        <time>2020-10-04T10:07:46Z</time>
      </trkpt>
      <trkpt lat="40.1388770" lon="-4.7238830">
        <ele>1217.3</ele>
        <time>2020-10-04T10:07:47Z</time>
      </trkpt>
      <trkpt lat="40.1388530" lon="-4.7239240">
        <ele>1217.4</ele>
        <time>2020-10-04T10:07:48Z</time>
      </trkpt>
      <trkpt lat="40.1388130" lon="-4.7239920">
        <ele>1217.4</ele>
        <time>2020-10-04T10:07:50Z</time>
      </trkpt>
      <trkpt lat="40.1387800" lon="-4.7240320">
        <ele>1217.5</ele>
        <time>2020-10-04T10:07:51Z</time>
      </trkpt>
      <trkpt lat="40.1387590" lon="-4.7240710">
        <ele>1217.5</ele>
        <time>2020-10-04T10:07:52Z</time>
      </trkpt>
      <trkpt lat="40.1387370" lon="-4.7241160">
        <ele>1217.6</ele>
        <time>2020-10-04T10:07:53Z</time>
      </trkpt>
      <trkpt lat="40.1387160" lon="-4.7241560">
        <ele>1217.6</ele>
        <time>2020-10-04T10:07:54Z</time>
      </trkpt>
      <trkpt lat="40.1386920" lon="-4.7241990">
        <ele>1217.6</ele>
        <time>2020-10-04T10:07:55Z</time>
      </trkpt>
      <trkpt lat="40.1386650" lon="-4.7242400">
        <ele>1217.7</ele>
        <time>2020-10-04T10:07:56Z</time>
      </trkpt>
      <trkpt lat="40.1386240" lon="-4.7243000">
        <ele>1217.8</ele>
        <time>2020-10-04T10:07:58Z</time>
      </trkpt>
      <trkpt lat="40.1385790" lon="-4.7243590">
        <ele>1217.8</ele>
        <time>2020-10-04T10:08:00Z</time>
      </trkpt>
      <trkpt lat="40.1385500" lon="-4.7243910">
        <ele>1217.9</ele>
        <time>2020-10-04T10:08:01Z</time>
      </trkpt>
      <trkpt lat="40.1385190" lon="-4.7244230">
        <ele>1217.9</ele>
        <time>2020-10-04T10:08:02Z</time>
      </trkpt>
      <trkpt lat="40.1384550" lon="-4.7244890">
        <ele>1217.9</ele>
        <time>2020-10-04T10:08:04Z</time>
      </trkpt>
      <trkpt lat="40.1384130" lon="-4.7245220">
        <ele>1217.9</ele>
        <time>2020-10-04T10:08:05Z</time>
      </trkpt>
      <trkpt lat="40.1383760" lon="-4.7245500">
        <ele>1217.9</ele>
        <time>2020-10-04T10:08:06Z</time>
      </trkpt>
      <trkpt lat="40.1383410" lon="-4.7245820">
        <ele>1217.9</ele>
        <time>2020-10-04T10:08:07Z</time>
      </trkpt>
      <trkpt lat="40.1383050" lon="-4.7246140">
        <ele>1217.8</ele>
        <time>2020-10-04T10:08:09Z</time>
      </trkpt>
      <trkpt lat="40.1382830" lon="-4.7246330">
        <ele>1217.8</ele>
        <time>2020-10-04T10:08:10Z</time>
      </trkpt>
      <trkpt lat="40.1382230" lon="-4.7246730">
        <ele>1217.8</ele>
        <time>2020-10-04T10:08:12Z</time>
      </trkpt>
      <trkpt lat="40.1381570" lon="-4.7247020">
        <ele>1217.7</ele>
        <time>2020-10-04T10:08:14Z</time>
      </trkpt>
      <trkpt lat="40.1380990" lon="-4.7247350">
        <ele>1217.6</ele>
        <time>2020-10-04T10:08:15Z</time>
      </trkpt>
      <trkpt lat="40.1380640" lon="-4.7247540">
        <ele>1217.5</ele>
        <time>2020-10-04T10:08:17Z</time>
      </trkpt>
      <trkpt lat="40.1380060" lon="-4.7247820">
        <ele>1217.4</ele>
        <time>2020-10-04T10:08:18Z</time>
      </trkpt>
      <trkpt lat="40.1379700" lon="-4.7247950">
        <ele>1217.4</ele>
        <time>2020-10-04T10:08:20Z</time>
      </trkpt>
      <trkpt lat="40.1379400" lon="-4.7248090">
        <ele>1217.3</ele>
        <time>2020-10-04T10:08:21Z</time>
      </trkpt>
      <trkpt lat="40.1378810" lon="-4.7248430">
        <ele>1217.2</ele>
        <time>2020-10-04T10:08:23Z</time>
      </trkpt>
      <trkpt lat="40.1378310" lon="-4.7248840">
        <ele>1217.0</ele>
        <time>2020-10-04T10:08:25Z</time>
      </trkpt>
      <trkpt lat="40.1377850" lon="-4.7249300">
        <ele>1216.8</ele>
        <time>2020-10-04T10:08:27Z</time>
      </trkpt>
      <trkpt lat="40.1377570" lon="-4.7249550">
        <ele>1216.7</ele>
        <time>2020-10-04T10:08:28Z</time>
      </trkpt>
      <trkpt lat="40.1377470" lon="-4.7249610">
        <ele>1216.6</ele>
        <time>2020-10-04T10:08:29Z</time>
      </trkpt>
      <trkpt lat="40.1377310" lon="-4.7249690">
        <ele>1216.6</ele>
        <time>2020-10-04T10:08:30Z</time>
      </trkpt>
      <trkpt lat="40.1377230" lon="-4.7249780">
        <ele>1216.7</ele>
        <time>2020-10-04T10:08:32Z</time>
      </trkpt>
      <trkpt lat="40.1377230" lon="-4.7249800">
        <ele>1216.7</ele>
        <time>2020-10-04T10:08:33Z</time>
      </trkpt>
      <trkpt lat="40.1377270" lon="-4.7249820">
        <ele>1216.7</ele>
        <time>2020-10-04T10:08:34Z</time>
      </trkpt>
      <trkpt lat="40.1377340" lon="-4.7249810">
        <ele>1216.8</ele>
        <time>2020-10-04T10:08:35Z</time>
      </trkpt>
      <trkpt lat="40.1377370" lon="-4.7249830">
        <ele>1216.8</ele>
        <time>2020-10-04T10:08:37Z</time>
      </trkpt>
      <trkpt lat="40.1377380" lon="-4.7249830">
        <ele>1216.8</ele>
        <time>2020-10-04T10:08:38Z</time>
      </trkpt>
      <trkpt lat="40.1377400" lon="-4.7249800">
        <ele>1216.8</ele>
        <time>2020-10-04T10:08:40Z</time>
      </trkpt>
      <trkpt lat="40.1377400" lon="-4.7249790">
        <ele>1216.8</ele>
        <time>2020-10-04T10:08:41Z</time>
      </trkpt>
      <trkpt lat="40.1377410" lon="-4.7249780">
        <ele>1216.8</ele>
        <time>2020-10-04T10:08:42Z</time>
      </trkpt>
      <trkpt lat="40.1377410" lon="-4.7249770">
        <ele>1216.8</ele>
        <time>2020-10-04T10:08:43Z</time>
      </trkpt>
      <trkpt lat="40.1377020" lon="-4.7249480">
        <ele>1217.0</ele>
        <time>2020-10-04T10:09:28Z</time>
      </trkpt>
      <trkpt lat="40.1376890" lon="-4.7249440">
        <ele>1217.1</ele>
        <time>2020-10-04T10:09:29Z</time>
      </trkpt>
      <trkpt lat="40.1377120" lon="-4.7249410">
        <ele>1217.2</ele>
        <time>2020-10-04T10:09:30Z</time>
      </trkpt>
      <trkpt lat="40.1377160" lon="-4.7249300">
        <ele>1217.3</ele>
        <time>2020-10-04T10:09:32Z</time>
      </trkpt>
      <trkpt lat="40.1376830" lon="-4.7249020">
        <ele>1217.5</ele>
        <time>2020-10-04T10:09:34Z</time>
      </trkpt>
      <trkpt lat="40.1375950" lon="-4.7248920">
        <ele>1217.9</ele>
        <time>2020-10-04T10:09:36Z</time>
      </trkpt>
      <trkpt lat="40.1375360" lon="-4.7248820">
        <ele>1218.3</ele>
        <time>2020-10-04T10:09:37Z</time>
      </trkpt>
      <trkpt lat="40.1374990" lon="-4.7248720">
        <ele>1218.5</ele>
        <time>2020-10-04T10:09:38Z</time>
      </trkpt>
      <trkpt lat="40.1374140" lon="-4.7248400">
        <ele>1219.0</ele>
        <time>2020-10-04T10:09:40Z</time>
      </trkpt>
      <trkpt lat="40.1373630" lon="-4.7248240">
        <ele>1219.3</ele>
        <time>2020-10-04T10:09:41Z</time>
      </trkpt>
      <trkpt lat="40.1373110" lon="-4.7248080">
        <ele>1219.6</ele>
        <time>2020-10-04T10:09:42Z</time>
      </trkpt>
      <trkpt lat="40.1372790" lon="-4.7247990">
        <ele>1219.8</ele>
        <time>2020-10-04T10:09:43Z</time>
      </trkpt>
      <trkpt lat="40.1372450" lon="-4.7247910">
        <ele>1220.0</ele>
        <time>2020-10-04T10:09:44Z</time>
      </trkpt>
      <trkpt lat="40.1371730" lon="-4.7247720">
        <ele>1220.4</ele>
        <time>2020-10-04T10:09:46Z</time>
      </trkpt>
      <trkpt lat="40.1371480" lon="-4.7247620">
        <ele>1220.5</ele>
        <time>2020-10-04T10:09:47Z</time>
      </trkpt>
      <trkpt lat="40.1370930" lon="-4.7247490">
        <ele>1220.8</ele>
        <time>2020-10-04T10:09:49Z</time>
      </trkpt>
      <trkpt lat="40.1370550" lon="-4.7247350">
        <ele>1220.9</ele>
        <time>2020-10-04T10:09:50Z</time>
      </trkpt>
      <trkpt lat="40.1370430" lon="-4.7247290">
        <ele>1221.0</ele>
        <time>2020-10-04T10:09:51Z</time>
      </trkpt>
      <trkpt lat="40.1369900" lon="-4.7246950">
        <ele>1221.2</ele>
        <time>2020-10-04T10:09:53Z</time>
      </trkpt>
      <trkpt lat="40.1369420" lon="-4.7246490">
        <ele>1221.3</ele>
        <time>2020-10-04T10:09:55Z</time>
      </trkpt>
      <trkpt lat="40.1369020" lon="-4.7246000">
        <ele>1221.2</ele>
        <time>2020-10-04T10:09:57Z</time>
      </trkpt>
      <trkpt lat="40.1368610" lon="-4.7245300">
        <ele>1221.0</ele>
        <time>2020-10-04T10:09:59Z</time>
      </trkpt>
      <trkpt lat="40.1368320" lon="-4.7244760">
        <ele>1220.9</ele>
        <time>2020-10-04T10:10:00Z</time>
      </trkpt>
      <trkpt lat="40.1368000" lon="-4.7244160">
        <ele>1220.8</ele>
        <time>2020-10-04T10:10:02Z</time>
      </trkpt>
      <trkpt lat="40.1367720" lon="-4.7243590">
        <ele>1220.7</ele>
        <time>2020-10-04T10:10:03Z</time>
      </trkpt>
      <trkpt lat="40.1367500" lon="-4.7243190">
        <ele>1220.6</ele>
        <time>2020-10-04T10:10:05Z</time>
      </trkpt>
      <trkpt lat="40.1367300" lon="-4.7242830">
        <ele>1220.5</ele>
        <time>2020-10-04T10:10:06Z</time>
      </trkpt>
      <trkpt lat="40.1367050" lon="-4.7242220">
        <ele>1220.3</ele>
        <time>2020-10-04T10:10:08Z</time>
      </trkpt>
      <trkpt lat="40.1367000" lon="-4.7241810">
        <ele>1220.1</ele>
        <time>2020-10-04T10:10:09Z</time>
      </trkpt>
      <trkpt lat="40.1367020" lon="-4.7241730">
        <ele>1220.1</ele>
        <time>2020-10-04T10:10:11Z</time>
      </trkpt>
      <trkpt lat="40.1367030" lon="-4.7241640">
        <ele>1220.0</ele>
        <time>2020-10-04T10:10:13Z</time>
      </trkpt>
      <trkpt lat="40.1367050" lon="-4.7241550">
        <ele>1220.0</ele>
        <time>2020-10-04T10:10:14Z</time>
      </trkpt>
      <trkpt lat="40.1367070" lon="-4.7241470">
        <ele>1220.0</ele>
        <time>2020-10-04T10:10:15Z</time>
      </trkpt>
      <trkpt lat="40.1367090" lon="-4.7241380">
        <ele>1219.9</ele>
        <time>2020-10-04T10:10:16Z</time>
      </trkpt>
      <trkpt lat="40.1367100" lon="-4.7241290">
        <ele>1219.9</ele>
        <time>2020-10-04T10:10:18Z</time>
      </trkpt>
      <trkpt lat="40.1367120" lon="-4.7241210">
        <ele>1219.8</ele>
        <time>2020-10-04T10:10:19Z</time>
      </trkpt>
      <trkpt lat="40.1367140" lon="-4.7241120">
        <ele>1219.8</ele>
        <time>2020-10-04T10:10:20Z</time>
      </trkpt>
      <trkpt lat="40.1367150" lon="-4.7240700">
        <ele>1219.6</ele>
        <time>2020-10-04T10:10:21Z</time>
      </trkpt>
      <trkpt lat="40.1367180" lon="-4.7239780">
        <ele>1219.1</ele>
        <time>2020-10-04T10:10:23Z</time>
      </trkpt>
      <trkpt lat="40.1367130" lon="-4.7239330">
        <ele>1218.8</ele>
        <time>2020-10-04T10:10:24Z</time>
      </trkpt>
      <trkpt lat="40.1366810" lon="-4.7237660">
        <ele>1217.8</ele>
        <time>2020-10-04T10:10:26Z</time>
      </trkpt>
      <trkpt lat="40.1366970" lon="-4.7236690">
        <ele>1217.2</ele>
        <time>2020-10-04T10:10:27Z</time>
      </trkpt>
      <trkpt lat="40.1366590" lon="-4.7234120">
        <ele>1215.5</ele>
        <time>2020-10-04T10:10:29Z</time>
      </trkpt>
      <trkpt lat="40.1366550" lon="-4.7233650">
        <ele>1215.2</ele>
        <time>2020-10-04T10:10:30Z</time>
      </trkpt>
      <trkpt lat="40.1366550" lon="-4.7232830">
        <ele>1214.6</ele>
        <time>2020-10-04T10:10:31Z</time>
      </trkpt>
      <trkpt lat="40.1366730" lon="-4.7231390">
        <ele>1213.5</ele>
        <time>2020-10-04T10:10:33Z</time>
      </trkpt>
      <trkpt lat="40.1366870" lon="-4.7230700">
        <ele>1213.0</ele>
        <time>2020-10-04T10:10:34Z</time>
      </trkpt>
      <trkpt lat="40.1367180" lon="-4.7229370">
        <ele>1212.0</ele>
        <time>2020-10-04T10:10:36Z</time>
      </trkpt>
      <trkpt lat="40.1367590" lon="-4.7228120">
        <ele>1210.8</ele>
        <time>2020-10-04T10:10:38Z</time>
      </trkpt>
      <trkpt lat="40.1367830" lon="-4.7227470">
        <ele>1210.2</ele>
        <time>2020-10-04T10:10:39Z</time>
      </trkpt>
      <trkpt lat="40.1368350" lon="-4.7226280">
        <ele>1208.9</ele>
        <time>2020-10-04T10:10:41Z</time>
      </trkpt>
      <trkpt lat="40.1368600" lon="-4.7225710">
        <ele>1208.3</ele>
        <time>2020-10-04T10:10:42Z</time>
      </trkpt>
      <trkpt lat="40.1369030" lon="-4.7224590">
        <ele>1207.2</ele>
        <time>2020-10-04T10:10:44Z</time>
      </trkpt>
      <trkpt lat="40.1369160" lon="-4.7224050">
        <ele>1206.7</ele>
        <time>2020-10-04T10:10:45Z</time>
      </trkpt>
      <trkpt lat="40.1369390" lon="-4.7223020">
        <ele>1205.8</ele>
        <time>2020-10-04T10:10:47Z</time>
      </trkpt>
      <trkpt lat="40.1369490" lon="-4.7222540">
        <ele>1205.5</ele>
        <time>2020-10-04T10:10:48Z</time>
      </trkpt>
      <trkpt lat="40.1369600" lon="-4.7222140">
        <ele>1205.2</ele>
        <time>2020-10-04T10:10:49Z</time>
      </trkpt>
      <trkpt lat="40.1369710" lon="-4.7221560">
        <ele>1204.8</ele>
        <time>2020-10-04T10:10:51Z</time>
      </trkpt>
      <trkpt lat="40.1369760" lon="-4.7221140">
        <ele>1204.5</ele>
        <time>2020-10-04T10:10:52Z</time>
      </trkpt>
      <trkpt lat="40.1369880" lon="-4.7220110">
        <ele>1203.7</ele>
        <time>2020-10-04T10:10:54Z</time>
      </trkpt>
      <trkpt lat="40.1369960" lon="-4.7219640">
        <ele>1203.4</ele>
        <time>2020-10-04T10:10:55Z</time>
      </trkpt>
      <trkpt lat="40.1370590" lon="-4.7219060">
        <ele>1202.7</ele>
        <time>2020-10-04T10:10:56Z</time>
      </trkpt>
      <trkpt lat="40.1370580" lon="-4.7218530">
        <ele>1202.2</ele>
        <time>2020-10-04T10:10:57Z</time>
      </trkpt>
      <trkpt lat="40.1370600" lon="-4.7217830">
        <ele>1201.7</ele>
        <time>2020-10-04T10:10:59Z</time>
      </trkpt>
      <trkpt lat="40.1370790" lon="-4.7216740">
        <ele>1200.8</ele>
        <time>2020-10-04T10:11:01Z</time>
      </trkpt>
      <trkpt lat="40.1371130" lon="-4.7215770">
        <ele>1200.0</ele>
        <time>2020-10-04T10:11:02Z</time>
      </trkpt>
      <trkpt lat="40.1371520" lon="-4.7214480">
        <ele>1199.0</ele>
        <time>2020-10-04T10:11:04Z</time>
      </trkpt>
      <trkpt lat="40.1371870" lon="-4.7213050">
        <ele>1197.9</ele>
        <time>2020-10-04T10:11:06Z</time>
      </trkpt>
      <trkpt lat="40.1371960" lon="-4.7212370">
        <ele>1197.4</ele>
        <time>2020-10-04T10:11:07Z</time>
      </trkpt>
      <trkpt lat="40.1372100" lon="-4.7211090">
        <ele>1196.6</ele>
        <time>2020-10-04T10:11:09Z</time>
      </trkpt>
      <trkpt lat="40.1372050" lon="-4.7209880">
        <ele>1195.7</ele>
        <time>2020-10-04T10:11:11Z</time>
      </trkpt>
      <trkpt lat="40.1371940" lon="-4.7209280">
        <ele>1195.2</ele>
        <time>2020-10-04T10:11:12Z</time>
      </trkpt>
      <trkpt lat="40.1371570" lon="-4.7208120">
        <ele>1194.3</ele>
        <time>2020-10-04T10:11:14Z</time>
      </trkpt>
      <trkpt lat="40.1371170" lon="-4.7207090">
        <ele>1193.5</ele>
        <time>2020-10-04T10:11:16Z</time>
      </trkpt>
      <trkpt lat="40.1370950" lon="-4.7206210">
        <ele>1192.7</ele>
        <time>2020-10-04T10:11:18Z</time>
      </trkpt>
      <trkpt lat="40.1370920" lon="-4.7205720">
        <ele>1192.4</ele>
        <time>2020-10-04T10:11:19Z</time>
      </trkpt>
      <trkpt lat="40.1370910" lon="-4.7205140">
        <ele>1191.9</ele>
        <time>2020-10-04T10:11:20Z</time>
      </trkpt>
      <trkpt lat="40.1370960" lon="-4.7203850">
        <ele>1190.8</ele>
        <time>2020-10-04T10:11:22Z</time>
      </trkpt>
      <trkpt lat="40.1370990" lon="-4.7202470">
        <ele>1189.6</ele>
        <time>2020-10-04T10:11:24Z</time>
      </trkpt>
      <trkpt lat="40.1371030" lon="-4.7200950">
        <ele>1188.5</ele>
        <time>2020-10-04T10:11:26Z</time>
      </trkpt>
      <trkpt lat="40.1371020" lon="-4.7200140">
        <ele>1187.9</ele>
        <time>2020-10-04T10:11:27Z</time>
      </trkpt>
      <trkpt lat="40.1370960" lon="-4.7198480">
        <ele>1187.1</ele>
        <time>2020-10-04T10:11:29Z</time>
      </trkpt>
      <trkpt lat="40.1370980" lon="-4.7197690">
        <ele>1186.9</ele>
        <time>2020-10-04T10:11:30Z</time>
      </trkpt>
      <trkpt lat="40.1371150" lon="-4.7196230">
        <ele>1186.7</ele>
        <time>2020-10-04T10:11:32Z</time>
      </trkpt>
      <trkpt lat="40.1371220" lon="-4.7195320">
        <ele>1186.7</ele>
        <time>2020-10-04T10:11:34Z</time>
      </trkpt>
      <trkpt lat="40.1371200" lon="-4.7194850">
        <ele>1186.8</ele>
        <time>2020-10-04T10:11:35Z</time>
      </trkpt>
      <trkpt lat="40.1371170" lon="-4.7193910">
        <ele>1187.1</ele>
        <time>2020-10-04T10:11:37Z</time>
      </trkpt>
      <trkpt lat="40.1371210" lon="-4.7193420">
        <ele>1187.2</ele>
        <time>2020-10-04T10:11:38Z</time>
      </trkpt>
      <trkpt lat="40.1371350" lon="-4.7192420">
        <ele>1187.5</ele>
        <time>2020-10-04T10:11:40Z</time>
      </trkpt>
      <trkpt lat="40.1371120" lon="-4.7192020">
        <ele>1187.7</ele>
        <time>2020-10-04T10:11:41Z</time>
      </trkpt>
      <trkpt lat="40.1371440" lon="-4.7191480">
        <ele>1187.8</ele>
        <time>2020-10-04T10:11:43Z</time>
      </trkpt>
      <trkpt lat="40.1372010" lon="-4.7190730">
        <ele>1187.9</ele>
        <time>2020-10-04T10:11:44Z</time>
      </trkpt>
      <trkpt lat="40.1372270" lon="-4.7190240">
        <ele>1187.9</ele>
        <time>2020-10-04T10:11:46Z</time>
      </trkpt>
      <trkpt lat="40.1372410" lon="-4.7189730">
        <ele>1187.9</ele>
        <time>2020-10-04T10:11:47Z</time>
      </trkpt>
      <trkpt lat="40.1372560" lon="-4.7188920">
        <ele>1187.7</ele>
        <time>2020-10-04T10:11:48Z</time>
      </trkpt>
      <trkpt lat="40.1372570" lon="-4.7187340">
        <ele>1187.0</ele>
        <time>2020-10-04T10:11:50Z</time>
      </trkpt>
      <trkpt lat="40.1372580" lon="-4.7186340">
        <ele>1186.5</ele>
        <time>2020-10-04T10:11:51Z</time>
      </trkpt>
      <trkpt lat="40.1372600" lon="-4.7185780">
        <ele>1186.2</ele>
        <time>2020-10-04T10:11:52Z</time>
      </trkpt>
      <trkpt lat="40.1372680" lon="-4.7184850">
        <ele>1185.6</ele>
        <time>2020-10-04T10:11:54Z</time>
      </trkpt>
      <trkpt lat="40.1372880" lon="-4.7184430">
        <ele>1185.2</ele>
        <time>2020-10-04T10:11:56Z</time>
      </trkpt>
      <trkpt lat="40.1373330" lon="-4.7183970">
        <ele>1184.4</ele>
        <time>2020-10-04T10:11:57Z</time>
      </trkpt>
      <trkpt lat="40.1373700" lon="-4.7183750">
        <ele>1183.7</ele>
        <time>2020-10-04T10:11:58Z</time>
      </trkpt>
      <trkpt lat="40.1374140" lon="-4.7183450">
        <ele>1182.8</ele>
        <time>2020-10-04T10:11:59Z</time>
      </trkpt>
      <trkpt lat="40.1374610" lon="-4.7183090">
        <ele>1181.6</ele>
        <time>2020-10-04T10:12:01Z</time>
      </trkpt>
      <trkpt lat="40.1375080" lon="-4.7182240">
        <ele>1179.8</ele>
        <time>2020-10-04T10:12:02Z</time>
      </trkpt>
      <trkpt lat="40.1375190" lon="-4.7181700">
        <ele>1178.8</ele>
        <time>2020-10-04T10:12:04Z</time>
      </trkpt>
      <trkpt lat="40.1375290" lon="-4.7180990">
        <ele>1177.6</ele>
        <time>2020-10-04T10:12:05Z</time>
      </trkpt>
      <trkpt lat="40.1375400" lon="-4.7179630">
        <ele>1175.3</ele>
        <time>2020-10-04T10:12:07Z</time>
      </trkpt>
      <trkpt lat="40.1375430" lon="-4.7178440">
        <ele>1173.5</ele>
        <time>2020-10-04T10:12:09Z</time>
      </trkpt>
      <trkpt lat="40.1375370" lon="-4.7177900">
        <ele>1172.6</ele>
        <time>2020-10-04T10:12:10Z</time>
      </trkpt>
      <trkpt lat="40.1375480" lon="-4.7177060">
        <ele>1171.3</ele>
        <time>2020-10-04T10:12:12Z</time>
      </trkpt>
      <trkpt lat="40.1375690" lon="-4.7176640">
        <ele>1170.4</ele>
        <time>2020-10-04T10:12:13Z</time>
      </trkpt>
      <trkpt lat="40.1376140" lon="-4.7176380">
        <ele>1169.4</ele>
        <time>2020-10-04T10:12:14Z</time>
      </trkpt>
      <trkpt lat="40.1376600" lon="-4.7176030">
        <ele>1168.1</ele>
        <time>2020-10-04T10:12:16Z</time>
      </trkpt>
      <trkpt lat="40.1377020" lon="-4.7175850">
        <ele>1167.1</ele>
        <time>2020-10-04T10:12:17Z</time>
      </trkpt>
      <trkpt lat="40.1377640" lon="-4.7175720">
        <ele>1165.5</ele>
        <time>2020-10-04T10:12:18Z</time>
      </trkpt>
      <trkpt lat="40.1378210" lon="-4.7175660">
        <ele>1164.1</ele>
        <time>2020-10-04T10:12:19Z</time>
      </trkpt>
      <trkpt lat="40.1378650" lon="-4.7175540">
        <ele>1163.0</ele>
        <time>2020-10-04T10:12:21Z</time>
      </trkpt>
      <trkpt lat="40.1379350" lon="-4.7175220">
        <ele>1161.3</ele>
        <time>2020-10-04T10:12:23Z</time>
      </trkpt>
      <trkpt lat="40.1379620" lon="-4.7174830">
        <ele>1160.5</ele>
        <time>2020-10-04T10:12:24Z</time>
      </trkpt>
      <trkpt lat="40.1379860" lon="-4.7174420">
        <ele>1159.7</ele>
        <time>2020-10-04T10:12:25Z</time>
      </trkpt>
      <trkpt lat="40.1380250" lon="-4.7173830">
        <ele>1158.7</ele>
        <time>2020-10-04T10:12:26Z</time>
      </trkpt>
      <trkpt lat="40.1380570" lon="-4.7173280">
        <ele>1157.9</ele>
        <time>2020-10-04T10:12:28Z</time>
      </trkpt>
      <trkpt lat="40.1380950" lon="-4.7172630">
        <ele>1157.1</ele>
        <time>2020-10-04T10:12:29Z</time>
      </trkpt>
      <trkpt lat="40.1381310" lon="-4.7172130">
        <ele>1156.5</ele>
        <time>2020-10-04T10:12:30Z</time>
      </trkpt>
      <trkpt lat="40.1381580" lon="-4.7171740">
        <ele>1156.1</ele>
        <time>2020-10-04T10:12:32Z</time>
      </trkpt>
      <trkpt lat="40.1381990" lon="-4.7171200">
        <ele>1155.6</ele>
        <time>2020-10-04T10:12:33Z</time>
      </trkpt>
      <trkpt lat="40.1382340" lon="-4.7170770">
        <ele>1155.1</ele>
        <time>2020-10-04T10:12:35Z</time>
      </trkpt>
      <trkpt lat="40.1382630" lon="-4.7170490">
        <ele>1154.8</ele>
        <time>2020-10-04T10:12:36Z</time>
      </trkpt>
      <trkpt lat="40.1383000" lon="-4.7170010">
        <ele>1154.3</ele>
        <time>2020-10-04T10:12:37Z</time>
      </trkpt>
      <trkpt lat="40.1383300" lon="-4.7169430">
        <ele>1153.6</ele>
        <time>2020-10-04T10:12:39Z</time>
      </trkpt>
      <trkpt lat="40.1383570" lon="-4.7168980">
        <ele>1153.0</ele>
        <time>2020-10-04T10:12:40Z</time>
      </trkpt>
      <trkpt lat="40.1383860" lon="-4.7168350">
        <ele>1152.2</ele>
        <time>2020-10-04T10:12:41Z</time>
      </trkpt>
      <trkpt lat="40.1384150" lon="-4.7167760">
        <ele>1151.4</ele>
        <time>2020-10-04T10:12:42Z</time>
      </trkpt>
      <trkpt lat="40.1384420" lon="-4.7167170">
        <ele>1150.5</ele>
        <time>2020-10-04T10:12:43Z</time>
      </trkpt>
      <trkpt lat="40.1384750" lon="-4.7166540">
        <ele>1149.6</ele>
        <time>2020-10-04T10:12:44Z</time>
      </trkpt>
      <trkpt lat="40.1385210" lon="-4.7165750">
        <ele>1148.4</ele>
        <time>2020-10-04T10:12:46Z</time>
      </trkpt>
      <trkpt lat="40.1385990" lon="-4.7164380">
        <ele>1146.2</ele>
        <time>2020-10-04T10:12:48Z</time>
      </trkpt>
      <trkpt lat="40.1386740" lon="-4.7163150">
        <ele>1144.5</ele>
        <time>2020-10-04T10:12:50Z</time>
      </trkpt>
      <trkpt lat="40.1387030" lon="-4.7162700">
        <ele>1143.9</ele>
        <time>2020-10-04T10:12:51Z</time>
      </trkpt>
      <trkpt lat="40.1387560" lon="-4.7161920">
        <ele>1142.9</ele>
        <time>2020-10-04T10:12:53Z</time>
      </trkpt>
      <trkpt lat="40.1387490" lon="-4.7161490">
        <ele>1142.4</ele>
        <time>2020-10-04T10:12:54Z</time>
      </trkpt>
      <trkpt lat="40.1387810" lon="-4.7161050">
        <ele>1141.7</ele>
        <time>2020-10-04T10:12:56Z</time>
      </trkpt>
      <trkpt lat="40.1388100" lon="-4.7160720">
        <ele>1141.2</ele>
        <time>2020-10-04T10:12:57Z</time>
      </trkpt>
      <trkpt lat="40.1388630" lon="-4.7160020">
        <ele>1140.1</ele>
        <time>2020-10-04T10:12:59Z</time>
      </trkpt>
      <trkpt lat="40.1389030" lon="-4.7159520">
        <ele>1139.3</ele>
        <time>2020-10-04T10:13:00Z</time>
      </trkpt>
      <trkpt lat="40.1389310" lon="-4.7159060">
        <ele>1138.6</ele>
        <time>2020-10-04T10:13:01Z</time>
      </trkpt>
      <trkpt lat="40.1389720" lon="-4.7158410">
        <ele>1137.7</ele>
        <time>2020-10-04T10:13:03Z</time>
      </trkpt>
      <trkpt lat="40.1390080" lon="-4.7157850">
        <ele>1136.9</ele>
        <time>2020-10-04T10:13:04Z</time>
      </trkpt>
      <trkpt lat="40.1390440" lon="-4.7157270">
        <ele>1136.0</ele>
        <time>2020-10-04T10:13:05Z</time>
      </trkpt>
      <trkpt lat="40.1391030" lon="-4.7156040">
        <ele>1134.3</ele>
        <time>2020-10-04T10:13:06Z</time>
      </trkpt>
      <trkpt lat="40.1391550" lon="-4.7154720">
        <ele>1132.6</ele>
        <time>2020-10-04T10:13:08Z</time>
      </trkpt>
      <trkpt lat="40.1391820" lon="-4.7154030">
        <ele>1131.8</ele>
        <time>2020-10-04T10:13:09Z</time>
      </trkpt>
      <trkpt lat="40.1392310" lon="-4.7153000">
        <ele>1130.6</ele>
        <time>2020-10-04T10:13:11Z</time>
      </trkpt>
      <trkpt lat="40.1392510" lon="-4.7152560">
        <ele>1130.1</ele>
        <time>2020-10-04T10:13:12Z</time>
      </trkpt>
      <trkpt lat="40.1392770" lon="-4.7152170">
        <ele>1129.6</ele>
        <time>2020-10-04T10:13:13Z</time>
      </trkpt>
      <trkpt lat="40.1393190" lon="-4.7151520">
        <ele>1128.7</ele>
        <time>2020-10-04T10:13:15Z</time>
      </trkpt>
      <trkpt lat="40.1393520" lon="-4.7150970">
        <ele>1127.9</ele>
        <time>2020-10-04T10:13:16Z</time>
      </trkpt>
      <trkpt lat="40.1393880" lon="-4.7150290">
        <ele>1126.9</ele>
        <time>2020-10-04T10:13:17Z</time>
      </trkpt>
      <trkpt lat="40.1394330" lon="-4.7149490">
        <ele>1125.8</ele>
        <time>2020-10-04T10:13:19Z</time>
      </trkpt>
      <trkpt lat="40.1394640" lon="-4.7148820">
        <ele>1124.9</ele>
        <time>2020-10-04T10:13:20Z</time>
      </trkpt>
      <trkpt lat="40.1394950" lon="-4.7148140">
        <ele>1124.0</ele>
        <time>2020-10-04T10:13:21Z</time>
      </trkpt>
      <trkpt lat="40.1395620" lon="-4.7146780">
        <ele>1122.2</ele>
        <time>2020-10-04T10:13:23Z</time>
      </trkpt>
      <trkpt lat="40.1396000" lon="-4.7146150">
        <ele>1121.3</ele>
        <time>2020-10-04T10:13:24Z</time>
      </trkpt>
      <trkpt lat="40.1396690" lon="-4.7145030">
        <ele>1119.6</ele>
        <time>2020-10-04T10:13:26Z</time>
      </trkpt>
      <trkpt lat="40.1397180" lon="-4.7144170">
        <ele>1118.1</ele>
        <time>2020-10-04T10:13:28Z</time>
      </trkpt>
      <trkpt lat="40.1397600" lon="-4.7143480">
        <ele>1115.7</ele>
        <time>2020-10-04T10:13:30Z</time>
      </trkpt>
      <trkpt lat="40.1397830" lon="-4.7143280">
        <ele>1115.3</ele>
        <time>2020-10-04T10:13:31Z</time>
      </trkpt>
      <trkpt lat="40.1398070" lon="-4.7142430">
        <ele>1114.3</ele>
        <time>2020-10-04T10:13:33Z</time>
      </trkpt>
      <trkpt lat="40.1398270" lon="-4.7141770">
        <ele>1113.5</ele>
        <time>2020-10-04T10:13:34Z</time>
      </trkpt>
      <trkpt lat="40.1398720" lon="-4.7140580">
        <ele>1112.0</ele>
        <time>2020-10-04T10:13:35Z</time>
      </trkpt>
      <trkpt lat="40.1399480" lon="-4.7139300">
        <ele>1110.2</ele>
        <time>2020-10-04T10:13:37Z</time>
      </trkpt>
      <trkpt lat="40.1399850" lon="-4.7138730">
        <ele>1109.5</ele>
        <time>2020-10-04T10:13:38Z</time>
      </trkpt>
      <trkpt lat="40.1400590" lon="-4.7137730">
        <ele>1108.2</ele>
        <time>2020-10-04T10:13:40Z</time>
      </trkpt>
      <trkpt lat="40.1401360" lon="-4.7136850">
        <ele>1106.9</ele>
        <time>2020-10-04T10:13:42Z</time>
      </trkpt>
      <trkpt lat="40.1401750" lon="-4.7136470">
        <ele>1106.3</ele>
        <time>2020-10-04T10:13:43Z</time>
      </trkpt>
      <trkpt lat="40.1402470" lon="-4.7135760">
        <ele>1105.2</ele>
        <time>2020-10-04T10:13:45Z</time>
      </trkpt>
      <trkpt lat="40.1402780" lon="-4.7135340">
        <ele>1104.6</ele>
        <time>2020-10-04T10:13:46Z</time>
      </trkpt>
      <trkpt lat="40.1403190" lon="-4.7134420">
        <ele>1103.4</ele>
        <time>2020-10-04T10:13:48Z</time>
      </trkpt>
      <trkpt lat="40.1403500" lon="-4.7133760">
        <ele>1102.4</ele>
        <time>2020-10-04T10:13:49Z</time>
      </trkpt>
      <trkpt lat="40.1403850" lon="-4.7133190">
        <ele>1101.5</ele>
        <time>2020-10-04T10:13:50Z</time>
      </trkpt>
      <trkpt lat="40.1404970" lon="-4.7132360">
        <ele>1099.3</ele>
        <time>2020-10-04T10:13:52Z</time>
      </trkpt>
      <trkpt lat="40.1405710" lon="-4.7132210">
        <ele>1098.2</ele>
        <time>2020-10-04T10:13:53Z</time>
      </trkpt>
      <trkpt lat="40.1407290" lon="-4.7132200">
        <ele>1095.7</ele>
        <time>2020-10-04T10:13:55Z</time>
      </trkpt>
      <trkpt lat="40.1408250" lon="-4.7131960">
        <ele>1093.9</ele>
        <time>2020-10-04T10:13:57Z</time>
      </trkpt>
      <trkpt lat="40.1408230" lon="-4.7131190">
        <ele>1092.7</ele>
        <time>2020-10-04T10:13:59Z</time>
      </trkpt>
      <trkpt lat="40.1407870" lon="-4.7129550">
        <ele>1090.1</ele>
        <time>2020-10-04T10:14:01Z</time>
      </trkpt>
      <trkpt lat="40.1407760" lon="-4.7128590">
        <ele>1088.7</ele>
        <time>2020-10-04T10:14:02Z</time>
      </trkpt>
      <trkpt lat="40.1408070" lon="-4.7126900">
        <ele>1086.4</ele>
        <time>2020-10-04T10:14:04Z</time>
      </trkpt>
      <trkpt lat="40.1408480" lon="-4.7126180">
        <ele>1085.3</ele>
        <time>2020-10-04T10:14:05Z</time>
      </trkpt>
      <trkpt lat="40.1408980" lon="-4.7125600">
        <ele>1084.1</ele>
        <time>2020-10-04T10:14:06Z</time>
      </trkpt>
      <trkpt lat="40.1409980" lon="-4.7124520">
        <ele>1081.8</ele>
        <time>2020-10-04T10:14:08Z</time>
      </trkpt>
      <trkpt lat="40.1410560" lon="-4.7123150">
        <ele>1079.6</ele>
        <time>2020-10-04T10:14:10Z</time>
      </trkpt>
      <trkpt lat="40.1410590" lon="-4.7122350">
        <ele>1078.6</ele>
        <time>2020-10-04T10:14:11Z</time>
      </trkpt>
      <trkpt lat="40.1410200" lon="-4.7120760">
        <ele>1076.3</ele>
        <time>2020-10-04T10:14:13Z</time>
      </trkpt>
      <trkpt lat="40.1409930" lon="-4.7119990">
        <ele>1075.2</ele>
        <time>2020-10-04T10:14:14Z</time>
      </trkpt>
      <trkpt lat="40.1409750" lon="-4.7119290">
        <ele>1074.3</ele>
        <time>2020-10-04T10:14:15Z</time>
      </trkpt>
      <trkpt lat="40.1409840" lon="-4.7117930">
        <ele>1072.6</ele>
        <time>2020-10-04T10:14:17Z</time>
      </trkpt>
      <trkpt lat="40.1410020" lon="-4.7117260">
        <ele>1071.7</ele>
        <time>2020-10-04T10:14:18Z</time>
      </trkpt>
      <trkpt lat="40.1410460" lon="-4.7116260">
        <ele>1070.2</ele>
        <time>2020-10-04T10:14:20Z</time>
      </trkpt>
      <trkpt lat="40.1410790" lon="-4.7115890">
        <ele>1069.4</ele>
        <time>2020-10-04T10:14:21Z</time>
      </trkpt>
      <trkpt lat="40.1411200" lon="-4.7115570">
        <ele>1068.6</ele>
        <time>2020-10-04T10:14:22Z</time>
      </trkpt>
      <trkpt lat="40.1411640" lon="-4.7115210">
        <ele>1067.7</ele>
        <time>2020-10-04T10:14:23Z</time>
      </trkpt>
      <trkpt lat="40.1412700" lon="-4.7114460">
        <ele>1065.8</ele>
        <time>2020-10-04T10:14:25Z</time>
      </trkpt>
      <trkpt lat="40.1413780" lon="-4.7113630">
        <ele>1063.9</ele>
        <time>2020-10-04T10:14:27Z</time>
      </trkpt>
      <trkpt lat="40.1414860" lon="-4.7112570">
        <ele>1062.0</ele>
        <time>2020-10-04T10:14:29Z</time>
      </trkpt>
      <trkpt lat="40.1415600" lon="-4.7111410">
        <ele>1060.5</ele>
        <time>2020-10-04T10:14:31Z</time>
      </trkpt>
      <trkpt lat="40.1415900" lon="-4.7110760">
        <ele>1059.7</ele>
        <time>2020-10-04T10:14:32Z</time>
      </trkpt>
      <trkpt lat="40.1416170" lon="-4.7110070">
        <ele>1059.0</ele>
        <time>2020-10-04T10:14:33Z</time>
      </trkpt>
      <trkpt lat="40.1416420" lon="-4.7109400">
        <ele>1058.3</ele>
        <time>2020-10-04T10:14:34Z</time>
      </trkpt>
      <trkpt lat="40.1416760" lon="-4.7108360">
        <ele>1057.3</ele>
        <time>2020-10-04T10:14:36Z</time>
      </trkpt>
      <trkpt lat="40.1416880" lon="-4.7108030">
        <ele>1056.9</ele>
        <time>2020-10-04T10:14:37Z</time>
      </trkpt>
      <trkpt lat="40.1417310" lon="-4.7107040">
        <ele>1055.9</ele>
        <time>2020-10-04T10:14:39Z</time>
      </trkpt>
      <trkpt lat="40.1417480" lon="-4.7106370">
        <ele>1055.2</ele>
        <time>2020-10-04T10:14:40Z</time>
      </trkpt>
      <trkpt lat="40.1417930" lon="-4.7104630">
        <ele>1053.4</ele>
        <time>2020-10-04T10:14:42Z</time>
      </trkpt>
      <trkpt lat="40.1418470" lon="-4.7102590">
        <ele>1051.2</ele>
        <time>2020-10-04T10:14:44Z</time>
      </trkpt>
      <trkpt lat="40.1419010" lon="-4.7100510">
        <ele>1049.0</ele>
        <time>2020-10-04T10:14:46Z</time>
      </trkpt>
      <trkpt lat="40.1419420" lon="-4.7098520">
        <ele>1046.8</ele>
        <time>2020-10-04T10:14:48Z</time>
      </trkpt>
      <trkpt lat="40.1419630" lon="-4.7097500">
        <ele>1045.6</ele>
        <time>2020-10-04T10:14:49Z</time>
      </trkpt>
      <trkpt lat="40.1419980" lon="-4.7095570">
        <ele>1043.3</ele>
        <time>2020-10-04T10:14:51Z</time>
      </trkpt>
      <trkpt lat="40.1420120" lon="-4.7094610">
        <ele>1042.1</ele>
        <time>2020-10-04T10:14:52Z</time>
      </trkpt>
      <trkpt lat="40.1420300" lon="-4.7093600">
        <ele>1040.8</ele>
        <time>2020-10-04T10:14:53Z</time>
      </trkpt>
      <trkpt lat="40.1420440" lon="-4.7092540">
        <ele>1039.5</ele>
        <time>2020-10-04T10:14:54Z</time>
      </trkpt>
      <trkpt lat="40.1420660" lon="-4.7091440">
        <ele>1038.0</ele>
        <time>2020-10-04T10:14:55Z</time>
      </trkpt>
      <trkpt lat="40.1421310" lon="-4.7089150">
        <ele>1035.3</ele>
        <time>2020-10-04T10:14:57Z</time>
      </trkpt>
      <trkpt lat="40.1421970" lon="-4.7086820">
        <ele>1033.0</ele>
        <time>2020-10-04T10:14:59Z</time>
      </trkpt>
      <trkpt lat="40.1422520" lon="-4.7084710">
        <ele>1031.2</ele>
        <time>2020-10-04T10:15:01Z</time>
      </trkpt>
      <trkpt lat="40.1423040" lon="-4.7082880">
        <ele>1029.7</ele>
        <time>2020-10-04T10:15:03Z</time>
      </trkpt>
      <trkpt lat="40.1423350" lon="-4.7082030">
        <ele>1029.1</ele>
        <time>2020-10-04T10:15:04Z</time>
      </trkpt>
      <trkpt lat="40.1423660" lon="-4.7081180">
        <ele>1028.5</ele>
        <time>2020-10-04T10:15:05Z</time>
      </trkpt>
      <trkpt lat="40.1423990" lon="-4.7080350">
        <ele>1027.9</ele>
        <time>2020-10-04T10:15:06Z</time>
      </trkpt>
      <trkpt lat="40.1424360" lon="-4.7079530">
        <ele>1027.4</ele>
        <time>2020-10-04T10:15:07Z</time>
      </trkpt>
      <trkpt lat="40.1425030" lon="-4.7078030">
        <ele>1026.5</ele>
        <time>2020-10-04T10:15:09Z</time>
      </trkpt>
      <trkpt lat="40.1425560" lon="-4.7076560">
        <ele>1025.6</ele>
        <time>2020-10-04T10:15:11Z</time>
      </trkpt>
      <trkpt lat="40.1425900" lon="-4.7074920">
        <ele>1024.5</ele>
        <time>2020-10-04T10:15:13Z</time>
      </trkpt>
      <trkpt lat="40.1426210" lon="-4.7073030">
        <ele>1023.0</ele>
        <time>2020-10-04T10:15:15Z</time>
      </trkpt>
      <trkpt lat="40.1426310" lon="-4.7072080">
        <ele>1022.1</ele>
        <time>2020-10-04T10:15:16Z</time>
      </trkpt>
      <trkpt lat="40.1426380" lon="-4.7071180">
        <ele>1021.3</ele>
        <time>2020-10-04T10:15:17Z</time>
      </trkpt>
      <trkpt lat="40.1426520" lon="-4.7069470">
        <ele>1019.8</ele>
        <time>2020-10-04T10:15:19Z</time>
      </trkpt>
      <trkpt lat="40.1426590" lon="-4.7068610">
        <ele>1019.1</ele>
        <time>2020-10-04T10:15:20Z</time>
      </trkpt>
      <trkpt lat="40.1426780" lon="-4.7066840">
        <ele>1017.5</ele>
        <time>2020-10-04T10:15:22Z</time>
      </trkpt>
      <trkpt lat="40.1427060" lon="-4.7065030">
        <ele>1015.8</ele>
        <time>2020-10-04T10:15:24Z</time>
      </trkpt>
      <trkpt lat="40.1427220" lon="-4.7064120">
        <ele>1014.9</ele>
        <time>2020-10-04T10:15:25Z</time>
      </trkpt>
      <trkpt lat="40.1427230" lon="-4.7062430">
        <ele>1013.2</ele>
        <time>2020-10-04T10:15:27Z</time>
      </trkpt>
      <trkpt lat="40.1426730" lon="-4.7061240">
        <ele>1011.7</ele>
        <time>2020-10-04T10:15:29Z</time>
      </trkpt>
      <trkpt lat="40.1426110" lon="-4.7060040">
        <ele>1009.8</ele>
        <time>2020-10-04T10:15:31Z</time>
      </trkpt>
      <trkpt lat="40.1425830" lon="-4.7059340">
        <ele>1008.7</ele>
        <time>2020-10-04T10:15:32Z</time>
      </trkpt>
      <trkpt lat="40.1425320" lon="-4.7057900">
        <ele>1006.4</ele>
        <time>2020-10-04T10:15:34Z</time>
      </trkpt>
      <trkpt lat="40.1425210" lon="-4.7057130">
        <ele>1005.2</ele>
        <time>2020-10-04T10:15:35Z</time>
      </trkpt>
      <trkpt lat="40.1425370" lon="-4.7055310">
        <ele>1002.2</ele>
        <time>2020-10-04T10:15:37Z</time>
      </trkpt>
      <trkpt lat="40.1425490" lon="-4.7054160">
        <ele>1000.5</ele>
        <time>2020-10-04T10:15:38Z</time>
      </trkpt>
      <trkpt lat="40.1425590" lon="-4.7052900">
        <ele>998.7</ele>
        <time>2020-10-04T10:15:39Z</time>
      </trkpt>
      <trkpt lat="40.1425710" lon="-4.7050340">
        <ele>995.4</ele>
        <time>2020-10-04T10:15:41Z</time>
      </trkpt>
      <trkpt lat="40.1425750" lon="-4.7048040">
        <ele>992.7</ele>
        <time>2020-10-04T10:15:43Z</time>
      </trkpt>
      <trkpt lat="40.1425960" lon="-4.7047120">
        <ele>991.2</ele>
        <time>2020-10-04T10:15:44Z</time>
      </trkpt>
      <trkpt lat="40.1426860" lon="-4.7045740">
        <ele>988.6</ele>
        <time>2020-10-04T10:15:46Z</time>
      </trkpt>
      <trkpt lat="40.1427400" lon="-4.7045060">
        <ele>987.2</ele>
        <time>2020-10-04T10:15:47Z</time>
      </trkpt>
      <trkpt lat="40.1427830" lon="-4.7044250">
        <ele>985.8</ele>
        <time>2020-10-04T10:15:48Z</time>
      </trkpt>
      <trkpt lat="40.1428530" lon="-4.7042580">
        <ele>983.4</ele>
        <time>2020-10-04T10:15:50Z</time>
      </trkpt>
      <trkpt lat="40.1429030" lon="-4.7041860">
        <ele>982.2</ele>
        <time>2020-10-04T10:15:51Z</time>
      </trkpt>
      <trkpt lat="40.1430350" lon="-4.7040860">
        <ele>979.8</ele>
        <time>2020-10-04T10:15:53Z</time>
      </trkpt>
      <trkpt lat="40.1430980" lon="-4.7040340">
        <ele>978.8</ele>
        <time>2020-10-04T10:15:54Z</time>
      </trkpt>
      <trkpt lat="40.1431740" lon="-4.7038880">
        <ele>976.8</ele>
        <time>2020-10-04T10:15:56Z</time>
      </trkpt>
      <trkpt lat="40.1431960" lon="-4.7037120">
        <ele>974.9</ele>
        <time>2020-10-04T10:15:58Z</time>
      </trkpt>
      <trkpt lat="40.1432310" lon="-4.7035780">
        <ele>973.6</ele>
        <time>2020-10-04T10:16:00Z</time>
      </trkpt>
      <trkpt lat="40.1432940" lon="-4.7035540">
        <ele>972.8</ele>
        <time>2020-10-04T10:16:02Z</time>
      </trkpt>
      <trkpt lat="40.1433260" lon="-4.7035650">
        <ele>972.3</ele>
        <time>2020-10-04T10:16:03Z</time>
      </trkpt>
      <trkpt lat="40.1433750" lon="-4.7036270">
        <ele>971.2</ele>
        <time>2020-10-04T10:16:05Z</time>
      </trkpt>
      <trkpt lat="40.1433970" lon="-4.7036800">
        <ele>970.4</ele>
        <time>2020-10-04T10:16:06Z</time>
      </trkpt>
      <trkpt lat="40.1434310" lon="-4.7037650">
        <ele>969.4</ele>
        <time>2020-10-04T10:16:08Z</time>
      </trkpt>
      <trkpt lat="40.1434500" lon="-4.7037860">
        <ele>969.1</ele>
        <time>2020-10-04T10:16:10Z</time>
      </trkpt>
      <trkpt lat="40.1434630" lon="-4.7038340">
        <ele>968.7</ele>
        <time>2020-10-04T10:16:11Z</time>
      </trkpt>
      <trkpt lat="40.1434950" lon="-4.7039600">
        <ele>967.9</ele>
        <time>2020-10-04T10:16:13Z</time>
      </trkpt>
      <trkpt lat="40.1435340" lon="-4.7041010">
        <ele>967.4</ele>
        <time>2020-10-04T10:16:14Z</time>
      </trkpt>
      <trkpt lat="40.1435460" lon="-4.7041640">
        <ele>967.2</ele>
        <time>2020-10-04T10:16:15Z</time>
      </trkpt>
      <trkpt lat="40.1435550" lon="-4.7042280">
        <ele>967.1</ele>
        <time>2020-10-04T10:16:16Z</time>
      </trkpt>
      <trkpt lat="40.1435670" lon="-4.7043200">
        <ele>966.8</ele>
        <time>2020-10-04T10:16:18Z</time>
      </trkpt>
      <trkpt lat="40.1435960" lon="-4.7043820">
        <ele>966.6</ele>
        <time>2020-10-04T10:16:19Z</time>
      </trkpt>
      <trkpt lat="40.1436300" lon="-4.7044020">
        <ele>966.5</ele>
        <time>2020-10-04T10:16:20Z</time>
      </trkpt>
      <trkpt lat="40.1436720" lon="-4.7043660">
        <ele>966.2</ele>
        <time>2020-10-04T10:16:22Z</time>
      </trkpt>
      <trkpt lat="40.1436810" lon="-4.7042880">
        <ele>965.7</ele>
        <time>2020-10-04T10:16:23Z</time>
      </trkpt>
      <trkpt lat="40.1436910" lon="-4.7042120">
        <ele>965.1</ele>
        <time>2020-10-04T10:16:24Z</time>
      </trkpt>
      <trkpt lat="40.1437050" lon="-4.7041290">
        <ele>964.5</ele>
        <time>2020-10-04T10:16:25Z</time>
      </trkpt>
      <trkpt lat="40.1437380" lon="-4.7039500">
        <ele>963.1</ele>
        <time>2020-10-04T10:16:27Z</time>
      </trkpt>
      <trkpt lat="40.1437910" lon="-4.7037470">
        <ele>961.7</ele>
        <time>2020-10-04T10:16:29Z</time>
      </trkpt>
      <trkpt lat="40.1438200" lon="-4.7036380">
        <ele>960.9</ele>
        <time>2020-10-04T10:16:30Z</time>
      </trkpt>
      <trkpt lat="40.1438490" lon="-4.7035210">
        <ele>960.1</ele>
        <time>2020-10-04T10:16:31Z</time>
      </trkpt>
      <trkpt lat="40.1438870" lon="-4.7032800">
        <ele>958.3</ele>
        <time>2020-10-04T10:16:33Z</time>
      </trkpt>
      <trkpt lat="40.1438960" lon="-4.7030360">
        <ele>956.6</ele>
        <time>2020-10-04T10:16:35Z</time>
      </trkpt>
      <trkpt lat="40.1438950" lon="-4.7029150">
        <ele>955.7</ele>
        <time>2020-10-04T10:16:36Z</time>
      </trkpt>
      <trkpt lat="40.1438840" lon="-4.7028010">
        <ele>954.9</ele>
        <time>2020-10-04T10:16:37Z</time>
      </trkpt>
      <trkpt lat="40.1438380" lon="-4.7026010">
        <ele>953.5</ele>
        <time>2020-10-04T10:16:39Z</time>
      </trkpt>
      <trkpt lat="40.1437580" lon="-4.7024340">
        <ele>952.2</ele>
        <time>2020-10-04T10:16:41Z</time>
      </trkpt>
      <trkpt lat="40.1436730" lon="-4.7022800">
        <ele>950.9</ele>
        <time>2020-10-04T10:16:43Z</time>
      </trkpt>
      <trkpt lat="40.1435740" lon="-4.7021450">
        <ele>949.5</ele>
        <time>2020-10-04T10:16:45Z</time>
      </trkpt>
      <trkpt lat="40.1434280" lon="-4.7020220">
        <ele>948.0</ele>
        <time>2020-10-04T10:16:47Z</time>
      </trkpt>
      <trkpt lat="40.1433550" lon="-4.7019650">
        <ele>947.4</ele>
        <time>2020-10-04T10:16:48Z</time>
      </trkpt>
      <trkpt lat="40.1432400" lon="-4.7018460">
        <ele>946.7</ele>
        <time>2020-10-04T10:16:50Z</time>
      </trkpt>
      <trkpt lat="40.1431950" lon="-4.7017910">
        <ele>946.3</ele>
        <time>2020-10-04T10:16:51Z</time>
      </trkpt>
      <trkpt lat="40.1431350" lon="-4.7016750">
        <ele>945.7</ele>
        <time>2020-10-04T10:16:53Z</time>
      </trkpt>
      <trkpt lat="40.1431150" lon="-4.7016090">
        <ele>945.3</ele>
        <time>2020-10-04T10:16:54Z</time>
      </trkpt>
      <trkpt lat="40.1431070" lon="-4.7014780">
        <ele>944.1</ele>
        <time>2020-10-04T10:16:56Z</time>
      </trkpt>
      <trkpt lat="40.1431300" lon="-4.7014150">
        <ele>943.3</ele>
        <time>2020-10-04T10:16:57Z</time>
      </trkpt>
      <trkpt lat="40.1431680" lon="-4.7013530">
        <ele>942.2</ele>
        <time>2020-10-04T10:16:58Z</time>
      </trkpt>
      <trkpt lat="40.1432610" lon="-4.7012240">
        <ele>940.4</ele>
        <time>2020-10-04T10:17:00Z</time>
      </trkpt>
      <trkpt lat="40.1432900" lon="-4.7011420">
        <ele>939.5</ele>
        <time>2020-10-04T10:17:01Z</time>
      </trkpt>
      <trkpt lat="40.1433140" lon="-4.7009510">
        <ele>937.5</ele>
        <time>2020-10-04T10:17:03Z</time>
      </trkpt>
      <trkpt lat="40.1433260" lon="-4.7008570">
        <ele>936.4</ele>
        <time>2020-10-04T10:17:04Z</time>
      </trkpt>
      <trkpt lat="40.1433490" lon="-4.7007750">
        <ele>935.6</ele>
        <time>2020-10-04T10:17:05Z</time>
      </trkpt>
      <trkpt lat="40.1434320" lon="-4.7006330">
        <ele>934.1</ele>
        <time>2020-10-04T10:17:07Z</time>
      </trkpt>
      <trkpt lat="40.1435630" lon="-4.7005360">
        <ele>932.7</ele>
        <time>2020-10-04T10:17:09Z</time>
      </trkpt>
      <trkpt lat="40.1437000" lon="-4.7004550">
        <ele>931.5</ele>
        <time>2020-10-04T10:17:11Z</time>
      </trkpt>
      <trkpt lat="40.1437680" lon="-4.7004340">
        <ele>931.0</ele>
        <time>2020-10-04T10:17:12Z</time>
      </trkpt>
      <trkpt lat="40.1438970" lon="-4.7004410">
        <ele>929.9</ele>
        <time>2020-10-04T10:17:14Z</time>
      </trkpt>
      <trkpt lat="40.1439540" lon="-4.7004680">
        <ele>929.3</ele>
        <time>2020-10-04T10:17:15Z</time>
      </trkpt>
      <trkpt lat="40.1440670" lon="-4.7005530">
        <ele>927.8</ele>
        <time>2020-10-04T10:17:17Z</time>
      </trkpt>
      <trkpt lat="40.1441780" lon="-4.7006760">
        <ele>925.9</ele>
        <time>2020-10-04T10:17:19Z</time>
      </trkpt>
      <trkpt lat="40.1442340" lon="-4.7007410">
        <ele>924.9</ele>
        <time>2020-10-04T10:17:20Z</time>
      </trkpt>
      <trkpt lat="40.1443570" lon="-4.7008310">
        <ele>923.3</ele>
        <time>2020-10-04T10:17:22Z</time>
      </trkpt>
      <trkpt lat="40.1444870" lon="-4.7009280">
        <ele>921.8</ele>
        <time>2020-10-04T10:17:24Z</time>
      </trkpt>
      <trkpt lat="40.1446020" lon="-4.7010750">
        <ele>920.1</ele>
        <time>2020-10-04T10:17:26Z</time>
      </trkpt>
      <trkpt lat="40.1446960" lon="-4.7012290">
        <ele>918.6</ele>
        <time>2020-10-04T10:17:28Z</time>
      </trkpt>
      <trkpt lat="40.1447390" lon="-4.7012950">
        <ele>918.0</ele>
        <time>2020-10-04T10:17:29Z</time>
      </trkpt>
      <trkpt lat="40.1447830" lon="-4.7013480">
        <ele>917.5</ele>
        <time>2020-10-04T10:17:30Z</time>
      </trkpt>
      <trkpt lat="40.1448380" lon="-4.7013740">
        <ele>917.0</ele>
        <time>2020-10-04T10:17:31Z</time>
      </trkpt>
      <trkpt lat="40.1449700" lon="-4.7013650">
        <ele>915.5</ele>
        <time>2020-10-04T10:17:33Z</time>
      </trkpt>
      <trkpt lat="40.1450440" lon="-4.7013440">
        <ele>914.6</ele>
        <time>2020-10-04T10:17:34Z</time>
      </trkpt>
      <trkpt lat="40.1451950" lon="-4.7013000">
        <ele>912.5</ele>
        <time>2020-10-04T10:17:36Z</time>
      </trkpt>
      <trkpt lat="40.1452690" lon="-4.7012830">
        <ele>911.4</ele>
        <time>2020-10-04T10:17:37Z</time>
      </trkpt>
      <trkpt lat="40.1454230" lon="-4.7012520">
        <ele>909.4</ele>
        <time>2020-10-04T10:17:39Z</time>
      </trkpt>
      <trkpt lat="40.1455800" lon="-4.7011840">
        <ele>907.2</ele>
        <time>2020-10-04T10:17:41Z</time>
      </trkpt>
      <trkpt lat="40.1456520" lon="-4.7011420">
        <ele>906.3</ele>
        <time>2020-10-04T10:17:42Z</time>
      </trkpt>
      <trkpt lat="40.1457940" lon="-4.7010770">
        <ele>904.4</ele>
        <time>2020-10-04T10:17:44Z</time>
      </trkpt>
      <trkpt lat="40.1459370" lon="-4.7010840">
        <ele>902.5</ele>
        <time>2020-10-04T10:17:46Z</time>
      </trkpt>
      <trkpt lat="40.1460760" lon="-4.7011000">
        <ele>900.5</ele>
        <time>2020-10-04T10:17:48Z</time>
      </trkpt>
      <trkpt lat="40.1461960" lon="-4.7010620">
        <ele>898.9</ele>
        <time>2020-10-04T10:17:50Z</time>
      </trkpt>
      <trkpt lat="40.1463020" lon="-4.7010130">
        <ele>897.4</ele>
        <time>2020-10-04T10:17:52Z</time>
      </trkpt>
      <trkpt lat="40.1464030" lon="-4.7010230">
        <ele>896.0</ele>
        <time>2020-10-04T10:17:54Z</time>
      </trkpt>
      <trkpt lat="40.1464500" lon="-4.7010720">
        <ele>895.0</ele>
        <time>2020-10-04T10:17:55Z</time>
      </trkpt>
      <trkpt lat="40.1464940" lon="-4.7011280">
        <ele>894.1</ele>
        <time>2020-10-04T10:17:56Z</time>
      </trkpt>
      <trkpt lat="40.1465380" lon="-4.7011830">
        <ele>893.3</ele>
        <time>2020-10-04T10:17:57Z</time>
      </trkpt>
      <trkpt lat="40.1466160" lon="-4.7012700">
        <ele>892.0</ele>
        <time>2020-10-04T10:17:59Z</time>
      </trkpt>
      <trkpt lat="40.1466910" lon="-4.7012320">
        <ele>891.2</ele>
        <time>2020-10-04T10:18:01Z</time>
      </trkpt>
      <trkpt lat="40.1467110" lon="-4.7012000">
        <ele>891.0</ele>
        <time>2020-10-04T10:18:02Z</time>
      </trkpt>
      <trkpt lat="40.1467670" lon="-4.7011290">
        <ele>890.4</ele>
        <time>2020-10-04T10:18:04Z</time>
      </trkpt>
      <trkpt lat="40.1468260" lon="-4.7010640">
        <ele>890.1</ele>
        <time>2020-10-04T10:18:06Z</time>
      </trkpt>
      <trkpt lat="40.1468760" lon="-4.7010050">
        <ele>889.9</ele>
        <time>2020-10-04T10:18:08Z</time>
      </trkpt>
      <trkpt lat="40.1469190" lon="-4.7009960">
        <ele>889.9</ele>
        <time>2020-10-04T10:18:10Z</time>
      </trkpt>
      <trkpt lat="40.1469410" lon="-4.7009550">
        <ele>889.8</ele>
        <time>2020-10-04T10:18:11Z</time>
      </trkpt>
      <trkpt lat="40.1469870" lon="-4.7008470">
        <ele>889.8</ele>
        <time>2020-10-04T10:18:12Z</time>
      </trkpt>
      <trkpt lat="40.1470250" lon="-4.7007820">
        <ele>889.7</ele>
        <time>2020-10-04T10:18:13Z</time>
      </trkpt>
      <trkpt lat="40.1470610" lon="-4.7007250">
        <ele>889.6</ele>
        <time>2020-10-04T10:18:14Z</time>
      </trkpt>
      <trkpt lat="40.1471250" lon="-4.7006230">
        <ele>889.6</ele>
        <time>2020-10-04T10:18:16Z</time>
      </trkpt>
      <trkpt lat="40.1471850" lon="-4.7005380">
        <ele>889.6</ele>
        <time>2020-10-04T10:18:18Z</time>
      </trkpt>
      <trkpt lat="40.1472420" lon="-4.7004720">
        <ele>889.6</ele>
        <time>2020-10-04T10:18:20Z</time>
      </trkpt>
      <trkpt lat="40.1472940" lon="-4.7004220">
        <ele>889.7</ele>
        <time>2020-10-04T10:18:22Z</time>
      </trkpt>
      <trkpt lat="40.1473170" lon="-4.7004090">
        <ele>889.7</ele>
        <time>2020-10-04T10:18:23Z</time>
      </trkpt>
      <trkpt lat="40.1473730" lon="-4.7004000">
        <ele>889.8</ele>
        <time>2020-10-04T10:18:25Z</time>
      </trkpt>
      <trkpt lat="40.1474200" lon="-4.7003980">
        <ele>889.9</ele>
        <time>2020-10-04T10:18:26Z</time>
      </trkpt>
      <trkpt lat="40.1474630" lon="-4.7004010">
        <ele>889.9</ele>
        <time>2020-10-04T10:18:27Z</time>
      </trkpt>
      <trkpt lat="40.1475260" lon="-4.7004000">
        <ele>890.1</ele>
        <time>2020-10-04T10:18:29Z</time>
      </trkpt>
      <trkpt lat="40.1475670" lon="-4.7003920">
        <ele>890.2</ele>
        <time>2020-10-04T10:18:30Z</time>
      </trkpt>
      <trkpt lat="40.1476050" lon="-4.7003770">
        <ele>890.4</ele>
        <time>2020-10-04T10:18:31Z</time>
      </trkpt>
      <trkpt lat="40.1476620" lon="-4.7003660">
        <ele>890.8</ele>
        <time>2020-10-04T10:18:33Z</time>
      </trkpt>
      <trkpt lat="40.1476930" lon="-4.7003630">
        <ele>891.0</ele>
        <time>2020-10-04T10:18:34Z</time>
      </trkpt>
      <trkpt lat="40.1477280" lon="-4.7003590">
        <ele>891.4</ele>
        <time>2020-10-04T10:18:35Z</time>
      </trkpt>
      <trkpt lat="40.1477700" lon="-4.7003480">
        <ele>891.8</ele>
        <time>2020-10-04T10:18:37Z</time>
      </trkpt>
      <trkpt lat="40.1478020" lon="-4.7003380">
        <ele>892.2</ele>
        <time>2020-10-04T10:18:38Z</time>
      </trkpt>
      <trkpt lat="40.1478310" lon="-4.7003280">
        <ele>892.6</ele>
        <time>2020-10-04T10:18:39Z</time>
      </trkpt>
      <trkpt lat="40.1478640" lon="-4.7003200">
        <ele>893.0</ele>
        <time>2020-10-04T10:18:40Z</time>
      </trkpt>
      <trkpt lat="40.1478950" lon="-4.7003180">
        <ele>893.3</ele>
        <time>2020-10-04T10:18:42Z</time>
      </trkpt>
      <trkpt lat="40.1479290" lon="-4.7003060">
        <ele>893.8</ele>
        <time>2020-10-04T10:18:43Z</time>
      </trkpt>
      <trkpt lat="40.1479660" lon="-4.7002960">
        <ele>894.2</ele>
        <time>2020-10-04T10:18:44Z</time>
      </trkpt>
      <trkpt lat="40.1479780" lon="-4.7002930">
        <ele>894.3</ele>
        <time>2020-10-04T10:18:45Z</time>
      </trkpt>
      <trkpt lat="40.1480000" lon="-4.7002810">
        <ele>894.5</ele>
        <time>2020-10-04T10:18:46Z</time>
      </trkpt>
      <trkpt lat="40.1480390" lon="-4.7002590">
        <ele>894.9</ele>
        <time>2020-10-04T10:18:48Z</time>
      </trkpt>
      <trkpt lat="40.1480680" lon="-4.7002420">
        <ele>895.1</ele>
        <time>2020-10-04T10:18:49Z</time>
      </trkpt>
      <trkpt lat="40.1481040" lon="-4.7002110">
        <ele>895.4</ele>
        <time>2020-10-04T10:18:50Z</time>
      </trkpt>
      <trkpt lat="40.1481170" lon="-4.7001960">
        <ele>895.4</ele>
        <time>2020-10-04T10:18:51Z</time>
      </trkpt>
      <trkpt lat="40.1481390" lon="-4.7001650">
        <ele>895.5</ele>
        <time>2020-10-04T10:18:53Z</time>
      </trkpt>
      <trkpt lat="40.1481630" lon="-4.7001220">
        <ele>895.6</ele>
        <time>2020-10-04T10:18:54Z</time>
      </trkpt>
      <trkpt lat="40.1481900" lon="-4.7000660">
        <ele>895.6</ele>
        <time>2020-10-04T10:18:55Z</time>
      </trkpt>
      <trkpt lat="40.1482090" lon="-4.7000270">
        <ele>895.6</ele>
        <time>2020-10-04T10:18:57Z</time>
      </trkpt>
      <trkpt lat="40.1482320" lon="-4.6999800">
        <ele>895.6</ele>
        <time>2020-10-04T10:18:58Z</time>
      </trkpt>
      <trkpt lat="40.1482490" lon="-4.6999430">
        <ele>895.5</ele>
        <time>2020-10-04T10:18:59Z</time>
      </trkpt>
      <trkpt lat="40.1482860" lon="-4.6998750">
        <ele>895.4</ele>
        <time>2020-10-04T10:19:01Z</time>
      </trkpt>
      <trkpt lat="40.1483040" lon="-4.6998450">
        <ele>895.4</ele>
        <time>2020-10-04T10:19:02Z</time>
      </trkpt>
      <trkpt lat="40.1483300" lon="-4.6998010">
        <ele>895.2</ele>
        <time>2020-10-04T10:19:03Z</time>
      </trkpt>
      <trkpt lat="40.1483560" lon="-4.6997630">
        <ele>895.1</ele>
        <time>2020-10-04T10:19:05Z</time>
      </trkpt>
      <trkpt lat="40.1483860" lon="-4.6997220">
        <ele>895.0</ele>
        <time>2020-10-04T10:19:06Z</time>
      </trkpt>
      <trkpt lat="40.1484220" lon="-4.6996710">
        <ele>894.8</ele>
        <time>2020-10-04T10:19:07Z</time>
      </trkpt>
      <trkpt lat="40.1484540" lon="-4.6996150">
        <ele>894.5</ele>
        <time>2020-10-04T10:19:08Z</time>
      </trkpt>
      <trkpt lat="40.1484760" lon="-4.6995580">
        <ele>894.3</ele>
        <time>2020-10-04T10:19:09Z</time>
      </trkpt>
      <trkpt lat="40.1484930" lon="-4.6994990">
        <ele>894.1</ele>
        <time>2020-10-04T10:19:10Z</time>
      </trkpt>
      <trkpt lat="40.1485060" lon="-4.6994040">
        <ele>893.8</ele>
        <time>2020-10-04T10:19:11Z</time>
      </trkpt>
      <trkpt lat="40.1485140" lon="-4.6993390">
        <ele>893.7</ele>
        <time>2020-10-04T10:19:13Z</time>
      </trkpt>
      <trkpt lat="40.1485300" lon="-4.6992840">
        <ele>893.6</ele>
        <time>2020-10-04T10:19:14Z</time>
      </trkpt>
      <trkpt lat="40.1485660" lon="-4.6992450">
        <ele>893.6</ele>
        <time>2020-10-04T10:19:15Z</time>
      </trkpt>
      <trkpt lat="40.1486050" lon="-4.6992540">
        <ele>893.9</ele>
        <time>2020-10-04T10:19:16Z</time>
      </trkpt>
      <trkpt lat="40.1486450" lon="-4.6992680">
        <ele>894.2</ele>
        <time>2020-10-04T10:19:18Z</time>
      </trkpt>
      <trkpt lat="40.1486780" lon="-4.6992810">
        <ele>894.5</ele>
        <time>2020-10-04T10:19:19Z</time>
      </trkpt>
      <trkpt lat="40.1487090" lon="-4.6993050">
        <ele>894.8</ele>
        <time>2020-10-04T10:19:21Z</time>
      </trkpt>
      <trkpt lat="40.1487430" lon="-4.6993260">
        <ele>895.1</ele>
        <time>2020-10-04T10:19:22Z</time>
      </trkpt>
      <trkpt lat="40.1487750" lon="-4.6993430">
        <ele>895.4</ele>
        <time>2020-10-04T10:19:23Z</time>
      </trkpt>
      <trkpt lat="40.1487990" lon="-4.6993520">
        <ele>895.6</ele>
        <time>2020-10-04T10:19:24Z</time>
      </trkpt>
      <trkpt lat="40.1488370" lon="-4.6993590">
        <ele>896.0</ele>
        <time>2020-10-04T10:19:26Z</time>
      </trkpt>
      <trkpt lat="40.1488740" lon="-4.6993470">
        <ele>896.2</ele>
        <time>2020-10-04T10:19:27Z</time>
      </trkpt>
      <trkpt lat="40.1488990" lon="-4.6993280">
        <ele>896.4</ele>
        <time>2020-10-04T10:19:28Z</time>
      </trkpt>
      <trkpt lat="40.1489340" lon="-4.6992960">
        <ele>896.5</ele>
        <time>2020-10-04T10:19:30Z</time>
      </trkpt>
      <trkpt lat="40.1489550" lon="-4.6992730">
        <ele>896.6</ele>
        <time>2020-10-04T10:19:32Z</time>
      </trkpt>
      <trkpt lat="40.1489760" lon="-4.6992490">
        <ele>896.6</ele>
        <time>2020-10-04T10:19:33Z</time>
      </trkpt>
      <trkpt lat="40.1490020" lon="-4.6992070">
        <ele>896.5</ele>
        <time>2020-10-04T10:19:34Z</time>
      </trkpt>
      <trkpt lat="40.1490110" lon="-4.6991860">
        <ele>896.5</ele>
        <time>2020-10-04T10:19:35Z</time>
      </trkpt>
      <trkpt lat="40.1490370" lon="-4.6991400">
        <ele>896.3</ele>
        <time>2020-10-04T10:19:37Z</time>
      </trkpt>
      <trkpt lat="40.1490640" lon="-4.6990900">
        <ele>896.1</ele>
        <time>2020-10-04T10:19:38Z</time>
      </trkpt>
      <trkpt lat="40.1491170" lon="-4.6990040">
        <ele>895.5</ele>
        <time>2020-10-04T10:19:40Z</time>
      </trkpt>
      <trkpt lat="40.1491790" lon="-4.6989140">
        <ele>895.5</ele>
        <time>2020-10-04T10:19:41Z</time>
      </trkpt>
      <trkpt lat="40.1492470" lon="-4.6988140">
        <ele>895.4</ele>
        <time>2020-10-04T10:19:43Z</time>
      </trkpt>
      <trkpt lat="40.1492970" lon="-4.6987380">
        <ele>895.5</ele>
        <time>2020-10-04T10:19:44Z</time>
      </trkpt>
      <trkpt lat="40.1493470" lon="-4.6986570">
        <ele>895.6</ele>
        <time>2020-10-04T10:19:45Z</time>
      </trkpt>
      <trkpt lat="40.1493800" lon="-4.6985990">
        <ele>895.7</ele>
        <time>2020-10-04T10:19:47Z</time>
      </trkpt>
      <trkpt lat="40.1493990" lon="-4.6985560">
        <ele>895.7</ele>
        <time>2020-10-04T10:19:48Z</time>
      </trkpt>
      <trkpt lat="40.1494160" lon="-4.6985200">
        <ele>895.8</ele>
        <time>2020-10-04T10:19:49Z</time>
      </trkpt>
      <trkpt lat="40.1494430" lon="-4.6984760">
        <ele>895.9</ele>
        <time>2020-10-04T10:19:51Z</time>
      </trkpt>
      <trkpt lat="40.1494720" lon="-4.6984420">
        <ele>896.0</ele>
        <time>2020-10-04T10:19:52Z</time>
      </trkpt>
      <trkpt lat="40.1494830" lon="-4.6984300">
        <ele>896.0</ele>
        <time>2020-10-04T10:19:53Z</time>
      </trkpt>
      <trkpt lat="40.1495080" lon="-4.6984140">
        <ele>896.1</ele>
        <time>2020-10-04T10:19:55Z</time>
      </trkpt>
      <trkpt lat="40.1495340" lon="-4.6983910">
        <ele>896.2</ele>
        <time>2020-10-04T10:19:56Z</time>
      </trkpt>
      <trkpt lat="40.1495640" lon="-4.6983640">
        <ele>896.3</ele>
        <time>2020-10-04T10:19:58Z</time>
      </trkpt>
      <trkpt lat="40.1496050" lon="-4.6983490">
        <ele>896.5</ele>
        <time>2020-10-04T10:20:00Z</time>
      </trkpt>
      <trkpt lat="40.1496220" lon="-4.6983440">
        <ele>896.6</ele>
        <time>2020-10-04T10:20:01Z</time>
      </trkpt>
      <trkpt lat="40.1496510" lon="-4.6983330">
        <ele>896.7</ele>
        <time>2020-10-04T10:20:03Z</time>
      </trkpt>
      <trkpt lat="40.1496710" lon="-4.6983310">
        <ele>896.7</ele>
        <time>2020-10-04T10:20:04Z</time>
      </trkpt>
      <trkpt lat="40.1497050" lon="-4.6983270">
        <ele>896.7</ele>
        <time>2020-10-04T10:20:06Z</time>
      </trkpt>
      <trkpt lat="40.1497350" lon="-4.6983080">
        <ele>896.5</ele>
        <time>2020-10-04T10:20:08Z</time>
      </trkpt>
      <trkpt lat="40.1497500" lon="-4.6982960">
        <ele>896.3</ele>
        <time>2020-10-04T10:20:09Z</time>
      </trkpt>
      <trkpt lat="40.1497860" lon="-4.6982630">
        <ele>895.9</ele>
        <time>2020-10-04T10:20:11Z</time>
      </trkpt>
      <trkpt lat="40.1498170" lon="-4.6982340">
        <ele>895.6</ele>
        <time>2020-10-04T10:20:12Z</time>
      </trkpt>
      <trkpt lat="40.1498690" lon="-4.6981850">
        <ele>895.0</ele>
        <time>2020-10-04T10:20:14Z</time>
      </trkpt>
      <trkpt lat="40.1499400" lon="-4.6981250">
        <ele>894.4</ele>
        <time>2020-10-04T10:20:16Z</time>
      </trkpt>
      <trkpt lat="40.1500350" lon="-4.6980430">
        <ele>893.7</ele>
        <time>2020-10-04T10:20:18Z</time>
      </trkpt>
      <trkpt lat="40.1500770" lon="-4.6980060">
        <ele>893.4</ele>
        <time>2020-10-04T10:20:19Z</time>
      </trkpt>
      <trkpt lat="40.1501730" lon="-4.6979090">
        <ele>892.6</ele>
        <time>2020-10-04T10:20:21Z</time>
      </trkpt>
      <trkpt lat="40.1502150" lon="-4.6978590">
        <ele>892.3</ele>
        <time>2020-10-04T10:20:22Z</time>
      </trkpt>
      <trkpt lat="40.1503400" lon="-4.6976870">
        <ele>891.1</ele>
        <time>2020-10-04T10:20:24Z</time>
      </trkpt>
      <trkpt lat="40.1503860" lon="-4.6976100">
        <ele>890.6</ele>
        <time>2020-10-04T10:20:25Z</time>
      </trkpt>
      <trkpt lat="40.1504410" lon="-4.6974590">
        <ele>889.6</ele>
        <time>2020-10-04T10:20:27Z</time>
      </trkpt>
      <trkpt lat="40.1504710" lon="-4.6973050">
        <ele>888.6</ele>
        <time>2020-10-04T10:20:29Z</time>
      </trkpt>
      <trkpt lat="40.1504780" lon="-4.6971390">
        <ele>887.7</ele>
        <time>2020-10-04T10:20:31Z</time>
      </trkpt>
      <trkpt lat="40.1504770" lon="-4.6969690">
        <ele>886.9</ele>
        <time>2020-10-04T10:20:33Z</time>
      </trkpt>
      <trkpt lat="40.1504770" lon="-4.6968840">
        <ele>886.6</ele>
        <time>2020-10-04T10:20:34Z</time>
      </trkpt>
      <trkpt lat="40.1504780" lon="-4.6967240">
        <ele>885.9</ele>
        <time>2020-10-04T10:20:36Z</time>
      </trkpt>
      <trkpt lat="40.1505130" lon="-4.6965710">
        <ele>885.1</ele>
        <time>2020-10-04T10:20:38Z</time>
      </trkpt>
      <trkpt lat="40.1505480" lon="-4.6964930">
        <ele>884.6</ele>
        <time>2020-10-04T10:20:39Z</time>
      </trkpt>
      <trkpt lat="40.1506330" lon="-4.6963320">
        <ele>883.5</ele>
        <time>2020-10-04T10:20:41Z</time>
      </trkpt>
      <trkpt lat="40.1506750" lon="-4.6962420">
        <ele>882.9</ele>
        <time>2020-10-04T10:20:42Z</time>
      </trkpt>
      <trkpt lat="40.1507340" lon="-4.6960450">
        <ele>881.7</ele>
        <time>2020-10-04T10:20:44Z</time>
      </trkpt>
      <trkpt lat="40.1507410" lon="-4.6959390">
        <ele>881.1</ele>
        <time>2020-10-04T10:20:45Z</time>
      </trkpt>
      <trkpt lat="40.1506850" lon="-4.6957460">
        <ele>880.0</ele>
        <time>2020-10-04T10:20:47Z</time>
      </trkpt>
      <trkpt lat="40.1506360" lon="-4.6956620">
        <ele>879.5</ele>
        <time>2020-10-04T10:20:48Z</time>
      </trkpt>
      <trkpt lat="40.1505880" lon="-4.6955810">
        <ele>879.0</ele>
        <time>2020-10-04T10:20:49Z</time>
      </trkpt>
      <trkpt lat="40.1504900" lon="-4.6954270">
        <ele>878.0</ele>
        <time>2020-10-04T10:20:51Z</time>
      </trkpt>
      <trkpt lat="40.1504390" lon="-4.6953480">
        <ele>877.5</ele>
        <time>2020-10-04T10:20:52Z</time>
      </trkpt>
      <trkpt lat="40.1503580" lon="-4.6951740">
        <ele>876.5</ele>
        <time>2020-10-04T10:20:54Z</time>
      </trkpt>
      <trkpt lat="40.1503060" lon="-4.6949900">
        <ele>875.5</ele>
        <time>2020-10-04T10:20:56Z</time>
      </trkpt>
      <trkpt lat="40.1502910" lon="-4.6948900">
        <ele>874.9</ele>
        <time>2020-10-04T10:20:57Z</time>
      </trkpt>
      <trkpt lat="40.1502860" lon="-4.6947800">
        <ele>874.3</ele>
        <time>2020-10-04T10:20:58Z</time>
      </trkpt>
      <trkpt lat="40.1503010" lon="-4.6946650">
        <ele>873.6</ele>
        <time>2020-10-04T10:20:59Z</time>
      </trkpt>
      <trkpt lat="40.1503670" lon="-4.6944390">
        <ele>872.2</ele>
        <time>2020-10-04T10:21:01Z</time>
      </trkpt>
      <trkpt lat="40.1504050" lon="-4.6943220">
        <ele>871.5</ele>
        <time>2020-10-04T10:21:02Z</time>
      </trkpt>
      <trkpt lat="40.1504430" lon="-4.6942060">
        <ele>870.8</ele>
        <time>2020-10-04T10:21:03Z</time>
      </trkpt>
      <trkpt lat="40.1505150" lon="-4.6939820">
        <ele>869.5</ele>
        <time>2020-10-04T10:21:05Z</time>
      </trkpt>
      <trkpt lat="40.1505530" lon="-4.6938700">
        <ele>868.9</ele>
        <time>2020-10-04T10:21:06Z</time>
      </trkpt>
      <trkpt lat="40.1505960" lon="-4.6937580">
        <ele>868.3</ele>
        <time>2020-10-04T10:21:07Z</time>
      </trkpt>
      <trkpt lat="40.1506430" lon="-4.6936440">
        <ele>867.8</ele>
        <time>2020-10-04T10:21:08Z</time>
      </trkpt>
      <trkpt lat="40.1507500" lon="-4.6934180">
        <ele>866.7</ele>
        <time>2020-10-04T10:21:10Z</time>
      </trkpt>
      <trkpt lat="40.1508070" lon="-4.6933060">
        <ele>866.2</ele>
        <time>2020-10-04T10:21:11Z</time>
      </trkpt>
      <trkpt lat="40.1508640" lon="-4.6931930">
        <ele>865.7</ele>
        <time>2020-10-04T10:21:12Z</time>
      </trkpt>
      <trkpt lat="40.1509240" lon="-4.6930810">
        <ele>865.2</ele>
        <time>2020-10-04T10:21:13Z</time>
      </trkpt>
      <trkpt lat="40.1510490" lon="-4.6928690">
        <ele>864.5</ele>
        <time>2020-10-04T10:21:15Z</time>
      </trkpt>
      <trkpt lat="40.1511130" lon="-4.6927690">
        <ele>864.3</ele>
        <time>2020-10-04T10:21:16Z</time>
      </trkpt>
      <trkpt lat="40.1512440" lon="-4.6925760">
        <ele>863.7</ele>
        <time>2020-10-04T10:21:18Z</time>
      </trkpt>
      <trkpt lat="40.1513090" lon="-4.6924800">
        <ele>863.5</ele>
        <time>2020-10-04T10:21:19Z</time>
      </trkpt>
      <trkpt lat="40.1514270" lon="-4.6922850">
        <ele>863.2</ele>
        <time>2020-10-04T10:21:21Z</time>
      </trkpt>
      <trkpt lat="40.1515320" lon="-4.6920890">
        <ele>863.0</ele>
        <time>2020-10-04T10:21:23Z</time>
      </trkpt>
      <trkpt lat="40.1515850" lon="-4.6918750">
        <ele>862.9</ele>
        <time>2020-10-04T10:21:25Z</time>
      </trkpt>
      <trkpt lat="40.1515740" lon="-4.6916670">
        <ele>862.9</ele>
        <time>2020-10-04T10:21:27Z</time>
      </trkpt>
      <trkpt lat="40.1515180" lon="-4.6914850">
        <ele>863.1</ele>
        <time>2020-10-04T10:21:29Z</time>
      </trkpt>
      <trkpt lat="40.1514810" lon="-4.6914050">
        <ele>863.3</ele>
        <time>2020-10-04T10:21:30Z</time>
      </trkpt>
      <trkpt lat="40.1514500" lon="-4.6913290">
        <ele>863.4</ele>
        <time>2020-10-04T10:21:31Z</time>
      </trkpt>
      <trkpt lat="40.1514200" lon="-4.6912590">
        <ele>863.6</ele>
        <time>2020-10-04T10:21:32Z</time>
      </trkpt>
      <trkpt lat="40.1513710" lon="-4.6911370">
        <ele>864.0</ele>
        <time>2020-10-04T10:21:34Z</time>
      </trkpt>
      <trkpt lat="40.1513320" lon="-4.6910430">
        <ele>864.5</ele>
        <time>2020-10-04T10:21:36Z</time>
      </trkpt>
      <trkpt lat="40.1513200" lon="-4.6910250">
        <ele>864.5</ele>
        <time>2020-10-04T10:21:37Z</time>
      </trkpt>
      <trkpt lat="40.1512570" lon="-4.6910160">
        <ele>864.8</ele>
        <time>2020-10-04T10:21:39Z</time>
      </trkpt>
      <trkpt lat="40.1512290" lon="-4.6910260">
        <ele>864.8</ele>
        <time>2020-10-04T10:21:40Z</time>
      </trkpt>
      <trkpt lat="40.1511930" lon="-4.6910360">
        <ele>864.6</ele>
        <time>2020-10-04T10:21:41Z</time>
      </trkpt>
      <trkpt lat="40.1511640" lon="-4.6910450">
        <ele>864.5</ele>
        <time>2020-10-04T10:21:42Z</time>
      </trkpt>
      <trkpt lat="40.1511240" lon="-4.6910590">
        <ele>864.3</ele>
        <time>2020-10-04T10:21:43Z</time>
      </trkpt>
      <trkpt lat="40.1510020" lon="-4.6910760">
        <ele>863.8</ele>
        <time>2020-10-04T10:21:45Z</time>
      </trkpt>
      <trkpt lat="40.1509360" lon="-4.6910670">
        <ele>863.7</ele>
        <time>2020-10-04T10:21:46Z</time>
      </trkpt>
      <trkpt lat="40.1508710" lon="-4.6910490">
        <ele>863.6</ele>
        <time>2020-10-04T10:21:47Z</time>
      </trkpt>
      <trkpt lat="40.1507450" lon="-4.6909950">
        <ele>863.5</ele>
        <time>2020-10-04T10:21:49Z</time>
      </trkpt>
      <trkpt lat="40.1506940" lon="-4.6909670">
        <ele>863.5</ele>
        <time>2020-10-04T10:21:50Z</time>
      </trkpt>
      <trkpt lat="40.1506420" lon="-4.6909450">
        <ele>863.4</ele>
        <time>2020-10-04T10:21:51Z</time>
      </trkpt>
      <trkpt lat="40.1505280" lon="-4.6909190">
        <ele>863.4</ele>
        <time>2020-10-04T10:21:53Z</time>
      </trkpt>
      <trkpt lat="40.1504590" lon="-4.6909170">
        <ele>863.4</ele>
        <time>2020-10-04T10:21:54Z</time>
      </trkpt>
      <trkpt lat="40.1503900" lon="-4.6909220">
        <ele>863.4</ele>
        <time>2020-10-04T10:21:55Z</time>
      </trkpt>
      <trkpt lat="40.1502600" lon="-4.6909440">
        <ele>863.4</ele>
        <time>2020-10-04T10:21:57Z</time>
      </trkpt>
      <trkpt lat="40.1501380" lon="-4.6909530">
        <ele>863.4</ele>
        <time>2020-10-04T10:21:59Z</time>
      </trkpt>
      <trkpt lat="40.1500830" lon="-4.6909550">
        <ele>863.5</ele>
        <time>2020-10-04T10:22:00Z</time>
      </trkpt>
      <trkpt lat="40.1500330" lon="-4.6909570">
        <ele>863.5</ele>
        <time>2020-10-04T10:22:01Z</time>
      </trkpt>
      <trkpt lat="40.1499360" lon="-4.6909670">
        <ele>863.5</ele>
        <time>2020-10-04T10:22:03Z</time>
      </trkpt>
      <trkpt lat="40.1498370" lon="-4.6909800">
        <ele>863.6</ele>
        <time>2020-10-04T10:22:05Z</time>
      </trkpt>
      <trkpt lat="40.1497390" lon="-4.6909980">
        <ele>863.6</ele>
        <time>2020-10-04T10:22:07Z</time>
      </trkpt>
      <trkpt lat="40.1496870" lon="-4.6910090">
        <ele>863.5</ele>
        <time>2020-10-04T10:22:08Z</time>
      </trkpt>
      <trkpt lat="40.1495720" lon="-4.6910410">
        <ele>863.3</ele>
        <time>2020-10-04T10:22:10Z</time>
      </trkpt>
      <trkpt lat="40.1494480" lon="-4.6910860">
        <ele>863.0</ele>
        <time>2020-10-04T10:22:12Z</time>
      </trkpt>
      <trkpt lat="40.1493840" lon="-4.6911080">
        <ele>862.8</ele>
        <time>2020-10-04T10:22:13Z</time>
      </trkpt>
      <trkpt lat="40.1492620" lon="-4.6911490">
        <ele>862.3</ele>
        <time>2020-10-04T10:22:15Z</time>
      </trkpt>
      <trkpt lat="40.1492010" lon="-4.6911680">
        <ele>862.1</ele>
        <time>2020-10-04T10:22:16Z</time>
      </trkpt>
      <trkpt lat="40.1491420" lon="-4.6911880">
        <ele>861.8</ele>
        <time>2020-10-04T10:22:17Z</time>
      </trkpt>
      <trkpt lat="40.1490850" lon="-4.6912080">
        <ele>861.5</ele>
        <time>2020-10-04T10:22:18Z</time>
      </trkpt>
      <trkpt lat="40.1489730" lon="-4.6912470">
        <ele>860.9</ele>
        <time>2020-10-04T10:22:20Z</time>
      </trkpt>
      <trkpt lat="40.1488600" lon="-4.6912860">
        <ele>860.1</ele>
        <time>2020-10-04T10:22:22Z</time>
      </trkpt>
      <trkpt lat="40.1488060" lon="-4.6913040">
        <ele>859.7</ele>
        <time>2020-10-04T10:22:23Z</time>
      </trkpt>
      <trkpt lat="40.1486900" lon="-4.6913480">
        <ele>858.9</ele>
        <time>2020-10-04T10:22:25Z</time>
      </trkpt>
      <trkpt lat="40.1485620" lon="-4.6913950">
        <ele>858.0</ele>
        <time>2020-10-04T10:22:27Z</time>
      </trkpt>
      <trkpt lat="40.1484940" lon="-4.6914190">
        <ele>857.6</ele>
        <time>2020-10-04T10:22:28Z</time>
      </trkpt>
      <trkpt lat="40.1484260" lon="-4.6914370">
        <ele>857.1</ele>
        <time>2020-10-04T10:22:29Z</time>
      </trkpt>
      <trkpt lat="40.1483550" lon="-4.6914540">
        <ele>856.7</ele>
        <time>2020-10-04T10:22:30Z</time>
      </trkpt>
      <trkpt lat="40.1482130" lon="-4.6914690">
        <ele>855.8</ele>
        <time>2020-10-04T10:22:32Z</time>
      </trkpt>
      <trkpt lat="40.1481400" lon="-4.6914760">
        <ele>855.2</ele>
        <time>2020-10-04T10:22:33Z</time>
      </trkpt>
      <trkpt lat="40.1479870" lon="-4.6914990">
        <ele>854.0</ele>
        <time>2020-10-04T10:22:35Z</time>
      </trkpt>
      <trkpt lat="40.1479060" lon="-4.6915190">
        <ele>853.3</ele>
        <time>2020-10-04T10:22:36Z</time>
      </trkpt>
      <trkpt lat="40.1478230" lon="-4.6915410">
        <ele>852.6</ele>
        <time>2020-10-04T10:22:37Z</time>
      </trkpt>
      <trkpt lat="40.1476610" lon="-4.6915720">
        <ele>851.4</ele>
        <time>2020-10-04T10:22:39Z</time>
      </trkpt>
      <trkpt lat="40.1474980" lon="-4.6915950">
        <ele>850.1</ele>
        <time>2020-10-04T10:22:41Z</time>
      </trkpt>
      <trkpt lat="40.1474120" lon="-4.6916110">
        <ele>849.4</ele>
        <time>2020-10-04T10:22:42Z</time>
      </trkpt>
      <trkpt lat="40.1472380" lon="-4.6916310">
        <ele>847.8</ele>
        <time>2020-10-04T10:22:44Z</time>
      </trkpt>
      <trkpt lat="40.1471490" lon="-4.6916340">
        <ele>847.1</ele>
        <time>2020-10-04T10:22:45Z</time>
      </trkpt>
      <trkpt lat="40.1470610" lon="-4.6916340">
        <ele>846.4</ele>
        <time>2020-10-04T10:22:46Z</time>
      </trkpt>
      <trkpt lat="40.1468840" lon="-4.6916520">
        <ele>844.9</ele>
        <time>2020-10-04T10:22:48Z</time>
      </trkpt>
      <trkpt lat="40.1467010" lon="-4.6916780">
        <ele>843.3</ele>
        <time>2020-10-04T10:22:50Z</time>
      </trkpt>
      <trkpt lat="40.1465050" lon="-4.6916910">
        <ele>841.4</ele>
        <time>2020-10-04T10:22:52Z</time>
      </trkpt>
      <trkpt lat="40.1462950" lon="-4.6916750">
        <ele>839.4</ele>
        <time>2020-10-04T10:22:54Z</time>
      </trkpt>
      <trkpt lat="40.1461860" lon="-4.6916440">
        <ele>838.3</ele>
        <time>2020-10-04T10:22:55Z</time>
      </trkpt>
      <trkpt lat="40.1460780" lon="-4.6915960">
        <ele>837.2</ele>
        <time>2020-10-04T10:22:56Z</time>
      </trkpt>
      <trkpt lat="40.1458700" lon="-4.6914680">
        <ele>834.8</ele>
        <time>2020-10-04T10:22:58Z</time>
      </trkpt>
      <trkpt lat="40.1457660" lon="-4.6914010">
        <ele>833.6</ele>
        <time>2020-10-04T10:22:59Z</time>
      </trkpt>
      <trkpt lat="40.1455490" lon="-4.6912870">
        <ele>832.3</ele>
        <time>2020-10-04T10:23:01Z</time>
      </trkpt>
      <trkpt lat="40.1454470" lon="-4.6912230">
        <ele>831.4</ele>
        <time>2020-10-04T10:23:02Z</time>
      </trkpt>
      <trkpt lat="40.1452390" lon="-4.6911140">
        <ele>829.1</ele>
        <time>2020-10-04T10:23:04Z</time>
      </trkpt>
      <trkpt lat="40.1451220" lon="-4.6911020">
        <ele>827.8</ele>
        <time>2020-10-04T10:23:05Z</time>
      </trkpt>
      <trkpt lat="40.1448900" lon="-4.6911550">
        <ele>825.1</ele>
        <time>2020-10-04T10:23:07Z</time>
      </trkpt>
      <trkpt lat="40.1447720" lon="-4.6911800">
        <ele>823.8</ele>
        <time>2020-10-04T10:23:08Z</time>
      </trkpt>
      <trkpt lat="40.1445270" lon="-4.6912090">
        <ele>821.1</ele>
        <time>2020-10-04T10:23:10Z</time>
      </trkpt>
      <trkpt lat="40.1444000" lon="-4.6911920">
        <ele>820.2</ele>
        <time>2020-10-04T10:23:11Z</time>
      </trkpt>
      <trkpt lat="40.1442710" lon="-4.6911560">
        <ele>819.1</ele>
        <time>2020-10-04T10:23:12Z</time>
      </trkpt>
      <trkpt lat="40.1440050" lon="-4.6910720">
        <ele>816.5</ele>
        <time>2020-10-04T10:23:14Z</time>
      </trkpt>
      <trkpt lat="40.1438680" lon="-4.6910210">
        <ele>815.2</ele>
        <time>2020-10-04T10:23:15Z</time>
      </trkpt>
      <trkpt lat="40.1435940" lon="-4.6909420">
        <ele>812.5</ele>
        <time>2020-10-04T10:23:17Z</time>
      </trkpt>
      <trkpt lat="40.1434620" lon="-4.6909350">
        <ele>810.8</ele>
        <time>2020-10-04T10:23:18Z</time>
      </trkpt>
      <trkpt lat="40.1433350" lon="-4.6909540">
        <ele>809.5</ele>
        <time>2020-10-04T10:23:19Z</time>
      </trkpt>
      <trkpt lat="40.1430980" lon="-4.6910310">
        <ele>807.2</ele>
        <time>2020-10-04T10:23:21Z</time>
      </trkpt>
      <trkpt lat="40.1429740" lon="-4.6910560">
        <ele>806.0</ele>
        <time>2020-10-04T10:23:22Z</time>
      </trkpt>
      <trkpt lat="40.1427170" lon="-4.6910040">
        <ele>803.4</ele>
        <time>2020-10-04T10:23:24Z</time>
      </trkpt>
      <trkpt lat="40.1424670" lon="-4.6909290">
        <ele>801.3</ele>
        <time>2020-10-04T10:23:26Z</time>
      </trkpt>
      <trkpt lat="40.1422270" lon="-4.6909140">
        <ele>798.7</ele>
        <time>2020-10-04T10:23:28Z</time>
      </trkpt>
      <trkpt lat="40.1419950" lon="-4.6909380">
        <ele>796.3</ele>
        <time>2020-10-04T10:23:30Z</time>
      </trkpt>
      <trkpt lat="40.1417500" lon="-4.6909060">
        <ele>794.4</ele>
        <time>2020-10-04T10:23:32Z</time>
      </trkpt>
      <trkpt lat="40.1415030" lon="-4.6908150">
        <ele>792.3</ele>
        <time>2020-10-04T10:23:34Z</time>
      </trkpt>
      <trkpt lat="40.1413800" lon="-4.6907700">
        <ele>790.5</ele>
        <time>2020-10-04T10:23:35Z</time>
      </trkpt>
      <trkpt lat="40.1411450" lon="-4.6907220">
        <ele>787.3</ele>
        <time>2020-10-04T10:23:37Z</time>
      </trkpt>
      <trkpt lat="40.1409320" lon="-4.6907530">
        <ele>784.7</ele>
        <time>2020-10-04T10:23:39Z</time>
      </trkpt>
      <trkpt lat="40.1408460" lon="-4.6907720">
        <ele>783.8</ele>
        <time>2020-10-04T10:23:40Z</time>
      </trkpt>
      <trkpt lat="40.1407730" lon="-4.6907970">
        <ele>783.0</ele>
        <time>2020-10-04T10:23:41Z</time>
      </trkpt>
      <trkpt lat="40.1406500" lon="-4.6908330">
        <ele>781.6</ele>
        <time>2020-10-04T10:23:43Z</time>
      </trkpt>
      <trkpt lat="40.1405880" lon="-4.6908500">
        <ele>781.1</ele>
        <time>2020-10-04T10:23:44Z</time>
      </trkpt>
      <trkpt lat="40.1404730" lon="-4.6908820">
        <ele>780.1</ele>
        <time>2020-10-04T10:23:46Z</time>
      </trkpt>
      <trkpt lat="40.1403600" lon="-4.6908850">
        <ele>779.2</ele>
        <time>2020-10-04T10:23:48Z</time>
      </trkpt>
      <trkpt lat="40.1402370" lon="-4.6908460">
        <ele>779.0</ele>
        <time>2020-10-04T10:23:50Z</time>
      </trkpt>
      <trkpt lat="40.1401110" lon="-4.6908050">
        <ele>779.1</ele>
        <time>2020-10-04T10:23:52Z</time>
      </trkpt>
      <trkpt lat="40.1399900" lon="-4.6907920">
        <ele>779.4</ele>
        <time>2020-10-04T10:23:54Z</time>
      </trkpt>
      <trkpt lat="40.1398610" lon="-4.6907950">
        <ele>779.9</ele>
        <time>2020-10-04T10:23:56Z</time>
      </trkpt>
      <trkpt lat="40.1397980" lon="-4.6907840">
        <ele>780.2</ele>
        <time>2020-10-04T10:23:57Z</time>
      </trkpt>
      <trkpt lat="40.1396790" lon="-4.6907550">
        <ele>780.8</ele>
        <time>2020-10-04T10:23:59Z</time>
      </trkpt>
      <trkpt lat="40.1396190" lon="-4.6907360">
        <ele>781.0</ele>
        <time>2020-10-04T10:24:00Z</time>
      </trkpt>
      <trkpt lat="40.1394980" lon="-4.6906980">
        <ele>781.6</ele>
        <time>2020-10-04T10:24:02Z</time>
      </trkpt>
      <trkpt lat="40.1393810" lon="-4.6906490">
        <ele>782.1</ele>
        <time>2020-10-04T10:24:04Z</time>
      </trkpt>
      <trkpt lat="40.1393250" lon="-4.6906230">
        <ele>782.5</ele>
        <time>2020-10-04T10:24:05Z</time>
      </trkpt>
      <trkpt lat="40.1392250" lon="-4.6905650">
        <ele>783.2</ele>
        <time>2020-10-04T10:24:07Z</time>
      </trkpt>
      <trkpt lat="40.1391840" lon="-4.6905310">
        <ele>783.5</ele>
        <time>2020-10-04T10:24:08Z</time>
      </trkpt>
      <trkpt lat="40.1391350" lon="-4.6904830">
        <ele>783.8</ele>
        <time>2020-10-04T10:24:10Z</time>
      </trkpt>
      <trkpt lat="40.1390810" lon="-4.6904300">
        <ele>784.1</ele>
        <time>2020-10-04T10:24:12Z</time>
      </trkpt>
      <trkpt lat="40.1390510" lon="-4.6904010">
        <ele>784.2</ele>
        <time>2020-10-04T10:24:13Z</time>
      </trkpt>
      <trkpt lat="40.1389820" lon="-4.6903450">
        <ele>784.2</ele>
        <time>2020-10-04T10:24:15Z</time>
      </trkpt>
      <trkpt lat="40.1389460" lon="-4.6903190">
        <ele>784.2</ele>
        <time>2020-10-04T10:24:16Z</time>
      </trkpt>
      <trkpt lat="40.1389150" lon="-4.6902970">
        <ele>784.2</ele>
        <time>2020-10-04T10:24:17Z</time>
      </trkpt>
      <trkpt lat="40.1388460" lon="-4.6902520">
        <ele>784.2</ele>
        <time>2020-10-04T10:24:19Z</time>
      </trkpt>
      <trkpt lat="40.1387840" lon="-4.6902190">
        <ele>784.1</ele>
        <time>2020-10-04T10:24:21Z</time>
      </trkpt>
      <trkpt lat="40.1387080" lon="-4.6901710">
        <ele>784.1</ele>
        <time>2020-10-04T10:24:23Z</time>
      </trkpt>
      <trkpt lat="40.1386710" lon="-4.6901440">
        <ele>784.0</ele>
        <time>2020-10-04T10:24:24Z</time>
      </trkpt>
      <trkpt lat="40.1386040" lon="-4.6900750">
        <ele>784.0</ele>
        <time>2020-10-04T10:24:26Z</time>
      </trkpt>
      <trkpt lat="40.1385750" lon="-4.6900380">
        <ele>783.9</ele>
        <time>2020-10-04T10:24:27Z</time>
      </trkpt>
      <trkpt lat="40.1385370" lon="-4.6899680">
        <ele>783.7</ele>
        <time>2020-10-04T10:24:29Z</time>
      </trkpt>
      <trkpt lat="40.1385190" lon="-4.6899290">
        <ele>783.6</ele>
        <time>2020-10-04T10:24:30Z</time>
      </trkpt>
      <trkpt lat="40.1384810" lon="-4.6898620">
        <ele>783.1</ele>
        <time>2020-10-04T10:24:32Z</time>
      </trkpt>
      <trkpt lat="40.1384650" lon="-4.6898380">
        <ele>782.9</ele>
        <time>2020-10-04T10:24:33Z</time>
      </trkpt>
      <trkpt lat="40.1384100" lon="-4.6897720">
        <ele>782.1</ele>
        <time>2020-10-04T10:24:35Z</time>
      </trkpt>
      <trkpt lat="40.1383310" lon="-4.6896820">
        <ele>780.8</ele>
        <time>2020-10-04T10:24:37Z</time>
      </trkpt>
      <trkpt lat="40.1382510" lon="-4.6895620">
        <ele>779.3</ele>
        <time>2020-10-04T10:24:39Z</time>
      </trkpt>
      <trkpt lat="40.1381820" lon="-4.6894110">
        <ele>777.9</ele>
        <time>2020-10-04T10:24:41Z</time>
      </trkpt>
      <trkpt lat="40.1381030" lon="-4.6892540">
        <ele>777.8</ele>
        <time>2020-10-04T10:24:43Z</time>
      </trkpt>
      <trkpt lat="40.1380210" lon="-4.6891020">
        <ele>778.1</ele>
        <time>2020-10-04T10:24:45Z</time>
      </trkpt>
      <trkpt lat="40.1379920" lon="-4.6890510">
        <ele>778.2</ele>
        <time>2020-10-04T10:24:46Z</time>
      </trkpt>
      <trkpt lat="40.1379750" lon="-4.6890070">
        <ele>778.3</ele>
        <time>2020-10-04T10:24:47Z</time>
      </trkpt>
      <trkpt lat="40.1379590" lon="-4.6889490">
        <ele>778.3</ele>
        <time>2020-10-04T10:24:48Z</time>
      </trkpt>
      <trkpt lat="40.1379390" lon="-4.6888120">
        <ele>778.4</ele>
        <time>2020-10-04T10:24:50Z</time>
      </trkpt>
      <trkpt lat="40.1379270" lon="-4.6887420">
        <ele>778.5</ele>
        <time>2020-10-04T10:24:51Z</time>
      </trkpt>
      <trkpt lat="40.1379060" lon="-4.6886840">
        <ele>778.6</ele>
        <time>2020-10-04T10:24:52Z</time>
      </trkpt>
      <trkpt lat="40.1378830" lon="-4.6886070">
        <ele>778.7</ele>
        <time>2020-10-04T10:24:54Z</time>
      </trkpt>
      <trkpt lat="40.1378630" lon="-4.6885570">
        <ele>778.7</ele>
        <time>2020-10-04T10:24:56Z</time>
      </trkpt>
      <trkpt lat="40.1378200" lon="-4.6885250">
        <ele>778.8</ele>
        <time>2020-10-04T10:24:57Z</time>
      </trkpt>
      <trkpt lat="40.1377750" lon="-4.6884950">
        <ele>778.8</ele>
        <time>2020-10-04T10:24:58Z</time>
      </trkpt>
      <trkpt lat="40.1377360" lon="-4.6884730">
        <ele>778.7</ele>
        <time>2020-10-04T10:24:59Z</time>
      </trkpt>
      <trkpt lat="40.1376850" lon="-4.6884500">
        <ele>778.7</ele>
        <time>2020-10-04T10:25:00Z</time>
      </trkpt>
      <trkpt lat="40.1376340" lon="-4.6884450">
        <ele>778.8</ele>
        <time>2020-10-04T10:25:01Z</time>
      </trkpt>
      <trkpt lat="40.1375780" lon="-4.6884420">
        <ele>778.9</ele>
        <time>2020-10-04T10:25:03Z</time>
      </trkpt>
      <trkpt lat="40.1375150" lon="-4.6884270">
        <ele>779.0</ele>
        <time>2020-10-04T10:25:04Z</time>
      </trkpt>
      <trkpt lat="40.1374510" lon="-4.6884160">
        <ele>779.0</ele>
        <time>2020-10-04T10:25:06Z</time>
      </trkpt>
      <trkpt lat="40.1373850" lon="-4.6884030">
        <ele>779.0</ele>
        <time>2020-10-04T10:25:07Z</time>
      </trkpt>
      <trkpt lat="40.1373470" lon="-4.6883920">
        <ele>779.0</ele>
        <time>2020-10-04T10:25:08Z</time>
      </trkpt>
      <trkpt lat="40.1372830" lon="-4.6883740">
        <ele>778.8</ele>
        <time>2020-10-04T10:25:10Z</time>
      </trkpt>
      <trkpt lat="40.1372450" lon="-4.6883650">
        <ele>778.6</ele>
        <time>2020-10-04T10:25:12Z</time>
      </trkpt>
      <trkpt lat="40.1371730" lon="-4.6883330">
        <ele>778.2</ele>
        <time>2020-10-04T10:25:14Z</time>
      </trkpt>
      <trkpt lat="40.1370970" lon="-4.6882800">
        <ele>777.7</ele>
        <time>2020-10-04T10:25:15Z</time>
      </trkpt>
      <trkpt lat="40.1370490" lon="-4.6882400">
        <ele>777.3</ele>
        <time>2020-10-04T10:25:16Z</time>
      </trkpt>
      <trkpt lat="40.1369720" lon="-4.6881650">
        <ele>776.7</ele>
        <time>2020-10-04T10:25:18Z</time>
      </trkpt>
      <trkpt lat="40.1369470" lon="-4.6881270">
        <ele>776.4</ele>
        <time>2020-10-04T10:25:19Z</time>
      </trkpt>
      <trkpt lat="40.1369050" lon="-4.6880670">
        <ele>776.0</ele>
        <time>2020-10-04T10:25:21Z</time>
      </trkpt>
      <trkpt lat="40.1368950" lon="-4.6880270">
        <ele>776.3</ele>
        <time>2020-10-04T10:25:22Z</time>
      </trkpt>
      <trkpt lat="40.1368890" lon="-4.6880020">
        <ele>776.5</ele>
        <time>2020-10-04T10:25:23Z</time>
      </trkpt>
      <trkpt lat="40.1368970" lon="-4.6879550">
        <ele>776.9</ele>
        <time>2020-10-04T10:25:24Z</time>
      </trkpt>
      <trkpt lat="40.1369180" lon="-4.6878760">
        <ele>777.5</ele>
        <time>2020-10-04T10:25:26Z</time>
      </trkpt>
      <trkpt lat="40.1369230" lon="-4.6878000">
        <ele>778.1</ele>
        <time>2020-10-04T10:25:27Z</time>
      </trkpt>
      <trkpt lat="40.1369110" lon="-4.6877260">
        <ele>778.7</ele>
        <time>2020-10-04T10:25:28Z</time>
      </trkpt>
      <trkpt lat="40.1368790" lon="-4.6876560">
        <ele>779.2</ele>
        <time>2020-10-04T10:25:30Z</time>
      </trkpt>
      <trkpt lat="40.1368450" lon="-4.6876230">
        <ele>779.4</ele>
        <time>2020-10-04T10:25:31Z</time>
      </trkpt>
      <trkpt lat="40.1368110" lon="-4.6876100">
        <ele>779.3</ele>
        <time>2020-10-04T10:25:32Z</time>
      </trkpt>
      <trkpt lat="40.1367550" lon="-4.6876150">
        <ele>779.0</ele>
        <time>2020-10-04T10:25:34Z</time>
      </trkpt>
      <trkpt lat="40.1366980" lon="-4.6876110">
        <ele>778.6</ele>
        <time>2020-10-04T10:25:35Z</time>
      </trkpt>
      <trkpt lat="40.1366640" lon="-4.6875930">
        <ele>778.4</ele>
        <time>2020-10-04T10:25:36Z</time>
      </trkpt>
      <trkpt lat="40.1366300" lon="-4.6875440">
        <ele>778.1</ele>
        <time>2020-10-04T10:25:38Z</time>
      </trkpt>
      <trkpt lat="40.1366060" lon="-4.6874840">
        <ele>777.7</ele>
        <time>2020-10-04T10:25:39Z</time>
      </trkpt>
      <trkpt lat="40.1365930" lon="-4.6874430">
        <ele>777.5</ele>
        <time>2020-10-04T10:25:40Z</time>
      </trkpt>
      <trkpt lat="40.1365750" lon="-4.6873930">
        <ele>777.1</ele>
        <time>2020-10-04T10:25:42Z</time>
      </trkpt>
      <trkpt lat="40.1365560" lon="-4.6873320">
        <ele>776.6</ele>
        <time>2020-10-04T10:25:43Z</time>
      </trkpt>
      <trkpt lat="40.1365460" lon="-4.6873040">
        <ele>776.4</ele>
        <time>2020-10-04T10:25:44Z</time>
      </trkpt>
      <trkpt lat="40.1365280" lon="-4.6872470">
        <ele>775.9</ele>
        <time>2020-10-04T10:25:46Z</time>
      </trkpt>
      <trkpt lat="40.1365160" lon="-4.6872080">
        <ele>775.6</ele>
        <time>2020-10-04T10:25:47Z</time>
      </trkpt>
      <trkpt lat="40.1365010" lon="-4.6871350">
        <ele>774.9</ele>
        <time>2020-10-04T10:25:48Z</time>
      </trkpt>
      <trkpt lat="40.1364800" lon="-4.6870690">
        <ele>774.2</ele>
        <time>2020-10-04T10:25:50Z</time>
      </trkpt>
      <trkpt lat="40.1364660" lon="-4.6870090">
        <ele>774.2</ele>
        <time>2020-10-04T10:25:51Z</time>
      </trkpt>
      <trkpt lat="40.1364620" lon="-4.6869290">
        <ele>774.3</ele>
        <time>2020-10-04T10:25:52Z</time>
      </trkpt>
      <trkpt lat="40.1364710" lon="-4.6868590">
        <ele>774.6</ele>
        <time>2020-10-04T10:25:54Z</time>
      </trkpt>
      <trkpt lat="40.1364810" lon="-4.6867980">
        <ele>775.3</ele>
        <time>2020-10-04T10:25:55Z</time>
      </trkpt>
      <trkpt lat="40.1364910" lon="-4.6867100">
        <ele>776.2</ele>
        <time>2020-10-04T10:25:56Z</time>
      </trkpt>
      <trkpt lat="40.1365000" lon="-4.6866400">
        <ele>776.9</ele>
        <time>2020-10-04T10:25:57Z</time>
      </trkpt>
      <trkpt lat="40.1365030" lon="-4.6865580">
        <ele>777.7</ele>
        <time>2020-10-04T10:25:59Z</time>
      </trkpt>
      <trkpt lat="40.1365060" lon="-4.6864910">
        <ele>778.4</ele>
        <time>2020-10-04T10:26:00Z</time>
      </trkpt>
      <trkpt lat="40.1364950" lon="-4.6864250">
        <ele>778.9</ele>
        <time>2020-10-04T10:26:02Z</time>
      </trkpt>
      <trkpt lat="40.1364850" lon="-4.6863710">
        <ele>779.3</ele>
        <time>2020-10-04T10:26:03Z</time>
      </trkpt>
      <trkpt lat="40.1364900" lon="-4.6863290">
        <ele>779.7</ele>
        <time>2020-10-04T10:26:04Z</time>
      </trkpt>
      <trkpt lat="40.1364960" lon="-4.6862850">
        <ele>780.1</ele>
        <time>2020-10-04T10:26:05Z</time>
      </trkpt>
      <trkpt lat="40.1365130" lon="-4.6862260">
        <ele>780.7</ele>
        <time>2020-10-04T10:26:07Z</time>
      </trkpt>
      <trkpt lat="40.1365220" lon="-4.6862020">
        <ele>780.9</ele>
        <time>2020-10-04T10:26:08Z</time>
      </trkpt>
      <trkpt lat="40.1365220" lon="-4.6861590">
        <ele>781.4</ele>
        <time>2020-10-04T10:26:10Z</time>
      </trkpt>
      <trkpt lat="40.1365090" lon="-4.6861520">
        <ele>781.6</ele>
        <time>2020-10-04T10:26:11Z</time>
      </trkpt>
      <trkpt lat="40.1365050" lon="-4.6861460">
        <ele>781.7</ele>
        <time>2020-10-04T10:26:12Z</time>
      </trkpt>
      <trkpt lat="40.1365000" lon="-4.6861390">
        <ele>781.8</ele>
        <time>2020-10-04T10:26:13Z</time>
      </trkpt>
      <trkpt lat="40.1364960" lon="-4.6861330">
        <ele>781.9</ele>
        <time>2020-10-04T10:26:15Z</time>
      </trkpt>
      <trkpt lat="40.1364910" lon="-4.6861270">
        <ele>782.0</ele>
        <time>2020-10-04T10:26:16Z</time>
      </trkpt>
      <trkpt lat="40.1364710" lon="-4.6860650">
        <ele>782.8</ele>
        <time>2020-10-04T10:26:18Z</time>
      </trkpt>
      <trkpt lat="40.1364550" lon="-4.6860130">
        <ele>783.4</ele>
        <time>2020-10-04T10:26:19Z</time>
      </trkpt>
      <trkpt lat="40.1364480" lon="-4.6859930">
        <ele>783.7</ele>
        <time>2020-10-04T10:26:20Z</time>
      </trkpt>
      <trkpt lat="40.1364310" lon="-4.6859460">
        <ele>784.3</ele>
        <time>2020-10-04T10:26:21Z</time>
      </trkpt>
      <trkpt lat="40.1364270" lon="-4.6859280">
        <ele>784.5</ele>
        <time>2020-10-04T10:26:22Z</time>
      </trkpt>
      <trkpt lat="40.1364380" lon="-4.6859020">
        <ele>784.9</ele>
        <time>2020-10-04T10:26:23Z</time>
      </trkpt>
      <trkpt lat="40.1364730" lon="-4.6858790">
        <ele>785.4</ele>
        <time>2020-10-04T10:26:25Z</time>
      </trkpt>
      <trkpt lat="40.1365080" lon="-4.6858560">
        <ele>786.0</ele>
        <time>2020-10-04T10:26:26Z</time>
      </trkpt>
      <trkpt lat="40.1365380" lon="-4.6858350">
        <ele>786.4</ele>
        <time>2020-10-04T10:26:27Z</time>
      </trkpt>
      <trkpt lat="40.1365800" lon="-4.6858050">
        <ele>786.9</ele>
        <time>2020-10-04T10:26:29Z</time>
      </trkpt>
      <trkpt lat="40.1366090" lon="-4.6857750">
        <ele>787.3</ele>
        <time>2020-10-04T10:26:30Z</time>
      </trkpt>
      <trkpt lat="40.1366250" lon="-4.6857300">
        <ele>787.5</ele>
        <time>2020-10-04T10:26:31Z</time>
      </trkpt>
      <trkpt lat="40.1366280" lon="-4.6856840">
        <ele>787.8</ele>
        <time>2020-10-04T10:26:33Z</time>
      </trkpt>
      <trkpt lat="40.1366310" lon="-4.6856320">
        <ele>788.0</ele>
        <time>2020-10-04T10:26:34Z</time>
      </trkpt>
      <trkpt lat="40.1366350" lon="-4.6855960">
        <ele>788.2</ele>
        <time>2020-10-04T10:26:35Z</time>
      </trkpt>
      <trkpt lat="40.1366360" lon="-4.6855510">
        <ele>788.3</ele>
        <time>2020-10-04T10:26:36Z</time>
      </trkpt>
      <trkpt lat="40.1366390" lon="-4.6855130">
        <ele>788.4</ele>
        <time>2020-10-04T10:26:37Z</time>
      </trkpt>
      <trkpt lat="40.1366530" lon="-4.6854640">
        <ele>788.5</ele>
        <time>2020-10-04T10:26:39Z</time>
      </trkpt>
      <trkpt lat="40.1366670" lon="-4.6854190">
        <ele>788.6</ele>
        <time>2020-10-04T10:26:40Z</time>
      </trkpt>
      <trkpt lat="40.1366870" lon="-4.6853550">
        <ele>788.6</ele>
        <time>2020-10-04T10:26:42Z</time>
      </trkpt>
      <trkpt lat="40.1367010" lon="-4.6853020">
        <ele>788.5</ele>
        <time>2020-10-04T10:26:43Z</time>
      </trkpt>
      <trkpt lat="40.1367070" lon="-4.6852800">
        <ele>788.5</ele>
        <time>2020-10-04T10:26:44Z</time>
      </trkpt>
      <trkpt lat="40.1367200" lon="-4.6852450">
        <ele>788.4</ele>
        <time>2020-10-04T10:26:46Z</time>
      </trkpt>
      <trkpt lat="40.1367320" lon="-4.6852080">
        <ele>788.3</ele>
        <time>2020-10-04T10:26:47Z</time>
      </trkpt>
      <trkpt lat="40.1367410" lon="-4.6851670">
        <ele>788.2</ele>
        <time>2020-10-04T10:26:49Z</time>
      </trkpt>
      <trkpt lat="40.1367500" lon="-4.6851140">
        <ele>788.1</ele>
        <time>2020-10-04T10:26:51Z</time>
      </trkpt>
      <trkpt lat="40.1367580" lon="-4.6850440">
        <ele>787.9</ele>
        <time>2020-10-04T10:26:52Z</time>
      </trkpt>
      <trkpt lat="40.1367630" lon="-4.6849940">
        <ele>787.7</ele>
        <time>2020-10-04T10:26:54Z</time>
      </trkpt>
      <trkpt lat="40.1367670" lon="-4.6849330">
        <ele>787.4</ele>
        <time>2020-10-04T10:26:55Z</time>
      </trkpt>
      <trkpt lat="40.1367690" lon="-4.6848960">
        <ele>787.1</ele>
        <time>2020-10-04T10:26:56Z</time>
      </trkpt>
      <trkpt lat="40.1367720" lon="-4.6848480">
        <ele>786.8</ele>
        <time>2020-10-04T10:26:58Z</time>
      </trkpt>
      <trkpt lat="40.1367790" lon="-4.6847750">
        <ele>786.2</ele>
        <time>2020-10-04T10:26:59Z</time>
      </trkpt>
      <trkpt lat="40.1367850" lon="-4.6847210">
        <ele>785.7</ele>
        <time>2020-10-04T10:27:01Z</time>
      </trkpt>
      <trkpt lat="40.1367930" lon="-4.6846570">
        <ele>785.1</ele>
        <time>2020-10-04T10:27:02Z</time>
      </trkpt>
      <trkpt lat="40.1368100" lon="-4.6845610">
        <ele>784.1</ele>
        <time>2020-10-04T10:27:04Z</time>
      </trkpt>
      <trkpt lat="40.1368290" lon="-4.6844820">
        <ele>783.3</ele>
        <time>2020-10-04T10:27:05Z</time>
      </trkpt>
      <trkpt lat="40.1368480" lon="-4.6844000">
        <ele>782.5</ele>
        <time>2020-10-04T10:27:06Z</time>
      </trkpt>
      <trkpt lat="40.1368800" lon="-4.6843090">
        <ele>781.7</ele>
        <time>2020-10-04T10:27:07Z</time>
      </trkpt>
      <trkpt lat="40.1369590" lon="-4.6841290">
        <ele>780.3</ele>
        <time>2020-10-04T10:27:09Z</time>
      </trkpt>
      <trkpt lat="40.1370080" lon="-4.6840330">
        <ele>779.6</ele>
        <time>2020-10-04T10:27:10Z</time>
      </trkpt>
      <trkpt lat="40.1371090" lon="-4.6838500">
        <ele>778.4</ele>
        <time>2020-10-04T10:27:12Z</time>
      </trkpt>
      <trkpt lat="40.1372150" lon="-4.6836900">
        <ele>777.4</ele>
        <time>2020-10-04T10:27:14Z</time>
      </trkpt>
      <trkpt lat="40.1373280" lon="-4.6835680">
        <ele>776.5</ele>
        <time>2020-10-04T10:27:16Z</time>
      </trkpt>
      <trkpt lat="40.1373890" lon="-4.6835130">
        <ele>776.1</ele>
        <time>2020-10-04T10:27:17Z</time>
      </trkpt>
      <trkpt lat="40.1374520" lon="-4.6834580">
        <ele>775.7</ele>
        <time>2020-10-04T10:27:18Z</time>
      </trkpt>
      <trkpt lat="40.1375890" lon="-4.6833780">
        <ele>775.2</ele>
        <time>2020-10-04T10:27:20Z</time>
      </trkpt>
      <trkpt lat="40.1377310" lon="-4.6833380">
        <ele>774.9</ele>
        <time>2020-10-04T10:27:22Z</time>
      </trkpt>
      <trkpt lat="40.1378650" lon="-4.6833170">
        <ele>775.1</ele>
        <time>2020-10-04T10:27:24Z</time>
      </trkpt>
      <trkpt lat="40.1379610" lon="-4.6832530">
        <ele>775.3</ele>
        <time>2020-10-04T10:27:26Z</time>
      </trkpt>
      <trkpt lat="40.1379990" lon="-4.6832110">
        <ele>775.4</ele>
        <time>2020-10-04T10:27:27Z</time>
      </trkpt>
      <trkpt lat="40.1380360" lon="-4.6831680">
        <ele>775.5</ele>
        <time>2020-10-04T10:27:28Z</time>
      </trkpt>
      <trkpt lat="40.1380710" lon="-4.6831310">
        <ele>775.6</ele>
        <time>2020-10-04T10:27:29Z</time>
      </trkpt>
      <trkpt lat="40.1381060" lon="-4.6830980">
        <ele>775.6</ele>
        <time>2020-10-04T10:27:30Z</time>
      </trkpt>
      <trkpt lat="40.1381380" lon="-4.6830650">
        <ele>775.6</ele>
        <time>2020-10-04T10:27:31Z</time>
      </trkpt>
      <trkpt lat="40.1381790" lon="-4.6829950">
        <ele>775.6</ele>
        <time>2020-10-04T10:27:33Z</time>
      </trkpt>
      <trkpt lat="40.1381990" lon="-4.6829460">
        <ele>775.5</ele>
        <time>2020-10-04T10:27:34Z</time>
      </trkpt>
      <trkpt lat="40.1382080" lon="-4.6828510">
        <ele>775.3</ele>
        <time>2020-10-04T10:27:36Z</time>
      </trkpt>
      <trkpt lat="40.1382050" lon="-4.6827210">
        <ele>774.8</ele>
        <time>2020-10-04T10:27:38Z</time>
      </trkpt>
      <trkpt lat="40.1381930" lon="-4.6826770">
        <ele>774.6</ele>
        <time>2020-10-04T10:27:39Z</time>
      </trkpt>
      <trkpt lat="40.1382020" lon="-4.6826070">
        <ele>774.3</ele>
        <time>2020-10-04T10:27:40Z</time>
      </trkpt>
      <trkpt lat="40.1382510" lon="-4.6824590">
        <ele>773.7</ele>
        <time>2020-10-04T10:27:42Z</time>
      </trkpt>
      <trkpt lat="40.1382710" lon="-4.6823880">
        <ele>773.4</ele>
        <time>2020-10-04T10:27:43Z</time>
      </trkpt>
      <trkpt lat="40.1382890" lon="-4.6823150">
        <ele>773.2</ele>
        <time>2020-10-04T10:27:44Z</time>
      </trkpt>
      <trkpt lat="40.1383090" lon="-4.6821530">
        <ele>772.7</ele>
        <time>2020-10-04T10:27:46Z</time>
      </trkpt>
      <trkpt lat="40.1383080" lon="-4.6819850">
        <ele>772.3</ele>
        <time>2020-10-04T10:27:48Z</time>
      </trkpt>
      <trkpt lat="40.1383020" lon="-4.6818250">
        <ele>771.8</ele>
        <time>2020-10-04T10:27:50Z</time>
      </trkpt>
      <trkpt lat="40.1383030" lon="-4.6816690">
        <ele>771.3</ele>
        <time>2020-10-04T10:27:52Z</time>
      </trkpt>
      <trkpt lat="40.1383010" lon="-4.6815850">
        <ele>770.9</ele>
        <time>2020-10-04T10:27:53Z</time>
      </trkpt>
      <trkpt lat="40.1382890" lon="-4.6814110">
        <ele>770.2</ele>
        <time>2020-10-04T10:27:55Z</time>
      </trkpt>
      <trkpt lat="40.1382700" lon="-4.6813210">
        <ele>769.9</ele>
        <time>2020-10-04T10:27:56Z</time>
      </trkpt>
      <trkpt lat="40.1382470" lon="-4.6812310">
        <ele>769.6</ele>
        <time>2020-10-04T10:27:57Z</time>
      </trkpt>
      <trkpt lat="40.1381900" lon="-4.6810500">
        <ele>769.0</ele>
        <time>2020-10-04T10:27:59Z</time>
      </trkpt>
      <trkpt lat="40.1381350" lon="-4.6808700">
        <ele>768.5</ele>
        <time>2020-10-04T10:28:01Z</time>
      </trkpt>
      <trkpt lat="40.1381140" lon="-4.6807760">
        <ele>768.2</ele>
        <time>2020-10-04T10:28:02Z</time>
      </trkpt>
      <trkpt lat="40.1380860" lon="-4.6805900">
        <ele>767.6</ele>
        <time>2020-10-04T10:28:04Z</time>
      </trkpt>
      <trkpt lat="40.1380520" lon="-4.6804180">
        <ele>767.1</ele>
        <time>2020-10-04T10:28:06Z</time>
      </trkpt>
      <trkpt lat="40.1379840" lon="-4.6803110">
        <ele>766.8</ele>
        <time>2020-10-04T10:28:08Z</time>
      </trkpt>
      <trkpt lat="40.1379080" lon="-4.6802430">
        <ele>766.4</ele>
        <time>2020-10-04T10:28:10Z</time>
      </trkpt>
      <trkpt lat="40.1378710" lon="-4.6802060">
        <ele>766.2</ele>
        <time>2020-10-04T10:28:11Z</time>
      </trkpt>
      <trkpt lat="40.1377930" lon="-4.6801180">
        <ele>765.8</ele>
        <time>2020-10-04T10:28:13Z</time>
      </trkpt>
      <trkpt lat="40.1377600" lon="-4.6800600">
        <ele>765.6</ele>
        <time>2020-10-04T10:28:14Z</time>
      </trkpt>
      <trkpt lat="40.1377410" lon="-4.6799220">
        <ele>765.1</ele>
        <time>2020-10-04T10:28:16Z</time>
      </trkpt>
      <trkpt lat="40.1377480" lon="-4.6797700">
        <ele>764.4</ele>
        <time>2020-10-04T10:28:18Z</time>
      </trkpt>
      <trkpt lat="40.1377460" lon="-4.6796820">
        <ele>764.0</ele>
        <time>2020-10-04T10:28:19Z</time>
      </trkpt>
      <trkpt lat="40.1377560" lon="-4.6795020">
        <ele>763.5</ele>
        <time>2020-10-04T10:28:21Z</time>
      </trkpt>
      <trkpt lat="40.1377960" lon="-4.6793080">
        <ele>763.5</ele>
        <time>2020-10-04T10:28:23Z</time>
      </trkpt>
      <trkpt lat="40.1378200" lon="-4.6792170">
        <ele>763.5</ele>
        <time>2020-10-04T10:28:24Z</time>
      </trkpt>
      <trkpt lat="40.1378390" lon="-4.6791270">
        <ele>763.6</ele>
        <time>2020-10-04T10:28:25Z</time>
      </trkpt>
      <trkpt lat="40.1378320" lon="-4.6789620">
        <ele>764.1</ele>
        <time>2020-10-04T10:28:27Z</time>
      </trkpt>
      <trkpt lat="40.1377890" lon="-4.6788270">
        <ele>764.4</ele>
        <time>2020-10-04T10:28:29Z</time>
      </trkpt>
      <trkpt lat="40.1377710" lon="-4.6787740">
        <ele>764.6</ele>
        <time>2020-10-04T10:28:30Z</time>
      </trkpt>
      <trkpt lat="40.1377550" lon="-4.6787290">
        <ele>764.7</ele>
        <time>2020-10-04T10:28:31Z</time>
      </trkpt>
      <trkpt lat="40.1377410" lon="-4.6786960">
        <ele>764.7</ele>
        <time>2020-10-04T10:28:32Z</time>
      </trkpt>
      <trkpt lat="40.1377260" lon="-4.6786520">
        <ele>764.8</ele>
        <time>2020-10-04T10:28:33Z</time>
      </trkpt>
      <trkpt lat="40.1377050" lon="-4.6785750">
        <ele>765.0</ele>
        <time>2020-10-04T10:28:35Z</time>
      </trkpt>
      <trkpt lat="40.1376830" lon="-4.6784890">
        <ele>765.1</ele>
        <time>2020-10-04T10:28:37Z</time>
      </trkpt>
      <trkpt lat="40.1376680" lon="-4.6784390">
        <ele>765.1</ele>
        <time>2020-10-04T10:28:38Z</time>
      </trkpt>
      <trkpt lat="40.1376580" lon="-4.6784180">
        <ele>765.1</ele>
        <time>2020-10-04T10:28:39Z</time>
      </trkpt>
      <trkpt lat="40.1376800" lon="-4.6783480">
        <ele>765.1</ele>
        <time>2020-10-04T10:28:41Z</time>
      </trkpt>
      <trkpt lat="40.1376900" lon="-4.6782970">
        <ele>765.1</ele>
        <time>2020-10-04T10:28:42Z</time>
      </trkpt>
      <trkpt lat="40.1376980" lon="-4.6782280">
        <ele>764.9</ele>
        <time>2020-10-04T10:28:43Z</time>
      </trkpt>
      <trkpt lat="40.1377030" lon="-4.6781520">
        <ele>764.7</ele>
        <time>2020-10-04T10:28:44Z</time>
      </trkpt>
      <trkpt lat="40.1377130" lon="-4.6781000">
        <ele>764.5</ele>
        <time>2020-10-04T10:28:45Z</time>
      </trkpt>
      <trkpt lat="40.1377250" lon="-4.6780450">
        <ele>764.4</ele>
        <time>2020-10-04T10:28:46Z</time>
      </trkpt>
      <trkpt lat="40.1377450" lon="-4.6779780">
        <ele>764.0</ele>
        <time>2020-10-04T10:28:48Z</time>
      </trkpt>
      <trkpt lat="40.1377790" lon="-4.6778900">
        <ele>763.5</ele>
        <time>2020-10-04T10:28:49Z</time>
      </trkpt>
      <trkpt lat="40.1378140" lon="-4.6778290">
        <ele>763.2</ele>
        <time>2020-10-04T10:28:50Z</time>
      </trkpt>
      <trkpt lat="40.1379130" lon="-4.6777500">
        <ele>762.8</ele>
        <time>2020-10-04T10:28:52Z</time>
      </trkpt>
      <trkpt lat="40.1379660" lon="-4.6777190">
        <ele>762.6</ele>
        <time>2020-10-04T10:28:53Z</time>
      </trkpt>
      <trkpt lat="40.1380720" lon="-4.6776620">
        <ele>762.2</ele>
        <time>2020-10-04T10:28:55Z</time>
      </trkpt>
      <trkpt lat="40.1381240" lon="-4.6776400">
        <ele>761.9</ele>
        <time>2020-10-04T10:28:56Z</time>
      </trkpt>
      <trkpt lat="40.1382260" lon="-4.6776150">
        <ele>761.3</ele>
        <time>2020-10-04T10:28:58Z</time>
      </trkpt>
      <trkpt lat="40.1382780" lon="-4.6776050">
        <ele>760.9</ele>
        <time>2020-10-04T10:28:59Z</time>
      </trkpt>
      <trkpt lat="40.1383310" lon="-4.6776030">
        <ele>760.5</ele>
        <time>2020-10-04T10:29:00Z</time>
      </trkpt>
      <trkpt lat="40.1383850" lon="-4.6776020">
        <ele>760.1</ele>
        <time>2020-10-04T10:29:01Z</time>
      </trkpt>
      <trkpt lat="40.1384390" lon="-4.6776000">
        <ele>759.6</ele>
        <time>2020-10-04T10:29:02Z</time>
      </trkpt>
      <trkpt lat="40.1385490" lon="-4.6775910">
        <ele>758.4</ele>
        <time>2020-10-04T10:29:04Z</time>
      </trkpt>
      <trkpt lat="40.1386050" lon="-4.6775790">
        <ele>757.8</ele>
        <time>2020-10-04T10:29:05Z</time>
      </trkpt>
      <trkpt lat="40.1386630" lon="-4.6775570">
        <ele>757.1</ele>
        <time>2020-10-04T10:29:06Z</time>
      </trkpt>
      <trkpt lat="40.1387240" lon="-4.6775220">
        <ele>756.3</ele>
        <time>2020-10-04T10:29:07Z</time>
      </trkpt>
      <trkpt lat="40.1388430" lon="-4.6774650">
        <ele>754.8</ele>
        <time>2020-10-04T10:29:09Z</time>
      </trkpt>
      <trkpt lat="40.1389670" lon="-4.6774570">
        <ele>753.4</ele>
        <time>2020-10-04T10:29:11Z</time>
      </trkpt>
      <trkpt lat="40.1391010" lon="-4.6775090">
        <ele>751.9</ele>
        <time>2020-10-04T10:29:13Z</time>
      </trkpt>
      <trkpt lat="40.1392530" lon="-4.6775830">
        <ele>750.3</ele>
        <time>2020-10-04T10:29:15Z</time>
      </trkpt>
      <trkpt lat="40.1393330" lon="-4.6776210">
        <ele>749.4</ele>
        <time>2020-10-04T10:29:16Z</time>
      </trkpt>
      <trkpt lat="40.1394990" lon="-4.6776780">
        <ele>748.0</ele>
        <time>2020-10-04T10:29:18Z</time>
      </trkpt>
      <trkpt lat="40.1395840" lon="-4.6777070">
        <ele>747.4</ele>
        <time>2020-10-04T10:29:19Z</time>
      </trkpt>
      <trkpt lat="40.1396610" lon="-4.6777460">
        <ele>746.8</ele>
        <time>2020-10-04T10:29:20Z</time>
      </trkpt>
      <trkpt lat="40.1398110" lon="-4.6778100">
        <ele>745.6</ele>
        <time>2020-10-04T10:29:22Z</time>
      </trkpt>
      <trkpt lat="40.1399640" lon="-4.6778570">
        <ele>744.2</ele>
        <time>2020-10-04T10:29:24Z</time>
      </trkpt>
      <trkpt lat="40.1401240" lon="-4.6778960">
        <ele>742.4</ele>
        <time>2020-10-04T10:29:26Z</time>
      </trkpt>
      <trkpt lat="40.1401960" lon="-4.6779330">
        <ele>741.4</ele>
        <time>2020-10-04T10:29:27Z</time>
      </trkpt>
      <trkpt lat="40.1402660" lon="-4.6779860">
        <ele>740.3</ele>
        <time>2020-10-04T10:29:28Z</time>
      </trkpt>
      <trkpt lat="40.1403400" lon="-4.6780350">
        <ele>739.1</ele>
        <time>2020-10-04T10:29:29Z</time>
      </trkpt>
      <trkpt lat="40.1404210" lon="-4.6780740">
        <ele>737.9</ele>
        <time>2020-10-04T10:29:30Z</time>
      </trkpt>
      <trkpt lat="40.1405760" lon="-4.6781450">
        <ele>735.6</ele>
        <time>2020-10-04T10:29:32Z</time>
      </trkpt>
      <trkpt lat="40.1406440" lon="-4.6781840">
        <ele>734.5</ele>
        <time>2020-10-04T10:29:33Z</time>
      </trkpt>
      <trkpt lat="40.1407570" lon="-4.6782190">
        <ele>732.7</ele>
        <time>2020-10-04T10:29:35Z</time>
      </trkpt>
      <trkpt lat="40.1408060" lon="-4.6781500">
        <ele>731.7</ele>
        <time>2020-10-04T10:29:37Z</time>
      </trkpt>
      <trkpt lat="40.1407920" lon="-4.6781050">
        <ele>731.1</ele>
        <time>2020-10-04T10:29:38Z</time>
      </trkpt>
      <trkpt lat="40.1407330" lon="-4.6781040">
        <ele>730.3</ele>
        <time>2020-10-04T10:29:40Z</time>
      </trkpt>
      <trkpt lat="40.1406810" lon="-4.6780960">
        <ele>729.6</ele>
        <time>2020-10-04T10:29:42Z</time>
      </trkpt>
      <trkpt lat="40.1406470" lon="-4.6780730">
        <ele>729.1</ele>
        <time>2020-10-04T10:29:44Z</time>
      </trkpt>
      <trkpt lat="40.1406180" lon="-4.6780530">
        <ele>728.6</ele>
        <time>2020-10-04T10:29:45Z</time>
      </trkpt>
      <trkpt lat="40.1405460" lon="-4.6779750">
        <ele>727.4</ele>
        <time>2020-10-04T10:29:47Z</time>
      </trkpt>
      <trkpt lat="40.1405000" lon="-4.6779000">
        <ele>726.4</ele>
        <time>2020-10-04T10:29:48Z</time>
      </trkpt>
      <trkpt lat="40.1404520" lon="-4.6778170">
        <ele>725.4</ele>
        <time>2020-10-04T10:29:49Z</time>
      </trkpt>
      <trkpt lat="40.1403600" lon="-4.6776390">
        <ele>723.7</ele>
        <time>2020-10-04T10:29:51Z</time>
      </trkpt>
      <trkpt lat="40.1403080" lon="-4.6775550">
        <ele>722.9</ele>
        <time>2020-10-04T10:29:52Z</time>
      </trkpt>
      <trkpt lat="40.1402490" lon="-4.6774800">
        <ele>722.1</ele>
        <time>2020-10-04T10:29:53Z</time>
      </trkpt>
      <trkpt lat="40.1401270" lon="-4.6773460">
        <ele>720.3</ele>
        <time>2020-10-04T10:29:55Z</time>
      </trkpt>
      <trkpt lat="40.1400690" lon="-4.6772750">
        <ele>719.3</ele>
        <time>2020-10-04T10:29:56Z</time>
      </trkpt>
      <trkpt lat="40.1399940" lon="-4.6771050">
        <ele>717.5</ele>
        <time>2020-10-04T10:29:58Z</time>
      </trkpt>
      <trkpt lat="40.1399840" lon="-4.6768910">
        <ele>715.7</ele>
        <time>2020-10-04T10:30:00Z</time>
      </trkpt>
      <trkpt lat="40.1399550" lon="-4.6767820">
        <ele>714.9</ele>
        <time>2020-10-04T10:30:01Z</time>
      </trkpt>
      <trkpt lat="40.1399070" lon="-4.6766890">
        <ele>714.0</ele>
        <time>2020-10-04T10:30:02Z</time>
      </trkpt>
      <trkpt lat="40.1397910" lon="-4.6765430">
        <ele>712.1</ele>
        <time>2020-10-04T10:30:04Z</time>
      </trkpt>
      <trkpt lat="40.1397470" lon="-4.6764740">
        <ele>711.6</ele>
        <time>2020-10-04T10:30:05Z</time>
      </trkpt>
      <trkpt lat="40.1396550" lon="-4.6763370">
        <ele>710.8</ele>
        <time>2020-10-04T10:30:07Z</time>
      </trkpt>
      <trkpt lat="40.1395260" lon="-4.6762300">
        <ele>709.9</ele>
        <time>2020-10-04T10:30:09Z</time>
      </trkpt>
      <trkpt lat="40.1393760" lon="-4.6761560">
        <ele>709.3</ele>
        <time>2020-10-04T10:30:11Z</time>
      </trkpt>
      <trkpt lat="40.1392200" lon="-4.6761530">
        <ele>708.8</ele>
        <time>2020-10-04T10:30:13Z</time>
      </trkpt>
      <trkpt lat="40.1391450" lon="-4.6761570">
        <ele>708.5</ele>
        <time>2020-10-04T10:30:14Z</time>
      </trkpt>
      <trkpt lat="40.1389990" lon="-4.6762050">
        <ele>707.7</ele>
        <time>2020-10-04T10:30:16Z</time>
      </trkpt>
      <trkpt lat="40.1389190" lon="-4.6762410">
        <ele>707.6</ele>
        <time>2020-10-04T10:30:17Z</time>
      </trkpt>
      <trkpt lat="40.1388340" lon="-4.6762710">
        <ele>707.5</ele>
        <time>2020-10-04T10:30:18Z</time>
      </trkpt>
      <trkpt lat="40.1386620" lon="-4.6763150">
        <ele>707.9</ele>
        <time>2020-10-04T10:30:20Z</time>
      </trkpt>
      <trkpt lat="40.1385290" lon="-4.6763110">
        <ele>708.3</ele>
        <time>2020-10-04T10:30:22Z</time>
      </trkpt>
      <trkpt lat="40.1384490" lon="-4.6762320">
        <ele>708.5</ele>
        <time>2020-10-04T10:30:24Z</time>
      </trkpt>
      <trkpt lat="40.1384040" lon="-4.6761980">
        <ele>708.6</ele>
        <time>2020-10-04T10:30:25Z</time>
      </trkpt>
      <trkpt lat="40.1383070" lon="-4.6761390">
        <ele>708.8</ele>
        <time>2020-10-04T10:30:27Z</time>
      </trkpt>
      <trkpt lat="40.1382100" lon="-4.6761020">
        <ele>709.2</ele>
        <time>2020-10-04T10:30:29Z</time>
      </trkpt>
      <trkpt lat="40.1381230" lon="-4.6760580">
        <ele>709.7</ele>
        <time>2020-10-04T10:30:31Z</time>
      </trkpt>
      <trkpt lat="40.1380550" lon="-4.6759820">
        <ele>710.3</ele>
        <time>2020-10-04T10:30:33Z</time>
      </trkpt>
      <trkpt lat="40.1380120" lon="-4.6759010">
        <ele>710.9</ele>
        <time>2020-10-04T10:30:35Z</time>
      </trkpt>
      <trkpt lat="40.1379620" lon="-4.6758150">
        <ele>711.6</ele>
        <time>2020-10-04T10:30:37Z</time>
      </trkpt>
      <trkpt lat="40.1379350" lon="-4.6757670">
        <ele>712.0</ele>
        <time>2020-10-04T10:30:38Z</time>
      </trkpt>
      <trkpt lat="40.1378920" lon="-4.6756770">
        <ele>712.5</ele>
        <time>2020-10-04T10:30:40Z</time>
      </trkpt>
      <trkpt lat="40.1378720" lon="-4.6756420">
        <ele>712.7</ele>
        <time>2020-10-04T10:30:41Z</time>
      </trkpt>
      <trkpt lat="40.1378610" lon="-4.6756560">
        <ele>712.8</ele>
        <time>2020-10-04T10:30:42Z</time>
      </trkpt>
      <trkpt lat="40.1378350" lon="-4.6755950">
        <ele>713.0</ele>
        <time>2020-10-04T10:30:44Z</time>
      </trkpt>
      <trkpt lat="40.1377950" lon="-4.6755040">
        <ele>713.1</ele>
        <time>2020-10-04T10:30:46Z</time>
      </trkpt>
      <trkpt lat="40.1377750" lon="-4.6754570">
        <ele>713.0</ele>
        <time>2020-10-04T10:30:47Z</time>
      </trkpt>
      <trkpt lat="40.1377470" lon="-4.6753910">
        <ele>712.8</ele>
        <time>2020-10-04T10:30:48Z</time>
      </trkpt>
      <trkpt lat="40.1377100" lon="-4.6752610">
        <ele>712.0</ele>
        <time>2020-10-04T10:30:50Z</time>
      </trkpt>
      <trkpt lat="40.1376740" lon="-4.6750790">
        <ele>710.5</ele>
        <time>2020-10-04T10:30:52Z</time>
      </trkpt>
      <trkpt lat="40.1376660" lon="-4.6749840">
        <ele>709.6</ele>
        <time>2020-10-04T10:30:53Z</time>
      </trkpt>
      <trkpt lat="40.1376680" lon="-4.6747920">
        <ele>707.6</ele>
        <time>2020-10-04T10:30:55Z</time>
      </trkpt>
      <trkpt lat="40.1376410" lon="-4.6745860">
        <ele>705.2</ele>
        <time>2020-10-04T10:30:57Z</time>
      </trkpt>
      <trkpt lat="40.1376270" lon="-4.6743740">
        <ele>702.8</ele>
        <time>2020-10-04T10:30:59Z</time>
      </trkpt>
      <trkpt lat="40.1376310" lon="-4.6741520">
        <ele>700.6</ele>
        <time>2020-10-04T10:31:01Z</time>
      </trkpt>
      <trkpt lat="40.1376060" lon="-4.6739150">
        <ele>698.4</ele>
        <time>2020-10-04T10:31:03Z</time>
      </trkpt>
      <trkpt lat="40.1375940" lon="-4.6737960">
        <ele>697.2</ele>
        <time>2020-10-04T10:31:04Z</time>
      </trkpt>
      <trkpt lat="40.1375970" lon="-4.6735510">
        <ele>694.5</ele>
        <time>2020-10-04T10:31:06Z</time>
      </trkpt>
      <trkpt lat="40.1376180" lon="-4.6732990">
        <ele>691.8</ele>
        <time>2020-10-04T10:31:08Z</time>
      </trkpt>
      <trkpt lat="40.1376320" lon="-4.6731800">
        <ele>690.7</ele>
        <time>2020-10-04T10:31:09Z</time>
      </trkpt>
      <trkpt lat="40.1376460" lon="-4.6730640">
        <ele>689.4</ele>
        <time>2020-10-04T10:31:10Z</time>
      </trkpt>
      <trkpt lat="40.1376280" lon="-4.6728370">
        <ele>686.6</ele>
        <time>2020-10-04T10:31:12Z</time>
      </trkpt>
      <trkpt lat="40.1376260" lon="-4.6727230">
        <ele>685.2</ele>
        <time>2020-10-04T10:31:13Z</time>
      </trkpt>
      <trkpt lat="40.1376360" lon="-4.6726110">
        <ele>684.0</ele>
        <time>2020-10-04T10:31:14Z</time>
      </trkpt>
      <trkpt lat="40.1376560" lon="-4.6725070">
        <ele>682.7</ele>
        <time>2020-10-04T10:31:15Z</time>
      </trkpt>
      <trkpt lat="40.1376820" lon="-4.6724120">
        <ele>681.4</ele>
        <time>2020-10-04T10:31:16Z</time>
      </trkpt>
      <trkpt lat="40.1377540" lon="-4.6722540">
        <ele>679.2</ele>
        <time>2020-10-04T10:31:18Z</time>
      </trkpt>
      <trkpt lat="40.1377790" lon="-4.6721890">
        <ele>678.5</ele>
        <time>2020-10-04T10:31:19Z</time>
      </trkpt>
      <trkpt lat="40.1377800" lon="-4.6721350">
        <ele>677.3</ele>
        <time>2020-10-04T10:31:20Z</time>
      </trkpt>
      <trkpt lat="40.1376960" lon="-4.6720800">
        <ele>676.3</ele>
        <time>2020-10-04T10:31:22Z</time>
      </trkpt>
      <trkpt lat="40.1376350" lon="-4.6720510">
        <ele>675.6</ele>
        <time>2020-10-04T10:31:23Z</time>
      </trkpt>
      <trkpt lat="40.1375000" lon="-4.6719770">
        <ele>674.3</ele>
        <time>2020-10-04T10:31:25Z</time>
      </trkpt>
      <trkpt lat="40.1373670" lon="-4.6718580">
        <ele>672.9</ele>
        <time>2020-10-04T10:31:27Z</time>
      </trkpt>
      <trkpt lat="40.1372460" lon="-4.6717160">
        <ele>670.8</ele>
        <time>2020-10-04T10:31:29Z</time>
      </trkpt>
      <trkpt lat="40.1371310" lon="-4.6715640">
        <ele>668.0</ele>
        <time>2020-10-04T10:31:31Z</time>
      </trkpt>
      <trkpt lat="40.1369810" lon="-4.6714440">
        <ele>665.5</ele>
        <time>2020-10-04T10:31:33Z</time>
      </trkpt>
      <trkpt lat="40.1368150" lon="-4.6713540">
        <ele>663.1</ele>
        <time>2020-10-04T10:31:35Z</time>
      </trkpt>
      <trkpt lat="40.1366440" lon="-4.6712600">
        <ele>660.2</ele>
        <time>2020-10-04T10:31:37Z</time>
      </trkpt>
      <trkpt lat="40.1364570" lon="-4.6711760">
        <ele>657.2</ele>
        <time>2020-10-04T10:31:39Z</time>
      </trkpt>
      <trkpt lat="40.1363580" lon="-4.6711470">
        <ele>655.7</ele>
        <time>2020-10-04T10:31:40Z</time>
      </trkpt>
      <trkpt lat="40.1361620" lon="-4.6710800">
        <ele>653.0</ele>
        <time>2020-10-04T10:31:42Z</time>
      </trkpt>
      <trkpt lat="40.1360600" lon="-4.6710420">
        <ele>651.9</ele>
        <time>2020-10-04T10:31:43Z</time>
      </trkpt>
      <trkpt lat="40.1358490" lon="-4.6709730">
        <ele>649.9</ele>
        <time>2020-10-04T10:31:45Z</time>
      </trkpt>
      <trkpt lat="40.1356420" lon="-4.6709520">
        <ele>647.6</ele>
        <time>2020-10-04T10:31:47Z</time>
      </trkpt>
      <trkpt lat="40.1355460" lon="-4.6709480">
        <ele>646.2</ele>
        <time>2020-10-04T10:31:48Z</time>
      </trkpt>
      <trkpt lat="40.1353660" lon="-4.6709430">
        <ele>643.9</ele>
        <time>2020-10-04T10:31:50Z</time>
      </trkpt>
      <trkpt lat="40.1352780" lon="-4.6709460">
        <ele>642.8</ele>
        <time>2020-10-04T10:31:51Z</time>
      </trkpt>
      <trkpt lat="40.1351090" lon="-4.6709170">
        <ele>640.9</ele>
        <time>2020-10-04T10:31:53Z</time>
      </trkpt>
      <trkpt lat="40.1349340" lon="-4.6709060">
        <ele>639.6</ele>
        <time>2020-10-04T10:31:55Z</time>
      </trkpt>
      <trkpt lat="40.1347500" lon="-4.6709120">
        <ele>638.4</ele>
        <time>2020-10-04T10:31:57Z</time>
      </trkpt>
      <trkpt lat="40.1346580" lon="-4.6709260">
        <ele>638.0</ele>
        <time>2020-10-04T10:31:58Z</time>
      </trkpt>
      <trkpt lat="40.1344970" lon="-4.6708940">
        <ele>637.5</ele>
        <time>2020-10-04T10:32:00Z</time>
      </trkpt>
      <trkpt lat="40.1344310" lon="-4.6708450">
        <ele>637.2</ele>
        <time>2020-10-04T10:32:01Z</time>
      </trkpt>
      <trkpt lat="40.1343030" lon="-4.6707590">
        <ele>636.7</ele>
        <time>2020-10-04T10:32:03Z</time>
      </trkpt>
      <trkpt lat="40.1341630" lon="-4.6707020">
        <ele>635.8</ele>
        <time>2020-10-04T10:32:05Z</time>
      </trkpt>
      <trkpt lat="40.1340910" lon="-4.6706710">
        <ele>635.0</ele>
        <time>2020-10-04T10:32:06Z</time>
      </trkpt>
      <trkpt lat="40.1339410" lon="-4.6706370">
        <ele>633.4</ele>
        <time>2020-10-04T10:32:08Z</time>
      </trkpt>
      <trkpt lat="40.1338660" lon="-4.6706260">
        <ele>632.7</ele>
        <time>2020-10-04T10:32:09Z</time>
      </trkpt>
      <trkpt lat="40.1337340" lon="-4.6705640">
        <ele>631.7</ele>
        <time>2020-10-04T10:32:11Z</time>
      </trkpt>
      <trkpt lat="40.1336050" lon="-4.6704730">
        <ele>631.2</ele>
        <time>2020-10-04T10:32:13Z</time>
      </trkpt>
      <trkpt lat="40.1334700" lon="-4.6703720">
        <ele>630.7</ele>
        <time>2020-10-04T10:32:15Z</time>
      </trkpt>
      <trkpt lat="40.1334000" lon="-4.6703170">
        <ele>630.5</ele>
        <time>2020-10-04T10:32:16Z</time>
      </trkpt>
      <trkpt lat="40.1332560" lon="-4.6702070">
        <ele>630.1</ele>
        <time>2020-10-04T10:32:18Z</time>
      </trkpt>
      <trkpt lat="40.1331060" lon="-4.6700880">
        <ele>629.6</ele>
        <time>2020-10-04T10:32:20Z</time>
      </trkpt>
      <trkpt lat="40.1329830" lon="-4.6699600">
        <ele>628.5</ele>
        <time>2020-10-04T10:32:22Z</time>
      </trkpt>
      <trkpt lat="40.1328810" lon="-4.6698560">
        <ele>626.8</ele>
        <time>2020-10-04T10:32:24Z</time>
      </trkpt>
      <trkpt lat="40.1328430" lon="-4.6697940">
        <ele>625.7</ele>
        <time>2020-10-04T10:32:25Z</time>
      </trkpt>
      <trkpt lat="40.1328270" lon="-4.6696240">
        <ele>623.5</ele>
        <time>2020-10-04T10:32:27Z</time>
      </trkpt>
      <trkpt lat="40.1328080" lon="-4.6694380">
        <ele>621.3</ele>
        <time>2020-10-04T10:32:29Z</time>
      </trkpt>
      <trkpt lat="40.1327810" lon="-4.6693460">
        <ele>620.5</ele>
        <time>2020-10-04T10:32:30Z</time>
      </trkpt>
      <trkpt lat="40.1327560" lon="-4.6691760">
        <ele>619.1</ele>
        <time>2020-10-04T10:32:32Z</time>
      </trkpt>
      <trkpt lat="40.1327300" lon="-4.6690090">
        <ele>617.8</ele>
        <time>2020-10-04T10:32:34Z</time>
      </trkpt>
      <trkpt lat="40.1326420" lon="-4.6689070">
        <ele>616.5</ele>
        <time>2020-10-04T10:32:36Z</time>
      </trkpt>
      <trkpt lat="40.1325170" lon="-4.6688720">
        <ele>615.2</ele>
        <time>2020-10-04T10:32:38Z</time>
      </trkpt>
      <trkpt lat="40.1324000" lon="-4.6688390">
        <ele>614.2</ele>
        <time>2020-10-04T10:32:40Z</time>
      </trkpt>
      <trkpt lat="40.1323040" lon="-4.6687250">
        <ele>613.1</ele>
        <time>2020-10-04T10:32:42Z</time>
      </trkpt>
      <trkpt lat="40.1322530" lon="-4.6686640">
        <ele>612.6</ele>
        <time>2020-10-04T10:32:43Z</time>
      </trkpt>
      <trkpt lat="40.1321420" lon="-4.6685180">
        <ele>611.6</ele>
        <time>2020-10-04T10:32:45Z</time>
      </trkpt>
      <trkpt lat="40.1320440" lon="-4.6683600">
        <ele>611.1</ele>
        <time>2020-10-04T10:32:47Z</time>
      </trkpt>
      <trkpt lat="40.1319950" lon="-4.6683050">
        <ele>611.0</ele>
        <time>2020-10-04T10:32:48Z</time>
      </trkpt>
      <trkpt lat="40.1319430" lon="-4.6682790">
        <ele>611.0</ele>
        <time>2020-10-04T10:32:49Z</time>
      </trkpt>
      <trkpt lat="40.1318410" lon="-4.6682820">
        <ele>610.9</ele>
        <time>2020-10-04T10:32:51Z</time>
      </trkpt>
      <trkpt lat="40.1317400" lon="-4.6682880">
        <ele>610.9</ele>
        <time>2020-10-04T10:32:53Z</time>
      </trkpt>
      <trkpt lat="40.1316430" lon="-4.6682910">
        <ele>610.9</ele>
        <time>2020-10-04T10:32:55Z</time>
      </trkpt>
      <trkpt lat="40.1315940" lon="-4.6682900">
        <ele>610.9</ele>
        <time>2020-10-04T10:32:56Z</time>
      </trkpt>
      <trkpt lat="40.1315450" lon="-4.6682910">
        <ele>610.9</ele>
        <time>2020-10-04T10:32:57Z</time>
      </trkpt>
      <trkpt lat="40.1314990" lon="-4.6682880">
        <ele>610.9</ele>
        <time>2020-10-04T10:32:58Z</time>
      </trkpt>
      <trkpt lat="40.1314460" lon="-4.6682590">
        <ele>610.9</ele>
        <time>2020-10-04T10:33:00Z</time>
      </trkpt>
      <trkpt lat="40.1314250" lon="-4.6682310">
        <ele>610.9</ele>
        <time>2020-10-04T10:33:01Z</time>
      </trkpt>
      <trkpt lat="40.1314080" lon="-4.6681600">
        <ele>610.8</ele>
        <time>2020-10-04T10:33:03Z</time>
      </trkpt>
      <trkpt lat="40.1313980" lon="-4.6681240">
        <ele>610.7</ele>
        <time>2020-10-04T10:33:04Z</time>
      </trkpt>
      <trkpt lat="40.1313770" lon="-4.6680710">
        <ele>610.6</ele>
        <time>2020-10-04T10:33:05Z</time>
      </trkpt>
      <trkpt lat="40.1313590" lon="-4.6680850">
        <ele>610.5</ele>
        <time>2020-10-04T10:33:06Z</time>
      </trkpt>
      <trkpt lat="40.1313340" lon="-4.6680010">
        <ele>610.2</ele>
        <time>2020-10-04T10:33:08Z</time>
      </trkpt>
      <trkpt lat="40.1313080" lon="-4.6679430">
        <ele>610.1</ele>
        <time>2020-10-04T10:33:09Z</time>
      </trkpt>
      <trkpt lat="40.1312840" lon="-4.6678940">
        <ele>609.9</ele>
        <time>2020-10-04T10:33:11Z</time>
      </trkpt>
      <trkpt lat="40.1312680" lon="-4.6678530">
        <ele>609.8</ele>
        <time>2020-10-04T10:33:12Z</time>
      </trkpt>
      <trkpt lat="40.1312530" lon="-4.6678160">
        <ele>609.6</ele>
        <time>2020-10-04T10:33:13Z</time>
      </trkpt>
      <trkpt lat="40.1312310" lon="-4.6677730">
        <ele>609.4</ele>
        <time>2020-10-04T10:33:14Z</time>
      </trkpt>
      <trkpt lat="40.1312100" lon="-4.6677140">
        <ele>609.1</ele>
        <time>2020-10-04T10:33:15Z</time>
      </trkpt>
      <trkpt lat="40.1311960" lon="-4.6676630">
        <ele>608.8</ele>
        <time>2020-10-04T10:33:16Z</time>
      </trkpt>
      <trkpt lat="40.1311560" lon="-4.6675440">
        <ele>608.0</ele>
        <time>2020-10-04T10:33:18Z</time>
      </trkpt>
      <trkpt lat="40.1311390" lon="-4.6674710">
        <ele>607.5</ele>
        <time>2020-10-04T10:33:19Z</time>
      </trkpt>
      <trkpt lat="40.1311420" lon="-4.6673180">
        <ele>606.6</ele>
        <time>2020-10-04T10:33:21Z</time>
      </trkpt>
      <trkpt lat="40.1311580" lon="-4.6672370">
        <ele>606.2</ele>
        <time>2020-10-04T10:33:22Z</time>
      </trkpt>
      <trkpt lat="40.1311730" lon="-4.6671480">
        <ele>605.8</ele>
        <time>2020-10-04T10:33:23Z</time>
      </trkpt>
      <trkpt lat="40.1311640" lon="-4.6669510">
        <ele>604.8</ele>
        <time>2020-10-04T10:33:25Z</time>
      </trkpt>
      <trkpt lat="40.1311490" lon="-4.6668470">
        <ele>604.3</ele>
        <time>2020-10-04T10:33:26Z</time>
      </trkpt>
      <trkpt lat="40.1311150" lon="-4.6666340">
        <ele>603.1</ele>
        <time>2020-10-04T10:33:28Z</time>
      </trkpt>
      <trkpt lat="40.1310950" lon="-4.6665240">
        <ele>602.4</ele>
        <time>2020-10-04T10:33:29Z</time>
      </trkpt>
      <trkpt lat="40.1310780" lon="-4.6664110">
        <ele>601.8</ele>
        <time>2020-10-04T10:33:30Z</time>
      </trkpt>
      <trkpt lat="40.1310540" lon="-4.6661910">
        <ele>600.6</ele>
        <time>2020-10-04T10:33:32Z</time>
      </trkpt>
      <trkpt lat="40.1310360" lon="-4.6659690">
        <ele>599.5</ele>
        <time>2020-10-04T10:33:34Z</time>
      </trkpt>
      <trkpt lat="40.1310320" lon="-4.6658560">
        <ele>599.0</ele>
        <time>2020-10-04T10:33:35Z</time>
      </trkpt>
      <trkpt lat="40.1310150" lon="-4.6656290">
        <ele>597.9</ele>
        <time>2020-10-04T10:33:37Z</time>
      </trkpt>
      <trkpt lat="40.1309710" lon="-4.6653970">
        <ele>596.6</ele>
        <time>2020-10-04T10:33:39Z</time>
      </trkpt>
      <trkpt lat="40.1309470" lon="-4.6652810">
        <ele>596.1</ele>
        <time>2020-10-04T10:33:40Z</time>
      </trkpt>
      <trkpt lat="40.1308790" lon="-4.6650610">
        <ele>595.1</ele>
        <time>2020-10-04T10:33:42Z</time>
      </trkpt>
      <trkpt lat="40.1308400" lon="-4.6649570">
        <ele>594.7</ele>
        <time>2020-10-04T10:33:43Z</time>
      </trkpt>
      <trkpt lat="40.1307980" lon="-4.6648570">
        <ele>594.3</ele>
        <time>2020-10-04T10:33:44Z</time>
      </trkpt>
      <trkpt lat="40.1307180" lon="-4.6646660">
        <ele>593.6</ele>
        <time>2020-10-04T10:33:46Z</time>
      </trkpt>
      <trkpt lat="40.1306560" lon="-4.6644750">
        <ele>593.2</ele>
        <time>2020-10-04T10:33:48Z</time>
      </trkpt>
      <trkpt lat="40.1306430" lon="-4.6643740">
        <ele>593.0</ele>
        <time>2020-10-04T10:33:49Z</time>
      </trkpt>
      <trkpt lat="40.1306140" lon="-4.6641780">
        <ele>592.4</ele>
        <time>2020-10-04T10:33:51Z</time>
      </trkpt>
      <trkpt lat="40.1305430" lon="-4.6639980">
        <ele>591.8</ele>
        <time>2020-10-04T10:33:53Z</time>
      </trkpt>
      <trkpt lat="40.1304980" lon="-4.6639110">
        <ele>591.5</ele>
        <time>2020-10-04T10:33:54Z</time>
      </trkpt>
      <trkpt lat="40.1304070" lon="-4.6637440">
        <ele>591.0</ele>
        <time>2020-10-04T10:33:56Z</time>
      </trkpt>
      <trkpt lat="40.1303520" lon="-4.6636790">
        <ele>590.9</ele>
        <time>2020-10-04T10:33:57Z</time>
      </trkpt>
      <trkpt lat="40.1302410" lon="-4.6635510">
        <ele>590.7</ele>
        <time>2020-10-04T10:33:59Z</time>
      </trkpt>
      <trkpt lat="40.1301790" lon="-4.6634200">
        <ele>590.4</ele>
        <time>2020-10-04T10:34:01Z</time>
      </trkpt>
      <trkpt lat="40.1301860" lon="-4.6633520">
        <ele>590.4</ele>
        <time>2020-10-04T10:34:03Z</time>
      </trkpt>
      <trkpt lat="40.1301930" lon="-4.6633170">
        <ele>590.3</ele>
        <time>2020-10-04T10:34:04Z</time>
      </trkpt>
      <trkpt lat="40.1301930" lon="-4.6632470">
        <ele>590.2</ele>
        <time>2020-10-04T10:34:06Z</time>
      </trkpt>
      <trkpt lat="40.1301800" lon="-4.6631950">
        <ele>590.1</ele>
        <time>2020-10-04T10:34:07Z</time>
      </trkpt>
      <trkpt lat="40.1301350" lon="-4.6630530">
        <ele>589.7</ele>
        <time>2020-10-04T10:34:09Z</time>
      </trkpt>
      <trkpt lat="40.1300960" lon="-4.6629290">
        <ele>589.3</ele>
        <time>2020-10-04T10:34:11Z</time>
      </trkpt>
      <trkpt lat="40.1300810" lon="-4.6628600">
        <ele>589.0</ele>
        <time>2020-10-04T10:34:12Z</time>
      </trkpt>
      <trkpt lat="40.1300690" lon="-4.6627900">
        <ele>588.8</ele>
        <time>2020-10-04T10:34:13Z</time>
      </trkpt>
      <trkpt lat="40.1300440" lon="-4.6626650">
        <ele>588.3</ele>
        <time>2020-10-04T10:34:15Z</time>
      </trkpt>
      <trkpt lat="40.1300230" lon="-4.6626080">
        <ele>588.0</ele>
        <time>2020-10-04T10:34:16Z</time>
      </trkpt>
      <trkpt lat="40.1299700" lon="-4.6624730">
        <ele>587.3</ele>
        <time>2020-10-04T10:34:18Z</time>
      </trkpt>
      <trkpt lat="40.1299560" lon="-4.6623910">
        <ele>586.9</ele>
        <time>2020-10-04T10:34:19Z</time>
      </trkpt>
      <trkpt lat="40.1299490" lon="-4.6623090">
        <ele>586.5</ele>
        <time>2020-10-04T10:34:20Z</time>
      </trkpt>
      <trkpt lat="40.1299300" lon="-4.6621640">
        <ele>585.8</ele>
        <time>2020-10-04T10:34:22Z</time>
      </trkpt>
      <trkpt lat="40.1299140" lon="-4.6620890">
        <ele>585.5</ele>
        <time>2020-10-04T10:34:23Z</time>
      </trkpt>
      <trkpt lat="40.1298890" lon="-4.6619230">
        <ele>584.9</ele>
        <time>2020-10-04T10:34:25Z</time>
      </trkpt>
      <trkpt lat="40.1298800" lon="-4.6618370">
        <ele>584.7</ele>
        <time>2020-10-04T10:34:26Z</time>
      </trkpt>
      <trkpt lat="40.1298530" lon="-4.6616680">
        <ele>584.2</ele>
        <time>2020-10-04T10:34:28Z</time>
      </trkpt>
      <trkpt lat="40.1298390" lon="-4.6615900">
        <ele>584.0</ele>
        <time>2020-10-04T10:34:29Z</time>
      </trkpt>
      <trkpt lat="40.1298180" lon="-4.6614380">
        <ele>583.6</ele>
        <time>2020-10-04T10:34:31Z</time>
      </trkpt>
      <trkpt lat="40.1297840" lon="-4.6612900">
        <ele>583.3</ele>
        <time>2020-10-04T10:34:33Z</time>
      </trkpt>
      <trkpt lat="40.1297670" lon="-4.6612090">
        <ele>583.1</ele>
        <time>2020-10-04T10:34:34Z</time>
      </trkpt>
      <trkpt lat="40.1297220" lon="-4.6610410">
        <ele>582.8</ele>
        <time>2020-10-04T10:34:36Z</time>
      </trkpt>
      <trkpt lat="40.1296930" lon="-4.6609630">
        <ele>582.6</ele>
        <time>2020-10-04T10:34:37Z</time>
      </trkpt>
      <trkpt lat="40.1296620" lon="-4.6608890">
        <ele>582.4</ele>
        <time>2020-10-04T10:34:38Z</time>
      </trkpt>
      <trkpt lat="40.1295970" lon="-4.6607400">
        <ele>582.2</ele>
        <time>2020-10-04T10:34:40Z</time>
      </trkpt>
      <trkpt lat="40.1295210" lon="-4.6605890">
        <ele>582.0</ele>
        <time>2020-10-04T10:34:42Z</time>
      </trkpt>
      <trkpt lat="40.1294860" lon="-4.6605080">
        <ele>581.9</ele>
        <time>2020-10-04T10:34:43Z</time>
      </trkpt>
      <trkpt lat="40.1294800" lon="-4.6603280">
        <ele>581.7</ele>
        <time>2020-10-04T10:34:45Z</time>
      </trkpt>
      <trkpt lat="40.1294860" lon="-4.6601590">
        <ele>581.6</ele>
        <time>2020-10-04T10:34:47Z</time>
      </trkpt>
      <trkpt lat="40.1294730" lon="-4.6600790">
        <ele>581.5</ele>
        <time>2020-10-04T10:34:48Z</time>
      </trkpt>
      <trkpt lat="40.1294140" lon="-4.6599160">
        <ele>581.2</ele>
        <time>2020-10-04T10:34:50Z</time>
      </trkpt>
      <trkpt lat="40.1293400" lon="-4.6597500">
        <ele>580.7</ele>
        <time>2020-10-04T10:34:52Z</time>
      </trkpt>
      <trkpt lat="40.1293030" lon="-4.6596650">
        <ele>580.3</ele>
        <time>2020-10-04T10:34:53Z</time>
      </trkpt>
      <trkpt lat="40.1292530" lon="-4.6594880">
        <ele>579.5</ele>
        <time>2020-10-04T10:34:55Z</time>
      </trkpt>
      <trkpt lat="40.1292540" lon="-4.6593090">
        <ele>578.6</ele>
        <time>2020-10-04T10:34:57Z</time>
      </trkpt>
      <trkpt lat="40.1292280" lon="-4.6591540">
        <ele>577.9</ele>
        <time>2020-10-04T10:34:59Z</time>
      </trkpt>
      <trkpt lat="40.1291530" lon="-4.6590160">
        <ele>577.3</ele>
        <time>2020-10-04T10:35:01Z</time>
      </trkpt>
      <trkpt lat="40.1290510" lon="-4.6588590">
        <ele>576.7</ele>
        <time>2020-10-04T10:35:03Z</time>
      </trkpt>
      <trkpt lat="40.1289720" lon="-4.6586850">
        <ele>576.4</ele>
        <time>2020-10-04T10:35:05Z</time>
      </trkpt>
      <trkpt lat="40.1289480" lon="-4.6584990">
        <ele>576.2</ele>
        <time>2020-10-04T10:35:07Z</time>
      </trkpt>
      <trkpt lat="40.1289450" lon="-4.6584080">
        <ele>576.2</ele>
        <time>2020-10-04T10:35:08Z</time>
      </trkpt>
      <trkpt lat="40.1289300" lon="-4.6582450">
        <ele>576.0</ele>
        <time>2020-10-04T10:35:10Z</time>
      </trkpt>
      <trkpt lat="40.1288730" lon="-4.6580930">
        <ele>575.7</ele>
        <time>2020-10-04T10:35:12Z</time>
      </trkpt>
      <trkpt lat="40.1288350" lon="-4.6580180">
        <ele>575.6</ele>
        <time>2020-10-04T10:35:13Z</time>
      </trkpt>
      <trkpt lat="40.1287920" lon="-4.6579390">
        <ele>575.4</ele>
        <time>2020-10-04T10:35:14Z</time>
      </trkpt>
      <trkpt lat="40.1287330" lon="-4.6577480">
        <ele>575.0</ele>
        <time>2020-10-04T10:35:16Z</time>
      </trkpt>
      <trkpt lat="40.1287000" lon="-4.6576500">
        <ele>574.8</ele>
        <time>2020-10-04T10:35:17Z</time>
      </trkpt>
      <trkpt lat="40.1286140" lon="-4.6574740">
        <ele>574.3</ele>
        <time>2020-10-04T10:35:19Z</time>
      </trkpt>
      <trkpt lat="40.1285170" lon="-4.6573230">
        <ele>574.0</ele>
        <time>2020-10-04T10:35:21Z</time>
      </trkpt>
      <trkpt lat="40.1284270" lon="-4.6571840">
        <ele>573.6</ele>
        <time>2020-10-04T10:35:23Z</time>
      </trkpt>
      <trkpt lat="40.1283630" lon="-4.6570270">
        <ele>573.3</ele>
        <time>2020-10-04T10:35:25Z</time>
      </trkpt>
      <trkpt lat="40.1283190" lon="-4.6568570">
        <ele>573.0</ele>
        <time>2020-10-04T10:35:27Z</time>
      </trkpt>
      <trkpt lat="40.1282880" lon="-4.6566760">
        <ele>572.8</ele>
        <time>2020-10-04T10:35:29Z</time>
      </trkpt>
      <trkpt lat="40.1282620" lon="-4.6565860">
        <ele>572.6</ele>
        <time>2020-10-04T10:35:30Z</time>
      </trkpt>
      <trkpt lat="40.1282210" lon="-4.6564040">
        <ele>572.5</ele>
        <time>2020-10-04T10:35:32Z</time>
      </trkpt>
      <trkpt lat="40.1281670" lon="-4.6562170">
        <ele>572.3</ele>
        <time>2020-10-04T10:35:34Z</time>
      </trkpt>
      <trkpt lat="40.1281350" lon="-4.6561260">
        <ele>572.2</ele>
        <time>2020-10-04T10:35:35Z</time>
      </trkpt>
      <trkpt lat="40.1280810" lon="-4.6559530">
        <ele>571.8</ele>
        <time>2020-10-04T10:35:37Z</time>
      </trkpt>
      <trkpt lat="40.1280290" lon="-4.6557880">
        <ele>571.3</ele>
        <time>2020-10-04T10:35:39Z</time>
      </trkpt>
      <trkpt lat="40.1279480" lon="-4.6556430">
        <ele>570.9</ele>
        <time>2020-10-04T10:35:41Z</time>
      </trkpt>
      <trkpt lat="40.1279000" lon="-4.6555730">
        <ele>570.7</ele>
        <time>2020-10-04T10:35:42Z</time>
      </trkpt>
      <trkpt lat="40.1278510" lon="-4.6555000">
        <ele>570.4</ele>
        <time>2020-10-04T10:35:43Z</time>
      </trkpt>
      <trkpt lat="40.1277310" lon="-4.6554190">
        <ele>569.9</ele>
        <time>2020-10-04T10:35:45Z</time>
      </trkpt>
      <trkpt lat="40.1275860" lon="-4.6553950">
        <ele>569.2</ele>
        <time>2020-10-04T10:35:47Z</time>
      </trkpt>
      <trkpt lat="40.1275130" lon="-4.6553610">
        <ele>568.9</ele>
        <time>2020-10-04T10:35:48Z</time>
      </trkpt>
      <trkpt lat="40.1274440" lon="-4.6553160">
        <ele>568.7</ele>
        <time>2020-10-04T10:35:49Z</time>
      </trkpt>
      <trkpt lat="40.1273270" lon="-4.6552020">
        <ele>568.6</ele>
        <time>2020-10-04T10:35:51Z</time>
      </trkpt>
      <trkpt lat="40.1272710" lon="-4.6551450">
        <ele>568.5</ele>
        <time>2020-10-04T10:35:52Z</time>
      </trkpt>
      <trkpt lat="40.1272180" lon="-4.6550900">
        <ele>568.5</ele>
        <time>2020-10-04T10:35:53Z</time>
      </trkpt>
      <trkpt lat="40.1271700" lon="-4.6550440">
        <ele>568.5</ele>
        <time>2020-10-04T10:35:54Z</time>
      </trkpt>
      <trkpt lat="40.1270730" lon="-4.6549930">
        <ele>568.4</ele>
        <time>2020-10-04T10:35:56Z</time>
      </trkpt>
      <trkpt lat="40.1270280" lon="-4.6549820">
        <ele>568.3</ele>
        <time>2020-10-04T10:35:57Z</time>
      </trkpt>
      <trkpt lat="40.1269440" lon="-4.6549640">
        <ele>568.1</ele>
        <time>2020-10-04T10:35:59Z</time>
      </trkpt>
      <trkpt lat="40.1269150" lon="-4.6549710">
        <ele>568.0</ele>
        <time>2020-10-04T10:36:00Z</time>
      </trkpt>
      <trkpt lat="40.1268200" lon="-4.6549970">
        <ele>567.7</ele>
        <time>2020-10-04T10:36:02Z</time>
      </trkpt>
      <trkpt lat="40.1267290" lon="-4.6550560">
        <ele>567.5</ele>
        <time>2020-10-04T10:36:04Z</time>
      </trkpt>
      <trkpt lat="40.1266420" lon="-4.6551330">
        <ele>567.4</ele>
        <time>2020-10-04T10:36:06Z</time>
      </trkpt>
      <trkpt lat="40.1265690" lon="-4.6552190">
        <ele>567.3</ele>
        <time>2020-10-04T10:36:08Z</time>
      </trkpt>
      <trkpt lat="40.1265190" lon="-4.6552940">
        <ele>567.3</ele>
        <time>2020-10-04T10:36:10Z</time>
      </trkpt>
      <trkpt lat="40.1264390" lon="-4.6553670">
        <ele>567.3</ele>
        <time>2020-10-04T10:36:12Z</time>
      </trkpt>
      <trkpt lat="40.1263670" lon="-4.6554140">
        <ele>567.3</ele>
        <time>2020-10-04T10:36:14Z</time>
      </trkpt>
      <trkpt lat="40.1263310" lon="-4.6554220">
        <ele>567.2</ele>
        <time>2020-10-04T10:36:15Z</time>
      </trkpt>
      <trkpt lat="40.1263130" lon="-4.6554320">
        <ele>567.2</ele>
        <time>2020-10-04T10:36:16Z</time>
      </trkpt>
      <trkpt lat="40.1262500" lon="-4.6554720">
        <ele>567.1</ele>
        <time>2020-10-04T10:36:17Z</time>
      </trkpt>
      <trkpt lat="40.1261980" lon="-4.6555070">
        <ele>567.0</ele>
        <time>2020-10-04T10:36:19Z</time>
      </trkpt>
      <trkpt lat="40.1261310" lon="-4.6555480">
        <ele>566.8</ele>
        <time>2020-10-04T10:36:21Z</time>
      </trkpt>
      <trkpt lat="40.1260670" lon="-4.6556140">
        <ele>566.7</ele>
        <time>2020-10-04T10:36:22Z</time>
      </trkpt>
      <trkpt lat="40.1260090" lon="-4.6556910">
        <ele>566.6</ele>
        <time>2020-10-04T10:36:24Z</time>
      </trkpt>
      <trkpt lat="40.1259730" lon="-4.6557460">
        <ele>566.6</ele>
        <time>2020-10-04T10:36:25Z</time>
      </trkpt>
      <trkpt lat="40.1259390" lon="-4.6558060">
        <ele>566.6</ele>
        <time>2020-10-04T10:36:26Z</time>
      </trkpt>
      <trkpt lat="40.1258610" lon="-4.6559180">
        <ele>566.5</ele>
        <time>2020-10-04T10:36:28Z</time>
      </trkpt>
      <trkpt lat="40.1258200" lon="-4.6559660">
        <ele>566.5</ele>
        <time>2020-10-04T10:36:29Z</time>
      </trkpt>
      <trkpt lat="40.1257780" lon="-4.6560140">
        <ele>566.5</ele>
        <time>2020-10-04T10:36:30Z</time>
      </trkpt>
      <trkpt lat="40.1256850" lon="-4.6560950">
        <ele>566.5</ele>
        <time>2020-10-04T10:36:32Z</time>
      </trkpt>
      <trkpt lat="40.1256390" lon="-4.6561280">
        <ele>566.5</ele>
        <time>2020-10-04T10:36:33Z</time>
      </trkpt>
      <trkpt lat="40.1255910" lon="-4.6561590">
        <ele>566.6</ele>
        <time>2020-10-04T10:36:34Z</time>
      </trkpt>
      <trkpt lat="40.1255030" lon="-4.6562160">
        <ele>566.6</ele>
        <time>2020-10-04T10:36:36Z</time>
      </trkpt>
      <trkpt lat="40.1254600" lon="-4.6562470">
        <ele>566.6</ele>
        <time>2020-10-04T10:36:37Z</time>
      </trkpt>
      <trkpt lat="40.1254220" lon="-4.6562770">
        <ele>566.6</ele>
        <time>2020-10-04T10:36:38Z</time>
      </trkpt>
      <trkpt lat="40.1253840" lon="-4.6563110">
        <ele>566.6</ele>
        <time>2020-10-04T10:36:39Z</time>
      </trkpt>
      <trkpt lat="40.1253030" lon="-4.6563900">
        <ele>566.6</ele>
        <time>2020-10-04T10:36:41Z</time>
      </trkpt>
      <trkpt lat="40.1252600" lon="-4.6564330">
        <ele>566.6</ele>
        <time>2020-10-04T10:36:42Z</time>
      </trkpt>
      <trkpt lat="40.1252200" lon="-4.6564750">
        <ele>566.6</ele>
        <time>2020-10-04T10:36:43Z</time>
      </trkpt>
      <trkpt lat="40.1251810" lon="-4.6565200">
        <ele>566.7</ele>
        <time>2020-10-04T10:36:44Z</time>
      </trkpt>
      <trkpt lat="40.1251430" lon="-4.6565630">
        <ele>566.7</ele>
        <time>2020-10-04T10:36:45Z</time>
      </trkpt>
      <trkpt lat="40.1250690" lon="-4.6566430">
        <ele>566.7</ele>
        <time>2020-10-04T10:36:47Z</time>
      </trkpt>
      <trkpt lat="40.1249950" lon="-4.6567250">
        <ele>566.7</ele>
        <time>2020-10-04T10:36:49Z</time>
      </trkpt>
      <trkpt lat="40.1249150" lon="-4.6568020">
        <ele>566.6</ele>
        <time>2020-10-04T10:36:51Z</time>
      </trkpt>
      <trkpt lat="40.1248320" lon="-4.6568800">
        <ele>566.6</ele>
        <time>2020-10-04T10:36:53Z</time>
      </trkpt>
      <trkpt lat="40.1247440" lon="-4.6569510">
        <ele>566.5</ele>
        <time>2020-10-04T10:36:55Z</time>
      </trkpt>
      <trkpt lat="40.1246560" lon="-4.6570230">
        <ele>566.5</ele>
        <time>2020-10-04T10:36:57Z</time>
      </trkpt>
      <trkpt lat="40.1245700" lon="-4.6570940">
        <ele>566.4</ele>
        <time>2020-10-04T10:36:59Z</time>
      </trkpt>
      <trkpt lat="40.1244820" lon="-4.6571660">
        <ele>566.3</ele>
        <time>2020-10-04T10:37:01Z</time>
      </trkpt>
      <trkpt lat="40.1243940" lon="-4.6572350">
        <ele>566.2</ele>
        <time>2020-10-04T10:37:03Z</time>
      </trkpt>
      <trkpt lat="40.1243490" lon="-4.6572710">
        <ele>566.1</ele>
        <time>2020-10-04T10:37:04Z</time>
      </trkpt>
      <trkpt lat="40.1243040" lon="-4.6573080">
        <ele>565.9</ele>
        <time>2020-10-04T10:37:05Z</time>
      </trkpt>
      <trkpt lat="40.1242240" lon="-4.6573810">
        <ele>565.6</ele>
        <time>2020-10-04T10:37:07Z</time>
      </trkpt>
      <trkpt lat="40.1241870" lon="-4.6574140">
        <ele>565.5</ele>
        <time>2020-10-04T10:37:08Z</time>
      </trkpt>
      <trkpt lat="40.1241110" lon="-4.6574800">
        <ele>565.1</ele>
        <time>2020-10-04T10:37:10Z</time>
      </trkpt>
      <trkpt lat="40.1240290" lon="-4.6575490">
        <ele>564.8</ele>
        <time>2020-10-04T10:37:12Z</time>
      </trkpt>
      <trkpt lat="40.1239860" lon="-4.6575880">
        <ele>564.5</ele>
        <time>2020-10-04T10:37:13Z</time>
      </trkpt>
      <trkpt lat="40.1239410" lon="-4.6576280">
        <ele>564.3</ele>
        <time>2020-10-04T10:37:14Z</time>
      </trkpt>
      <trkpt lat="40.1238950" lon="-4.6576670">
        <ele>564.1</ele>
        <time>2020-10-04T10:37:15Z</time>
      </trkpt>
      <trkpt lat="40.1238460" lon="-4.6577070">
        <ele>563.8</ele>
        <time>2020-10-04T10:37:16Z</time>
      </trkpt>
      <trkpt lat="40.1237460" lon="-4.6577730">
        <ele>563.4</ele>
        <time>2020-10-04T10:37:18Z</time>
      </trkpt>
      <trkpt lat="40.1236320" lon="-4.6578470">
        <ele>563.1</ele>
        <time>2020-10-04T10:37:20Z</time>
      </trkpt>
      <trkpt lat="40.1235200" lon="-4.6579260">
        <ele>563.0</ele>
        <time>2020-10-04T10:37:22Z</time>
      </trkpt>
      <trkpt lat="40.1234700" lon="-4.6579670">
        <ele>562.9</ele>
        <time>2020-10-04T10:37:23Z</time>
      </trkpt>
      <trkpt lat="40.1233810" lon="-4.6580360">
        <ele>562.8</ele>
        <time>2020-10-04T10:37:25Z</time>
      </trkpt>
      <trkpt lat="40.1233370" lon="-4.6580650">
        <ele>562.8</ele>
        <time>2020-10-04T10:37:26Z</time>
      </trkpt>
      <trkpt lat="40.1232480" lon="-4.6580930">
        <ele>562.7</ele>
        <time>2020-10-04T10:37:28Z</time>
      </trkpt>
      <trkpt lat="40.1232200" lon="-4.6580830">
        <ele>562.7</ele>
        <time>2020-10-04T10:37:29Z</time>
      </trkpt>
      <trkpt lat="40.1231280" lon="-4.6580210">
        <ele>562.5</ele>
        <time>2020-10-04T10:37:31Z</time>
      </trkpt>
      <trkpt lat="40.1230230" lon="-4.6579520">
        <ele>562.5</ele>
        <time>2020-10-04T10:37:33Z</time>
      </trkpt>
      <trkpt lat="40.1229670" lon="-4.6579270">
        <ele>562.5</ele>
        <time>2020-10-04T10:37:34Z</time>
      </trkpt>
      <trkpt lat="40.1229120" lon="-4.6579030">
        <ele>562.4</ele>
        <time>2020-10-04T10:37:35Z</time>
      </trkpt>
      <trkpt lat="40.1228580" lon="-4.6578790">
        <ele>562.4</ele>
        <time>2020-10-04T10:37:36Z</time>
      </trkpt>
      <trkpt lat="40.1227620" lon="-4.6578460">
        <ele>562.4</ele>
        <time>2020-10-04T10:37:38Z</time>
      </trkpt>
      <trkpt lat="40.1227220" lon="-4.6578330">
        <ele>562.3</ele>
        <time>2020-10-04T10:37:39Z</time>
      </trkpt>
      <trkpt lat="40.1226940" lon="-4.6578230">
        <ele>562.3</ele>
        <time>2020-10-04T10:37:40Z</time>
      </trkpt>
      <trkpt lat="40.1225940" lon="-4.6577980">
        <ele>562.1</ele>
        <time>2020-10-04T10:37:42Z</time>
      </trkpt>
      <trkpt lat="40.1224930" lon="-4.6577920">
        <ele>562.0</ele>
        <time>2020-10-04T10:37:44Z</time>
      </trkpt>
      <trkpt lat="40.1224400" lon="-4.6577890">
        <ele>561.9</ele>
        <time>2020-10-04T10:37:45Z</time>
      </trkpt>
      <trkpt lat="40.1223830" lon="-4.6577860">
        <ele>561.9</ele>
        <time>2020-10-04T10:37:46Z</time>
      </trkpt>
      <trkpt lat="40.1223230" lon="-4.6577820">
        <ele>561.9</ele>
        <time>2020-10-04T10:37:47Z</time>
      </trkpt>
      <trkpt lat="40.1222030" lon="-4.6577730">
        <ele>561.9</ele>
        <time>2020-10-04T10:37:49Z</time>
      </trkpt>
      <trkpt lat="40.1220900" lon="-4.6577650">
        <ele>562.0</ele>
        <time>2020-10-04T10:37:51Z</time>
      </trkpt>
      <trkpt lat="40.1219830" lon="-4.6577610">
        <ele>562.1</ele>
        <time>2020-10-04T10:37:53Z</time>
      </trkpt>
      <trkpt lat="40.1219310" lon="-4.6577620">
        <ele>562.1</ele>
        <time>2020-10-04T10:37:54Z</time>
      </trkpt>
      <trkpt lat="40.1218250" lon="-4.6577620">
        <ele>562.2</ele>
        <time>2020-10-04T10:37:56Z</time>
      </trkpt>
      <trkpt lat="40.1217740" lon="-4.6577610">
        <ele>562.3</ele>
        <time>2020-10-04T10:37:57Z</time>
      </trkpt>
      <trkpt lat="40.1216790" lon="-4.6577630">
        <ele>562.4</ele>
        <time>2020-10-04T10:37:59Z</time>
      </trkpt>
      <trkpt lat="40.1215900" lon="-4.6577690">
        <ele>562.5</ele>
        <time>2020-10-04T10:38:01Z</time>
      </trkpt>
      <trkpt lat="40.1215470" lon="-4.6577700">
        <ele>562.5</ele>
        <time>2020-10-04T10:38:02Z</time>
      </trkpt>
      <trkpt lat="40.1214510" lon="-4.6577680">
        <ele>562.5</ele>
        <time>2020-10-04T10:38:04Z</time>
      </trkpt>
      <trkpt lat="40.1213470" lon="-4.6577630">
        <ele>562.5</ele>
        <time>2020-10-04T10:38:06Z</time>
      </trkpt>
      <trkpt lat="40.1212930" lon="-4.6577610">
        <ele>562.6</ele>
        <time>2020-10-04T10:38:07Z</time>
      </trkpt>
      <trkpt lat="40.1211930" lon="-4.6577560">
        <ele>562.6</ele>
        <time>2020-10-04T10:38:09Z</time>
      </trkpt>
      <trkpt lat="40.1211460" lon="-4.6577530">
        <ele>562.7</ele>
        <time>2020-10-04T10:38:10Z</time>
      </trkpt>
      <trkpt lat="40.1210960" lon="-4.6577530">
        <ele>562.7</ele>
        <time>2020-10-04T10:38:11Z</time>
      </trkpt>
      <trkpt lat="40.1210460" lon="-4.6577490">
        <ele>562.8</ele>
        <time>2020-10-04T10:38:12Z</time>
      </trkpt>
      <trkpt lat="40.1209440" lon="-4.6577270">
        <ele>562.9</ele>
        <time>2020-10-04T10:38:14Z</time>
      </trkpt>
      <trkpt lat="40.1208450" lon="-4.6576820">
        <ele>563.1</ele>
        <time>2020-10-04T10:38:16Z</time>
      </trkpt>
      <trkpt lat="40.1207520" lon="-4.6576210">
        <ele>563.3</ele>
        <time>2020-10-04T10:38:18Z</time>
      </trkpt>
      <trkpt lat="40.1206670" lon="-4.6575380">
        <ele>563.5</ele>
        <time>2020-10-04T10:38:20Z</time>
      </trkpt>
      <trkpt lat="40.1206280" lon="-4.6574930">
        <ele>563.5</ele>
        <time>2020-10-04T10:38:21Z</time>
      </trkpt>
      <trkpt lat="40.1205570" lon="-4.6573980">
        <ele>563.5</ele>
        <time>2020-10-04T10:38:23Z</time>
      </trkpt>
      <trkpt lat="40.1204870" lon="-4.6573070">
        <ele>563.3</ele>
        <time>2020-10-04T10:38:25Z</time>
      </trkpt>
      <trkpt lat="40.1204180" lon="-4.6572200">
        <ele>563.1</ele>
        <time>2020-10-04T10:38:27Z</time>
      </trkpt>
      <trkpt lat="40.1203780" lon="-4.6571740">
        <ele>563.0</ele>
        <time>2020-10-04T10:38:28Z</time>
      </trkpt>
      <trkpt lat="40.1202910" lon="-4.6570790">
        <ele>562.8</ele>
        <time>2020-10-04T10:38:30Z</time>
      </trkpt>
      <trkpt lat="40.1202410" lon="-4.6570360">
        <ele>562.7</ele>
        <time>2020-10-04T10:38:31Z</time>
      </trkpt>
      <trkpt lat="40.1201330" lon="-4.6569570">
        <ele>562.5</ele>
        <time>2020-10-04T10:38:33Z</time>
      </trkpt>
      <trkpt lat="40.1200760" lon="-4.6569240">
        <ele>562.5</ele>
        <time>2020-10-04T10:38:34Z</time>
      </trkpt>
      <trkpt lat="40.1199670" lon="-4.6568550">
        <ele>562.4</ele>
        <time>2020-10-04T10:38:36Z</time>
      </trkpt>
      <trkpt lat="40.1198650" lon="-4.6567960">
        <ele>562.3</ele>
        <time>2020-10-04T10:38:38Z</time>
      </trkpt>
      <trkpt lat="40.1197610" lon="-4.6567500">
        <ele>562.0</ele>
        <time>2020-10-04T10:38:40Z</time>
      </trkpt>
      <trkpt lat="40.1197050" lon="-4.6567330">
        <ele>561.9</ele>
        <time>2020-10-04T10:38:41Z</time>
      </trkpt>
      <trkpt lat="40.1195890" lon="-4.6567130">
        <ele>561.5</ele>
        <time>2020-10-04T10:38:43Z</time>
      </trkpt>
      <trkpt lat="40.1195270" lon="-4.6567100">
        <ele>561.4</ele>
        <time>2020-10-04T10:38:44Z</time>
      </trkpt>
      <trkpt lat="40.1194650" lon="-4.6567120">
        <ele>561.2</ele>
        <time>2020-10-04T10:38:45Z</time>
      </trkpt>
      <trkpt lat="40.1193430" lon="-4.6567140">
        <ele>560.8</ele>
        <time>2020-10-04T10:38:47Z</time>
      </trkpt>
      <trkpt lat="40.1192160" lon="-4.6567090">
        <ele>560.6</ele>
        <time>2020-10-04T10:38:49Z</time>
      </trkpt>
      <trkpt lat="40.1190870" lon="-4.6567080">
        <ele>560.3</ele>
        <time>2020-10-04T10:38:51Z</time>
      </trkpt>
      <trkpt lat="40.1190300" lon="-4.6567070">
        <ele>560.2</ele>
        <time>2020-10-04T10:38:52Z</time>
      </trkpt>
      <trkpt lat="40.1189350" lon="-4.6567100">
        <ele>560.0</ele>
        <time>2020-10-04T10:38:54Z</time>
      </trkpt>
      <trkpt lat="40.1188500" lon="-4.6567230">
        <ele>559.8</ele>
        <time>2020-10-04T10:38:56Z</time>
      </trkpt>
      <trkpt lat="40.1188010" lon="-4.6567320">
        <ele>559.8</ele>
        <time>2020-10-04T10:38:57Z</time>
      </trkpt>
      <trkpt lat="40.1187780" lon="-4.6567350">
        <ele>559.7</ele>
        <time>2020-10-04T10:38:58Z</time>
      </trkpt>
      <trkpt lat="40.1187160" lon="-4.6567390">
        <ele>559.6</ele>
        <time>2020-10-04T10:39:00Z</time>
      </trkpt>
      <trkpt lat="40.1186730" lon="-4.6567500">
        <ele>559.5</ele>
        <time>2020-10-04T10:39:02Z</time>
      </trkpt>
      <trkpt lat="40.1186200" lon="-4.6567670">
        <ele>559.3</ele>
        <time>2020-10-04T10:39:03Z</time>
      </trkpt>
      <trkpt lat="40.1186260" lon="-4.6568150">
        <ele>559.1</ele>
        <time>2020-10-04T10:39:05Z</time>
      </trkpt>
      <trkpt lat="40.1185860" lon="-4.6568110">
        <ele>559.0</ele>
        <time>2020-10-04T10:39:06Z</time>
      </trkpt>
      <trkpt lat="40.1185440" lon="-4.6568080">
        <ele>558.8</ele>
        <time>2020-10-04T10:39:08Z</time>
      </trkpt>
      <trkpt lat="40.1185030" lon="-4.6568160">
        <ele>558.6</ele>
        <time>2020-10-04T10:39:10Z</time>
      </trkpt>
      <trkpt lat="40.1184820" lon="-4.6568160">
        <ele>558.5</ele>
        <time>2020-10-04T10:39:11Z</time>
      </trkpt>
      <trkpt lat="40.1184490" lon="-4.6568190">
        <ele>558.4</ele>
        <time>2020-10-04T10:39:13Z</time>
      </trkpt>
      <trkpt lat="40.1184340" lon="-4.6568200">
        <ele>558.3</ele>
        <time>2020-10-04T10:39:14Z</time>
      </trkpt>
      <trkpt lat="40.1184080" lon="-4.6568220">
        <ele>558.2</ele>
        <time>2020-10-04T10:39:16Z</time>
      </trkpt>
      <trkpt lat="40.1183760" lon="-4.6568280">
        <ele>558.1</ele>
        <time>2020-10-04T10:39:18Z</time>
      </trkpt>
      <trkpt lat="40.1183690" lon="-4.6568290">
        <ele>558.0</ele>
        <time>2020-10-04T10:39:19Z</time>
      </trkpt>
      <trkpt lat="40.1183440" lon="-4.6568340">
        <ele>557.9</ele>
        <time>2020-10-04T10:39:20Z</time>
      </trkpt>
      <trkpt lat="40.1183080" lon="-4.6568410">
        <ele>557.8</ele>
        <time>2020-10-04T10:39:22Z</time>
      </trkpt>
      <trkpt lat="40.1182760" lon="-4.6568510">
        <ele>557.6</ele>
        <time>2020-10-04T10:39:23Z</time>
      </trkpt>
      <trkpt lat="40.1182130" lon="-4.6568600">
        <ele>557.3</ele>
        <time>2020-10-04T10:39:24Z</time>
      </trkpt>
      <trkpt lat="40.1181440" lon="-4.6568650">
        <ele>557.0</ele>
        <time>2020-10-04T10:39:26Z</time>
      </trkpt>
      <trkpt lat="40.1180640" lon="-4.6568730">
        <ele>556.6</ele>
        <time>2020-10-04T10:39:27Z</time>
      </trkpt>
      <trkpt lat="40.1180070" lon="-4.6568790">
        <ele>556.3</ele>
        <time>2020-10-04T10:39:29Z</time>
      </trkpt>
      <trkpt lat="40.1179410" lon="-4.6568830">
        <ele>555.9</ele>
        <time>2020-10-04T10:39:30Z</time>
      </trkpt>
      <trkpt lat="40.1177940" lon="-4.6568780">
        <ele>555.2</ele>
        <time>2020-10-04T10:39:32Z</time>
      </trkpt>
      <trkpt lat="40.1176490" lon="-4.6568620">
        <ele>554.6</ele>
        <time>2020-10-04T10:39:34Z</time>
      </trkpt>
      <trkpt lat="40.1175750" lon="-4.6568510">
        <ele>554.4</ele>
        <time>2020-10-04T10:39:35Z</time>
      </trkpt>
      <trkpt lat="40.1174390" lon="-4.6568030">
        <ele>553.9</ele>
        <time>2020-10-04T10:39:37Z</time>
      </trkpt>
      <trkpt lat="40.1173180" lon="-4.6567490">
        <ele>553.4</ele>
        <time>2020-10-04T10:39:39Z</time>
      </trkpt>
      <trkpt lat="40.1172150" lon="-4.6567040">
        <ele>553.0</ele>
        <time>2020-10-04T10:39:41Z</time>
      </trkpt>
      <trkpt lat="40.1171200" lon="-4.6566510">
        <ele>552.7</ele>
        <time>2020-10-04T10:39:43Z</time>
      </trkpt>
      <trkpt lat="40.1170790" lon="-4.6566230">
        <ele>552.6</ele>
        <time>2020-10-04T10:39:44Z</time>
      </trkpt>
      <trkpt lat="40.1170230" lon="-4.6565740">
        <ele>552.5</ele>
        <time>2020-10-04T10:39:46Z</time>
      </trkpt>
      <trkpt lat="40.1169990" lon="-4.6565470">
        <ele>552.5</ele>
        <time>2020-10-04T10:39:47Z</time>
      </trkpt>
      <trkpt lat="40.1169540" lon="-4.6564890">
        <ele>552.5</ele>
        <time>2020-10-04T10:39:49Z</time>
      </trkpt>
      <trkpt lat="40.1169300" lon="-4.6564590">
        <ele>552.5</ele>
        <time>2020-10-04T10:39:50Z</time>
      </trkpt>
      <trkpt lat="40.1168720" lon="-4.6564110">
        <ele>552.6</ele>
        <time>2020-10-04T10:39:51Z</time>
      </trkpt>
      <trkpt lat="40.1168520" lon="-4.6563760">
        <ele>552.6</ele>
        <time>2020-10-04T10:39:52Z</time>
      </trkpt>
      <trkpt lat="40.1167950" lon="-4.6562710">
        <ele>552.8</ele>
        <time>2020-10-04T10:39:54Z</time>
      </trkpt>
      <trkpt lat="40.1167570" lon="-4.6562070">
        <ele>553.1</ele>
        <time>2020-10-04T10:39:55Z</time>
      </trkpt>
      <trkpt lat="40.1167220" lon="-4.6561480">
        <ele>553.4</ele>
        <time>2020-10-04T10:39:56Z</time>
      </trkpt>
      <trkpt lat="40.1166510" lon="-4.6560590">
        <ele>554.0</ele>
        <time>2020-10-04T10:39:58Z</time>
      </trkpt>
      <trkpt lat="40.1166150" lon="-4.6560190">
        <ele>554.2</ele>
        <time>2020-10-04T10:39:59Z</time>
      </trkpt>
      <trkpt lat="40.1165870" lon="-4.6559910">
        <ele>554.4</ele>
        <time>2020-10-04T10:40:00Z</time>
      </trkpt>
      <trkpt lat="40.1165460" lon="-4.6559600">
        <ele>554.7</ele>
        <time>2020-10-04T10:40:01Z</time>
      </trkpt>
      <trkpt lat="40.1164950" lon="-4.6559290">
        <ele>555.0</ele>
        <time>2020-10-04T10:40:02Z</time>
      </trkpt>
      <trkpt lat="40.1164450" lon="-4.6558980">
        <ele>555.3</ele>
        <time>2020-10-04T10:40:04Z</time>
      </trkpt>
      <trkpt lat="40.1164090" lon="-4.6558780">
        <ele>555.5</ele>
        <time>2020-10-04T10:40:05Z</time>
      </trkpt>
      <trkpt lat="40.1163670" lon="-4.6558590">
        <ele>555.7</ele>
        <time>2020-10-04T10:40:06Z</time>
      </trkpt>
      <trkpt lat="40.1163070" lon="-4.6558320">
        <ele>556.0</ele>
        <time>2020-10-04T10:40:07Z</time>
      </trkpt>
      <trkpt lat="40.1162080" lon="-4.6557870">
        <ele>556.5</ele>
        <time>2020-10-04T10:40:09Z</time>
      </trkpt>
      <trkpt lat="40.1161610" lon="-4.6557640">
        <ele>556.7</ele>
        <time>2020-10-04T10:40:10Z</time>
      </trkpt>
      <trkpt lat="40.1161170" lon="-4.6557420">
        <ele>556.8</ele>
        <time>2020-10-04T10:40:11Z</time>
      </trkpt>
      <trkpt lat="40.1160320" lon="-4.6557010">
        <ele>557.1</ele>
        <time>2020-10-04T10:40:13Z</time>
      </trkpt>
      <trkpt lat="40.1159290" lon="-4.6556580">
        <ele>557.4</ele>
        <time>2020-10-04T10:40:15Z</time>
      </trkpt>
      <trkpt lat="40.1158740" lon="-4.6556400">
        <ele>557.5</ele>
        <time>2020-10-04T10:40:16Z</time>
      </trkpt>
      <trkpt lat="40.1158180" lon="-4.6556210">
        <ele>557.5</ele>
        <time>2020-10-04T10:40:17Z</time>
      </trkpt>
      <trkpt lat="40.1157120" lon="-4.6555730">
        <ele>557.5</ele>
        <time>2020-10-04T10:40:19Z</time>
      </trkpt>
      <trkpt lat="40.1156630" lon="-4.6555380">
        <ele>557.3</ele>
        <time>2020-10-04T10:40:20Z</time>
      </trkpt>
      <trkpt lat="40.1156180" lon="-4.6554990">
        <ele>557.1</ele>
        <time>2020-10-04T10:40:21Z</time>
      </trkpt>
      <trkpt lat="40.1155720" lon="-4.6554590">
        <ele>556.9</ele>
        <time>2020-10-04T10:40:22Z</time>
      </trkpt>
      <trkpt lat="40.1154650" lon="-4.6553820">
        <ele>556.3</ele>
        <time>2020-10-04T10:40:24Z</time>
      </trkpt>
      <trkpt lat="40.1153420" lon="-4.6553040">
        <ele>555.5</ele>
        <time>2020-10-04T10:40:26Z</time>
      </trkpt>
      <trkpt lat="40.1152110" lon="-4.6552280">
        <ele>554.7</ele>
        <time>2020-10-04T10:40:28Z</time>
      </trkpt>
      <trkpt lat="40.1150820" lon="-4.6551320">
        <ele>554.0</ele>
        <time>2020-10-04T10:40:30Z</time>
      </trkpt>
      <trkpt lat="40.1149550" lon="-4.6550560">
        <ele>553.4</ele>
        <time>2020-10-04T10:40:32Z</time>
      </trkpt>
      <trkpt lat="40.1148410" lon="-4.6550220">
        <ele>552.9</ele>
        <time>2020-10-04T10:40:34Z</time>
      </trkpt>
      <trkpt lat="40.1147300" lon="-4.6549560">
        <ele>552.4</ele>
        <time>2020-10-04T10:40:36Z</time>
      </trkpt>
      <trkpt lat="40.1146780" lon="-4.6549010">
        <ele>552.1</ele>
        <time>2020-10-04T10:40:37Z</time>
      </trkpt>
      <trkpt lat="40.1145890" lon="-4.6547630">
        <ele>551.4</ele>
        <time>2020-10-04T10:40:39Z</time>
      </trkpt>
      <trkpt lat="40.1145460" lon="-4.6546870">
        <ele>551.0</ele>
        <time>2020-10-04T10:40:40Z</time>
      </trkpt>
      <trkpt lat="40.1144990" lon="-4.6546130">
        <ele>550.6</ele>
        <time>2020-10-04T10:40:41Z</time>
      </trkpt>
      <trkpt lat="40.1144070" lon="-4.6544610">
        <ele>549.6</ele>
        <time>2020-10-04T10:40:43Z</time>
      </trkpt>
      <trkpt lat="40.1143500" lon="-4.6543960">
        <ele>549.0</ele>
        <time>2020-10-04T10:40:44Z</time>
      </trkpt>
      <trkpt lat="40.1142160" lon="-4.6542760">
        <ele>547.9</ele>
        <time>2020-10-04T10:40:46Z</time>
      </trkpt>
      <trkpt lat="40.1141440" lon="-4.6542050">
        <ele>547.4</ele>
        <time>2020-10-04T10:40:47Z</time>
      </trkpt>
      <trkpt lat="40.1140120" lon="-4.6540370">
        <ele>546.6</ele>
        <time>2020-10-04T10:40:49Z</time>
      </trkpt>
      <trkpt lat="40.1138880" lon="-4.6538650">
        <ele>546.1</ele>
        <time>2020-10-04T10:40:51Z</time>
      </trkpt>
      <trkpt lat="40.1138250" lon="-4.6537810">
        <ele>546.0</ele>
        <time>2020-10-04T10:40:52Z</time>
      </trkpt>
      <trkpt lat="40.1136980" lon="-4.6536450">
        <ele>546.1</ele>
        <time>2020-10-04T10:40:54Z</time>
      </trkpt>
      <trkpt lat="40.1136390" lon="-4.6535810">
        <ele>546.1</ele>
        <time>2020-10-04T10:40:55Z</time>
      </trkpt>
      <trkpt lat="40.1135900" lon="-4.6535060">
        <ele>546.2</ele>
        <time>2020-10-04T10:40:56Z</time>
      </trkpt>
      <trkpt lat="40.1135130" lon="-4.6533480">
        <ele>546.4</ele>
        <time>2020-10-04T10:40:58Z</time>
      </trkpt>
      <trkpt lat="40.1134390" lon="-4.6531970">
        <ele>546.8</ele>
        <time>2020-10-04T10:41:00Z</time>
      </trkpt>
      <trkpt lat="40.1133610" lon="-4.6530540">
        <ele>547.2</ele>
        <time>2020-10-04T10:41:02Z</time>
      </trkpt>
      <trkpt lat="40.1133110" lon="-4.6529050">
        <ele>547.7</ele>
        <time>2020-10-04T10:41:04Z</time>
      </trkpt>
      <trkpt lat="40.1133010" lon="-4.6528250">
        <ele>547.9</ele>
        <time>2020-10-04T10:41:05Z</time>
      </trkpt>
      <trkpt lat="40.1133100" lon="-4.6526710">
        <ele>548.3</ele>
        <time>2020-10-04T10:41:07Z</time>
      </trkpt>
      <trkpt lat="40.1133200" lon="-4.6525950">
        <ele>548.5</ele>
        <time>2020-10-04T10:41:08Z</time>
      </trkpt>
      <trkpt lat="40.1133330" lon="-4.6525210">
        <ele>548.7</ele>
        <time>2020-10-04T10:41:09Z</time>
      </trkpt>
      <trkpt lat="40.1133460" lon="-4.6524510">
        <ele>549.0</ele>
        <time>2020-10-04T10:41:10Z</time>
      </trkpt>
      <trkpt lat="40.1133730" lon="-4.6523080">
        <ele>549.5</ele>
        <time>2020-10-04T10:41:12Z</time>
      </trkpt>
      <trkpt lat="40.1133860" lon="-4.6522350">
        <ele>549.8</ele>
        <time>2020-10-04T10:41:13Z</time>
      </trkpt>
      <trkpt lat="40.1134110" lon="-4.6520920">
        <ele>550.4</ele>
        <time>2020-10-04T10:41:15Z</time>
      </trkpt>
      <trkpt lat="40.1134340" lon="-4.6519530">
        <ele>550.8</ele>
        <time>2020-10-04T10:41:17Z</time>
      </trkpt>
      <trkpt lat="40.1134440" lon="-4.6518830">
        <ele>551.0</ele>
        <time>2020-10-04T10:41:18Z</time>
      </trkpt>
      <trkpt lat="40.1134640" lon="-4.6517410">
        <ele>551.3</ele>
        <time>2020-10-04T10:41:20Z</time>
      </trkpt>
      <trkpt lat="40.1134760" lon="-4.6515930">
        <ele>551.6</ele>
        <time>2020-10-04T10:41:22Z</time>
      </trkpt>
      <trkpt lat="40.1134830" lon="-4.6515160">
        <ele>551.7</ele>
        <time>2020-10-04T10:41:23Z</time>
      </trkpt>
      <trkpt lat="40.1134890" lon="-4.6514430">
        <ele>551.7</ele>
        <time>2020-10-04T10:41:24Z</time>
      </trkpt>
      <trkpt lat="40.1134990" lon="-4.6513040">
        <ele>551.7</ele>
        <time>2020-10-04T10:41:26Z</time>
      </trkpt>
      <trkpt lat="40.1135040" lon="-4.6512330">
        <ele>551.6</ele>
        <time>2020-10-04T10:41:27Z</time>
      </trkpt>
      <trkpt lat="40.1135080" lon="-4.6511620">
        <ele>551.6</ele>
        <time>2020-10-04T10:41:28Z</time>
      </trkpt>
      <trkpt lat="40.1135160" lon="-4.6510080">
        <ele>551.5</ele>
        <time>2020-10-04T10:41:30Z</time>
      </trkpt>
      <trkpt lat="40.1135270" lon="-4.6508490">
        <ele>551.3</ele>
        <time>2020-10-04T10:41:32Z</time>
      </trkpt>
      <trkpt lat="40.1135420" lon="-4.6506970">
        <ele>551.0</ele>
        <time>2020-10-04T10:41:34Z</time>
      </trkpt>
      <trkpt lat="40.1135550" lon="-4.6506260">
        <ele>550.7</ele>
        <time>2020-10-04T10:41:35Z</time>
      </trkpt>
      <trkpt lat="40.1135690" lon="-4.6505570">
        <ele>550.6</ele>
        <time>2020-10-04T10:41:36Z</time>
      </trkpt>
      <trkpt lat="40.1135840" lon="-4.6504870">
        <ele>550.6</ele>
        <time>2020-10-04T10:41:37Z</time>
      </trkpt>
      <trkpt lat="40.1136110" lon="-4.6503410">
        <ele>550.2</ele>
        <time>2020-10-04T10:41:39Z</time>
      </trkpt>
      <trkpt lat="40.1136090" lon="-4.6501850">
        <ele>549.7</ele>
        <time>2020-10-04T10:41:41Z</time>
      </trkpt>
      <trkpt lat="40.1135820" lon="-4.6500140">
        <ele>549.0</ele>
        <time>2020-10-04T10:41:43Z</time>
      </trkpt>
      <trkpt lat="40.1135620" lon="-4.6498370">
        <ele>548.1</ele>
        <time>2020-10-04T10:41:45Z</time>
      </trkpt>
      <trkpt lat="40.1135510" lon="-4.6496410">
        <ele>547.3</ele>
        <time>2020-10-04T10:41:47Z</time>
      </trkpt>
      <trkpt lat="40.1135510" lon="-4.6495340">
        <ele>547.1</ele>
        <time>2020-10-04T10:41:48Z</time>
      </trkpt>
      <trkpt lat="40.1135480" lon="-4.6493170">
        <ele>547.0</ele>
        <time>2020-10-04T10:41:50Z</time>
      </trkpt>
      <trkpt lat="40.1135460" lon="-4.6492090">
        <ele>547.2</ele>
        <time>2020-10-04T10:41:51Z</time>
      </trkpt>
      <trkpt lat="40.1135440" lon="-4.6490080">
        <ele>547.9</ele>
        <time>2020-10-04T10:41:53Z</time>
      </trkpt>
      <trkpt lat="40.1135430" lon="-4.6489200">
        <ele>548.3</ele>
        <time>2020-10-04T10:41:54Z</time>
      </trkpt>
      <trkpt lat="40.1135360" lon="-4.6487650">
        <ele>549.0</ele>
        <time>2020-10-04T10:41:56Z</time>
      </trkpt>
      <trkpt lat="40.1135250" lon="-4.6486960">
        <ele>549.3</ele>
        <time>2020-10-04T10:41:57Z</time>
      </trkpt>
      <trkpt lat="40.1135100" lon="-4.6486310">
        <ele>549.6</ele>
        <time>2020-10-04T10:41:58Z</time>
      </trkpt>
      <trkpt lat="40.1134770" lon="-4.6485300">
        <ele>549.6</ele>
        <time>2020-10-04T10:42:00Z</time>
      </trkpt>
      <trkpt lat="40.1134430" lon="-4.6484400">
        <ele>549.0</ele>
        <time>2020-10-04T10:42:02Z</time>
      </trkpt>
      <trkpt lat="40.1133960" lon="-4.6483240">
        <ele>548.1</ele>
        <time>2020-10-04T10:42:04Z</time>
      </trkpt>
      <trkpt lat="40.1133620" lon="-4.6482540">
        <ele>547.4</ele>
        <time>2020-10-04T10:42:05Z</time>
      </trkpt>
      <trkpt lat="40.1132640" lon="-4.6480990">
        <ele>545.5</ele>
        <time>2020-10-04T10:42:07Z</time>
      </trkpt>
      <trkpt lat="40.1131330" lon="-4.6479420">
        <ele>543.3</ele>
        <time>2020-10-04T10:42:09Z</time>
      </trkpt>
      <trkpt lat="40.1130620" lon="-4.6478680">
        <ele>542.2</ele>
        <time>2020-10-04T10:42:10Z</time>
      </trkpt>
      <trkpt lat="40.1129150" lon="-4.6477300">
        <ele>540.3</ele>
        <time>2020-10-04T10:42:12Z</time>
      </trkpt>
      <trkpt lat="40.1128400" lon="-4.6476740">
        <ele>539.5</ele>
        <time>2020-10-04T10:42:13Z</time>
      </trkpt>
      <trkpt lat="40.1127590" lon="-4.6476470">
        <ele>538.9</ele>
        <time>2020-10-04T10:42:14Z</time>
      </trkpt>
      <trkpt lat="40.1125810" lon="-4.6476790">
        <ele>538.0</ele>
        <time>2020-10-04T10:42:16Z</time>
      </trkpt>
      <trkpt lat="40.1124110" lon="-4.6477380">
        <ele>537.2</ele>
        <time>2020-10-04T10:42:18Z</time>
      </trkpt>
      <trkpt lat="40.1123300" lon="-4.6477680">
        <ele>536.7</ele>
        <time>2020-10-04T10:42:19Z</time>
      </trkpt>
      <trkpt lat="40.1121800" lon="-4.6478600">
        <ele>535.6</ele>
        <time>2020-10-04T10:42:21Z</time>
      </trkpt>
      <trkpt lat="40.1120190" lon="-4.6479440">
        <ele>534.8</ele>
        <time>2020-10-04T10:42:23Z</time>
      </trkpt>
      <trkpt lat="40.1119300" lon="-4.6479650">
        <ele>534.5</ele>
        <time>2020-10-04T10:42:24Z</time>
      </trkpt>
      <trkpt lat="40.1117520" lon="-4.6479910">
        <ele>534.0</ele>
        <time>2020-10-04T10:42:26Z</time>
      </trkpt>
      <trkpt lat="40.1115810" lon="-4.6480380">
        <ele>533.3</ele>
        <time>2020-10-04T10:42:28Z</time>
      </trkpt>
      <trkpt lat="40.1114140" lon="-4.6480990">
        <ele>531.9</ele>
        <time>2020-10-04T10:42:30Z</time>
      </trkpt>
      <trkpt lat="40.1113290" lon="-4.6481130">
        <ele>531.2</ele>
        <time>2020-10-04T10:42:31Z</time>
      </trkpt>
      <trkpt lat="40.1111580" lon="-4.6480960">
        <ele>529.6</ele>
        <time>2020-10-04T10:42:33Z</time>
      </trkpt>
      <trkpt lat="40.1109990" lon="-4.6479850">
        <ele>528.2</ele>
        <time>2020-10-04T10:42:35Z</time>
      </trkpt>
      <trkpt lat="40.1108430" lon="-4.6478330">
        <ele>527.0</ele>
        <time>2020-10-04T10:42:37Z</time>
      </trkpt>
      <trkpt lat="40.1107620" lon="-4.6477620">
        <ele>526.4</ele>
        <time>2020-10-04T10:42:38Z</time>
      </trkpt>
      <trkpt lat="40.1106700" lon="-4.6477240">
        <ele>525.9</ele>
        <time>2020-10-04T10:42:39Z</time>
      </trkpt>
      <trkpt lat="40.1104700" lon="-4.6477010">
        <ele>524.9</ele>
        <time>2020-10-04T10:42:41Z</time>
      </trkpt>
      <trkpt lat="40.1103690" lon="-4.6476860">
        <ele>524.3</ele>
        <time>2020-10-04T10:42:42Z</time>
      </trkpt>
      <trkpt lat="40.1102750" lon="-4.6476820">
        <ele>523.6</ele>
        <time>2020-10-04T10:42:43Z</time>
      </trkpt>
      <trkpt lat="40.1101900" lon="-4.6477020">
        <ele>522.7</ele>
        <time>2020-10-04T10:42:44Z</time>
      </trkpt>
      <trkpt lat="40.1101130" lon="-4.6477380">
        <ele>521.8</ele>
        <time>2020-10-04T10:42:45Z</time>
      </trkpt>
      <trkpt lat="40.1099350" lon="-4.6478240">
        <ele>519.8</ele>
        <time>2020-10-04T10:42:47Z</time>
      </trkpt>
      <trkpt lat="40.1097220" lon="-4.6478930">
        <ele>518.1</ele>
        <time>2020-10-04T10:42:49Z</time>
      </trkpt>
      <trkpt lat="40.1095250" lon="-4.6480030">
        <ele>517.1</ele>
        <time>2020-10-04T10:42:51Z</time>
      </trkpt>
      <trkpt lat="40.1093550" lon="-4.6481600">
        <ele>516.9</ele>
        <time>2020-10-04T10:42:53Z</time>
      </trkpt>
      <trkpt lat="40.1092760" lon="-4.6482370">
        <ele>516.8</ele>
        <time>2020-10-04T10:42:54Z</time>
      </trkpt>
      <trkpt lat="40.1092010" lon="-4.6483060">
        <ele>516.7</ele>
        <time>2020-10-04T10:42:55Z</time>
      </trkpt>
      <trkpt lat="40.1090700" lon="-4.6484470">
        <ele>516.3</ele>
        <time>2020-10-04T10:42:57Z</time>
      </trkpt>
      <trkpt lat="40.1090090" lon="-4.6485200">
        <ele>516.0</ele>
        <time>2020-10-04T10:42:58Z</time>
      </trkpt>
      <trkpt lat="40.1088640" lon="-4.6486100">
        <ele>515.1</ele>
        <time>2020-10-04T10:43:00Z</time>
      </trkpt>
      <trkpt lat="40.1086940" lon="-4.6486100">
        <ele>513.9</ele>
        <time>2020-10-04T10:43:02Z</time>
      </trkpt>
      <trkpt lat="40.1085180" lon="-4.6486040">
        <ele>512.6</ele>
        <time>2020-10-04T10:43:04Z</time>
      </trkpt>
      <trkpt lat="40.1083440" lon="-4.6486060">
        <ele>511.4</ele>
        <time>2020-10-04T10:43:06Z</time>
      </trkpt>
      <trkpt lat="40.1082560" lon="-4.6486100">
        <ele>510.8</ele>
        <time>2020-10-04T10:43:07Z</time>
      </trkpt>
      <trkpt lat="40.1080750" lon="-4.6486190">
        <ele>509.5</ele>
        <time>2020-10-04T10:43:09Z</time>
      </trkpt>
      <trkpt lat="40.1079830" lon="-4.6486230">
        <ele>508.7</ele>
        <time>2020-10-04T10:43:10Z</time>
      </trkpt>
      <trkpt lat="40.1077990" lon="-4.6486330">
        <ele>506.4</ele>
        <time>2020-10-04T10:43:12Z</time>
      </trkpt>
      <trkpt lat="40.1077010" lon="-4.6486440">
        <ele>505.1</ele>
        <time>2020-10-04T10:43:13Z</time>
      </trkpt>
      <trkpt lat="40.1075070" lon="-4.6486760">
        <ele>502.6</ele>
        <time>2020-10-04T10:43:15Z</time>
      </trkpt>
      <trkpt lat="40.1074160" lon="-4.6486990">
        <ele>501.5</ele>
        <time>2020-10-04T10:43:16Z</time>
      </trkpt>
      <trkpt lat="40.1072530" lon="-4.6487460">
        <ele>499.8</ele>
        <time>2020-10-04T10:43:18Z</time>
      </trkpt>
      <trkpt lat="40.1071030" lon="-4.6487820">
        <ele>498.4</ele>
        <time>2020-10-04T10:43:20Z</time>
      </trkpt>
      <trkpt lat="40.1069400" lon="-4.6488110">
        <ele>496.9</ele>
        <time>2020-10-04T10:43:22Z</time>
      </trkpt>
      <trkpt lat="40.1068570" lon="-4.6488200">
        <ele>495.5</ele>
        <time>2020-10-04T10:43:23Z</time>
      </trkpt>
      <trkpt lat="40.1067790" lon="-4.6488320">
        <ele>494.7</ele>
        <time>2020-10-04T10:43:24Z</time>
      </trkpt>
      <trkpt lat="40.1066720" lon="-4.6487980">
        <ele>493.4</ele>
        <time>2020-10-04T10:43:26Z</time>
      </trkpt>
      <trkpt lat="40.1066550" lon="-4.6487360">
        <ele>492.8</ele>
        <time>2020-10-04T10:43:27Z</time>
      </trkpt>
      <trkpt lat="40.1067200" lon="-4.6486200">
        <ele>491.5</ele>
        <time>2020-10-04T10:43:29Z</time>
      </trkpt>
      <trkpt lat="40.1067580" lon="-4.6485610">
        <ele>490.9</ele>
        <time>2020-10-04T10:43:30Z</time>
      </trkpt>
      <trkpt lat="40.1067340" lon="-4.6484530">
        <ele>490.0</ele>
        <time>2020-10-04T10:43:32Z</time>
      </trkpt>
      <trkpt lat="40.1066330" lon="-4.6483550">
        <ele>488.7</ele>
        <time>2020-10-04T10:43:34Z</time>
      </trkpt>
      <trkpt lat="40.1065690" lon="-4.6482940">
        <ele>487.8</ele>
        <time>2020-10-04T10:43:35Z</time>
      </trkpt>
      <trkpt lat="40.1065060" lon="-4.6482110">
        <ele>486.8</ele>
        <time>2020-10-04T10:43:36Z</time>
      </trkpt>
      <trkpt lat="40.1063820" lon="-4.6479930">
        <ele>484.9</ele>
        <time>2020-10-04T10:43:38Z</time>
      </trkpt>
      <trkpt lat="40.1063260" lon="-4.6478570">
        <ele>483.9</ele>
        <time>2020-10-04T10:43:39Z</time>
      </trkpt>
      <trkpt lat="40.1062800" lon="-4.6477200">
        <ele>483.0</ele>
        <time>2020-10-04T10:43:40Z</time>
      </trkpt>
      <trkpt lat="40.1061950" lon="-4.6474380">
        <ele>481.5</ele>
        <time>2020-10-04T10:43:42Z</time>
      </trkpt>
      <trkpt lat="40.1060780" lon="-4.6472010">
        <ele>480.5</ele>
        <time>2020-10-04T10:43:44Z</time>
      </trkpt>
      <trkpt lat="40.1060060" lon="-4.6471090">
        <ele>480.1</ele>
        <time>2020-10-04T10:43:45Z</time>
      </trkpt>
      <trkpt lat="40.1058360" lon="-4.6469800">
        <ele>479.4</ele>
        <time>2020-10-04T10:43:47Z</time>
      </trkpt>
      <trkpt lat="40.1056520" lon="-4.6469190">
        <ele>478.9</ele>
        <time>2020-10-04T10:43:49Z</time>
      </trkpt>
      <trkpt lat="40.1055510" lon="-4.6468990">
        <ele>478.5</ele>
        <time>2020-10-04T10:43:50Z</time>
      </trkpt>
      <trkpt lat="40.1053470" lon="-4.6468620">
        <ele>477.6</ele>
        <time>2020-10-04T10:43:52Z</time>
      </trkpt>
      <trkpt lat="40.1051510" lon="-4.6467830">
        <ele>476.7</ele>
        <time>2020-10-04T10:43:54Z</time>
      </trkpt>
      <trkpt lat="40.1049720" lon="-4.6466690">
        <ele>475.9</ele>
        <time>2020-10-04T10:43:56Z</time>
      </trkpt>
      <trkpt lat="40.1048940" lon="-4.6465920">
        <ele>475.6</ele>
        <time>2020-10-04T10:43:57Z</time>
      </trkpt>
      <trkpt lat="40.1048280" lon="-4.6465030">
        <ele>475.2</ele>
        <time>2020-10-04T10:43:58Z</time>
      </trkpt>
      <trkpt lat="40.1047060" lon="-4.6463180">
        <ele>474.2</ele>
        <time>2020-10-04T10:44:00Z</time>
      </trkpt>
      <trkpt lat="40.1046350" lon="-4.6462360">
        <ele>473.5</ele>
        <time>2020-10-04T10:44:01Z</time>
      </trkpt>
      <trkpt lat="40.1045530" lon="-4.6461650">
        <ele>472.8</ele>
        <time>2020-10-04T10:44:02Z</time>
      </trkpt>
      <trkpt lat="40.1044640" lon="-4.6461070">
        <ele>472.1</ele>
        <time>2020-10-04T10:44:03Z</time>
      </trkpt>
      <trkpt lat="40.1043710" lon="-4.6460560">
        <ele>471.7</ele>
        <time>2020-10-04T10:44:04Z</time>
      </trkpt>
      <trkpt lat="40.1041930" lon="-4.6459500">
        <ele>472.7</ele>
        <time>2020-10-04T10:44:06Z</time>
      </trkpt>
      <trkpt lat="40.1041110" lon="-4.6458940">
        <ele>473.2</ele>
        <time>2020-10-04T10:44:07Z</time>
      </trkpt>
      <trkpt lat="40.1039610" lon="-4.6457930">
        <ele>473.5</ele>
        <time>2020-10-04T10:44:09Z</time>
      </trkpt>
      <trkpt lat="40.1038240" lon="-4.6457020">
        <ele>473.6</ele>
        <time>2020-10-04T10:44:11Z</time>
      </trkpt>
      <trkpt lat="40.1037570" lon="-4.6456610">
        <ele>473.5</ele>
        <time>2020-10-04T10:44:12Z</time>
      </trkpt>
      <trkpt lat="40.1036190" lon="-4.6455830">
        <ele>473.5</ele>
        <time>2020-10-04T10:44:14Z</time>
      </trkpt>
      <trkpt lat="40.1034810" lon="-4.6455080">
        <ele>473.5</ele>
        <time>2020-10-04T10:44:16Z</time>
      </trkpt>
      <trkpt lat="40.1034100" lon="-4.6454750">
        <ele>473.5</ele>
        <time>2020-10-04T10:44:17Z</time>
      </trkpt>
      <trkpt lat="40.1032710" lon="-4.6454320">
        <ele>473.4</ele>
        <time>2020-10-04T10:44:19Z</time>
      </trkpt>
      <trkpt lat="40.1032030" lon="-4.6454100">
        <ele>473.4</ele>
        <time>2020-10-04T10:44:20Z</time>
      </trkpt>
      <trkpt lat="40.1030750" lon="-4.6453680">
        <ele>473.3</ele>
        <time>2020-10-04T10:44:22Z</time>
      </trkpt>
      <trkpt lat="40.1030140" lon="-4.6453480">
        <ele>473.3</ele>
        <time>2020-10-04T10:44:23Z</time>
      </trkpt>
      <trkpt lat="40.1028950" lon="-4.6453120">
        <ele>473.3</ele>
        <time>2020-10-04T10:44:25Z</time>
      </trkpt>
      <trkpt lat="40.1028350" lon="-4.6452910">
        <ele>473.3</ele>
        <time>2020-10-04T10:44:26Z</time>
      </trkpt>
      <trkpt lat="40.1027170" lon="-4.6452470">
        <ele>473.3</ele>
        <time>2020-10-04T10:44:28Z</time>
      </trkpt>
      <trkpt lat="40.1025950" lon="-4.6452110">
        <ele>473.3</ele>
        <time>2020-10-04T10:44:30Z</time>
      </trkpt>
      <trkpt lat="40.1025330" lon="-4.6452020">
        <ele>473.3</ele>
        <time>2020-10-04T10:44:31Z</time>
      </trkpt>
      <trkpt lat="40.1024710" lon="-4.6452010">
        <ele>473.3</ele>
        <time>2020-10-04T10:44:32Z</time>
      </trkpt>
      <trkpt lat="40.1024090" lon="-4.6452060">
        <ele>473.4</ele>
        <time>2020-10-04T10:44:33Z</time>
      </trkpt>
      <trkpt lat="40.1023480" lon="-4.6452130">
        <ele>473.4</ele>
        <time>2020-10-04T10:44:34Z</time>
      </trkpt>
      <trkpt lat="40.1022340" lon="-4.6452380">
        <ele>473.5</ele>
        <time>2020-10-04T10:44:36Z</time>
      </trkpt>
      <trkpt lat="40.1021760" lon="-4.6452540">
        <ele>473.5</ele>
        <time>2020-10-04T10:44:37Z</time>
      </trkpt>
      <trkpt lat="40.1020620" lon="-4.6452840">
        <ele>473.7</ele>
        <time>2020-10-04T10:44:39Z</time>
      </trkpt>
      <trkpt lat="40.1019520" lon="-4.6453080">
        <ele>473.9</ele>
        <time>2020-10-04T10:44:41Z</time>
      </trkpt>
      <trkpt lat="40.1018500" lon="-4.6453350">
        <ele>474.1</ele>
        <time>2020-10-04T10:44:43Z</time>
      </trkpt>
      <trkpt lat="40.1018040" lon="-4.6453460">
        <ele>474.2</ele>
        <time>2020-10-04T10:44:44Z</time>
      </trkpt>
      <trkpt lat="40.1017610" lon="-4.6453550">
        <ele>474.4</ele>
        <time>2020-10-04T10:44:45Z</time>
      </trkpt>
      <trkpt lat="40.1017190" lon="-4.6453650">
        <ele>474.5</ele>
        <time>2020-10-04T10:44:46Z</time>
      </trkpt>
      <trkpt lat="40.1016530" lon="-4.6453790">
        <ele>474.7</ele>
        <time>2020-10-04T10:44:48Z</time>
      </trkpt>
      <trkpt lat="40.1016120" lon="-4.6453930">
        <ele>474.8</ele>
        <time>2020-10-04T10:44:49Z</time>
      </trkpt>
      <trkpt lat="40.1015440" lon="-4.6454370">
        <ele>475.2</ele>
        <time>2020-10-04T10:44:51Z</time>
      </trkpt>
      <trkpt lat="40.1015170" lon="-4.6454640">
        <ele>475.3</ele>
        <time>2020-10-04T10:44:52Z</time>
      </trkpt>
      <trkpt lat="40.1014870" lon="-4.6454910">
        <ele>475.5</ele>
        <time>2020-10-04T10:44:53Z</time>
      </trkpt>
      <trkpt lat="40.1014580" lon="-4.6455410">
        <ele>475.7</ele>
        <time>2020-10-04T10:44:54Z</time>
      </trkpt>
      <trkpt lat="40.1014030" lon="-4.6455800">
        <ele>475.9</ele>
        <time>2020-10-04T10:44:55Z</time>
      </trkpt>
      <trkpt lat="40.1013550" lon="-4.6456040">
        <ele>476.2</ele>
        <time>2020-10-04T10:44:56Z</time>
      </trkpt>
      <trkpt lat="40.1013020" lon="-4.6456400">
        <ele>476.4</ele>
        <time>2020-10-04T10:44:58Z</time>
      </trkpt>
      <trkpt lat="40.1012640" lon="-4.6456690">
        <ele>476.6</ele>
        <time>2020-10-04T10:44:59Z</time>
      </trkpt>
      <trkpt lat="40.1011860" lon="-4.6457290">
        <ele>476.9</ele>
        <time>2020-10-04T10:45:00Z</time>
      </trkpt>
      <trkpt lat="40.1011360" lon="-4.6457590">
        <ele>477.1</ele>
        <time>2020-10-04T10:45:02Z</time>
      </trkpt>
      <trkpt lat="40.1010960" lon="-4.6457820">
        <ele>477.2</ele>
        <time>2020-10-04T10:45:03Z</time>
      </trkpt>
      <trkpt lat="40.1010340" lon="-4.6458160">
        <ele>477.2</ele>
        <time>2020-10-04T10:45:04Z</time>
      </trkpt>
      <trkpt lat="40.1009930" lon="-4.6458340">
        <ele>477.2</ele>
        <time>2020-10-04T10:45:06Z</time>
      </trkpt>
      <trkpt lat="40.1009640" lon="-4.6458430">
        <ele>477.3</ele>
        <time>2020-10-04T10:45:07Z</time>
      </trkpt>
      <trkpt lat="40.1009140" lon="-4.6458600">
        <ele>477.3</ele>
        <time>2020-10-04T10:45:08Z</time>
      </trkpt>
      <trkpt lat="40.1008600" lon="-4.6458750">
        <ele>477.5</ele>
        <time>2020-10-04T10:45:10Z</time>
      </trkpt>
      <trkpt lat="40.1008240" lon="-4.6458850">
        <ele>477.5</ele>
        <time>2020-10-04T10:45:11Z</time>
      </trkpt>
      <trkpt lat="40.1007590" lon="-4.6459140">
        <ele>477.6</ele>
        <time>2020-10-04T10:45:13Z</time>
      </trkpt>
      <trkpt lat="40.1007030" lon="-4.6459480">
        <ele>477.7</ele>
        <time>2020-10-04T10:45:14Z</time>
      </trkpt>
      <trkpt lat="40.1006550" lon="-4.6459860">
        <ele>477.7</ele>
        <time>2020-10-04T10:45:16Z</time>
      </trkpt>
      <trkpt lat="40.1005820" lon="-4.6460330">
        <ele>477.7</ele>
        <time>2020-10-04T10:45:18Z</time>
      </trkpt>
      <trkpt lat="40.1005400" lon="-4.6460540">
        <ele>477.7</ele>
        <time>2020-10-04T10:45:19Z</time>
      </trkpt>
      <trkpt lat="40.1004730" lon="-4.6460630">
        <ele>477.5</ele>
        <time>2020-10-04T10:45:21Z</time>
      </trkpt>
      <trkpt lat="40.1004370" lon="-4.6460500">
        <ele>477.3</ele>
        <time>2020-10-04T10:45:22Z</time>
      </trkpt>
      <trkpt lat="40.1003870" lon="-4.6460320">
        <ele>476.9</ele>
        <time>2020-10-04T10:45:23Z</time>
      </trkpt>
      <trkpt lat="40.1003210" lon="-4.6460030">
        <ele>476.4</ele>
        <time>2020-10-04T10:45:24Z</time>
      </trkpt>
      <trkpt lat="40.1002630" lon="-4.6459780">
        <ele>475.7</ele>
        <time>2020-10-04T10:45:25Z</time>
      </trkpt>
      <trkpt lat="40.1001890" lon="-4.6459590">
        <ele>474.9</ele>
        <time>2020-10-04T10:45:27Z</time>
      </trkpt>
      <trkpt lat="40.1000860" lon="-4.6459520">
        <ele>473.6</ele>
        <time>2020-10-04T10:45:28Z</time>
      </trkpt>
      <trkpt lat="40.0999140" lon="-4.6459480">
        <ele>472.0</ele>
        <time>2020-10-04T10:45:30Z</time>
      </trkpt>
      <trkpt lat="40.0998190" lon="-4.6459350">
        <ele>471.6</ele>
        <time>2020-10-04T10:45:31Z</time>
      </trkpt>
      <trkpt lat="40.0996360" lon="-4.6458720">
        <ele>470.5</ele>
        <time>2020-10-04T10:45:33Z</time>
      </trkpt>
      <trkpt lat="40.0995480" lon="-4.6458340">
        <ele>470.0</ele>
        <time>2020-10-04T10:45:34Z</time>
      </trkpt>
      <trkpt lat="40.0993710" lon="-4.6457510">
        <ele>468.9</ele>
        <time>2020-10-04T10:45:36Z</time>
      </trkpt>
      <trkpt lat="40.0991980" lon="-4.6456710">
        <ele>468.0</ele>
        <time>2020-10-04T10:45:38Z</time>
      </trkpt>
      <trkpt lat="40.0990340" lon="-4.6455980">
        <ele>467.8</ele>
        <time>2020-10-04T10:45:40Z</time>
      </trkpt>
      <trkpt lat="40.0989520" lon="-4.6455700">
        <ele>467.7</ele>
        <time>2020-10-04T10:45:41Z</time>
      </trkpt>
      <trkpt lat="40.0988810" lon="-4.6455460">
        <ele>467.5</ele>
        <time>2020-10-04T10:45:42Z</time>
      </trkpt>
      <trkpt lat="40.0988250" lon="-4.6455190">
        <ele>467.3</ele>
        <time>2020-10-04T10:45:43Z</time>
      </trkpt>
      <trkpt lat="40.0987760" lon="-4.6454910">
        <ele>467.1</ele>
        <time>2020-10-04T10:45:44Z</time>
      </trkpt>
      <trkpt lat="40.0986970" lon="-4.6454430">
        <ele>466.8</ele>
        <time>2020-10-04T10:45:46Z</time>
      </trkpt>
      <trkpt lat="40.0986760" lon="-4.6454320">
        <ele>466.8</ele>
        <time>2020-10-04T10:45:47Z</time>
      </trkpt>
      <trkpt lat="40.0986520" lon="-4.6454110">
        <ele>466.7</ele>
        <time>2020-10-04T10:45:49Z</time>
      </trkpt>
      <trkpt lat="40.0986640" lon="-4.6454200">
        <ele>466.6</ele>
        <time>2020-10-04T10:45:51Z</time>
      </trkpt>
      <trkpt lat="40.0986660" lon="-4.6454220">
        <ele>466.6</ele>
        <time>2020-10-04T10:45:53Z</time>
      </trkpt>
      <trkpt lat="40.0986670" lon="-4.6454220">
        <ele>466.6</ele>
        <time>2020-10-04T10:45:54Z</time>
      </trkpt>
      <trkpt lat="40.0986670" lon="-4.6454220">
        <ele>466.6</ele>
        <time>2020-10-04T10:45:55Z</time>
      </trkpt>
      <trkpt lat="40.0986670" lon="-4.6454230">
        <ele>466.6</ele>
        <time>2020-10-04T10:45:57Z</time>
      </trkpt>
      <trkpt lat="40.0986340" lon="-4.6453530">
        <ele>466.4</ele>
        <time>2020-10-04T10:47:38Z</time>
      </trkpt>
      <trkpt lat="40.0986360" lon="-4.6453460">
        <ele>466.4</ele>
        <time>2020-10-04T10:47:39Z</time>
      </trkpt>
      <trkpt lat="40.0986310" lon="-4.6453310">
        <ele>466.3</ele>
        <time>2020-10-04T10:47:41Z</time>
      </trkpt>
      <trkpt lat="40.0985540" lon="-4.6452660">
        <ele>465.9</ele>
        <time>2020-10-04T10:47:43Z</time>
      </trkpt>
      <trkpt lat="40.0985360" lon="-4.6452660">
        <ele>465.8</ele>
        <time>2020-10-04T10:47:44Z</time>
      </trkpt>
      <trkpt lat="40.0985290" lon="-4.6452570">
        <ele>465.8</ele>
        <time>2020-10-04T10:47:45Z</time>
      </trkpt>
      <trkpt lat="40.0985210" lon="-4.6452490">
        <ele>465.8</ele>
        <time>2020-10-04T10:47:47Z</time>
      </trkpt>
      <trkpt lat="40.0985140" lon="-4.6452410">
        <ele>465.8</ele>
        <time>2020-10-04T10:47:48Z</time>
      </trkpt>
      <trkpt lat="40.0983590" lon="-4.6451560">
        <ele>465.7</ele>
        <time>2020-10-04T10:47:49Z</time>
      </trkpt>
      <trkpt lat="40.0982760" lon="-4.6451210">
        <ele>464.9</ele>
        <time>2020-10-04T10:47:51Z</time>
      </trkpt>
      <trkpt lat="40.0981830" lon="-4.6450680">
        <ele>464.5</ele>
        <time>2020-10-04T10:47:52Z</time>
      </trkpt>
      <trkpt lat="40.0980960" lon="-4.6450200">
        <ele>464.1</ele>
        <time>2020-10-04T10:47:54Z</time>
      </trkpt>
      <trkpt lat="40.0980350" lon="-4.6449860">
        <ele>463.8</ele>
        <time>2020-10-04T10:47:55Z</time>
      </trkpt>
      <trkpt lat="40.0979630" lon="-4.6449440">
        <ele>463.4</ele>
        <time>2020-10-04T10:47:56Z</time>
      </trkpt>
      <trkpt lat="40.0979080" lon="-4.6449160">
        <ele>463.1</ele>
        <time>2020-10-04T10:47:58Z</time>
      </trkpt>
      <trkpt lat="40.0978460" lon="-4.6448750">
        <ele>462.9</ele>
        <time>2020-10-04T10:47:59Z</time>
      </trkpt>
      <trkpt lat="40.0977640" lon="-4.6448220">
        <ele>462.5</ele>
        <time>2020-10-04T10:48:00Z</time>
      </trkpt>
      <trkpt lat="40.0976370" lon="-4.6447300">
        <ele>462.3</ele>
        <time>2020-10-04T10:48:02Z</time>
      </trkpt>
      <trkpt lat="40.0975110" lon="-4.6446590">
        <ele>462.1</ele>
        <time>2020-10-04T10:48:04Z</time>
      </trkpt>
      <trkpt lat="40.0974450" lon="-4.6446410">
        <ele>462.0</ele>
        <time>2020-10-04T10:48:05Z</time>
      </trkpt>
      <trkpt lat="40.0973800" lon="-4.6446290">
        <ele>461.9</ele>
        <time>2020-10-04T10:48:06Z</time>
      </trkpt>
      <trkpt lat="40.0972520" lon="-4.6446060">
        <ele>461.8</ele>
        <time>2020-10-04T10:48:08Z</time>
      </trkpt>
      <trkpt lat="40.0971920" lon="-4.6445980">
        <ele>461.7</ele>
        <time>2020-10-04T10:48:09Z</time>
      </trkpt>
      <trkpt lat="40.0971340" lon="-4.6445960">
        <ele>461.7</ele>
        <time>2020-10-04T10:48:10Z</time>
      </trkpt>
      <trkpt lat="40.0970220" lon="-4.6445910">
        <ele>461.6</ele>
        <time>2020-10-04T10:48:12Z</time>
      </trkpt>
      <trkpt lat="40.0969050" lon="-4.6445900">
        <ele>461.5</ele>
        <time>2020-10-04T10:48:14Z</time>
      </trkpt>
      <trkpt lat="40.0967850" lon="-4.6445850">
        <ele>461.5</ele>
        <time>2020-10-04T10:48:16Z</time>
      </trkpt>
      <trkpt lat="40.0967210" lon="-4.6445800">
        <ele>461.4</ele>
        <time>2020-10-04T10:48:17Z</time>
      </trkpt>
      <trkpt lat="40.0965940" lon="-4.6445640">
        <ele>461.4</ele>
        <time>2020-10-04T10:48:19Z</time>
      </trkpt>
      <trkpt lat="40.0965290" lon="-4.6445590">
        <ele>461.4</ele>
        <time>2020-10-04T10:48:20Z</time>
      </trkpt>
      <trkpt lat="40.0964010" lon="-4.6445470">
        <ele>461.4</ele>
        <time>2020-10-04T10:48:22Z</time>
      </trkpt>
      <trkpt lat="40.0962760" lon="-4.6445260">
        <ele>461.5</ele>
        <time>2020-10-04T10:48:24Z</time>
      </trkpt>
      <trkpt lat="40.0961630" lon="-4.6445000">
        <ele>461.7</ele>
        <time>2020-10-04T10:48:26Z</time>
      </trkpt>
      <trkpt lat="40.0960620" lon="-4.6444800">
        <ele>461.8</ele>
        <time>2020-10-04T10:48:28Z</time>
      </trkpt>
      <trkpt lat="40.0959700" lon="-4.6444620">
        <ele>462.0</ele>
        <time>2020-10-04T10:48:30Z</time>
      </trkpt>
      <trkpt lat="40.0959260" lon="-4.6444610">
        <ele>462.0</ele>
        <time>2020-10-04T10:48:31Z</time>
      </trkpt>
      <trkpt lat="40.0958410" lon="-4.6444600">
        <ele>462.1</ele>
        <time>2020-10-04T10:48:33Z</time>
      </trkpt>
      <trkpt lat="40.0957970" lon="-4.6444670">
        <ele>462.0</ele>
        <time>2020-10-04T10:48:34Z</time>
      </trkpt>
      <trkpt lat="40.0957130" lon="-4.6444970">
        <ele>461.9</ele>
        <time>2020-10-04T10:48:36Z</time>
      </trkpt>
      <trkpt lat="40.0956810" lon="-4.6445130">
        <ele>461.8</ele>
        <time>2020-10-04T10:48:37Z</time>
      </trkpt>
      <trkpt lat="40.0956480" lon="-4.6445270">
        <ele>461.6</ele>
        <time>2020-10-04T10:48:38Z</time>
      </trkpt>
      <trkpt lat="40.0955630" lon="-4.6445660">
        <ele>461.2</ele>
        <time>2020-10-04T10:48:40Z</time>
      </trkpt>
      <trkpt lat="40.0955260" lon="-4.6445810">
        <ele>461.0</ele>
        <time>2020-10-04T10:48:41Z</time>
      </trkpt>
      <trkpt lat="40.0954740" lon="-4.6446040">
        <ele>460.6</ele>
        <time>2020-10-04T10:48:42Z</time>
      </trkpt>
      <trkpt lat="40.0954210" lon="-4.6446240">
        <ele>460.2</ele>
        <time>2020-10-04T10:48:43Z</time>
      </trkpt>
      <trkpt lat="40.0953650" lon="-4.6446460">
        <ele>459.8</ele>
        <time>2020-10-04T10:48:44Z</time>
      </trkpt>
      <trkpt lat="40.0952460" lon="-4.6446960">
        <ele>458.8</ele>
        <time>2020-10-04T10:48:46Z</time>
      </trkpt>
      <trkpt lat="40.0951810" lon="-4.6447240">
        <ele>458.3</ele>
        <time>2020-10-04T10:48:47Z</time>
      </trkpt>
      <trkpt lat="40.0950430" lon="-4.6447760">
        <ele>457.4</ele>
        <time>2020-10-04T10:48:49Z</time>
      </trkpt>
      <trkpt lat="40.0948910" lon="-4.6448350">
        <ele>456.5</ele>
        <time>2020-10-04T10:48:51Z</time>
      </trkpt>
      <trkpt lat="40.0947300" lon="-4.6448780">
        <ele>456.1</ele>
        <time>2020-10-04T10:48:53Z</time>
      </trkpt>
      <trkpt lat="40.0945740" lon="-4.6449120">
        <ele>455.9</ele>
        <time>2020-10-04T10:48:55Z</time>
      </trkpt>
      <trkpt lat="40.0945000" lon="-4.6449280">
        <ele>455.8</ele>
        <time>2020-10-04T10:48:56Z</time>
      </trkpt>
      <trkpt lat="40.0943570" lon="-4.6449290">
        <ele>455.6</ele>
        <time>2020-10-04T10:48:58Z</time>
      </trkpt>
      <trkpt lat="40.0942920" lon="-4.6449290">
        <ele>455.5</ele>
        <time>2020-10-04T10:48:59Z</time>
      </trkpt>
      <trkpt lat="40.0941660" lon="-4.6449420">
        <ele>455.4</ele>
        <time>2020-10-04T10:49:01Z</time>
      </trkpt>
      <trkpt lat="40.0940430" lon="-4.6449640">
        <ele>455.2</ele>
        <time>2020-10-04T10:49:03Z</time>
      </trkpt>
      <trkpt lat="40.0939220" lon="-4.6449900">
        <ele>455.1</ele>
        <time>2020-10-04T10:49:05Z</time>
      </trkpt>
      <trkpt lat="40.0938020" lon="-4.6450240">
        <ele>455.1</ele>
        <time>2020-10-04T10:49:07Z</time>
      </trkpt>
      <trkpt lat="40.0937420" lon="-4.6450430">
        <ele>455.0</ele>
        <time>2020-10-04T10:49:08Z</time>
      </trkpt>
      <trkpt lat="40.0936810" lon="-4.6450620">
        <ele>455.0</ele>
        <time>2020-10-04T10:49:09Z</time>
      </trkpt>
      <trkpt lat="40.0936190" lon="-4.6450810">
        <ele>454.9</ele>
        <time>2020-10-04T10:49:10Z</time>
      </trkpt>
      <trkpt lat="40.0935000" lon="-4.6451220">
        <ele>454.8</ele>
        <time>2020-10-04T10:49:12Z</time>
      </trkpt>
      <trkpt lat="40.0934460" lon="-4.6451520">
        <ele>454.7</ele>
        <time>2020-10-04T10:49:13Z</time>
      </trkpt>
      <trkpt lat="40.0933900" lon="-4.6451780">
        <ele>454.6</ele>
        <time>2020-10-04T10:49:14Z</time>
      </trkpt>
      <trkpt lat="40.0932730" lon="-4.6452140">
        <ele>454.4</ele>
        <time>2020-10-04T10:49:16Z</time>
      </trkpt>
      <trkpt lat="40.0932100" lon="-4.6452260">
        <ele>454.2</ele>
        <time>2020-10-04T10:49:17Z</time>
      </trkpt>
      <trkpt lat="40.0931450" lon="-4.6452350">
        <ele>454.0</ele>
        <time>2020-10-04T10:49:18Z</time>
      </trkpt>
      <trkpt lat="40.0930790" lon="-4.6452410">
        <ele>453.8</ele>
        <time>2020-10-04T10:49:19Z</time>
      </trkpt>
      <trkpt lat="40.0930110" lon="-4.6452430">
        <ele>453.6</ele>
        <time>2020-10-04T10:49:20Z</time>
      </trkpt>
      <trkpt lat="40.0928810" lon="-4.6452410">
        <ele>453.1</ele>
        <time>2020-10-04T10:49:22Z</time>
      </trkpt>
      <trkpt lat="40.0928190" lon="-4.6452500">
        <ele>452.9</ele>
        <time>2020-10-04T10:49:23Z</time>
      </trkpt>
      <trkpt lat="40.0926940" lon="-4.6453050">
        <ele>452.4</ele>
        <time>2020-10-04T10:49:25Z</time>
      </trkpt>
      <trkpt lat="40.0926310" lon="-4.6453420">
        <ele>452.2</ele>
        <time>2020-10-04T10:49:26Z</time>
      </trkpt>
      <trkpt lat="40.0925170" lon="-4.6454330">
        <ele>451.7</ele>
        <time>2020-10-04T10:49:28Z</time>
      </trkpt>
      <trkpt lat="40.0924050" lon="-4.6455380">
        <ele>451.2</ele>
        <time>2020-10-04T10:49:30Z</time>
      </trkpt>
      <trkpt lat="40.0922940" lon="-4.6456450">
        <ele>450.8</ele>
        <time>2020-10-04T10:49:32Z</time>
      </trkpt>
      <trkpt lat="40.0921810" lon="-4.6457440">
        <ele>450.4</ele>
        <time>2020-10-04T10:49:34Z</time>
      </trkpt>
      <trkpt lat="40.0920710" lon="-4.6458470">
        <ele>449.9</ele>
        <time>2020-10-04T10:49:36Z</time>
      </trkpt>
      <trkpt lat="40.0919640" lon="-4.6459510">
        <ele>449.4</ele>
        <time>2020-10-04T10:49:38Z</time>
      </trkpt>
      <trkpt lat="40.0918460" lon="-4.6460390">
        <ele>449.0</ele>
        <time>2020-10-04T10:49:40Z</time>
      </trkpt>
      <trkpt lat="40.0917830" lon="-4.6460810">
        <ele>448.9</ele>
        <time>2020-10-04T10:49:41Z</time>
      </trkpt>
      <trkpt lat="40.0917190" lon="-4.6461230">
        <ele>448.8</ele>
        <time>2020-10-04T10:49:42Z</time>
      </trkpt>
      <trkpt lat="40.0915970" lon="-4.6462040">
        <ele>448.6</ele>
        <time>2020-10-04T10:49:44Z</time>
      </trkpt>
      <trkpt lat="40.0914770" lon="-4.6462710">
        <ele>448.6</ele>
        <time>2020-10-04T10:49:46Z</time>
      </trkpt>
      <trkpt lat="40.0913530" lon="-4.6463280">
        <ele>448.6</ele>
        <time>2020-10-04T10:49:48Z</time>
      </trkpt>
      <trkpt lat="40.0912360" lon="-4.6463870">
        <ele>448.7</ele>
        <time>2020-10-04T10:49:50Z</time>
      </trkpt>
      <trkpt lat="40.0911340" lon="-4.6464480">
        <ele>448.7</ele>
        <time>2020-10-04T10:49:52Z</time>
      </trkpt>
      <trkpt lat="40.0910870" lon="-4.6464820">
        <ele>448.7</ele>
        <time>2020-10-04T10:49:53Z</time>
      </trkpt>
      <trkpt lat="40.0910430" lon="-4.6465190">
        <ele>448.6</ele>
        <time>2020-10-04T10:49:54Z</time>
      </trkpt>
      <trkpt lat="40.0909480" lon="-4.6465930">
        <ele>448.5</ele>
        <time>2020-10-04T10:49:56Z</time>
      </trkpt>
      <trkpt lat="40.0908960" lon="-4.6466270">
        <ele>448.4</ele>
        <time>2020-10-04T10:49:57Z</time>
      </trkpt>
      <trkpt lat="40.0907940" lon="-4.6467020">
        <ele>448.1</ele>
        <time>2020-10-04T10:49:59Z</time>
      </trkpt>
      <trkpt lat="40.0907420" lon="-4.6467490">
        <ele>448.0</ele>
        <time>2020-10-04T10:50:00Z</time>
      </trkpt>
      <trkpt lat="40.0906920" lon="-4.6467930">
        <ele>447.9</ele>
        <time>2020-10-04T10:50:01Z</time>
      </trkpt>
      <trkpt lat="40.0905930" lon="-4.6468810">
        <ele>447.6</ele>
        <time>2020-10-04T10:50:03Z</time>
      </trkpt>
      <trkpt lat="40.0905410" lon="-4.6469250">
        <ele>447.5</ele>
        <time>2020-10-04T10:50:04Z</time>
      </trkpt>
      <trkpt lat="40.0904320" lon="-4.6470010">
        <ele>447.2</ele>
        <time>2020-10-04T10:50:06Z</time>
      </trkpt>
      <trkpt lat="40.0903750" lon="-4.6470340">
        <ele>447.0</ele>
        <time>2020-10-04T10:50:07Z</time>
      </trkpt>
      <trkpt lat="40.0903140" lon="-4.6470650">
        <ele>446.9</ele>
        <time>2020-10-04T10:50:08Z</time>
      </trkpt>
      <trkpt lat="40.0901900" lon="-4.6471160">
        <ele>446.6</ele>
        <time>2020-10-04T10:50:10Z</time>
      </trkpt>
      <trkpt lat="40.0900600" lon="-4.6471510">
        <ele>446.5</ele>
        <time>2020-10-04T10:50:12Z</time>
      </trkpt>
      <trkpt lat="40.0899220" lon="-4.6471760">
        <ele>446.3</ele>
        <time>2020-10-04T10:50:14Z</time>
      </trkpt>
      <trkpt lat="40.0898520" lon="-4.6471890">
        <ele>446.2</ele>
        <time>2020-10-04T10:50:15Z</time>
      </trkpt>
      <trkpt lat="40.0897190" lon="-4.6472150">
        <ele>446.1</ele>
        <time>2020-10-04T10:50:17Z</time>
      </trkpt>
      <trkpt lat="40.0895930" lon="-4.6472440">
        <ele>446.0</ele>
        <time>2020-10-04T10:50:19Z</time>
      </trkpt>
      <trkpt lat="40.0895310" lon="-4.6472610">
        <ele>446.0</ele>
        <time>2020-10-04T10:50:20Z</time>
      </trkpt>
      <trkpt lat="40.0894070" lon="-4.6472930">
        <ele>445.9</ele>
        <time>2020-10-04T10:50:22Z</time>
      </trkpt>
      <trkpt lat="40.0893450" lon="-4.6472990">
        <ele>445.8</ele>
        <time>2020-10-04T10:50:23Z</time>
      </trkpt>
      <trkpt lat="40.0892860" lon="-4.6473010">
        <ele>445.8</ele>
        <time>2020-10-04T10:50:24Z</time>
      </trkpt>
      <trkpt lat="40.0891670" lon="-4.6472960">
        <ele>445.7</ele>
        <time>2020-10-04T10:50:26Z</time>
      </trkpt>
      <trkpt lat="40.0890470" lon="-4.6472870">
        <ele>445.8</ele>
        <time>2020-10-04T10:50:28Z</time>
      </trkpt>
      <trkpt lat="40.0889240" lon="-4.6472640">
        <ele>445.9</ele>
        <time>2020-10-04T10:50:30Z</time>
      </trkpt>
      <trkpt lat="40.0888660" lon="-4.6472430">
        <ele>446.0</ele>
        <time>2020-10-04T10:50:31Z</time>
      </trkpt>
      <trkpt lat="40.0888090" lon="-4.6472180">
        <ele>446.1</ele>
        <time>2020-10-04T10:50:32Z</time>
      </trkpt>
      <trkpt lat="40.0887560" lon="-4.6471940">
        <ele>446.1</ele>
        <time>2020-10-04T10:50:33Z</time>
      </trkpt>
      <trkpt lat="40.0886590" lon="-4.6471490">
        <ele>446.1</ele>
        <time>2020-10-04T10:50:35Z</time>
      </trkpt>
      <trkpt lat="40.0885980" lon="-4.6471100">
        <ele>446.1</ele>
        <time>2020-10-04T10:50:37Z</time>
      </trkpt>
      <trkpt lat="40.0885440" lon="-4.6470800">
        <ele>446.0</ele>
        <time>2020-10-04T10:50:39Z</time>
      </trkpt>
      <trkpt lat="40.0885230" lon="-4.6470720">
        <ele>446.0</ele>
        <time>2020-10-04T10:50:40Z</time>
      </trkpt>
      <trkpt lat="40.0885050" lon="-4.6470630">
        <ele>446.0</ele>
        <time>2020-10-04T10:50:42Z</time>
      </trkpt>
      <trkpt lat="40.0885120" lon="-4.6470680">
        <ele>446.0</ele>
        <time>2020-10-04T10:50:44Z</time>
      </trkpt>
      <trkpt lat="40.0885140" lon="-4.6470690">
        <ele>446.0</ele>
        <time>2020-10-04T10:50:45Z</time>
      </trkpt>
      <trkpt lat="40.0885130" lon="-4.6470680">
        <ele>446.0</ele>
        <time>2020-10-04T10:50:47Z</time>
      </trkpt>
      <trkpt lat="40.0885130" lon="-4.6470680">
        <ele>446.0</ele>
        <time>2020-10-04T10:50:49Z</time>
      </trkpt>
      <trkpt lat="40.0885130" lon="-4.6470680">
        <ele>446.0</ele>
        <time>2020-10-04T10:50:50Z</time>
      </trkpt>
      <trkpt lat="40.0884840" lon="-4.6470390">
        <ele>445.9</ele>
        <time>2020-10-04T10:52:41Z</time>
      </trkpt>
      <trkpt lat="40.0884810" lon="-4.6470080">
        <ele>445.9</ele>
        <time>2020-10-04T10:52:43Z</time>
      </trkpt>
      <trkpt lat="40.0884640" lon="-4.6470030">
        <ele>445.8</ele>
        <time>2020-10-04T10:52:44Z</time>
      </trkpt>
      <trkpt lat="40.0884070" lon="-4.6469900">
        <ele>445.7</ele>
        <time>2020-10-04T10:52:46Z</time>
      </trkpt>
      <trkpt lat="40.0883800" lon="-4.6469860">
        <ele>445.7</ele>
        <time>2020-10-04T10:52:47Z</time>
      </trkpt>
      <trkpt lat="40.0883330" lon="-4.6469870">
        <ele>445.6</ele>
        <time>2020-10-04T10:52:48Z</time>
      </trkpt>
      <trkpt lat="40.0882150" lon="-4.6469600">
        <ele>445.4</ele>
        <time>2020-10-04T10:52:49Z</time>
      </trkpt>
      <trkpt lat="40.0881520" lon="-4.6469410">
        <ele>445.3</ele>
        <time>2020-10-04T10:52:51Z</time>
      </trkpt>
      <trkpt lat="40.0880950" lon="-4.6469310">
        <ele>445.2</ele>
        <time>2020-10-04T10:52:52Z</time>
      </trkpt>
      <trkpt lat="40.0879970" lon="-4.6469230">
        <ele>445.0</ele>
        <time>2020-10-04T10:52:53Z</time>
      </trkpt>
      <trkpt lat="40.0879470" lon="-4.6469220">
        <ele>444.9</ele>
        <time>2020-10-04T10:52:55Z</time>
      </trkpt>
      <trkpt lat="40.0878730" lon="-4.6469210">
        <ele>444.7</ele>
        <time>2020-10-04T10:52:56Z</time>
      </trkpt>
      <trkpt lat="40.0878140" lon="-4.6469220">
        <ele>444.5</ele>
        <time>2020-10-04T10:52:57Z</time>
      </trkpt>
      <trkpt lat="40.0877550" lon="-4.6469250">
        <ele>444.4</ele>
        <time>2020-10-04T10:52:58Z</time>
      </trkpt>
      <trkpt lat="40.0876400" lon="-4.6469360">
        <ele>444.2</ele>
        <time>2020-10-04T10:53:00Z</time>
      </trkpt>
      <trkpt lat="40.0875830" lon="-4.6469430">
        <ele>444.2</ele>
        <time>2020-10-04T10:53:01Z</time>
      </trkpt>
      <trkpt lat="40.0875270" lon="-4.6469510">
        <ele>444.2</ele>
        <time>2020-10-04T10:53:02Z</time>
      </trkpt>
      <trkpt lat="40.0874700" lon="-4.6469590">
        <ele>444.3</ele>
        <time>2020-10-04T10:53:03Z</time>
      </trkpt>
      <trkpt lat="40.0873560" lon="-4.6469530">
        <ele>444.2</ele>
        <time>2020-10-04T10:53:05Z</time>
      </trkpt>
      <trkpt lat="40.0873020" lon="-4.6469390">
        <ele>444.5</ele>
        <time>2020-10-04T10:53:06Z</time>
      </trkpt>
      <trkpt lat="40.0872080" lon="-4.6469000">
        <ele>445.2</ele>
        <time>2020-10-04T10:53:08Z</time>
      </trkpt>
      <trkpt lat="40.0871220" lon="-4.6468800">
        <ele>445.9</ele>
        <time>2020-10-04T10:53:10Z</time>
      </trkpt>
      <trkpt lat="40.0870960" lon="-4.6468790">
        <ele>446.1</ele>
        <time>2020-10-04T10:53:11Z</time>
      </trkpt>
      <trkpt lat="40.0870090" lon="-4.6468740">
        <ele>446.9</ele>
        <time>2020-10-04T10:53:13Z</time>
      </trkpt>
      <trkpt lat="40.0869770" lon="-4.6468680">
        <ele>447.1</ele>
        <time>2020-10-04T10:53:14Z</time>
      </trkpt>
      <trkpt lat="40.0869080" lon="-4.6468530">
        <ele>447.7</ele>
        <time>2020-10-04T10:53:16Z</time>
      </trkpt>
      <trkpt lat="40.0868910" lon="-4.6468900">
        <ele>448.0</ele>
        <time>2020-10-04T10:53:17Z</time>
      </trkpt>
      <trkpt lat="40.0868530" lon="-4.6468550">
        <ele>448.3</ele>
        <time>2020-10-04T10:53:18Z</time>
      </trkpt>
      <trkpt lat="40.0867970" lon="-4.6467990">
        <ele>448.7</ele>
        <time>2020-10-04T10:53:19Z</time>
      </trkpt>
      <trkpt lat="40.0867500" lon="-4.6467390">
        <ele>448.9</ele>
        <time>2020-10-04T10:53:21Z</time>
      </trkpt>
      <trkpt lat="40.0866830" lon="-4.6466870">
        <ele>449.1</ele>
        <time>2020-10-04T10:53:23Z</time>
      </trkpt>
      <trkpt lat="40.0866420" lon="-4.6466640">
        <ele>449.2</ele>
        <time>2020-10-04T10:53:24Z</time>
      </trkpt>
      <trkpt lat="40.0866030" lon="-4.6466460">
        <ele>449.2</ele>
        <time>2020-10-04T10:53:25Z</time>
      </trkpt>
      <trkpt lat="40.0865320" lon="-4.6466190">
        <ele>449.2</ele>
        <time>2020-10-04T10:53:27Z</time>
      </trkpt>
      <trkpt lat="40.0864980" lon="-4.6466120">
        <ele>449.2</ele>
        <time>2020-10-04T10:53:28Z</time>
      </trkpt>
      <trkpt lat="40.0864200" lon="-4.6466050">
        <ele>449.2</ele>
        <time>2020-10-04T10:53:30Z</time>
      </trkpt>
      <trkpt lat="40.0863710" lon="-4.6466030">
        <ele>449.2</ele>
        <time>2020-10-04T10:53:31Z</time>
      </trkpt>
      <trkpt lat="40.0862790" lon="-4.6465980">
        <ele>449.3</ele>
        <time>2020-10-04T10:53:33Z</time>
      </trkpt>
      <trkpt lat="40.0861870" lon="-4.6465960">
        <ele>449.5</ele>
        <time>2020-10-04T10:53:35Z</time>
      </trkpt>
      <trkpt lat="40.0861380" lon="-4.6465950">
        <ele>449.6</ele>
        <time>2020-10-04T10:53:36Z</time>
      </trkpt>
      <trkpt lat="40.0860950" lon="-4.6465930">
        <ele>449.7</ele>
        <time>2020-10-04T10:53:37Z</time>
      </trkpt>
      <trkpt lat="40.0860130" lon="-4.6465880">
        <ele>450.1</ele>
        <time>2020-10-04T10:53:39Z</time>
      </trkpt>
      <trkpt lat="40.0859140" lon="-4.6465790">
        <ele>450.8</ele>
        <time>2020-10-04T10:53:41Z</time>
      </trkpt>
      <trkpt lat="40.0858680" lon="-4.6465750">
        <ele>451.2</ele>
        <time>2020-10-04T10:53:42Z</time>
      </trkpt>
      <trkpt lat="40.0857890" lon="-4.6465650">
        <ele>451.8</ele>
        <time>2020-10-04T10:53:44Z</time>
      </trkpt>
      <trkpt lat="40.0857040" lon="-4.6465540">
        <ele>452.5</ele>
        <time>2020-10-04T10:53:46Z</time>
      </trkpt>
      <trkpt lat="40.0856250" lon="-4.6465460">
        <ele>453.2</ele>
        <time>2020-10-04T10:53:48Z</time>
      </trkpt>
      <trkpt lat="40.0855850" lon="-4.6465420">
        <ele>453.5</ele>
        <time>2020-10-04T10:53:49Z</time>
      </trkpt>
      <trkpt lat="40.0855320" lon="-4.6465370">
        <ele>453.9</ele>
        <time>2020-10-04T10:53:50Z</time>
      </trkpt>
      <trkpt lat="40.0854810" lon="-4.6465320">
        <ele>454.3</ele>
        <time>2020-10-04T10:53:52Z</time>
      </trkpt>
      <trkpt lat="40.0854440" lon="-4.6465320">
        <ele>454.5</ele>
        <time>2020-10-04T10:53:53Z</time>
      </trkpt>
      <trkpt lat="40.0853770" lon="-4.6465220">
        <ele>455.0</ele>
        <time>2020-10-04T10:53:54Z</time>
      </trkpt>
      <trkpt lat="40.0853270" lon="-4.6465160">
        <ele>455.3</ele>
        <time>2020-10-04T10:53:56Z</time>
      </trkpt>
      <trkpt lat="40.0852760" lon="-4.6465110">
        <ele>455.6</ele>
        <time>2020-10-04T10:53:57Z</time>
      </trkpt>
      <trkpt lat="40.0852450" lon="-4.6465080">
        <ele>455.8</ele>
        <time>2020-10-04T10:53:58Z</time>
      </trkpt>
      <trkpt lat="40.0851990" lon="-4.6465060">
        <ele>456.0</ele>
        <time>2020-10-04T10:54:00Z</time>
      </trkpt>
      <trkpt lat="40.0851440" lon="-4.6465080">
        <ele>456.3</ele>
        <time>2020-10-04T10:54:01Z</time>
      </trkpt>
      <trkpt lat="40.0851080" lon="-4.6465050">
        <ele>456.5</ele>
        <time>2020-10-04T10:54:02Z</time>
      </trkpt>
      <trkpt lat="40.0850700" lon="-4.6465040">
        <ele>456.7</ele>
        <time>2020-10-04T10:54:03Z</time>
      </trkpt>
      <trkpt lat="40.0850320" lon="-4.6465090">
        <ele>456.8</ele>
        <time>2020-10-04T10:54:04Z</time>
      </trkpt>
      <trkpt lat="40.0849980" lon="-4.6465150">
        <ele>456.9</ele>
        <time>2020-10-04T10:54:06Z</time>
      </trkpt>
      <trkpt lat="40.0849670" lon="-4.6465190">
        <ele>456.9</ele>
        <time>2020-10-04T10:54:07Z</time>
      </trkpt>
      <trkpt lat="40.0848940" lon="-4.6465320">
        <ele>456.8</ele>
        <time>2020-10-04T10:54:09Z</time>
      </trkpt>
      <trkpt lat="40.0848630" lon="-4.6465390">
        <ele>456.6</ele>
        <time>2020-10-04T10:54:10Z</time>
      </trkpt>
      <trkpt lat="40.0848050" lon="-4.6465570">
        <ele>456.2</ele>
        <time>2020-10-04T10:54:11Z</time>
      </trkpt>
      <trkpt lat="40.0847620" lon="-4.6465680">
        <ele>455.9</ele>
        <time>2020-10-04T10:54:12Z</time>
      </trkpt>
      <trkpt lat="40.0847110" lon="-4.6465830">
        <ele>455.5</ele>
        <time>2020-10-04T10:54:13Z</time>
      </trkpt>
      <trkpt lat="40.0846590" lon="-4.6465970">
        <ele>455.2</ele>
        <time>2020-10-04T10:54:14Z</time>
      </trkpt>
      <trkpt lat="40.0845970" lon="-4.6466160">
        <ele>454.7</ele>
        <time>2020-10-04T10:54:16Z</time>
      </trkpt>
      <trkpt lat="40.0843910" lon="-4.6466830">
        <ele>453.7</ele>
        <time>2020-10-04T10:54:18Z</time>
      </trkpt>
      <trkpt lat="40.0842990" lon="-4.6467090">
        <ele>453.6</ele>
        <time>2020-10-04T10:54:19Z</time>
      </trkpt>
      <trkpt lat="40.0841370" lon="-4.6467390">
        <ele>453.7</ele>
        <time>2020-10-04T10:54:21Z</time>
      </trkpt>
      <trkpt lat="40.0840690" lon="-4.6467460">
        <ele>453.9</ele>
        <time>2020-10-04T10:54:22Z</time>
      </trkpt>
      <trkpt lat="40.0839560" lon="-4.6467610">
        <ele>454.2</ele>
        <time>2020-10-04T10:54:24Z</time>
      </trkpt>
      <trkpt lat="40.0839030" lon="-4.6467730">
        <ele>454.4</ele>
        <time>2020-10-04T10:54:25Z</time>
      </trkpt>
      <trkpt lat="40.0838010" lon="-4.6467960">
        <ele>454.6</ele>
        <time>2020-10-04T10:54:27Z</time>
      </trkpt>
      <trkpt lat="40.0837000" lon="-4.6468200">
        <ele>454.7</ele>
        <time>2020-10-04T10:54:29Z</time>
      </trkpt>
      <trkpt lat="40.0835940" lon="-4.6468440">
        <ele>454.9</ele>
        <time>2020-10-04T10:54:31Z</time>
      </trkpt>
      <trkpt lat="40.0834830" lon="-4.6468770">
        <ele>455.0</ele>
        <time>2020-10-04T10:54:33Z</time>
      </trkpt>
      <trkpt lat="40.0833780" lon="-4.6469090">
        <ele>455.2</ele>
        <time>2020-10-04T10:54:35Z</time>
      </trkpt>
      <trkpt lat="40.0832810" lon="-4.6469370">
        <ele>455.3</ele>
        <time>2020-10-04T10:54:37Z</time>
      </trkpt>
      <trkpt lat="40.0831840" lon="-4.6469640">
        <ele>455.2</ele>
        <time>2020-10-04T10:54:39Z</time>
      </trkpt>
      <trkpt lat="40.0830860" lon="-4.6469890">
        <ele>455.0</ele>
        <time>2020-10-04T10:54:41Z</time>
      </trkpt>
      <trkpt lat="40.0830330" lon="-4.6469990">
        <ele>454.8</ele>
        <time>2020-10-04T10:54:42Z</time>
      </trkpt>
      <trkpt lat="40.0829240" lon="-4.6470110">
        <ele>454.4</ele>
        <time>2020-10-04T10:54:44Z</time>
      </trkpt>
      <trkpt lat="40.0828100" lon="-4.6470170">
        <ele>453.9</ele>
        <time>2020-10-04T10:54:46Z</time>
      </trkpt>
      <trkpt lat="40.0827490" lon="-4.6470170">
        <ele>453.7</ele>
        <time>2020-10-04T10:54:47Z</time>
      </trkpt>
      <trkpt lat="40.0826280" lon="-4.6470130">
        <ele>453.1</ele>
        <time>2020-10-04T10:54:49Z</time>
      </trkpt>
      <trkpt lat="40.0825650" lon="-4.6470130">
        <ele>452.8</ele>
        <time>2020-10-04T10:54:50Z</time>
      </trkpt>
      <trkpt lat="40.0824350" lon="-4.6470140">
        <ele>452.3</ele>
        <time>2020-10-04T10:54:52Z</time>
      </trkpt>
      <trkpt lat="40.0823660" lon="-4.6470180">
        <ele>452.1</ele>
        <time>2020-10-04T10:54:53Z</time>
      </trkpt>
      <trkpt lat="40.0822320" lon="-4.6470270">
        <ele>451.8</ele>
        <time>2020-10-04T10:54:55Z</time>
      </trkpt>
      <trkpt lat="40.0821630" lon="-4.6470300">
        <ele>451.6</ele>
        <time>2020-10-04T10:54:56Z</time>
      </trkpt>
      <trkpt lat="40.0820290" lon="-4.6470410">
        <ele>451.4</ele>
        <time>2020-10-04T10:54:58Z</time>
      </trkpt>
      <trkpt lat="40.0819630" lon="-4.6470470">
        <ele>451.3</ele>
        <time>2020-10-04T10:54:59Z</time>
      </trkpt>
      <trkpt lat="40.0818370" lon="-4.6470570">
        <ele>451.3</ele>
        <time>2020-10-04T10:55:01Z</time>
      </trkpt>
      <trkpt lat="40.0816420" lon="-4.6470510">
        <ele>451.2</ele>
        <time>2020-10-04T10:55:03Z</time>
      </trkpt>
      <trkpt lat="40.0815780" lon="-4.6470360">
        <ele>451.1</ele>
        <time>2020-10-04T10:55:05Z</time>
      </trkpt>
      <trkpt lat="40.0815160" lon="-4.6470180">
        <ele>451.1</ele>
        <time>2020-10-04T10:55:06Z</time>
      </trkpt>
      <trkpt lat="40.0814560" lon="-4.6469940">
        <ele>451.1</ele>
        <time>2020-10-04T10:55:07Z</time>
      </trkpt>
      <trkpt lat="40.0813970" lon="-4.6469660">
        <ele>451.0</ele>
        <time>2020-10-04T10:55:08Z</time>
      </trkpt>
      <trkpt lat="40.0812840" lon="-4.6469100">
        <ele>450.9</ele>
        <time>2020-10-04T10:55:10Z</time>
      </trkpt>
      <trkpt lat="40.0812250" lon="-4.6468800">
        <ele>450.8</ele>
        <time>2020-10-04T10:55:11Z</time>
      </trkpt>
      <trkpt lat="40.0811660" lon="-4.6468520">
        <ele>450.7</ele>
        <time>2020-10-04T10:55:12Z</time>
      </trkpt>
      <trkpt lat="40.0810440" lon="-4.6467940">
        <ele>450.4</ele>
        <time>2020-10-04T10:55:14Z</time>
      </trkpt>
      <trkpt lat="40.0809810" lon="-4.6467680">
        <ele>450.3</ele>
        <time>2020-10-04T10:55:15Z</time>
      </trkpt>
      <trkpt lat="40.0809170" lon="-4.6467440">
        <ele>450.1</ele>
        <time>2020-10-04T10:55:16Z</time>
      </trkpt>
      <trkpt lat="40.0807940" lon="-4.6466860">
        <ele>449.8</ele>
        <time>2020-10-04T10:55:18Z</time>
      </trkpt>
      <trkpt lat="40.0807310" lon="-4.6466430">
        <ele>449.7</ele>
        <time>2020-10-04T10:55:19Z</time>
      </trkpt>
      <trkpt lat="40.0806720" lon="-4.6465970">
        <ele>449.5</ele>
        <time>2020-10-04T10:55:20Z</time>
      </trkpt>
      <trkpt lat="40.0806140" lon="-4.6465520">
        <ele>449.4</ele>
        <time>2020-10-04T10:55:21Z</time>
      </trkpt>
      <trkpt lat="40.0804970" lon="-4.6464590">
        <ele>449.2</ele>
        <time>2020-10-04T10:55:23Z</time>
      </trkpt>
      <trkpt lat="40.0803830" lon="-4.6463560">
        <ele>449.0</ele>
        <time>2020-10-04T10:55:25Z</time>
      </trkpt>
      <trkpt lat="40.0802640" lon="-4.6462710">
        <ele>448.8</ele>
        <time>2020-10-04T10:55:27Z</time>
      </trkpt>
      <trkpt lat="40.0801360" lon="-4.6461980">
        <ele>448.8</ele>
        <time>2020-10-04T10:55:29Z</time>
      </trkpt>
      <trkpt lat="40.0800120" lon="-4.6461370">
        <ele>448.9</ele>
        <time>2020-10-04T10:55:31Z</time>
      </trkpt>
      <trkpt lat="40.0799530" lon="-4.6461080">
        <ele>448.9</ele>
        <time>2020-10-04T10:55:32Z</time>
      </trkpt>
      <trkpt lat="40.0798350" lon="-4.6460570">
        <ele>449.0</ele>
        <time>2020-10-04T10:55:34Z</time>
      </trkpt>
      <trkpt lat="40.0797140" lon="-4.6460300">
        <ele>449.1</ele>
        <time>2020-10-04T10:55:36Z</time>
      </trkpt>
      <trkpt lat="40.0796530" lon="-4.6460260">
        <ele>449.1</ele>
        <time>2020-10-04T10:55:37Z</time>
      </trkpt>
      <trkpt lat="40.0795940" lon="-4.6460270">
        <ele>449.0</ele>
        <time>2020-10-04T10:55:38Z</time>
      </trkpt>
      <trkpt lat="40.0794780" lon="-4.6460310">
        <ele>448.7</ele>
        <time>2020-10-04T10:55:40Z</time>
      </trkpt>
      <trkpt lat="40.0794200" lon="-4.6460320">
        <ele>448.6</ele>
        <time>2020-10-04T10:55:41Z</time>
      </trkpt>
      <trkpt lat="40.0793610" lon="-4.6460310">
        <ele>448.4</ele>
        <time>2020-10-04T10:55:42Z</time>
      </trkpt>
      <trkpt lat="40.0792980" lon="-4.6460270">
        <ele>448.3</ele>
        <time>2020-10-04T10:55:43Z</time>
      </trkpt>
      <trkpt lat="40.0791680" lon="-4.6460200">
        <ele>448.0</ele>
        <time>2020-10-04T10:55:45Z</time>
      </trkpt>
      <trkpt lat="40.0791040" lon="-4.6460170">
        <ele>447.8</ele>
        <time>2020-10-04T10:55:46Z</time>
      </trkpt>
      <trkpt lat="40.0789740" lon="-4.6460200">
        <ele>447.6</ele>
        <time>2020-10-04T10:55:48Z</time>
      </trkpt>
      <trkpt lat="40.0789070" lon="-4.6460300">
        <ele>447.4</ele>
        <time>2020-10-04T10:55:49Z</time>
      </trkpt>
      <trkpt lat="40.0787710" lon="-4.6460490">
        <ele>447.3</ele>
        <time>2020-10-04T10:55:51Z</time>
      </trkpt>
      <trkpt lat="40.0787030" lon="-4.6460560">
        <ele>447.3</ele>
        <time>2020-10-04T10:55:52Z</time>
      </trkpt>
      <trkpt lat="40.0785620" lon="-4.6460660">
        <ele>447.2</ele>
        <time>2020-10-04T10:55:54Z</time>
      </trkpt>
      <trkpt lat="40.0784280" lon="-4.6460670">
        <ele>447.1</ele>
        <time>2020-10-04T10:55:56Z</time>
      </trkpt>
      <trkpt lat="40.0782980" lon="-4.6460640">
        <ele>447.0</ele>
        <time>2020-10-04T10:55:58Z</time>
      </trkpt>
      <trkpt lat="40.0782310" lon="-4.6460630">
        <ele>446.9</ele>
        <time>2020-10-04T10:55:59Z</time>
      </trkpt>
      <trkpt lat="40.0781620" lon="-4.6460620">
        <ele>446.9</ele>
        <time>2020-10-04T10:56:00Z</time>
      </trkpt>
      <trkpt lat="40.0780220" lon="-4.6460620">
        <ele>446.8</ele>
        <time>2020-10-04T10:56:02Z</time>
      </trkpt>
      <trkpt lat="40.0779510" lon="-4.6460630">
        <ele>446.7</ele>
        <time>2020-10-04T10:56:03Z</time>
      </trkpt>
      <trkpt lat="40.0778120" lon="-4.6460680">
        <ele>446.7</ele>
        <time>2020-10-04T10:56:05Z</time>
      </trkpt>
      <trkpt lat="40.0776760" lon="-4.6460740">
        <ele>446.7</ele>
        <time>2020-10-04T10:56:07Z</time>
      </trkpt>
      <trkpt lat="40.0776060" lon="-4.6460790">
        <ele>446.7</ele>
        <time>2020-10-04T10:56:08Z</time>
      </trkpt>
      <trkpt lat="40.0774700" lon="-4.6460890">
        <ele>446.7</ele>
        <time>2020-10-04T10:56:10Z</time>
      </trkpt>
      <trkpt lat="40.0773380" lon="-4.6461050">
        <ele>446.7</ele>
        <time>2020-10-04T10:56:12Z</time>
      </trkpt>
      <trkpt lat="40.0772070" lon="-4.6461290">
        <ele>446.8</ele>
        <time>2020-10-04T10:56:14Z</time>
      </trkpt>
      <trkpt lat="40.0770800" lon="-4.6461610">
        <ele>446.9</ele>
        <time>2020-10-04T10:56:16Z</time>
      </trkpt>
      <trkpt lat="40.0770180" lon="-4.6461750">
        <ele>446.9</ele>
        <time>2020-10-04T10:56:17Z</time>
      </trkpt>
      <trkpt lat="40.0769570" lon="-4.6461840">
        <ele>447.0</ele>
        <time>2020-10-04T10:56:18Z</time>
      </trkpt>
      <trkpt lat="40.0768960" lon="-4.6461870">
        <ele>447.0</ele>
        <time>2020-10-04T10:56:19Z</time>
      </trkpt>
      <trkpt lat="40.0767770" lon="-4.6462010">
        <ele>447.2</ele>
        <time>2020-10-04T10:56:21Z</time>
      </trkpt>
      <trkpt lat="40.0766510" lon="-4.6462210">
        <ele>447.3</ele>
        <time>2020-10-04T10:56:23Z</time>
      </trkpt>
      <trkpt lat="40.0765240" lon="-4.6462440">
        <ele>447.5</ele>
        <time>2020-10-04T10:56:25Z</time>
      </trkpt>
      <trkpt lat="40.0764010" lon="-4.6462660">
        <ele>447.6</ele>
        <time>2020-10-04T10:56:27Z</time>
      </trkpt>
      <trkpt lat="40.0762850" lon="-4.6462970">
        <ele>447.9</ele>
        <time>2020-10-04T10:56:29Z</time>
      </trkpt>
      <trkpt lat="40.0762290" lon="-4.6463140">
        <ele>448.0</ele>
        <time>2020-10-04T10:56:30Z</time>
      </trkpt>
      <trkpt lat="40.0761710" lon="-4.6463300">
        <ele>448.1</ele>
        <time>2020-10-04T10:56:31Z</time>
      </trkpt>
      <trkpt lat="40.0760540" lon="-4.6463570">
        <ele>448.3</ele>
        <time>2020-10-04T10:56:33Z</time>
      </trkpt>
      <trkpt lat="40.0759430" lon="-4.6463890">
        <ele>448.2</ele>
        <time>2020-10-04T10:56:35Z</time>
      </trkpt>
      <trkpt lat="40.0758310" lon="-4.6464210">
        <ele>447.9</ele>
        <time>2020-10-04T10:56:37Z</time>
      </trkpt>
      <trkpt lat="40.0757120" lon="-4.6464530">
        <ele>447.5</ele>
        <time>2020-10-04T10:56:39Z</time>
      </trkpt>
      <trkpt lat="40.0756500" lon="-4.6464680">
        <ele>447.2</ele>
        <time>2020-10-04T10:56:40Z</time>
      </trkpt>
      <trkpt lat="40.0755230" lon="-4.6465000">
        <ele>446.7</ele>
        <time>2020-10-04T10:56:42Z</time>
      </trkpt>
      <trkpt lat="40.0754600" lon="-4.6465160">
        <ele>446.4</ele>
        <time>2020-10-04T10:56:43Z</time>
      </trkpt>
      <trkpt lat="40.0753350" lon="-4.6465520">
        <ele>445.8</ele>
        <time>2020-10-04T10:56:45Z</time>
      </trkpt>
      <trkpt lat="40.0752690" lon="-4.6465720">
        <ele>445.4</ele>
        <time>2020-10-04T10:56:46Z</time>
      </trkpt>
      <trkpt lat="40.0751320" lon="-4.6466080">
        <ele>444.7</ele>
        <time>2020-10-04T10:56:48Z</time>
      </trkpt>
      <trkpt lat="40.0750610" lon="-4.6466200">
        <ele>444.4</ele>
        <time>2020-10-04T10:56:49Z</time>
      </trkpt>
      <trkpt lat="40.0749200" lon="-4.6466400">
        <ele>443.4</ele>
        <time>2020-10-04T10:56:51Z</time>
      </trkpt>
      <trkpt lat="40.0748500" lon="-4.6466500">
        <ele>442.7</ele>
        <time>2020-10-04T10:56:52Z</time>
      </trkpt>
      <trkpt lat="40.0747030" lon="-4.6466750">
        <ele>441.1</ele>
        <time>2020-10-04T10:56:54Z</time>
      </trkpt>
      <trkpt lat="40.0746260" lon="-4.6466910">
        <ele>440.3</ele>
        <time>2020-10-04T10:56:55Z</time>
      </trkpt>
      <trkpt lat="40.0744570" lon="-4.6467320">
        <ele>438.6</ele>
        <time>2020-10-04T10:56:57Z</time>
      </trkpt>
      <trkpt lat="40.0742720" lon="-4.6467610">
        <ele>437.1</ele>
        <time>2020-10-04T10:56:59Z</time>
      </trkpt>
      <trkpt lat="40.0740820" lon="-4.6467770">
        <ele>435.7</ele>
        <time>2020-10-04T10:57:01Z</time>
      </trkpt>
      <trkpt lat="40.0739860" lon="-4.6467850">
        <ele>435.0</ele>
        <time>2020-10-04T10:57:02Z</time>
      </trkpt>
      <trkpt lat="40.0738900" lon="-4.6467920">
        <ele>434.3</ele>
        <time>2020-10-04T10:57:03Z</time>
      </trkpt>
      <trkpt lat="40.0736990" lon="-4.6468070">
        <ele>433.1</ele>
        <time>2020-10-04T10:57:05Z</time>
      </trkpt>
      <trkpt lat="40.0736030" lon="-4.6468180">
        <ele>432.7</ele>
        <time>2020-10-04T10:57:06Z</time>
      </trkpt>
      <trkpt lat="40.0734150" lon="-4.6468380">
        <ele>432.0</ele>
        <time>2020-10-04T10:57:08Z</time>
      </trkpt>
      <trkpt lat="40.0732340" lon="-4.6468770">
        <ele>431.4</ele>
        <time>2020-10-04T10:57:10Z</time>
      </trkpt>
      <trkpt lat="40.0730560" lon="-4.6468830">
        <ele>431.0</ele>
        <time>2020-10-04T10:57:12Z</time>
      </trkpt>
      <trkpt lat="40.0728980" lon="-4.6469100">
        <ele>431.1</ele>
        <time>2020-10-04T10:57:14Z</time>
      </trkpt>
      <trkpt lat="40.0728060" lon="-4.6470520">
        <ele>431.5</ele>
        <time>2020-10-04T10:57:16Z</time>
      </trkpt>
      <trkpt lat="40.0727560" lon="-4.6472210">
        <ele>432.1</ele>
        <time>2020-10-04T10:57:18Z</time>
      </trkpt>
      <trkpt lat="40.0727350" lon="-4.6473020">
        <ele>432.4</ele>
        <time>2020-10-04T10:57:19Z</time>
      </trkpt>
      <trkpt lat="40.0727090" lon="-4.6473800">
        <ele>432.6</ele>
        <time>2020-10-04T10:57:20Z</time>
      </trkpt>
      <trkpt lat="40.0726430" lon="-4.6475110">
        <ele>433.0</ele>
        <time>2020-10-04T10:57:22Z</time>
      </trkpt>
      <trkpt lat="40.0725640" lon="-4.6476190">
        <ele>433.4</ele>
        <time>2020-10-04T10:57:24Z</time>
      </trkpt>
      <trkpt lat="40.0725230" lon="-4.6476720">
        <ele>433.6</ele>
        <time>2020-10-04T10:57:25Z</time>
      </trkpt>
      <trkpt lat="40.0724820" lon="-4.6477260">
        <ele>433.8</ele>
        <time>2020-10-04T10:57:26Z</time>
      </trkpt>
      <trkpt lat="40.0723920" lon="-4.6478350">
        <ele>434.4</ele>
        <time>2020-10-04T10:57:28Z</time>
      </trkpt>
      <trkpt lat="40.0722940" lon="-4.6479350">
        <ele>435.1</ele>
        <time>2020-10-04T10:57:30Z</time>
      </trkpt>
      <trkpt lat="40.0721960" lon="-4.6480410">
        <ele>435.9</ele>
        <time>2020-10-04T10:57:32Z</time>
      </trkpt>
      <trkpt lat="40.0721480" lon="-4.6480960">
        <ele>436.4</ele>
        <time>2020-10-04T10:57:33Z</time>
      </trkpt>
      <trkpt lat="40.0720520" lon="-4.6482090">
        <ele>437.5</ele>
        <time>2020-10-04T10:57:35Z</time>
      </trkpt>
      <trkpt lat="40.0719660" lon="-4.6483250">
        <ele>438.6</ele>
        <time>2020-10-04T10:57:37Z</time>
      </trkpt>
      <trkpt lat="40.0718820" lon="-4.6484420">
        <ele>439.7</ele>
        <time>2020-10-04T10:57:39Z</time>
      </trkpt>
      <trkpt lat="40.0718020" lon="-4.6485480">
        <ele>440.6</ele>
        <time>2020-10-04T10:57:41Z</time>
      </trkpt>
      <trkpt lat="40.0717620" lon="-4.6486010">
        <ele>441.0</ele>
        <time>2020-10-04T10:57:42Z</time>
      </trkpt>
      <trkpt lat="40.0716840" lon="-4.6487140">
        <ele>441.6</ele>
        <time>2020-10-04T10:57:44Z</time>
      </trkpt>
      <trkpt lat="40.0716220" lon="-4.6488420">
        <ele>442.0</ele>
        <time>2020-10-04T10:57:46Z</time>
      </trkpt>
      <trkpt lat="40.0716080" lon="-4.6489140">
        <ele>442.1</ele>
        <time>2020-10-04T10:57:47Z</time>
      </trkpt>
      <trkpt lat="40.0715970" lon="-4.6490530">
        <ele>442.2</ele>
        <time>2020-10-04T10:57:49Z</time>
      </trkpt>
      <trkpt lat="40.0715920" lon="-4.6491860">
        <ele>442.3</ele>
        <time>2020-10-04T10:57:51Z</time>
      </trkpt>
      <trkpt lat="40.0715730" lon="-4.6493140">
        <ele>442.3</ele>
        <time>2020-10-04T10:57:53Z</time>
      </trkpt>
      <trkpt lat="40.0715340" lon="-4.6494410">
        <ele>442.2</ele>
        <time>2020-10-04T10:57:55Z</time>
      </trkpt>
      <trkpt lat="40.0715070" lon="-4.6495000">
        <ele>442.1</ele>
        <time>2020-10-04T10:57:56Z</time>
      </trkpt>
      <trkpt lat="40.0714290" lon="-4.6496040">
        <ele>441.8</ele>
        <time>2020-10-04T10:57:58Z</time>
      </trkpt>
      <trkpt lat="40.0713840" lon="-4.6496480">
        <ele>441.6</ele>
        <time>2020-10-04T10:57:59Z</time>
      </trkpt>
      <trkpt lat="40.0713360" lon="-4.6496860">
        <ele>441.4</ele>
        <time>2020-10-04T10:58:00Z</time>
      </trkpt>
      <trkpt lat="40.0712190" lon="-4.6497420">
        <ele>441.0</ele>
        <time>2020-10-04T10:58:02Z</time>
      </trkpt>
      <trkpt lat="40.0710920" lon="-4.6497760">
        <ele>440.5</ele>
        <time>2020-10-04T10:58:04Z</time>
      </trkpt>
      <trkpt lat="40.0709600" lon="-4.6498040">
        <ele>440.0</ele>
        <time>2020-10-04T10:58:06Z</time>
      </trkpt>
      <trkpt lat="40.0708900" lon="-4.6498140">
        <ele>439.7</ele>
        <time>2020-10-04T10:58:07Z</time>
      </trkpt>
      <trkpt lat="40.0707480" lon="-4.6498210">
        <ele>439.2</ele>
        <time>2020-10-04T10:58:09Z</time>
      </trkpt>
      <trkpt lat="40.0706070" lon="-4.6498130">
        <ele>438.6</ele>
        <time>2020-10-04T10:58:11Z</time>
      </trkpt>
      <trkpt lat="40.0704660" lon="-4.6498010">
        <ele>438.0</ele>
        <time>2020-10-04T10:58:13Z</time>
      </trkpt>
      <trkpt lat="40.0703270" lon="-4.6498120">
        <ele>437.2</ele>
        <time>2020-10-04T10:58:14Z</time>
      </trkpt>
      <trkpt lat="40.0702590" lon="-4.6498410">
        <ele>436.7</ele>
        <time>2020-10-04T10:58:16Z</time>
      </trkpt>
      <trkpt lat="40.0701960" lon="-4.6498900">
        <ele>436.2</ele>
        <time>2020-10-04T10:58:17Z</time>
      </trkpt>
      <trkpt lat="40.0701450" lon="-4.6499570">
        <ele>435.6</ele>
        <time>2020-10-04T10:58:18Z</time>
      </trkpt>
      <trkpt lat="40.0700720" lon="-4.6501310">
        <ele>434.4</ele>
        <time>2020-10-04T10:58:20Z</time>
      </trkpt>
      <trkpt lat="40.0700440" lon="-4.6502330">
        <ele>433.8</ele>
        <time>2020-10-04T10:58:21Z</time>
      </trkpt>
      <trkpt lat="40.0700210" lon="-4.6503410">
        <ele>433.2</ele>
        <time>2020-10-04T10:58:22Z</time>
      </trkpt>
      <trkpt lat="40.0699680" lon="-4.6505640">
        <ele>432.4</ele>
        <time>2020-10-04T10:58:24Z</time>
      </trkpt>
      <trkpt lat="40.0699020" lon="-4.6507820">
        <ele>431.7</ele>
        <time>2020-10-04T10:58:26Z</time>
      </trkpt>
      <trkpt lat="40.0698300" lon="-4.6509890">
        <ele>431.3</ele>
        <time>2020-10-04T10:58:28Z</time>
      </trkpt>
      <trkpt lat="40.0697550" lon="-4.6511880">
        <ele>431.2</ele>
        <time>2020-10-04T10:58:30Z</time>
      </trkpt>
      <trkpt lat="40.0697010" lon="-4.6513920">
        <ele>430.9</ele>
        <time>2020-10-04T10:58:32Z</time>
      </trkpt>
      <trkpt lat="40.0696680" lon="-4.6515850">
        <ele>430.5</ele>
        <time>2020-10-04T10:58:34Z</time>
      </trkpt>
      <trkpt lat="40.0696540" lon="-4.6517460">
        <ele>429.7</ele>
        <time>2020-10-04T10:58:36Z</time>
      </trkpt>
      <trkpt lat="40.0696500" lon="-4.6519170">
        <ele>428.1</ele>
        <time>2020-10-04T10:58:38Z</time>
      </trkpt>
      <trkpt lat="40.0696460" lon="-4.6520070">
        <ele>427.2</ele>
        <time>2020-10-04T10:58:39Z</time>
      </trkpt>
      <trkpt lat="40.0696060" lon="-4.6521950">
        <ele>425.5</ele>
        <time>2020-10-04T10:58:41Z</time>
      </trkpt>
      <trkpt lat="40.0695530" lon="-4.6522830">
        <ele>424.6</ele>
        <time>2020-10-04T10:58:42Z</time>
      </trkpt>
      <trkpt lat="40.0694100" lon="-4.6524050">
        <ele>422.8</ele>
        <time>2020-10-04T10:58:44Z</time>
      </trkpt>
      <trkpt lat="40.0693360" lon="-4.6524360">
        <ele>422.0</ele>
        <time>2020-10-04T10:58:45Z</time>
      </trkpt>
      <trkpt lat="40.0691920" lon="-4.6524870">
        <ele>419.9</ele>
        <time>2020-10-04T10:58:47Z</time>
      </trkpt>
      <trkpt lat="40.0691330" lon="-4.6525300">
        <ele>418.8</ele>
        <time>2020-10-04T10:58:48Z</time>
      </trkpt>
      <trkpt lat="40.0690410" lon="-4.6526820">
        <ele>416.4</ele>
        <time>2020-10-04T10:58:50Z</time>
      </trkpt>
      <trkpt lat="40.0689650" lon="-4.6528910">
        <ele>413.4</ele>
        <time>2020-10-04T10:58:52Z</time>
      </trkpt>
      <trkpt lat="40.0688390" lon="-4.6530720">
        <ele>410.2</ele>
        <time>2020-10-04T10:58:54Z</time>
      </trkpt>
      <trkpt lat="40.0686550" lon="-4.6531920">
        <ele>406.9</ele>
        <time>2020-10-04T10:58:56Z</time>
      </trkpt>
      <trkpt lat="40.0684310" lon="-4.6532630">
        <ele>403.8</ele>
        <time>2020-10-04T10:58:58Z</time>
      </trkpt>
      <trkpt lat="40.0681860" lon="-4.6533140">
        <ele>400.6</ele>
        <time>2020-10-04T10:59:00Z</time>
      </trkpt>
      <trkpt lat="40.0679350" lon="-4.6533590">
        <ele>398.2</ele>
        <time>2020-10-04T10:59:02Z</time>
      </trkpt>
      <trkpt lat="40.0678150" lon="-4.6533820">
        <ele>397.2</ele>
        <time>2020-10-04T10:59:03Z</time>
      </trkpt>
      <trkpt lat="40.0676980" lon="-4.6534180">
        <ele>396.5</ele>
        <time>2020-10-04T10:59:04Z</time>
      </trkpt>
      <trkpt lat="40.0674720" lon="-4.6535060">
        <ele>395.6</ele>
        <time>2020-10-04T10:59:06Z</time>
      </trkpt>
      <trkpt lat="40.0672430" lon="-4.6535860">
        <ele>395.8</ele>
        <time>2020-10-04T10:59:08Z</time>
      </trkpt>
      <trkpt lat="40.0670390" lon="-4.6537220">
        <ele>397.0</ele>
        <time>2020-10-04T10:59:10Z</time>
      </trkpt>
      <trkpt lat="40.0668800" lon="-4.6538280">
        <ele>398.3</ele>
        <time>2020-10-04T10:59:12Z</time>
      </trkpt>
      <trkpt lat="40.0667290" lon="-4.6539080">
        <ele>399.6</ele>
        <time>2020-10-04T10:59:14Z</time>
      </trkpt>
      <trkpt lat="40.0665740" lon="-4.6539870">
        <ele>400.5</ele>
        <time>2020-10-04T10:59:16Z</time>
      </trkpt>
      <trkpt lat="40.0664210" lon="-4.6540060">
        <ele>401.0</ele>
        <time>2020-10-04T10:59:18Z</time>
      </trkpt>
      <trkpt lat="40.0662710" lon="-4.6539950">
        <ele>401.3</ele>
        <time>2020-10-04T10:59:20Z</time>
      </trkpt>
      <trkpt lat="40.0661090" lon="-4.6539900">
        <ele>401.3</ele>
        <time>2020-10-04T10:59:22Z</time>
      </trkpt>
      <trkpt lat="40.0660270" lon="-4.6539890">
        <ele>401.2</ele>
        <time>2020-10-04T10:59:23Z</time>
      </trkpt>
      <trkpt lat="40.0658590" lon="-4.6540350">
        <ele>401.2</ele>
        <time>2020-10-04T10:59:25Z</time>
      </trkpt>
      <trkpt lat="40.0657700" lon="-4.6540740">
        <ele>401.3</ele>
        <time>2020-10-04T10:59:26Z</time>
      </trkpt>
      <trkpt lat="40.0656800" lon="-4.6541200">
        <ele>401.5</ele>
        <time>2020-10-04T10:59:27Z</time>
      </trkpt>
      <trkpt lat="40.0654990" lon="-4.6542180">
        <ele>402.2</ele>
        <time>2020-10-04T10:59:29Z</time>
      </trkpt>
      <trkpt lat="40.0654090" lon="-4.6542740">
        <ele>402.6</ele>
        <time>2020-10-04T10:59:30Z</time>
      </trkpt>
      <trkpt lat="40.0652410" lon="-4.6543940">
        <ele>403.4</ele>
        <time>2020-10-04T10:59:32Z</time>
      </trkpt>
      <trkpt lat="40.0651620" lon="-4.6544600">
        <ele>403.8</ele>
        <time>2020-10-04T10:59:33Z</time>
      </trkpt>
      <trkpt lat="40.0650890" lon="-4.6545290">
        <ele>404.0</ele>
        <time>2020-10-04T10:59:34Z</time>
      </trkpt>
      <trkpt lat="40.0649840" lon="-4.6547070">
        <ele>404.5</ele>
        <time>2020-10-04T10:59:36Z</time>
      </trkpt>
      <trkpt lat="40.0649480" lon="-4.6548020">
        <ele>404.8</ele>
        <time>2020-10-04T10:59:37Z</time>
      </trkpt>
      <trkpt lat="40.0648940" lon="-4.6549730">
        <ele>405.2</ele>
        <time>2020-10-04T10:59:39Z</time>
      </trkpt>
      <trkpt lat="40.0648410" lon="-4.6551230">
        <ele>405.4</ele>
        <time>2020-10-04T10:59:41Z</time>
      </trkpt>
      <trkpt lat="40.0648170" lon="-4.6551930">
        <ele>405.4</ele>
        <time>2020-10-04T10:59:42Z</time>
      </trkpt>
      <trkpt lat="40.0647670" lon="-4.6553160">
        <ele>405.6</ele>
        <time>2020-10-04T10:59:44Z</time>
      </trkpt>
      <trkpt lat="40.0647360" lon="-4.6553610">
        <ele>405.6</ele>
        <time>2020-10-04T10:59:45Z</time>
      </trkpt>
      <trkpt lat="40.0646410" lon="-4.6553660">
        <ele>405.5</ele>
        <time>2020-10-04T10:59:47Z</time>
      </trkpt>
      <trkpt lat="40.0645520" lon="-4.6553200">
        <ele>405.4</ele>
        <time>2020-10-04T10:59:49Z</time>
      </trkpt>
      <trkpt lat="40.0644710" lon="-4.6552860">
        <ele>405.3</ele>
        <time>2020-10-04T10:59:51Z</time>
      </trkpt>
      <trkpt lat="40.0644310" lon="-4.6552670">
        <ele>405.2</ele>
        <time>2020-10-04T10:59:52Z</time>
      </trkpt>
      <trkpt lat="40.0643910" lon="-4.6552460">
        <ele>405.2</ele>
        <time>2020-10-04T10:59:53Z</time>
      </trkpt>
      <trkpt lat="40.0643080" lon="-4.6552100">
        <ele>405.1</ele>
        <time>2020-10-04T10:59:55Z</time>
      </trkpt>
      <trkpt lat="40.0642200" lon="-4.6551680">
        <ele>405.0</ele>
        <time>2020-10-04T10:59:57Z</time>
      </trkpt>
      <trkpt lat="40.0641260" lon="-4.6551220">
        <ele>404.9</ele>
        <time>2020-10-04T10:59:59Z</time>
      </trkpt>
      <trkpt lat="40.0640780" lon="-4.6550940">
        <ele>404.8</ele>
        <time>2020-10-04T11:00:00Z</time>
      </trkpt>
      <trkpt lat="40.0640300" lon="-4.6550640">
        <ele>404.8</ele>
        <time>2020-10-04T11:00:01Z</time>
      </trkpt>
      <trkpt lat="40.0639790" lon="-4.6550380">
        <ele>404.9</ele>
        <time>2020-10-04T11:00:02Z</time>
      </trkpt>
      <trkpt lat="40.0638740" lon="-4.6549910">
        <ele>405.0</ele>
        <time>2020-10-04T11:00:04Z</time>
      </trkpt>
      <trkpt lat="40.0637750" lon="-4.6549540">
        <ele>405.0</ele>
        <time>2020-10-04T11:00:06Z</time>
      </trkpt>
      <trkpt lat="40.0636820" lon="-4.6549230">
        <ele>405.2</ele>
        <time>2020-10-04T11:00:08Z</time>
      </trkpt>
      <trkpt lat="40.0635930" lon="-4.6549000">
        <ele>405.4</ele>
        <time>2020-10-04T11:00:10Z</time>
      </trkpt>
      <trkpt lat="40.0635440" lon="-4.6548880">
        <ele>405.5</ele>
        <time>2020-10-04T11:00:11Z</time>
      </trkpt>
      <trkpt lat="40.0634700" lon="-4.6548700">
        <ele>405.7</ele>
        <time>2020-10-04T11:00:13Z</time>
      </trkpt>
      <trkpt lat="40.0633700" lon="-4.6548480">
        <ele>405.8</ele>
        <time>2020-10-04T11:00:15Z</time>
      </trkpt>
      <trkpt lat="40.0633200" lon="-4.6548340">
        <ele>405.9</ele>
        <time>2020-10-04T11:00:16Z</time>
      </trkpt>
      <trkpt lat="40.0632310" lon="-4.6548060">
        <ele>406.0</ele>
        <time>2020-10-04T11:00:18Z</time>
      </trkpt>
      <trkpt lat="40.0631900" lon="-4.6548020">
        <ele>406.0</ele>
        <time>2020-10-04T11:00:19Z</time>
      </trkpt>
      <trkpt lat="40.0631350" lon="-4.6547990">
        <ele>406.0</ele>
        <time>2020-10-04T11:00:20Z</time>
      </trkpt>
      <trkpt lat="40.0630770" lon="-4.6547890">
        <ele>406.0</ele>
        <time>2020-10-04T11:00:22Z</time>
      </trkpt>
      <trkpt lat="40.0630410" lon="-4.6547850">
        <ele>406.0</ele>
        <time>2020-10-04T11:00:23Z</time>
      </trkpt>
      <trkpt lat="40.0629900" lon="-4.6547760">
        <ele>405.9</ele>
        <time>2020-10-04T11:00:24Z</time>
      </trkpt>
      <trkpt lat="40.0629350" lon="-4.6547500">
        <ele>405.9</ele>
        <time>2020-10-04T11:00:26Z</time>
      </trkpt>
      <trkpt lat="40.0629080" lon="-4.6547090">
        <ele>405.8</ele>
        <time>2020-10-04T11:00:27Z</time>
      </trkpt>
      <trkpt lat="40.0628870" lon="-4.6546490">
        <ele>405.8</ele>
        <time>2020-10-04T11:00:28Z</time>
      </trkpt>
      <trkpt lat="40.0628500" lon="-4.6545990">
        <ele>405.8</ele>
        <time>2020-10-04T11:00:30Z</time>
      </trkpt>
      <trkpt lat="40.0628220" lon="-4.6545790">
        <ele>405.7</ele>
        <time>2020-10-04T11:00:31Z</time>
      </trkpt>
      <trkpt lat="40.0627780" lon="-4.6545470">
        <ele>405.7</ele>
        <time>2020-10-04T11:00:32Z</time>
      </trkpt>
      <trkpt lat="40.0627230" lon="-4.6544980">
        <ele>405.7</ele>
        <time>2020-10-04T11:00:33Z</time>
      </trkpt>
      <trkpt lat="40.0626820" lon="-4.6544740">
        <ele>405.7</ele>
        <time>2020-10-04T11:00:35Z</time>
      </trkpt>
      <trkpt lat="40.0626490" lon="-4.6544680">
        <ele>405.7</ele>
        <time>2020-10-04T11:00:36Z</time>
      </trkpt>
      <trkpt lat="40.0626040" lon="-4.6544560">
        <ele>405.7</ele>
        <time>2020-10-04T11:00:37Z</time>
      </trkpt>
      <trkpt lat="40.0625660" lon="-4.6544570">
        <ele>405.7</ele>
        <time>2020-10-04T11:00:38Z</time>
      </trkpt>
      <trkpt lat="40.0625310" lon="-4.6544540">
        <ele>405.8</ele>
        <time>2020-10-04T11:00:40Z</time>
      </trkpt>
      <trkpt lat="40.0624680" lon="-4.6544460">
        <ele>405.8</ele>
        <time>2020-10-04T11:00:42Z</time>
      </trkpt>
      <trkpt lat="40.0624000" lon="-4.6544380">
        <ele>405.8</ele>
        <time>2020-10-04T11:00:43Z</time>
      </trkpt>
      <trkpt lat="40.0623520" lon="-4.6544260">
        <ele>405.7</ele>
        <time>2020-10-04T11:00:44Z</time>
      </trkpt>
      <trkpt lat="40.0623080" lon="-4.6544080">
        <ele>405.7</ele>
        <time>2020-10-04T11:00:45Z</time>
      </trkpt>
      <trkpt lat="40.0622610" lon="-4.6543950">
        <ele>405.7</ele>
        <time>2020-10-04T11:00:47Z</time>
      </trkpt>
      <trkpt lat="40.0621870" lon="-4.6543860">
        <ele>405.7</ele>
        <time>2020-10-04T11:00:49Z</time>
      </trkpt>
      <trkpt lat="40.0621150" lon="-4.6543890">
        <ele>405.7</ele>
        <time>2020-10-04T11:00:51Z</time>
      </trkpt>
      <trkpt lat="40.0620570" lon="-4.6543910">
        <ele>405.6</ele>
        <time>2020-10-04T11:00:52Z</time>
      </trkpt>
      <trkpt lat="40.0620040" lon="-4.6544170">
        <ele>405.5</ele>
        <time>2020-10-04T11:00:54Z</time>
      </trkpt>
      <trkpt lat="40.0619240" lon="-4.6544500">
        <ele>405.4</ele>
        <time>2020-10-04T11:00:55Z</time>
      </trkpt>
      <trkpt lat="40.0618730" lon="-4.6544520">
        <ele>404.5</ele>
        <time>2020-10-04T11:00:57Z</time>
      </trkpt>
      <trkpt lat="40.0617920" lon="-4.6544400">
        <ele>404.2</ele>
        <time>2020-10-04T11:00:59Z</time>
      </trkpt>
      <trkpt lat="40.0616990" lon="-4.6543870">
        <ele>403.9</ele>
        <time>2020-10-04T11:01:01Z</time>
      </trkpt>
      <trkpt lat="40.0616420" lon="-4.6543520">
        <ele>403.7</ele>
        <time>2020-10-04T11:01:02Z</time>
      </trkpt>
      <trkpt lat="40.0615650" lon="-4.6542940">
        <ele>403.5</ele>
        <time>2020-10-04T11:01:04Z</time>
      </trkpt>
      <trkpt lat="40.0614660" lon="-4.6542180">
        <ele>403.3</ele>
        <time>2020-10-04T11:01:05Z</time>
      </trkpt>
      <trkpt lat="40.0613810" lon="-4.6541560">
        <ele>403.2</ele>
        <time>2020-10-04T11:01:07Z</time>
      </trkpt>
      <trkpt lat="40.0613140" lon="-4.6541170">
        <ele>403.0</ele>
        <time>2020-10-04T11:01:08Z</time>
      </trkpt>
      <trkpt lat="40.0612510" lon="-4.6540890">
        <ele>402.9</ele>
        <time>2020-10-04T11:01:09Z</time>
      </trkpt>
      <trkpt lat="40.0611310" lon="-4.6540360">
        <ele>402.7</ele>
        <time>2020-10-04T11:01:11Z</time>
      </trkpt>
      <trkpt lat="40.0610150" lon="-4.6539840">
        <ele>402.6</ele>
        <time>2020-10-04T11:01:13Z</time>
      </trkpt>
      <trkpt lat="40.0609600" lon="-4.6539670">
        <ele>402.6</ele>
        <time>2020-10-04T11:01:14Z</time>
      </trkpt>
      <trkpt lat="40.0608560" lon="-4.6539410">
        <ele>402.5</ele>
        <time>2020-10-04T11:01:16Z</time>
      </trkpt>
      <trkpt lat="40.0607460" lon="-4.6539110">
        <ele>402.4</ele>
        <time>2020-10-04T11:01:18Z</time>
      </trkpt>
      <trkpt lat="40.0606340" lon="-4.6538910">
        <ele>402.3</ele>
        <time>2020-10-04T11:01:20Z</time>
      </trkpt>
      <trkpt lat="40.0605200" lon="-4.6538720">
        <ele>402.3</ele>
        <time>2020-10-04T11:01:22Z</time>
      </trkpt>
      <trkpt lat="40.0604580" lon="-4.6538620">
        <ele>402.3</ele>
        <time>2020-10-04T11:01:23Z</time>
      </trkpt>
      <trkpt lat="40.0603440" lon="-4.6538520">
        <ele>402.4</ele>
        <time>2020-10-04T11:01:25Z</time>
      </trkpt>
      <trkpt lat="40.0602300" lon="-4.6538400">
        <ele>402.4</ele>
        <time>2020-10-04T11:01:27Z</time>
      </trkpt>
      <trkpt lat="40.0601130" lon="-4.6538310">
        <ele>402.6</ele>
        <time>2020-10-04T11:01:29Z</time>
      </trkpt>
      <trkpt lat="40.0599960" lon="-4.6538170">
        <ele>402.8</ele>
        <time>2020-10-04T11:01:31Z</time>
      </trkpt>
      <trkpt lat="40.0599370" lon="-4.6538120">
        <ele>403.0</ele>
        <time>2020-10-04T11:01:32Z</time>
      </trkpt>
      <trkpt lat="40.0598130" lon="-4.6537980">
        <ele>403.4</ele>
        <time>2020-10-04T11:01:34Z</time>
      </trkpt>
      <trkpt lat="40.0596830" lon="-4.6537710">
        <ele>404.1</ele>
        <time>2020-10-04T11:01:36Z</time>
      </trkpt>
      <trkpt lat="40.0595460" lon="-4.6537330">
        <ele>405.0</ele>
        <time>2020-10-04T11:01:38Z</time>
      </trkpt>
      <trkpt lat="40.0594140" lon="-4.6536930">
        <ele>406.0</ele>
        <time>2020-10-04T11:01:40Z</time>
      </trkpt>
      <trkpt lat="40.0593490" lon="-4.6536760">
        <ele>406.4</ele>
        <time>2020-10-04T11:01:41Z</time>
      </trkpt>
      <trkpt lat="40.0592320" lon="-4.6536600">
        <ele>406.9</ele>
        <time>2020-10-04T11:01:43Z</time>
      </trkpt>
      <trkpt lat="40.0591780" lon="-4.6536550">
        <ele>407.1</ele>
        <time>2020-10-04T11:01:44Z</time>
      </trkpt>
      <trkpt lat="40.0591280" lon="-4.6536520">
        <ele>407.3</ele>
        <time>2020-10-04T11:01:45Z</time>
      </trkpt>
      <trkpt lat="40.0590280" lon="-4.6536460">
        <ele>407.5</ele>
        <time>2020-10-04T11:01:47Z</time>
      </trkpt>
      <trkpt lat="40.0589780" lon="-4.6536410">
        <ele>407.5</ele>
        <time>2020-10-04T11:01:48Z</time>
      </trkpt>
      <trkpt lat="40.0588790" lon="-4.6536320">
        <ele>407.6</ele>
        <time>2020-10-04T11:01:50Z</time>
      </trkpt>
      <trkpt lat="40.0588300" lon="-4.6536290">
        <ele>407.6</ele>
        <time>2020-10-04T11:01:51Z</time>
      </trkpt>
      <trkpt lat="40.0587790" lon="-4.6536240">
        <ele>407.7</ele>
        <time>2020-10-04T11:01:52Z</time>
      </trkpt>
      <trkpt lat="40.0586790" lon="-4.6536120">
        <ele>407.8</ele>
        <time>2020-10-04T11:01:54Z</time>
      </trkpt>
      <trkpt lat="40.0585770" lon="-4.6535990">
        <ele>407.9</ele>
        <time>2020-10-04T11:01:56Z</time>
      </trkpt>
      <trkpt lat="40.0585220" lon="-4.6535930">
        <ele>408.0</ele>
        <time>2020-10-04T11:01:57Z</time>
      </trkpt>
      <trkpt lat="40.0584080" lon="-4.6535830">
        <ele>408.0</ele>
        <time>2020-10-04T11:01:59Z</time>
      </trkpt>
      <trkpt lat="40.0582960" lon="-4.6535690">
        <ele>408.0</ele>
        <time>2020-10-04T11:02:01Z</time>
      </trkpt>
      <trkpt lat="40.0582410" lon="-4.6535600">
        <ele>407.9</ele>
        <time>2020-10-04T11:02:02Z</time>
      </trkpt>
      <trkpt lat="40.0581830" lon="-4.6535510">
        <ele>407.9</ele>
        <time>2020-10-04T11:02:03Z</time>
      </trkpt>
      <trkpt lat="40.0581250" lon="-4.6535430">
        <ele>407.9</ele>
        <time>2020-10-04T11:02:04Z</time>
      </trkpt>
      <trkpt lat="40.0580660" lon="-4.6535350">
        <ele>408.0</ele>
        <time>2020-10-04T11:02:05Z</time>
      </trkpt>
      <trkpt lat="40.0579500" lon="-4.6535200">
        <ele>408.0</ele>
        <time>2020-10-04T11:02:07Z</time>
      </trkpt>
      <trkpt lat="40.0578330" lon="-4.6535030">
        <ele>407.9</ele>
        <time>2020-10-04T11:02:09Z</time>
      </trkpt>
      <trkpt lat="40.0577180" lon="-4.6534880">
        <ele>407.9</ele>
        <time>2020-10-04T11:02:11Z</time>
      </trkpt>
      <trkpt lat="40.0576050" lon="-4.6534700">
        <ele>407.9</ele>
        <time>2020-10-04T11:02:13Z</time>
      </trkpt>
      <trkpt lat="40.0575480" lon="-4.6534630">
        <ele>408.0</ele>
        <time>2020-10-04T11:02:14Z</time>
      </trkpt>
      <trkpt lat="40.0574350" lon="-4.6534470">
        <ele>407.9</ele>
        <time>2020-10-04T11:02:16Z</time>
      </trkpt>
      <trkpt lat="40.0573780" lon="-4.6534390">
        <ele>407.9</ele>
        <time>2020-10-04T11:02:17Z</time>
      </trkpt>
      <trkpt lat="40.0572620" lon="-4.6534260">
        <ele>407.8</ele>
        <time>2020-10-04T11:02:19Z</time>
      </trkpt>
      <trkpt lat="40.0571450" lon="-4.6534130">
        <ele>407.6</ele>
        <time>2020-10-04T11:02:21Z</time>
      </trkpt>
      <trkpt lat="40.0570850" lon="-4.6534050">
        <ele>407.6</ele>
        <time>2020-10-04T11:02:22Z</time>
      </trkpt>
      <trkpt lat="40.0570260" lon="-4.6533980">
        <ele>407.5</ele>
        <time>2020-10-04T11:02:23Z</time>
      </trkpt>
      <trkpt lat="40.0569660" lon="-4.6533900">
        <ele>407.4</ele>
        <time>2020-10-04T11:02:24Z</time>
      </trkpt>
      <trkpt lat="40.0568470" lon="-4.6533700">
        <ele>407.3</ele>
        <time>2020-10-04T11:02:26Z</time>
      </trkpt>
      <trkpt lat="40.0567250" lon="-4.6533510">
        <ele>407.2</ele>
        <time>2020-10-04T11:02:28Z</time>
      </trkpt>
      <trkpt lat="40.0566630" lon="-4.6533400">
        <ele>407.1</ele>
        <time>2020-10-04T11:02:29Z</time>
      </trkpt>
      <trkpt lat="40.0566020" lon="-4.6533290">
        <ele>407.1</ele>
        <time>2020-10-04T11:02:30Z</time>
      </trkpt>
      <trkpt lat="40.0565400" lon="-4.6533190">
        <ele>407.0</ele>
        <time>2020-10-04T11:02:31Z</time>
      </trkpt>
      <trkpt lat="40.0564790" lon="-4.6533120">
        <ele>406.9</ele>
        <time>2020-10-04T11:02:32Z</time>
      </trkpt>
      <trkpt lat="40.0563570" lon="-4.6533010">
        <ele>406.8</ele>
        <time>2020-10-04T11:02:34Z</time>
      </trkpt>
      <trkpt lat="40.0562340" lon="-4.6532840">
        <ele>406.7</ele>
        <time>2020-10-04T11:02:36Z</time>
      </trkpt>
      <trkpt lat="40.0561080" lon="-4.6532630">
        <ele>406.5</ele>
        <time>2020-10-04T11:02:38Z</time>
      </trkpt>
      <trkpt lat="40.0559820" lon="-4.6532420">
        <ele>406.4</ele>
        <time>2020-10-04T11:02:40Z</time>
      </trkpt>
      <trkpt lat="40.0559180" lon="-4.6532360">
        <ele>406.3</ele>
        <time>2020-10-04T11:02:41Z</time>
      </trkpt>
      <trkpt lat="40.0558540" lon="-4.6532330">
        <ele>406.2</ele>
        <time>2020-10-04T11:02:42Z</time>
      </trkpt>
      <trkpt lat="40.0557290" lon="-4.6532280">
        <ele>406.0</ele>
        <time>2020-10-04T11:02:44Z</time>
      </trkpt>
      <trkpt lat="40.0556680" lon="-4.6532230">
        <ele>405.9</ele>
        <time>2020-10-04T11:02:45Z</time>
      </trkpt>
      <trkpt lat="40.0556080" lon="-4.6532190">
        <ele>405.8</ele>
        <time>2020-10-04T11:02:46Z</time>
      </trkpt>
      <trkpt lat="40.0555470" lon="-4.6532150">
        <ele>405.7</ele>
        <time>2020-10-04T11:02:47Z</time>
      </trkpt>
      <trkpt lat="40.0554250" lon="-4.6532020">
        <ele>405.4</ele>
        <time>2020-10-04T11:02:49Z</time>
      </trkpt>
      <trkpt lat="40.0553630" lon="-4.6531960">
        <ele>405.4</ele>
        <time>2020-10-04T11:02:50Z</time>
      </trkpt>
      <trkpt lat="40.0553000" lon="-4.6531900">
        <ele>405.3</ele>
        <time>2020-10-04T11:02:51Z</time>
      </trkpt>
      <trkpt lat="40.0551730" lon="-4.6531780">
        <ele>405.0</ele>
        <time>2020-10-04T11:02:53Z</time>
      </trkpt>
      <trkpt lat="40.0551090" lon="-4.6531700">
        <ele>404.8</ele>
        <time>2020-10-04T11:02:54Z</time>
      </trkpt>
      <trkpt lat="40.0549770" lon="-4.6531570">
        <ele>404.4</ele>
        <time>2020-10-04T11:02:56Z</time>
      </trkpt>
      <trkpt lat="40.0549100" lon="-4.6531510">
        <ele>404.2</ele>
        <time>2020-10-04T11:02:57Z</time>
      </trkpt>
      <trkpt lat="40.0547780" lon="-4.6531320">
        <ele>403.9</ele>
        <time>2020-10-04T11:02:59Z</time>
      </trkpt>
      <trkpt lat="40.0547120" lon="-4.6531190">
        <ele>403.7</ele>
        <time>2020-10-04T11:03:00Z</time>
      </trkpt>
      <trkpt lat="40.0545830" lon="-4.6530940">
        <ele>403.4</ele>
        <time>2020-10-04T11:03:02Z</time>
      </trkpt>
      <trkpt lat="40.0545170" lon="-4.6530800">
        <ele>403.3</ele>
        <time>2020-10-04T11:03:03Z</time>
      </trkpt>
      <trkpt lat="40.0544510" lon="-4.6530630">
        <ele>403.1</ele>
        <time>2020-10-04T11:03:04Z</time>
      </trkpt>
      <trkpt lat="40.0543140" lon="-4.6530270">
        <ele>402.9</ele>
        <time>2020-10-04T11:03:06Z</time>
      </trkpt>
      <trkpt lat="40.0542450" lon="-4.6530120">
        <ele>402.8</ele>
        <time>2020-10-04T11:03:07Z</time>
      </trkpt>
      <trkpt lat="40.0541070" lon="-4.6530040">
        <ele>402.8</ele>
        <time>2020-10-04T11:03:09Z</time>
      </trkpt>
      <trkpt lat="40.0540380" lon="-4.6530050">
        <ele>402.8</ele>
        <time>2020-10-04T11:03:10Z</time>
      </trkpt>
      <trkpt lat="40.0539730" lon="-4.6530010">
        <ele>403.0</ele>
        <time>2020-10-04T11:03:11Z</time>
      </trkpt>
      <trkpt lat="40.0538430" lon="-4.6529850">
        <ele>403.2</ele>
        <time>2020-10-04T11:03:13Z</time>
      </trkpt>
      <trkpt lat="40.0537130" lon="-4.6529670">
        <ele>403.4</ele>
        <time>2020-10-04T11:03:15Z</time>
      </trkpt>
      <trkpt lat="40.0535850" lon="-4.6529480">
        <ele>403.7</ele>
        <time>2020-10-04T11:03:17Z</time>
      </trkpt>
      <trkpt lat="40.0534590" lon="-4.6529210">
        <ele>404.0</ele>
        <time>2020-10-04T11:03:19Z</time>
      </trkpt>
      <trkpt lat="40.0533970" lon="-4.6529090">
        <ele>404.2</ele>
        <time>2020-10-04T11:03:20Z</time>
      </trkpt>
      <trkpt lat="40.0532770" lon="-4.6528940">
        <ele>404.3</ele>
        <time>2020-10-04T11:03:22Z</time>
      </trkpt>
      <trkpt lat="40.0531590" lon="-4.6528830">
        <ele>404.3</ele>
        <time>2020-10-04T11:03:24Z</time>
      </trkpt>
      <trkpt lat="40.0530410" lon="-4.6528670">
        <ele>404.1</ele>
        <time>2020-10-04T11:03:26Z</time>
      </trkpt>
      <trkpt lat="40.0529150" lon="-4.6528440">
        <ele>403.8</ele>
        <time>2020-10-04T11:03:28Z</time>
      </trkpt>
      <trkpt lat="40.0528480" lon="-4.6528350">
        <ele>403.6</ele>
        <time>2020-10-04T11:03:29Z</time>
      </trkpt>
      <trkpt lat="40.0527770" lon="-4.6528270">
        <ele>403.5</ele>
        <time>2020-10-04T11:03:30Z</time>
      </trkpt>
      <trkpt lat="40.0526300" lon="-4.6528120">
        <ele>403.1</ele>
        <time>2020-10-04T11:03:32Z</time>
      </trkpt>
      <trkpt lat="40.0524800" lon="-4.6527970">
        <ele>402.7</ele>
        <time>2020-10-04T11:03:34Z</time>
      </trkpt>
      <trkpt lat="40.0523320" lon="-4.6527810">
        <ele>402.5</ele>
        <time>2020-10-04T11:03:36Z</time>
      </trkpt>
      <trkpt lat="40.0521860" lon="-4.6527620">
        <ele>402.3</ele>
        <time>2020-10-04T11:03:38Z</time>
      </trkpt>
      <trkpt lat="40.0521130" lon="-4.6527520">
        <ele>402.2</ele>
        <time>2020-10-04T11:03:39Z</time>
      </trkpt>
      <trkpt lat="40.0520400" lon="-4.6527430">
        <ele>402.1</ele>
        <time>2020-10-04T11:03:40Z</time>
      </trkpt>
      <trkpt lat="40.0519680" lon="-4.6527350">
        <ele>402.0</ele>
        <time>2020-10-04T11:03:41Z</time>
      </trkpt>
      <trkpt lat="40.0518250" lon="-4.6527200">
        <ele>401.8</ele>
        <time>2020-10-04T11:03:43Z</time>
      </trkpt>
      <trkpt lat="40.0517530" lon="-4.6527080">
        <ele>401.7</ele>
        <time>2020-10-04T11:03:44Z</time>
      </trkpt>
      <trkpt lat="40.0516090" lon="-4.6526850">
        <ele>401.5</ele>
        <time>2020-10-04T11:03:46Z</time>
      </trkpt>
      <trkpt lat="40.0515350" lon="-4.6526780">
        <ele>401.4</ele>
        <time>2020-10-04T11:03:47Z</time>
      </trkpt>
      <trkpt lat="40.0513920" lon="-4.6526620">
        <ele>401.2</ele>
        <time>2020-10-04T11:03:49Z</time>
      </trkpt>
      <trkpt lat="40.0512500" lon="-4.6526410">
        <ele>401.1</ele>
        <time>2020-10-04T11:03:51Z</time>
      </trkpt>
      <trkpt lat="40.0511120" lon="-4.6526250">
        <ele>401.0</ele>
        <time>2020-10-04T11:03:53Z</time>
      </trkpt>
      <trkpt lat="40.0509740" lon="-4.6526110">
        <ele>401.0</ele>
        <time>2020-10-04T11:03:55Z</time>
      </trkpt>
      <trkpt lat="40.0508360" lon="-4.6525920">
        <ele>400.9</ele>
        <time>2020-10-04T11:03:57Z</time>
      </trkpt>
      <trkpt lat="40.0507660" lon="-4.6525820">
        <ele>400.8</ele>
        <time>2020-10-04T11:03:58Z</time>
      </trkpt>
      <trkpt lat="40.0506270" lon="-4.6525600">
        <ele>400.5</ele>
        <time>2020-10-04T11:04:00Z</time>
      </trkpt>
      <trkpt lat="40.0505570" lon="-4.6525480">
        <ele>400.4</ele>
        <time>2020-10-04T11:04:01Z</time>
      </trkpt>
      <trkpt lat="40.0504860" lon="-4.6525390">
        <ele>400.3</ele>
        <time>2020-10-04T11:04:02Z</time>
      </trkpt>
      <trkpt lat="40.0503460" lon="-4.6525140">
        <ele>400.0</ele>
        <time>2020-10-04T11:04:04Z</time>
      </trkpt>
      <trkpt lat="40.0502750" lon="-4.6525030">
        <ele>399.9</ele>
        <time>2020-10-04T11:04:05Z</time>
      </trkpt>
      <trkpt lat="40.0501300" lon="-4.6524780">
        <ele>399.5</ele>
        <time>2020-10-04T11:04:07Z</time>
      </trkpt>
      <trkpt lat="40.0500550" lon="-4.6524670">
        <ele>399.3</ele>
        <time>2020-10-04T11:04:08Z</time>
      </trkpt>
      <trkpt lat="40.0499030" lon="-4.6524580">
        <ele>399.1</ele>
        <time>2020-10-04T11:04:10Z</time>
      </trkpt>
      <trkpt lat="40.0497500" lon="-4.6524390">
        <ele>399.1</ele>
        <time>2020-10-04T11:04:12Z</time>
      </trkpt>
      <trkpt lat="40.0496760" lon="-4.6524250">
        <ele>399.2</ele>
        <time>2020-10-04T11:04:13Z</time>
      </trkpt>
      <trkpt lat="40.0496040" lon="-4.6524120">
        <ele>399.3</ele>
        <time>2020-10-04T11:04:14Z</time>
      </trkpt>
      <trkpt lat="40.0494690" lon="-4.6523800">
        <ele>399.5</ele>
        <time>2020-10-04T11:04:16Z</time>
      </trkpt>
      <trkpt lat="40.0494030" lon="-4.6523650">
        <ele>399.6</ele>
        <time>2020-10-04T11:04:17Z</time>
      </trkpt>
      <trkpt lat="40.0492710" lon="-4.6523580">
        <ele>399.8</ele>
        <time>2020-10-04T11:04:19Z</time>
      </trkpt>
      <trkpt lat="40.0491420" lon="-4.6523770">
        <ele>400.0</ele>
        <time>2020-10-04T11:04:21Z</time>
      </trkpt>
      <trkpt lat="40.0490170" lon="-4.6523620">
        <ele>400.0</ele>
        <time>2020-10-04T11:04:23Z</time>
      </trkpt>
      <trkpt lat="40.0489550" lon="-4.6523520">
        <ele>400.1</ele>
        <time>2020-10-04T11:04:24Z</time>
      </trkpt>
      <trkpt lat="40.0488340" lon="-4.6523270">
        <ele>400.1</ele>
        <time>2020-10-04T11:04:26Z</time>
      </trkpt>
      <trkpt lat="40.0487720" lon="-4.6523150">
        <ele>400.1</ele>
        <time>2020-10-04T11:04:27Z</time>
      </trkpt>
      <trkpt lat="40.0486470" lon="-4.6522980">
        <ele>400.1</ele>
        <time>2020-10-04T11:04:29Z</time>
      </trkpt>
      <trkpt lat="40.0485840" lon="-4.6522950">
        <ele>400.1</ele>
        <time>2020-10-04T11:04:30Z</time>
      </trkpt>
      <trkpt lat="40.0484570" lon="-4.6522790">
        <ele>400.0</ele>
        <time>2020-10-04T11:04:32Z</time>
      </trkpt>
      <trkpt lat="40.0483290" lon="-4.6522510">
        <ele>400.0</ele>
        <time>2020-10-04T11:04:34Z</time>
      </trkpt>
      <trkpt lat="40.0482000" lon="-4.6522330">
        <ele>400.0</ele>
        <time>2020-10-04T11:04:36Z</time>
      </trkpt>
      <trkpt lat="40.0480690" lon="-4.6522240">
        <ele>399.9</ele>
        <time>2020-10-04T11:04:38Z</time>
      </trkpt>
      <trkpt lat="40.0479400" lon="-4.6522090">
        <ele>399.9</ele>
        <time>2020-10-04T11:04:40Z</time>
      </trkpt>
      <trkpt lat="40.0478100" lon="-4.6521910">
        <ele>399.9</ele>
        <time>2020-10-04T11:04:42Z</time>
      </trkpt>
      <trkpt lat="40.0476780" lon="-4.6521720">
        <ele>399.9</ele>
        <time>2020-10-04T11:04:44Z</time>
      </trkpt>
      <trkpt lat="40.0475500" lon="-4.6521560">
        <ele>399.9</ele>
        <time>2020-10-04T11:04:46Z</time>
      </trkpt>
      <trkpt lat="40.0474860" lon="-4.6521480">
        <ele>399.9</ele>
        <time>2020-10-04T11:04:47Z</time>
      </trkpt>
      <trkpt lat="40.0474230" lon="-4.6521400">
        <ele>399.8</ele>
        <time>2020-10-04T11:04:48Z</time>
      </trkpt>
      <trkpt lat="40.0472960" lon="-4.6521220">
        <ele>399.8</ele>
        <time>2020-10-04T11:04:50Z</time>
      </trkpt>
      <trkpt lat="40.0471710" lon="-4.6521090">
        <ele>399.9</ele>
        <time>2020-10-04T11:04:52Z</time>
      </trkpt>
      <trkpt lat="40.0470470" lon="-4.6520910">
        <ele>399.9</ele>
        <time>2020-10-04T11:04:54Z</time>
      </trkpt>
      <trkpt lat="40.0469230" lon="-4.6520710">
        <ele>399.8</ele>
        <time>2020-10-04T11:04:56Z</time>
      </trkpt>
      <trkpt lat="40.0468600" lon="-4.6520610">
        <ele>399.7</ele>
        <time>2020-10-04T11:04:57Z</time>
      </trkpt>
      <trkpt lat="40.0467330" lon="-4.6520580">
        <ele>399.6</ele>
        <time>2020-10-04T11:04:59Z</time>
      </trkpt>
      <trkpt lat="40.0466670" lon="-4.6520660">
        <ele>399.6</ele>
        <time>2020-10-04T11:05:00Z</time>
      </trkpt>
      <trkpt lat="40.0466030" lon="-4.6520690">
        <ele>399.7</ele>
        <time>2020-10-04T11:05:01Z</time>
      </trkpt>
      <trkpt lat="40.0465400" lon="-4.6520630">
        <ele>399.7</ele>
        <time>2020-10-04T11:05:02Z</time>
      </trkpt>
      <trkpt lat="40.0464770" lon="-4.6520480">
        <ele>399.7</ele>
        <time>2020-10-04T11:05:03Z</time>
      </trkpt>
      <trkpt lat="40.0464160" lon="-4.6520280">
        <ele>399.7</ele>
        <time>2020-10-04T11:05:04Z</time>
      </trkpt>
      <trkpt lat="40.0462960" lon="-4.6519960">
        <ele>399.6</ele>
        <time>2020-10-04T11:05:06Z</time>
      </trkpt>
      <trkpt lat="40.0462370" lon="-4.6519820">
        <ele>399.6</ele>
        <time>2020-10-04T11:05:07Z</time>
      </trkpt>
      <trkpt lat="40.0461810" lon="-4.6519670">
        <ele>399.6</ele>
        <time>2020-10-04T11:05:08Z</time>
      </trkpt>
      <trkpt lat="40.0461290" lon="-4.6519510">
        <ele>399.7</ele>
        <time>2020-10-04T11:05:09Z</time>
      </trkpt>
      <trkpt lat="40.0460550" lon="-4.6519070">
        <ele>399.7</ele>
        <time>2020-10-04T11:05:11Z</time>
      </trkpt>
      <trkpt lat="40.0460320" lon="-4.6518820">
        <ele>399.7</ele>
        <time>2020-10-04T11:05:13Z</time>
      </trkpt>
      <trkpt lat="40.0460410" lon="-4.6518890">
        <ele>399.7</ele>
        <time>2020-10-04T11:05:14Z</time>
      </trkpt>
      <trkpt lat="40.0460460" lon="-4.6518930">
        <ele>399.7</ele>
        <time>2020-10-04T11:05:16Z</time>
      </trkpt>
      <trkpt lat="40.0460470" lon="-4.6518940">
        <ele>399.7</ele>
        <time>2020-10-04T11:05:17Z</time>
      </trkpt>
      <trkpt lat="40.0460490" lon="-4.6518950">
        <ele>399.7</ele>
        <time>2020-10-04T11:05:19Z</time>
      </trkpt>
      <trkpt lat="40.0460490" lon="-4.6518950">
        <ele>399.7</ele>
        <time>2020-10-04T11:05:20Z</time>
      </trkpt>
      <trkpt lat="40.0460480" lon="-4.6518940">
        <ele>399.7</ele>
        <time>2020-10-04T11:05:21Z</time>
      </trkpt>
      <trkpt lat="40.0460280" lon="-4.6518390">
        <ele>399.7</ele>
        <time>2020-10-04T11:05:26Z</time>
      </trkpt>
      <trkpt lat="40.0460160" lon="-4.6517930">
        <ele>399.7</ele>
        <time>2020-10-04T11:05:28Z</time>
      </trkpt>
      <trkpt lat="40.0460000" lon="-4.6517170">
        <ele>399.7</ele>
        <time>2020-10-04T11:05:29Z</time>
      </trkpt>
      <trkpt lat="40.0459210" lon="-4.6515550">
        <ele>399.6</ele>
        <time>2020-10-04T11:05:31Z</time>
      </trkpt>
      <trkpt lat="40.0458930" lon="-4.6514760">
        <ele>399.6</ele>
        <time>2020-10-04T11:05:32Z</time>
      </trkpt>
      <trkpt lat="40.0458640" lon="-4.6513320">
        <ele>399.5</ele>
        <time>2020-10-04T11:05:34Z</time>
      </trkpt>
      <trkpt lat="40.0458520" lon="-4.6512600">
        <ele>399.4</ele>
        <time>2020-10-04T11:05:35Z</time>
      </trkpt>
      <trkpt lat="40.0458400" lon="-4.6511830">
        <ele>399.3</ele>
        <time>2020-10-04T11:05:36Z</time>
      </trkpt>
      <trkpt lat="40.0458250" lon="-4.6510050">
        <ele>398.9</ele>
        <time>2020-10-04T11:05:38Z</time>
      </trkpt>
      <trkpt lat="40.0458050" lon="-4.6508220">
        <ele>398.5</ele>
        <time>2020-10-04T11:05:40Z</time>
      </trkpt>
      <trkpt lat="40.0457920" lon="-4.6507330">
        <ele>398.2</ele>
        <time>2020-10-04T11:05:41Z</time>
      </trkpt>
      <trkpt lat="40.0457790" lon="-4.6506430">
        <ele>398.1</ele>
        <time>2020-10-04T11:05:42Z</time>
      </trkpt>
      <trkpt lat="40.0457690" lon="-4.6505550">
        <ele>397.9</ele>
        <time>2020-10-04T11:05:43Z</time>
      </trkpt>
      <trkpt lat="40.0457510" lon="-4.6503980">
        <ele>397.7</ele>
        <time>2020-10-04T11:05:45Z</time>
      </trkpt>
      <trkpt lat="40.0457390" lon="-4.6503190">
        <ele>397.6</ele>
        <time>2020-10-04T11:05:46Z</time>
      </trkpt>
      <trkpt lat="40.0457090" lon="-4.6501350">
        <ele>397.3</ele>
        <time>2020-10-04T11:05:48Z</time>
      </trkpt>
      <trkpt lat="40.0456950" lon="-4.6500400">
        <ele>397.2</ele>
        <time>2020-10-04T11:05:49Z</time>
      </trkpt>
      <trkpt lat="40.0456790" lon="-4.6499470">
        <ele>397.1</ele>
        <time>2020-10-04T11:05:50Z</time>
      </trkpt>
      <trkpt lat="40.0456430" lon="-4.6497580">
        <ele>396.9</ele>
        <time>2020-10-04T11:05:52Z</time>
      </trkpt>
      <trkpt lat="40.0455960" lon="-4.6495650">
        <ele>396.8</ele>
        <time>2020-10-04T11:05:54Z</time>
      </trkpt>
      <trkpt lat="40.0455410" lon="-4.6493740">
        <ele>396.5</ele>
        <time>2020-10-04T11:05:56Z</time>
      </trkpt>
      <trkpt lat="40.0455130" lon="-4.6492790">
        <ele>396.4</ele>
        <time>2020-10-04T11:05:57Z</time>
      </trkpt>
      <trkpt lat="40.0454910" lon="-4.6490820">
        <ele>396.1</ele>
        <time>2020-10-04T11:05:59Z</time>
      </trkpt>
      <trkpt lat="40.0454970" lon="-4.6489780">
        <ele>395.9</ele>
        <time>2020-10-04T11:06:00Z</time>
      </trkpt>
      <trkpt lat="40.0455110" lon="-4.6488700">
        <ele>395.6</ele>
        <time>2020-10-04T11:06:01Z</time>
      </trkpt>
      <trkpt lat="40.0455350" lon="-4.6487590">
        <ele>395.2</ele>
        <time>2020-10-04T11:06:02Z</time>
      </trkpt>
      <trkpt lat="40.0455780" lon="-4.6485260">
        <ele>393.9</ele>
        <time>2020-10-04T11:06:04Z</time>
      </trkpt>
      <trkpt lat="40.0455820" lon="-4.6483920">
        <ele>393.0</ele>
        <time>2020-10-04T11:06:05Z</time>
      </trkpt>
      <trkpt lat="40.0455430" lon="-4.6481090">
        <ele>391.0</ele>
        <time>2020-10-04T11:06:07Z</time>
      </trkpt>
      <trkpt lat="40.0454290" lon="-4.6478540">
        <ele>389.9</ele>
        <time>2020-10-04T11:06:09Z</time>
      </trkpt>
      <trkpt lat="40.0453560" lon="-4.6477430">
        <ele>389.6</ele>
        <time>2020-10-04T11:06:10Z</time>
      </trkpt>
      <trkpt lat="40.0452280" lon="-4.6475270">
        <ele>389.1</ele>
        <time>2020-10-04T11:06:12Z</time>
      </trkpt>
      <trkpt lat="40.0451740" lon="-4.6474200">
        <ele>388.9</ele>
        <time>2020-10-04T11:06:13Z</time>
      </trkpt>
      <trkpt lat="40.0450740" lon="-4.6472080">
        <ele>388.5</ele>
        <time>2020-10-04T11:06:15Z</time>
      </trkpt>
      <trkpt lat="40.0450620" lon="-4.6470860">
        <ele>388.2</ele>
        <time>2020-10-04T11:06:16Z</time>
      </trkpt>
      <trkpt lat="40.0451070" lon="-4.6468510">
        <ele>388.2</ele>
        <time>2020-10-04T11:06:18Z</time>
      </trkpt>
      <trkpt lat="40.0451510" lon="-4.6467350">
        <ele>388.2</ele>
        <time>2020-10-04T11:06:19Z</time>
      </trkpt>
      <trkpt lat="40.0452900" lon="-4.6465460">
        <ele>388.3</ele>
        <time>2020-10-04T11:06:21Z</time>
      </trkpt>
      <trkpt lat="40.0453810" lon="-4.6464940">
        <ele>388.3</ele>
        <time>2020-10-04T11:06:22Z</time>
      </trkpt>
      <trkpt lat="40.0455690" lon="-4.6464700">
        <ele>388.5</ele>
        <time>2020-10-04T11:06:24Z</time>
      </trkpt>
      <trkpt lat="40.0456620" lon="-4.6464640">
        <ele>388.6</ele>
        <time>2020-10-04T11:06:25Z</time>
      </trkpt>
      <trkpt lat="40.0457530" lon="-4.6464450">
        <ele>388.8</ele>
        <time>2020-10-04T11:06:26Z</time>
      </trkpt>
      <trkpt lat="40.0459210" lon="-4.6463710">
        <ele>389.4</ele>
        <time>2020-10-04T11:06:28Z</time>
      </trkpt>
      <trkpt lat="40.0460760" lon="-4.6462710">
        <ele>390.3</ele>
        <time>2020-10-04T11:06:30Z</time>
      </trkpt>
      <trkpt lat="40.0462120" lon="-4.6461760">
        <ele>391.1</ele>
        <time>2020-10-04T11:06:32Z</time>
      </trkpt>
      <trkpt lat="40.0463450" lon="-4.6460920">
        <ele>392.2</ele>
        <time>2020-10-04T11:06:34Z</time>
      </trkpt>
      <trkpt lat="40.0464080" lon="-4.6460500">
        <ele>392.9</ele>
        <time>2020-10-04T11:06:35Z</time>
      </trkpt>
      <trkpt lat="40.0464710" lon="-4.6460090">
        <ele>393.6</ele>
        <time>2020-10-04T11:06:36Z</time>
      </trkpt>
      <trkpt lat="40.0465880" lon="-4.6459270">
        <ele>395.0</ele>
        <time>2020-10-04T11:06:38Z</time>
      </trkpt>
      <trkpt lat="40.0467000" lon="-4.6458470">
        <ele>396.3</ele>
        <time>2020-10-04T11:06:40Z</time>
      </trkpt>
      <trkpt lat="40.0467540" lon="-4.6458090">
        <ele>397.0</ele>
        <time>2020-10-04T11:06:41Z</time>
      </trkpt>
      <trkpt lat="40.0468610" lon="-4.6457350">
        <ele>398.3</ele>
        <time>2020-10-04T11:06:43Z</time>
      </trkpt>
      <trkpt lat="40.0469100" lon="-4.6457050">
        <ele>398.7</ele>
        <time>2020-10-04T11:06:44Z</time>
      </trkpt>
      <trkpt lat="40.0469540" lon="-4.6456800">
        <ele>399.1</ele>
        <time>2020-10-04T11:06:45Z</time>
      </trkpt>
      <trkpt lat="40.0470280" lon="-4.6456290">
        <ele>399.9</ele>
        <time>2020-10-04T11:06:47Z</time>
      </trkpt>
      <trkpt lat="40.0470630" lon="-4.6456000">
        <ele>400.3</ele>
        <time>2020-10-04T11:06:48Z</time>
      </trkpt>
      <trkpt lat="40.0471200" lon="-4.6455520">
        <ele>400.9</ele>
        <time>2020-10-04T11:06:50Z</time>
      </trkpt>
      <trkpt lat="40.0471830" lon="-4.6455060">
        <ele>401.5</ele>
        <time>2020-10-04T11:06:52Z</time>
      </trkpt>
      <trkpt lat="40.0472090" lon="-4.6454890">
        <ele>401.7</ele>
        <time>2020-10-04T11:06:53Z</time>
      </trkpt>
      <trkpt lat="40.0472630" lon="-4.6454630">
        <ele>402.2</ele>
        <time>2020-10-04T11:06:54Z</time>
      </trkpt>
      <trkpt lat="40.0472910" lon="-4.6454640">
        <ele>402.4</ele>
        <time>2020-10-04T11:06:56Z</time>
      </trkpt>
      <trkpt lat="40.0473020" lon="-4.6454680">
        <ele>402.5</ele>
        <time>2020-10-04T11:06:57Z</time>
      </trkpt>
      <trkpt lat="40.0473140" lon="-4.6454570">
        <ele>402.6</ele>
        <time>2020-10-04T11:06:59Z</time>
      </trkpt>
      <trkpt lat="40.0473240" lon="-4.6454470">
        <ele>402.7</ele>
        <time>2020-10-04T11:07:00Z</time>
      </trkpt>
      <trkpt lat="40.0473570" lon="-4.6454280">
        <ele>403.0</ele>
        <time>2020-10-04T11:07:02Z</time>
      </trkpt>
      <trkpt lat="40.0474080" lon="-4.6453820">
        <ele>403.4</ele>
        <time>2020-10-04T11:07:03Z</time>
      </trkpt>
      <trkpt lat="40.0474990" lon="-4.6453090">
        <ele>404.0</ele>
        <time>2020-10-04T11:07:05Z</time>
      </trkpt>
      <trkpt lat="40.0475670" lon="-4.6452560">
        <ele>404.3</ele>
        <time>2020-10-04T11:07:07Z</time>
      </trkpt>
      <trkpt lat="40.0476000" lon="-4.6452280">
        <ele>404.4</ele>
        <time>2020-10-04T11:07:08Z</time>
      </trkpt>
      <trkpt lat="40.0476670" lon="-4.6451820">
        <ele>404.5</ele>
        <time>2020-10-04T11:07:10Z</time>
      </trkpt>
      <trkpt lat="40.0477140" lon="-4.6451580">
        <ele>404.6</ele>
        <time>2020-10-04T11:07:11Z</time>
      </trkpt>
      <trkpt lat="40.0477840" lon="-4.6451250">
        <ele>404.7</ele>
        <time>2020-10-04T11:07:13Z</time>
      </trkpt>
      <trkpt lat="40.0478310" lon="-4.6451060">
        <ele>404.7</ele>
        <time>2020-10-04T11:07:14Z</time>
      </trkpt>
      <trkpt lat="40.0479000" lon="-4.6450830">
        <ele>404.8</ele>
        <time>2020-10-04T11:07:16Z</time>
      </trkpt>
      <trkpt lat="40.0479360" lon="-4.6450740">
        <ele>404.9</ele>
        <time>2020-10-04T11:07:17Z</time>
      </trkpt>
      <trkpt lat="40.0480070" lon="-4.6450690">
        <ele>405.0</ele>
        <time>2020-10-04T11:07:18Z</time>
      </trkpt>
      <trkpt lat="40.0480630" lon="-4.6450660">
        <ele>405.1</ele>
        <time>2020-10-04T11:07:20Z</time>
      </trkpt>
      <trkpt lat="40.0481200" lon="-4.6450680">
        <ele>405.3</ele>
        <time>2020-10-04T11:07:21Z</time>
      </trkpt>
      <trkpt lat="40.0481740" lon="-4.6450740">
        <ele>405.5</ele>
        <time>2020-10-04T11:07:22Z</time>
      </trkpt>
      <trkpt lat="40.0482150" lon="-4.6450820">
        <ele>405.6</ele>
        <time>2020-10-04T11:07:24Z</time>
      </trkpt>
      <trkpt lat="40.0482720" lon="-4.6451020">
        <ele>406.0</ele>
        <time>2020-10-04T11:07:25Z</time>
      </trkpt>
      <trkpt lat="40.0483140" lon="-4.6451160">
        <ele>406.3</ele>
        <time>2020-10-04T11:07:27Z</time>
      </trkpt>
      <trkpt lat="40.0483900" lon="-4.6451410">
        <ele>406.9</ele>
        <time>2020-10-04T11:07:29Z</time>
      </trkpt>
      <trkpt lat="40.0484390" lon="-4.6451520">
        <ele>407.2</ele>
        <time>2020-10-04T11:07:30Z</time>
      </trkpt>
      <trkpt lat="40.0484900" lon="-4.6451650">
        <ele>407.6</ele>
        <time>2020-10-04T11:07:32Z</time>
      </trkpt>
      <trkpt lat="40.0485230" lon="-4.6451760">
        <ele>407.9</ele>
        <time>2020-10-04T11:07:33Z</time>
      </trkpt>
      <trkpt lat="40.0485810" lon="-4.6451950">
        <ele>408.3</ele>
        <time>2020-10-04T11:07:34Z</time>
      </trkpt>
      <trkpt lat="40.0486340" lon="-4.6452030">
        <ele>408.7</ele>
        <time>2020-10-04T11:07:36Z</time>
      </trkpt>
      <trkpt lat="40.0486670" lon="-4.6452060">
        <ele>408.9</ele>
        <time>2020-10-04T11:07:37Z</time>
      </trkpt>
      <trkpt lat="40.0487180" lon="-4.6452030">
        <ele>409.3</ele>
        <time>2020-10-04T11:07:38Z</time>
      </trkpt>
      <trkpt lat="40.0487640" lon="-4.6452000">
        <ele>409.6</ele>
        <time>2020-10-04T11:07:39Z</time>
      </trkpt>
      <trkpt lat="40.0488050" lon="-4.6451980">
        <ele>409.9</ele>
        <time>2020-10-04T11:07:41Z</time>
      </trkpt>
      <trkpt lat="40.0488360" lon="-4.6451920">
        <ele>410.2</ele>
        <time>2020-10-04T11:07:42Z</time>
      </trkpt>
      <trkpt lat="40.0488980" lon="-4.6451770">
        <ele>410.6</ele>
        <time>2020-10-04T11:07:43Z</time>
      </trkpt>
      <trkpt lat="40.0489340" lon="-4.6451690">
        <ele>410.9</ele>
        <time>2020-10-04T11:07:44Z</time>
      </trkpt>
      <trkpt lat="40.0489920" lon="-4.6451470">
        <ele>411.4</ele>
        <time>2020-10-04T11:07:46Z</time>
      </trkpt>
      <trkpt lat="40.0490420" lon="-4.6451250">
        <ele>411.7</ele>
        <time>2020-10-04T11:07:48Z</time>
      </trkpt>
      <trkpt lat="40.0490780" lon="-4.6451060">
        <ele>412.0</ele>
        <time>2020-10-04T11:07:49Z</time>
      </trkpt>
      <trkpt lat="40.0491250" lon="-4.6450750">
        <ele>412.3</ele>
        <time>2020-10-04T11:07:50Z</time>
      </trkpt>
      <trkpt lat="40.0491630" lon="-4.6450530">
        <ele>412.5</ele>
        <time>2020-10-04T11:07:51Z</time>
      </trkpt>
      <trkpt lat="40.0492020" lon="-4.6450300">
        <ele>412.7</ele>
        <time>2020-10-04T11:07:53Z</time>
      </trkpt>
      <trkpt lat="40.0492630" lon="-4.6449910">
        <ele>413.1</ele>
        <time>2020-10-04T11:07:55Z</time>
      </trkpt>
      <trkpt lat="40.0493140" lon="-4.6449610">
        <ele>413.4</ele>
        <time>2020-10-04T11:07:56Z</time>
      </trkpt>
      <trkpt lat="40.0493530" lon="-4.6449390">
        <ele>413.6</ele>
        <time>2020-10-04T11:07:58Z</time>
      </trkpt>
      <trkpt lat="40.0494170" lon="-4.6448980">
        <ele>413.9</ele>
        <time>2020-10-04T11:08:00Z</time>
      </trkpt>
      <trkpt lat="40.0494580" lon="-4.6448690">
        <ele>414.1</ele>
        <time>2020-10-04T11:08:01Z</time>
      </trkpt>
      <trkpt lat="40.0495160" lon="-4.6448330">
        <ele>414.2</ele>
        <time>2020-10-04T11:08:03Z</time>
      </trkpt>
      <trkpt lat="40.0495500" lon="-4.6448100">
        <ele>414.3</ele>
        <time>2020-10-04T11:08:04Z</time>
      </trkpt>
      <trkpt lat="40.0495840" lon="-4.6447860">
        <ele>414.5</ele>
        <time>2020-10-04T11:08:05Z</time>
      </trkpt>
      <trkpt lat="40.0496360" lon="-4.6447450">
        <ele>414.6</ele>
        <time>2020-10-04T11:08:06Z</time>
      </trkpt>
      <trkpt lat="40.0496770" lon="-4.6447170">
        <ele>414.7</ele>
        <time>2020-10-04T11:08:07Z</time>
      </trkpt>
      <trkpt lat="40.0497340" lon="-4.6446820">
        <ele>414.9</ele>
        <time>2020-10-04T11:08:09Z</time>
      </trkpt>
      <trkpt lat="40.0497650" lon="-4.6446630">
        <ele>415.0</ele>
        <time>2020-10-04T11:08:10Z</time>
      </trkpt>
      <trkpt lat="40.0498200" lon="-4.6446330">
        <ele>415.1</ele>
        <time>2020-10-04T11:08:11Z</time>
      </trkpt>
      <trkpt lat="40.0498700" lon="-4.6446000">
        <ele>415.2</ele>
        <time>2020-10-04T11:08:12Z</time>
      </trkpt>
      <trkpt lat="40.0499060" lon="-4.6445760">
        <ele>415.3</ele>
        <time>2020-10-04T11:08:13Z</time>
      </trkpt>
      <trkpt lat="40.0499470" lon="-4.6445450">
        <ele>415.4</ele>
        <time>2020-10-04T11:08:15Z</time>
      </trkpt>
      <trkpt lat="40.0499830" lon="-4.6445240">
        <ele>415.5</ele>
        <time>2020-10-04T11:08:16Z</time>
      </trkpt>
      <trkpt lat="40.0500220" lon="-4.6444950">
        <ele>415.5</ele>
        <time>2020-10-04T11:08:17Z</time>
      </trkpt>
      <trkpt lat="40.0500780" lon="-4.6444590">
        <ele>415.6</ele>
        <time>2020-10-04T11:08:18Z</time>
      </trkpt>
      <trkpt lat="40.0501320" lon="-4.6444240">
        <ele>415.7</ele>
        <time>2020-10-04T11:08:20Z</time>
      </trkpt>
      <trkpt lat="40.0501680" lon="-4.6443970">
        <ele>415.8</ele>
        <time>2020-10-04T11:08:21Z</time>
      </trkpt>
      <trkpt lat="40.0502090" lon="-4.6443710">
        <ele>415.9</ele>
        <time>2020-10-04T11:08:22Z</time>
      </trkpt>
      <trkpt lat="40.0502480" lon="-4.6443470">
        <ele>415.9</ele>
        <time>2020-10-04T11:08:23Z</time>
      </trkpt>
      <trkpt lat="40.0503200" lon="-4.6442970">
        <ele>416.0</ele>
        <time>2020-10-04T11:08:25Z</time>
      </trkpt>
      <trkpt lat="40.0504040" lon="-4.6442610">
        <ele>416.0</ele>
        <time>2020-10-04T11:08:26Z</time>
      </trkpt>
      <trkpt lat="40.0504750" lon="-4.6442380">
        <ele>416.0</ele>
        <time>2020-10-04T11:08:28Z</time>
      </trkpt>
      <trkpt lat="40.0506190" lon="-4.6442330">
        <ele>416.1</ele>
        <time>2020-10-04T11:08:30Z</time>
      </trkpt>
      <trkpt lat="40.0507390" lon="-4.6442630">
        <ele>416.3</ele>
        <time>2020-10-04T11:08:32Z</time>
      </trkpt>
      <trkpt lat="40.0507950" lon="-4.6442900">
        <ele>416.4</ele>
        <time>2020-10-04T11:08:33Z</time>
      </trkpt>
      <trkpt lat="40.0508440" lon="-4.6443270">
        <ele>416.5</ele>
        <time>2020-10-04T11:08:34Z</time>
      </trkpt>
      <trkpt lat="40.0509220" lon="-4.6444170">
        <ele>416.8</ele>
        <time>2020-10-04T11:08:36Z</time>
      </trkpt>
      <trkpt lat="40.0509540" lon="-4.6444720">
        <ele>416.9</ele>
        <time>2020-10-04T11:08:37Z</time>
      </trkpt>
      <trkpt lat="40.0510010" lon="-4.6445900">
        <ele>417.2</ele>
        <time>2020-10-04T11:08:39Z</time>
      </trkpt>
      <trkpt lat="40.0510290" lon="-4.6447070">
        <ele>417.6</ele>
        <time>2020-10-04T11:08:41Z</time>
      </trkpt>
      <trkpt lat="40.0510430" lon="-4.6448170">
        <ele>418.0</ele>
        <time>2020-10-04T11:08:43Z</time>
      </trkpt>
      <trkpt lat="40.0510550" lon="-4.6449200">
        <ele>418.3</ele>
        <time>2020-10-04T11:08:45Z</time>
      </trkpt>
      <trkpt lat="40.0510660" lon="-4.6450050">
        <ele>418.6</ele>
        <time>2020-10-04T11:08:47Z</time>
      </trkpt>
      <trkpt lat="40.0510800" lon="-4.6451070">
        <ele>419.0</ele>
        <time>2020-10-04T11:08:49Z</time>
      </trkpt>
      <trkpt lat="40.0510880" lon="-4.6451570">
        <ele>419.2</ele>
        <time>2020-10-04T11:08:50Z</time>
      </trkpt>
      <trkpt lat="40.0511030" lon="-4.6452120">
        <ele>419.4</ele>
        <time>2020-10-04T11:08:51Z</time>
      </trkpt>
      <trkpt lat="40.0511120" lon="-4.6452470">
        <ele>419.5</ele>
        <time>2020-10-04T11:08:53Z</time>
      </trkpt>
      <trkpt lat="40.0511200" lon="-4.6452820">
        <ele>419.7</ele>
        <time>2020-10-04T11:08:54Z</time>
      </trkpt>
      <trkpt lat="40.0511520" lon="-4.6454030">
        <ele>420.1</ele>
        <time>2020-10-04T11:08:55Z</time>
      </trkpt>
      <trkpt lat="40.0511760" lon="-4.6454620">
        <ele>420.3</ele>
        <time>2020-10-04T11:08:56Z</time>
      </trkpt>
      <trkpt lat="40.0512170" lon="-4.6455250">
        <ele>420.6</ele>
        <time>2020-10-04T11:08:58Z</time>
      </trkpt>
      <trkpt lat="40.0512510" lon="-4.6455540">
        <ele>420.7</ele>
        <time>2020-10-04T11:08:59Z</time>
      </trkpt>
      <trkpt lat="40.0513310" lon="-4.6455850">
        <ele>420.9</ele>
        <time>2020-10-04T11:09:01Z</time>
      </trkpt>
      <trkpt lat="40.0513810" lon="-4.6455900">
        <ele>421.1</ele>
        <time>2020-10-04T11:09:02Z</time>
      </trkpt>
      <trkpt lat="40.0514410" lon="-4.6455890">
        <ele>421.2</ele>
        <time>2020-10-04T11:09:03Z</time>
      </trkpt>
      <trkpt lat="40.0514870" lon="-4.6455780">
        <ele>421.3</ele>
        <time>2020-10-04T11:09:04Z</time>
      </trkpt>
      <trkpt lat="40.0515320" lon="-4.6455550">
        <ele>421.3</ele>
        <time>2020-10-04T11:09:05Z</time>
      </trkpt>
      <trkpt lat="40.0515930" lon="-4.6455060">
        <ele>421.4</ele>
        <time>2020-10-04T11:09:07Z</time>
      </trkpt>
      <trkpt lat="40.0516420" lon="-4.6454620">
        <ele>421.5</ele>
        <time>2020-10-04T11:09:08Z</time>
      </trkpt>
      <trkpt lat="40.0517150" lon="-4.6454010">
        <ele>421.6</ele>
        <time>2020-10-04T11:09:09Z</time>
      </trkpt>
      <trkpt lat="40.0517660" lon="-4.6453610">
        <ele>421.7</ele>
        <time>2020-10-04T11:09:11Z</time>
      </trkpt>
      <trkpt lat="40.0518230" lon="-4.6453070">
        <ele>421.8</ele>
        <time>2020-10-04T11:09:12Z</time>
      </trkpt>
      <trkpt lat="40.0519220" lon="-4.6452160">
        <ele>421.9</ele>
        <time>2020-10-04T11:09:14Z</time>
      </trkpt>
      <trkpt lat="40.0520110" lon="-4.6451330">
        <ele>422.1</ele>
        <time>2020-10-04T11:09:16Z</time>
      </trkpt>
      <trkpt lat="40.0520540" lon="-4.6450900">
        <ele>422.2</ele>
        <time>2020-10-04T11:09:17Z</time>
      </trkpt>
      <trkpt lat="40.0520980" lon="-4.6450480">
        <ele>422.3</ele>
        <time>2020-10-04T11:09:18Z</time>
      </trkpt>
      <trkpt lat="40.0521430" lon="-4.6450080">
        <ele>422.4</ele>
        <time>2020-10-04T11:09:19Z</time>
      </trkpt>
      <trkpt lat="40.0521870" lon="-4.6449690">
        <ele>422.5</ele>
        <time>2020-10-04T11:09:20Z</time>
      </trkpt>
      <trkpt lat="40.0522760" lon="-4.6448930">
        <ele>422.6</ele>
        <time>2020-10-04T11:09:22Z</time>
      </trkpt>
      <trkpt lat="40.0523660" lon="-4.6448240">
        <ele>422.7</ele>
        <time>2020-10-04T11:09:24Z</time>
      </trkpt>
      <trkpt lat="40.0524070" lon="-4.6447830">
        <ele>422.7</ele>
        <time>2020-10-04T11:09:25Z</time>
      </trkpt>
      <trkpt lat="40.0524500" lon="-4.6447440">
        <ele>422.8</ele>
        <time>2020-10-04T11:09:26Z</time>
      </trkpt>
      <trkpt lat="40.0525320" lon="-4.6446630">
        <ele>422.8</ele>
        <time>2020-10-04T11:09:28Z</time>
      </trkpt>
      <trkpt lat="40.0526180" lon="-4.6445820">
        <ele>422.9</ele>
        <time>2020-10-04T11:09:30Z</time>
      </trkpt>
      <trkpt lat="40.0527010" lon="-4.6445080">
        <ele>423.0</ele>
        <time>2020-10-04T11:09:32Z</time>
      </trkpt>
      <trkpt lat="40.0527430" lon="-4.6444700">
        <ele>423.1</ele>
        <time>2020-10-04T11:09:33Z</time>
      </trkpt>
      <trkpt lat="40.0528210" lon="-4.6443990">
        <ele>423.3</ele>
        <time>2020-10-04T11:09:35Z</time>
      </trkpt>
      <trkpt lat="40.0529010" lon="-4.6443320">
        <ele>423.5</ele>
        <time>2020-10-04T11:09:37Z</time>
      </trkpt>
      <trkpt lat="40.0529960" lon="-4.6443050">
        <ele>423.6</ele>
        <time>2020-10-04T11:09:39Z</time>
      </trkpt>
      <trkpt lat="40.0530410" lon="-4.6443060">
        <ele>423.7</ele>
        <time>2020-10-04T11:09:40Z</time>
      </trkpt>
      <trkpt lat="40.0530840" lon="-4.6443080">
        <ele>423.7</ele>
        <time>2020-10-04T11:09:41Z</time>
      </trkpt>
      <trkpt lat="40.0531260" lon="-4.6443060">
        <ele>423.6</ele>
        <time>2020-10-04T11:09:42Z</time>
      </trkpt>
      <trkpt lat="40.0532050" lon="-4.6442890">
        <ele>423.5</ele>
        <time>2020-10-04T11:09:44Z</time>
      </trkpt>
      <trkpt lat="40.0532340" lon="-4.6442470">
        <ele>423.5</ele>
        <time>2020-10-04T11:09:45Z</time>
      </trkpt>
      <trkpt lat="40.0532720" lon="-4.6440910">
        <ele>422.6</ele>
        <time>2020-10-04T11:09:47Z</time>
      </trkpt>
      <trkpt lat="40.0532870" lon="-4.6439950">
        <ele>422.1</ele>
        <time>2020-10-04T11:09:48Z</time>
      </trkpt>
      <trkpt lat="40.0533170" lon="-4.6437670">
        <ele>421.2</ele>
        <time>2020-10-04T11:09:50Z</time>
      </trkpt>
      <trkpt lat="40.0533310" lon="-4.6436390">
        <ele>420.7</ele>
        <time>2020-10-04T11:09:51Z</time>
      </trkpt>
      <trkpt lat="40.0533950" lon="-4.6434120">
        <ele>419.7</ele>
        <time>2020-10-04T11:09:53Z</time>
      </trkpt>
      <trkpt lat="40.0535280" lon="-4.6433190">
        <ele>419.2</ele>
        <time>2020-10-04T11:09:55Z</time>
      </trkpt>
      <trkpt lat="40.0536750" lon="-4.6433540">
        <ele>419.0</ele>
        <time>2020-10-04T11:09:57Z</time>
      </trkpt>
      <trkpt lat="40.0538010" lon="-4.6433950">
        <ele>419.0</ele>
        <time>2020-10-04T11:09:59Z</time>
      </trkpt>
      <trkpt lat="40.0539080" lon="-4.6434340">
        <ele>419.1</ele>
        <time>2020-10-04T11:10:01Z</time>
      </trkpt>
      <trkpt lat="40.0540120" lon="-4.6434720">
        <ele>419.2</ele>
        <time>2020-10-04T11:10:03Z</time>
      </trkpt>
      <trkpt lat="40.0541150" lon="-4.6434990">
        <ele>419.2</ele>
        <time>2020-10-04T11:10:05Z</time>
      </trkpt>
      <trkpt lat="40.0541700" lon="-4.6435140">
        <ele>419.2</ele>
        <time>2020-10-04T11:10:06Z</time>
      </trkpt>
      <trkpt lat="40.0542280" lon="-4.6435310">
        <ele>419.2</ele>
        <time>2020-10-04T11:10:07Z</time>
      </trkpt>
      <trkpt lat="40.0543370" lon="-4.6435480">
        <ele>419.2</ele>
        <time>2020-10-04T11:10:09Z</time>
      </trkpt>
      <trkpt lat="40.0543640" lon="-4.6435390">
        <ele>419.2</ele>
        <time>2020-10-04T11:10:10Z</time>
      </trkpt>
      <trkpt lat="40.0543700" lon="-4.6435330">
        <ele>419.2</ele>
        <time>2020-10-04T11:10:12Z</time>
      </trkpt>
      <trkpt lat="40.0543650" lon="-4.6435370">
        <ele>419.2</ele>
        <time>2020-10-04T11:10:14Z</time>
      </trkpt>
      <trkpt lat="40.0543630" lon="-4.6435390">
        <ele>419.2</ele>
        <time>2020-10-04T11:10:15Z</time>
      </trkpt>
      <trkpt lat="40.0543610" lon="-4.6435400">
        <ele>419.2</ele>
        <time>2020-10-04T11:10:17Z</time>
      </trkpt>
      <trkpt lat="40.0543630" lon="-4.6435380">
        <ele>419.2</ele>
        <time>2020-10-04T11:10:18Z</time>
      </trkpt>
      <trkpt lat="40.0543700" lon="-4.6435340">
        <ele>419.2</ele>
        <time>2020-10-04T11:10:20Z</time>
      </trkpt>
    </trkseg>
  </trk>
</gpx>
